<?xml version="1.0" encoding="UTF-8" standalone="no" ?>
<gpx xmlns="http://www.topografix.com/GPX/1/1" xmlns:xsi="http://www.w3.org/2001/XMLSchema-instance" xsi:schemaLocation="http://www.topografix.com/GPX/1/1 http://www.topografix.com/GPX/1/1/gpx.xsd" version="1.1" creator="VisuGPX - https://www.visugpx.com">
  <metadata>
    <name>ski Eulier,Petite Vaudaigne,Sorbier</name>
  </metadata>
  <trk>
    <name><![CDATA[ski Eulier,Petite Vaudaigne,Sorbier]]></name>
    <extensions>
      <line xmlns="http://www.topografix.com/GPX/gpx_style/0/2">
        <color>0000FF</color>
        <width>4</width>
      </line>
    </extensions>
    <trkseg>
      <trkpt lat="45.1408" lon="5.88829">
        <ele>1357.5999755859</ele>
        <time>2021-01-06T07:52:04.000Z</time>
      </trkpt>
      <trkpt lat="45.1408" lon="5.88826">
        <ele>1357.8000488281</ele>
        <time>2021-01-06T07:52:13.000Z</time>
      </trkpt>
      <trkpt lat="45.1408" lon="5.88826">
        <ele>1358.5999755859</ele>
        <time>2021-01-06T07:52:16.000Z</time>
      </trkpt>
      <trkpt lat="45.1408" lon="5.88826">
        <ele>1359</ele>
        <time>2021-01-06T07:52:24.000Z</time>
      </trkpt>
      <trkpt lat="45.1408" lon="5.88826">
        <ele>1358.8000488281</ele>
        <time>2021-01-06T07:52:32.000Z</time>
      </trkpt>
      <trkpt lat="45.1408" lon="5.88826">
        <ele>1359</ele>
        <time>2021-01-06T07:52:45.000Z</time>
      </trkpt>
      <trkpt lat="45.14079" lon="5.88826">
        <ele>1359</ele>
        <time>2021-01-06T07:52:52.000Z</time>
      </trkpt>
      <trkpt lat="45.14078" lon="5.88825">
        <ele>1359</ele>
        <time>2021-01-06T07:53:01.000Z</time>
      </trkpt>
      <trkpt lat="45.14078" lon="5.88824">
        <ele>1359</ele>
        <time>2021-01-06T07:53:07.000Z</time>
      </trkpt>
      <trkpt lat="45.14078" lon="5.88823">
        <ele>1358.8000488281</ele>
        <time>2021-01-06T07:53:18.000Z</time>
      </trkpt>
      <trkpt lat="45.14078" lon="5.88824">
        <ele>1358.8000488281</ele>
        <time>2021-01-06T07:53:28.000Z</time>
      </trkpt>
      <trkpt lat="45.14078" lon="5.88824">
        <ele>1359</ele>
        <time>2021-01-06T07:53:38.000Z</time>
      </trkpt>
      <trkpt lat="45.14078" lon="5.88824">
        <ele>1359</ele>
        <time>2021-01-06T07:53:49.000Z</time>
      </trkpt>
      <trkpt lat="45.14072" lon="5.88826">
        <ele>1359</ele>
        <time>2021-01-06T07:53:56.000Z</time>
      </trkpt>
      <trkpt lat="45.14068" lon="5.88828">
        <ele>1359.4000244141</ele>
        <time>2021-01-06T07:54:04.000Z</time>
      </trkpt>
      <trkpt lat="45.14065" lon="5.8883">
        <ele>1359.5999755859</ele>
        <time>2021-01-06T07:54:12.000Z</time>
      </trkpt>
      <trkpt lat="45.14059" lon="5.88833">
        <ele>1359.5999755859</ele>
        <time>2021-01-06T07:54:19.000Z</time>
      </trkpt>
      <trkpt lat="45.14059" lon="5.88834">
        <ele>1360</ele>
        <time>2021-01-06T07:54:20.000Z</time>
      </trkpt>
      <trkpt lat="45.14057" lon="5.88834">
        <ele>1360.1999511719</ele>
        <time>2021-01-06T07:54:25.000Z</time>
      </trkpt>
      <trkpt lat="45.14055" lon="5.88834">
        <ele>1360.4000244141</ele>
        <time>2021-01-06T07:54:30.000Z</time>
      </trkpt>
      <trkpt lat="45.14048" lon="5.88837">
        <ele>1360.8000488281</ele>
        <time>2021-01-06T07:54:38.000Z</time>
      </trkpt>
      <trkpt lat="45.14045" lon="5.88839">
        <ele>1361</ele>
        <time>2021-01-06T07:54:41.000Z</time>
      </trkpt>
      <trkpt lat="45.14039" lon="5.88841">
        <ele>1361.5999755859</ele>
        <time>2021-01-06T07:54:47.000Z</time>
      </trkpt>
      <trkpt lat="45.14037" lon="5.88841">
        <ele>1362.1999511719</ele>
        <time>2021-01-06T07:54:54.000Z</time>
      </trkpt>
      <trkpt lat="45.14037" lon="5.88841">
        <ele>1362.1999511719</ele>
        <time>2021-01-06T07:54:55.000Z</time>
      </trkpt>
      <trkpt lat="45.14038" lon="5.88838">
        <ele>1362.8000488281</ele>
        <time>2021-01-06T07:55:01.000Z</time>
      </trkpt>
      <trkpt lat="45.14041" lon="5.88826">
        <ele>1362.8000488281</ele>
        <time>2021-01-06T07:55:09.000Z</time>
      </trkpt>
      <trkpt lat="45.14046" lon="5.88819">
        <ele>1363</ele>
        <time>2021-01-06T07:55:17.000Z</time>
      </trkpt>
      <trkpt lat="45.14048" lon="5.88816">
        <ele>1363.1999511719</ele>
        <time>2021-01-06T07:55:22.000Z</time>
      </trkpt>
      <trkpt lat="45.1405" lon="5.88813">
        <ele>1363.5999755859</ele>
        <time>2021-01-06T07:55:25.000Z</time>
      </trkpt>
      <trkpt lat="45.14054" lon="5.88808">
        <ele>1364.4000244141</ele>
        <time>2021-01-06T07:55:32.000Z</time>
      </trkpt>
      <trkpt lat="45.14056" lon="5.88807">
        <ele>1364.8000488281</ele>
        <time>2021-01-06T07:55:34.000Z</time>
      </trkpt>
      <trkpt lat="45.14058" lon="5.88804">
        <ele>1365.5999755859</ele>
        <time>2021-01-06T07:55:38.000Z</time>
      </trkpt>
      <trkpt lat="45.14059" lon="5.88803">
        <ele>1365.8000488281</ele>
        <time>2021-01-06T07:55:39.000Z</time>
      </trkpt>
      <trkpt lat="45.1406" lon="5.88799">
        <ele>1366.8000488281</ele>
        <time>2021-01-06T07:55:44.000Z</time>
      </trkpt>
      <trkpt lat="45.1406" lon="5.88798">
        <ele>1367</ele>
        <time>2021-01-06T07:55:45.000Z</time>
      </trkpt>
      <trkpt lat="45.1406" lon="5.88794">
        <ele>1367.8000488281</ele>
        <time>2021-01-06T07:55:49.000Z</time>
      </trkpt>
      <trkpt lat="45.14058" lon="5.88793">
        <ele>1368.5999755859</ele>
        <time>2021-01-06T07:55:52.000Z</time>
      </trkpt>
      <trkpt lat="45.14057" lon="5.88792">
        <ele>1369</ele>
        <time>2021-01-06T07:55:54.000Z</time>
      </trkpt>
      <trkpt lat="45.14054" lon="5.88791">
        <ele>1370</ele>
        <time>2021-01-06T07:55:58.000Z</time>
      </trkpt>
      <trkpt lat="45.14053" lon="5.8879">
        <ele>1370.4000244141</ele>
        <time>2021-01-06T07:56:00.000Z</time>
      </trkpt>
      <trkpt lat="45.14052" lon="5.88789">
        <ele>1371.1999511719</ele>
        <time>2021-01-06T07:56:03.000Z</time>
      </trkpt>
      <trkpt lat="45.14049" lon="5.88789">
        <ele>1372</ele>
        <time>2021-01-06T07:56:07.000Z</time>
      </trkpt>
      <trkpt lat="45.14047" lon="5.88789">
        <ele>1372.4000244141</ele>
        <time>2021-01-06T07:56:09.000Z</time>
      </trkpt>
      <trkpt lat="45.14045" lon="5.88787">
        <ele>1373.4000244141</ele>
        <time>2021-01-06T07:56:13.000Z</time>
      </trkpt>
      <trkpt lat="45.14044" lon="5.88786">
        <ele>1373.5999755859</ele>
        <time>2021-01-06T07:56:14.000Z</time>
      </trkpt>
      <trkpt lat="45.14041" lon="5.88784">
        <ele>1374.5999755859</ele>
        <time>2021-01-06T07:56:19.000Z</time>
      </trkpt>
      <trkpt lat="45.14041" lon="5.88784">
        <ele>1375.1999511719</ele>
        <time>2021-01-06T07:56:20.000Z</time>
      </trkpt>
      <trkpt lat="45.14039" lon="5.88782">
        <ele>1375.8000488281</ele>
        <time>2021-01-06T07:56:24.000Z</time>
      </trkpt>
      <trkpt lat="45.14038" lon="5.8878">
        <ele>1376.4000244141</ele>
        <time>2021-01-06T07:56:27.000Z</time>
      </trkpt>
      <trkpt lat="45.14037" lon="5.88777">
        <ele>1377</ele>
        <time>2021-01-06T07:56:30.000Z</time>
      </trkpt>
      <trkpt lat="45.14034" lon="5.88774">
        <ele>1377.8000488281</ele>
        <time>2021-01-06T07:56:35.000Z</time>
      </trkpt>
      <trkpt lat="45.14028" lon="5.88773">
        <ele>1378</ele>
        <time>2021-01-06T07:56:41.000Z</time>
      </trkpt>
      <trkpt lat="45.14024" lon="5.88772">
        <ele>1378</ele>
        <time>2021-01-06T07:56:44.000Z</time>
      </trkpt>
      <trkpt lat="45.1402" lon="5.88775">
        <ele>1378</ele>
        <time>2021-01-06T07:56:47.000Z</time>
      </trkpt>
      <trkpt lat="45.14017" lon="5.88775">
        <ele>1377.8000488281</ele>
        <time>2021-01-06T07:56:50.000Z</time>
      </trkpt>
      <trkpt lat="45.1401" lon="5.88776">
        <ele>1378</ele>
        <time>2021-01-06T07:56:57.000Z</time>
      </trkpt>
      <trkpt lat="45.14002" lon="5.88772">
        <ele>1378.5999755859</ele>
        <time>2021-01-06T07:57:05.000Z</time>
      </trkpt>
      <trkpt lat="45.13998" lon="5.88771">
        <ele>1379</ele>
        <time>2021-01-06T07:57:08.000Z</time>
      </trkpt>
      <trkpt lat="45.13993" lon="5.8877">
        <ele>1379.5999755859</ele>
        <time>2021-01-06T07:57:14.000Z</time>
      </trkpt>
      <trkpt lat="45.13987" lon="5.88769">
        <ele>1380.1999511719</ele>
        <time>2021-01-06T07:57:20.000Z</time>
      </trkpt>
      <trkpt lat="45.13986" lon="5.88768">
        <ele>1380.5999755859</ele>
        <time>2021-01-06T07:57:22.000Z</time>
      </trkpt>
      <trkpt lat="45.13979" lon="5.88768">
        <ele>1381.4000244141</ele>
        <time>2021-01-06T07:57:29.000Z</time>
      </trkpt>
      <trkpt lat="45.13972" lon="5.88771">
        <ele>1382.4000244141</ele>
        <time>2021-01-06T07:57:36.000Z</time>
      </trkpt>
      <trkpt lat="45.13971" lon="5.88772">
        <ele>1382.5999755859</ele>
        <time>2021-01-06T07:57:37.000Z</time>
      </trkpt>
      <trkpt lat="45.13966" lon="5.88774">
        <ele>1383.5999755859</ele>
        <time>2021-01-06T07:57:42.000Z</time>
      </trkpt>
      <trkpt lat="45.13962" lon="5.88775">
        <ele>1384.1999511719</ele>
        <time>2021-01-06T07:57:46.000Z</time>
      </trkpt>
      <trkpt lat="45.13961" lon="5.88776">
        <ele>1384.5999755859</ele>
        <time>2021-01-06T07:57:48.000Z</time>
      </trkpt>
      <trkpt lat="45.13957" lon="5.88778">
        <ele>1385.5999755859</ele>
        <time>2021-01-06T07:57:53.000Z</time>
      </trkpt>
      <trkpt lat="45.13956" lon="5.88779">
        <ele>1386</ele>
        <time>2021-01-06T07:57:54.000Z</time>
      </trkpt>
      <trkpt lat="45.13952" lon="5.8878">
        <ele>1386.8000488281</ele>
        <time>2021-01-06T07:57:59.000Z</time>
      </trkpt>
      <trkpt lat="45.13948" lon="5.88781">
        <ele>1387.5999755859</ele>
        <time>2021-01-06T07:58:02.000Z</time>
      </trkpt>
      <trkpt lat="45.13948" lon="5.88782">
        <ele>1387.8000488281</ele>
        <time>2021-01-06T07:58:03.000Z</time>
      </trkpt>
      <trkpt lat="45.13944" lon="5.88782">
        <ele>1389</ele>
        <time>2021-01-06T07:58:08.000Z</time>
      </trkpt>
      <trkpt lat="45.13943" lon="5.88782">
        <ele>1389.5999755859</ele>
        <time>2021-01-06T07:58:10.000Z</time>
      </trkpt>
      <trkpt lat="45.13941" lon="5.88782">
        <ele>1390.1999511719</ele>
        <time>2021-01-06T07:58:12.000Z</time>
      </trkpt>
      <trkpt lat="45.13937" lon="5.88782">
        <ele>1391.1999511719</ele>
        <time>2021-01-06T07:58:16.000Z</time>
      </trkpt>
      <trkpt lat="45.13935" lon="5.88783">
        <ele>1391.5999755859</ele>
        <time>2021-01-06T07:58:18.000Z</time>
      </trkpt>
      <trkpt lat="45.13934" lon="5.88782">
        <ele>1392.4000244141</ele>
        <time>2021-01-06T07:58:20.000Z</time>
      </trkpt>
      <trkpt lat="45.1393" lon="5.88783">
        <ele>1393.4000244141</ele>
        <time>2021-01-06T07:58:24.000Z</time>
      </trkpt>
      <trkpt lat="45.13928" lon="5.88784">
        <ele>1394.1999511719</ele>
        <time>2021-01-06T07:58:27.000Z</time>
      </trkpt>
      <trkpt lat="45.13927" lon="5.88784">
        <ele>1394.5999755859</ele>
        <time>2021-01-06T07:58:29.000Z</time>
      </trkpt>
      <trkpt lat="45.13923" lon="5.88786">
        <ele>1395.5999755859</ele>
        <time>2021-01-06T07:58:33.000Z</time>
      </trkpt>
      <trkpt lat="45.13919" lon="5.88787">
        <ele>1397</ele>
        <time>2021-01-06T07:58:38.000Z</time>
      </trkpt>
      <trkpt lat="45.13918" lon="5.88788">
        <ele>1397.1999511719</ele>
        <time>2021-01-06T07:58:39.000Z</time>
      </trkpt>
      <trkpt lat="45.13913" lon="5.88787">
        <ele>1398</ele>
        <time>2021-01-06T07:58:43.000Z</time>
      </trkpt>
      <trkpt lat="45.13912" lon="5.88788">
        <ele>1399</ele>
        <time>2021-01-06T07:58:46.000Z</time>
      </trkpt>
      <trkpt lat="45.13911" lon="5.88788">
        <ele>1399.1999511719</ele>
        <time>2021-01-06T07:58:47.000Z</time>
      </trkpt>
      <trkpt lat="45.13907" lon="5.8879">
        <ele>1400.1999511719</ele>
        <time>2021-01-06T07:58:52.000Z</time>
      </trkpt>
      <trkpt lat="45.13906" lon="5.88791">
        <ele>1400.5999755859</ele>
        <time>2021-01-06T07:58:54.000Z</time>
      </trkpt>
      <trkpt lat="45.13901" lon="5.88791">
        <ele>1401.4000244141</ele>
        <time>2021-01-06T07:58:58.000Z</time>
      </trkpt>
      <trkpt lat="45.13901" lon="5.8879">
        <ele>1401.5999755859</ele>
        <time>2021-01-06T07:58:59.000Z</time>
      </trkpt>
      <trkpt lat="45.13897" lon="5.8879">
        <ele>1402.5999755859</ele>
        <time>2021-01-06T07:59:03.000Z</time>
      </trkpt>
      <trkpt lat="45.13893" lon="5.88791">
        <ele>1403.1999511719</ele>
        <time>2021-01-06T07:59:07.000Z</time>
      </trkpt>
      <trkpt lat="45.13891" lon="5.88791">
        <ele>1404</ele>
        <time>2021-01-06T07:59:09.000Z</time>
      </trkpt>
      <trkpt lat="45.13887" lon="5.88792">
        <ele>1405</ele>
        <time>2021-01-06T07:59:15.000Z</time>
      </trkpt>
      <trkpt lat="45.13883" lon="5.88793">
        <ele>1406.1999511719</ele>
        <time>2021-01-06T07:59:20.000Z</time>
      </trkpt>
      <trkpt lat="45.13881" lon="5.88794">
        <ele>1406.5999755859</ele>
        <time>2021-01-06T07:59:22.000Z</time>
      </trkpt>
      <trkpt lat="45.13878" lon="5.88795">
        <ele>1407.4000244141</ele>
        <time>2021-01-06T07:59:25.000Z</time>
      </trkpt>
      <trkpt lat="45.13875" lon="5.88797">
        <ele>1408.4000244141</ele>
        <time>2021-01-06T07:59:29.000Z</time>
      </trkpt>
      <trkpt lat="45.13874" lon="5.88797">
        <ele>1408.5999755859</ele>
        <time>2021-01-06T07:59:30.000Z</time>
      </trkpt>
      <trkpt lat="45.1387" lon="5.88798">
        <ele>1409.5999755859</ele>
        <time>2021-01-06T07:59:33.000Z</time>
      </trkpt>
      <trkpt lat="45.13867" lon="5.888">
        <ele>1410.8000488281</ele>
        <time>2021-01-06T07:59:38.000Z</time>
      </trkpt>
      <trkpt lat="45.13862" lon="5.888">
        <ele>1411.8000488281</ele>
        <time>2021-01-06T07:59:43.000Z</time>
      </trkpt>
      <trkpt lat="45.1386" lon="5.888">
        <ele>1412.5999755859</ele>
        <time>2021-01-06T07:59:46.000Z</time>
      </trkpt>
      <trkpt lat="45.13858" lon="5.888">
        <ele>1413</ele>
        <time>2021-01-06T07:59:48.000Z</time>
      </trkpt>
      <trkpt lat="45.13853" lon="5.88801">
        <ele>1414.1999511719</ele>
        <time>2021-01-06T07:59:53.000Z</time>
      </trkpt>
      <trkpt lat="45.13853" lon="5.888">
        <ele>1414.4000244141</ele>
        <time>2021-01-06T07:59:54.000Z</time>
      </trkpt>
      <trkpt lat="45.13851" lon="5.888">
        <ele>1415.4000244141</ele>
        <time>2021-01-06T07:59:57.000Z</time>
      </trkpt>
      <trkpt lat="45.13847" lon="5.88801">
        <ele>1416.4000244141</ele>
        <time>2021-01-06T08:00:02.000Z</time>
      </trkpt>
      <trkpt lat="45.13844" lon="5.88802">
        <ele>1417.5999755859</ele>
        <time>2021-01-06T08:00:07.000Z</time>
      </trkpt>
      <trkpt lat="45.13843" lon="5.88803">
        <ele>1418</ele>
        <time>2021-01-06T08:00:09.000Z</time>
      </trkpt>
      <trkpt lat="45.1384" lon="5.88804">
        <ele>1418.5999755859</ele>
        <time>2021-01-06T08:00:12.000Z</time>
      </trkpt>
      <trkpt lat="45.13837" lon="5.88804">
        <ele>1419.1999511719</ele>
        <time>2021-01-06T08:00:15.000Z</time>
      </trkpt>
      <trkpt lat="45.13836" lon="5.88804">
        <ele>1419.5999755859</ele>
        <time>2021-01-06T08:00:17.000Z</time>
      </trkpt>
      <trkpt lat="45.13832" lon="5.88806">
        <ele>1420.8000488281</ele>
        <time>2021-01-06T08:00:22.000Z</time>
      </trkpt>
      <trkpt lat="45.13832" lon="5.88806">
        <ele>1420.8000488281</ele>
        <time>2021-01-06T08:00:23.000Z</time>
      </trkpt>
      <trkpt lat="45.13827" lon="5.88806">
        <ele>1422</ele>
        <time>2021-01-06T08:00:28.000Z</time>
      </trkpt>
      <trkpt lat="45.13826" lon="5.88806">
        <ele>1422.4000244141</ele>
        <time>2021-01-06T08:00:30.000Z</time>
      </trkpt>
      <trkpt lat="45.13824" lon="5.88806">
        <ele>1423</ele>
        <time>2021-01-06T08:00:33.000Z</time>
      </trkpt>
      <trkpt lat="45.13821" lon="5.88806">
        <ele>1423.5999755859</ele>
        <time>2021-01-06T08:00:36.000Z</time>
      </trkpt>
      <trkpt lat="45.13819" lon="5.88806">
        <ele>1424.1999511719</ele>
        <time>2021-01-06T08:00:39.000Z</time>
      </trkpt>
      <trkpt lat="45.13815" lon="5.88806">
        <ele>1425.4000244141</ele>
        <time>2021-01-06T08:00:44.000Z</time>
      </trkpt>
      <trkpt lat="45.13813" lon="5.88807">
        <ele>1425.8000488281</ele>
        <time>2021-01-06T08:00:45.000Z</time>
      </trkpt>
      <trkpt lat="45.13812" lon="5.88808">
        <ele>1426.5999755859</ele>
        <time>2021-01-06T08:00:48.000Z</time>
      </trkpt>
      <trkpt lat="45.13807" lon="5.88809">
        <ele>1427.8000488281</ele>
        <time>2021-01-06T08:00:53.000Z</time>
      </trkpt>
      <trkpt lat="45.13806" lon="5.8881">
        <ele>1428</ele>
        <time>2021-01-06T08:00:54.000Z</time>
      </trkpt>
      <trkpt lat="45.13803" lon="5.88811">
        <ele>1429</ele>
        <time>2021-01-06T08:00:58.000Z</time>
      </trkpt>
      <trkpt lat="45.13801" lon="5.88811">
        <ele>1429.5999755859</ele>
        <time>2021-01-06T08:01:01.000Z</time>
      </trkpt>
      <trkpt lat="45.138" lon="5.88812">
        <ele>1430</ele>
        <time>2021-01-06T08:01:03.000Z</time>
      </trkpt>
      <trkpt lat="45.13797" lon="5.88813">
        <ele>1431.1999511719</ele>
        <time>2021-01-06T08:01:08.000Z</time>
      </trkpt>
      <trkpt lat="45.13795" lon="5.88813">
        <ele>1432</ele>
        <time>2021-01-06T08:01:10.000Z</time>
      </trkpt>
      <trkpt lat="45.13794" lon="5.88814">
        <ele>1432.4000244141</ele>
        <time>2021-01-06T08:01:11.000Z</time>
      </trkpt>
      <trkpt lat="45.13792" lon="5.88815">
        <ele>1433.4000244141</ele>
        <time>2021-01-06T08:01:15.000Z</time>
      </trkpt>
      <trkpt lat="45.1379" lon="5.88816">
        <ele>1433.8000488281</ele>
        <time>2021-01-06T08:01:17.000Z</time>
      </trkpt>
      <trkpt lat="45.13789" lon="5.88817">
        <ele>1434.5999755859</ele>
        <time>2021-01-06T08:01:20.000Z</time>
      </trkpt>
      <trkpt lat="45.13787" lon="5.88818">
        <ele>1435.4000244141</ele>
        <time>2021-01-06T08:01:23.000Z</time>
      </trkpt>
      <trkpt lat="45.13786" lon="5.88818">
        <ele>1435.5999755859</ele>
        <time>2021-01-06T08:01:24.000Z</time>
      </trkpt>
      <trkpt lat="45.13783" lon="5.88818">
        <ele>1436.8000488281</ele>
        <time>2021-01-06T08:01:29.000Z</time>
      </trkpt>
      <trkpt lat="45.13782" lon="5.88819">
        <ele>1437.4000244141</ele>
        <time>2021-01-06T08:01:31.000Z</time>
      </trkpt>
      <trkpt lat="45.1378" lon="5.8882">
        <ele>1438.1999511719</ele>
        <time>2021-01-06T08:01:33.000Z</time>
      </trkpt>
      <trkpt lat="45.13777" lon="5.88821">
        <ele>1439.4000244141</ele>
        <time>2021-01-06T08:01:38.000Z</time>
      </trkpt>
      <trkpt lat="45.13777" lon="5.88821">
        <ele>1439.5999755859</ele>
        <time>2021-01-06T08:01:39.000Z</time>
      </trkpt>
      <trkpt lat="45.13775" lon="5.88822">
        <ele>1440.4000244141</ele>
        <time>2021-01-06T08:01:42.000Z</time>
      </trkpt>
      <trkpt lat="45.13773" lon="5.88823">
        <ele>1441</ele>
        <time>2021-01-06T08:01:45.000Z</time>
      </trkpt>
      <trkpt lat="45.13772" lon="5.88823">
        <ele>1441.1999511719</ele>
        <time>2021-01-06T08:01:46.000Z</time>
      </trkpt>
      <trkpt lat="45.13772" lon="5.88824">
        <ele>1441.4000244141</ele>
        <time>2021-01-06T08:01:47.000Z</time>
      </trkpt>
      <trkpt lat="45.13769" lon="5.88825">
        <ele>1442.4000244141</ele>
        <time>2021-01-06T08:01:51.000Z</time>
      </trkpt>
      <trkpt lat="45.13767" lon="5.88826">
        <ele>1443</ele>
        <time>2021-01-06T08:01:53.000Z</time>
      </trkpt>
      <trkpt lat="45.13765" lon="5.88826">
        <ele>1443.8000488281</ele>
        <time>2021-01-06T08:01:56.000Z</time>
      </trkpt>
      <trkpt lat="45.13763" lon="5.88828">
        <ele>1444.8000488281</ele>
        <time>2021-01-06T08:01:59.000Z</time>
      </trkpt>
      <trkpt lat="45.13762" lon="5.88828">
        <ele>1445.1999511719</ele>
        <time>2021-01-06T08:02:00.000Z</time>
      </trkpt>
      <trkpt lat="45.1376" lon="5.88829">
        <ele>1446</ele>
        <time>2021-01-06T08:02:03.000Z</time>
      </trkpt>
      <trkpt lat="45.13758" lon="5.8883">
        <ele>1447</ele>
        <time>2021-01-06T08:02:07.000Z</time>
      </trkpt>
      <trkpt lat="45.13758" lon="5.88831">
        <ele>1447.4000244141</ele>
        <time>2021-01-06T08:02:08.000Z</time>
      </trkpt>
      <trkpt lat="45.13756" lon="5.88831">
        <ele>1448.1999511719</ele>
        <time>2021-01-06T08:02:11.000Z</time>
      </trkpt>
      <trkpt lat="45.13753" lon="5.88833">
        <ele>1449.4000244141</ele>
        <time>2021-01-06T08:02:16.000Z</time>
      </trkpt>
      <trkpt lat="45.13753" lon="5.88833">
        <ele>1449.5999755859</ele>
        <time>2021-01-06T08:02:17.000Z</time>
      </trkpt>
      <trkpt lat="45.13752" lon="5.88833">
        <ele>1450.8000488281</ele>
        <time>2021-01-06T08:02:21.000Z</time>
      </trkpt>
      <trkpt lat="45.1375" lon="5.88834">
        <ele>1451.5999755859</ele>
        <time>2021-01-06T08:02:24.000Z</time>
      </trkpt>
      <trkpt lat="45.13749" lon="5.88834">
        <ele>1452</ele>
        <time>2021-01-06T08:02:25.000Z</time>
      </trkpt>
      <trkpt lat="45.13747" lon="5.88836">
        <ele>1453.1999511719</ele>
        <time>2021-01-06T08:02:30.000Z</time>
      </trkpt>
      <trkpt lat="45.13744" lon="5.88837">
        <ele>1453.5999755859</ele>
        <time>2021-01-06T08:02:32.000Z</time>
      </trkpt>
      <trkpt lat="45.13743" lon="5.88836">
        <ele>1454.1999511719</ele>
        <time>2021-01-06T08:02:34.000Z</time>
      </trkpt>
      <trkpt lat="45.13741" lon="5.88836">
        <ele>1455.1999511719</ele>
        <time>2021-01-06T08:02:38.000Z</time>
      </trkpt>
      <trkpt lat="45.1374" lon="5.88836">
        <ele>1455.4000244141</ele>
        <time>2021-01-06T08:02:39.000Z</time>
      </trkpt>
      <trkpt lat="45.13737" lon="5.88834">
        <ele>1456.5999755859</ele>
        <time>2021-01-06T08:02:44.000Z</time>
      </trkpt>
      <trkpt lat="45.13737" lon="5.88833">
        <ele>1457</ele>
        <time>2021-01-06T08:02:45.000Z</time>
      </trkpt>
      <trkpt lat="45.13735" lon="5.88833">
        <ele>1457.8000488281</ele>
        <time>2021-01-06T08:02:48.000Z</time>
      </trkpt>
      <trkpt lat="45.13733" lon="5.88832">
        <ele>1458.8000488281</ele>
        <time>2021-01-06T08:02:52.000Z</time>
      </trkpt>
      <trkpt lat="45.13732" lon="5.88831">
        <ele>1459</ele>
        <time>2021-01-06T08:02:53.000Z</time>
      </trkpt>
      <trkpt lat="45.1373" lon="5.88832">
        <ele>1460.1999511719</ele>
        <time>2021-01-06T08:02:58.000Z</time>
      </trkpt>
      <trkpt lat="45.13727" lon="5.88832">
        <ele>1461.4000244141</ele>
        <time>2021-01-06T08:03:03.000Z</time>
      </trkpt>
      <trkpt lat="45.13726" lon="5.88832">
        <ele>1462</ele>
        <time>2021-01-06T08:03:05.000Z</time>
      </trkpt>
      <trkpt lat="45.13724" lon="5.88829">
        <ele>1462.5999755859</ele>
        <time>2021-01-06T08:03:08.000Z</time>
      </trkpt>
      <trkpt lat="45.13723" lon="5.88829">
        <ele>1463.5999755859</ele>
        <time>2021-01-06T08:03:11.000Z</time>
      </trkpt>
      <trkpt lat="45.13722" lon="5.88828">
        <ele>1463.8000488281</ele>
        <time>2021-01-06T08:03:12.000Z</time>
      </trkpt>
      <trkpt lat="45.1372" lon="5.88828">
        <ele>1464.8000488281</ele>
        <time>2021-01-06T08:03:17.000Z</time>
      </trkpt>
      <trkpt lat="45.13719" lon="5.88828">
        <ele>1465</ele>
        <time>2021-01-06T08:03:18.000Z</time>
      </trkpt>
      <trkpt lat="45.13717" lon="5.88827">
        <ele>1465.8000488281</ele>
        <time>2021-01-06T08:03:22.000Z</time>
      </trkpt>
      <trkpt lat="45.13715" lon="5.88827">
        <ele>1467</ele>
        <time>2021-01-06T08:03:27.000Z</time>
      </trkpt>
      <trkpt lat="45.13714" lon="5.88827">
        <ele>1467.1999511719</ele>
        <time>2021-01-06T08:03:28.000Z</time>
      </trkpt>
      <trkpt lat="45.13712" lon="5.88828">
        <ele>1468</ele>
        <time>2021-01-06T08:03:32.000Z</time>
      </trkpt>
      <trkpt lat="45.1371" lon="5.88827">
        <ele>1469</ele>
        <time>2021-01-06T08:03:35.000Z</time>
      </trkpt>
      <trkpt lat="45.13709" lon="5.88827">
        <ele>1469</ele>
        <time>2021-01-06T08:03:36.000Z</time>
      </trkpt>
      <trkpt lat="45.13705" lon="5.88826">
        <ele>1470.4000244141</ele>
        <time>2021-01-06T08:03:42.000Z</time>
      </trkpt>
      <trkpt lat="45.137" lon="5.88824">
        <ele>1471.4000244141</ele>
        <time>2021-01-06T08:03:48.000Z</time>
      </trkpt>
      <trkpt lat="45.13696" lon="5.88824">
        <ele>1472.1999511719</ele>
        <time>2021-01-06T08:03:54.000Z</time>
      </trkpt>
      <trkpt lat="45.13695" lon="5.88824">
        <ele>1472.4000244141</ele>
        <time>2021-01-06T08:03:55.000Z</time>
      </trkpt>
      <trkpt lat="45.13692" lon="5.88824">
        <ele>1473.5999755859</ele>
        <time>2021-01-06T08:04:01.000Z</time>
      </trkpt>
      <trkpt lat="45.13691" lon="5.88824">
        <ele>1473.8000488281</ele>
        <time>2021-01-06T08:04:02.000Z</time>
      </trkpt>
      <trkpt lat="45.13688" lon="5.88825">
        <ele>1474.8000488281</ele>
        <time>2021-01-06T08:04:07.000Z</time>
      </trkpt>
      <trkpt lat="45.13687" lon="5.88826">
        <ele>1474.8000488281</ele>
        <time>2021-01-06T08:04:08.000Z</time>
      </trkpt>
      <trkpt lat="45.13683" lon="5.88825">
        <ele>1475.8000488281</ele>
        <time>2021-01-06T08:04:13.000Z</time>
      </trkpt>
      <trkpt lat="45.13683" lon="5.88825">
        <ele>1476.1999511719</ele>
        <time>2021-01-06T08:04:14.000Z</time>
      </trkpt>
      <trkpt lat="45.13679" lon="5.88825">
        <ele>1477</ele>
        <time>2021-01-06T08:04:18.000Z</time>
      </trkpt>
      <trkpt lat="45.13677" lon="5.88825">
        <ele>1477.5999755859</ele>
        <time>2021-01-06T08:04:21.000Z</time>
      </trkpt>
      <trkpt lat="45.13675" lon="5.88825">
        <ele>1478</ele>
        <time>2021-01-06T08:04:23.000Z</time>
      </trkpt>
      <trkpt lat="45.13671" lon="5.88824">
        <ele>1479.1999511719</ele>
        <time>2021-01-06T08:04:28.000Z</time>
      </trkpt>
      <trkpt lat="45.13666" lon="5.88823">
        <ele>1480.4000244141</ele>
        <time>2021-01-06T08:04:34.000Z</time>
      </trkpt>
      <trkpt lat="45.13663" lon="5.88825">
        <ele>1481.4000244141</ele>
        <time>2021-01-06T08:04:39.000Z</time>
      </trkpt>
      <trkpt lat="45.13662" lon="5.88825">
        <ele>1481.8000488281</ele>
        <time>2021-01-06T08:04:41.000Z</time>
      </trkpt>
      <trkpt lat="45.1366" lon="5.88827">
        <ele>1482.4000244141</ele>
        <time>2021-01-06T08:04:44.000Z</time>
      </trkpt>
      <trkpt lat="45.13656" lon="5.88827">
        <ele>1483.5999755859</ele>
        <time>2021-01-06T08:04:49.000Z</time>
      </trkpt>
      <trkpt lat="45.13655" lon="5.88828">
        <ele>1484</ele>
        <time>2021-01-06T08:04:51.000Z</time>
      </trkpt>
      <trkpt lat="45.1365" lon="5.88826">
        <ele>1484.8000488281</ele>
        <time>2021-01-06T08:04:55.000Z</time>
      </trkpt>
      <trkpt lat="45.13648" lon="5.88827">
        <ele>1485.8000488281</ele>
        <time>2021-01-06T08:04:59.000Z</time>
      </trkpt>
      <trkpt lat="45.13647" lon="5.88827">
        <ele>1486</ele>
        <time>2021-01-06T08:05:00.000Z</time>
      </trkpt>
      <trkpt lat="45.13643" lon="5.88832">
        <ele>1487</ele>
        <time>2021-01-06T08:05:05.000Z</time>
      </trkpt>
      <trkpt lat="45.13642" lon="5.88833">
        <ele>1487.5999755859</ele>
        <time>2021-01-06T08:05:07.000Z</time>
      </trkpt>
      <trkpt lat="45.13639" lon="5.88833">
        <ele>1488.1999511719</ele>
        <time>2021-01-06T08:05:09.000Z</time>
      </trkpt>
      <trkpt lat="45.13635" lon="5.88836">
        <ele>1489.1999511719</ele>
        <time>2021-01-06T08:05:15.000Z</time>
      </trkpt>
      <trkpt lat="45.13631" lon="5.88838">
        <ele>1490.4000244141</ele>
        <time>2021-01-06T08:05:20.000Z</time>
      </trkpt>
      <trkpt lat="45.13629" lon="5.88839">
        <ele>1490.5999755859</ele>
        <time>2021-01-06T08:05:22.000Z</time>
      </trkpt>
      <trkpt lat="45.13625" lon="5.88841">
        <ele>1491.4000244141</ele>
        <time>2021-01-06T08:05:26.000Z</time>
      </trkpt>
      <trkpt lat="45.13623" lon="5.88843">
        <ele>1491.8000488281</ele>
        <time>2021-01-06T08:05:30.000Z</time>
      </trkpt>
      <trkpt lat="45.1362" lon="5.88843">
        <ele>1492.5999755859</ele>
        <time>2021-01-06T08:05:34.000Z</time>
      </trkpt>
      <trkpt lat="45.13617" lon="5.88842">
        <ele>1493.4000244141</ele>
        <time>2021-01-06T08:05:38.000Z</time>
      </trkpt>
      <trkpt lat="45.13614" lon="5.88841">
        <ele>1493.5999755859</ele>
        <time>2021-01-06T08:05:40.000Z</time>
      </trkpt>
      <trkpt lat="45.13612" lon="5.8884">
        <ele>1494.1999511719</ele>
        <time>2021-01-06T08:05:43.000Z</time>
      </trkpt>
      <trkpt lat="45.13608" lon="5.8884">
        <ele>1494.8000488281</ele>
        <time>2021-01-06T08:05:47.000Z</time>
      </trkpt>
      <trkpt lat="45.13605" lon="5.88839">
        <ele>1495.8000488281</ele>
        <time>2021-01-06T08:05:52.000Z</time>
      </trkpt>
      <trkpt lat="45.13605" lon="5.88839">
        <ele>1495.8000488281</ele>
        <time>2021-01-06T08:05:53.000Z</time>
      </trkpt>
      <trkpt lat="45.136" lon="5.88838">
        <ele>1496.8000488281</ele>
        <time>2021-01-06T08:05:58.000Z</time>
      </trkpt>
      <trkpt lat="45.13597" lon="5.88837">
        <ele>1498</ele>
        <time>2021-01-06T08:06:03.000Z</time>
      </trkpt>
      <trkpt lat="45.13595" lon="5.88837">
        <ele>1498.5999755859</ele>
        <time>2021-01-06T08:06:06.000Z</time>
      </trkpt>
      <trkpt lat="45.13593" lon="5.88837">
        <ele>1499</ele>
        <time>2021-01-06T08:06:08.000Z</time>
      </trkpt>
      <trkpt lat="45.13591" lon="5.88838">
        <ele>1500.1999511719</ele>
        <time>2021-01-06T08:06:13.000Z</time>
      </trkpt>
      <trkpt lat="45.13589" lon="5.88838">
        <ele>1500.4000244141</ele>
        <time>2021-01-06T08:06:14.000Z</time>
      </trkpt>
      <trkpt lat="45.13586" lon="5.88838">
        <ele>1501.4000244141</ele>
        <time>2021-01-06T08:06:18.000Z</time>
      </trkpt>
      <trkpt lat="45.13582" lon="5.88838">
        <ele>1502.4000244141</ele>
        <time>2021-01-06T08:06:22.000Z</time>
      </trkpt>
      <trkpt lat="45.13579" lon="5.88839">
        <ele>1503.5999755859</ele>
        <time>2021-01-06T08:06:27.000Z</time>
      </trkpt>
      <trkpt lat="45.13577" lon="5.88838">
        <ele>1504</ele>
        <time>2021-01-06T08:06:30.000Z</time>
      </trkpt>
      <trkpt lat="45.13575" lon="5.88837">
        <ele>1504.5999755859</ele>
        <time>2021-01-06T08:06:32.000Z</time>
      </trkpt>
      <trkpt lat="45.13573" lon="5.88836">
        <ele>1505.8000488281</ele>
        <time>2021-01-06T08:06:37.000Z</time>
      </trkpt>
      <trkpt lat="45.13568" lon="5.88835">
        <ele>1507</ele>
        <time>2021-01-06T08:06:44.000Z</time>
      </trkpt>
      <trkpt lat="45.13565" lon="5.88835">
        <ele>1508</ele>
        <time>2021-01-06T08:06:48.000Z</time>
      </trkpt>
      <trkpt lat="45.13565" lon="5.88835">
        <ele>1508.1999511719</ele>
        <time>2021-01-06T08:06:49.000Z</time>
      </trkpt>
      <trkpt lat="45.13561" lon="5.88835">
        <ele>1509.1999511719</ele>
        <time>2021-01-06T08:06:55.000Z</time>
      </trkpt>
      <trkpt lat="45.13559" lon="5.88835">
        <ele>1509.8000488281</ele>
        <time>2021-01-06T08:06:57.000Z</time>
      </trkpt>
      <trkpt lat="45.13558" lon="5.88836">
        <ele>1510.4000244141</ele>
        <time>2021-01-06T08:07:00.000Z</time>
      </trkpt>
      <trkpt lat="45.13555" lon="5.88837">
        <ele>1511.5999755859</ele>
        <time>2021-01-06T08:07:05.000Z</time>
      </trkpt>
      <trkpt lat="45.13552" lon="5.88838">
        <ele>1512.8000488281</ele>
        <time>2021-01-06T08:07:09.000Z</time>
      </trkpt>
      <trkpt lat="45.13548" lon="5.88839">
        <ele>1514</ele>
        <time>2021-01-06T08:07:14.000Z</time>
      </trkpt>
      <trkpt lat="45.13543" lon="5.8884">
        <ele>1515.1999511719</ele>
        <time>2021-01-06T08:07:19.000Z</time>
      </trkpt>
      <trkpt lat="45.13541" lon="5.8884">
        <ele>1516</ele>
        <time>2021-01-06T08:07:22.000Z</time>
      </trkpt>
      <trkpt lat="45.13539" lon="5.8884">
        <ele>1516.4000244141</ele>
        <time>2021-01-06T08:07:24.000Z</time>
      </trkpt>
      <trkpt lat="45.13536" lon="5.8884">
        <ele>1517.5999755859</ele>
        <time>2021-01-06T08:07:29.000Z</time>
      </trkpt>
      <trkpt lat="45.13535" lon="5.8884">
        <ele>1517.8000488281</ele>
        <time>2021-01-06T08:07:30.000Z</time>
      </trkpt>
      <trkpt lat="45.13532" lon="5.88839">
        <ele>1518.8000488281</ele>
        <time>2021-01-06T08:07:34.000Z</time>
      </trkpt>
      <trkpt lat="45.13528" lon="5.88839">
        <ele>1519.8000488281</ele>
        <time>2021-01-06T08:07:39.000Z</time>
      </trkpt>
      <trkpt lat="45.13527" lon="5.88839">
        <ele>1520</ele>
        <time>2021-01-06T08:07:40.000Z</time>
      </trkpt>
      <trkpt lat="45.13521" lon="5.88838">
        <ele>1521.1999511719</ele>
        <time>2021-01-06T08:07:46.000Z</time>
      </trkpt>
      <trkpt lat="45.13516" lon="5.88838">
        <ele>1522.1999511719</ele>
        <time>2021-01-06T08:07:51.000Z</time>
      </trkpt>
      <trkpt lat="45.13514" lon="5.88839">
        <ele>1522.8000488281</ele>
        <time>2021-01-06T08:07:55.000Z</time>
      </trkpt>
      <trkpt lat="45.13513" lon="5.88838">
        <ele>1523.1999511719</ele>
        <time>2021-01-06T08:07:57.000Z</time>
      </trkpt>
      <trkpt lat="45.13508" lon="5.88837">
        <ele>1524</ele>
        <time>2021-01-06T08:08:03.000Z</time>
      </trkpt>
      <trkpt lat="45.13506" lon="5.88836">
        <ele>1524.4000244141</ele>
        <time>2021-01-06T08:08:05.000Z</time>
      </trkpt>
      <trkpt lat="45.13501" lon="5.88835">
        <ele>1525.1999511719</ele>
        <time>2021-01-06T08:08:11.000Z</time>
      </trkpt>
      <trkpt lat="45.135" lon="5.88835">
        <ele>1525.5999755859</ele>
        <time>2021-01-06T08:08:13.000Z</time>
      </trkpt>
      <trkpt lat="45.13495" lon="5.88834">
        <ele>1526.5999755859</ele>
        <time>2021-01-06T08:08:19.000Z</time>
      </trkpt>
      <trkpt lat="45.13491" lon="5.88833">
        <ele>1527.5999755859</ele>
        <time>2021-01-06T08:08:24.000Z</time>
      </trkpt>
      <trkpt lat="45.1349" lon="5.88833">
        <ele>1528</ele>
        <time>2021-01-06T08:08:26.000Z</time>
      </trkpt>
      <trkpt lat="45.13487" lon="5.88833">
        <ele>1528.8000488281</ele>
        <time>2021-01-06T08:08:30.000Z</time>
      </trkpt>
      <trkpt lat="45.13484" lon="5.88832">
        <ele>1529.4000244141</ele>
        <time>2021-01-06T08:08:34.000Z</time>
      </trkpt>
      <trkpt lat="45.13482" lon="5.88832">
        <ele>1529.8000488281</ele>
        <time>2021-01-06T08:08:36.000Z</time>
      </trkpt>
      <trkpt lat="45.13479" lon="5.8883">
        <ele>1530.8000488281</ele>
        <time>2021-01-06T08:08:42.000Z</time>
      </trkpt>
      <trkpt lat="45.13478" lon="5.88829">
        <ele>1531</ele>
        <time>2021-01-06T08:08:43.000Z</time>
      </trkpt>
      <trkpt lat="45.13475" lon="5.88828">
        <ele>1532</ele>
        <time>2021-01-06T08:08:47.000Z</time>
      </trkpt>
      <trkpt lat="45.13474" lon="5.88827">
        <ele>1532.4000244141</ele>
        <time>2021-01-06T08:08:50.000Z</time>
      </trkpt>
      <trkpt lat="45.13473" lon="5.88825">
        <ele>1533</ele>
        <time>2021-01-06T08:08:53.000Z</time>
      </trkpt>
      <trkpt lat="45.1347" lon="5.88825">
        <ele>1533.8000488281</ele>
        <time>2021-01-06T08:08:57.000Z</time>
      </trkpt>
      <trkpt lat="45.13469" lon="5.88824">
        <ele>1534.1999511719</ele>
        <time>2021-01-06T08:08:59.000Z</time>
      </trkpt>
      <trkpt lat="45.13466" lon="5.88821">
        <ele>1535.4000244141</ele>
        <time>2021-01-06T08:09:04.000Z</time>
      </trkpt>
      <trkpt lat="45.13466" lon="5.88821">
        <ele>1535.5999755859</ele>
        <time>2021-01-06T08:09:05.000Z</time>
      </trkpt>
      <trkpt lat="45.13463" lon="5.88818">
        <ele>1536.5999755859</ele>
        <time>2021-01-06T08:09:09.000Z</time>
      </trkpt>
      <trkpt lat="45.13462" lon="5.88818">
        <ele>1536.8000488281</ele>
        <time>2021-01-06T08:09:10.000Z</time>
      </trkpt>
      <trkpt lat="45.1346" lon="5.88815">
        <ele>1537.5999755859</ele>
        <time>2021-01-06T08:09:14.000Z</time>
      </trkpt>
      <trkpt lat="45.13458" lon="5.88814">
        <ele>1538.1999511719</ele>
        <time>2021-01-06T08:09:17.000Z</time>
      </trkpt>
      <trkpt lat="45.13457" lon="5.88813">
        <ele>1538.5999755859</ele>
        <time>2021-01-06T08:09:19.000Z</time>
      </trkpt>
      <trkpt lat="45.13455" lon="5.88811">
        <ele>1539.4000244141</ele>
        <time>2021-01-06T08:09:23.000Z</time>
      </trkpt>
      <trkpt lat="45.13454" lon="5.8881">
        <ele>1539.5999755859</ele>
        <time>2021-01-06T08:09:24.000Z</time>
      </trkpt>
      <trkpt lat="45.13452" lon="5.88806">
        <ele>1540.8000488281</ele>
        <time>2021-01-06T08:09:29.000Z</time>
      </trkpt>
      <trkpt lat="45.13451" lon="5.88803">
        <ele>1542</ele>
        <time>2021-01-06T08:09:33.000Z</time>
      </trkpt>
      <trkpt lat="45.1345" lon="5.888">
        <ele>1543</ele>
        <time>2021-01-06T08:09:36.000Z</time>
      </trkpt>
      <trkpt lat="45.13449" lon="5.88799">
        <ele>1543.1999511719</ele>
        <time>2021-01-06T08:09:37.000Z</time>
      </trkpt>
      <trkpt lat="45.13447" lon="5.88794">
        <ele>1544.4000244141</ele>
        <time>2021-01-06T08:09:42.000Z</time>
      </trkpt>
      <trkpt lat="45.13447" lon="5.88794">
        <ele>1544.5999755859</ele>
        <time>2021-01-06T08:09:43.000Z</time>
      </trkpt>
      <trkpt lat="45.13446" lon="5.88793">
        <ele>1545.4000244141</ele>
        <time>2021-01-06T08:09:46.000Z</time>
      </trkpt>
      <trkpt lat="45.13445" lon="5.8879">
        <ele>1546.1999511719</ele>
        <time>2021-01-06T08:09:50.000Z</time>
      </trkpt>
      <trkpt lat="45.13445" lon="5.88788">
        <ele>1546.4000244141</ele>
        <time>2021-01-06T08:09:51.000Z</time>
      </trkpt>
      <trkpt lat="45.13443" lon="5.88782">
        <ele>1548</ele>
        <time>2021-01-06T08:09:57.000Z</time>
      </trkpt>
      <trkpt lat="45.13443" lon="5.8878">
        <ele>1548.1999511719</ele>
        <time>2021-01-06T08:09:58.000Z</time>
      </trkpt>
      <trkpt lat="45.13442" lon="5.88777">
        <ele>1549</ele>
        <time>2021-01-06T08:10:02.000Z</time>
      </trkpt>
      <trkpt lat="45.13442" lon="5.88777">
        <ele>1549.5999755859</ele>
        <time>2021-01-06T08:10:05.000Z</time>
      </trkpt>
      <trkpt lat="45.13441" lon="5.88776">
        <ele>1550.1999511719</ele>
        <time>2021-01-06T08:10:08.000Z</time>
      </trkpt>
      <trkpt lat="45.13439" lon="5.88774">
        <ele>1551</ele>
        <time>2021-01-06T08:10:12.000Z</time>
      </trkpt>
      <trkpt lat="45.13439" lon="5.88774">
        <ele>1551.1999511719</ele>
        <time>2021-01-06T08:10:13.000Z</time>
      </trkpt>
      <trkpt lat="45.13437" lon="5.8877">
        <ele>1552.4000244141</ele>
        <time>2021-01-06T08:10:18.000Z</time>
      </trkpt>
      <trkpt lat="45.13436" lon="5.8877">
        <ele>1552.4000244141</ele>
        <time>2021-01-06T08:10:19.000Z</time>
      </trkpt>
      <trkpt lat="45.13436" lon="5.88769">
        <ele>1553.4000244141</ele>
        <time>2021-01-06T08:10:22.000Z</time>
      </trkpt>
      <trkpt lat="45.13434" lon="5.88767">
        <ele>1554.5999755859</ele>
        <time>2021-01-06T08:10:27.000Z</time>
      </trkpt>
      <trkpt lat="45.13432" lon="5.88766">
        <ele>1555.5999755859</ele>
        <time>2021-01-06T08:10:32.000Z</time>
      </trkpt>
      <trkpt lat="45.1343" lon="5.88766">
        <ele>1556.4000244141</ele>
        <time>2021-01-06T08:10:35.000Z</time>
      </trkpt>
      <trkpt lat="45.1343" lon="5.88766">
        <ele>1556.8000488281</ele>
        <time>2021-01-06T08:10:36.000Z</time>
      </trkpt>
      <trkpt lat="45.13428" lon="5.88765">
        <ele>1558</ele>
        <time>2021-01-06T08:10:41.000Z</time>
      </trkpt>
      <trkpt lat="45.13425" lon="5.88766">
        <ele>1559.1999511719</ele>
        <time>2021-01-06T08:10:45.000Z</time>
      </trkpt>
      <trkpt lat="45.13422" lon="5.88765">
        <ele>1560.1999511719</ele>
        <time>2021-01-06T08:10:49.000Z</time>
      </trkpt>
      <trkpt lat="45.13421" lon="5.88765">
        <ele>1560.4000244141</ele>
        <time>2021-01-06T08:10:50.000Z</time>
      </trkpt>
      <trkpt lat="45.13419" lon="5.88765">
        <ele>1561.5999755859</ele>
        <time>2021-01-06T08:10:54.000Z</time>
      </trkpt>
      <trkpt lat="45.13417" lon="5.88765">
        <ele>1562.4000244141</ele>
        <time>2021-01-06T08:10:57.000Z</time>
      </trkpt>
      <trkpt lat="45.13416" lon="5.88765">
        <ele>1562.8000488281</ele>
        <time>2021-01-06T08:10:59.000Z</time>
      </trkpt>
      <trkpt lat="45.13414" lon="5.88765">
        <ele>1563.8000488281</ele>
        <time>2021-01-06T08:11:03.000Z</time>
      </trkpt>
      <trkpt lat="45.13413" lon="5.88765">
        <ele>1564.5999755859</ele>
        <time>2021-01-06T08:11:06.000Z</time>
      </trkpt>
      <trkpt lat="45.13412" lon="5.88765">
        <ele>1565</ele>
        <time>2021-01-06T08:11:08.000Z</time>
      </trkpt>
      <trkpt lat="45.1341" lon="5.88765">
        <ele>1566</ele>
        <time>2021-01-06T08:11:12.000Z</time>
      </trkpt>
      <trkpt lat="45.13409" lon="5.88765">
        <ele>1566.4000244141</ele>
        <time>2021-01-06T08:11:13.000Z</time>
      </trkpt>
      <trkpt lat="45.13408" lon="5.88766">
        <ele>1566.8000488281</ele>
        <time>2021-01-06T08:11:15.000Z</time>
      </trkpt>
      <trkpt lat="45.13407" lon="5.88766">
        <ele>1567.1999511719</ele>
        <time>2021-01-06T08:11:17.000Z</time>
      </trkpt>
      <trkpt lat="45.13404" lon="5.88767">
        <ele>1568.4000244141</ele>
        <time>2021-01-06T08:11:22.000Z</time>
      </trkpt>
      <trkpt lat="45.13403" lon="5.88767">
        <ele>1568.5999755859</ele>
        <time>2021-01-06T08:11:23.000Z</time>
      </trkpt>
      <trkpt lat="45.134" lon="5.88767">
        <ele>1569.5999755859</ele>
        <time>2021-01-06T08:11:27.000Z</time>
      </trkpt>
      <trkpt lat="45.13397" lon="5.88767">
        <ele>1570.8000488281</ele>
        <time>2021-01-06T08:11:31.000Z</time>
      </trkpt>
      <trkpt lat="45.13395" lon="5.88766">
        <ele>1572</ele>
        <time>2021-01-06T08:11:35.000Z</time>
      </trkpt>
      <trkpt lat="45.13392" lon="5.88766">
        <ele>1573.1999511719</ele>
        <time>2021-01-06T08:11:40.000Z</time>
      </trkpt>
      <trkpt lat="45.1339" lon="5.88764">
        <ele>1574.1999511719</ele>
        <time>2021-01-06T08:11:45.000Z</time>
      </trkpt>
      <trkpt lat="45.13389" lon="5.88762">
        <ele>1574.8000488281</ele>
        <time>2021-01-06T08:11:47.000Z</time>
      </trkpt>
      <trkpt lat="45.13387" lon="5.88762">
        <ele>1575.4000244141</ele>
        <time>2021-01-06T08:11:49.000Z</time>
      </trkpt>
      <trkpt lat="45.13384" lon="5.88763">
        <ele>1576.4000244141</ele>
        <time>2021-01-06T08:11:53.000Z</time>
      </trkpt>
      <trkpt lat="45.13383" lon="5.88764">
        <ele>1577</ele>
        <time>2021-01-06T08:11:55.000Z</time>
      </trkpt>
      <trkpt lat="45.13382" lon="5.88764">
        <ele>1577.8000488281</ele>
        <time>2021-01-06T08:11:57.000Z</time>
      </trkpt>
      <trkpt lat="45.13379" lon="5.88764">
        <ele>1579</ele>
        <time>2021-01-06T08:12:02.000Z</time>
      </trkpt>
      <trkpt lat="45.13378" lon="5.88764">
        <ele>1579.1999511719</ele>
        <time>2021-01-06T08:12:03.000Z</time>
      </trkpt>
      <trkpt lat="45.13377" lon="5.88765">
        <ele>1580</ele>
        <time>2021-01-06T08:12:06.000Z</time>
      </trkpt>
      <trkpt lat="45.13374" lon="5.88766">
        <ele>1581.1999511719</ele>
        <time>2021-01-06T08:12:10.000Z</time>
      </trkpt>
      <trkpt lat="45.13374" lon="5.88765">
        <ele>1581.4000244141</ele>
        <time>2021-01-06T08:12:11.000Z</time>
      </trkpt>
      <trkpt lat="45.13371" lon="5.88767">
        <ele>1582.1999511719</ele>
        <time>2021-01-06T08:12:15.000Z</time>
      </trkpt>
      <trkpt lat="45.13369" lon="5.88768">
        <ele>1583</ele>
        <time>2021-01-06T08:12:18.000Z</time>
      </trkpt>
      <trkpt lat="45.13367" lon="5.88768">
        <ele>1583.4000244141</ele>
        <time>2021-01-06T08:12:20.000Z</time>
      </trkpt>
      <trkpt lat="45.13365" lon="5.88768">
        <ele>1584.5999755859</ele>
        <time>2021-01-06T08:12:23.000Z</time>
      </trkpt>
      <trkpt lat="45.13363" lon="5.88769">
        <ele>1585.5999755859</ele>
        <time>2021-01-06T08:12:27.000Z</time>
      </trkpt>
      <trkpt lat="45.1336" lon="5.88769">
        <ele>1586.8000488281</ele>
        <time>2021-01-06T08:12:31.000Z</time>
      </trkpt>
      <trkpt lat="45.13357" lon="5.8877">
        <ele>1587.5999755859</ele>
        <time>2021-01-06T08:12:35.000Z</time>
      </trkpt>
      <trkpt lat="45.13357" lon="5.88771">
        <ele>1587.8000488281</ele>
        <time>2021-01-06T08:12:36.000Z</time>
      </trkpt>
      <trkpt lat="45.13354" lon="5.88775">
        <ele>1589</ele>
        <time>2021-01-06T08:12:41.000Z</time>
      </trkpt>
      <trkpt lat="45.13354" lon="5.88775">
        <ele>1589.1999511719</ele>
        <time>2021-01-06T08:12:42.000Z</time>
      </trkpt>
      <trkpt lat="45.13352" lon="5.88777">
        <ele>1590</ele>
        <time>2021-01-06T08:12:45.000Z</time>
      </trkpt>
      <trkpt lat="45.1335" lon="5.88779">
        <ele>1591</ele>
        <time>2021-01-06T08:12:49.000Z</time>
      </trkpt>
      <trkpt lat="45.13349" lon="5.8878">
        <ele>1591.1999511719</ele>
        <time>2021-01-06T08:12:50.000Z</time>
      </trkpt>
      <trkpt lat="45.13346" lon="5.88785">
        <ele>1592.4000244141</ele>
        <time>2021-01-06T08:12:55.000Z</time>
      </trkpt>
      <trkpt lat="45.13345" lon="5.88788">
        <ele>1593</ele>
        <time>2021-01-06T08:12:58.000Z</time>
      </trkpt>
      <trkpt lat="45.13344" lon="5.88789">
        <ele>1593.4000244141</ele>
        <time>2021-01-06T08:13:00.000Z</time>
      </trkpt>
      <trkpt lat="45.13341" lon="5.88793">
        <ele>1594.5999755859</ele>
        <time>2021-01-06T08:13:05.000Z</time>
      </trkpt>
      <trkpt lat="45.13341" lon="5.88794">
        <ele>1594.8000488281</ele>
        <time>2021-01-06T08:13:06.000Z</time>
      </trkpt>
      <trkpt lat="45.13339" lon="5.88796">
        <ele>1595.5999755859</ele>
        <time>2021-01-06T08:13:09.000Z</time>
      </trkpt>
      <trkpt lat="45.13336" lon="5.888">
        <ele>1596.8000488281</ele>
        <time>2021-01-06T08:13:14.000Z</time>
      </trkpt>
      <trkpt lat="45.13335" lon="5.88802">
        <ele>1597.1999511719</ele>
        <time>2021-01-06T08:13:16.000Z</time>
      </trkpt>
      <trkpt lat="45.13334" lon="5.88805">
        <ele>1598</ele>
        <time>2021-01-06T08:13:19.000Z</time>
      </trkpt>
      <trkpt lat="45.13332" lon="5.88808">
        <ele>1598.8000488281</ele>
        <time>2021-01-06T08:13:23.000Z</time>
      </trkpt>
      <trkpt lat="45.13332" lon="5.88809">
        <ele>1599.1999511719</ele>
        <time>2021-01-06T08:13:24.000Z</time>
      </trkpt>
      <trkpt lat="45.1333" lon="5.88813">
        <ele>1600.4000244141</ele>
        <time>2021-01-06T08:13:29.000Z</time>
      </trkpt>
      <trkpt lat="45.1333" lon="5.88814">
        <ele>1600.5999755859</ele>
        <time>2021-01-06T08:13:30.000Z</time>
      </trkpt>
      <trkpt lat="45.13329" lon="5.88815">
        <ele>1601.5999755859</ele>
        <time>2021-01-06T08:13:33.000Z</time>
      </trkpt>
      <trkpt lat="45.13329" lon="5.88816">
        <ele>1602.1999511719</ele>
        <time>2021-01-06T08:13:36.000Z</time>
      </trkpt>
      <trkpt lat="45.13329" lon="5.88819">
        <ele>1602.8000488281</ele>
        <time>2021-01-06T08:13:38.000Z</time>
      </trkpt>
      <trkpt lat="45.13326" lon="5.88825">
        <ele>1603.5999755859</ele>
        <time>2021-01-06T08:13:42.000Z</time>
      </trkpt>
      <trkpt lat="45.13326" lon="5.88825">
        <ele>1603.8000488281</ele>
        <time>2021-01-06T08:13:43.000Z</time>
      </trkpt>
      <trkpt lat="45.13326" lon="5.88828">
        <ele>1604.8000488281</ele>
        <time>2021-01-06T08:13:47.000Z</time>
      </trkpt>
      <trkpt lat="45.13326" lon="5.88829">
        <ele>1605</ele>
        <time>2021-01-06T08:13:48.000Z</time>
      </trkpt>
      <trkpt lat="45.13325" lon="5.88832">
        <ele>1606</ele>
        <time>2021-01-06T08:13:53.000Z</time>
      </trkpt>
      <trkpt lat="45.13325" lon="5.88837">
        <ele>1607.1999511719</ele>
        <time>2021-01-06T08:13:57.000Z</time>
      </trkpt>
      <trkpt lat="45.13324" lon="5.8884">
        <ele>1607.8000488281</ele>
        <time>2021-01-06T08:14:00.000Z</time>
      </trkpt>
      <trkpt lat="45.13324" lon="5.88844">
        <ele>1608.1999511719</ele>
        <time>2021-01-06T08:14:03.000Z</time>
      </trkpt>
      <trkpt lat="45.13325" lon="5.88847">
        <ele>1609</ele>
        <time>2021-01-06T08:14:06.000Z</time>
      </trkpt>
      <trkpt lat="45.13325" lon="5.8885">
        <ele>1609.4000244141</ele>
        <time>2021-01-06T08:14:08.000Z</time>
      </trkpt>
      <trkpt lat="45.13324" lon="5.88859">
        <ele>1610.5999755859</ele>
        <time>2021-01-06T08:14:14.000Z</time>
      </trkpt>
      <trkpt lat="45.13325" lon="5.88869">
        <ele>1611.5999755859</ele>
        <time>2021-01-06T08:14:21.000Z</time>
      </trkpt>
      <trkpt lat="45.13325" lon="5.88876">
        <ele>1612.5999755859</ele>
        <time>2021-01-06T08:14:26.000Z</time>
      </trkpt>
      <trkpt lat="45.13324" lon="5.88878">
        <ele>1612.8000488281</ele>
        <time>2021-01-06T08:14:27.000Z</time>
      </trkpt>
      <trkpt lat="45.13324" lon="5.88884">
        <ele>1613.8000488281</ele>
        <time>2021-01-06T08:14:32.000Z</time>
      </trkpt>
      <trkpt lat="45.13325" lon="5.88887">
        <ele>1614.1999511719</ele>
        <time>2021-01-06T08:14:34.000Z</time>
      </trkpt>
      <trkpt lat="45.13325" lon="5.88892">
        <ele>1614.8000488281</ele>
        <time>2021-01-06T08:14:38.000Z</time>
      </trkpt>
      <trkpt lat="45.13325" lon="5.88893">
        <ele>1615.1999511719</ele>
        <time>2021-01-06T08:14:40.000Z</time>
      </trkpt>
      <trkpt lat="45.13326" lon="5.88896">
        <ele>1616</ele>
        <time>2021-01-06T08:14:43.000Z</time>
      </trkpt>
      <trkpt lat="45.13326" lon="5.889">
        <ele>1616.8000488281</ele>
        <time>2021-01-06T08:14:46.000Z</time>
      </trkpt>
      <trkpt lat="45.13326" lon="5.889">
        <ele>1617</ele>
        <time>2021-01-06T08:14:47.000Z</time>
      </trkpt>
      <trkpt lat="45.13327" lon="5.88906">
        <ele>1618</ele>
        <time>2021-01-06T08:14:52.000Z</time>
      </trkpt>
      <trkpt lat="45.13327" lon="5.88907">
        <ele>1618.4000244141</ele>
        <time>2021-01-06T08:14:53.000Z</time>
      </trkpt>
      <trkpt lat="45.13328" lon="5.8891">
        <ele>1619.4000244141</ele>
        <time>2021-01-06T08:14:57.000Z</time>
      </trkpt>
      <trkpt lat="45.13328" lon="5.88916">
        <ele>1620.4000244141</ele>
        <time>2021-01-06T08:15:02.000Z</time>
      </trkpt>
      <trkpt lat="45.13328" lon="5.88918">
        <ele>1620.4000244141</ele>
        <time>2021-01-06T08:15:03.000Z</time>
      </trkpt>
      <trkpt lat="45.13329" lon="5.88922">
        <ele>1621.8000488281</ele>
        <time>2021-01-06T08:15:08.000Z</time>
      </trkpt>
      <trkpt lat="45.13329" lon="5.88923">
        <ele>1622</ele>
        <time>2021-01-06T08:15:09.000Z</time>
      </trkpt>
      <trkpt lat="45.13329" lon="5.88926">
        <ele>1623</ele>
        <time>2021-01-06T08:15:12.000Z</time>
      </trkpt>
      <trkpt lat="45.13331" lon="5.88931">
        <ele>1624</ele>
        <time>2021-01-06T08:15:17.000Z</time>
      </trkpt>
      <trkpt lat="45.13332" lon="5.88936">
        <ele>1625.1999511719</ele>
        <time>2021-01-06T08:15:22.000Z</time>
      </trkpt>
      <trkpt lat="45.13333" lon="5.88939">
        <ele>1626</ele>
        <time>2021-01-06T08:15:25.000Z</time>
      </trkpt>
      <trkpt lat="45.13333" lon="5.8894">
        <ele>1626.4000244141</ele>
        <time>2021-01-06T08:15:26.000Z</time>
      </trkpt>
      <trkpt lat="45.13334" lon="5.88944">
        <ele>1627.4000244141</ele>
        <time>2021-01-06T08:15:30.000Z</time>
      </trkpt>
      <trkpt lat="45.13335" lon="5.88945">
        <ele>1628.1999511719</ele>
        <time>2021-01-06T08:15:33.000Z</time>
      </trkpt>
      <trkpt lat="45.13335" lon="5.88946">
        <ele>1628.5999755859</ele>
        <time>2021-01-06T08:15:34.000Z</time>
      </trkpt>
      <trkpt lat="45.13336" lon="5.88951">
        <ele>1629.5999755859</ele>
        <time>2021-01-06T08:15:38.000Z</time>
      </trkpt>
      <trkpt lat="45.13336" lon="5.88954">
        <ele>1630.5999755859</ele>
        <time>2021-01-06T08:15:41.000Z</time>
      </trkpt>
      <trkpt lat="45.13336" lon="5.88954">
        <ele>1631</ele>
        <time>2021-01-06T08:15:42.000Z</time>
      </trkpt>
      <trkpt lat="45.13337" lon="5.88957">
        <ele>1632</ele>
        <time>2021-01-06T08:15:46.000Z</time>
      </trkpt>
      <trkpt lat="45.13337" lon="5.88961">
        <ele>1632.8000488281</ele>
        <time>2021-01-06T08:15:49.000Z</time>
      </trkpt>
      <trkpt lat="45.13337" lon="5.88962">
        <ele>1633.1999511719</ele>
        <time>2021-01-06T08:15:50.000Z</time>
      </trkpt>
      <trkpt lat="45.13338" lon="5.88965">
        <ele>1634.1999511719</ele>
        <time>2021-01-06T08:15:54.000Z</time>
      </trkpt>
      <trkpt lat="45.13337" lon="5.88967">
        <ele>1634.5999755859</ele>
        <time>2021-01-06T08:15:56.000Z</time>
      </trkpt>
      <trkpt lat="45.13338" lon="5.88969">
        <ele>1635.4000244141</ele>
        <time>2021-01-06T08:15:58.000Z</time>
      </trkpt>
      <trkpt lat="45.13338" lon="5.88974">
        <ele>1636.5999755859</ele>
        <time>2021-01-06T08:16:03.000Z</time>
      </trkpt>
      <trkpt lat="45.13339" lon="5.88978">
        <ele>1637.8000488281</ele>
        <time>2021-01-06T08:16:07.000Z</time>
      </trkpt>
      <trkpt lat="45.1334" lon="5.88981">
        <ele>1638.5999755859</ele>
        <time>2021-01-06T08:16:11.000Z</time>
      </trkpt>
      <trkpt lat="45.1334" lon="5.88982">
        <ele>1638.8000488281</ele>
        <time>2021-01-06T08:16:12.000Z</time>
      </trkpt>
      <trkpt lat="45.13342" lon="5.88986">
        <ele>1640</ele>
        <time>2021-01-06T08:16:17.000Z</time>
      </trkpt>
      <trkpt lat="45.13342" lon="5.88988">
        <ele>1640.5999755859</ele>
        <time>2021-01-06T08:16:19.000Z</time>
      </trkpt>
      <trkpt lat="45.13342" lon="5.88988">
        <ele>1641</ele>
        <time>2021-01-06T08:16:21.000Z</time>
      </trkpt>
      <trkpt lat="45.13343" lon="5.88993">
        <ele>1642.1999511719</ele>
        <time>2021-01-06T08:16:25.000Z</time>
      </trkpt>
      <trkpt lat="45.13342" lon="5.88994">
        <ele>1642.5999755859</ele>
        <time>2021-01-06T08:16:26.000Z</time>
      </trkpt>
      <trkpt lat="45.13343" lon="5.88999">
        <ele>1643.4000244141</ele>
        <time>2021-01-06T08:16:31.000Z</time>
      </trkpt>
      <trkpt lat="45.13342" lon="5.89">
        <ele>1643.5999755859</ele>
        <time>2021-01-06T08:16:32.000Z</time>
      </trkpt>
      <trkpt lat="45.1334" lon="5.89004">
        <ele>1644.5999755859</ele>
        <time>2021-01-06T08:16:36.000Z</time>
      </trkpt>
      <trkpt lat="45.13339" lon="5.89008">
        <ele>1645.1999511719</ele>
        <time>2021-01-06T08:16:39.000Z</time>
      </trkpt>
      <trkpt lat="45.13339" lon="5.89009">
        <ele>1645.5999755859</ele>
        <time>2021-01-06T08:16:41.000Z</time>
      </trkpt>
      <trkpt lat="45.13338" lon="5.89011">
        <ele>1646.5999755859</ele>
        <time>2021-01-06T08:16:46.000Z</time>
      </trkpt>
      <trkpt lat="45.13335" lon="5.89016">
        <ele>1647.8000488281</ele>
        <time>2021-01-06T08:16:53.000Z</time>
      </trkpt>
      <trkpt lat="45.13335" lon="5.89018">
        <ele>1648</ele>
        <time>2021-01-06T08:16:54.000Z</time>
      </trkpt>
      <trkpt lat="45.13333" lon="5.89028">
        <ele>1648.8000488281</ele>
        <time>2021-01-06T08:17:00.000Z</time>
      </trkpt>
      <trkpt lat="45.13332" lon="5.89031">
        <ele>1648.8000488281</ele>
        <time>2021-01-06T08:17:01.000Z</time>
      </trkpt>
      <trkpt lat="45.13331" lon="5.89042">
        <ele>1648.1999511719</ele>
        <time>2021-01-06T08:17:05.000Z</time>
      </trkpt>
      <trkpt lat="45.1333" lon="5.89047">
        <ele>1647.8000488281</ele>
        <time>2021-01-06T08:17:07.000Z</time>
      </trkpt>
      <trkpt lat="45.13329" lon="5.89054">
        <ele>1646.1999511719</ele>
        <time>2021-01-06T08:17:10.000Z</time>
      </trkpt>
      <trkpt lat="45.13326" lon="5.89062">
        <ele>1645.8000488281</ele>
        <time>2021-01-06T08:17:13.000Z</time>
      </trkpt>
      <trkpt lat="45.1332" lon="5.89074">
        <ele>1645</ele>
        <time>2021-01-06T08:17:18.000Z</time>
      </trkpt>
      <trkpt lat="45.13319" lon="5.89077">
        <ele>1644.8000488281</ele>
        <time>2021-01-06T08:17:19.000Z</time>
      </trkpt>
      <trkpt lat="45.13312" lon="5.89086">
        <ele>1644.5999755859</ele>
        <time>2021-01-06T08:17:25.000Z</time>
      </trkpt>
      <trkpt lat="45.13308" lon="5.89095">
        <ele>1645.1999511719</ele>
        <time>2021-01-06T08:17:32.000Z</time>
      </trkpt>
      <trkpt lat="45.13317" lon="5.89099">
        <ele>1645.1999511719</ele>
        <time>2021-01-06T08:17:40.000Z</time>
      </trkpt>
      <trkpt lat="45.13327" lon="5.89108">
        <ele>1645.5999755859</ele>
        <time>2021-01-06T08:17:48.000Z</time>
      </trkpt>
      <trkpt lat="45.13329" lon="5.89109">
        <ele>1646</ele>
        <time>2021-01-06T08:17:50.000Z</time>
      </trkpt>
      <trkpt lat="45.13335" lon="5.89116">
        <ele>1647.1999511719</ele>
        <time>2021-01-06T08:17:56.000Z</time>
      </trkpt>
      <trkpt lat="45.13336" lon="5.89117">
        <ele>1647.1999511719</ele>
        <time>2021-01-06T08:17:57.000Z</time>
      </trkpt>
      <trkpt lat="45.1334" lon="5.89124">
        <ele>1648.1999511719</ele>
        <time>2021-01-06T08:18:04.000Z</time>
      </trkpt>
      <trkpt lat="45.1334" lon="5.89126">
        <ele>1648.4000244141</ele>
        <time>2021-01-06T08:18:05.000Z</time>
      </trkpt>
      <trkpt lat="45.13343" lon="5.8914">
        <ele>1649.1999511719</ele>
        <time>2021-01-06T08:18:15.000Z</time>
      </trkpt>
      <trkpt lat="45.13343" lon="5.89142">
        <ele>1649.1999511719</ele>
        <time>2021-01-06T08:18:16.000Z</time>
      </trkpt>
      <trkpt lat="45.13346" lon="5.89149">
        <ele>1650.1999511719</ele>
        <time>2021-01-06T08:18:22.000Z</time>
      </trkpt>
      <trkpt lat="45.13346" lon="5.89152">
        <ele>1650.4000244141</ele>
        <time>2021-01-06T08:18:24.000Z</time>
      </trkpt>
      <trkpt lat="45.13352" lon="5.89162">
        <ele>1650.5999755859</ele>
        <time>2021-01-06T08:18:32.000Z</time>
      </trkpt>
      <trkpt lat="45.13355" lon="5.89178">
        <ele>1651.4000244141</ele>
        <time>2021-01-06T08:18:42.000Z</time>
      </trkpt>
      <trkpt lat="45.13355" lon="5.89186">
        <ele>1652.1999511719</ele>
        <time>2021-01-06T08:18:47.000Z</time>
      </trkpt>
      <trkpt lat="45.13355" lon="5.89189">
        <ele>1652.4000244141</ele>
        <time>2021-01-06T08:18:49.000Z</time>
      </trkpt>
      <trkpt lat="45.13357" lon="5.89198">
        <ele>1653.4000244141</ele>
        <time>2021-01-06T08:18:54.000Z</time>
      </trkpt>
      <trkpt lat="45.13358" lon="5.892">
        <ele>1653.5999755859</ele>
        <time>2021-01-06T08:18:56.000Z</time>
      </trkpt>
      <trkpt lat="45.13362" lon="5.89208">
        <ele>1654.8000488281</ele>
        <time>2021-01-06T08:19:03.000Z</time>
      </trkpt>
      <trkpt lat="45.13363" lon="5.89215">
        <ele>1655.8000488281</ele>
        <time>2021-01-06T08:19:09.000Z</time>
      </trkpt>
      <trkpt lat="45.13363" lon="5.89215">
        <ele>1656.1999511719</ele>
        <time>2021-01-06T08:19:10.000Z</time>
      </trkpt>
      <trkpt lat="45.13364" lon="5.8922">
        <ele>1657</ele>
        <time>2021-01-06T08:19:15.000Z</time>
      </trkpt>
      <trkpt lat="45.13364" lon="5.89222">
        <ele>1657.5999755859</ele>
        <time>2021-01-06T08:19:18.000Z</time>
      </trkpt>
      <trkpt lat="45.13363" lon="5.89225">
        <ele>1658.1999511719</ele>
        <time>2021-01-06T08:19:21.000Z</time>
      </trkpt>
      <trkpt lat="45.13364" lon="5.8923">
        <ele>1659.1999511719</ele>
        <time>2021-01-06T08:19:26.000Z</time>
      </trkpt>
      <trkpt lat="45.13364" lon="5.8923">
        <ele>1659.4000244141</ele>
        <time>2021-01-06T08:19:27.000Z</time>
      </trkpt>
      <trkpt lat="45.13364" lon="5.89235">
        <ele>1660.5999755859</ele>
        <time>2021-01-06T08:19:32.000Z</time>
      </trkpt>
      <trkpt lat="45.13365" lon="5.89238">
        <ele>1661.1999511719</ele>
        <time>2021-01-06T08:19:34.000Z</time>
      </trkpt>
      <trkpt lat="45.13366" lon="5.89239">
        <ele>1661.5999755859</ele>
        <time>2021-01-06T08:19:36.000Z</time>
      </trkpt>
      <trkpt lat="45.13369" lon="5.89245">
        <ele>1662.8000488281</ele>
        <time>2021-01-06T08:19:42.000Z</time>
      </trkpt>
      <trkpt lat="45.13369" lon="5.89248">
        <ele>1663</ele>
        <time>2021-01-06T08:19:44.000Z</time>
      </trkpt>
      <trkpt lat="45.13372" lon="5.89255">
        <ele>1663.8000488281</ele>
        <time>2021-01-06T08:19:50.000Z</time>
      </trkpt>
      <trkpt lat="45.13372" lon="5.89258">
        <ele>1664.1999511719</ele>
        <time>2021-01-06T08:19:52.000Z</time>
      </trkpt>
      <trkpt lat="45.13374" lon="5.89261">
        <ele>1665</ele>
        <time>2021-01-06T08:19:56.000Z</time>
      </trkpt>
      <trkpt lat="45.13376" lon="5.89262">
        <ele>1666</ele>
        <time>2021-01-06T08:20:00.000Z</time>
      </trkpt>
      <trkpt lat="45.13376" lon="5.89263">
        <ele>1666.1999511719</ele>
        <time>2021-01-06T08:20:01.000Z</time>
      </trkpt>
      <trkpt lat="45.13377" lon="5.89264">
        <ele>1667.1999511719</ele>
        <time>2021-01-06T08:20:05.000Z</time>
      </trkpt>
      <trkpt lat="45.13377" lon="5.89265">
        <ele>1668</ele>
        <time>2021-01-06T08:20:08.000Z</time>
      </trkpt>
      <trkpt lat="45.13377" lon="5.89266">
        <ele>1668.1999511719</ele>
        <time>2021-01-06T08:20:10.000Z</time>
      </trkpt>
      <trkpt lat="45.13378" lon="5.89267">
        <ele>1669.1999511719</ele>
        <time>2021-01-06T08:20:15.000Z</time>
      </trkpt>
      <trkpt lat="45.13379" lon="5.89269">
        <ele>1669.4000244141</ele>
        <time>2021-01-06T08:20:16.000Z</time>
      </trkpt>
      <trkpt lat="45.13381" lon="5.89276">
        <ele>1670.5999755859</ele>
        <time>2021-01-06T08:20:22.000Z</time>
      </trkpt>
      <trkpt lat="45.13382" lon="5.89278">
        <ele>1670.8000488281</ele>
        <time>2021-01-06T08:20:23.000Z</time>
      </trkpt>
      <trkpt lat="45.13385" lon="5.89286">
        <ele>1671.5999755859</ele>
        <time>2021-01-06T08:20:30.000Z</time>
      </trkpt>
      <trkpt lat="45.13387" lon="5.89292">
        <ele>1672.1999511719</ele>
        <time>2021-01-06T08:20:34.000Z</time>
      </trkpt>
      <trkpt lat="45.1339" lon="5.89294">
        <ele>1672.8000488281</ele>
        <time>2021-01-06T08:20:37.000Z</time>
      </trkpt>
      <trkpt lat="45.13395" lon="5.89298">
        <ele>1673.8000488281</ele>
        <time>2021-01-06T08:20:42.000Z</time>
      </trkpt>
      <trkpt lat="45.13396" lon="5.89298">
        <ele>1674.1999511719</ele>
        <time>2021-01-06T08:20:44.000Z</time>
      </trkpt>
      <trkpt lat="45.13397" lon="5.893">
        <ele>1675</ele>
        <time>2021-01-06T08:20:46.000Z</time>
      </trkpt>
      <trkpt lat="45.134" lon="5.89305">
        <ele>1675.5999755859</ele>
        <time>2021-01-06T08:20:50.000Z</time>
      </trkpt>
      <trkpt lat="45.13401" lon="5.89307">
        <ele>1676</ele>
        <time>2021-01-06T08:20:53.000Z</time>
      </trkpt>
      <trkpt lat="45.13407" lon="5.89315">
        <ele>1677</ele>
        <time>2021-01-06T08:20:59.000Z</time>
      </trkpt>
      <trkpt lat="45.13408" lon="5.89319">
        <ele>1677.1999511719</ele>
        <time>2021-01-06T08:21:01.000Z</time>
      </trkpt>
      <trkpt lat="45.13408" lon="5.89327">
        <ele>1677.4000244141</ele>
        <time>2021-01-06T08:21:06.000Z</time>
      </trkpt>
      <trkpt lat="45.13408" lon="5.89334">
        <ele>1678</ele>
        <time>2021-01-06T08:21:12.000Z</time>
      </trkpt>
      <trkpt lat="45.13408" lon="5.89335">
        <ele>1678.1999511719</ele>
        <time>2021-01-06T08:21:13.000Z</time>
      </trkpt>
      <trkpt lat="45.1341" lon="5.89344">
        <ele>1679</ele>
        <time>2021-01-06T08:21:20.000Z</time>
      </trkpt>
      <trkpt lat="45.13412" lon="5.89348">
        <ele>1679.1999511719</ele>
        <time>2021-01-06T08:21:23.000Z</time>
      </trkpt>
      <trkpt lat="45.13416" lon="5.89354">
        <ele>1680.1999511719</ele>
        <time>2021-01-06T08:21:29.000Z</time>
      </trkpt>
      <trkpt lat="45.13417" lon="5.89355">
        <ele>1680.4000244141</ele>
        <time>2021-01-06T08:21:30.000Z</time>
      </trkpt>
      <trkpt lat="45.1342" lon="5.89361">
        <ele>1681.5999755859</ele>
        <time>2021-01-06T08:21:35.000Z</time>
      </trkpt>
      <trkpt lat="45.13421" lon="5.89363">
        <ele>1682</ele>
        <time>2021-01-06T08:21:37.000Z</time>
      </trkpt>
      <trkpt lat="45.13424" lon="5.89364">
        <ele>1682.8000488281</ele>
        <time>2021-01-06T08:21:41.000Z</time>
      </trkpt>
      <trkpt lat="45.13426" lon="5.89368">
        <ele>1683.4000244141</ele>
        <time>2021-01-06T08:21:45.000Z</time>
      </trkpt>
      <trkpt lat="45.13427" lon="5.89369">
        <ele>1683.8000488281</ele>
        <time>2021-01-06T08:21:47.000Z</time>
      </trkpt>
      <trkpt lat="45.13429" lon="5.89374">
        <ele>1684.8000488281</ele>
        <time>2021-01-06T08:21:51.000Z</time>
      </trkpt>
      <trkpt lat="45.1343" lon="5.89375">
        <ele>1684.8000488281</ele>
        <time>2021-01-06T08:21:52.000Z</time>
      </trkpt>
      <trkpt lat="45.13432" lon="5.89384">
        <ele>1686</ele>
        <time>2021-01-06T08:21:58.000Z</time>
      </trkpt>
      <trkpt lat="45.1343" lon="5.89392">
        <ele>1687.1999511719</ele>
        <time>2021-01-06T08:22:04.000Z</time>
      </trkpt>
      <trkpt lat="45.13431" lon="5.89393">
        <ele>1687.4000244141</ele>
        <time>2021-01-06T08:22:05.000Z</time>
      </trkpt>
      <trkpt lat="45.13431" lon="5.894">
        <ele>1688.1999511719</ele>
        <time>2021-01-06T08:22:10.000Z</time>
      </trkpt>
      <trkpt lat="45.13432" lon="5.89403">
        <ele>1688.5999755859</ele>
        <time>2021-01-06T08:22:13.000Z</time>
      </trkpt>
      <trkpt lat="45.13433" lon="5.89406">
        <ele>1689.1999511719</ele>
        <time>2021-01-06T08:22:16.000Z</time>
      </trkpt>
      <trkpt lat="45.13434" lon="5.89411">
        <ele>1690</ele>
        <time>2021-01-06T08:22:20.000Z</time>
      </trkpt>
      <trkpt lat="45.13435" lon="5.89413">
        <ele>1690.8000488281</ele>
        <time>2021-01-06T08:22:22.000Z</time>
      </trkpt>
      <trkpt lat="45.13437" lon="5.8942">
        <ele>1691.8000488281</ele>
        <time>2021-01-06T08:22:27.000Z</time>
      </trkpt>
      <trkpt lat="45.13438" lon="5.89426">
        <ele>1692.8000488281</ele>
        <time>2021-01-06T08:22:33.000Z</time>
      </trkpt>
      <trkpt lat="45.13438" lon="5.89429">
        <ele>1693.1999511719</ele>
        <time>2021-01-06T08:22:35.000Z</time>
      </trkpt>
      <trkpt lat="45.13439" lon="5.89433">
        <ele>1693.8000488281</ele>
        <time>2021-01-06T08:22:38.000Z</time>
      </trkpt>
      <trkpt lat="45.1344" lon="5.89439">
        <ele>1694.8000488281</ele>
        <time>2021-01-06T08:22:43.000Z</time>
      </trkpt>
      <trkpt lat="45.1344" lon="5.89441">
        <ele>1695.4000244141</ele>
        <time>2021-01-06T08:22:45.000Z</time>
      </trkpt>
      <trkpt lat="45.13441" lon="5.89442">
        <ele>1695.8000488281</ele>
        <time>2021-01-06T08:22:46.000Z</time>
      </trkpt>
      <trkpt lat="45.13441" lon="5.89443">
        <ele>1696</ele>
        <time>2021-01-06T08:22:47.000Z</time>
      </trkpt>
      <trkpt lat="45.13443" lon="5.8945">
        <ele>1697</ele>
        <time>2021-01-06T08:22:54.000Z</time>
      </trkpt>
      <trkpt lat="45.13447" lon="5.89458">
        <ele>1698.1999511719</ele>
        <time>2021-01-06T08:23:02.000Z</time>
      </trkpt>
      <trkpt lat="45.13446" lon="5.89471">
        <ele>1699.4000244141</ele>
        <time>2021-01-06T08:23:10.000Z</time>
      </trkpt>
      <trkpt lat="45.13443" lon="5.89477">
        <ele>1700.5999755859</ele>
        <time>2021-01-06T08:23:17.000Z</time>
      </trkpt>
      <trkpt lat="45.1344" lon="5.89482">
        <ele>1701.5999755859</ele>
        <time>2021-01-06T08:23:23.000Z</time>
      </trkpt>
      <trkpt lat="45.13437" lon="5.89485">
        <ele>1702.4000244141</ele>
        <time>2021-01-06T08:23:26.000Z</time>
      </trkpt>
      <trkpt lat="45.13436" lon="5.89486">
        <ele>1702.8000488281</ele>
        <time>2021-01-06T08:23:28.000Z</time>
      </trkpt>
      <trkpt lat="45.13433" lon="5.8949">
        <ele>1703.5999755859</ele>
        <time>2021-01-06T08:23:33.000Z</time>
      </trkpt>
      <trkpt lat="45.13433" lon="5.89491">
        <ele>1704</ele>
        <time>2021-01-06T08:23:34.000Z</time>
      </trkpt>
      <trkpt lat="45.13435" lon="5.89491">
        <ele>1704.8000488281</ele>
        <time>2021-01-06T08:23:39.000Z</time>
      </trkpt>
      <trkpt lat="45.13436" lon="5.89492">
        <ele>1705</ele>
        <time>2021-01-06T08:23:40.000Z</time>
      </trkpt>
      <trkpt lat="45.13439" lon="5.89494">
        <ele>1706</ele>
        <time>2021-01-06T08:23:49.000Z</time>
      </trkpt>
      <trkpt lat="45.13439" lon="5.89494">
        <ele>1706.1999511719</ele>
        <time>2021-01-06T08:23:50.000Z</time>
      </trkpt>
      <trkpt lat="45.13443" lon="5.89495">
        <ele>1707.1999511719</ele>
        <time>2021-01-06T08:23:58.000Z</time>
      </trkpt>
      <trkpt lat="45.13446" lon="5.89497">
        <ele>1708.4000244141</ele>
        <time>2021-01-06T08:24:02.000Z</time>
      </trkpt>
      <trkpt lat="45.13449" lon="5.89498">
        <ele>1709.4000244141</ele>
        <time>2021-01-06T08:24:07.000Z</time>
      </trkpt>
      <trkpt lat="45.13453" lon="5.89501">
        <ele>1710.4000244141</ele>
        <time>2021-01-06T08:24:12.000Z</time>
      </trkpt>
      <trkpt lat="45.13455" lon="5.89504">
        <ele>1711.4000244141</ele>
        <time>2021-01-06T08:24:16.000Z</time>
      </trkpt>
      <trkpt lat="45.13456" lon="5.89504">
        <ele>1711.5999755859</ele>
        <time>2021-01-06T08:24:17.000Z</time>
      </trkpt>
      <trkpt lat="45.13458" lon="5.89511">
        <ele>1712.8000488281</ele>
        <time>2021-01-06T08:24:23.000Z</time>
      </trkpt>
      <trkpt lat="45.13459" lon="5.89515">
        <ele>1713.4000244141</ele>
        <time>2021-01-06T08:24:26.000Z</time>
      </trkpt>
      <trkpt lat="45.1346" lon="5.89518">
        <ele>1714</ele>
        <time>2021-01-06T08:24:29.000Z</time>
      </trkpt>
      <trkpt lat="45.13461" lon="5.8952">
        <ele>1715.1999511719</ele>
        <time>2021-01-06T08:24:35.000Z</time>
      </trkpt>
      <trkpt lat="45.13458" lon="5.89525">
        <ele>1716.1999511719</ele>
        <time>2021-01-06T08:24:41.000Z</time>
      </trkpt>
      <trkpt lat="45.13456" lon="5.89528">
        <ele>1717.5999755859</ele>
        <time>2021-01-06T08:24:47.000Z</time>
      </trkpt>
      <trkpt lat="45.13454" lon="5.89533">
        <ele>1718.4000244141</ele>
        <time>2021-01-06T08:24:51.000Z</time>
      </trkpt>
      <trkpt lat="45.13454" lon="5.89533">
        <ele>1718.5999755859</ele>
        <time>2021-01-06T08:24:52.000Z</time>
      </trkpt>
      <trkpt lat="45.13456" lon="5.89535">
        <ele>1719.5999755859</ele>
        <time>2021-01-06T08:24:57.000Z</time>
      </trkpt>
      <trkpt lat="45.13457" lon="5.89537">
        <ele>1719.8000488281</ele>
        <time>2021-01-06T08:24:59.000Z</time>
      </trkpt>
      <trkpt lat="45.13459" lon="5.89539">
        <ele>1720.5999755859</ele>
        <time>2021-01-06T08:25:03.000Z</time>
      </trkpt>
      <trkpt lat="45.13461" lon="5.8954">
        <ele>1721.4000244141</ele>
        <time>2021-01-06T08:25:06.000Z</time>
      </trkpt>
      <trkpt lat="45.13461" lon="5.89541">
        <ele>1721.8000488281</ele>
        <time>2021-01-06T08:25:08.000Z</time>
      </trkpt>
      <trkpt lat="45.13464" lon="5.89543">
        <ele>1722.8000488281</ele>
        <time>2021-01-06T08:25:13.000Z</time>
      </trkpt>
      <trkpt lat="45.13466" lon="5.89544">
        <ele>1723.5999755859</ele>
        <time>2021-01-06T08:25:16.000Z</time>
      </trkpt>
      <trkpt lat="45.13467" lon="5.89544">
        <ele>1724</ele>
        <time>2021-01-06T08:25:18.000Z</time>
      </trkpt>
      <trkpt lat="45.1347" lon="5.89544">
        <ele>1725</ele>
        <time>2021-01-06T08:25:24.000Z</time>
      </trkpt>
      <trkpt lat="45.13472" lon="5.89543">
        <ele>1725.5999755859</ele>
        <time>2021-01-06T08:25:28.000Z</time>
      </trkpt>
      <trkpt lat="45.13473" lon="5.89543">
        <ele>1726</ele>
        <time>2021-01-06T08:25:30.000Z</time>
      </trkpt>
      <trkpt lat="45.13475" lon="5.89543">
        <ele>1727.1999511719</ele>
        <time>2021-01-06T08:25:35.000Z</time>
      </trkpt>
      <trkpt lat="45.13476" lon="5.89543">
        <ele>1727.5999755859</ele>
        <time>2021-01-06T08:25:38.000Z</time>
      </trkpt>
      <trkpt lat="45.13476" lon="5.89543">
        <ele>1728.1999511719</ele>
        <time>2021-01-06T08:25:41.000Z</time>
      </trkpt>
      <trkpt lat="45.13479" lon="5.89541">
        <ele>1728.8000488281</ele>
        <time>2021-01-06T08:25:47.000Z</time>
      </trkpt>
      <trkpt lat="45.13484" lon="5.89542">
        <ele>1729.4000244141</ele>
        <time>2021-01-06T08:25:51.000Z</time>
      </trkpt>
      <trkpt lat="45.13483" lon="5.89541">
        <ele>1730.1999511719</ele>
        <time>2021-01-06T08:25:54.000Z</time>
      </trkpt>
      <trkpt lat="45.13483" lon="5.89542">
        <ele>1730.4000244141</ele>
        <time>2021-01-06T08:25:55.000Z</time>
      </trkpt>
      <trkpt lat="45.13483" lon="5.89544">
        <ele>1731.5999755859</ele>
        <time>2021-01-06T08:25:59.000Z</time>
      </trkpt>
      <trkpt lat="45.13483" lon="5.89545">
        <ele>1732.1999511719</ele>
        <time>2021-01-06T08:26:02.000Z</time>
      </trkpt>
      <trkpt lat="45.13483" lon="5.89548">
        <ele>1732.5999755859</ele>
        <time>2021-01-06T08:26:06.000Z</time>
      </trkpt>
      <trkpt lat="45.13481" lon="5.89552">
        <ele>1733.1999511719</ele>
        <time>2021-01-06T08:26:09.000Z</time>
      </trkpt>
      <trkpt lat="45.13481" lon="5.89552">
        <ele>1733.8000488281</ele>
        <time>2021-01-06T08:26:12.000Z</time>
      </trkpt>
      <trkpt lat="45.13483" lon="5.89557">
        <ele>1735</ele>
        <time>2021-01-06T08:26:17.000Z</time>
      </trkpt>
      <trkpt lat="45.13483" lon="5.89558">
        <ele>1735.1999511719</ele>
        <time>2021-01-06T08:26:18.000Z</time>
      </trkpt>
      <trkpt lat="45.13486" lon="5.89561">
        <ele>1736.1999511719</ele>
        <time>2021-01-06T08:26:22.000Z</time>
      </trkpt>
      <trkpt lat="45.13486" lon="5.89562">
        <ele>1737.1999511719</ele>
        <time>2021-01-06T08:26:25.000Z</time>
      </trkpt>
      <trkpt lat="45.13487" lon="5.89563">
        <ele>1737.4000244141</ele>
        <time>2021-01-06T08:26:26.000Z</time>
      </trkpt>
      <trkpt lat="45.13489" lon="5.89565">
        <ele>1738.5999755859</ele>
        <time>2021-01-06T08:26:30.000Z</time>
      </trkpt>
      <trkpt lat="45.13491" lon="5.89567">
        <ele>1739.1999511719</ele>
        <time>2021-01-06T08:26:33.000Z</time>
      </trkpt>
      <trkpt lat="45.13492" lon="5.89567">
        <ele>1739.5999755859</ele>
        <time>2021-01-06T08:26:34.000Z</time>
      </trkpt>
      <trkpt lat="45.13494" lon="5.89571">
        <ele>1740.5999755859</ele>
        <time>2021-01-06T08:26:39.000Z</time>
      </trkpt>
      <trkpt lat="45.13494" lon="5.89572">
        <ele>1740.8000488281</ele>
        <time>2021-01-06T08:26:40.000Z</time>
      </trkpt>
      <trkpt lat="45.13497" lon="5.89573">
        <ele>1741.8000488281</ele>
        <time>2021-01-06T08:26:44.000Z</time>
      </trkpt>
      <trkpt lat="45.13499" lon="5.89577">
        <ele>1742.5999755859</ele>
        <time>2021-01-06T08:26:47.000Z</time>
      </trkpt>
      <trkpt lat="45.135" lon="5.89579">
        <ele>1742.8000488281</ele>
        <time>2021-01-06T08:26:49.000Z</time>
      </trkpt>
      <trkpt lat="45.13501" lon="5.89584">
        <ele>1744</ele>
        <time>2021-01-06T08:26:54.000Z</time>
      </trkpt>
      <trkpt lat="45.13502" lon="5.89586">
        <ele>1744.4000244141</ele>
        <time>2021-01-06T08:26:56.000Z</time>
      </trkpt>
      <trkpt lat="45.13502" lon="5.89587">
        <ele>1745</ele>
        <time>2021-01-06T08:27:00.000Z</time>
      </trkpt>
      <trkpt lat="45.13501" lon="5.89588">
        <ele>1745.5999755859</ele>
        <time>2021-01-06T08:27:05.000Z</time>
      </trkpt>
      <trkpt lat="45.13497" lon="5.89594">
        <ele>1746.1999511719</ele>
        <time>2021-01-06T08:27:08.000Z</time>
      </trkpt>
      <trkpt lat="45.13493" lon="5.896">
        <ele>1747.4000244141</ele>
        <time>2021-01-06T08:27:12.000Z</time>
      </trkpt>
      <trkpt lat="45.13492" lon="5.89602">
        <ele>1747.5999755859</ele>
        <time>2021-01-06T08:27:13.000Z</time>
      </trkpt>
      <trkpt lat="45.13485" lon="5.89611">
        <ele>1748.4000244141</ele>
        <time>2021-01-06T08:27:20.000Z</time>
      </trkpt>
      <trkpt lat="45.13484" lon="5.89612">
        <ele>1748.4000244141</ele>
        <time>2021-01-06T08:27:21.000Z</time>
      </trkpt>
      <trkpt lat="45.1348" lon="5.89618">
        <ele>1749.5999755859</ele>
        <time>2021-01-06T08:27:28.000Z</time>
      </trkpt>
      <trkpt lat="45.13479" lon="5.89621">
        <ele>1750.5999755859</ele>
        <time>2021-01-06T08:27:32.000Z</time>
      </trkpt>
      <trkpt lat="45.13478" lon="5.89622">
        <ele>1751.8000488281</ele>
        <time>2021-01-06T08:27:35.000Z</time>
      </trkpt>
      <trkpt lat="45.13476" lon="5.89625">
        <ele>1752.8000488281</ele>
        <time>2021-01-06T08:27:39.000Z</time>
      </trkpt>
      <trkpt lat="45.13476" lon="5.89625">
        <ele>1753.4000244141</ele>
        <time>2021-01-06T08:27:41.000Z</time>
      </trkpt>
      <trkpt lat="45.13475" lon="5.89626">
        <ele>1753.8000488281</ele>
        <time>2021-01-06T08:27:43.000Z</time>
      </trkpt>
      <trkpt lat="45.13472" lon="5.89627">
        <ele>1755</ele>
        <time>2021-01-06T08:27:47.000Z</time>
      </trkpt>
      <trkpt lat="45.1347" lon="5.89628">
        <ele>1755.8000488281</ele>
        <time>2021-01-06T08:27:50.000Z</time>
      </trkpt>
      <trkpt lat="45.13468" lon="5.89628">
        <ele>1756.1999511719</ele>
        <time>2021-01-06T08:27:52.000Z</time>
      </trkpt>
      <trkpt lat="45.13466" lon="5.89628">
        <ele>1757.4000244141</ele>
        <time>2021-01-06T08:27:58.000Z</time>
      </trkpt>
      <trkpt lat="45.13463" lon="5.89631">
        <ele>1758.4000244141</ele>
        <time>2021-01-06T08:28:03.000Z</time>
      </trkpt>
      <trkpt lat="45.13463" lon="5.89632">
        <ele>1758.5999755859</ele>
        <time>2021-01-06T08:28:04.000Z</time>
      </trkpt>
      <trkpt lat="45.1346" lon="5.89632">
        <ele>1759.5999755859</ele>
        <time>2021-01-06T08:28:10.000Z</time>
      </trkpt>
      <trkpt lat="45.13459" lon="5.89633">
        <ele>1760</ele>
        <time>2021-01-06T08:28:12.000Z</time>
      </trkpt>
      <trkpt lat="45.13455" lon="5.89635">
        <ele>1760.8000488281</ele>
        <time>2021-01-06T08:28:17.000Z</time>
      </trkpt>
      <trkpt lat="45.13453" lon="5.89635">
        <ele>1761.4000244141</ele>
        <time>2021-01-06T08:28:20.000Z</time>
      </trkpt>
      <trkpt lat="45.13451" lon="5.89636">
        <ele>1762</ele>
        <time>2021-01-06T08:28:23.000Z</time>
      </trkpt>
      <trkpt lat="45.13447" lon="5.89638">
        <ele>1762.8000488281</ele>
        <time>2021-01-06T08:28:28.000Z</time>
      </trkpt>
      <trkpt lat="45.13446" lon="5.89639">
        <ele>1763</ele>
        <time>2021-01-06T08:28:29.000Z</time>
      </trkpt>
      <trkpt lat="45.13444" lon="5.8964">
        <ele>1763.8000488281</ele>
        <time>2021-01-06T08:28:33.000Z</time>
      </trkpt>
      <trkpt lat="45.13443" lon="5.8964">
        <ele>1764</ele>
        <time>2021-01-06T08:28:34.000Z</time>
      </trkpt>
      <trkpt lat="45.1344" lon="5.8964">
        <ele>1765.1999511719</ele>
        <time>2021-01-06T08:28:39.000Z</time>
      </trkpt>
      <trkpt lat="45.1344" lon="5.89641">
        <ele>1765.4000244141</ele>
        <time>2021-01-06T08:28:40.000Z</time>
      </trkpt>
      <trkpt lat="45.13439" lon="5.89643">
        <ele>1766.4000244141</ele>
        <time>2021-01-06T08:28:44.000Z</time>
      </trkpt>
      <trkpt lat="45.13439" lon="5.89646">
        <ele>1767.1999511719</ele>
        <time>2021-01-06T08:28:47.000Z</time>
      </trkpt>
      <trkpt lat="45.13439" lon="5.89647">
        <ele>1767.5999755859</ele>
        <time>2021-01-06T08:28:48.000Z</time>
      </trkpt>
      <trkpt lat="45.13438" lon="5.89651">
        <ele>1768.5999755859</ele>
        <time>2021-01-06T08:28:52.000Z</time>
      </trkpt>
      <trkpt lat="45.13438" lon="5.89654">
        <ele>1769.4000244141</ele>
        <time>2021-01-06T08:28:55.000Z</time>
      </trkpt>
      <trkpt lat="45.13438" lon="5.89657">
        <ele>1769.8000488281</ele>
        <time>2021-01-06T08:28:57.000Z</time>
      </trkpt>
      <trkpt lat="45.1344" lon="5.89663">
        <ele>1770.8000488281</ele>
        <time>2021-01-06T08:29:02.000Z</time>
      </trkpt>
      <trkpt lat="45.13439" lon="5.89664">
        <ele>1770.8000488281</ele>
        <time>2021-01-06T08:29:03.000Z</time>
      </trkpt>
      <trkpt lat="45.13442" lon="5.89675">
        <ele>1771.1999511719</ele>
        <time>2021-01-06T08:29:10.000Z</time>
      </trkpt>
      <trkpt lat="45.13444" lon="5.89679">
        <ele>1771.4000244141</ele>
        <time>2021-01-06T08:29:13.000Z</time>
      </trkpt>
      <trkpt lat="45.13448" lon="5.89687">
        <ele>1771.1999511719</ele>
        <time>2021-01-06T08:29:17.000Z</time>
      </trkpt>
      <trkpt lat="45.13454" lon="5.89703">
        <ele>1770</ele>
        <time>2021-01-06T08:29:23.000Z</time>
      </trkpt>
      <trkpt lat="45.13455" lon="5.89707">
        <ele>1769.5999755859</ele>
        <time>2021-01-06T08:29:24.000Z</time>
      </trkpt>
      <trkpt lat="45.13459" lon="5.89719">
        <ele>1768.5999755859</ele>
        <time>2021-01-06T08:29:27.000Z</time>
      </trkpt>
      <trkpt lat="45.13464" lon="5.89731">
        <ele>1767.1999511719</ele>
        <time>2021-01-06T08:29:30.000Z</time>
      </trkpt>
      <trkpt lat="45.13468" lon="5.89737">
        <ele>1766</ele>
        <time>2021-01-06T08:29:32.000Z</time>
      </trkpt>
      <trkpt lat="45.1347" lon="5.8974">
        <ele>1764.8000488281</ele>
        <time>2021-01-06T08:29:34.000Z</time>
      </trkpt>
      <trkpt lat="45.13471" lon="5.89741">
        <ele>1764.4000244141</ele>
        <time>2021-01-06T08:29:35.000Z</time>
      </trkpt>
      <trkpt lat="45.13472" lon="5.89745">
        <ele>1764</ele>
        <time>2021-01-06T08:29:37.000Z</time>
      </trkpt>
      <trkpt lat="45.13474" lon="5.8975">
        <ele>1764</ele>
        <time>2021-01-06T08:29:40.000Z</time>
      </trkpt>
      <trkpt lat="45.1348" lon="5.89759">
        <ele>1764.1999511719</ele>
        <time>2021-01-06T08:29:46.000Z</time>
      </trkpt>
      <trkpt lat="45.13486" lon="5.8977">
        <ele>1764.1999511719</ele>
        <time>2021-01-06T08:29:53.000Z</time>
      </trkpt>
      <trkpt lat="45.13494" lon="5.89777">
        <ele>1764.4000244141</ele>
        <time>2021-01-06T08:30:00.000Z</time>
      </trkpt>
      <trkpt lat="45.13502" lon="5.89787">
        <ele>1764.4000244141</ele>
        <time>2021-01-06T08:30:07.000Z</time>
      </trkpt>
      <trkpt lat="45.13504" lon="5.8979">
        <ele>1764.1999511719</ele>
        <time>2021-01-06T08:30:09.000Z</time>
      </trkpt>
      <trkpt lat="45.13505" lon="5.89792">
        <ele>1763.8000488281</ele>
        <time>2021-01-06T08:30:14.000Z</time>
      </trkpt>
      <trkpt lat="45.13511" lon="5.89807">
        <ele>1763.5999755859</ele>
        <time>2021-01-06T08:30:21.000Z</time>
      </trkpt>
      <trkpt lat="45.13513" lon="5.89811">
        <ele>1763.1999511719</ele>
        <time>2021-01-06T08:30:23.000Z</time>
      </trkpt>
      <trkpt lat="45.13518" lon="5.89811">
        <ele>1762.1999511719</ele>
        <time>2021-01-06T08:30:25.000Z</time>
      </trkpt>
      <trkpt lat="45.1352" lon="5.89813">
        <ele>1761.8000488281</ele>
        <time>2021-01-06T08:30:26.000Z</time>
      </trkpt>
      <trkpt lat="45.13522" lon="5.89816">
        <ele>1761.1999511719</ele>
        <time>2021-01-06T08:30:27.000Z</time>
      </trkpt>
      <trkpt lat="45.13523" lon="5.89817">
        <ele>1760.4000244141</ele>
        <time>2021-01-06T08:30:28.000Z</time>
      </trkpt>
      <trkpt lat="45.13523" lon="5.89818">
        <ele>1759.4000244141</ele>
        <time>2021-01-06T08:30:29.000Z</time>
      </trkpt>
      <trkpt lat="45.13523" lon="5.89822">
        <ele>1758</ele>
        <time>2021-01-06T08:30:31.000Z</time>
      </trkpt>
      <trkpt lat="45.13523" lon="5.89826">
        <ele>1756.8000488281</ele>
        <time>2021-01-06T08:30:34.000Z</time>
      </trkpt>
      <trkpt lat="45.13522" lon="5.89828">
        <ele>1756.5999755859</ele>
        <time>2021-01-06T08:30:35.000Z</time>
      </trkpt>
      <trkpt lat="45.13521" lon="5.89833">
        <ele>1755.8000488281</ele>
        <time>2021-01-06T08:30:39.000Z</time>
      </trkpt>
      <trkpt lat="45.13521" lon="5.89833">
        <ele>1755.1999511719</ele>
        <time>2021-01-06T08:30:41.000Z</time>
      </trkpt>
      <trkpt lat="45.13521" lon="5.89839">
        <ele>1754.8000488281</ele>
        <time>2021-01-06T08:30:49.000Z</time>
      </trkpt>
      <trkpt lat="45.13524" lon="5.89846">
        <ele>1754.5999755859</ele>
        <time>2021-01-06T08:30:51.000Z</time>
      </trkpt>
      <trkpt lat="45.13525" lon="5.89848">
        <ele>1754</ele>
        <time>2021-01-06T08:30:53.000Z</time>
      </trkpt>
      <trkpt lat="45.13526" lon="5.89849">
        <ele>1753.4000244141</ele>
        <time>2021-01-06T08:30:54.000Z</time>
      </trkpt>
      <trkpt lat="45.13526" lon="5.89849">
        <ele>1752.1999511719</ele>
        <time>2021-01-06T08:30:57.000Z</time>
      </trkpt>
      <trkpt lat="45.13524" lon="5.8985">
        <ele>1752</ele>
        <time>2021-01-06T08:31:00.000Z</time>
      </trkpt>
      <trkpt lat="45.1351" lon="5.89852">
        <ele>1751</ele>
        <time>2021-01-06T08:31:04.000Z</time>
      </trkpt>
      <trkpt lat="45.13506" lon="5.89853">
        <ele>1750</ele>
        <time>2021-01-06T08:31:05.000Z</time>
      </trkpt>
      <trkpt lat="45.13504" lon="5.89856">
        <ele>1748.8000488281</ele>
        <time>2021-01-06T08:31:06.000Z</time>
      </trkpt>
      <trkpt lat="45.13504" lon="5.89857">
        <ele>1747.5999755859</ele>
        <time>2021-01-06T08:31:07.000Z</time>
      </trkpt>
      <trkpt lat="45.13504" lon="5.89858">
        <ele>1746.4000244141</ele>
        <time>2021-01-06T08:31:08.000Z</time>
      </trkpt>
      <trkpt lat="45.13504" lon="5.89859">
        <ele>1745.4000244141</ele>
        <time>2021-01-06T08:31:09.000Z</time>
      </trkpt>
      <trkpt lat="45.13504" lon="5.89861">
        <ele>1744</ele>
        <time>2021-01-06T08:31:12.000Z</time>
      </trkpt>
      <trkpt lat="45.13504" lon="5.89861">
        <ele>1744</ele>
        <time>2021-01-06T08:31:15.000Z</time>
      </trkpt>
      <trkpt lat="45.13506" lon="5.89864">
        <ele>1743.5999755859</ele>
        <time>2021-01-06T08:31:23.000Z</time>
      </trkpt>
      <trkpt lat="45.13507" lon="5.89864">
        <ele>1743</ele>
        <time>2021-01-06T08:31:26.000Z</time>
      </trkpt>
      <trkpt lat="45.13507" lon="5.89864">
        <ele>1742.5999755859</ele>
        <time>2021-01-06T08:31:31.000Z</time>
      </trkpt>
      <trkpt lat="45.1351" lon="5.89868">
        <ele>1741.5999755859</ele>
        <time>2021-01-06T08:31:36.000Z</time>
      </trkpt>
      <trkpt lat="45.1351" lon="5.89868">
        <ele>1741.1999511719</ele>
        <time>2021-01-06T08:31:37.000Z</time>
      </trkpt>
      <trkpt lat="45.13509" lon="5.8987">
        <ele>1740.8000488281</ele>
        <time>2021-01-06T08:31:38.000Z</time>
      </trkpt>
      <trkpt lat="45.1351" lon="5.89874">
        <ele>1740.5999755859</ele>
        <time>2021-01-06T08:31:39.000Z</time>
      </trkpt>
      <trkpt lat="45.1351" lon="5.8988">
        <ele>1740.1999511719</ele>
        <time>2021-01-06T08:31:40.000Z</time>
      </trkpt>
      <trkpt lat="45.13508" lon="5.89899">
        <ele>1739.4000244141</ele>
        <time>2021-01-06T08:31:42.000Z</time>
      </trkpt>
      <trkpt lat="45.13507" lon="5.8991">
        <ele>1738.8000488281</ele>
        <time>2021-01-06T08:31:43.000Z</time>
      </trkpt>
      <trkpt lat="45.13506" lon="5.89922">
        <ele>1737.8000488281</ele>
        <time>2021-01-06T08:31:44.000Z</time>
      </trkpt>
      <trkpt lat="45.13505" lon="5.89929">
        <ele>1736.5999755859</ele>
        <time>2021-01-06T08:31:45.000Z</time>
      </trkpt>
      <trkpt lat="45.13504" lon="5.89934">
        <ele>1735.1999511719</ele>
        <time>2021-01-06T08:31:46.000Z</time>
      </trkpt>
      <trkpt lat="45.13504" lon="5.89937">
        <ele>1733.8000488281</ele>
        <time>2021-01-06T08:31:47.000Z</time>
      </trkpt>
      <trkpt lat="45.13504" lon="5.89938">
        <ele>1732.4000244141</ele>
        <time>2021-01-06T08:31:48.000Z</time>
      </trkpt>
      <trkpt lat="45.13504" lon="5.8994">
        <ele>1731.1999511719</ele>
        <time>2021-01-06T08:31:49.000Z</time>
      </trkpt>
      <trkpt lat="45.13504" lon="5.89941">
        <ele>1730</ele>
        <time>2021-01-06T08:31:51.000Z</time>
      </trkpt>
      <trkpt lat="45.13505" lon="5.89949">
        <ele>1729.4000244141</ele>
        <time>2021-01-06T08:31:57.000Z</time>
      </trkpt>
      <trkpt lat="45.13507" lon="5.89955">
        <ele>1729.8000488281</ele>
        <time>2021-01-06T08:32:02.000Z</time>
      </trkpt>
      <trkpt lat="45.13509" lon="5.89963">
        <ele>1730.1999511719</ele>
        <time>2021-01-06T08:32:09.000Z</time>
      </trkpt>
      <trkpt lat="45.1351" lon="5.89972">
        <ele>1730.8000488281</ele>
        <time>2021-01-06T08:32:15.000Z</time>
      </trkpt>
      <trkpt lat="45.13509" lon="5.89976">
        <ele>1731</ele>
        <time>2021-01-06T08:32:18.000Z</time>
      </trkpt>
      <trkpt lat="45.13509" lon="5.89982">
        <ele>1731.4000244141</ele>
        <time>2021-01-06T08:32:22.000Z</time>
      </trkpt>
      <trkpt lat="45.13509" lon="5.89989">
        <ele>1732</ele>
        <time>2021-01-06T08:32:26.000Z</time>
      </trkpt>
      <trkpt lat="45.13507" lon="5.89996">
        <ele>1732.5999755859</ele>
        <time>2021-01-06T08:32:30.000Z</time>
      </trkpt>
      <trkpt lat="45.13508" lon="5.9">
        <ele>1733.1999511719</ele>
        <time>2021-01-06T08:32:33.000Z</time>
      </trkpt>
      <trkpt lat="45.13509" lon="5.90004">
        <ele>1733.8000488281</ele>
        <time>2021-01-06T08:32:36.000Z</time>
      </trkpt>
      <trkpt lat="45.13509" lon="5.90008">
        <ele>1734.1999511719</ele>
        <time>2021-01-06T08:32:39.000Z</time>
      </trkpt>
      <trkpt lat="45.1351" lon="5.90014">
        <ele>1734.8000488281</ele>
        <time>2021-01-06T08:32:42.000Z</time>
      </trkpt>
      <trkpt lat="45.1351" lon="5.90018">
        <ele>1735.4000244141</ele>
        <time>2021-01-06T08:32:45.000Z</time>
      </trkpt>
      <trkpt lat="45.13509" lon="5.90026">
        <ele>1736</ele>
        <time>2021-01-06T08:32:48.000Z</time>
      </trkpt>
      <trkpt lat="45.13509" lon="5.90027">
        <ele>1736.1999511719</ele>
        <time>2021-01-06T08:32:49.000Z</time>
      </trkpt>
      <trkpt lat="45.13509" lon="5.90028">
        <ele>1736.4000244141</ele>
        <time>2021-01-06T08:32:50.000Z</time>
      </trkpt>
      <trkpt lat="45.13507" lon="5.90033">
        <ele>1737.4000244141</ele>
        <time>2021-01-06T08:32:54.000Z</time>
      </trkpt>
      <trkpt lat="45.13507" lon="5.90034">
        <ele>1737.5999755859</ele>
        <time>2021-01-06T08:32:55.000Z</time>
      </trkpt>
      <trkpt lat="45.13505" lon="5.90039">
        <ele>1738.1999511719</ele>
        <time>2021-01-06T08:32:59.000Z</time>
      </trkpt>
      <trkpt lat="45.13503" lon="5.90041">
        <ele>1738.5999755859</ele>
        <time>2021-01-06T08:33:02.000Z</time>
      </trkpt>
      <trkpt lat="45.13502" lon="5.90041">
        <ele>1739.1999511719</ele>
        <time>2021-01-06T08:33:05.000Z</time>
      </trkpt>
      <trkpt lat="45.135" lon="5.90042">
        <ele>1739.8000488281</ele>
        <time>2021-01-06T08:33:08.000Z</time>
      </trkpt>
      <trkpt lat="45.13499" lon="5.90042">
        <ele>1740.4000244141</ele>
        <time>2021-01-06T08:33:11.000Z</time>
      </trkpt>
      <trkpt lat="45.13499" lon="5.90042">
        <ele>1740.8000488281</ele>
        <time>2021-01-06T08:33:12.000Z</time>
      </trkpt>
      <trkpt lat="45.13496" lon="5.90046">
        <ele>1742</ele>
        <time>2021-01-06T08:33:18.000Z</time>
      </trkpt>
      <trkpt lat="45.13494" lon="5.90051">
        <ele>1743.1999511719</ele>
        <time>2021-01-06T08:33:24.000Z</time>
      </trkpt>
      <trkpt lat="45.13491" lon="5.90053">
        <ele>1743.8000488281</ele>
        <time>2021-01-06T08:33:26.000Z</time>
      </trkpt>
      <trkpt lat="45.13489" lon="5.90055">
        <ele>1744.1999511719</ele>
        <time>2021-01-06T08:33:28.000Z</time>
      </trkpt>
      <trkpt lat="45.13486" lon="5.90061">
        <ele>1745.1999511719</ele>
        <time>2021-01-06T08:33:31.000Z</time>
      </trkpt>
      <trkpt lat="45.13485" lon="5.90062">
        <ele>1745.4000244141</ele>
        <time>2021-01-06T08:33:32.000Z</time>
      </trkpt>
      <trkpt lat="45.13481" lon="5.9007">
        <ele>1746</ele>
        <time>2021-01-06T08:33:35.000Z</time>
      </trkpt>
      <trkpt lat="45.13479" lon="5.90072">
        <ele>1746.4000244141</ele>
        <time>2021-01-06T08:33:36.000Z</time>
      </trkpt>
      <trkpt lat="45.13478" lon="5.90075">
        <ele>1746.5999755859</ele>
        <time>2021-01-06T08:33:37.000Z</time>
      </trkpt>
      <trkpt lat="45.13473" lon="5.90087">
        <ele>1747.5999755859</ele>
        <time>2021-01-06T08:33:41.000Z</time>
      </trkpt>
      <trkpt lat="45.13472" lon="5.9009">
        <ele>1747.8000488281</ele>
        <time>2021-01-06T08:33:42.000Z</time>
      </trkpt>
      <trkpt lat="45.13467" lon="5.90105">
        <ele>1748.8000488281</ele>
        <time>2021-01-06T08:33:46.000Z</time>
      </trkpt>
      <trkpt lat="45.13466" lon="5.90109">
        <ele>1749</ele>
        <time>2021-01-06T08:33:47.000Z</time>
      </trkpt>
      <trkpt lat="45.13463" lon="5.90121">
        <ele>1750</ele>
        <time>2021-01-06T08:33:50.000Z</time>
      </trkpt>
      <trkpt lat="45.1346" lon="5.90132">
        <ele>1750.8000488281</ele>
        <time>2021-01-06T08:33:53.000Z</time>
      </trkpt>
      <trkpt lat="45.13458" lon="5.90138">
        <ele>1751</ele>
        <time>2021-01-06T08:33:55.000Z</time>
      </trkpt>
      <trkpt lat="45.13453" lon="5.90153">
        <ele>1751.5999755859</ele>
        <time>2021-01-06T08:33:59.000Z</time>
      </trkpt>
      <trkpt lat="45.13447" lon="5.90178">
        <ele>1752</ele>
        <time>2021-01-06T08:34:05.000Z</time>
      </trkpt>
      <trkpt lat="45.13446" lon="5.90183">
        <ele>1752.1999511719</ele>
        <time>2021-01-06T08:34:06.000Z</time>
      </trkpt>
      <trkpt lat="45.13441" lon="5.90212">
        <ele>1752.8000488281</ele>
        <time>2021-01-06T08:34:11.000Z</time>
      </trkpt>
      <trkpt lat="45.13438" lon="5.9022">
        <ele>1753</ele>
        <time>2021-01-06T08:34:12.000Z</time>
      </trkpt>
      <trkpt lat="45.13436" lon="5.90227">
        <ele>1753.1999511719</ele>
        <time>2021-01-06T08:34:13.000Z</time>
      </trkpt>
      <trkpt lat="45.13427" lon="5.90254">
        <ele>1754.1999511719</ele>
        <time>2021-01-06T08:34:17.000Z</time>
      </trkpt>
      <trkpt lat="45.1342" lon="5.90278">
        <ele>1755.4000244141</ele>
        <time>2021-01-06T08:34:21.000Z</time>
      </trkpt>
      <trkpt lat="45.13418" lon="5.90291">
        <ele>1755.5999755859</ele>
        <time>2021-01-06T08:34:23.000Z</time>
      </trkpt>
      <trkpt lat="45.13413" lon="5.90323">
        <ele>1755.4000244141</ele>
        <time>2021-01-06T08:34:28.000Z</time>
      </trkpt>
      <trkpt lat="45.13412" lon="5.90329">
        <ele>1755.4000244141</ele>
        <time>2021-01-06T08:34:29.000Z</time>
      </trkpt>
      <trkpt lat="45.1341" lon="5.90356">
        <ele>1755.5999755859</ele>
        <time>2021-01-06T08:34:33.000Z</time>
      </trkpt>
      <trkpt lat="45.13408" lon="5.90363">
        <ele>1755.5999755859</ele>
        <time>2021-01-06T08:34:34.000Z</time>
      </trkpt>
      <trkpt lat="45.134" lon="5.90385">
        <ele>1756</ele>
        <time>2021-01-06T08:34:37.000Z</time>
      </trkpt>
      <trkpt lat="45.13398" lon="5.90392">
        <ele>1756.1999511719</ele>
        <time>2021-01-06T08:34:38.000Z</time>
      </trkpt>
      <trkpt lat="45.13395" lon="5.90402">
        <ele>1756.5999755859</ele>
        <time>2021-01-06T08:34:40.000Z</time>
      </trkpt>
      <trkpt lat="45.13394" lon="5.90406">
        <ele>1757.1999511719</ele>
        <time>2021-01-06T08:34:42.000Z</time>
      </trkpt>
      <trkpt lat="45.13395" lon="5.90404">
        <ele>1757.5999755859</ele>
        <time>2021-01-06T08:34:44.000Z</time>
      </trkpt>
      <trkpt lat="45.13395" lon="5.90402">
        <ele>1758.1999511719</ele>
        <time>2021-01-06T08:34:46.000Z</time>
      </trkpt>
      <trkpt lat="45.13396" lon="5.90399">
        <ele>1758.8000488281</ele>
        <time>2021-01-06T08:34:48.000Z</time>
      </trkpt>
      <trkpt lat="45.13398" lon="5.90395">
        <ele>1759.5999755859</ele>
        <time>2021-01-06T08:34:52.000Z</time>
      </trkpt>
      <trkpt lat="45.13398" lon="5.90393">
        <ele>1759.8000488281</ele>
        <time>2021-01-06T08:34:53.000Z</time>
      </trkpt>
      <trkpt lat="45.13397" lon="5.90387">
        <ele>1760.8000488281</ele>
        <time>2021-01-06T08:34:57.000Z</time>
      </trkpt>
      <trkpt lat="45.13396" lon="5.9038">
        <ele>1761.5999755859</ele>
        <time>2021-01-06T08:35:00.000Z</time>
      </trkpt>
      <trkpt lat="45.13396" lon="5.90375">
        <ele>1762</ele>
        <time>2021-01-06T08:35:02.000Z</time>
      </trkpt>
      <trkpt lat="45.13396" lon="5.90368">
        <ele>1763</ele>
        <time>2021-01-06T08:35:07.000Z</time>
      </trkpt>
      <trkpt lat="45.13396" lon="5.90368">
        <ele>1763.4000244141</ele>
        <time>2021-01-06T08:35:09.000Z</time>
      </trkpt>
      <trkpt lat="45.13396" lon="5.90363">
        <ele>1764</ele>
        <time>2021-01-06T08:35:16.000Z</time>
      </trkpt>
      <trkpt lat="45.13395" lon="5.90361">
        <ele>1764</ele>
        <time>2021-01-06T08:35:18.000Z</time>
      </trkpt>
      <trkpt lat="45.13395" lon="5.90355">
        <ele>1764.5999755859</ele>
        <time>2021-01-06T08:35:23.000Z</time>
      </trkpt>
      <trkpt lat="45.13397" lon="5.90349">
        <ele>1765.1999511719</ele>
        <time>2021-01-06T08:35:27.000Z</time>
      </trkpt>
      <trkpt lat="45.13398" lon="5.90349">
        <ele>1765.5999755859</ele>
        <time>2021-01-06T08:35:29.000Z</time>
      </trkpt>
      <trkpt lat="45.13472" lon="5.90144">
        <ele>1766.1999511719</ele>
        <time>2021-01-06T08:35:33.000Z</time>
      </trkpt>
      <trkpt lat="45.13476" lon="5.90135">
        <ele>1766.4000244141</ele>
        <time>2021-01-06T08:35:36.000Z</time>
      </trkpt>
      <trkpt lat="45.13478" lon="5.90133">
        <ele>1766.5999755859</ele>
        <time>2021-01-06T08:35:38.000Z</time>
      </trkpt>
      <trkpt lat="45.13478" lon="5.90132">
        <ele>1767</ele>
        <time>2021-01-06T08:35:45.000Z</time>
      </trkpt>
      <trkpt lat="45.13477" lon="5.90133">
        <ele>1767.4000244141</ele>
        <time>2021-01-06T08:35:47.000Z</time>
      </trkpt>
      <trkpt lat="45.13475" lon="5.90135">
        <ele>1768.4000244141</ele>
        <time>2021-01-06T08:35:51.000Z</time>
      </trkpt>
      <trkpt lat="45.13475" lon="5.90135">
        <ele>1768.5999755859</ele>
        <time>2021-01-06T08:35:52.000Z</time>
      </trkpt>
      <trkpt lat="45.13473" lon="5.90138">
        <ele>1769.8000488281</ele>
        <time>2021-01-06T08:35:56.000Z</time>
      </trkpt>
      <trkpt lat="45.13473" lon="5.90138">
        <ele>1770</ele>
        <time>2021-01-06T08:35:57.000Z</time>
      </trkpt>
      <trkpt lat="45.13476" lon="5.9014">
        <ele>1771.1999511719</ele>
        <time>2021-01-06T08:36:00.000Z</time>
      </trkpt>
      <trkpt lat="45.13478" lon="5.90141">
        <ele>1771.8000488281</ele>
        <time>2021-01-06T08:36:03.000Z</time>
      </trkpt>
      <trkpt lat="45.13478" lon="5.90143">
        <ele>1772.4000244141</ele>
        <time>2021-01-06T08:36:05.000Z</time>
      </trkpt>
      <trkpt lat="45.1348" lon="5.90146">
        <ele>1773.4000244141</ele>
        <time>2021-01-06T08:36:10.000Z</time>
      </trkpt>
      <trkpt lat="45.1348" lon="5.90151">
        <ele>1774.4000244141</ele>
        <time>2021-01-06T08:36:15.000Z</time>
      </trkpt>
      <trkpt lat="45.1348" lon="5.90152">
        <ele>1774.5999755859</ele>
        <time>2021-01-06T08:36:16.000Z</time>
      </trkpt>
      <trkpt lat="45.13478" lon="5.90154">
        <ele>1775.5999755859</ele>
        <time>2021-01-06T08:36:20.000Z</time>
      </trkpt>
      <trkpt lat="45.13478" lon="5.90154">
        <ele>1775.8000488281</ele>
        <time>2021-01-06T08:36:21.000Z</time>
      </trkpt>
      <trkpt lat="45.13476" lon="5.90157">
        <ele>1776.8000488281</ele>
        <time>2021-01-06T08:36:25.000Z</time>
      </trkpt>
      <trkpt lat="45.13474" lon="5.90158">
        <ele>1777.4000244141</ele>
        <time>2021-01-06T08:36:28.000Z</time>
      </trkpt>
      <trkpt lat="45.13474" lon="5.90159">
        <ele>1777.8000488281</ele>
        <time>2021-01-06T08:36:30.000Z</time>
      </trkpt>
      <trkpt lat="45.13472" lon="5.90166">
        <ele>1778.5999755859</ele>
        <time>2021-01-06T08:36:34.000Z</time>
      </trkpt>
      <trkpt lat="45.13472" lon="5.9017">
        <ele>1779</ele>
        <time>2021-01-06T08:36:36.000Z</time>
      </trkpt>
      <trkpt lat="45.1347" lon="5.90178">
        <ele>1780</ele>
        <time>2021-01-06T08:36:41.000Z</time>
      </trkpt>
      <trkpt lat="45.13469" lon="5.9019">
        <ele>1781</ele>
        <time>2021-01-06T08:36:48.000Z</time>
      </trkpt>
      <trkpt lat="45.13467" lon="5.902">
        <ele>1781.5999755859</ele>
        <time>2021-01-06T08:36:54.000Z</time>
      </trkpt>
      <trkpt lat="45.13468" lon="5.90208">
        <ele>1782.1999511719</ele>
        <time>2021-01-06T08:36:59.000Z</time>
      </trkpt>
      <trkpt lat="45.13469" lon="5.90211">
        <ele>1782.4000244141</ele>
        <time>2021-01-06T08:37:01.000Z</time>
      </trkpt>
      <trkpt lat="45.13474" lon="5.90222">
        <ele>1783.1999511719</ele>
        <time>2021-01-06T08:37:09.000Z</time>
      </trkpt>
      <trkpt lat="45.13474" lon="5.90223">
        <ele>1783.4000244141</ele>
        <time>2021-01-06T08:37:10.000Z</time>
      </trkpt>
      <trkpt lat="45.13476" lon="5.90235">
        <ele>1784</ele>
        <time>2021-01-06T08:37:17.000Z</time>
      </trkpt>
      <trkpt lat="45.13476" lon="5.90245">
        <ele>1784.4000244141</ele>
        <time>2021-01-06T08:37:22.000Z</time>
      </trkpt>
      <trkpt lat="45.13477" lon="5.90247">
        <ele>1784.4000244141</ele>
        <time>2021-01-06T08:37:23.000Z</time>
      </trkpt>
      <trkpt lat="45.13477" lon="5.90249">
        <ele>1784.5999755859</ele>
        <time>2021-01-06T08:37:24.000Z</time>
      </trkpt>
      <trkpt lat="45.13476" lon="5.9026">
        <ele>1784.8000488281</ele>
        <time>2021-01-06T08:37:30.000Z</time>
      </trkpt>
      <trkpt lat="45.13475" lon="5.90263">
        <ele>1784.8000488281</ele>
        <time>2021-01-06T08:37:31.000Z</time>
      </trkpt>
      <trkpt lat="45.13475" lon="5.90274">
        <ele>1784.5999755859</ele>
        <time>2021-01-06T08:37:37.000Z</time>
      </trkpt>
      <trkpt lat="45.13474" lon="5.90288">
        <ele>1784.4000244141</ele>
        <time>2021-01-06T08:37:44.000Z</time>
      </trkpt>
      <trkpt lat="45.13476" lon="5.903">
        <ele>1784.5999755859</ele>
        <time>2021-01-06T08:37:51.000Z</time>
      </trkpt>
      <trkpt lat="45.13478" lon="5.90309">
        <ele>1784.5999755859</ele>
        <time>2021-01-06T08:37:56.000Z</time>
      </trkpt>
      <trkpt lat="45.13479" lon="5.90321">
        <ele>1784.4000244141</ele>
        <time>2021-01-06T08:38:02.000Z</time>
      </trkpt>
      <trkpt lat="45.13478" lon="5.90336">
        <ele>1784.4000244141</ele>
        <time>2021-01-06T08:38:10.000Z</time>
      </trkpt>
      <trkpt lat="45.13476" lon="5.9035">
        <ele>1784.5999755859</ele>
        <time>2021-01-06T08:38:17.000Z</time>
      </trkpt>
      <trkpt lat="45.13475" lon="5.9036">
        <ele>1785.4000244141</ele>
        <time>2021-01-06T08:38:23.000Z</time>
      </trkpt>
      <trkpt lat="45.13475" lon="5.90362">
        <ele>1785.5999755859</ele>
        <time>2021-01-06T08:38:24.000Z</time>
      </trkpt>
      <trkpt lat="45.13475" lon="5.90372">
        <ele>1786.1999511719</ele>
        <time>2021-01-06T08:38:30.000Z</time>
      </trkpt>
      <trkpt lat="45.13473" lon="5.90378">
        <ele>1786.5999755859</ele>
        <time>2021-01-06T08:38:34.000Z</time>
      </trkpt>
      <trkpt lat="45.13473" lon="5.90381">
        <ele>1786.8000488281</ele>
        <time>2021-01-06T08:38:36.000Z</time>
      </trkpt>
      <trkpt lat="45.1347" lon="5.90394">
        <ele>1787.5999755859</ele>
        <time>2021-01-06T08:38:44.000Z</time>
      </trkpt>
      <trkpt lat="45.13471" lon="5.90397">
        <ele>1787.8000488281</ele>
        <time>2021-01-06T08:38:45.000Z</time>
      </trkpt>
      <trkpt lat="45.13471" lon="5.90405">
        <ele>1788.4000244141</ele>
        <time>2021-01-06T08:38:50.000Z</time>
      </trkpt>
      <trkpt lat="45.1347" lon="5.90408">
        <ele>1788.8000488281</ele>
        <time>2021-01-06T08:38:52.000Z</time>
      </trkpt>
      <trkpt lat="45.1347" lon="5.90416">
        <ele>1789.5999755859</ele>
        <time>2021-01-06T08:38:57.000Z</time>
      </trkpt>
      <trkpt lat="45.1347" lon="5.90417">
        <ele>1789.8000488281</ele>
        <time>2021-01-06T08:38:58.000Z</time>
      </trkpt>
      <trkpt lat="45.1347" lon="5.9042">
        <ele>1790.1999511719</ele>
        <time>2021-01-06T08:39:00.000Z</time>
      </trkpt>
      <trkpt lat="45.13469" lon="5.90422">
        <ele>1790.5999755859</ele>
        <time>2021-01-06T08:39:02.000Z</time>
      </trkpt>
      <trkpt lat="45.13469" lon="5.90425">
        <ele>1790.8000488281</ele>
        <time>2021-01-06T08:39:04.000Z</time>
      </trkpt>
      <trkpt lat="45.13469" lon="5.90429">
        <ele>1791.4000244141</ele>
        <time>2021-01-06T08:39:07.000Z</time>
      </trkpt>
      <trkpt lat="45.13469" lon="5.9043">
        <ele>1791.5999755859</ele>
        <time>2021-01-06T08:39:08.000Z</time>
      </trkpt>
      <trkpt lat="45.13468" lon="5.90432">
        <ele>1792</ele>
        <time>2021-01-06T08:39:10.000Z</time>
      </trkpt>
      <trkpt lat="45.13468" lon="5.90436">
        <ele>1792.8000488281</ele>
        <time>2021-01-06T08:39:13.000Z</time>
      </trkpt>
      <trkpt lat="45.13468" lon="5.90438">
        <ele>1793.1999511719</ele>
        <time>2021-01-06T08:39:15.000Z</time>
      </trkpt>
      <trkpt lat="45.13468" lon="5.90443">
        <ele>1794</ele>
        <time>2021-01-06T08:39:18.000Z</time>
      </trkpt>
      <trkpt lat="45.13469" lon="5.90444">
        <ele>1794.1999511719</ele>
        <time>2021-01-06T08:39:19.000Z</time>
      </trkpt>
      <trkpt lat="45.13469" lon="5.90449">
        <ele>1795.1999511719</ele>
        <time>2021-01-06T08:39:23.000Z</time>
      </trkpt>
      <trkpt lat="45.1347" lon="5.9045">
        <ele>1795.5999755859</ele>
        <time>2021-01-06T08:39:24.000Z</time>
      </trkpt>
      <trkpt lat="45.1347" lon="5.90454">
        <ele>1796.5999755859</ele>
        <time>2021-01-06T08:39:27.000Z</time>
      </trkpt>
      <trkpt lat="45.1347" lon="5.90456">
        <ele>1797.1999511719</ele>
        <time>2021-01-06T08:39:29.000Z</time>
      </trkpt>
      <trkpt lat="45.1347" lon="5.90459">
        <ele>1797.5999755859</ele>
        <time>2021-01-06T08:39:31.000Z</time>
      </trkpt>
      <trkpt lat="45.13468" lon="5.90462">
        <ele>1798.5999755859</ele>
        <time>2021-01-06T08:39:34.000Z</time>
      </trkpt>
      <trkpt lat="45.13468" lon="5.90462">
        <ele>1798.8000488281</ele>
        <time>2021-01-06T08:39:35.000Z</time>
      </trkpt>
      <trkpt lat="45.13466" lon="5.90465">
        <ele>1800</ele>
        <time>2021-01-06T08:39:38.000Z</time>
      </trkpt>
      <trkpt lat="45.13464" lon="5.90467">
        <ele>1801</ele>
        <time>2021-01-06T08:39:42.000Z</time>
      </trkpt>
      <trkpt lat="45.13464" lon="5.90468">
        <ele>1801.1999511719</ele>
        <time>2021-01-06T08:39:43.000Z</time>
      </trkpt>
      <trkpt lat="45.13461" lon="5.90473">
        <ele>1802.1999511719</ele>
        <time>2021-01-06T08:39:48.000Z</time>
      </trkpt>
      <trkpt lat="45.13461" lon="5.90474">
        <ele>1802.4000244141</ele>
        <time>2021-01-06T08:39:49.000Z</time>
      </trkpt>
      <trkpt lat="45.13461" lon="5.90479">
        <ele>1803.4000244141</ele>
        <time>2021-01-06T08:39:54.000Z</time>
      </trkpt>
      <trkpt lat="45.13461" lon="5.9048">
        <ele>1803.5999755859</ele>
        <time>2021-01-06T08:39:55.000Z</time>
      </trkpt>
      <trkpt lat="45.13462" lon="5.90485">
        <ele>1804.4000244141</ele>
        <time>2021-01-06T08:39:59.000Z</time>
      </trkpt>
      <trkpt lat="45.13461" lon="5.90488">
        <ele>1805</ele>
        <time>2021-01-06T08:40:01.000Z</time>
      </trkpt>
      <trkpt lat="45.13461" lon="5.90491">
        <ele>1805.4000244141</ele>
        <time>2021-01-06T08:40:03.000Z</time>
      </trkpt>
      <trkpt lat="45.1346" lon="5.90498">
        <ele>1806.5999755859</ele>
        <time>2021-01-06T08:40:08.000Z</time>
      </trkpt>
      <trkpt lat="45.13461" lon="5.90506">
        <ele>1807.5999755859</ele>
        <time>2021-01-06T08:40:14.000Z</time>
      </trkpt>
      <trkpt lat="45.13461" lon="5.90507">
        <ele>1807.8000488281</ele>
        <time>2021-01-06T08:40:15.000Z</time>
      </trkpt>
      <trkpt lat="45.1346" lon="5.90516">
        <ele>1808.5999755859</ele>
        <time>2021-01-06T08:40:21.000Z</time>
      </trkpt>
      <trkpt lat="45.1346" lon="5.90517">
        <ele>1808.8000488281</ele>
        <time>2021-01-06T08:40:22.000Z</time>
      </trkpt>
      <trkpt lat="45.1346" lon="5.90521">
        <ele>1809.8000488281</ele>
        <time>2021-01-06T08:40:26.000Z</time>
      </trkpt>
      <trkpt lat="45.1346" lon="5.90525">
        <ele>1810.4000244141</ele>
        <time>2021-01-06T08:40:29.000Z</time>
      </trkpt>
      <trkpt lat="45.13461" lon="5.90528">
        <ele>1811</ele>
        <time>2021-01-06T08:40:31.000Z</time>
      </trkpt>
      <trkpt lat="45.1346" lon="5.90534">
        <ele>1812</ele>
        <time>2021-01-06T08:40:36.000Z</time>
      </trkpt>
      <trkpt lat="45.13461" lon="5.90541">
        <ele>1813.1999511719</ele>
        <time>2021-01-06T08:40:41.000Z</time>
      </trkpt>
      <trkpt lat="45.13459" lon="5.90545">
        <ele>1814</ele>
        <time>2021-01-06T08:40:44.000Z</time>
      </trkpt>
      <trkpt lat="45.13459" lon="5.90546">
        <ele>1814.4000244141</ele>
        <time>2021-01-06T08:40:45.000Z</time>
      </trkpt>
      <trkpt lat="45.13458" lon="5.90549">
        <ele>1815.5999755859</ele>
        <time>2021-01-06T08:40:49.000Z</time>
      </trkpt>
      <trkpt lat="45.13458" lon="5.9055">
        <ele>1815.8000488281</ele>
        <time>2021-01-06T08:40:50.000Z</time>
      </trkpt>
      <trkpt lat="45.13457" lon="5.90552">
        <ele>1816.5999755859</ele>
        <time>2021-01-06T08:40:53.000Z</time>
      </trkpt>
      <trkpt lat="45.13462" lon="5.90561">
        <ele>1817.8000488281</ele>
        <time>2021-01-06T08:40:58.000Z</time>
      </trkpt>
      <trkpt lat="45.13461" lon="5.90561">
        <ele>1818.4000244141</ele>
        <time>2021-01-06T08:41:00.000Z</time>
      </trkpt>
      <trkpt lat="45.13461" lon="5.90561">
        <ele>1819</ele>
        <time>2021-01-06T08:41:02.000Z</time>
      </trkpt>
      <trkpt lat="45.13462" lon="5.90558">
        <ele>1819.1999511719</ele>
        <time>2021-01-06T08:41:03.000Z</time>
      </trkpt>
      <trkpt lat="45.13462" lon="5.90557">
        <ele>1819.4000244141</ele>
        <time>2021-01-06T08:41:05.000Z</time>
      </trkpt>
      <trkpt lat="45.13463" lon="5.90556">
        <ele>1817.8000488281</ele>
        <time>2021-01-06T08:41:10.000Z</time>
      </trkpt>
      <trkpt lat="45.13463" lon="5.90556">
        <ele>1817.1999511719</ele>
        <time>2021-01-06T08:41:13.000Z</time>
      </trkpt>
      <trkpt lat="45.13462" lon="5.90558">
        <ele>1817.5999755859</ele>
        <time>2021-01-06T08:41:18.000Z</time>
      </trkpt>
      <trkpt lat="45.13462" lon="5.90558">
        <ele>1818.8000488281</ele>
        <time>2021-01-06T08:41:26.000Z</time>
      </trkpt>
      <trkpt lat="45.13462" lon="5.90558">
        <ele>1819</ele>
        <time>2021-01-06T08:41:35.000Z</time>
      </trkpt>
      <trkpt lat="45.13459" lon="5.9056">
        <ele>1819.5999755859</ele>
        <time>2021-01-06T08:41:43.000Z</time>
      </trkpt>
      <trkpt lat="45.13458" lon="5.90561">
        <ele>1819.8000488281</ele>
        <time>2021-01-06T08:41:45.000Z</time>
      </trkpt>
      <trkpt lat="45.13458" lon="5.90565">
        <ele>1820.8000488281</ele>
        <time>2021-01-06T08:41:50.000Z</time>
      </trkpt>
      <trkpt lat="45.13458" lon="5.90565">
        <ele>1821.1999511719</ele>
        <time>2021-01-06T08:41:51.000Z</time>
      </trkpt>
      <trkpt lat="45.13457" lon="5.90569">
        <ele>1822.4000244141</ele>
        <time>2021-01-06T08:41:55.000Z</time>
      </trkpt>
      <trkpt lat="45.13457" lon="5.90569">
        <ele>1822.5999755859</ele>
        <time>2021-01-06T08:41:56.000Z</time>
      </trkpt>
      <trkpt lat="45.13456" lon="5.90572">
        <ele>1823.5999755859</ele>
        <time>2021-01-06T08:42:00.000Z</time>
      </trkpt>
      <trkpt lat="45.13454" lon="5.90575">
        <ele>1824.5999755859</ele>
        <time>2021-01-06T08:42:03.000Z</time>
      </trkpt>
      <trkpt lat="45.13453" lon="5.90577">
        <ele>1825.5999755859</ele>
        <time>2021-01-06T08:42:08.000Z</time>
      </trkpt>
      <trkpt lat="45.13451" lon="5.9058">
        <ele>1826.8000488281</ele>
        <time>2021-01-06T08:42:13.000Z</time>
      </trkpt>
      <trkpt lat="45.13451" lon="5.90583">
        <ele>1827</ele>
        <time>2021-01-06T08:42:15.000Z</time>
      </trkpt>
      <trkpt lat="45.13449" lon="5.90588">
        <ele>1828</ele>
        <time>2021-01-06T08:42:19.000Z</time>
      </trkpt>
      <trkpt lat="45.13449" lon="5.90588">
        <ele>1828</ele>
        <time>2021-01-06T08:42:20.000Z</time>
      </trkpt>
      <trkpt lat="45.13447" lon="5.90594">
        <ele>1829.1999511719</ele>
        <time>2021-01-06T08:42:25.000Z</time>
      </trkpt>
      <trkpt lat="45.13446" lon="5.90595">
        <ele>1829.4000244141</ele>
        <time>2021-01-06T08:42:26.000Z</time>
      </trkpt>
      <trkpt lat="45.13445" lon="5.90603">
        <ele>1830.1999511719</ele>
        <time>2021-01-06T08:42:32.000Z</time>
      </trkpt>
      <trkpt lat="45.13444" lon="5.90606">
        <ele>1830.5999755859</ele>
        <time>2021-01-06T08:42:35.000Z</time>
      </trkpt>
      <trkpt lat="45.13443" lon="5.90611">
        <ele>1831.4000244141</ele>
        <time>2021-01-06T08:42:39.000Z</time>
      </trkpt>
      <trkpt lat="45.13443" lon="5.90614">
        <ele>1831.8000488281</ele>
        <time>2021-01-06T08:42:41.000Z</time>
      </trkpt>
      <trkpt lat="45.13442" lon="5.90617">
        <ele>1832.4000244141</ele>
        <time>2021-01-06T08:42:44.000Z</time>
      </trkpt>
      <trkpt lat="45.1344" lon="5.9062">
        <ele>1833</ele>
        <time>2021-01-06T08:42:46.000Z</time>
      </trkpt>
      <trkpt lat="45.13439" lon="5.90622">
        <ele>1833.5999755859</ele>
        <time>2021-01-06T08:42:48.000Z</time>
      </trkpt>
      <trkpt lat="45.13438" lon="5.90623">
        <ele>1834.1999511719</ele>
        <time>2021-01-06T08:42:49.000Z</time>
      </trkpt>
      <trkpt lat="45.13437" lon="5.90627">
        <ele>1834.8000488281</ele>
        <time>2021-01-06T08:42:52.000Z</time>
      </trkpt>
      <trkpt lat="45.13435" lon="5.90634">
        <ele>1835.8000488281</ele>
        <time>2021-01-06T08:42:57.000Z</time>
      </trkpt>
      <trkpt lat="45.13435" lon="5.90634">
        <ele>1836</ele>
        <time>2021-01-06T08:42:58.000Z</time>
      </trkpt>
      <trkpt lat="45.13433" lon="5.90638">
        <ele>1837.1999511719</ele>
        <time>2021-01-06T08:43:03.000Z</time>
      </trkpt>
      <trkpt lat="45.13431" lon="5.90642">
        <ele>1838.1999511719</ele>
        <time>2021-01-06T08:43:08.000Z</time>
      </trkpt>
      <trkpt lat="45.13431" lon="5.90643">
        <ele>1838.5999755859</ele>
        <time>2021-01-06T08:43:10.000Z</time>
      </trkpt>
      <trkpt lat="45.1343" lon="5.90649">
        <ele>1839.4000244141</ele>
        <time>2021-01-06T08:43:14.000Z</time>
      </trkpt>
      <trkpt lat="45.1343" lon="5.90651">
        <ele>1840</ele>
        <time>2021-01-06T08:43:16.000Z</time>
      </trkpt>
      <trkpt lat="45.13429" lon="5.90653">
        <ele>1840.4000244141</ele>
        <time>2021-01-06T08:43:18.000Z</time>
      </trkpt>
      <trkpt lat="45.1343" lon="5.9066">
        <ele>1841.5999755859</ele>
        <time>2021-01-06T08:43:23.000Z</time>
      </trkpt>
      <trkpt lat="45.1343" lon="5.90665">
        <ele>1842.8000488281</ele>
        <time>2021-01-06T08:43:28.000Z</time>
      </trkpt>
      <trkpt lat="45.1343" lon="5.90666">
        <ele>1843</ele>
        <time>2021-01-06T08:43:29.000Z</time>
      </trkpt>
      <trkpt lat="45.13431" lon="5.90669">
        <ele>1844</ele>
        <time>2021-01-06T08:43:34.000Z</time>
      </trkpt>
      <trkpt lat="45.13431" lon="5.90671">
        <ele>1844.1999511719</ele>
        <time>2021-01-06T08:43:36.000Z</time>
      </trkpt>
      <trkpt lat="45.13432" lon="5.90674">
        <ele>1845.1999511719</ele>
        <time>2021-01-06T08:43:39.000Z</time>
      </trkpt>
      <trkpt lat="45.13433" lon="5.90676">
        <ele>1846.1999511719</ele>
        <time>2021-01-06T08:43:44.000Z</time>
      </trkpt>
      <trkpt lat="45.13433" lon="5.90677">
        <ele>1847.1999511719</ele>
        <time>2021-01-06T08:43:49.000Z</time>
      </trkpt>
      <trkpt lat="45.13433" lon="5.90678">
        <ele>1847.8000488281</ele>
        <time>2021-01-06T08:43:52.000Z</time>
      </trkpt>
      <trkpt lat="45.13433" lon="5.9068">
        <ele>1848.4000244141</ele>
        <time>2021-01-06T08:43:57.000Z</time>
      </trkpt>
      <trkpt lat="45.13434" lon="5.90682">
        <ele>1848.8000488281</ele>
        <time>2021-01-06T08:44:00.000Z</time>
      </trkpt>
      <trkpt lat="45.13433" lon="5.90685">
        <ele>1849.5999755859</ele>
        <time>2021-01-06T08:44:03.000Z</time>
      </trkpt>
      <trkpt lat="45.13434" lon="5.90689">
        <ele>1850</ele>
        <time>2021-01-06T08:44:06.000Z</time>
      </trkpt>
      <trkpt lat="45.13434" lon="5.90692">
        <ele>1850.8000488281</ele>
        <time>2021-01-06T08:44:09.000Z</time>
      </trkpt>
      <trkpt lat="45.13434" lon="5.90695">
        <ele>1851.5999755859</ele>
        <time>2021-01-06T08:44:12.000Z</time>
      </trkpt>
      <trkpt lat="45.13434" lon="5.90696">
        <ele>1852</ele>
        <time>2021-01-06T08:44:13.000Z</time>
      </trkpt>
      <trkpt lat="45.13435" lon="5.907">
        <ele>1853.1999511719</ele>
        <time>2021-01-06T08:44:18.000Z</time>
      </trkpt>
      <trkpt lat="45.13435" lon="5.90701">
        <ele>1853.4000244141</ele>
        <time>2021-01-06T08:44:19.000Z</time>
      </trkpt>
      <trkpt lat="45.13435" lon="5.90704">
        <ele>1854.1999511719</ele>
        <time>2021-01-06T08:44:22.000Z</time>
      </trkpt>
      <trkpt lat="45.13435" lon="5.90706">
        <ele>1855.1999511719</ele>
        <time>2021-01-06T08:44:25.000Z</time>
      </trkpt>
      <trkpt lat="45.13436" lon="5.90708">
        <ele>1855.5999755859</ele>
        <time>2021-01-06T08:44:26.000Z</time>
      </trkpt>
      <trkpt lat="45.13438" lon="5.90712">
        <ele>1856.4000244141</ele>
        <time>2021-01-06T08:44:30.000Z</time>
      </trkpt>
      <trkpt lat="45.13439" lon="5.90715">
        <ele>1856.8000488281</ele>
        <time>2021-01-06T08:44:32.000Z</time>
      </trkpt>
      <trkpt lat="45.13439" lon="5.90719">
        <ele>1857.5999755859</ele>
        <time>2021-01-06T08:44:36.000Z</time>
      </trkpt>
      <trkpt lat="45.1344" lon="5.90722">
        <ele>1858.1999511719</ele>
        <time>2021-01-06T08:44:39.000Z</time>
      </trkpt>
      <trkpt lat="45.1344" lon="5.90722">
        <ele>1858.5999755859</ele>
        <time>2021-01-06T08:44:42.000Z</time>
      </trkpt>
      <trkpt lat="45.1344" lon="5.90722">
        <ele>1859</ele>
        <time>2021-01-06T08:44:47.000Z</time>
      </trkpt>
      <trkpt lat="45.1344" lon="5.90722">
        <ele>1859</ele>
        <time>2021-01-06T08:44:55.000Z</time>
      </trkpt>
      <trkpt lat="45.13439" lon="5.90726">
        <ele>1859</ele>
        <time>2021-01-06T08:45:00.000Z</time>
      </trkpt>
      <trkpt lat="45.13454" lon="5.90724">
        <ele>1858.5999755859</ele>
        <time>2021-01-06T08:45:07.000Z</time>
      </trkpt>
      <trkpt lat="45.13455" lon="5.90722">
        <ele>1856.5999755859</ele>
        <time>2021-01-06T08:45:13.000Z</time>
      </trkpt>
      <trkpt lat="45.13456" lon="5.90722">
        <ele>1857.1999511719</ele>
        <time>2021-01-06T08:45:17.000Z</time>
      </trkpt>
      <trkpt lat="45.13456" lon="5.90721">
        <ele>1858.1999511719</ele>
        <time>2021-01-06T08:45:18.000Z</time>
      </trkpt>
      <trkpt lat="45.13458" lon="5.90719">
        <ele>1859</ele>
        <time>2021-01-06T08:45:25.000Z</time>
      </trkpt>
      <trkpt lat="45.13462" lon="5.90718">
        <ele>1859</ele>
        <time>2021-01-06T08:45:36.000Z</time>
      </trkpt>
      <trkpt lat="45.13462" lon="5.90719">
        <ele>1859</ele>
        <time>2021-01-06T08:45:47.000Z</time>
      </trkpt>
      <trkpt lat="45.13462" lon="5.9072">
        <ele>1859</ele>
        <time>2021-01-06T08:45:59.000Z</time>
      </trkpt>
      <trkpt lat="45.13462" lon="5.90725">
        <ele>1859</ele>
        <time>2021-01-06T08:46:05.000Z</time>
      </trkpt>
      <trkpt lat="45.13463" lon="5.90728">
        <ele>1859.1999511719</ele>
        <time>2021-01-06T08:46:08.000Z</time>
      </trkpt>
      <trkpt lat="45.13463" lon="5.90731">
        <ele>1859.8000488281</ele>
        <time>2021-01-06T08:46:11.000Z</time>
      </trkpt>
      <trkpt lat="45.13462" lon="5.90733">
        <ele>1860.4000244141</ele>
        <time>2021-01-06T08:46:14.000Z</time>
      </trkpt>
      <trkpt lat="45.13462" lon="5.90735">
        <ele>1860.8000488281</ele>
        <time>2021-01-06T08:46:16.000Z</time>
      </trkpt>
      <trkpt lat="45.13463" lon="5.90735">
        <ele>1861</ele>
        <time>2021-01-06T08:46:17.000Z</time>
      </trkpt>
      <trkpt lat="45.13461" lon="5.90738">
        <ele>1861.4000244141</ele>
        <time>2021-01-06T08:46:19.000Z</time>
      </trkpt>
      <trkpt lat="45.1346" lon="5.90741">
        <ele>1862.1999511719</ele>
        <time>2021-01-06T08:46:23.000Z</time>
      </trkpt>
      <trkpt lat="45.13459" lon="5.90742">
        <ele>1862.8000488281</ele>
        <time>2021-01-06T08:46:25.000Z</time>
      </trkpt>
      <trkpt lat="45.13455" lon="5.90746">
        <ele>1863.8000488281</ele>
        <time>2021-01-06T08:46:29.000Z</time>
      </trkpt>
      <trkpt lat="45.13455" lon="5.90746">
        <ele>1864</ele>
        <time>2021-01-06T08:46:30.000Z</time>
      </trkpt>
      <trkpt lat="45.13453" lon="5.90752">
        <ele>1864.8000488281</ele>
        <time>2021-01-06T08:46:34.000Z</time>
      </trkpt>
      <trkpt lat="45.13452" lon="5.90755">
        <ele>1865.4000244141</ele>
        <time>2021-01-06T08:46:37.000Z</time>
      </trkpt>
      <trkpt lat="45.13451" lon="5.90758">
        <ele>1866</ele>
        <time>2021-01-06T08:46:40.000Z</time>
      </trkpt>
      <trkpt lat="45.13451" lon="5.90762">
        <ele>1866.8000488281</ele>
        <time>2021-01-06T08:46:43.000Z</time>
      </trkpt>
      <trkpt lat="45.13451" lon="5.90765">
        <ele>1867.1999511719</ele>
        <time>2021-01-06T08:46:45.000Z</time>
      </trkpt>
      <trkpt lat="45.1345" lon="5.90769">
        <ele>1868.4000244141</ele>
        <time>2021-01-06T08:46:49.000Z</time>
      </trkpt>
      <trkpt lat="45.1345" lon="5.90775">
        <ele>1869.4000244141</ele>
        <time>2021-01-06T08:46:53.000Z</time>
      </trkpt>
      <trkpt lat="45.1345" lon="5.90779">
        <ele>1870.1999511719</ele>
        <time>2021-01-06T08:46:57.000Z</time>
      </trkpt>
      <trkpt lat="45.13449" lon="5.9078">
        <ele>1870.4000244141</ele>
        <time>2021-01-06T08:46:58.000Z</time>
      </trkpt>
      <trkpt lat="45.13449" lon="5.90783">
        <ele>1871.4000244141</ele>
        <time>2021-01-06T08:47:02.000Z</time>
      </trkpt>
      <trkpt lat="45.13449" lon="5.90784">
        <ele>1871.8000488281</ele>
        <time>2021-01-06T08:47:03.000Z</time>
      </trkpt>
      <trkpt lat="45.13448" lon="5.9079">
        <ele>1873</ele>
        <time>2021-01-06T08:47:08.000Z</time>
      </trkpt>
      <trkpt lat="45.13447" lon="5.90795">
        <ele>1874.4000244141</ele>
        <time>2021-01-06T08:47:13.000Z</time>
      </trkpt>
      <trkpt lat="45.13447" lon="5.90795">
        <ele>1874.5999755859</ele>
        <time>2021-01-06T08:47:14.000Z</time>
      </trkpt>
      <trkpt lat="45.13447" lon="5.90799">
        <ele>1875.5999755859</ele>
        <time>2021-01-06T08:47:17.000Z</time>
      </trkpt>
      <trkpt lat="45.13447" lon="5.90802">
        <ele>1876.4000244141</ele>
        <time>2021-01-06T08:47:21.000Z</time>
      </trkpt>
      <trkpt lat="45.13447" lon="5.90803">
        <ele>1876.8000488281</ele>
        <time>2021-01-06T08:47:22.000Z</time>
      </trkpt>
      <trkpt lat="45.13446" lon="5.90807">
        <ele>1877.8000488281</ele>
        <time>2021-01-06T08:47:27.000Z</time>
      </trkpt>
      <trkpt lat="45.13446" lon="5.90813">
        <ele>1878.8000488281</ele>
        <time>2021-01-06T08:47:32.000Z</time>
      </trkpt>
      <trkpt lat="45.13446" lon="5.90813">
        <ele>1879.4000244141</ele>
        <time>2021-01-06T08:47:34.000Z</time>
      </trkpt>
      <trkpt lat="45.13445" lon="5.90816">
        <ele>1880</ele>
        <time>2021-01-06T08:47:37.000Z</time>
      </trkpt>
      <trkpt lat="45.13444" lon="5.9082">
        <ele>1881</ele>
        <time>2021-01-06T08:47:41.000Z</time>
      </trkpt>
      <trkpt lat="45.13444" lon="5.90821">
        <ele>1881.1999511719</ele>
        <time>2021-01-06T08:47:42.000Z</time>
      </trkpt>
      <trkpt lat="45.13444" lon="5.90825">
        <ele>1881.8000488281</ele>
        <time>2021-01-06T08:47:45.000Z</time>
      </trkpt>
      <trkpt lat="45.13443" lon="5.90828">
        <ele>1882.1999511719</ele>
        <time>2021-01-06T08:47:47.000Z</time>
      </trkpt>
      <trkpt lat="45.13443" lon="5.90835">
        <ele>1883.4000244141</ele>
        <time>2021-01-06T08:47:53.000Z</time>
      </trkpt>
      <trkpt lat="45.13443" lon="5.90836">
        <ele>1883.5999755859</ele>
        <time>2021-01-06T08:47:54.000Z</time>
      </trkpt>
      <trkpt lat="45.13443" lon="5.90841">
        <ele>1884.5999755859</ele>
        <time>2021-01-06T08:47:58.000Z</time>
      </trkpt>
      <trkpt lat="45.13441" lon="5.90843">
        <ele>1885</ele>
        <time>2021-01-06T08:48:00.000Z</time>
      </trkpt>
      <trkpt lat="45.1344" lon="5.90846">
        <ele>1885.5999755859</ele>
        <time>2021-01-06T08:48:03.000Z</time>
      </trkpt>
      <trkpt lat="45.13439" lon="5.90847">
        <ele>1886</ele>
        <time>2021-01-06T08:48:05.000Z</time>
      </trkpt>
      <trkpt lat="45.13439" lon="5.90848">
        <ele>1886.1999511719</ele>
        <time>2021-01-06T08:48:06.000Z</time>
      </trkpt>
      <trkpt lat="45.13437" lon="5.9085">
        <ele>1886.5999755859</ele>
        <time>2021-01-06T08:48:08.000Z</time>
      </trkpt>
      <trkpt lat="45.13437" lon="5.90851">
        <ele>1886.8000488281</ele>
        <time>2021-01-06T08:48:09.000Z</time>
      </trkpt>
      <trkpt lat="45.13435" lon="5.90854">
        <ele>1887.8000488281</ele>
        <time>2021-01-06T08:48:14.000Z</time>
      </trkpt>
      <trkpt lat="45.13432" lon="5.9086">
        <ele>1889</ele>
        <time>2021-01-06T08:48:20.000Z</time>
      </trkpt>
      <trkpt lat="45.1343" lon="5.90864">
        <ele>1889.5999755859</ele>
        <time>2021-01-06T08:48:24.000Z</time>
      </trkpt>
      <trkpt lat="45.1343" lon="5.90867">
        <ele>1890</ele>
        <time>2021-01-06T08:48:26.000Z</time>
      </trkpt>
      <trkpt lat="45.13429" lon="5.90867">
        <ele>1890.1999511719</ele>
        <time>2021-01-06T08:48:27.000Z</time>
      </trkpt>
      <trkpt lat="45.13427" lon="5.90868">
        <ele>1890.5999755859</ele>
        <time>2021-01-06T08:48:30.000Z</time>
      </trkpt>
      <trkpt lat="45.13427" lon="5.9087">
        <ele>1891</ele>
        <time>2021-01-06T08:48:33.000Z</time>
      </trkpt>
      <trkpt lat="45.13431" lon="5.90875">
        <ele>1892.1999511719</ele>
        <time>2021-01-06T08:48:38.000Z</time>
      </trkpt>
      <trkpt lat="45.13431" lon="5.90876">
        <ele>1892.4000244141</ele>
        <time>2021-01-06T08:48:39.000Z</time>
      </trkpt>
      <trkpt lat="45.13434" lon="5.90879">
        <ele>1893.1999511719</ele>
        <time>2021-01-06T08:48:45.000Z</time>
      </trkpt>
      <trkpt lat="45.13435" lon="5.90879">
        <ele>1893.4000244141</ele>
        <time>2021-01-06T08:48:46.000Z</time>
      </trkpt>
      <trkpt lat="45.13438" lon="5.90881">
        <ele>1894.4000244141</ele>
        <time>2021-01-06T08:48:50.000Z</time>
      </trkpt>
      <trkpt lat="45.13438" lon="5.90881">
        <ele>1894.5999755859</ele>
        <time>2021-01-06T08:48:51.000Z</time>
      </trkpt>
      <trkpt lat="45.13441" lon="5.90882">
        <ele>1895.4000244141</ele>
        <time>2021-01-06T08:48:55.000Z</time>
      </trkpt>
      <trkpt lat="45.13442" lon="5.90883">
        <ele>1896.1999511719</ele>
        <time>2021-01-06T08:48:58.000Z</time>
      </trkpt>
      <trkpt lat="45.13442" lon="5.90883">
        <ele>1896.5999755859</ele>
        <time>2021-01-06T08:49:00.000Z</time>
      </trkpt>
      <trkpt lat="45.13442" lon="5.90885">
        <ele>1897.1999511719</ele>
        <time>2021-01-06T08:49:02.000Z</time>
      </trkpt>
      <trkpt lat="45.13443" lon="5.90885">
        <ele>1897.5999755859</ele>
        <time>2021-01-06T08:49:04.000Z</time>
      </trkpt>
      <trkpt lat="45.13443" lon="5.90886">
        <ele>1898</ele>
        <time>2021-01-06T08:49:05.000Z</time>
      </trkpt>
      <trkpt lat="45.13443" lon="5.90889">
        <ele>1898.8000488281</ele>
        <time>2021-01-06T08:49:09.000Z</time>
      </trkpt>
      <trkpt lat="45.13442" lon="5.9089">
        <ele>1899.4000244141</ele>
        <time>2021-01-06T08:49:11.000Z</time>
      </trkpt>
      <trkpt lat="45.13443" lon="5.90892">
        <ele>1900.4000244141</ele>
        <time>2021-01-06T08:49:14.000Z</time>
      </trkpt>
      <trkpt lat="45.13443" lon="5.90896">
        <ele>1901.4000244141</ele>
        <time>2021-01-06T08:49:18.000Z</time>
      </trkpt>
      <trkpt lat="45.13443" lon="5.909">
        <ele>1902.5999755859</ele>
        <time>2021-01-06T08:49:23.000Z</time>
      </trkpt>
      <trkpt lat="45.13442" lon="5.90901">
        <ele>1902.8000488281</ele>
        <time>2021-01-06T08:49:24.000Z</time>
      </trkpt>
      <trkpt lat="45.13441" lon="5.90903">
        <ele>1903.5999755859</ele>
        <time>2021-01-06T08:49:27.000Z</time>
      </trkpt>
      <trkpt lat="45.13439" lon="5.90906">
        <ele>1904.1999511719</ele>
        <time>2021-01-06T08:49:30.000Z</time>
      </trkpt>
      <trkpt lat="45.13437" lon="5.90909">
        <ele>1904.8000488281</ele>
        <time>2021-01-06T08:49:33.000Z</time>
      </trkpt>
      <trkpt lat="45.13433" lon="5.90912">
        <ele>1905.4000244141</ele>
        <time>2021-01-06T08:49:38.000Z</time>
      </trkpt>
      <trkpt lat="45.1343" lon="5.90914">
        <ele>1905.8000488281</ele>
        <time>2021-01-06T08:49:42.000Z</time>
      </trkpt>
      <trkpt lat="45.13425" lon="5.90915">
        <ele>1906.4000244141</ele>
        <time>2021-01-06T08:49:47.000Z</time>
      </trkpt>
      <trkpt lat="45.13422" lon="5.90916">
        <ele>1907</ele>
        <time>2021-01-06T08:49:51.000Z</time>
      </trkpt>
      <trkpt lat="45.1342" lon="5.90918">
        <ele>1907.1999511719</ele>
        <time>2021-01-06T08:49:53.000Z</time>
      </trkpt>
      <trkpt lat="45.13419" lon="5.90918">
        <ele>1907.4000244141</ele>
        <time>2021-01-06T08:49:54.000Z</time>
      </trkpt>
      <trkpt lat="45.13417" lon="5.90921">
        <ele>1908</ele>
        <time>2021-01-06T08:49:58.000Z</time>
      </trkpt>
      <trkpt lat="45.13417" lon="5.90923">
        <ele>1908.5999755859</ele>
        <time>2021-01-06T08:50:01.000Z</time>
      </trkpt>
      <trkpt lat="45.13417" lon="5.90925">
        <ele>1909.1999511719</ele>
        <time>2021-01-06T08:50:02.000Z</time>
      </trkpt>
      <trkpt lat="45.13417" lon="5.90926">
        <ele>1909.4000244141</ele>
        <time>2021-01-06T08:50:03.000Z</time>
      </trkpt>
      <trkpt lat="45.13418" lon="5.90931">
        <ele>1910.4000244141</ele>
        <time>2021-01-06T08:50:07.000Z</time>
      </trkpt>
      <trkpt lat="45.13418" lon="5.90932">
        <ele>1910.5999755859</ele>
        <time>2021-01-06T08:50:08.000Z</time>
      </trkpt>
      <trkpt lat="45.1342" lon="5.90935">
        <ele>1911.4000244141</ele>
        <time>2021-01-06T08:50:12.000Z</time>
      </trkpt>
      <trkpt lat="45.1342" lon="5.90937">
        <ele>1912</ele>
        <time>2021-01-06T08:50:14.000Z</time>
      </trkpt>
      <trkpt lat="45.13421" lon="5.90941">
        <ele>1912.5999755859</ele>
        <time>2021-01-06T08:50:17.000Z</time>
      </trkpt>
      <trkpt lat="45.13422" lon="5.90944">
        <ele>1913</ele>
        <time>2021-01-06T08:50:20.000Z</time>
      </trkpt>
      <trkpt lat="45.13424" lon="5.90947">
        <ele>1913.8000488281</ele>
        <time>2021-01-06T08:50:24.000Z</time>
      </trkpt>
      <trkpt lat="45.13424" lon="5.90947">
        <ele>1913.8000488281</ele>
        <time>2021-01-06T08:50:25.000Z</time>
      </trkpt>
      <trkpt lat="45.13429" lon="5.90949">
        <ele>1914.8000488281</ele>
        <time>2021-01-06T08:50:29.000Z</time>
      </trkpt>
      <trkpt lat="45.1343" lon="5.9095">
        <ele>1915</ele>
        <time>2021-01-06T08:50:30.000Z</time>
      </trkpt>
      <trkpt lat="45.13432" lon="5.90951">
        <ele>1915.4000244141</ele>
        <time>2021-01-06T08:50:32.000Z</time>
      </trkpt>
      <trkpt lat="45.13434" lon="5.90952">
        <ele>1915.5999755859</ele>
        <time>2021-01-06T08:50:34.000Z</time>
      </trkpt>
      <trkpt lat="45.13436" lon="5.90954">
        <ele>1915.8000488281</ele>
        <time>2021-01-06T08:50:36.000Z</time>
      </trkpt>
      <trkpt lat="45.1344" lon="5.90955">
        <ele>1916.1999511719</ele>
        <time>2021-01-06T08:50:39.000Z</time>
      </trkpt>
      <trkpt lat="45.13444" lon="5.90955">
        <ele>1916.8000488281</ele>
        <time>2021-01-06T08:50:43.000Z</time>
      </trkpt>
      <trkpt lat="45.13448" lon="5.90956">
        <ele>1917.1999511719</ele>
        <time>2021-01-06T08:50:46.000Z</time>
      </trkpt>
      <trkpt lat="45.13453" lon="5.90961">
        <ele>1917.8000488281</ele>
        <time>2021-01-06T08:50:52.000Z</time>
      </trkpt>
      <trkpt lat="45.13453" lon="5.90961">
        <ele>1917.8000488281</ele>
        <time>2021-01-06T08:50:53.000Z</time>
      </trkpt>
      <trkpt lat="45.13457" lon="5.90966">
        <ele>1918</ele>
        <time>2021-01-06T08:50:58.000Z</time>
      </trkpt>
      <trkpt lat="45.13463" lon="5.90971">
        <ele>1918.5999755859</ele>
        <time>2021-01-06T08:51:05.000Z</time>
      </trkpt>
      <trkpt lat="45.13466" lon="5.90974">
        <ele>1919</ele>
        <time>2021-01-06T08:51:08.000Z</time>
      </trkpt>
      <trkpt lat="45.13467" lon="5.90977">
        <ele>1919.4000244141</ele>
        <time>2021-01-06T08:51:12.000Z</time>
      </trkpt>
      <trkpt lat="45.13468" lon="5.90977">
        <ele>1920</ele>
        <time>2021-01-06T08:51:15.000Z</time>
      </trkpt>
      <trkpt lat="45.13468" lon="5.90978">
        <ele>1920.8000488281</ele>
        <time>2021-01-06T08:51:18.000Z</time>
      </trkpt>
      <trkpt lat="45.13468" lon="5.90978">
        <ele>1921.1999511719</ele>
        <time>2021-01-06T08:51:19.000Z</time>
      </trkpt>
      <trkpt lat="45.13467" lon="5.90982">
        <ele>1922.1999511719</ele>
        <time>2021-01-06T08:51:23.000Z</time>
      </trkpt>
      <trkpt lat="45.13466" lon="5.90982">
        <ele>1922.5999755859</ele>
        <time>2021-01-06T08:51:24.000Z</time>
      </trkpt>
      <trkpt lat="45.13465" lon="5.90983">
        <ele>1922.8000488281</ele>
        <time>2021-01-06T08:51:25.000Z</time>
      </trkpt>
      <trkpt lat="45.13466" lon="5.90985">
        <ele>1923.4000244141</ele>
        <time>2021-01-06T08:51:27.000Z</time>
      </trkpt>
      <trkpt lat="45.13465" lon="5.9099">
        <ele>1924.5999755859</ele>
        <time>2021-01-06T08:51:31.000Z</time>
      </trkpt>
      <trkpt lat="45.13466" lon="5.90994">
        <ele>1925.8000488281</ele>
        <time>2021-01-06T08:51:36.000Z</time>
      </trkpt>
      <trkpt lat="45.13466" lon="5.90994">
        <ele>1926</ele>
        <time>2021-01-06T08:51:37.000Z</time>
      </trkpt>
      <trkpt lat="45.13467" lon="5.90997">
        <ele>1927</ele>
        <time>2021-01-06T08:51:40.000Z</time>
      </trkpt>
      <trkpt lat="45.13468" lon="5.90999">
        <ele>1927.5999755859</ele>
        <time>2021-01-06T08:51:42.000Z</time>
      </trkpt>
      <trkpt lat="45.13468" lon="5.91">
        <ele>1928.1999511719</ele>
        <time>2021-01-06T08:51:44.000Z</time>
      </trkpt>
      <trkpt lat="45.13467" lon="5.91002">
        <ele>1929.1999511719</ele>
        <time>2021-01-06T08:51:48.000Z</time>
      </trkpt>
      <trkpt lat="45.13466" lon="5.91002">
        <ele>1929.5999755859</ele>
        <time>2021-01-06T08:51:49.000Z</time>
      </trkpt>
      <trkpt lat="45.13466" lon="5.91006">
        <ele>1930.5999755859</ele>
        <time>2021-01-06T08:51:53.000Z</time>
      </trkpt>
      <trkpt lat="45.13465" lon="5.91009">
        <ele>1931.1999511719</ele>
        <time>2021-01-06T08:51:56.000Z</time>
      </trkpt>
      <trkpt lat="45.13464" lon="5.91011">
        <ele>1931.5999755859</ele>
        <time>2021-01-06T08:51:58.000Z</time>
      </trkpt>
      <trkpt lat="45.13465" lon="5.91015">
        <ele>1932.8000488281</ele>
        <time>2021-01-06T08:52:02.000Z</time>
      </trkpt>
      <trkpt lat="45.13465" lon="5.91017">
        <ele>1933</ele>
        <time>2021-01-06T08:52:03.000Z</time>
      </trkpt>
      <trkpt lat="45.13466" lon="5.91023">
        <ele>1934</ele>
        <time>2021-01-06T08:52:08.000Z</time>
      </trkpt>
      <trkpt lat="45.13466" lon="5.91024">
        <ele>1934.1999511719</ele>
        <time>2021-01-06T08:52:09.000Z</time>
      </trkpt>
      <trkpt lat="45.13468" lon="5.91029">
        <ele>1935</ele>
        <time>2021-01-06T08:52:14.000Z</time>
      </trkpt>
      <trkpt lat="45.13469" lon="5.91032">
        <ele>1935.4000244141</ele>
        <time>2021-01-06T08:52:17.000Z</time>
      </trkpt>
      <trkpt lat="45.13472" lon="5.91035">
        <ele>1936.1999511719</ele>
        <time>2021-01-06T08:52:21.000Z</time>
      </trkpt>
      <trkpt lat="45.13473" lon="5.91036">
        <ele>1936.4000244141</ele>
        <time>2021-01-06T08:52:22.000Z</time>
      </trkpt>
      <trkpt lat="45.13473" lon="5.91038">
        <ele>1936.8000488281</ele>
        <time>2021-01-06T08:52:24.000Z</time>
      </trkpt>
      <trkpt lat="45.13474" lon="5.9104">
        <ele>1937.5999755859</ele>
        <time>2021-01-06T08:52:26.000Z</time>
      </trkpt>
      <trkpt lat="45.13476" lon="5.91044">
        <ele>1938.1999511719</ele>
        <time>2021-01-06T08:52:30.000Z</time>
      </trkpt>
      <trkpt lat="45.13477" lon="5.91045">
        <ele>1938.4000244141</ele>
        <time>2021-01-06T08:52:31.000Z</time>
      </trkpt>
      <trkpt lat="45.13477" lon="5.91046">
        <ele>1938.5999755859</ele>
        <time>2021-01-06T08:52:32.000Z</time>
      </trkpt>
      <trkpt lat="45.1348" lon="5.91049">
        <ele>1939.8000488281</ele>
        <time>2021-01-06T08:52:37.000Z</time>
      </trkpt>
      <trkpt lat="45.1348" lon="5.9105">
        <ele>1940</ele>
        <time>2021-01-06T08:52:38.000Z</time>
      </trkpt>
      <trkpt lat="45.13482" lon="5.91055">
        <ele>1941</ele>
        <time>2021-01-06T08:52:43.000Z</time>
      </trkpt>
      <trkpt lat="45.13483" lon="5.91056">
        <ele>1941.4000244141</ele>
        <time>2021-01-06T08:52:45.000Z</time>
      </trkpt>
      <trkpt lat="45.13485" lon="5.91058">
        <ele>1942</ele>
        <time>2021-01-06T08:52:49.000Z</time>
      </trkpt>
      <trkpt lat="45.13488" lon="5.91061">
        <ele>1942.8000488281</ele>
        <time>2021-01-06T08:52:53.000Z</time>
      </trkpt>
      <trkpt lat="45.1349" lon="5.91062">
        <ele>1943.1999511719</ele>
        <time>2021-01-06T08:52:55.000Z</time>
      </trkpt>
      <trkpt lat="45.13492" lon="5.91065">
        <ele>1944</ele>
        <time>2021-01-06T08:53:00.000Z</time>
      </trkpt>
      <trkpt lat="45.13494" lon="5.91065">
        <ele>1944.1999511719</ele>
        <time>2021-01-06T08:53:02.000Z</time>
      </trkpt>
      <trkpt lat="45.13497" lon="5.91068">
        <ele>1945.1999511719</ele>
        <time>2021-01-06T08:53:08.000Z</time>
      </trkpt>
      <trkpt lat="45.13502" lon="5.91068">
        <ele>1946.5999755859</ele>
        <time>2021-01-06T08:53:14.000Z</time>
      </trkpt>
      <trkpt lat="45.13503" lon="5.91068">
        <ele>1946.8000488281</ele>
        <time>2021-01-06T08:53:15.000Z</time>
      </trkpt>
      <trkpt lat="45.13506" lon="5.91065">
        <ele>1947.5999755859</ele>
        <time>2021-01-06T08:53:20.000Z</time>
      </trkpt>
      <trkpt lat="45.13509" lon="5.91063">
        <ele>1948.8000488281</ele>
        <time>2021-01-06T08:53:26.000Z</time>
      </trkpt>
      <trkpt lat="45.13509" lon="5.91062">
        <ele>1949</ele>
        <time>2021-01-06T08:53:27.000Z</time>
      </trkpt>
      <trkpt lat="45.13511" lon="5.9106">
        <ele>1949.8000488281</ele>
        <time>2021-01-06T08:53:32.000Z</time>
      </trkpt>
      <trkpt lat="45.13514" lon="5.91059">
        <ele>1950.5999755859</ele>
        <time>2021-01-06T08:53:36.000Z</time>
      </trkpt>
      <trkpt lat="45.13514" lon="5.91059">
        <ele>1950.8000488281</ele>
        <time>2021-01-06T08:53:37.000Z</time>
      </trkpt>
      <trkpt lat="45.13516" lon="5.91058">
        <ele>1952</ele>
        <time>2021-01-06T08:53:42.000Z</time>
      </trkpt>
      <trkpt lat="45.13517" lon="5.91058">
        <ele>1952.8000488281</ele>
        <time>2021-01-06T08:53:45.000Z</time>
      </trkpt>
      <trkpt lat="45.13517" lon="5.91058">
        <ele>1953.1999511719</ele>
        <time>2021-01-06T08:53:47.000Z</time>
      </trkpt>
      <trkpt lat="45.13519" lon="5.91057">
        <ele>1953.1999511719</ele>
        <time>2021-01-06T08:53:48.000Z</time>
      </trkpt>
      <trkpt lat="45.1352" lon="5.91061">
        <ele>1954.1999511719</ele>
        <time>2021-01-06T08:53:55.000Z</time>
      </trkpt>
      <trkpt lat="45.13521" lon="5.91065">
        <ele>1955</ele>
        <time>2021-01-06T08:54:01.000Z</time>
      </trkpt>
      <trkpt lat="45.13521" lon="5.91066">
        <ele>1955.5999755859</ele>
        <time>2021-01-06T08:54:02.000Z</time>
      </trkpt>
      <trkpt lat="45.13521" lon="5.91069">
        <ele>1956.1999511719</ele>
        <time>2021-01-06T08:54:05.000Z</time>
      </trkpt>
      <trkpt lat="45.13522" lon="5.9107">
        <ele>1956.8000488281</ele>
        <time>2021-01-06T08:54:07.000Z</time>
      </trkpt>
      <trkpt lat="45.13522" lon="5.91072">
        <ele>1957.1999511719</ele>
        <time>2021-01-06T08:54:09.000Z</time>
      </trkpt>
      <trkpt lat="45.13523" lon="5.91075">
        <ele>1958</ele>
        <time>2021-01-06T08:54:13.000Z</time>
      </trkpt>
      <trkpt lat="45.13523" lon="5.91077">
        <ele>1958.4000244141</ele>
        <time>2021-01-06T08:54:15.000Z</time>
      </trkpt>
      <trkpt lat="45.13524" lon="5.9108">
        <ele>1959</ele>
        <time>2021-01-06T08:54:18.000Z</time>
      </trkpt>
      <trkpt lat="45.13525" lon="5.91082">
        <ele>1959.5999755859</ele>
        <time>2021-01-06T08:54:21.000Z</time>
      </trkpt>
      <trkpt lat="45.13526" lon="5.91084">
        <ele>1960.1999511719</ele>
        <time>2021-01-06T08:54:23.000Z</time>
      </trkpt>
      <trkpt lat="45.13527" lon="5.91087">
        <ele>1961.4000244141</ele>
        <time>2021-01-06T08:54:27.000Z</time>
      </trkpt>
      <trkpt lat="45.13528" lon="5.91091">
        <ele>1962.5999755859</ele>
        <time>2021-01-06T08:54:33.000Z</time>
      </trkpt>
      <trkpt lat="45.13528" lon="5.91091">
        <ele>1963.5999755859</ele>
        <time>2021-01-06T08:54:39.000Z</time>
      </trkpt>
      <trkpt lat="45.13528" lon="5.91091">
        <ele>1963.8000488281</ele>
        <time>2021-01-06T08:54:41.000Z</time>
      </trkpt>
      <trkpt lat="45.13527" lon="5.91092">
        <ele>1964.1999511719</ele>
        <time>2021-01-06T08:54:47.000Z</time>
      </trkpt>
      <trkpt lat="45.13526" lon="5.91093">
        <ele>1964.8000488281</ele>
        <time>2021-01-06T08:54:50.000Z</time>
      </trkpt>
      <trkpt lat="45.13524" lon="5.91096">
        <ele>1965.5999755859</ele>
        <time>2021-01-06T08:54:54.000Z</time>
      </trkpt>
      <trkpt lat="45.13524" lon="5.91096">
        <ele>1965.8000488281</ele>
        <time>2021-01-06T08:54:55.000Z</time>
      </trkpt>
      <trkpt lat="45.13522" lon="5.91099">
        <ele>1966.8000488281</ele>
        <time>2021-01-06T08:55:01.000Z</time>
      </trkpt>
      <trkpt lat="45.13521" lon="5.91102">
        <ele>1967.4000244141</ele>
        <time>2021-01-06T08:55:04.000Z</time>
      </trkpt>
      <trkpt lat="45.13521" lon="5.91105">
        <ele>1968</ele>
        <time>2021-01-06T08:55:07.000Z</time>
      </trkpt>
      <trkpt lat="45.13519" lon="5.91108">
        <ele>1969</ele>
        <time>2021-01-06T08:55:12.000Z</time>
      </trkpt>
      <trkpt lat="45.13519" lon="5.91109">
        <ele>1969.1999511719</ele>
        <time>2021-01-06T08:55:13.000Z</time>
      </trkpt>
      <trkpt lat="45.13519" lon="5.9111">
        <ele>1969.5999755859</ele>
        <time>2021-01-06T08:55:14.000Z</time>
      </trkpt>
      <trkpt lat="45.1352" lon="5.91112">
        <ele>1970</ele>
        <time>2021-01-06T08:55:16.000Z</time>
      </trkpt>
      <trkpt lat="45.13519" lon="5.91114">
        <ele>1970.8000488281</ele>
        <time>2021-01-06T08:55:19.000Z</time>
      </trkpt>
      <trkpt lat="45.13519" lon="5.91116">
        <ele>1971.1999511719</ele>
        <time>2021-01-06T08:55:21.000Z</time>
      </trkpt>
      <trkpt lat="45.13519" lon="5.91119">
        <ele>1972.1999511719</ele>
        <time>2021-01-06T08:55:25.000Z</time>
      </trkpt>
      <trkpt lat="45.13519" lon="5.9112">
        <ele>1972.4000244141</ele>
        <time>2021-01-06T08:55:26.000Z</time>
      </trkpt>
      <trkpt lat="45.13519" lon="5.91123">
        <ele>1973.4000244141</ele>
        <time>2021-01-06T08:55:31.000Z</time>
      </trkpt>
      <trkpt lat="45.13518" lon="5.91124">
        <ele>1974.5999755859</ele>
        <time>2021-01-06T08:55:36.000Z</time>
      </trkpt>
      <trkpt lat="45.13518" lon="5.91124">
        <ele>1975.5999755859</ele>
        <time>2021-01-06T08:55:41.000Z</time>
      </trkpt>
      <trkpt lat="45.13518" lon="5.91124">
        <ele>1976</ele>
        <time>2021-01-06T08:55:43.000Z</time>
      </trkpt>
      <trkpt lat="45.13518" lon="5.91129">
        <ele>1976.8000488281</ele>
        <time>2021-01-06T08:55:47.000Z</time>
      </trkpt>
      <trkpt lat="45.13518" lon="5.91131">
        <ele>1977.1999511719</ele>
        <time>2021-01-06T08:55:49.000Z</time>
      </trkpt>
      <trkpt lat="45.13518" lon="5.91133">
        <ele>1978</ele>
        <time>2021-01-06T08:55:53.000Z</time>
      </trkpt>
      <trkpt lat="45.13518" lon="5.91135">
        <ele>1978.5999755859</ele>
        <time>2021-01-06T08:55:56.000Z</time>
      </trkpt>
      <trkpt lat="45.13517" lon="5.91137">
        <ele>1979</ele>
        <time>2021-01-06T08:55:58.000Z</time>
      </trkpt>
      <trkpt lat="45.13517" lon="5.91139">
        <ele>1979.4000244141</ele>
        <time>2021-01-06T08:56:00.000Z</time>
      </trkpt>
      <trkpt lat="45.13516" lon="5.91139">
        <ele>1980.1999511719</ele>
        <time>2021-01-06T08:56:03.000Z</time>
      </trkpt>
      <trkpt lat="45.13517" lon="5.9114">
        <ele>1980.8000488281</ele>
        <time>2021-01-06T08:56:06.000Z</time>
      </trkpt>
      <trkpt lat="45.13518" lon="5.91142">
        <ele>1981.1999511719</ele>
        <time>2021-01-06T08:56:08.000Z</time>
      </trkpt>
      <trkpt lat="45.13521" lon="5.91147">
        <ele>1982.1999511719</ele>
        <time>2021-01-06T08:56:13.000Z</time>
      </trkpt>
      <trkpt lat="45.13521" lon="5.91149">
        <ele>1982.4000244141</ele>
        <time>2021-01-06T08:56:14.000Z</time>
      </trkpt>
      <trkpt lat="45.13523" lon="5.91153">
        <ele>1983.4000244141</ele>
        <time>2021-01-06T08:56:19.000Z</time>
      </trkpt>
      <trkpt lat="45.13523" lon="5.91153">
        <ele>1983.5999755859</ele>
        <time>2021-01-06T08:56:20.000Z</time>
      </trkpt>
      <trkpt lat="45.13523" lon="5.91154">
        <ele>1984.1999511719</ele>
        <time>2021-01-06T08:56:25.000Z</time>
      </trkpt>
      <trkpt lat="45.13523" lon="5.91153">
        <ele>1984.5999755859</ele>
        <time>2021-01-06T08:56:27.000Z</time>
      </trkpt>
      <trkpt lat="45.13523" lon="5.91153">
        <ele>1984.5999755859</ele>
        <time>2021-01-06T08:56:29.000Z</time>
      </trkpt>
      <trkpt lat="45.13523" lon="5.91155">
        <ele>1985.1999511719</ele>
        <time>2021-01-06T08:56:35.000Z</time>
      </trkpt>
      <trkpt lat="45.13523" lon="5.91155">
        <ele>1985.5999755859</ele>
        <time>2021-01-06T08:56:38.000Z</time>
      </trkpt>
      <trkpt lat="45.13521" lon="5.91159">
        <ele>1986</ele>
        <time>2021-01-06T08:56:42.000Z</time>
      </trkpt>
      <trkpt lat="45.1352" lon="5.91161">
        <ele>1986.5999755859</ele>
        <time>2021-01-06T08:56:46.000Z</time>
      </trkpt>
      <trkpt lat="45.13519" lon="5.91163">
        <ele>1987.1999511719</ele>
        <time>2021-01-06T08:56:49.000Z</time>
      </trkpt>
      <trkpt lat="45.13519" lon="5.91164">
        <ele>1987.8000488281</ele>
        <time>2021-01-06T08:56:51.000Z</time>
      </trkpt>
      <trkpt lat="45.1352" lon="5.91167">
        <ele>1988.8000488281</ele>
        <time>2021-01-06T08:56:55.000Z</time>
      </trkpt>
      <trkpt lat="45.1352" lon="5.9117">
        <ele>1990</ele>
        <time>2021-01-06T08:57:00.000Z</time>
      </trkpt>
      <trkpt lat="45.1352" lon="5.91172">
        <ele>1990.5999755859</ele>
        <time>2021-01-06T08:57:02.000Z</time>
      </trkpt>
      <trkpt lat="45.1352" lon="5.91173">
        <ele>1991.1999511719</ele>
        <time>2021-01-06T08:57:05.000Z</time>
      </trkpt>
      <trkpt lat="45.1352" lon="5.91174">
        <ele>1991.8000488281</ele>
        <time>2021-01-06T08:57:07.000Z</time>
      </trkpt>
      <trkpt lat="45.1352" lon="5.91177">
        <ele>1992.4000244141</ele>
        <time>2021-01-06T08:57:11.000Z</time>
      </trkpt>
      <trkpt lat="45.1352" lon="5.9118">
        <ele>1993.5999755859</ele>
        <time>2021-01-06T08:57:14.000Z</time>
      </trkpt>
      <trkpt lat="45.13519" lon="5.91183">
        <ele>1994.5999755859</ele>
        <time>2021-01-06T08:57:18.000Z</time>
      </trkpt>
      <trkpt lat="45.13519" lon="5.91183">
        <ele>1994.8000488281</ele>
        <time>2021-01-06T08:57:19.000Z</time>
      </trkpt>
      <trkpt lat="45.13517" lon="5.91181">
        <ele>1995.5999755859</ele>
        <time>2021-01-06T08:57:23.000Z</time>
      </trkpt>
      <trkpt lat="45.13516" lon="5.91178">
        <ele>1996</ele>
        <time>2021-01-06T08:57:25.000Z</time>
      </trkpt>
      <trkpt lat="45.13514" lon="5.91177">
        <ele>1996.8000488281</ele>
        <time>2021-01-06T08:57:29.000Z</time>
      </trkpt>
      <trkpt lat="45.13514" lon="5.91179">
        <ele>1997.1999511719</ele>
        <time>2021-01-06T08:57:32.000Z</time>
      </trkpt>
      <trkpt lat="45.13513" lon="5.91181">
        <ele>1997.8000488281</ele>
        <time>2021-01-06T08:57:35.000Z</time>
      </trkpt>
      <trkpt lat="45.13514" lon="5.91185">
        <ele>1998.4000244141</ele>
        <time>2021-01-06T08:57:38.000Z</time>
      </trkpt>
      <trkpt lat="45.13515" lon="5.91188">
        <ele>1999</ele>
        <time>2021-01-06T08:57:41.000Z</time>
      </trkpt>
      <trkpt lat="45.13515" lon="5.9119">
        <ele>1999.4000244141</ele>
        <time>2021-01-06T08:57:44.000Z</time>
      </trkpt>
      <trkpt lat="45.13516" lon="5.91193">
        <ele>2000</ele>
        <time>2021-01-06T08:57:47.000Z</time>
      </trkpt>
      <trkpt lat="45.13517" lon="5.91198">
        <ele>2000.5999755859</ele>
        <time>2021-01-06T08:57:52.000Z</time>
      </trkpt>
      <trkpt lat="45.13518" lon="5.912">
        <ele>2001</ele>
        <time>2021-01-06T08:57:54.000Z</time>
      </trkpt>
      <trkpt lat="45.1352" lon="5.91202">
        <ele>2001.8000488281</ele>
        <time>2021-01-06T08:57:58.000Z</time>
      </trkpt>
      <trkpt lat="45.13521" lon="5.91202">
        <ele>2002.1999511719</ele>
        <time>2021-01-06T08:58:00.000Z</time>
      </trkpt>
      <trkpt lat="45.13523" lon="5.91204">
        <ele>2003.1999511719</ele>
        <time>2021-01-06T08:58:05.000Z</time>
      </trkpt>
      <trkpt lat="45.13523" lon="5.91204">
        <ele>2003.4000244141</ele>
        <time>2021-01-06T08:58:06.000Z</time>
      </trkpt>
      <trkpt lat="45.13524" lon="5.91204">
        <ele>2004.1999511719</ele>
        <time>2021-01-06T08:58:13.000Z</time>
      </trkpt>
      <trkpt lat="45.13524" lon="5.91204">
        <ele>2004.1999511719</ele>
        <time>2021-01-06T08:58:15.000Z</time>
      </trkpt>
      <trkpt lat="45.13524" lon="5.91204">
        <ele>2005</ele>
        <time>2021-01-06T08:58:20.000Z</time>
      </trkpt>
      <trkpt lat="45.13526" lon="5.91203">
        <ele>2005.1999511719</ele>
        <time>2021-01-06T08:58:24.000Z</time>
      </trkpt>
      <trkpt lat="45.13526" lon="5.91205">
        <ele>2005.4000244141</ele>
        <time>2021-01-06T08:58:28.000Z</time>
      </trkpt>
      <trkpt lat="45.13526" lon="5.91205">
        <ele>2005.4000244141</ele>
        <time>2021-01-06T08:58:31.000Z</time>
      </trkpt>
      <trkpt lat="45.13523" lon="5.91204">
        <ele>2006.4000244141</ele>
        <time>2021-01-06T08:58:37.000Z</time>
      </trkpt>
      <trkpt lat="45.13522" lon="5.91203">
        <ele>2006.5999755859</ele>
        <time>2021-01-06T08:58:38.000Z</time>
      </trkpt>
      <trkpt lat="45.1352" lon="5.91201">
        <ele>2007.4000244141</ele>
        <time>2021-01-06T08:58:44.000Z</time>
      </trkpt>
      <trkpt lat="45.13519" lon="5.91201">
        <ele>2007.5999755859</ele>
        <time>2021-01-06T08:58:45.000Z</time>
      </trkpt>
      <trkpt lat="45.13517" lon="5.912">
        <ele>2008</ele>
        <time>2021-01-06T08:58:47.000Z</time>
      </trkpt>
      <trkpt lat="45.13516" lon="5.912">
        <ele>2008.8000488281</ele>
        <time>2021-01-06T08:58:50.000Z</time>
      </trkpt>
      <trkpt lat="45.13514" lon="5.912">
        <ele>2009.1999511719</ele>
        <time>2021-01-06T08:58:52.000Z</time>
      </trkpt>
      <trkpt lat="45.13513" lon="5.912">
        <ele>2009.8000488281</ele>
        <time>2021-01-06T08:58:55.000Z</time>
      </trkpt>
      <trkpt lat="45.13513" lon="5.91201">
        <ele>2010</ele>
        <time>2021-01-06T08:58:56.000Z</time>
      </trkpt>
      <trkpt lat="45.1351" lon="5.91202">
        <ele>2011</ele>
        <time>2021-01-06T08:59:00.000Z</time>
      </trkpt>
      <trkpt lat="45.13509" lon="5.91203">
        <ele>2011.4000244141</ele>
        <time>2021-01-06T08:59:02.000Z</time>
      </trkpt>
      <trkpt lat="45.13507" lon="5.91203">
        <ele>2012</ele>
        <time>2021-01-06T08:59:05.000Z</time>
      </trkpt>
      <trkpt lat="45.13505" lon="5.91204">
        <ele>2012.8000488281</ele>
        <time>2021-01-06T08:59:08.000Z</time>
      </trkpt>
      <trkpt lat="45.13504" lon="5.91204">
        <ele>2013.1999511719</ele>
        <time>2021-01-06T08:59:10.000Z</time>
      </trkpt>
      <trkpt lat="45.13503" lon="5.91204">
        <ele>2014</ele>
        <time>2021-01-06T08:59:13.000Z</time>
      </trkpt>
      <trkpt lat="45.13503" lon="5.91203">
        <ele>2014.4000244141</ele>
        <time>2021-01-06T08:59:14.000Z</time>
      </trkpt>
      <trkpt lat="45.13503" lon="5.91201">
        <ele>2015</ele>
        <time>2021-01-06T08:59:17.000Z</time>
      </trkpt>
      <trkpt lat="45.13502" lon="5.91201">
        <ele>2015.4000244141</ele>
        <time>2021-01-06T08:59:19.000Z</time>
      </trkpt>
      <trkpt lat="45.13501" lon="5.91201">
        <ele>2015.4000244141</ele>
        <time>2021-01-06T08:59:20.000Z</time>
      </trkpt>
      <trkpt lat="45.13501" lon="5.91201">
        <ele>2015.8000488281</ele>
        <time>2021-01-06T08:59:22.000Z</time>
      </trkpt>
      <trkpt lat="45.13501" lon="5.91202">
        <ele>2016.1999511719</ele>
        <time>2021-01-06T08:59:24.000Z</time>
      </trkpt>
      <trkpt lat="45.135" lon="5.91209">
        <ele>2016.5999755859</ele>
        <time>2021-01-06T08:59:27.000Z</time>
      </trkpt>
      <trkpt lat="45.13501" lon="5.91213">
        <ele>2017</ele>
        <time>2021-01-06T08:59:31.000Z</time>
      </trkpt>
      <trkpt lat="45.13499" lon="5.91212">
        <ele>2017.5999755859</ele>
        <time>2021-01-06T08:59:35.000Z</time>
      </trkpt>
      <trkpt lat="45.13498" lon="5.91212">
        <ele>2017.8000488281</ele>
        <time>2021-01-06T08:59:36.000Z</time>
      </trkpt>
      <trkpt lat="45.13497" lon="5.91211">
        <ele>2018.8000488281</ele>
        <time>2021-01-06T08:59:42.000Z</time>
      </trkpt>
      <trkpt lat="45.13497" lon="5.91211">
        <ele>2019</ele>
        <time>2021-01-06T08:59:43.000Z</time>
      </trkpt>
      <trkpt lat="45.13496" lon="5.91217">
        <ele>2019.8000488281</ele>
        <time>2021-01-06T08:59:47.000Z</time>
      </trkpt>
      <trkpt lat="45.13496" lon="5.91221">
        <ele>2020.4000244141</ele>
        <time>2021-01-06T08:59:50.000Z</time>
      </trkpt>
      <trkpt lat="45.13496" lon="5.91225">
        <ele>2021</ele>
        <time>2021-01-06T08:59:53.000Z</time>
      </trkpt>
      <trkpt lat="45.13496" lon="5.91226">
        <ele>2021.1999511719</ele>
        <time>2021-01-06T08:59:54.000Z</time>
      </trkpt>
      <trkpt lat="45.13493" lon="5.91228">
        <ele>2022</ele>
        <time>2021-01-06T08:59:58.000Z</time>
      </trkpt>
      <trkpt lat="45.13493" lon="5.91228">
        <ele>2022.1999511719</ele>
        <time>2021-01-06T08:59:59.000Z</time>
      </trkpt>
      <trkpt lat="45.13492" lon="5.91229">
        <ele>2022.8000488281</ele>
        <time>2021-01-06T09:00:01.000Z</time>
      </trkpt>
      <trkpt lat="45.13491" lon="5.9123">
        <ele>2023.1999511719</ele>
        <time>2021-01-06T09:00:02.000Z</time>
      </trkpt>
      <trkpt lat="45.1349" lon="5.91232">
        <ele>2023.8000488281</ele>
        <time>2021-01-06T09:00:05.000Z</time>
      </trkpt>
      <trkpt lat="45.13489" lon="5.91234">
        <ele>2024.4000244141</ele>
        <time>2021-01-06T09:00:07.000Z</time>
      </trkpt>
      <trkpt lat="45.13489" lon="5.91235">
        <ele>2024.5999755859</ele>
        <time>2021-01-06T09:00:08.000Z</time>
      </trkpt>
      <trkpt lat="45.13488" lon="5.91237">
        <ele>2025.1999511719</ele>
        <time>2021-01-06T09:00:11.000Z</time>
      </trkpt>
      <trkpt lat="45.13487" lon="5.91238">
        <ele>2025.5999755859</ele>
        <time>2021-01-06T09:00:12.000Z</time>
      </trkpt>
      <trkpt lat="45.13485" lon="5.91241">
        <ele>2026.5999755859</ele>
        <time>2021-01-06T09:00:16.000Z</time>
      </trkpt>
      <trkpt lat="45.13485" lon="5.91242">
        <ele>2026.8000488281</ele>
        <time>2021-01-06T09:00:17.000Z</time>
      </trkpt>
      <trkpt lat="45.13482" lon="5.91245">
        <ele>2027.5999755859</ele>
        <time>2021-01-06T09:00:21.000Z</time>
      </trkpt>
      <trkpt lat="45.13481" lon="5.91247">
        <ele>2027.8000488281</ele>
        <time>2021-01-06T09:00:22.000Z</time>
      </trkpt>
      <trkpt lat="45.1348" lon="5.91249">
        <ele>2028.8000488281</ele>
        <time>2021-01-06T09:00:26.000Z</time>
      </trkpt>
      <trkpt lat="45.13479" lon="5.91252">
        <ele>2029.8000488281</ele>
        <time>2021-01-06T09:00:30.000Z</time>
      </trkpt>
      <trkpt lat="45.13476" lon="5.91257">
        <ele>2031</ele>
        <time>2021-01-06T09:00:37.000Z</time>
      </trkpt>
      <trkpt lat="45.13475" lon="5.91258">
        <ele>2031</ele>
        <time>2021-01-06T09:00:38.000Z</time>
      </trkpt>
      <trkpt lat="45.13475" lon="5.91259">
        <ele>2032</ele>
        <time>2021-01-06T09:00:45.000Z</time>
      </trkpt>
      <trkpt lat="45.13473" lon="5.91267">
        <ele>2032.8000488281</ele>
        <time>2021-01-06T09:00:52.000Z</time>
      </trkpt>
      <trkpt lat="45.13473" lon="5.91268">
        <ele>2033</ele>
        <time>2021-01-06T09:00:54.000Z</time>
      </trkpt>
      <trkpt lat="45.13472" lon="5.91273">
        <ele>2033.8000488281</ele>
        <time>2021-01-06T09:00:58.000Z</time>
      </trkpt>
      <trkpt lat="45.13471" lon="5.91274">
        <ele>2034</ele>
        <time>2021-01-06T09:00:59.000Z</time>
      </trkpt>
      <trkpt lat="45.13469" lon="5.91279">
        <ele>2035</ele>
        <time>2021-01-06T09:01:04.000Z</time>
      </trkpt>
      <trkpt lat="45.13469" lon="5.9128">
        <ele>2035.1999511719</ele>
        <time>2021-01-06T09:01:05.000Z</time>
      </trkpt>
      <trkpt lat="45.13467" lon="5.91286">
        <ele>2036.4000244141</ele>
        <time>2021-01-06T09:01:11.000Z</time>
      </trkpt>
      <trkpt lat="45.13465" lon="5.91291">
        <ele>2037.5999755859</ele>
        <time>2021-01-06T09:01:16.000Z</time>
      </trkpt>
      <trkpt lat="45.13465" lon="5.91293">
        <ele>2038</ele>
        <time>2021-01-06T09:01:18.000Z</time>
      </trkpt>
      <trkpt lat="45.13463" lon="5.91298">
        <ele>2038.8000488281</ele>
        <time>2021-01-06T09:01:22.000Z</time>
      </trkpt>
      <trkpt lat="45.13461" lon="5.91303">
        <ele>2039.5999755859</ele>
        <time>2021-01-06T09:01:27.000Z</time>
      </trkpt>
      <trkpt lat="45.13461" lon="5.91304">
        <ele>2039.8000488281</ele>
        <time>2021-01-06T09:01:28.000Z</time>
      </trkpt>
      <trkpt lat="45.13459" lon="5.91312">
        <ele>2040.8000488281</ele>
        <time>2021-01-06T09:01:34.000Z</time>
      </trkpt>
      <trkpt lat="45.13457" lon="5.91318">
        <ele>2041.8000488281</ele>
        <time>2021-01-06T09:01:40.000Z</time>
      </trkpt>
      <trkpt lat="45.13457" lon="5.9132">
        <ele>2042.1999511719</ele>
        <time>2021-01-06T09:01:42.000Z</time>
      </trkpt>
      <trkpt lat="45.13456" lon="5.91323">
        <ele>2043</ele>
        <time>2021-01-06T09:01:46.000Z</time>
      </trkpt>
      <trkpt lat="45.13455" lon="5.91325">
        <ele>2043.4000244141</ele>
        <time>2021-01-06T09:01:48.000Z</time>
      </trkpt>
      <trkpt lat="45.13454" lon="5.91329">
        <ele>2044</ele>
        <time>2021-01-06T09:01:51.000Z</time>
      </trkpt>
      <trkpt lat="45.13454" lon="5.91335">
        <ele>2044.8000488281</ele>
        <time>2021-01-06T09:01:55.000Z</time>
      </trkpt>
      <trkpt lat="45.13454" lon="5.91337">
        <ele>2045</ele>
        <time>2021-01-06T09:01:57.000Z</time>
      </trkpt>
      <trkpt lat="45.13453" lon="5.91342">
        <ele>2046</ele>
        <time>2021-01-06T09:02:02.000Z</time>
      </trkpt>
      <trkpt lat="45.13453" lon="5.91343">
        <ele>2046.4000244141</ele>
        <time>2021-01-06T09:02:03.000Z</time>
      </trkpt>
      <trkpt lat="45.13453" lon="5.91349">
        <ele>2047.4000244141</ele>
        <time>2021-01-06T09:02:09.000Z</time>
      </trkpt>
      <trkpt lat="45.13454" lon="5.9135">
        <ele>2047.5999755859</ele>
        <time>2021-01-06T09:02:10.000Z</time>
      </trkpt>
      <trkpt lat="45.13457" lon="5.91355">
        <ele>2048.8000488281</ele>
        <time>2021-01-06T09:02:14.000Z</time>
      </trkpt>
      <trkpt lat="45.1346" lon="5.91357">
        <ele>2049.3999023438</ele>
        <time>2021-01-06T09:02:18.000Z</time>
      </trkpt>
      <trkpt lat="45.13461" lon="5.91358">
        <ele>2049.8000488281</ele>
        <time>2021-01-06T09:02:20.000Z</time>
      </trkpt>
      <trkpt lat="45.13463" lon="5.91358">
        <ele>2050.8000488281</ele>
        <time>2021-01-06T09:02:25.000Z</time>
      </trkpt>
      <trkpt lat="45.13466" lon="5.91356">
        <ele>2052</ele>
        <time>2021-01-06T09:02:29.000Z</time>
      </trkpt>
      <trkpt lat="45.13468" lon="5.91355">
        <ele>2052.3999023438</ele>
        <time>2021-01-06T09:02:32.000Z</time>
      </trkpt>
      <trkpt lat="45.13468" lon="5.91355">
        <ele>2053</ele>
        <time>2021-01-06T09:02:35.000Z</time>
      </trkpt>
      <trkpt lat="45.13469" lon="5.91354">
        <ele>2053.6000976562</ele>
        <time>2021-01-06T09:02:38.000Z</time>
      </trkpt>
      <trkpt lat="45.13469" lon="5.91354">
        <ele>2054</ele>
        <time>2021-01-06T09:02:43.000Z</time>
      </trkpt>
      <trkpt lat="45.13469" lon="5.91355">
        <ele>2054.1999511719</ele>
        <time>2021-01-06T09:02:44.000Z</time>
      </trkpt>
      <trkpt lat="45.13469" lon="5.91359">
        <ele>2055.3999023438</ele>
        <time>2021-01-06T09:02:51.000Z</time>
      </trkpt>
      <trkpt lat="45.13468" lon="5.9136">
        <ele>2055.6000976562</ele>
        <time>2021-01-06T09:02:52.000Z</time>
      </trkpt>
      <trkpt lat="45.13467" lon="5.91364">
        <ele>2056.6000976562</ele>
        <time>2021-01-06T09:02:57.000Z</time>
      </trkpt>
      <trkpt lat="45.13468" lon="5.91365">
        <ele>2056.8000488281</ele>
        <time>2021-01-06T09:02:58.000Z</time>
      </trkpt>
      <trkpt lat="45.13467" lon="5.91369">
        <ele>2057.6000976562</ele>
        <time>2021-01-06T09:03:03.000Z</time>
      </trkpt>
      <trkpt lat="45.13467" lon="5.9137">
        <ele>2058</ele>
        <time>2021-01-06T09:03:05.000Z</time>
      </trkpt>
      <trkpt lat="45.13466" lon="5.91374">
        <ele>2058.8000488281</ele>
        <time>2021-01-06T09:03:09.000Z</time>
      </trkpt>
      <trkpt lat="45.13466" lon="5.91376">
        <ele>2059.1999511719</ele>
        <time>2021-01-06T09:03:11.000Z</time>
      </trkpt>
      <trkpt lat="45.13465" lon="5.91378">
        <ele>2059.8000488281</ele>
        <time>2021-01-06T09:03:14.000Z</time>
      </trkpt>
      <trkpt lat="45.13464" lon="5.91382">
        <ele>2061</ele>
        <time>2021-01-06T09:03:18.000Z</time>
      </trkpt>
      <trkpt lat="45.13464" lon="5.91385">
        <ele>2061.8000488281</ele>
        <time>2021-01-06T09:03:23.000Z</time>
      </trkpt>
      <trkpt lat="45.13465" lon="5.91386">
        <ele>2062</ele>
        <time>2021-01-06T09:03:24.000Z</time>
      </trkpt>
      <trkpt lat="45.13469" lon="5.91389">
        <ele>2063.1999511719</ele>
        <time>2021-01-06T09:03:29.000Z</time>
      </trkpt>
      <trkpt lat="45.13472" lon="5.91389">
        <ele>2064.1999511719</ele>
        <time>2021-01-06T09:03:35.000Z</time>
      </trkpt>
      <trkpt lat="45.13474" lon="5.91389">
        <ele>2064.6000976562</ele>
        <time>2021-01-06T09:03:37.000Z</time>
      </trkpt>
      <trkpt lat="45.13475" lon="5.91389">
        <ele>2065.3999023438</ele>
        <time>2021-01-06T09:03:40.000Z</time>
      </trkpt>
      <trkpt lat="45.13477" lon="5.91388">
        <ele>2066.1999511719</ele>
        <time>2021-01-06T09:03:44.000Z</time>
      </trkpt>
      <trkpt lat="45.13477" lon="5.91388">
        <ele>2066.3999023438</ele>
        <time>2021-01-06T09:03:45.000Z</time>
      </trkpt>
      <trkpt lat="45.1348" lon="5.91386">
        <ele>2067.1999511719</ele>
        <time>2021-01-06T09:03:50.000Z</time>
      </trkpt>
      <trkpt lat="45.13481" lon="5.91386">
        <ele>2067.3999023438</ele>
        <time>2021-01-06T09:03:51.000Z</time>
      </trkpt>
      <trkpt lat="45.13484" lon="5.91383">
        <ele>2068.3999023438</ele>
        <time>2021-01-06T09:03:56.000Z</time>
      </trkpt>
      <trkpt lat="45.13487" lon="5.9138">
        <ele>2069.6000976562</ele>
        <time>2021-01-06T09:04:02.000Z</time>
      </trkpt>
      <trkpt lat="45.13487" lon="5.91379">
        <ele>2070</ele>
        <time>2021-01-06T09:04:04.000Z</time>
      </trkpt>
      <trkpt lat="45.13486" lon="5.91379">
        <ele>2070.6000976562</ele>
        <time>2021-01-06T09:04:08.000Z</time>
      </trkpt>
      <trkpt lat="45.13486" lon="5.91379">
        <ele>2070.6000976562</ele>
        <time>2021-01-06T09:04:09.000Z</time>
      </trkpt>
      <trkpt lat="45.13486" lon="5.91383">
        <ele>2071.3999023438</ele>
        <time>2021-01-06T09:04:15.000Z</time>
      </trkpt>
      <trkpt lat="45.13485" lon="5.91386">
        <ele>2071.6000976562</ele>
        <time>2021-01-06T09:04:18.000Z</time>
      </trkpt>
      <trkpt lat="45.13483" lon="5.91389">
        <ele>2072</ele>
        <time>2021-01-06T09:04:21.000Z</time>
      </trkpt>
      <trkpt lat="45.13484" lon="5.91393">
        <ele>2072.6000976562</ele>
        <time>2021-01-06T09:04:25.000Z</time>
      </trkpt>
      <trkpt lat="45.13484" lon="5.91394">
        <ele>2073.1999511719</ele>
        <time>2021-01-06T09:04:27.000Z</time>
      </trkpt>
      <trkpt lat="45.13484" lon="5.91396">
        <ele>2073.8000488281</ele>
        <time>2021-01-06T09:04:29.000Z</time>
      </trkpt>
      <trkpt lat="45.13482" lon="5.914">
        <ele>2074.8000488281</ele>
        <time>2021-01-06T09:04:34.000Z</time>
      </trkpt>
      <trkpt lat="45.13482" lon="5.91406">
        <ele>2075.8000488281</ele>
        <time>2021-01-06T09:04:40.000Z</time>
      </trkpt>
      <trkpt lat="45.13482" lon="5.91407">
        <ele>2076</ele>
        <time>2021-01-06T09:04:41.000Z</time>
      </trkpt>
      <trkpt lat="45.13483" lon="5.91408">
        <ele>2077</ele>
        <time>2021-01-06T09:04:46.000Z</time>
      </trkpt>
      <trkpt lat="45.13485" lon="5.9141">
        <ele>2077.6000976562</ele>
        <time>2021-01-06T09:04:52.000Z</time>
      </trkpt>
      <trkpt lat="45.13486" lon="5.9141">
        <ele>2078</ele>
        <time>2021-01-06T09:04:54.000Z</time>
      </trkpt>
      <trkpt lat="45.13489" lon="5.91409">
        <ele>2079.1999511719</ele>
        <time>2021-01-06T09:04:59.000Z</time>
      </trkpt>
      <trkpt lat="45.1349" lon="5.91409">
        <ele>2079.3999023438</ele>
        <time>2021-01-06T09:05:00.000Z</time>
      </trkpt>
      <trkpt lat="45.13492" lon="5.91408">
        <ele>2080.1999511719</ele>
        <time>2021-01-06T09:05:04.000Z</time>
      </trkpt>
      <trkpt lat="45.13492" lon="5.91407">
        <ele>2080.6000976562</ele>
        <time>2021-01-06T09:05:06.000Z</time>
      </trkpt>
      <trkpt lat="45.13493" lon="5.91406">
        <ele>2081.1999511719</ele>
        <time>2021-01-06T09:05:10.000Z</time>
      </trkpt>
      <trkpt lat="45.13494" lon="5.91406">
        <ele>2081.8000488281</ele>
        <time>2021-01-06T09:05:12.000Z</time>
      </trkpt>
      <trkpt lat="45.13496" lon="5.91405">
        <ele>2082.3999023438</ele>
        <time>2021-01-06T09:05:15.000Z</time>
      </trkpt>
      <trkpt lat="45.13497" lon="5.91404">
        <ele>2083.1999511719</ele>
        <time>2021-01-06T09:05:19.000Z</time>
      </trkpt>
      <trkpt lat="45.13497" lon="5.91404">
        <ele>2083.3999023438</ele>
        <time>2021-01-06T09:05:20.000Z</time>
      </trkpt>
      <trkpt lat="45.13497" lon="5.91405">
        <ele>2084</ele>
        <time>2021-01-06T09:05:25.000Z</time>
      </trkpt>
      <trkpt lat="45.13497" lon="5.91408">
        <ele>2084.6000976562</ele>
        <time>2021-01-06T09:05:29.000Z</time>
      </trkpt>
      <trkpt lat="45.13496" lon="5.91411">
        <ele>2085.1999511719</ele>
        <time>2021-01-06T09:05:32.000Z</time>
      </trkpt>
      <trkpt lat="45.13495" lon="5.91413">
        <ele>2085.6000976562</ele>
        <time>2021-01-06T09:05:34.000Z</time>
      </trkpt>
      <trkpt lat="45.13496" lon="5.91417">
        <ele>2086.8000488281</ele>
        <time>2021-01-06T09:05:39.000Z</time>
      </trkpt>
      <trkpt lat="45.13496" lon="5.91418">
        <ele>2087</ele>
        <time>2021-01-06T09:05:40.000Z</time>
      </trkpt>
      <trkpt lat="45.13495" lon="5.91422">
        <ele>2087.8000488281</ele>
        <time>2021-01-06T09:05:45.000Z</time>
      </trkpt>
      <trkpt lat="45.13495" lon="5.91423">
        <ele>2088.1999511719</ele>
        <time>2021-01-06T09:05:47.000Z</time>
      </trkpt>
      <trkpt lat="45.13495" lon="5.91425">
        <ele>2088.8000488281</ele>
        <time>2021-01-06T09:05:50.000Z</time>
      </trkpt>
      <trkpt lat="45.13494" lon="5.91428">
        <ele>2089.6000976562</ele>
        <time>2021-01-06T09:05:53.000Z</time>
      </trkpt>
      <trkpt lat="45.13494" lon="5.9143">
        <ele>2090</ele>
        <time>2021-01-06T09:05:55.000Z</time>
      </trkpt>
      <trkpt lat="45.13492" lon="5.91435">
        <ele>2091</ele>
        <time>2021-01-06T09:06:00.000Z</time>
      </trkpt>
      <trkpt lat="45.13491" lon="5.91436">
        <ele>2091.1999511719</ele>
        <time>2021-01-06T09:06:01.000Z</time>
      </trkpt>
      <trkpt lat="45.1349" lon="5.91438">
        <ele>2092.1999511719</ele>
        <time>2021-01-06T09:06:04.000Z</time>
      </trkpt>
      <trkpt lat="45.13489" lon="5.91441">
        <ele>2093.1999511719</ele>
        <time>2021-01-06T09:06:07.000Z</time>
      </trkpt>
      <trkpt lat="45.13489" lon="5.91442">
        <ele>2093.3999023438</ele>
        <time>2021-01-06T09:06:08.000Z</time>
      </trkpt>
      <trkpt lat="45.13488" lon="5.91446">
        <ele>2094.1999511719</ele>
        <time>2021-01-06T09:06:12.000Z</time>
      </trkpt>
      <trkpt lat="45.13487" lon="5.91447">
        <ele>2094.3999023438</ele>
        <time>2021-01-06T09:06:13.000Z</time>
      </trkpt>
      <trkpt lat="45.13487" lon="5.91448">
        <ele>2094.6000976562</ele>
        <time>2021-01-06T09:06:14.000Z</time>
      </trkpt>
      <trkpt lat="45.13487" lon="5.91454">
        <ele>2095.6000976562</ele>
        <time>2021-01-06T09:06:19.000Z</time>
      </trkpt>
      <trkpt lat="45.13487" lon="5.91456">
        <ele>2096.1999511719</ele>
        <time>2021-01-06T09:06:21.000Z</time>
      </trkpt>
      <trkpt lat="45.13487" lon="5.91458">
        <ele>2096.6000976562</ele>
        <time>2021-01-06T09:06:23.000Z</time>
      </trkpt>
      <trkpt lat="45.13488" lon="5.91462">
        <ele>2097.8000488281</ele>
        <time>2021-01-06T09:06:27.000Z</time>
      </trkpt>
      <trkpt lat="45.13488" lon="5.91464">
        <ele>2098.1999511719</ele>
        <time>2021-01-06T09:06:29.000Z</time>
      </trkpt>
      <trkpt lat="45.13488" lon="5.91466">
        <ele>2098.8000488281</ele>
        <time>2021-01-06T09:06:31.000Z</time>
      </trkpt>
      <trkpt lat="45.13488" lon="5.91468">
        <ele>2099.1999511719</ele>
        <time>2021-01-06T09:06:33.000Z</time>
      </trkpt>
      <trkpt lat="45.13489" lon="5.9147">
        <ele>2100</ele>
        <time>2021-01-06T09:06:36.000Z</time>
      </trkpt>
      <trkpt lat="45.13489" lon="5.91473">
        <ele>2100.6000976562</ele>
        <time>2021-01-06T09:06:39.000Z</time>
      </trkpt>
      <trkpt lat="45.13489" lon="5.91474">
        <ele>2101.1999511719</ele>
        <time>2021-01-06T09:06:41.000Z</time>
      </trkpt>
      <trkpt lat="45.13491" lon="5.91478">
        <ele>2102</ele>
        <time>2021-01-06T09:06:45.000Z</time>
      </trkpt>
      <trkpt lat="45.13491" lon="5.91479">
        <ele>2102.1999511719</ele>
        <time>2021-01-06T09:06:46.000Z</time>
      </trkpt>
      <trkpt lat="45.13493" lon="5.91483">
        <ele>2103.1999511719</ele>
        <time>2021-01-06T09:06:50.000Z</time>
      </trkpt>
      <trkpt lat="45.13493" lon="5.91485">
        <ele>2104</ele>
        <time>2021-01-06T09:06:53.000Z</time>
      </trkpt>
      <trkpt lat="45.13494" lon="5.91487">
        <ele>2104.3999023438</ele>
        <time>2021-01-06T09:06:55.000Z</time>
      </trkpt>
      <trkpt lat="45.13495" lon="5.91492">
        <ele>2105.3999023438</ele>
        <time>2021-01-06T09:07:00.000Z</time>
      </trkpt>
      <trkpt lat="45.13495" lon="5.91493">
        <ele>2105.6000976562</ele>
        <time>2021-01-06T09:07:01.000Z</time>
      </trkpt>
      <trkpt lat="45.13496" lon="5.91497">
        <ele>2106.8000488281</ele>
        <time>2021-01-06T09:07:06.000Z</time>
      </trkpt>
      <trkpt lat="45.13497" lon="5.91501">
        <ele>2107.8000488281</ele>
        <time>2021-01-06T09:07:11.000Z</time>
      </trkpt>
      <trkpt lat="45.13498" lon="5.91503">
        <ele>2108.3999023438</ele>
        <time>2021-01-06T09:07:14.000Z</time>
      </trkpt>
      <trkpt lat="45.13498" lon="5.91504">
        <ele>2108.8000488281</ele>
        <time>2021-01-06T09:07:15.000Z</time>
      </trkpt>
      <trkpt lat="45.13498" lon="5.91508">
        <ele>2109.8000488281</ele>
        <time>2021-01-06T09:07:20.000Z</time>
      </trkpt>
      <trkpt lat="45.13499" lon="5.91509">
        <ele>2110</ele>
        <time>2021-01-06T09:07:22.000Z</time>
      </trkpt>
      <trkpt lat="45.135" lon="5.91514">
        <ele>2111</ele>
        <time>2021-01-06T09:07:27.000Z</time>
      </trkpt>
      <trkpt lat="45.135" lon="5.91515">
        <ele>2111.1999511719</ele>
        <time>2021-01-06T09:07:28.000Z</time>
      </trkpt>
      <trkpt lat="45.13502" lon="5.9152">
        <ele>2112.1999511719</ele>
        <time>2021-01-06T09:07:34.000Z</time>
      </trkpt>
      <trkpt lat="45.13505" lon="5.91524">
        <ele>2113.3999023438</ele>
        <time>2021-01-06T09:07:40.000Z</time>
      </trkpt>
      <trkpt lat="45.13508" lon="5.91523">
        <ele>2114.6000976562</ele>
        <time>2021-01-06T09:07:46.000Z</time>
      </trkpt>
      <trkpt lat="45.13509" lon="5.9152">
        <ele>2115.6000976562</ele>
        <time>2021-01-06T09:07:51.000Z</time>
      </trkpt>
      <trkpt lat="45.13511" lon="5.9152">
        <ele>2116.1999511719</ele>
        <time>2021-01-06T09:07:53.000Z</time>
      </trkpt>
      <trkpt lat="45.13513" lon="5.9152">
        <ele>2116.8000488281</ele>
        <time>2021-01-06T09:07:56.000Z</time>
      </trkpt>
      <trkpt lat="45.13514" lon="5.91524">
        <ele>2117.6000976562</ele>
        <time>2021-01-06T09:08:01.000Z</time>
      </trkpt>
      <trkpt lat="45.13514" lon="5.91524">
        <ele>2117.8000488281</ele>
        <time>2021-01-06T09:08:02.000Z</time>
      </trkpt>
      <trkpt lat="45.13515" lon="5.91525">
        <ele>2118.1999511719</ele>
        <time>2021-01-06T09:08:03.000Z</time>
      </trkpt>
      <trkpt lat="45.13517" lon="5.91529">
        <ele>2119</ele>
        <time>2021-01-06T09:08:08.000Z</time>
      </trkpt>
      <trkpt lat="45.13518" lon="5.91532">
        <ele>2120</ele>
        <time>2021-01-06T09:08:13.000Z</time>
      </trkpt>
      <trkpt lat="45.13519" lon="5.91534">
        <ele>2120.3999023438</ele>
        <time>2021-01-06T09:08:15.000Z</time>
      </trkpt>
      <trkpt lat="45.13519" lon="5.91535">
        <ele>2121.1999511719</ele>
        <time>2021-01-06T09:08:19.000Z</time>
      </trkpt>
      <trkpt lat="45.13519" lon="5.91535">
        <ele>2121.1999511719</ele>
        <time>2021-01-06T09:08:20.000Z</time>
      </trkpt>
      <trkpt lat="45.13521" lon="5.91533">
        <ele>2121.8000488281</ele>
        <time>2021-01-06T09:08:25.000Z</time>
      </trkpt>
      <trkpt lat="45.13521" lon="5.91533">
        <ele>2122.1999511719</ele>
        <time>2021-01-06T09:08:28.000Z</time>
      </trkpt>
      <trkpt lat="45.13521" lon="5.91531">
        <ele>2122.6000976562</ele>
        <time>2021-01-06T09:08:35.000Z</time>
      </trkpt>
      <trkpt lat="45.13521" lon="5.91531">
        <ele>2122</ele>
        <time>2021-01-06T09:08:41.000Z</time>
      </trkpt>
      <trkpt lat="45.13521" lon="5.91531">
        <ele>2122.8000488281</ele>
        <time>2021-01-06T09:08:53.000Z</time>
      </trkpt>
      <trkpt lat="45.13521" lon="5.91531">
        <ele>2121.8000488281</ele>
        <time>2021-01-06T09:09:05.000Z</time>
      </trkpt>
      <trkpt lat="45.13521" lon="5.91531">
        <ele>2120.8000488281</ele>
        <time>2021-01-06T09:09:07.000Z</time>
      </trkpt>
      <trkpt lat="45.1352" lon="5.91531">
        <ele>2121.6000976562</ele>
        <time>2021-01-06T09:09:13.000Z</time>
      </trkpt>
      <trkpt lat="45.1352" lon="5.91531">
        <ele>2121.8000488281</ele>
        <time>2021-01-06T09:09:14.000Z</time>
      </trkpt>
      <trkpt lat="45.1352" lon="5.91531">
        <ele>2122.3999023438</ele>
        <time>2021-01-06T09:09:24.000Z</time>
      </trkpt>
      <trkpt lat="45.1352" lon="5.91531">
        <ele>2122.6000976562</ele>
        <time>2021-01-06T09:09:37.000Z</time>
      </trkpt>
      <trkpt lat="45.13522" lon="5.91528">
        <ele>2122.6000976562</ele>
        <time>2021-01-06T09:09:46.000Z</time>
      </trkpt>
      <trkpt lat="45.13524" lon="5.91524">
        <ele>2123</ele>
        <time>2021-01-06T09:09:50.000Z</time>
      </trkpt>
      <trkpt lat="45.13526" lon="5.91522">
        <ele>2123.8000488281</ele>
        <time>2021-01-06T09:09:54.000Z</time>
      </trkpt>
      <trkpt lat="45.13526" lon="5.91522">
        <ele>2124.1999511719</ele>
        <time>2021-01-06T09:09:55.000Z</time>
      </trkpt>
      <trkpt lat="45.13527" lon="5.91519">
        <ele>2125.1999511719</ele>
        <time>2021-01-06T09:10:00.000Z</time>
      </trkpt>
      <trkpt lat="45.13528" lon="5.91518">
        <ele>2125.3999023438</ele>
        <time>2021-01-06T09:10:01.000Z</time>
      </trkpt>
      <trkpt lat="45.13529" lon="5.91517">
        <ele>2126.1999511719</ele>
        <time>2021-01-06T09:10:03.000Z</time>
      </trkpt>
      <trkpt lat="45.13531" lon="5.91515">
        <ele>2127</ele>
        <time>2021-01-06T09:10:06.000Z</time>
      </trkpt>
      <trkpt lat="45.13531" lon="5.91515">
        <ele>2127.1999511719</ele>
        <time>2021-01-06T09:10:07.000Z</time>
      </trkpt>
      <trkpt lat="45.13531" lon="5.91514">
        <ele>2127.3999023438</ele>
        <time>2021-01-06T09:10:08.000Z</time>
      </trkpt>
      <trkpt lat="45.13533" lon="5.91509">
        <ele>2128.3999023438</ele>
        <time>2021-01-06T09:10:13.000Z</time>
      </trkpt>
      <trkpt lat="45.13534" lon="5.91508">
        <ele>2128.6000976562</ele>
        <time>2021-01-06T09:10:14.000Z</time>
      </trkpt>
      <trkpt lat="45.13537" lon="5.91504">
        <ele>2129.6000976562</ele>
        <time>2021-01-06T09:10:20.000Z</time>
      </trkpt>
      <trkpt lat="45.13541" lon="5.91498">
        <ele>2131</ele>
        <time>2021-01-06T09:10:27.000Z</time>
      </trkpt>
      <trkpt lat="45.13541" lon="5.91494">
        <ele>2132.1999511719</ele>
        <time>2021-01-06T09:10:33.000Z</time>
      </trkpt>
      <trkpt lat="45.13541" lon="5.91494">
        <ele>2132.3999023438</ele>
        <time>2021-01-06T09:10:34.000Z</time>
      </trkpt>
      <trkpt lat="45.13541" lon="5.91494">
        <ele>2133.1999511719</ele>
        <time>2021-01-06T09:10:39.000Z</time>
      </trkpt>
      <trkpt lat="45.13544" lon="5.915">
        <ele>2134</ele>
        <time>2021-01-06T09:10:46.000Z</time>
      </trkpt>
      <trkpt lat="45.13544" lon="5.91502">
        <ele>2134.1999511719</ele>
        <time>2021-01-06T09:10:48.000Z</time>
      </trkpt>
      <trkpt lat="45.13545" lon="5.91506">
        <ele>2135</ele>
        <time>2021-01-06T09:10:52.000Z</time>
      </trkpt>
      <trkpt lat="45.13545" lon="5.91507">
        <ele>2135.1999511719</ele>
        <time>2021-01-06T09:10:53.000Z</time>
      </trkpt>
      <trkpt lat="45.13545" lon="5.91508">
        <ele>2135.1999511719</ele>
        <time>2021-01-06T09:10:54.000Z</time>
      </trkpt>
      <trkpt lat="45.13548" lon="5.91514">
        <ele>2136.1999511719</ele>
        <time>2021-01-06T09:10:59.000Z</time>
      </trkpt>
      <trkpt lat="45.13548" lon="5.91515">
        <ele>2136.3999023438</ele>
        <time>2021-01-06T09:11:00.000Z</time>
      </trkpt>
      <trkpt lat="45.1355" lon="5.91519">
        <ele>2137.3999023438</ele>
        <time>2021-01-06T09:11:05.000Z</time>
      </trkpt>
      <trkpt lat="45.13551" lon="5.91522">
        <ele>2137.8000488281</ele>
        <time>2021-01-06T09:11:07.000Z</time>
      </trkpt>
      <trkpt lat="45.13552" lon="5.91524">
        <ele>2138.3999023438</ele>
        <time>2021-01-06T09:11:10.000Z</time>
      </trkpt>
      <trkpt lat="45.13552" lon="5.91524">
        <ele>2139.1999511719</ele>
        <time>2021-01-06T09:11:14.000Z</time>
      </trkpt>
      <trkpt lat="45.13552" lon="5.91524">
        <ele>2139.3999023438</ele>
        <time>2021-01-06T09:11:15.000Z</time>
      </trkpt>
      <trkpt lat="45.13553" lon="5.91521">
        <ele>2139.8000488281</ele>
        <time>2021-01-06T09:11:18.000Z</time>
      </trkpt>
      <trkpt lat="45.13553" lon="5.91521">
        <ele>2139.8000488281</ele>
        <time>2021-01-06T09:11:19.000Z</time>
      </trkpt>
      <trkpt lat="45.13555" lon="5.91516">
        <ele>2140.6000976562</ele>
        <time>2021-01-06T09:11:24.000Z</time>
      </trkpt>
      <trkpt lat="45.13556" lon="5.91509">
        <ele>2141.6000976562</ele>
        <time>2021-01-06T09:11:31.000Z</time>
      </trkpt>
      <trkpt lat="45.13556" lon="5.91508">
        <ele>2141.8000488281</ele>
        <time>2021-01-06T09:11:32.000Z</time>
      </trkpt>
      <trkpt lat="45.13556" lon="5.91504">
        <ele>2142.8000488281</ele>
        <time>2021-01-06T09:11:37.000Z</time>
      </trkpt>
      <trkpt lat="45.13557" lon="5.91502">
        <ele>2143</ele>
        <time>2021-01-06T09:11:38.000Z</time>
      </trkpt>
      <trkpt lat="45.13557" lon="5.915">
        <ele>2143.3999023438</ele>
        <time>2021-01-06T09:11:40.000Z</time>
      </trkpt>
      <trkpt lat="45.13558" lon="5.91501">
        <ele>2143.8000488281</ele>
        <time>2021-01-06T09:11:42.000Z</time>
      </trkpt>
      <trkpt lat="45.13559" lon="5.91503">
        <ele>2144.1999511719</ele>
        <time>2021-01-06T09:11:44.000Z</time>
      </trkpt>
      <trkpt lat="45.1356" lon="5.91509">
        <ele>2144.8000488281</ele>
        <time>2021-01-06T09:11:50.000Z</time>
      </trkpt>
      <trkpt lat="45.1356" lon="5.9151">
        <ele>2145</ele>
        <time>2021-01-06T09:11:51.000Z</time>
      </trkpt>
      <trkpt lat="45.13561" lon="5.91516">
        <ele>2145.8000488281</ele>
        <time>2021-01-06T09:11:56.000Z</time>
      </trkpt>
      <trkpt lat="45.13565" lon="5.9152">
        <ele>2146.6000976562</ele>
        <time>2021-01-06T09:12:00.000Z</time>
      </trkpt>
      <trkpt lat="45.13565" lon="5.91521">
        <ele>2146.8000488281</ele>
        <time>2021-01-06T09:12:02.000Z</time>
      </trkpt>
      <trkpt lat="45.13565" lon="5.91525">
        <ele>2148</ele>
        <time>2021-01-06T09:12:07.000Z</time>
      </trkpt>
      <trkpt lat="45.13565" lon="5.9153">
        <ele>2149</ele>
        <time>2021-01-06T09:12:12.000Z</time>
      </trkpt>
      <trkpt lat="45.13565" lon="5.91531">
        <ele>2149.1999511719</ele>
        <time>2021-01-06T09:12:13.000Z</time>
      </trkpt>
      <trkpt lat="45.13565" lon="5.91534">
        <ele>2150</ele>
        <time>2021-01-06T09:12:17.000Z</time>
      </trkpt>
      <trkpt lat="45.13565" lon="5.91535">
        <ele>2150.1999511719</ele>
        <time>2021-01-06T09:12:19.000Z</time>
      </trkpt>
      <trkpt lat="45.13565" lon="5.91534">
        <ele>2151</ele>
        <time>2021-01-06T09:12:25.000Z</time>
      </trkpt>
      <trkpt lat="45.13566" lon="5.91533">
        <ele>2151.3999023438</ele>
        <time>2021-01-06T09:12:28.000Z</time>
      </trkpt>
      <trkpt lat="45.13568" lon="5.9153">
        <ele>2152</ele>
        <time>2021-01-06T09:12:32.000Z</time>
      </trkpt>
      <trkpt lat="45.13569" lon="5.91528">
        <ele>2152.3999023438</ele>
        <time>2021-01-06T09:12:34.000Z</time>
      </trkpt>
      <trkpt lat="45.13571" lon="5.91524">
        <ele>2153</ele>
        <time>2021-01-06T09:12:39.000Z</time>
      </trkpt>
      <trkpt lat="45.13572" lon="5.91522">
        <ele>2153.3999023438</ele>
        <time>2021-01-06T09:12:41.000Z</time>
      </trkpt>
      <trkpt lat="45.13572" lon="5.91522">
        <ele>2154</ele>
        <time>2021-01-06T09:12:44.000Z</time>
      </trkpt>
      <trkpt lat="45.13572" lon="5.91523">
        <ele>2154.3999023438</ele>
        <time>2021-01-06T09:12:47.000Z</time>
      </trkpt>
      <trkpt lat="45.13573" lon="5.91524">
        <ele>2154.8000488281</ele>
        <time>2021-01-06T09:12:50.000Z</time>
      </trkpt>
      <trkpt lat="45.13576" lon="5.91526">
        <ele>2155.6000976562</ele>
        <time>2021-01-06T09:12:53.000Z</time>
      </trkpt>
      <trkpt lat="45.13577" lon="5.91528">
        <ele>2156.1999511719</ele>
        <time>2021-01-06T09:12:56.000Z</time>
      </trkpt>
      <trkpt lat="45.13577" lon="5.9153">
        <ele>2156.6000976562</ele>
        <time>2021-01-06T09:12:58.000Z</time>
      </trkpt>
      <trkpt lat="45.13577" lon="5.91533">
        <ele>2157.6000976562</ele>
        <time>2021-01-06T09:13:03.000Z</time>
      </trkpt>
      <trkpt lat="45.13577" lon="5.91533">
        <ele>2157.8000488281</ele>
        <time>2021-01-06T09:13:04.000Z</time>
      </trkpt>
      <trkpt lat="45.13577" lon="5.91533">
        <ele>2158.3999023438</ele>
        <time>2021-01-06T09:13:09.000Z</time>
      </trkpt>
      <trkpt lat="45.13578" lon="5.91532">
        <ele>2158.6000976562</ele>
        <time>2021-01-06T09:13:12.000Z</time>
      </trkpt>
      <trkpt lat="45.13579" lon="5.91532">
        <ele>2158.8000488281</ele>
        <time>2021-01-06T09:13:13.000Z</time>
      </trkpt>
      <trkpt lat="45.13579" lon="5.91531">
        <ele>2159</ele>
        <time>2021-01-06T09:13:14.000Z</time>
      </trkpt>
      <trkpt lat="45.1358" lon="5.91527">
        <ele>2159.8000488281</ele>
        <time>2021-01-06T09:13:20.000Z</time>
      </trkpt>
      <trkpt lat="45.13579" lon="5.91527">
        <ele>2159.8000488281</ele>
        <time>2021-01-06T09:13:21.000Z</time>
      </trkpt>
      <trkpt lat="45.1358" lon="5.91527">
        <ele>2160.3999023438</ele>
        <time>2021-01-06T09:13:26.000Z</time>
      </trkpt>
      <trkpt lat="45.13579" lon="5.91531">
        <ele>2160.8000488281</ele>
        <time>2021-01-06T09:13:32.000Z</time>
      </trkpt>
      <trkpt lat="45.13579" lon="5.91531">
        <ele>2161</ele>
        <time>2021-01-06T09:13:33.000Z</time>
      </trkpt>
      <trkpt lat="45.13578" lon="5.91536">
        <ele>2161.8000488281</ele>
        <time>2021-01-06T09:13:37.000Z</time>
      </trkpt>
      <trkpt lat="45.13578" lon="5.91537">
        <ele>2162</ele>
        <time>2021-01-06T09:13:38.000Z</time>
      </trkpt>
      <trkpt lat="45.13578" lon="5.91538">
        <ele>2162.1999511719</ele>
        <time>2021-01-06T09:13:39.000Z</time>
      </trkpt>
      <trkpt lat="45.13577" lon="5.91538">
        <ele>2163</ele>
        <time>2021-01-06T09:13:43.000Z</time>
      </trkpt>
      <trkpt lat="45.13577" lon="5.91538">
        <ele>2163.1999511719</ele>
        <time>2021-01-06T09:13:45.000Z</time>
      </trkpt>
      <trkpt lat="45.13579" lon="5.91535">
        <ele>2163.6000976562</ele>
        <time>2021-01-06T09:13:52.000Z</time>
      </trkpt>
      <trkpt lat="45.13579" lon="5.91533">
        <ele>2164.1999511719</ele>
        <time>2021-01-06T09:13:55.000Z</time>
      </trkpt>
      <trkpt lat="45.13581" lon="5.91532">
        <ele>2164.1999511719</ele>
        <time>2021-01-06T09:13:56.000Z</time>
      </trkpt>
      <trkpt lat="45.13581" lon="5.91532">
        <ele>2164.3999023438</ele>
        <time>2021-01-06T09:13:57.000Z</time>
      </trkpt>
      <trkpt lat="45.13584" lon="5.91529">
        <ele>2164.6000976562</ele>
        <time>2021-01-06T09:14:01.000Z</time>
      </trkpt>
      <trkpt lat="45.13585" lon="5.91527">
        <ele>2165</ele>
        <time>2021-01-06T09:14:03.000Z</time>
      </trkpt>
      <trkpt lat="45.13585" lon="5.91526">
        <ele>2165.1999511719</ele>
        <time>2021-01-06T09:14:04.000Z</time>
      </trkpt>
      <trkpt lat="45.13587" lon="5.91525">
        <ele>2166.3999023438</ele>
        <time>2021-01-06T09:14:09.000Z</time>
      </trkpt>
      <trkpt lat="45.13588" lon="5.91522">
        <ele>2167.6000976562</ele>
        <time>2021-01-06T09:14:15.000Z</time>
      </trkpt>
      <trkpt lat="45.1359" lon="5.91519">
        <ele>2168.6000976562</ele>
        <time>2021-01-06T09:14:20.000Z</time>
      </trkpt>
      <trkpt lat="45.1359" lon="5.91518">
        <ele>2168.8000488281</ele>
        <time>2021-01-06T09:14:21.000Z</time>
      </trkpt>
      <trkpt lat="45.13591" lon="5.91515">
        <ele>2169.8000488281</ele>
        <time>2021-01-06T09:14:25.000Z</time>
      </trkpt>
      <trkpt lat="45.13592" lon="5.91513">
        <ele>2170.8000488281</ele>
        <time>2021-01-06T09:14:29.000Z</time>
      </trkpt>
      <trkpt lat="45.13593" lon="5.9151">
        <ele>2171.8000488281</ele>
        <time>2021-01-06T09:14:33.000Z</time>
      </trkpt>
      <trkpt lat="45.13593" lon="5.91509">
        <ele>2172.1999511719</ele>
        <time>2021-01-06T09:14:34.000Z</time>
      </trkpt>
      <trkpt lat="45.13593" lon="5.91507">
        <ele>2172.6000976562</ele>
        <time>2021-01-06T09:14:36.000Z</time>
      </trkpt>
      <trkpt lat="45.13594" lon="5.91503">
        <ele>2173.1999511719</ele>
        <time>2021-01-06T09:14:40.000Z</time>
      </trkpt>
      <trkpt lat="45.13594" lon="5.91501">
        <ele>2173.8000488281</ele>
        <time>2021-01-06T09:14:43.000Z</time>
      </trkpt>
      <trkpt lat="45.13594" lon="5.91501">
        <ele>2174.1999511719</ele>
        <time>2021-01-06T09:14:45.000Z</time>
      </trkpt>
      <trkpt lat="45.13594" lon="5.91501">
        <ele>2175</ele>
        <time>2021-01-06T09:14:49.000Z</time>
      </trkpt>
      <trkpt lat="45.13594" lon="5.91502">
        <ele>2175.3999023438</ele>
        <time>2021-01-06T09:14:51.000Z</time>
      </trkpt>
      <trkpt lat="45.13595" lon="5.91502">
        <ele>2175.3999023438</ele>
        <time>2021-01-06T09:14:52.000Z</time>
      </trkpt>
      <trkpt lat="45.13597" lon="5.91504">
        <ele>2175.6000976562</ele>
        <time>2021-01-06T09:14:55.000Z</time>
      </trkpt>
      <trkpt lat="45.136" lon="5.91507">
        <ele>2176.6000976562</ele>
        <time>2021-01-06T09:15:00.000Z</time>
      </trkpt>
      <trkpt lat="45.136" lon="5.91507">
        <ele>2176.8000488281</ele>
        <time>2021-01-06T09:15:01.000Z</time>
      </trkpt>
      <trkpt lat="45.13602" lon="5.9151">
        <ele>2177.6000976562</ele>
        <time>2021-01-06T09:15:05.000Z</time>
      </trkpt>
      <trkpt lat="45.13604" lon="5.91512">
        <ele>2178.1999511719</ele>
        <time>2021-01-06T09:15:08.000Z</time>
      </trkpt>
      <trkpt lat="45.13604" lon="5.91513">
        <ele>2178.8000488281</ele>
        <time>2021-01-06T09:15:10.000Z</time>
      </trkpt>
      <trkpt lat="45.13605" lon="5.91514">
        <ele>2179</ele>
        <time>2021-01-06T09:15:12.000Z</time>
      </trkpt>
      <trkpt lat="45.13606" lon="5.91516">
        <ele>2179.6000976562</ele>
        <time>2021-01-06T09:15:15.000Z</time>
      </trkpt>
      <trkpt lat="45.13607" lon="5.91517">
        <ele>2179.8000488281</ele>
        <time>2021-01-06T09:15:16.000Z</time>
      </trkpt>
      <trkpt lat="45.13608" lon="5.91521">
        <ele>2181</ele>
        <time>2021-01-06T09:15:20.000Z</time>
      </trkpt>
      <trkpt lat="45.13609" lon="5.91524">
        <ele>2181.6000976562</ele>
        <time>2021-01-06T09:15:23.000Z</time>
      </trkpt>
      <trkpt lat="45.13609" lon="5.91525">
        <ele>2182</ele>
        <time>2021-01-06T09:15:25.000Z</time>
      </trkpt>
      <trkpt lat="45.1361" lon="5.91528">
        <ele>2182.8000488281</ele>
        <time>2021-01-06T09:15:29.000Z</time>
      </trkpt>
      <trkpt lat="45.1361" lon="5.91529">
        <ele>2183.1999511719</ele>
        <time>2021-01-06T09:15:31.000Z</time>
      </trkpt>
      <trkpt lat="45.1361" lon="5.91533">
        <ele>2183.8000488281</ele>
        <time>2021-01-06T09:15:35.000Z</time>
      </trkpt>
      <trkpt lat="45.1361" lon="5.91534">
        <ele>2184.1999511719</ele>
        <time>2021-01-06T09:15:37.000Z</time>
      </trkpt>
      <trkpt lat="45.1361" lon="5.91537">
        <ele>2185.3999023438</ele>
        <time>2021-01-06T09:15:42.000Z</time>
      </trkpt>
      <trkpt lat="45.13612" lon="5.91536">
        <ele>2185.8000488281</ele>
        <time>2021-01-06T09:15:48.000Z</time>
      </trkpt>
      <trkpt lat="45.13614" lon="5.91534">
        <ele>2186.3999023438</ele>
        <time>2021-01-06T09:15:53.000Z</time>
      </trkpt>
      <trkpt lat="45.13615" lon="5.91533">
        <ele>2186.6000976562</ele>
        <time>2021-01-06T09:15:54.000Z</time>
      </trkpt>
      <trkpt lat="45.13617" lon="5.91531">
        <ele>2187.3999023438</ele>
        <time>2021-01-06T09:15:59.000Z</time>
      </trkpt>
      <trkpt lat="45.13617" lon="5.9153">
        <ele>2187.6000976562</ele>
        <time>2021-01-06T09:16:00.000Z</time>
      </trkpt>
      <trkpt lat="45.13619" lon="5.91526">
        <ele>2188.6000976562</ele>
        <time>2021-01-06T09:16:05.000Z</time>
      </trkpt>
      <trkpt lat="45.1362" lon="5.91525">
        <ele>2189</ele>
        <time>2021-01-06T09:16:07.000Z</time>
      </trkpt>
      <trkpt lat="45.1362" lon="5.91523">
        <ele>2189.8000488281</ele>
        <time>2021-01-06T09:16:10.000Z</time>
      </trkpt>
      <trkpt lat="45.13621" lon="5.91523">
        <ele>2190.1999511719</ele>
        <time>2021-01-06T09:16:12.000Z</time>
      </trkpt>
      <trkpt lat="45.13622" lon="5.91525">
        <ele>2190.6000976562</ele>
        <time>2021-01-06T09:16:16.000Z</time>
      </trkpt>
      <trkpt lat="45.13622" lon="5.91526">
        <ele>2190.6000976562</ele>
        <time>2021-01-06T09:16:17.000Z</time>
      </trkpt>
      <trkpt lat="45.13622" lon="5.91527">
        <ele>2190.8000488281</ele>
        <time>2021-01-06T09:16:18.000Z</time>
      </trkpt>
      <trkpt lat="45.13623" lon="5.91532">
        <ele>2191.3999023438</ele>
        <time>2021-01-06T09:16:24.000Z</time>
      </trkpt>
      <trkpt lat="45.13622" lon="5.91534">
        <ele>2191.8000488281</ele>
        <time>2021-01-06T09:16:26.000Z</time>
      </trkpt>
      <trkpt lat="45.13623" lon="5.91536">
        <ele>2192.8000488281</ele>
        <time>2021-01-06T09:16:31.000Z</time>
      </trkpt>
      <trkpt lat="45.13623" lon="5.91533">
        <ele>2193.6000976562</ele>
        <time>2021-01-06T09:16:37.000Z</time>
      </trkpt>
      <trkpt lat="45.13625" lon="5.91527">
        <ele>2193.6000976562</ele>
        <time>2021-01-06T09:16:43.000Z</time>
      </trkpt>
      <trkpt lat="45.13626" lon="5.91525">
        <ele>2194</ele>
        <time>2021-01-06T09:16:45.000Z</time>
      </trkpt>
      <trkpt lat="45.13627" lon="5.91522">
        <ele>2194.6000976562</ele>
        <time>2021-01-06T09:16:49.000Z</time>
      </trkpt>
      <trkpt lat="45.13627" lon="5.91521">
        <ele>2195</ele>
        <time>2021-01-06T09:16:51.000Z</time>
      </trkpt>
      <trkpt lat="45.13628" lon="5.91517">
        <ele>2196</ele>
        <time>2021-01-06T09:16:55.000Z</time>
      </trkpt>
      <trkpt lat="45.13628" lon="5.91516">
        <ele>2196</ele>
        <time>2021-01-06T09:16:56.000Z</time>
      </trkpt>
      <trkpt lat="45.13628" lon="5.91513">
        <ele>2197.1999511719</ele>
        <time>2021-01-06T09:17:02.000Z</time>
      </trkpt>
      <trkpt lat="45.1363" lon="5.91515">
        <ele>2197.8000488281</ele>
        <time>2021-01-06T09:17:10.000Z</time>
      </trkpt>
      <trkpt lat="45.1363" lon="5.91515">
        <ele>2198.1999511719</ele>
        <time>2021-01-06T09:17:13.000Z</time>
      </trkpt>
      <trkpt lat="45.1363" lon="5.91514">
        <ele>2198.6000976562</ele>
        <time>2021-01-06T09:17:17.000Z</time>
      </trkpt>
      <trkpt lat="45.1363" lon="5.91511">
        <ele>2199</ele>
        <time>2021-01-06T09:17:21.000Z</time>
      </trkpt>
      <trkpt lat="45.1363" lon="5.9151">
        <ele>2199.1999511719</ele>
        <time>2021-01-06T09:17:23.000Z</time>
      </trkpt>
      <trkpt lat="45.13631" lon="5.91509">
        <ele>2199.3999023438</ele>
        <time>2021-01-06T09:17:24.000Z</time>
      </trkpt>
      <trkpt lat="45.13632" lon="5.91504">
        <ele>2200.3999023438</ele>
        <time>2021-01-06T09:17:30.000Z</time>
      </trkpt>
      <trkpt lat="45.13633" lon="5.91499">
        <ele>2201.6000976562</ele>
        <time>2021-01-06T09:17:36.000Z</time>
      </trkpt>
      <trkpt lat="45.13633" lon="5.91498">
        <ele>2201.8000488281</ele>
        <time>2021-01-06T09:17:37.000Z</time>
      </trkpt>
      <trkpt lat="45.13634" lon="5.91496">
        <ele>2202.8000488281</ele>
        <time>2021-01-06T09:17:41.000Z</time>
      </trkpt>
      <trkpt lat="45.13634" lon="5.91496">
        <ele>2203.1999511719</ele>
        <time>2021-01-06T09:17:44.000Z</time>
      </trkpt>
      <trkpt lat="45.13637" lon="5.915">
        <ele>2203.8000488281</ele>
        <time>2021-01-06T09:17:50.000Z</time>
      </trkpt>
      <trkpt lat="45.13637" lon="5.915">
        <ele>2204</ele>
        <time>2021-01-06T09:17:51.000Z</time>
      </trkpt>
      <trkpt lat="45.1364" lon="5.91504">
        <ele>2205</ele>
        <time>2021-01-06T09:17:56.000Z</time>
      </trkpt>
      <trkpt lat="45.13641" lon="5.91505">
        <ele>2206</ele>
        <time>2021-01-06T09:18:02.000Z</time>
      </trkpt>
      <trkpt lat="45.13643" lon="5.91509">
        <ele>2207.1999511719</ele>
        <time>2021-01-06T09:18:07.000Z</time>
      </trkpt>
      <trkpt lat="45.13644" lon="5.9151">
        <ele>2207.3999023438</ele>
        <time>2021-01-06T09:18:08.000Z</time>
      </trkpt>
      <trkpt lat="45.13646" lon="5.91512">
        <ele>2208.1999511719</ele>
        <time>2021-01-06T09:18:12.000Z</time>
      </trkpt>
      <trkpt lat="45.13647" lon="5.91514">
        <ele>2208.3999023438</ele>
        <time>2021-01-06T09:18:14.000Z</time>
      </trkpt>
      <trkpt lat="45.13649" lon="5.91518">
        <ele>2209.3999023438</ele>
        <time>2021-01-06T09:18:19.000Z</time>
      </trkpt>
      <trkpt lat="45.1365" lon="5.91519">
        <ele>2209.8000488281</ele>
        <time>2021-01-06T09:18:21.000Z</time>
      </trkpt>
      <trkpt lat="45.13651" lon="5.91521">
        <ele>2210.3999023438</ele>
        <time>2021-01-06T09:18:24.000Z</time>
      </trkpt>
      <trkpt lat="45.13653" lon="5.91524">
        <ele>2211.1999511719</ele>
        <time>2021-01-06T09:18:28.000Z</time>
      </trkpt>
      <trkpt lat="45.13653" lon="5.91525">
        <ele>2211.8000488281</ele>
        <time>2021-01-06T09:18:29.000Z</time>
      </trkpt>
      <trkpt lat="45.13654" lon="5.9153">
        <ele>2212.6000976562</ele>
        <time>2021-01-06T09:18:34.000Z</time>
      </trkpt>
      <trkpt lat="45.13655" lon="5.91531">
        <ele>2212.8000488281</ele>
        <time>2021-01-06T09:18:35.000Z</time>
      </trkpt>
      <trkpt lat="45.13655" lon="5.91533">
        <ele>2213.8000488281</ele>
        <time>2021-01-06T09:18:40.000Z</time>
      </trkpt>
      <trkpt lat="45.13655" lon="5.91535">
        <ele>2214.1999511719</ele>
        <time>2021-01-06T09:18:42.000Z</time>
      </trkpt>
      <trkpt lat="45.13656" lon="5.91538">
        <ele>2215</ele>
        <time>2021-01-06T09:18:45.000Z</time>
      </trkpt>
      <trkpt lat="45.13656" lon="5.91538">
        <ele>2215.1999511719</ele>
        <time>2021-01-06T09:18:46.000Z</time>
      </trkpt>
      <trkpt lat="45.13657" lon="5.91541">
        <ele>2216.1999511719</ele>
        <time>2021-01-06T09:18:50.000Z</time>
      </trkpt>
      <trkpt lat="45.13657" lon="5.91542">
        <ele>2216.6000976562</ele>
        <time>2021-01-06T09:18:52.000Z</time>
      </trkpt>
      <trkpt lat="45.13656" lon="5.91543">
        <ele>2217</ele>
        <time>2021-01-06T09:18:53.000Z</time>
      </trkpt>
      <trkpt lat="45.13656" lon="5.91544">
        <ele>2217.1999511719</ele>
        <time>2021-01-06T09:18:54.000Z</time>
      </trkpt>
      <trkpt lat="45.13655" lon="5.91548">
        <ele>2218</ele>
        <time>2021-01-06T09:18:58.000Z</time>
      </trkpt>
      <trkpt lat="45.13656" lon="5.91548">
        <ele>2218.1999511719</ele>
        <time>2021-01-06T09:18:59.000Z</time>
      </trkpt>
      <trkpt lat="45.13657" lon="5.91551">
        <ele>2219</ele>
        <time>2021-01-06T09:19:03.000Z</time>
      </trkpt>
      <trkpt lat="45.13658" lon="5.91552">
        <ele>2219.3999023438</ele>
        <time>2021-01-06T09:19:05.000Z</time>
      </trkpt>
      <trkpt lat="45.13661" lon="5.91553">
        <ele>2220</ele>
        <time>2021-01-06T09:19:08.000Z</time>
      </trkpt>
      <trkpt lat="45.13661" lon="5.91553">
        <ele>2220.1999511719</ele>
        <time>2021-01-06T09:19:09.000Z</time>
      </trkpt>
      <trkpt lat="45.13662" lon="5.91553">
        <ele>2220.3999023438</ele>
        <time>2021-01-06T09:19:10.000Z</time>
      </trkpt>
      <trkpt lat="45.13667" lon="5.91554">
        <ele>2221.6000976562</ele>
        <time>2021-01-06T09:19:16.000Z</time>
      </trkpt>
      <trkpt lat="45.13671" lon="5.91554">
        <ele>2222.6000976562</ele>
        <time>2021-01-06T09:19:21.000Z</time>
      </trkpt>
      <trkpt lat="45.13672" lon="5.91554">
        <ele>2223</ele>
        <time>2021-01-06T09:19:23.000Z</time>
      </trkpt>
      <trkpt lat="45.13676" lon="5.91555">
        <ele>2223.6000976562</ele>
        <time>2021-01-06T09:19:27.000Z</time>
      </trkpt>
      <trkpt lat="45.13677" lon="5.91554">
        <ele>2223.8000488281</ele>
        <time>2021-01-06T09:19:28.000Z</time>
      </trkpt>
      <trkpt lat="45.13677" lon="5.91554">
        <ele>2224</ele>
        <time>2021-01-06T09:19:29.000Z</time>
      </trkpt>
      <trkpt lat="45.13681" lon="5.91554">
        <ele>2224.8000488281</ele>
        <time>2021-01-06T09:19:33.000Z</time>
      </trkpt>
      <trkpt lat="45.13683" lon="5.91553">
        <ele>2225.1999511719</ele>
        <time>2021-01-06T09:19:35.000Z</time>
      </trkpt>
      <trkpt lat="45.13686" lon="5.91553">
        <ele>2225.8000488281</ele>
        <time>2021-01-06T09:19:39.000Z</time>
      </trkpt>
      <trkpt lat="45.13688" lon="5.91552">
        <ele>2226.6000976562</ele>
        <time>2021-01-06T09:19:41.000Z</time>
      </trkpt>
      <trkpt lat="45.13689" lon="5.91553">
        <ele>2226.8000488281</ele>
        <time>2021-01-06T09:19:42.000Z</time>
      </trkpt>
      <trkpt lat="45.13689" lon="5.91553">
        <ele>2227</ele>
        <time>2021-01-06T09:19:43.000Z</time>
      </trkpt>
      <trkpt lat="45.13693" lon="5.91552">
        <ele>2227.8000488281</ele>
        <time>2021-01-06T09:19:47.000Z</time>
      </trkpt>
      <trkpt lat="45.13695" lon="5.91552">
        <ele>2228</ele>
        <time>2021-01-06T09:19:49.000Z</time>
      </trkpt>
      <trkpt lat="45.137" lon="5.91553">
        <ele>2229.1999511719</ele>
        <time>2021-01-06T09:19:55.000Z</time>
      </trkpt>
      <trkpt lat="45.13704" lon="5.91555">
        <ele>2230.1999511719</ele>
        <time>2021-01-06T09:20:01.000Z</time>
      </trkpt>
      <trkpt lat="45.13706" lon="5.91555">
        <ele>2230.3999023438</ele>
        <time>2021-01-06T09:20:03.000Z</time>
      </trkpt>
      <trkpt lat="45.1371" lon="5.91555">
        <ele>2231.1999511719</ele>
        <time>2021-01-06T09:20:09.000Z</time>
      </trkpt>
      <trkpt lat="45.13711" lon="5.91556">
        <ele>2231.8000488281</ele>
        <time>2021-01-06T09:20:15.000Z</time>
      </trkpt>
      <trkpt lat="45.13711" lon="5.91556">
        <ele>2231.8000488281</ele>
        <time>2021-01-06T09:20:21.000Z</time>
      </trkpt>
      <trkpt lat="45.13711" lon="5.91556">
        <ele>2230.3999023438</ele>
        <time>2021-01-06T09:20:32.000Z</time>
      </trkpt>
      <trkpt lat="45.13711" lon="5.91556">
        <ele>2230.1999511719</ele>
        <time>2021-01-06T09:20:37.000Z</time>
      </trkpt>
      <trkpt lat="45.13711" lon="5.91556">
        <ele>2230.1999511719</ele>
        <time>2021-01-06T09:20:46.000Z</time>
      </trkpt>
      <trkpt lat="45.13711" lon="5.91556">
        <ele>2230.1999511719</ele>
        <time>2021-01-06T09:20:50.000Z</time>
      </trkpt>
      <trkpt lat="45.13711" lon="5.91556">
        <ele>2230</ele>
        <time>2021-01-06T09:21:09.000Z</time>
      </trkpt>
      <trkpt lat="45.13711" lon="5.91556">
        <ele>2230</ele>
        <time>2021-01-06T09:21:25.000Z</time>
      </trkpt>
      <trkpt lat="45.13711" lon="5.91556">
        <ele>2230</ele>
        <time>2021-01-06T09:21:36.000Z</time>
      </trkpt>
      <trkpt lat="45.13711" lon="5.91556">
        <ele>2231.1999511719</ele>
        <time>2021-01-06T09:21:41.000Z</time>
      </trkpt>
      <trkpt lat="45.13711" lon="5.91556">
        <ele>2231.3999023438</ele>
        <time>2021-01-06T09:21:45.000Z</time>
      </trkpt>
      <trkpt lat="45.13711" lon="5.91556">
        <ele>2231</ele>
        <time>2021-01-06T09:21:52.000Z</time>
      </trkpt>
      <trkpt lat="45.13711" lon="5.91556">
        <ele>2231.1999511719</ele>
        <time>2021-01-06T09:22:03.000Z</time>
      </trkpt>
      <trkpt lat="45.13711" lon="5.91556">
        <ele>2231</ele>
        <time>2021-01-06T09:22:12.000Z</time>
      </trkpt>
      <trkpt lat="45.13711" lon="5.91556">
        <ele>2231</ele>
        <time>2021-01-06T09:22:19.000Z</time>
      </trkpt>
      <trkpt lat="45.13711" lon="5.91556">
        <ele>2231</ele>
        <time>2021-01-06T09:22:26.000Z</time>
      </trkpt>
      <trkpt lat="45.13711" lon="5.91556">
        <ele>2231.3999023438</ele>
        <time>2021-01-06T09:22:39.000Z</time>
      </trkpt>
      <trkpt lat="45.13711" lon="5.91556">
        <ele>2231.3999023438</ele>
        <time>2021-01-06T09:22:47.000Z</time>
      </trkpt>
      <trkpt lat="45.13711" lon="5.91556">
        <ele>2231.3999023438</ele>
        <time>2021-01-06T09:22:57.000Z</time>
      </trkpt>
      <trkpt lat="45.13711" lon="5.91556">
        <ele>2231.3999023438</ele>
        <time>2021-01-06T09:23:06.000Z</time>
      </trkpt>
      <trkpt lat="45.13711" lon="5.91555">
        <ele>2231.3999023438</ele>
        <time>2021-01-06T09:23:16.000Z</time>
      </trkpt>
      <trkpt lat="45.13711" lon="5.91555">
        <ele>2231.1999511719</ele>
        <time>2021-01-06T09:23:27.000Z</time>
      </trkpt>
      <trkpt lat="45.13711" lon="5.91555">
        <ele>2231.3999023438</ele>
        <time>2021-01-06T09:23:28.000Z</time>
      </trkpt>
      <trkpt lat="45.13712" lon="5.91552">
        <ele>2231.6000976562</ele>
        <time>2021-01-06T09:23:33.000Z</time>
      </trkpt>
      <trkpt lat="45.13712" lon="5.91552">
        <ele>2232</ele>
        <time>2021-01-06T09:23:48.000Z</time>
      </trkpt>
      <trkpt lat="45.13712" lon="5.91552">
        <ele>2231.8000488281</ele>
        <time>2021-01-06T09:24:02.000Z</time>
      </trkpt>
      <trkpt lat="45.13712" lon="5.91552">
        <ele>2231.8000488281</ele>
        <time>2021-01-06T09:24:15.000Z</time>
      </trkpt>
      <trkpt lat="45.13712" lon="5.91552">
        <ele>2231.3999023438</ele>
        <time>2021-01-06T09:24:22.000Z</time>
      </trkpt>
      <trkpt lat="45.13712" lon="5.91552">
        <ele>2230.8000488281</ele>
        <time>2021-01-06T09:24:36.000Z</time>
      </trkpt>
      <trkpt lat="45.13712" lon="5.91552">
        <ele>2230.8000488281</ele>
        <time>2021-01-06T09:24:48.000Z</time>
      </trkpt>
      <trkpt lat="45.13712" lon="5.91552">
        <ele>2231.1999511719</ele>
        <time>2021-01-06T09:24:57.000Z</time>
      </trkpt>
      <trkpt lat="45.13712" lon="5.91552">
        <ele>2231.1999511719</ele>
        <time>2021-01-06T09:25:06.000Z</time>
      </trkpt>
      <trkpt lat="45.13712" lon="5.91552">
        <ele>2231</ele>
        <time>2021-01-06T09:25:18.000Z</time>
      </trkpt>
      <trkpt lat="45.13712" lon="5.91552">
        <ele>2231.1999511719</ele>
        <time>2021-01-06T09:25:34.000Z</time>
      </trkpt>
      <trkpt lat="45.13712" lon="5.91552">
        <ele>2231.3999023438</ele>
        <time>2021-01-06T09:25:40.000Z</time>
      </trkpt>
      <trkpt lat="45.13712" lon="5.91552">
        <ele>2231.3999023438</ele>
        <time>2021-01-06T09:25:43.000Z</time>
      </trkpt>
      <trkpt lat="45.13712" lon="5.91552">
        <ele>2231</ele>
        <time>2021-01-06T09:25:55.000Z</time>
      </trkpt>
      <trkpt lat="45.13712" lon="5.91552">
        <ele>2230.8000488281</ele>
        <time>2021-01-06T09:26:05.000Z</time>
      </trkpt>
      <trkpt lat="45.13712" lon="5.91552">
        <ele>2230.8000488281</ele>
        <time>2021-01-06T09:26:18.000Z</time>
      </trkpt>
      <trkpt lat="45.13712" lon="5.91552">
        <ele>2230.6000976562</ele>
        <time>2021-01-06T09:26:32.000Z</time>
      </trkpt>
      <trkpt lat="45.13712" lon="5.91552">
        <ele>2230.6000976562</ele>
        <time>2021-01-06T09:26:44.000Z</time>
      </trkpt>
      <trkpt lat="45.13712" lon="5.91552">
        <ele>2231</ele>
        <time>2021-01-06T09:26:58.000Z</time>
      </trkpt>
      <trkpt lat="45.13712" lon="5.91552">
        <ele>2231</ele>
        <time>2021-01-06T09:27:10.000Z</time>
      </trkpt>
      <trkpt lat="45.13712" lon="5.91552">
        <ele>2230.6000976562</ele>
        <time>2021-01-06T09:27:24.000Z</time>
      </trkpt>
      <trkpt lat="45.13712" lon="5.91552">
        <ele>2230.6000976562</ele>
        <time>2021-01-06T09:27:37.000Z</time>
      </trkpt>
      <trkpt lat="45.13712" lon="5.91552">
        <ele>2231</ele>
        <time>2021-01-06T09:27:49.000Z</time>
      </trkpt>
      <trkpt lat="45.13712" lon="5.91552">
        <ele>2230.8000488281</ele>
        <time>2021-01-06T09:27:59.000Z</time>
      </trkpt>
      <trkpt lat="45.13712" lon="5.91552">
        <ele>2231</ele>
        <time>2021-01-06T09:28:12.000Z</time>
      </trkpt>
      <trkpt lat="45.13712" lon="5.91552">
        <ele>2230.8000488281</ele>
        <time>2021-01-06T09:28:27.000Z</time>
      </trkpt>
      <trkpt lat="45.13712" lon="5.91552">
        <ele>2230</ele>
        <time>2021-01-06T09:28:39.000Z</time>
      </trkpt>
      <trkpt lat="45.13712" lon="5.91552">
        <ele>2231</ele>
        <time>2021-01-06T09:28:49.000Z</time>
      </trkpt>
      <trkpt lat="45.13711" lon="5.91553">
        <ele>2230.8000488281</ele>
        <time>2021-01-06T09:28:56.000Z</time>
      </trkpt>
      <trkpt lat="45.13711" lon="5.91554">
        <ele>2230.3999023438</ele>
        <time>2021-01-06T09:29:08.000Z</time>
      </trkpt>
      <trkpt lat="45.13711" lon="5.91557">
        <ele>2230.3999023438</ele>
        <time>2021-01-06T09:29:09.000Z</time>
      </trkpt>
      <trkpt lat="45.13711" lon="5.91568">
        <ele>2229.8000488281</ele>
        <time>2021-01-06T09:29:12.000Z</time>
      </trkpt>
      <trkpt lat="45.13715" lon="5.91572">
        <ele>2229</ele>
        <time>2021-01-06T09:29:14.000Z</time>
      </trkpt>
      <trkpt lat="45.1372" lon="5.91579">
        <ele>2227</ele>
        <time>2021-01-06T09:29:16.000Z</time>
      </trkpt>
      <trkpt lat="45.1372" lon="5.91583">
        <ele>2225.8000488281</ele>
        <time>2021-01-06T09:29:17.000Z</time>
      </trkpt>
      <trkpt lat="45.1372" lon="5.91585">
        <ele>2222.8000488281</ele>
        <time>2021-01-06T09:29:18.000Z</time>
      </trkpt>
      <trkpt lat="45.1372" lon="5.91589">
        <ele>2221.3999023438</ele>
        <time>2021-01-06T09:29:19.000Z</time>
      </trkpt>
      <trkpt lat="45.1372" lon="5.91593">
        <ele>2220</ele>
        <time>2021-01-06T09:29:20.000Z</time>
      </trkpt>
      <trkpt lat="45.1372" lon="5.91597">
        <ele>2218.8000488281</ele>
        <time>2021-01-06T09:29:21.000Z</time>
      </trkpt>
      <trkpt lat="45.1372" lon="5.916">
        <ele>2217.6000976562</ele>
        <time>2021-01-06T09:29:22.000Z</time>
      </trkpt>
      <trkpt lat="45.13719" lon="5.91603">
        <ele>2216</ele>
        <time>2021-01-06T09:29:23.000Z</time>
      </trkpt>
      <trkpt lat="45.13718" lon="5.91608">
        <ele>2214.1999511719</ele>
        <time>2021-01-06T09:29:24.000Z</time>
      </trkpt>
      <trkpt lat="45.13718" lon="5.91612">
        <ele>2212.1999511719</ele>
        <time>2021-01-06T09:29:25.000Z</time>
      </trkpt>
      <trkpt lat="45.13719" lon="5.91613">
        <ele>2210.6000976562</ele>
        <time>2021-01-06T09:29:26.000Z</time>
      </trkpt>
      <trkpt lat="45.13719" lon="5.91613">
        <ele>2209.3999023438</ele>
        <time>2021-01-06T09:29:27.000Z</time>
      </trkpt>
      <trkpt lat="45.13717" lon="5.91617">
        <ele>2208.1999511719</ele>
        <time>2021-01-06T09:29:28.000Z</time>
      </trkpt>
      <trkpt lat="45.13717" lon="5.91623">
        <ele>2207</ele>
        <time>2021-01-06T09:29:29.000Z</time>
      </trkpt>
      <trkpt lat="45.13712" lon="5.91632">
        <ele>2205</ele>
        <time>2021-01-06T09:29:31.000Z</time>
      </trkpt>
      <trkpt lat="45.1371" lon="5.91634">
        <ele>2203.8000488281</ele>
        <time>2021-01-06T09:29:32.000Z</time>
      </trkpt>
      <trkpt lat="45.13709" lon="5.91637">
        <ele>2202.3999023438</ele>
        <time>2021-01-06T09:29:33.000Z</time>
      </trkpt>
      <trkpt lat="45.13704" lon="5.91639">
        <ele>2201</ele>
        <time>2021-01-06T09:29:34.000Z</time>
      </trkpt>
      <trkpt lat="45.137" lon="5.91641">
        <ele>2199.3999023438</ele>
        <time>2021-01-06T09:29:35.000Z</time>
      </trkpt>
      <trkpt lat="45.13696" lon="5.91643">
        <ele>2197.8000488281</ele>
        <time>2021-01-06T09:29:36.000Z</time>
      </trkpt>
      <trkpt lat="45.13692" lon="5.91642">
        <ele>2195.8000488281</ele>
        <time>2021-01-06T09:29:37.000Z</time>
      </trkpt>
      <trkpt lat="45.1369" lon="5.9164">
        <ele>2193.8000488281</ele>
        <time>2021-01-06T09:29:38.000Z</time>
      </trkpt>
      <trkpt lat="45.13688" lon="5.91638">
        <ele>2192</ele>
        <time>2021-01-06T09:29:39.000Z</time>
      </trkpt>
      <trkpt lat="45.13686" lon="5.91637">
        <ele>2190.1999511719</ele>
        <time>2021-01-06T09:29:40.000Z</time>
      </trkpt>
      <trkpt lat="45.13683" lon="5.91636">
        <ele>2188.6000976562</ele>
        <time>2021-01-06T09:29:41.000Z</time>
      </trkpt>
      <trkpt lat="45.13679" lon="5.91637">
        <ele>2187.1999511719</ele>
        <time>2021-01-06T09:29:42.000Z</time>
      </trkpt>
      <trkpt lat="45.13673" lon="5.91636">
        <ele>2185.8000488281</ele>
        <time>2021-01-06T09:29:45.000Z</time>
      </trkpt>
      <trkpt lat="45.13672" lon="5.91637">
        <ele>2185.3999023438</ele>
        <time>2021-01-06T09:29:46.000Z</time>
      </trkpt>
      <trkpt lat="45.13666" lon="5.9164">
        <ele>2184.1999511719</ele>
        <time>2021-01-06T09:29:48.000Z</time>
      </trkpt>
      <trkpt lat="45.1366" lon="5.91644">
        <ele>2182.3999023438</ele>
        <time>2021-01-06T09:29:50.000Z</time>
      </trkpt>
      <trkpt lat="45.13659" lon="5.91645">
        <ele>2181.3999023438</ele>
        <time>2021-01-06T09:29:51.000Z</time>
      </trkpt>
      <trkpt lat="45.13658" lon="5.91645">
        <ele>2180.1999511719</ele>
        <time>2021-01-06T09:29:52.000Z</time>
      </trkpt>
      <trkpt lat="45.13658" lon="5.91644">
        <ele>2179</ele>
        <time>2021-01-06T09:29:53.000Z</time>
      </trkpt>
      <trkpt lat="45.13658" lon="5.91644">
        <ele>2177.8000488281</ele>
        <time>2021-01-06T09:29:55.000Z</time>
      </trkpt>
      <trkpt lat="45.13656" lon="5.91647">
        <ele>2177.1999511719</ele>
        <time>2021-01-06T09:29:57.000Z</time>
      </trkpt>
      <trkpt lat="45.13654" lon="5.9165">
        <ele>2177</ele>
        <time>2021-01-06T09:29:59.000Z</time>
      </trkpt>
      <trkpt lat="45.13651" lon="5.9165">
        <ele>2176.6000976562</ele>
        <time>2021-01-06T09:30:00.000Z</time>
      </trkpt>
      <trkpt lat="45.1365" lon="5.9165">
        <ele>2174.6000976562</ele>
        <time>2021-01-06T09:30:02.000Z</time>
      </trkpt>
      <trkpt lat="45.13649" lon="5.9165">
        <ele>2173.1999511719</ele>
        <time>2021-01-06T09:30:03.000Z</time>
      </trkpt>
      <trkpt lat="45.13647" lon="5.91652">
        <ele>2172</ele>
        <time>2021-01-06T09:30:04.000Z</time>
      </trkpt>
      <trkpt lat="45.13646" lon="5.91651">
        <ele>2169.3999023438</ele>
        <time>2021-01-06T09:30:06.000Z</time>
      </trkpt>
      <trkpt lat="45.13643" lon="5.91652">
        <ele>2167.6000976562</ele>
        <time>2021-01-06T09:30:08.000Z</time>
      </trkpt>
      <trkpt lat="45.13641" lon="5.91652">
        <ele>2166.1999511719</ele>
        <time>2021-01-06T09:30:10.000Z</time>
      </trkpt>
      <trkpt lat="45.13639" lon="5.91653">
        <ele>2164.8000488281</ele>
        <time>2021-01-06T09:30:12.000Z</time>
      </trkpt>
      <trkpt lat="45.13639" lon="5.91656">
        <ele>2163.1999511719</ele>
        <time>2021-01-06T09:30:14.000Z</time>
      </trkpt>
      <trkpt lat="45.13639" lon="5.91656">
        <ele>2162.3999023438</ele>
        <time>2021-01-06T09:30:15.000Z</time>
      </trkpt>
      <trkpt lat="45.13639" lon="5.91657">
        <ele>2161.6000976562</ele>
        <time>2021-01-06T09:30:16.000Z</time>
      </trkpt>
      <trkpt lat="45.13639" lon="5.91657">
        <ele>2160</ele>
        <time>2021-01-06T09:30:18.000Z</time>
      </trkpt>
      <trkpt lat="45.13637" lon="5.9166">
        <ele>2158.6000976562</ele>
        <time>2021-01-06T09:30:20.000Z</time>
      </trkpt>
      <trkpt lat="45.13633" lon="5.91663">
        <ele>2157.3999023438</ele>
        <time>2021-01-06T09:30:23.000Z</time>
      </trkpt>
      <trkpt lat="45.13633" lon="5.91664">
        <ele>2156.1999511719</ele>
        <time>2021-01-06T09:30:25.000Z</time>
      </trkpt>
      <trkpt lat="45.13632" lon="5.91664">
        <ele>2154.8000488281</ele>
        <time>2021-01-06T09:30:27.000Z</time>
      </trkpt>
      <trkpt lat="45.13631" lon="5.91668">
        <ele>2153.1999511719</ele>
        <time>2021-01-06T09:30:30.000Z</time>
      </trkpt>
      <trkpt lat="45.13629" lon="5.9167">
        <ele>2152.6000976562</ele>
        <time>2021-01-06T09:30:31.000Z</time>
      </trkpt>
      <trkpt lat="45.13629" lon="5.91671">
        <ele>2152</ele>
        <time>2021-01-06T09:30:32.000Z</time>
      </trkpt>
      <trkpt lat="45.13627" lon="5.91672">
        <ele>2150.3999023438</ele>
        <time>2021-01-06T09:30:34.000Z</time>
      </trkpt>
      <trkpt lat="45.13626" lon="5.91673">
        <ele>2149.6000976562</ele>
        <time>2021-01-06T09:30:35.000Z</time>
      </trkpt>
      <trkpt lat="45.13626" lon="5.91673">
        <ele>2148.6000976562</ele>
        <time>2021-01-06T09:30:36.000Z</time>
      </trkpt>
      <trkpt lat="45.13624" lon="5.91675">
        <ele>2147.3999023438</ele>
        <time>2021-01-06T09:30:38.000Z</time>
      </trkpt>
      <trkpt lat="45.13624" lon="5.91678">
        <ele>2147</ele>
        <time>2021-01-06T09:30:39.000Z</time>
      </trkpt>
      <trkpt lat="45.13625" lon="5.9168">
        <ele>2146.6000976562</ele>
        <time>2021-01-06T09:30:40.000Z</time>
      </trkpt>
      <trkpt lat="45.13625" lon="5.91681">
        <ele>2146</ele>
        <time>2021-01-06T09:30:41.000Z</time>
      </trkpt>
      <trkpt lat="45.13625" lon="5.91683">
        <ele>2144.3999023438</ele>
        <time>2021-01-06T09:30:43.000Z</time>
      </trkpt>
      <trkpt lat="45.13623" lon="5.91683">
        <ele>2143.3999023438</ele>
        <time>2021-01-06T09:30:44.000Z</time>
      </trkpt>
      <trkpt lat="45.13621" lon="5.91684">
        <ele>2142.3999023438</ele>
        <time>2021-01-06T09:30:45.000Z</time>
      </trkpt>
      <trkpt lat="45.13618" lon="5.91685">
        <ele>2140.6000976562</ele>
        <time>2021-01-06T09:30:47.000Z</time>
      </trkpt>
      <trkpt lat="45.13616" lon="5.91685">
        <ele>2138.6000976562</ele>
        <time>2021-01-06T09:30:49.000Z</time>
      </trkpt>
      <trkpt lat="45.13615" lon="5.91687">
        <ele>2137.8000488281</ele>
        <time>2021-01-06T09:30:50.000Z</time>
      </trkpt>
      <trkpt lat="45.13613" lon="5.91688">
        <ele>2137</ele>
        <time>2021-01-06T09:30:51.000Z</time>
      </trkpt>
      <trkpt lat="45.13613" lon="5.91691">
        <ele>2135.8000488281</ele>
        <time>2021-01-06T09:30:53.000Z</time>
      </trkpt>
      <trkpt lat="45.13613" lon="5.91693">
        <ele>2134.3999023438</ele>
        <time>2021-01-06T09:30:54.000Z</time>
      </trkpt>
      <trkpt lat="45.13614" lon="5.91697">
        <ele>2133.6000976562</ele>
        <time>2021-01-06T09:30:55.000Z</time>
      </trkpt>
      <trkpt lat="45.13615" lon="5.917">
        <ele>2132.6000976562</ele>
        <time>2021-01-06T09:30:56.000Z</time>
      </trkpt>
      <trkpt lat="45.13617" lon="5.91703">
        <ele>2130.8000488281</ele>
        <time>2021-01-06T09:30:58.000Z</time>
      </trkpt>
      <trkpt lat="45.13618" lon="5.91703">
        <ele>2129.8000488281</ele>
        <time>2021-01-06T09:30:59.000Z</time>
      </trkpt>
      <trkpt lat="45.13619" lon="5.91703">
        <ele>2128.8000488281</ele>
        <time>2021-01-06T09:31:00.000Z</time>
      </trkpt>
      <trkpt lat="45.13619" lon="5.91703">
        <ele>2128</ele>
        <time>2021-01-06T09:31:01.000Z</time>
      </trkpt>
      <trkpt lat="45.13618" lon="5.91707">
        <ele>2127.3999023438</ele>
        <time>2021-01-06T09:31:03.000Z</time>
      </trkpt>
      <trkpt lat="45.13619" lon="5.9171">
        <ele>2127</ele>
        <time>2021-01-06T09:31:04.000Z</time>
      </trkpt>
      <trkpt lat="45.13619" lon="5.91711">
        <ele>2126.8000488281</ele>
        <time>2021-01-06T09:31:05.000Z</time>
      </trkpt>
      <trkpt lat="45.13622" lon="5.91715">
        <ele>2125.8000488281</ele>
        <time>2021-01-06T09:31:07.000Z</time>
      </trkpt>
      <trkpt lat="45.13623" lon="5.91716">
        <ele>2125</ele>
        <time>2021-01-06T09:31:08.000Z</time>
      </trkpt>
      <trkpt lat="45.13622" lon="5.91718">
        <ele>2124</ele>
        <time>2021-01-06T09:31:09.000Z</time>
      </trkpt>
      <trkpt lat="45.13621" lon="5.91725">
        <ele>2122.1999511719</ele>
        <time>2021-01-06T09:31:11.000Z</time>
      </trkpt>
      <trkpt lat="45.13622" lon="5.91727">
        <ele>2121</ele>
        <time>2021-01-06T09:31:12.000Z</time>
      </trkpt>
      <trkpt lat="45.13622" lon="5.91729">
        <ele>2119.8000488281</ele>
        <time>2021-01-06T09:31:13.000Z</time>
      </trkpt>
      <trkpt lat="45.13622" lon="5.91729">
        <ele>2118.1999511719</ele>
        <time>2021-01-06T09:31:14.000Z</time>
      </trkpt>
      <trkpt lat="45.13622" lon="5.9173">
        <ele>2116.8000488281</ele>
        <time>2021-01-06T09:31:15.000Z</time>
      </trkpt>
      <trkpt lat="45.13623" lon="5.9173">
        <ele>2115.1999511719</ele>
        <time>2021-01-06T09:31:16.000Z</time>
      </trkpt>
      <trkpt lat="45.13623" lon="5.9173">
        <ele>2114</ele>
        <time>2021-01-06T09:31:17.000Z</time>
      </trkpt>
      <trkpt lat="45.13621" lon="5.91732">
        <ele>2112</ele>
        <time>2021-01-06T09:31:18.000Z</time>
      </trkpt>
      <trkpt lat="45.1362" lon="5.91735">
        <ele>2111.3999023438</ele>
        <time>2021-01-06T09:31:19.000Z</time>
      </trkpt>
      <trkpt lat="45.13618" lon="5.91737">
        <ele>2110.8000488281</ele>
        <time>2021-01-06T09:31:20.000Z</time>
      </trkpt>
      <trkpt lat="45.13617" lon="5.91738">
        <ele>2110</ele>
        <time>2021-01-06T09:31:21.000Z</time>
      </trkpt>
      <trkpt lat="45.13616" lon="5.91738">
        <ele>2109</ele>
        <time>2021-01-06T09:31:22.000Z</time>
      </trkpt>
      <trkpt lat="45.13615" lon="5.9174">
        <ele>2107.6000976562</ele>
        <time>2021-01-06T09:31:23.000Z</time>
      </trkpt>
      <trkpt lat="45.13614" lon="5.91743">
        <ele>2106.3999023438</ele>
        <time>2021-01-06T09:31:24.000Z</time>
      </trkpt>
      <trkpt lat="45.13613" lon="5.91745">
        <ele>2105</ele>
        <time>2021-01-06T09:31:25.000Z</time>
      </trkpt>
      <trkpt lat="45.13615" lon="5.91745">
        <ele>2104</ele>
        <time>2021-01-06T09:31:26.000Z</time>
      </trkpt>
      <trkpt lat="45.13615" lon="5.91747">
        <ele>2102.8000488281</ele>
        <time>2021-01-06T09:31:27.000Z</time>
      </trkpt>
      <trkpt lat="45.13614" lon="5.91747">
        <ele>2101.6000976562</ele>
        <time>2021-01-06T09:31:28.000Z</time>
      </trkpt>
      <trkpt lat="45.13614" lon="5.91747">
        <ele>2100.6000976562</ele>
        <time>2021-01-06T09:31:29.000Z</time>
      </trkpt>
      <trkpt lat="45.13614" lon="5.91747">
        <ele>2099.8000488281</ele>
        <time>2021-01-06T09:31:30.000Z</time>
      </trkpt>
      <trkpt lat="45.13614" lon="5.91747">
        <ele>2098.8000488281</ele>
        <time>2021-01-06T09:31:31.000Z</time>
      </trkpt>
      <trkpt lat="45.13613" lon="5.91748">
        <ele>2097</ele>
        <time>2021-01-06T09:31:33.000Z</time>
      </trkpt>
      <trkpt lat="45.13613" lon="5.91748">
        <ele>2096</ele>
        <time>2021-01-06T09:31:35.000Z</time>
      </trkpt>
      <trkpt lat="45.13613" lon="5.91748">
        <ele>2095.3999023438</ele>
        <time>2021-01-06T09:31:38.000Z</time>
      </trkpt>
      <trkpt lat="45.13613" lon="5.91747">
        <ele>2094.6000976562</ele>
        <time>2021-01-06T09:31:42.000Z</time>
      </trkpt>
      <trkpt lat="45.13613" lon="5.91748">
        <ele>2094</ele>
        <time>2021-01-06T09:31:47.000Z</time>
      </trkpt>
      <trkpt lat="45.13612" lon="5.91751">
        <ele>2093.8000488281</ele>
        <time>2021-01-06T09:31:51.000Z</time>
      </trkpt>
      <trkpt lat="45.13612" lon="5.91751">
        <ele>2093.3999023438</ele>
        <time>2021-01-06T09:31:53.000Z</time>
      </trkpt>
      <trkpt lat="45.13612" lon="5.91751">
        <ele>2092.3999023438</ele>
        <time>2021-01-06T09:31:56.000Z</time>
      </trkpt>
      <trkpt lat="45.13611" lon="5.91752">
        <ele>2091.3999023438</ele>
        <time>2021-01-06T09:31:58.000Z</time>
      </trkpt>
      <trkpt lat="45.13611" lon="5.91752">
        <ele>2091</ele>
        <time>2021-01-06T09:31:59.000Z</time>
      </trkpt>
      <trkpt lat="45.13611" lon="5.91752">
        <ele>2090.1999511719</ele>
        <time>2021-01-06T09:32:01.000Z</time>
      </trkpt>
      <trkpt lat="45.13611" lon="5.91752">
        <ele>2089</ele>
        <time>2021-01-06T09:32:04.000Z</time>
      </trkpt>
      <trkpt lat="45.13609" lon="5.91753">
        <ele>2088.1999511719</ele>
        <time>2021-01-06T09:32:06.000Z</time>
      </trkpt>
      <trkpt lat="45.13609" lon="5.91753">
        <ele>2087.8000488281</ele>
        <time>2021-01-06T09:32:07.000Z</time>
      </trkpt>
      <trkpt lat="45.13606" lon="5.91754">
        <ele>2086.6000976562</ele>
        <time>2021-01-06T09:32:11.000Z</time>
      </trkpt>
      <trkpt lat="45.13606" lon="5.91754">
        <ele>2086.1999511719</ele>
        <time>2021-01-06T09:32:12.000Z</time>
      </trkpt>
      <trkpt lat="45.13606" lon="5.91754">
        <ele>2085.6000976562</ele>
        <time>2021-01-06T09:32:15.000Z</time>
      </trkpt>
      <trkpt lat="45.13606" lon="5.91755">
        <ele>2084.8000488281</ele>
        <time>2021-01-06T09:32:20.000Z</time>
      </trkpt>
      <trkpt lat="45.13605" lon="5.91756">
        <ele>2084.6000976562</ele>
        <time>2021-01-06T09:32:22.000Z</time>
      </trkpt>
      <trkpt lat="45.13603" lon="5.91757">
        <ele>2084</ele>
        <time>2021-01-06T09:32:24.000Z</time>
      </trkpt>
      <trkpt lat="45.136" lon="5.91757">
        <ele>2083.1999511719</ele>
        <time>2021-01-06T09:32:26.000Z</time>
      </trkpt>
      <trkpt lat="45.13598" lon="5.91759">
        <ele>2082</ele>
        <time>2021-01-06T09:32:28.000Z</time>
      </trkpt>
      <trkpt lat="45.13598" lon="5.9176">
        <ele>2080.1999511719</ele>
        <time>2021-01-06T09:32:30.000Z</time>
      </trkpt>
      <trkpt lat="45.13598" lon="5.9176">
        <ele>2079.6000976562</ele>
        <time>2021-01-06T09:32:32.000Z</time>
      </trkpt>
      <trkpt lat="45.13597" lon="5.91758">
        <ele>2079.3999023438</ele>
        <time>2021-01-06T09:32:46.000Z</time>
      </trkpt>
      <trkpt lat="45.13597" lon="5.91759">
        <ele>2079</ele>
        <time>2021-01-06T09:32:48.000Z</time>
      </trkpt>
      <trkpt lat="45.13597" lon="5.91759">
        <ele>2078.6000976562</ele>
        <time>2021-01-06T09:32:49.000Z</time>
      </trkpt>
      <trkpt lat="45.13597" lon="5.91758">
        <ele>2077.6000976562</ele>
        <time>2021-01-06T09:32:51.000Z</time>
      </trkpt>
      <trkpt lat="45.13597" lon="5.91758">
        <ele>2077.1999511719</ele>
        <time>2021-01-06T09:32:52.000Z</time>
      </trkpt>
      <trkpt lat="45.13597" lon="5.9176">
        <ele>2075.6000976562</ele>
        <time>2021-01-06T09:32:54.000Z</time>
      </trkpt>
      <trkpt lat="45.13595" lon="5.91763">
        <ele>2074.6000976562</ele>
        <time>2021-01-06T09:32:56.000Z</time>
      </trkpt>
      <trkpt lat="45.13595" lon="5.91764">
        <ele>2074</ele>
        <time>2021-01-06T09:32:57.000Z</time>
      </trkpt>
      <trkpt lat="45.13594" lon="5.91767">
        <ele>2072.3999023438</ele>
        <time>2021-01-06T09:32:59.000Z</time>
      </trkpt>
      <trkpt lat="45.13591" lon="5.9177">
        <ele>2070.8000488281</ele>
        <time>2021-01-06T09:33:01.000Z</time>
      </trkpt>
      <trkpt lat="45.1359" lon="5.91771">
        <ele>2070.1999511719</ele>
        <time>2021-01-06T09:33:02.000Z</time>
      </trkpt>
      <trkpt lat="45.13589" lon="5.91772">
        <ele>2069.3999023438</ele>
        <time>2021-01-06T09:33:03.000Z</time>
      </trkpt>
      <trkpt lat="45.13587" lon="5.91771">
        <ele>2067.6000976562</ele>
        <time>2021-01-06T09:33:05.000Z</time>
      </trkpt>
      <trkpt lat="45.13586" lon="5.91772">
        <ele>2066.6000976562</ele>
        <time>2021-01-06T09:33:06.000Z</time>
      </trkpt>
      <trkpt lat="45.13587" lon="5.91773">
        <ele>2065</ele>
        <time>2021-01-06T09:33:08.000Z</time>
      </trkpt>
      <trkpt lat="45.13584" lon="5.9178">
        <ele>2064</ele>
        <time>2021-01-06T09:33:11.000Z</time>
      </trkpt>
      <trkpt lat="45.13584" lon="5.91781">
        <ele>2063.6000976562</ele>
        <time>2021-01-06T09:33:12.000Z</time>
      </trkpt>
      <trkpt lat="45.13583" lon="5.91782">
        <ele>2062.6000976562</ele>
        <time>2021-01-06T09:33:14.000Z</time>
      </trkpt>
      <trkpt lat="45.13584" lon="5.91783">
        <ele>2060.3999023438</ele>
        <time>2021-01-06T09:33:16.000Z</time>
      </trkpt>
      <trkpt lat="45.13584" lon="5.91783">
        <ele>2058.8000488281</ele>
        <time>2021-01-06T09:33:18.000Z</time>
      </trkpt>
      <trkpt lat="45.13583" lon="5.91782">
        <ele>2057.8000488281</ele>
        <time>2021-01-06T09:33:27.000Z</time>
      </trkpt>
      <trkpt lat="45.13583" lon="5.91783">
        <ele>2057.6000976562</ele>
        <time>2021-01-06T09:33:39.000Z</time>
      </trkpt>
      <trkpt lat="45.13583" lon="5.91783">
        <ele>2057.8000488281</ele>
        <time>2021-01-06T09:33:52.000Z</time>
      </trkpt>
      <trkpt lat="45.13583" lon="5.91783">
        <ele>2057.8000488281</ele>
        <time>2021-01-06T09:34:03.000Z</time>
      </trkpt>
      <trkpt lat="45.13583" lon="5.91783">
        <ele>2057.8000488281</ele>
        <time>2021-01-06T09:34:18.000Z</time>
      </trkpt>
      <trkpt lat="45.13583" lon="5.91783">
        <ele>2057.8000488281</ele>
        <time>2021-01-06T09:34:33.000Z</time>
      </trkpt>
      <trkpt lat="45.13583" lon="5.91783">
        <ele>2057.6000976562</ele>
        <time>2021-01-06T09:34:46.000Z</time>
      </trkpt>
      <trkpt lat="45.13583" lon="5.91785">
        <ele>2057.6000976562</ele>
        <time>2021-01-06T09:34:58.000Z</time>
      </trkpt>
      <trkpt lat="45.13583" lon="5.91789">
        <ele>2057.6000976562</ele>
        <time>2021-01-06T09:34:59.000Z</time>
      </trkpt>
      <trkpt lat="45.13584" lon="5.91796">
        <ele>2056.3999023438</ele>
        <time>2021-01-06T09:35:02.000Z</time>
      </trkpt>
      <trkpt lat="45.13585" lon="5.91799">
        <ele>2055.6000976562</ele>
        <time>2021-01-06T09:35:03.000Z</time>
      </trkpt>
      <trkpt lat="45.13585" lon="5.91801">
        <ele>2054.8000488281</ele>
        <time>2021-01-06T09:35:04.000Z</time>
      </trkpt>
      <trkpt lat="45.13584" lon="5.9181">
        <ele>2053.3999023438</ele>
        <time>2021-01-06T09:35:06.000Z</time>
      </trkpt>
      <trkpt lat="45.13582" lon="5.91812">
        <ele>2052.3999023438</ele>
        <time>2021-01-06T09:35:07.000Z</time>
      </trkpt>
      <trkpt lat="45.13581" lon="5.91818">
        <ele>2051.1999511719</ele>
        <time>2021-01-06T09:35:08.000Z</time>
      </trkpt>
      <trkpt lat="45.13579" lon="5.91823">
        <ele>2049.6000976562</ele>
        <time>2021-01-06T09:35:09.000Z</time>
      </trkpt>
      <trkpt lat="45.13576" lon="5.91827">
        <ele>2047.5999755859</ele>
        <time>2021-01-06T09:35:10.000Z</time>
      </trkpt>
      <trkpt lat="45.13573" lon="5.91832">
        <ele>2045.4000244141</ele>
        <time>2021-01-06T09:35:11.000Z</time>
      </trkpt>
      <trkpt lat="45.13571" lon="5.91837">
        <ele>2043</ele>
        <time>2021-01-06T09:35:12.000Z</time>
      </trkpt>
      <trkpt lat="45.13568" lon="5.91841">
        <ele>2040.5999755859</ele>
        <time>2021-01-06T09:35:13.000Z</time>
      </trkpt>
      <trkpt lat="45.13566" lon="5.91844">
        <ele>2038.1999511719</ele>
        <time>2021-01-06T09:35:14.000Z</time>
      </trkpt>
      <trkpt lat="45.13563" lon="5.91848">
        <ele>2035.8000488281</ele>
        <time>2021-01-06T09:35:15.000Z</time>
      </trkpt>
      <trkpt lat="45.13561" lon="5.91852">
        <ele>2033.4000244141</ele>
        <time>2021-01-06T09:35:16.000Z</time>
      </trkpt>
      <trkpt lat="45.1356" lon="5.91856">
        <ele>2031.4000244141</ele>
        <time>2021-01-06T09:35:17.000Z</time>
      </trkpt>
      <trkpt lat="45.13558" lon="5.91858">
        <ele>2029.1999511719</ele>
        <time>2021-01-06T09:35:18.000Z</time>
      </trkpt>
      <trkpt lat="45.13557" lon="5.91861">
        <ele>2025</ele>
        <time>2021-01-06T09:35:19.000Z</time>
      </trkpt>
      <trkpt lat="45.13555" lon="5.91865">
        <ele>2023</ele>
        <time>2021-01-06T09:35:20.000Z</time>
      </trkpt>
      <trkpt lat="45.13554" lon="5.91867">
        <ele>2021.1999511719</ele>
        <time>2021-01-06T09:35:21.000Z</time>
      </trkpt>
      <trkpt lat="45.13552" lon="5.9187">
        <ele>2019.4000244141</ele>
        <time>2021-01-06T09:35:22.000Z</time>
      </trkpt>
      <trkpt lat="45.1355" lon="5.91874">
        <ele>2017.4000244141</ele>
        <time>2021-01-06T09:35:23.000Z</time>
      </trkpt>
      <trkpt lat="45.13549" lon="5.91877">
        <ele>2015.4000244141</ele>
        <time>2021-01-06T09:35:24.000Z</time>
      </trkpt>
      <trkpt lat="45.13549" lon="5.91883">
        <ele>2013.5999755859</ele>
        <time>2021-01-06T09:35:25.000Z</time>
      </trkpt>
      <trkpt lat="45.13547" lon="5.91888">
        <ele>2012.1999511719</ele>
        <time>2021-01-06T09:35:26.000Z</time>
      </trkpt>
      <trkpt lat="45.1354" lon="5.91897">
        <ele>2010.5999755859</ele>
        <time>2021-01-06T09:35:28.000Z</time>
      </trkpt>
      <trkpt lat="45.13538" lon="5.919">
        <ele>2010</ele>
        <time>2021-01-06T09:35:29.000Z</time>
      </trkpt>
      <trkpt lat="45.13535" lon="5.91901">
        <ele>2009.1999511719</ele>
        <time>2021-01-06T09:35:30.000Z</time>
      </trkpt>
      <trkpt lat="45.13527" lon="5.91904">
        <ele>2007.5999755859</ele>
        <time>2021-01-06T09:35:32.000Z</time>
      </trkpt>
      <trkpt lat="45.13521" lon="5.91909">
        <ele>2006.4000244141</ele>
        <time>2021-01-06T09:35:34.000Z</time>
      </trkpt>
      <trkpt lat="45.13518" lon="5.91912">
        <ele>2005.5999755859</ele>
        <time>2021-01-06T09:35:35.000Z</time>
      </trkpt>
      <trkpt lat="45.13515" lon="5.91914">
        <ele>2004.8000488281</ele>
        <time>2021-01-06T09:35:36.000Z</time>
      </trkpt>
      <trkpt lat="45.13514" lon="5.91922">
        <ele>2003.8000488281</ele>
        <time>2021-01-06T09:35:39.000Z</time>
      </trkpt>
      <trkpt lat="45.13515" lon="5.91925">
        <ele>2003.5999755859</ele>
        <time>2021-01-06T09:35:40.000Z</time>
      </trkpt>
      <trkpt lat="45.13512" lon="5.91932">
        <ele>2003.4000244141</ele>
        <time>2021-01-06T09:35:42.000Z</time>
      </trkpt>
      <trkpt lat="45.13509" lon="5.91942">
        <ele>2002.4000244141</ele>
        <time>2021-01-06T09:35:44.000Z</time>
      </trkpt>
      <trkpt lat="45.13504" lon="5.91949">
        <ele>2000.5999755859</ele>
        <time>2021-01-06T09:35:46.000Z</time>
      </trkpt>
      <trkpt lat="45.13503" lon="5.91952">
        <ele>1999.1999511719</ele>
        <time>2021-01-06T09:35:47.000Z</time>
      </trkpt>
      <trkpt lat="45.13501" lon="5.91954">
        <ele>1998.1999511719</ele>
        <time>2021-01-06T09:35:48.000Z</time>
      </trkpt>
      <trkpt lat="45.13499" lon="5.9196">
        <ele>1997</ele>
        <time>2021-01-06T09:35:50.000Z</time>
      </trkpt>
      <trkpt lat="45.13499" lon="5.91977">
        <ele>1996.4000244141</ele>
        <time>2021-01-06T09:35:53.000Z</time>
      </trkpt>
      <trkpt lat="45.135" lon="5.91983">
        <ele>1995.5999755859</ele>
        <time>2021-01-06T09:35:55.000Z</time>
      </trkpt>
      <trkpt lat="45.13501" lon="5.91985">
        <ele>1994.4000244141</ele>
        <time>2021-01-06T09:35:57.000Z</time>
      </trkpt>
      <trkpt lat="45.13504" lon="5.91998">
        <ele>1993.5999755859</ele>
        <time>2021-01-06T09:36:04.000Z</time>
      </trkpt>
      <trkpt lat="45.13508" lon="5.92011">
        <ele>1993</ele>
        <time>2021-01-06T09:36:06.000Z</time>
      </trkpt>
      <trkpt lat="45.1351" lon="5.92015">
        <ele>1991</ele>
        <time>2021-01-06T09:36:07.000Z</time>
      </trkpt>
      <trkpt lat="45.13513" lon="5.92016">
        <ele>1989.8000488281</ele>
        <time>2021-01-06T09:36:08.000Z</time>
      </trkpt>
      <trkpt lat="45.13517" lon="5.92015">
        <ele>1988.5999755859</ele>
        <time>2021-01-06T09:36:10.000Z</time>
      </trkpt>
      <trkpt lat="45.13517" lon="5.92015">
        <ele>1988</ele>
        <time>2021-01-06T09:36:13.000Z</time>
      </trkpt>
      <trkpt lat="45.13517" lon="5.92015">
        <ele>1988.4000244141</ele>
        <time>2021-01-06T09:36:24.000Z</time>
      </trkpt>
      <trkpt lat="45.13517" lon="5.92015">
        <ele>1988.5999755859</ele>
        <time>2021-01-06T09:36:32.000Z</time>
      </trkpt>
      <trkpt lat="45.13517" lon="5.92015">
        <ele>1989</ele>
        <time>2021-01-06T09:36:42.000Z</time>
      </trkpt>
      <trkpt lat="45.13517" lon="5.92015">
        <ele>1989.1999511719</ele>
        <time>2021-01-06T09:36:48.000Z</time>
      </trkpt>
      <trkpt lat="45.13516" lon="5.92015">
        <ele>1989.5999755859</ele>
        <time>2021-01-06T09:36:54.000Z</time>
      </trkpt>
      <trkpt lat="45.13516" lon="5.92015">
        <ele>1990.4000244141</ele>
        <time>2021-01-06T09:37:00.000Z</time>
      </trkpt>
      <trkpt lat="45.13516" lon="5.92015">
        <ele>1990.5999755859</ele>
        <time>2021-01-06T09:37:06.000Z</time>
      </trkpt>
      <trkpt lat="45.13516" lon="5.92015">
        <ele>1990.5999755859</ele>
        <time>2021-01-06T09:37:07.000Z</time>
      </trkpt>
      <trkpt lat="45.13516" lon="5.92015">
        <ele>1991.1999511719</ele>
        <time>2021-01-06T09:37:16.000Z</time>
      </trkpt>
      <trkpt lat="45.13516" lon="5.92015">
        <ele>1991.1999511719</ele>
        <time>2021-01-06T09:37:24.000Z</time>
      </trkpt>
      <trkpt lat="45.13515" lon="5.92014">
        <ele>1990.8000488281</ele>
        <time>2021-01-06T09:37:32.000Z</time>
      </trkpt>
      <trkpt lat="45.13515" lon="5.92014">
        <ele>1990.5999755859</ele>
        <time>2021-01-06T09:37:38.000Z</time>
      </trkpt>
      <trkpt lat="45.13515" lon="5.92014">
        <ele>1990</ele>
        <time>2021-01-06T09:37:49.000Z</time>
      </trkpt>
      <trkpt lat="45.13505" lon="5.92011">
        <ele>1989.5999755859</ele>
        <time>2021-01-06T09:37:56.000Z</time>
      </trkpt>
      <trkpt lat="45.13505" lon="5.92011">
        <ele>1989.4000244141</ele>
        <time>2021-01-06T09:37:58.000Z</time>
      </trkpt>
      <trkpt lat="45.13505" lon="5.92011">
        <ele>1989</ele>
        <time>2021-01-06T09:38:08.000Z</time>
      </trkpt>
      <trkpt lat="45.13499" lon="5.92011">
        <ele>1988.5999755859</ele>
        <time>2021-01-06T09:38:21.000Z</time>
      </trkpt>
      <trkpt lat="45.13496" lon="5.9201">
        <ele>1988.5999755859</ele>
        <time>2021-01-06T09:38:22.000Z</time>
      </trkpt>
      <trkpt lat="45.1349" lon="5.92011">
        <ele>1987.5999755859</ele>
        <time>2021-01-06T09:38:26.000Z</time>
      </trkpt>
      <trkpt lat="45.13488" lon="5.92011">
        <ele>1987.1999511719</ele>
        <time>2021-01-06T09:38:27.000Z</time>
      </trkpt>
      <trkpt lat="45.13485" lon="5.9201">
        <ele>1986.1999511719</ele>
        <time>2021-01-06T09:38:33.000Z</time>
      </trkpt>
      <trkpt lat="45.13484" lon="5.92009">
        <ele>1986</ele>
        <time>2021-01-06T09:38:34.000Z</time>
      </trkpt>
      <trkpt lat="45.13476" lon="5.92013">
        <ele>1985.1999511719</ele>
        <time>2021-01-06T09:38:39.000Z</time>
      </trkpt>
      <trkpt lat="45.13476" lon="5.92016">
        <ele>1985</ele>
        <time>2021-01-06T09:38:40.000Z</time>
      </trkpt>
      <trkpt lat="45.13476" lon="5.92025">
        <ele>1984</ele>
        <time>2021-01-06T09:38:43.000Z</time>
      </trkpt>
      <trkpt lat="45.13476" lon="5.92027">
        <ele>1983.1999511719</ele>
        <time>2021-01-06T09:38:44.000Z</time>
      </trkpt>
      <trkpt lat="45.13475" lon="5.92029">
        <ele>1982</ele>
        <time>2021-01-06T09:38:45.000Z</time>
      </trkpt>
      <trkpt lat="45.13475" lon="5.92032">
        <ele>1981</ele>
        <time>2021-01-06T09:38:46.000Z</time>
      </trkpt>
      <trkpt lat="45.13475" lon="5.92035">
        <ele>1979.5999755859</ele>
        <time>2021-01-06T09:38:47.000Z</time>
      </trkpt>
      <trkpt lat="45.13475" lon="5.92038">
        <ele>1978.1999511719</ele>
        <time>2021-01-06T09:38:48.000Z</time>
      </trkpt>
      <trkpt lat="45.13474" lon="5.92041">
        <ele>1976.5999755859</ele>
        <time>2021-01-06T09:38:49.000Z</time>
      </trkpt>
      <trkpt lat="45.13474" lon="5.92044">
        <ele>1975</ele>
        <time>2021-01-06T09:38:50.000Z</time>
      </trkpt>
      <trkpt lat="45.13475" lon="5.92048">
        <ele>1973.1999511719</ele>
        <time>2021-01-06T09:38:51.000Z</time>
      </trkpt>
      <trkpt lat="45.13475" lon="5.92052">
        <ele>1971.4000244141</ele>
        <time>2021-01-06T09:38:52.000Z</time>
      </trkpt>
      <trkpt lat="45.13476" lon="5.92055">
        <ele>1970</ele>
        <time>2021-01-06T09:38:53.000Z</time>
      </trkpt>
      <trkpt lat="45.13476" lon="5.92055">
        <ele>1968.5999755859</ele>
        <time>2021-01-06T09:38:54.000Z</time>
      </trkpt>
      <trkpt lat="45.13476" lon="5.92055">
        <ele>1965.8000488281</ele>
        <time>2021-01-06T09:38:55.000Z</time>
      </trkpt>
      <trkpt lat="45.13476" lon="5.92055">
        <ele>1964.5999755859</ele>
        <time>2021-01-06T09:38:56.000Z</time>
      </trkpt>
      <trkpt lat="45.13476" lon="5.92055">
        <ele>1963.4000244141</ele>
        <time>2021-01-06T09:38:58.000Z</time>
      </trkpt>
      <trkpt lat="45.13476" lon="5.92055">
        <ele>1962.1999511719</ele>
        <time>2021-01-06T09:39:02.000Z</time>
      </trkpt>
      <trkpt lat="45.13476" lon="5.92059">
        <ele>1960.8000488281</ele>
        <time>2021-01-06T09:39:04.000Z</time>
      </trkpt>
      <trkpt lat="45.13476" lon="5.92065">
        <ele>1959.8000488281</ele>
        <time>2021-01-06T09:39:06.000Z</time>
      </trkpt>
      <trkpt lat="45.13476" lon="5.92072">
        <ele>1958.4000244141</ele>
        <time>2021-01-06T09:39:08.000Z</time>
      </trkpt>
      <trkpt lat="45.13476" lon="5.92075">
        <ele>1957.1999511719</ele>
        <time>2021-01-06T09:39:09.000Z</time>
      </trkpt>
      <trkpt lat="45.13475" lon="5.92078">
        <ele>1956</ele>
        <time>2021-01-06T09:39:10.000Z</time>
      </trkpt>
      <trkpt lat="45.13474" lon="5.9208">
        <ele>1954.5999755859</ele>
        <time>2021-01-06T09:39:11.000Z</time>
      </trkpt>
      <trkpt lat="45.13472" lon="5.92082">
        <ele>1953</ele>
        <time>2021-01-06T09:39:12.000Z</time>
      </trkpt>
      <trkpt lat="45.13472" lon="5.92083">
        <ele>1951.1999511719</ele>
        <time>2021-01-06T09:39:13.000Z</time>
      </trkpt>
      <trkpt lat="45.13472" lon="5.92085">
        <ele>1949.1999511719</ele>
        <time>2021-01-06T09:39:14.000Z</time>
      </trkpt>
      <trkpt lat="45.13472" lon="5.92086">
        <ele>1947.5999755859</ele>
        <time>2021-01-06T09:39:15.000Z</time>
      </trkpt>
      <trkpt lat="45.13471" lon="5.92087">
        <ele>1946.8000488281</ele>
        <time>2021-01-06T09:39:16.000Z</time>
      </trkpt>
      <trkpt lat="45.13471" lon="5.92088">
        <ele>1946.1999511719</ele>
        <time>2021-01-06T09:39:17.000Z</time>
      </trkpt>
      <trkpt lat="45.1347" lon="5.92091">
        <ele>1946</ele>
        <time>2021-01-06T09:39:26.000Z</time>
      </trkpt>
      <trkpt lat="45.1347" lon="5.92091">
        <ele>1946</ele>
        <time>2021-01-06T09:39:38.000Z</time>
      </trkpt>
      <trkpt lat="45.1347" lon="5.92091">
        <ele>1946.5999755859</ele>
        <time>2021-01-06T09:39:51.000Z</time>
      </trkpt>
      <trkpt lat="45.13468" lon="5.92091">
        <ele>1946</ele>
        <time>2021-01-06T09:40:00.000Z</time>
      </trkpt>
      <trkpt lat="45.13468" lon="5.92091">
        <ele>1946</ele>
        <time>2021-01-06T09:40:09.000Z</time>
      </trkpt>
      <trkpt lat="45.13468" lon="5.92091">
        <ele>1945.8000488281</ele>
        <time>2021-01-06T09:40:18.000Z</time>
      </trkpt>
      <trkpt lat="45.13468" lon="5.92091">
        <ele>1946</ele>
        <time>2021-01-06T09:40:26.000Z</time>
      </trkpt>
      <trkpt lat="45.13466" lon="5.92092">
        <ele>1946</ele>
        <time>2021-01-06T09:40:40.000Z</time>
      </trkpt>
      <trkpt lat="45.13466" lon="5.92092">
        <ele>1946</ele>
        <time>2021-01-06T09:40:55.000Z</time>
      </trkpt>
      <trkpt lat="45.13466" lon="5.92092">
        <ele>1946</ele>
        <time>2021-01-06T09:41:09.000Z</time>
      </trkpt>
      <trkpt lat="45.13466" lon="5.92092">
        <ele>1946.1999511719</ele>
        <time>2021-01-06T09:41:18.000Z</time>
      </trkpt>
      <trkpt lat="45.13466" lon="5.92094">
        <ele>1946</ele>
        <time>2021-01-06T09:41:33.000Z</time>
      </trkpt>
      <trkpt lat="45.13466" lon="5.92094">
        <ele>1946.1999511719</ele>
        <time>2021-01-06T09:41:42.000Z</time>
      </trkpt>
      <trkpt lat="45.13466" lon="5.92094">
        <ele>1946.1999511719</ele>
        <time>2021-01-06T09:41:53.000Z</time>
      </trkpt>
      <trkpt lat="45.13466" lon="5.92094">
        <ele>1946.1999511719</ele>
        <time>2021-01-06T09:42:06.000Z</time>
      </trkpt>
      <trkpt lat="45.13466" lon="5.92094">
        <ele>1946.1999511719</ele>
        <time>2021-01-06T09:42:19.000Z</time>
      </trkpt>
      <trkpt lat="45.13466" lon="5.92094">
        <ele>1946.1999511719</ele>
        <time>2021-01-06T09:42:28.000Z</time>
      </trkpt>
      <trkpt lat="45.13465" lon="5.92095">
        <ele>1946.1999511719</ele>
        <time>2021-01-06T09:42:45.000Z</time>
      </trkpt>
      <trkpt lat="45.13465" lon="5.92095">
        <ele>1946.4000244141</ele>
        <time>2021-01-06T09:42:58.000Z</time>
      </trkpt>
      <trkpt lat="45.13465" lon="5.92095">
        <ele>1946.1999511719</ele>
        <time>2021-01-06T09:43:08.000Z</time>
      </trkpt>
      <trkpt lat="45.13464" lon="5.92096">
        <ele>1946.4000244141</ele>
        <time>2021-01-06T09:43:20.000Z</time>
      </trkpt>
      <trkpt lat="45.13464" lon="5.92096">
        <ele>1946.5999755859</ele>
        <time>2021-01-06T09:43:29.000Z</time>
      </trkpt>
      <trkpt lat="45.13464" lon="5.92096">
        <ele>1946.4000244141</ele>
        <time>2021-01-06T09:43:40.000Z</time>
      </trkpt>
      <trkpt lat="45.13464" lon="5.92096">
        <ele>1946.5999755859</ele>
        <time>2021-01-06T09:43:50.000Z</time>
      </trkpt>
      <trkpt lat="45.13464" lon="5.92096">
        <ele>1946.5999755859</ele>
        <time>2021-01-06T09:44:01.000Z</time>
      </trkpt>
      <trkpt lat="45.13464" lon="5.92096">
        <ele>1946.5999755859</ele>
        <time>2021-01-06T09:44:11.000Z</time>
      </trkpt>
      <trkpt lat="45.13464" lon="5.92096">
        <ele>1946.4000244141</ele>
        <time>2021-01-06T09:44:21.000Z</time>
      </trkpt>
      <trkpt lat="45.13464" lon="5.92096">
        <ele>1946.8000488281</ele>
        <time>2021-01-06T09:44:36.000Z</time>
      </trkpt>
      <trkpt lat="45.13464" lon="5.92097">
        <ele>1946.5999755859</ele>
        <time>2021-01-06T09:44:46.000Z</time>
      </trkpt>
      <trkpt lat="45.13464" lon="5.92097">
        <ele>1946.4000244141</ele>
        <time>2021-01-06T09:44:57.000Z</time>
      </trkpt>
      <trkpt lat="45.13464" lon="5.92097">
        <ele>1946.5999755859</ele>
        <time>2021-01-06T09:45:05.000Z</time>
      </trkpt>
      <trkpt lat="45.13464" lon="5.92097">
        <ele>1947.1999511719</ele>
        <time>2021-01-06T09:45:12.000Z</time>
      </trkpt>
      <trkpt lat="45.13464" lon="5.92097">
        <ele>1947.1999511719</ele>
        <time>2021-01-06T09:45:13.000Z</time>
      </trkpt>
      <trkpt lat="45.13464" lon="5.92097">
        <ele>1946.4000244141</ele>
        <time>2021-01-06T09:45:22.000Z</time>
      </trkpt>
      <trkpt lat="45.13464" lon="5.92097">
        <ele>1945.8000488281</ele>
        <time>2021-01-06T09:45:23.000Z</time>
      </trkpt>
      <trkpt lat="45.13464" lon="5.92097">
        <ele>1944.8000488281</ele>
        <time>2021-01-06T09:45:26.000Z</time>
      </trkpt>
      <trkpt lat="45.13464" lon="5.92097">
        <ele>1945.5999755859</ele>
        <time>2021-01-06T09:45:32.000Z</time>
      </trkpt>
      <trkpt lat="45.13464" lon="5.92097">
        <ele>1945.8000488281</ele>
        <time>2021-01-06T09:45:34.000Z</time>
      </trkpt>
      <trkpt lat="45.13464" lon="5.92097">
        <ele>1946</ele>
        <time>2021-01-06T09:45:46.000Z</time>
      </trkpt>
      <trkpt lat="45.13464" lon="5.92097">
        <ele>1946</ele>
        <time>2021-01-06T09:45:53.000Z</time>
      </trkpt>
      <trkpt lat="45.13462" lon="5.92096">
        <ele>1947</ele>
        <time>2021-01-06T09:45:59.000Z</time>
      </trkpt>
      <trkpt lat="45.13462" lon="5.92096">
        <ele>1947.4000244141</ele>
        <time>2021-01-06T09:46:02.000Z</time>
      </trkpt>
      <trkpt lat="45.13462" lon="5.92096">
        <ele>1947.4000244141</ele>
        <time>2021-01-06T09:46:18.000Z</time>
      </trkpt>
      <trkpt lat="45.13462" lon="5.92096">
        <ele>1947.1999511719</ele>
        <time>2021-01-06T09:46:33.000Z</time>
      </trkpt>
      <trkpt lat="45.13461" lon="5.92094">
        <ele>1947.1999511719</ele>
        <time>2021-01-06T09:46:47.000Z</time>
      </trkpt>
      <trkpt lat="45.13462" lon="5.92095">
        <ele>1947</ele>
        <time>2021-01-06T09:46:58.000Z</time>
      </trkpt>
      <trkpt lat="45.13461" lon="5.92098">
        <ele>1947.4000244141</ele>
        <time>2021-01-06T09:47:03.000Z</time>
      </trkpt>
      <trkpt lat="45.13463" lon="5.92101">
        <ele>1947.4000244141</ele>
        <time>2021-01-06T09:47:05.000Z</time>
      </trkpt>
      <trkpt lat="45.13464" lon="5.92104">
        <ele>1947.4000244141</ele>
        <time>2021-01-06T09:47:07.000Z</time>
      </trkpt>
      <trkpt lat="45.13467" lon="5.9211">
        <ele>1947.1999511719</ele>
        <time>2021-01-06T09:47:10.000Z</time>
      </trkpt>
      <trkpt lat="45.1347" lon="5.92115">
        <ele>1947</ele>
        <time>2021-01-06T09:47:14.000Z</time>
      </trkpt>
      <trkpt lat="45.1347" lon="5.92115">
        <ele>1947.1999511719</ele>
        <time>2021-01-06T09:47:20.000Z</time>
      </trkpt>
      <trkpt lat="45.13473" lon="5.92121">
        <ele>1947.1999511719</ele>
        <time>2021-01-06T09:47:25.000Z</time>
      </trkpt>
      <trkpt lat="45.13476" lon="5.9213">
        <ele>1947.1999511719</ele>
        <time>2021-01-06T09:47:31.000Z</time>
      </trkpt>
      <trkpt lat="45.1348" lon="5.92137">
        <ele>1948</ele>
        <time>2021-01-06T09:47:39.000Z</time>
      </trkpt>
      <trkpt lat="45.13483" lon="5.92142">
        <ele>1948.4000244141</ele>
        <time>2021-01-06T09:47:45.000Z</time>
      </trkpt>
      <trkpt lat="45.13486" lon="5.92147">
        <ele>1948</ele>
        <time>2021-01-06T09:47:52.000Z</time>
      </trkpt>
      <trkpt lat="45.13488" lon="5.92156">
        <ele>1948</ele>
        <time>2021-01-06T09:47:59.000Z</time>
      </trkpt>
      <trkpt lat="45.13488" lon="5.92158">
        <ele>1948.1999511719</ele>
        <time>2021-01-06T09:48:00.000Z</time>
      </trkpt>
      <trkpt lat="45.1349" lon="5.92162">
        <ele>1949</ele>
        <time>2021-01-06T09:48:07.000Z</time>
      </trkpt>
      <trkpt lat="45.13489" lon="5.92162">
        <ele>1949.4000244141</ele>
        <time>2021-01-06T09:48:08.000Z</time>
      </trkpt>
      <trkpt lat="45.13485" lon="5.92162">
        <ele>1950.1999511719</ele>
        <time>2021-01-06T09:48:13.000Z</time>
      </trkpt>
      <trkpt lat="45.13484" lon="5.92162">
        <ele>1950.5999755859</ele>
        <time>2021-01-06T09:48:15.000Z</time>
      </trkpt>
      <trkpt lat="45.13482" lon="5.92162">
        <ele>1951</ele>
        <time>2021-01-06T09:48:17.000Z</time>
      </trkpt>
      <trkpt lat="45.1348" lon="5.92163">
        <ele>1951.5999755859</ele>
        <time>2021-01-06T09:48:20.000Z</time>
      </trkpt>
      <trkpt lat="45.13476" lon="5.92163">
        <ele>1952.4000244141</ele>
        <time>2021-01-06T09:48:24.000Z</time>
      </trkpt>
      <trkpt lat="45.13475" lon="5.92164">
        <ele>1952.5999755859</ele>
        <time>2021-01-06T09:48:25.000Z</time>
      </trkpt>
      <trkpt lat="45.13475" lon="5.92164">
        <ele>1952.8000488281</ele>
        <time>2021-01-06T09:48:26.000Z</time>
      </trkpt>
      <trkpt lat="45.13474" lon="5.92166">
        <ele>1953.8000488281</ele>
        <time>2021-01-06T09:48:31.000Z</time>
      </trkpt>
      <trkpt lat="45.13473" lon="5.92166">
        <ele>1954</ele>
        <time>2021-01-06T09:48:33.000Z</time>
      </trkpt>
      <trkpt lat="45.13469" lon="5.92167">
        <ele>1954.8000488281</ele>
        <time>2021-01-06T09:48:40.000Z</time>
      </trkpt>
      <trkpt lat="45.13468" lon="5.92167">
        <ele>1955.8000488281</ele>
        <time>2021-01-06T09:48:46.000Z</time>
      </trkpt>
      <trkpt lat="45.1347" lon="5.92172">
        <ele>1956.4000244141</ele>
        <time>2021-01-06T09:48:52.000Z</time>
      </trkpt>
      <trkpt lat="45.13471" lon="5.92176">
        <ele>1957</ele>
        <time>2021-01-06T09:48:56.000Z</time>
      </trkpt>
      <trkpt lat="45.13472" lon="5.92179">
        <ele>1957.5999755859</ele>
        <time>2021-01-06T09:48:59.000Z</time>
      </trkpt>
      <trkpt lat="45.13473" lon="5.92181">
        <ele>1958.1999511719</ele>
        <time>2021-01-06T09:49:02.000Z</time>
      </trkpt>
      <trkpt lat="45.13474" lon="5.92183">
        <ele>1959</ele>
        <time>2021-01-06T09:49:06.000Z</time>
      </trkpt>
      <trkpt lat="45.13476" lon="5.92185">
        <ele>1959.4000244141</ele>
        <time>2021-01-06T09:49:09.000Z</time>
      </trkpt>
      <trkpt lat="45.13478" lon="5.92189">
        <ele>1960.1999511719</ele>
        <time>2021-01-06T09:49:14.000Z</time>
      </trkpt>
      <trkpt lat="45.13478" lon="5.9219">
        <ele>1960.4000244141</ele>
        <time>2021-01-06T09:49:15.000Z</time>
      </trkpt>
      <trkpt lat="45.13479" lon="5.92191">
        <ele>1961.5999755859</ele>
        <time>2021-01-06T09:49:21.000Z</time>
      </trkpt>
      <trkpt lat="45.13475" lon="5.92192">
        <ele>1962.4000244141</ele>
        <time>2021-01-06T09:49:28.000Z</time>
      </trkpt>
      <trkpt lat="45.13474" lon="5.92192">
        <ele>1962.5999755859</ele>
        <time>2021-01-06T09:49:29.000Z</time>
      </trkpt>
      <trkpt lat="45.13471" lon="5.92193">
        <ele>1963.5999755859</ele>
        <time>2021-01-06T09:49:34.000Z</time>
      </trkpt>
      <trkpt lat="45.1347" lon="5.92192">
        <ele>1964</ele>
        <time>2021-01-06T09:49:36.000Z</time>
      </trkpt>
      <trkpt lat="45.13467" lon="5.92192">
        <ele>1964.5999755859</ele>
        <time>2021-01-06T09:49:40.000Z</time>
      </trkpt>
      <trkpt lat="45.13465" lon="5.92193">
        <ele>1965.1999511719</ele>
        <time>2021-01-06T09:49:43.000Z</time>
      </trkpt>
      <trkpt lat="45.13464" lon="5.92193">
        <ele>1965.5999755859</ele>
        <time>2021-01-06T09:49:46.000Z</time>
      </trkpt>
      <trkpt lat="45.13464" lon="5.92193">
        <ele>1966.4000244141</ele>
        <time>2021-01-06T09:49:50.000Z</time>
      </trkpt>
      <trkpt lat="45.13464" lon="5.92193">
        <ele>1966.8000488281</ele>
        <time>2021-01-06T09:49:52.000Z</time>
      </trkpt>
      <trkpt lat="45.13463" lon="5.92193">
        <ele>1966.8000488281</ele>
        <time>2021-01-06T09:49:58.000Z</time>
      </trkpt>
      <trkpt lat="45.13458" lon="5.92194">
        <ele>1967.5999755859</ele>
        <time>2021-01-06T09:50:05.000Z</time>
      </trkpt>
      <trkpt lat="45.13458" lon="5.92194">
        <ele>1967.8000488281</ele>
        <time>2021-01-06T09:50:06.000Z</time>
      </trkpt>
      <trkpt lat="45.13454" lon="5.92195">
        <ele>1969</ele>
        <time>2021-01-06T09:50:11.000Z</time>
      </trkpt>
      <trkpt lat="45.13454" lon="5.92195">
        <ele>1969</ele>
        <time>2021-01-06T09:50:12.000Z</time>
      </trkpt>
      <trkpt lat="45.13451" lon="5.92195">
        <ele>1970</ele>
        <time>2021-01-06T09:50:17.000Z</time>
      </trkpt>
      <trkpt lat="45.1345" lon="5.92196">
        <ele>1970.1999511719</ele>
        <time>2021-01-06T09:50:19.000Z</time>
      </trkpt>
      <trkpt lat="45.13449" lon="5.92196">
        <ele>1971</ele>
        <time>2021-01-06T09:50:24.000Z</time>
      </trkpt>
      <trkpt lat="45.13449" lon="5.92196">
        <ele>1971.1999511719</ele>
        <time>2021-01-06T09:50:26.000Z</time>
      </trkpt>
      <trkpt lat="45.13447" lon="5.92197">
        <ele>1971.5999755859</ele>
        <time>2021-01-06T09:50:29.000Z</time>
      </trkpt>
      <trkpt lat="45.13446" lon="5.92199">
        <ele>1971.5999755859</ele>
        <time>2021-01-06T09:50:32.000Z</time>
      </trkpt>
      <trkpt lat="45.13445" lon="5.922">
        <ele>1972</ele>
        <time>2021-01-06T09:50:35.000Z</time>
      </trkpt>
      <trkpt lat="45.13444" lon="5.922">
        <ele>1972.5999755859</ele>
        <time>2021-01-06T09:50:38.000Z</time>
      </trkpt>
      <trkpt lat="45.13444" lon="5.922">
        <ele>1973</ele>
        <time>2021-01-06T09:50:41.000Z</time>
      </trkpt>
      <trkpt lat="45.13443" lon="5.922">
        <ele>1973.8000488281</ele>
        <time>2021-01-06T09:50:48.000Z</time>
      </trkpt>
      <trkpt lat="45.13442" lon="5.92201">
        <ele>1973.8000488281</ele>
        <time>2021-01-06T09:50:51.000Z</time>
      </trkpt>
      <trkpt lat="45.13441" lon="5.92202">
        <ele>1973.8000488281</ele>
        <time>2021-01-06T09:50:53.000Z</time>
      </trkpt>
      <trkpt lat="45.13441" lon="5.92202">
        <ele>1974</ele>
        <time>2021-01-06T09:50:55.000Z</time>
      </trkpt>
      <trkpt lat="45.13441" lon="5.92202">
        <ele>1974.4000244141</ele>
        <time>2021-01-06T09:50:56.000Z</time>
      </trkpt>
      <trkpt lat="45.13441" lon="5.92203">
        <ele>1974.4000244141</ele>
        <time>2021-01-06T09:50:57.000Z</time>
      </trkpt>
      <trkpt lat="45.13444" lon="5.92205">
        <ele>1975</ele>
        <time>2021-01-06T09:51:03.000Z</time>
      </trkpt>
      <trkpt lat="45.13446" lon="5.92206">
        <ele>1975.4000244141</ele>
        <time>2021-01-06T09:51:06.000Z</time>
      </trkpt>
      <trkpt lat="45.13448" lon="5.92208">
        <ele>1976.1999511719</ele>
        <time>2021-01-06T09:51:09.000Z</time>
      </trkpt>
      <trkpt lat="45.13448" lon="5.92208">
        <ele>1976.5999755859</ele>
        <time>2021-01-06T09:51:11.000Z</time>
      </trkpt>
      <trkpt lat="45.1345" lon="5.92209">
        <ele>1977.5999755859</ele>
        <time>2021-01-06T09:51:17.000Z</time>
      </trkpt>
      <trkpt lat="45.13452" lon="5.92212">
        <ele>1978.4000244141</ele>
        <time>2021-01-06T09:51:23.000Z</time>
      </trkpt>
      <trkpt lat="45.13451" lon="5.92213">
        <ele>1978.5999755859</ele>
        <time>2021-01-06T09:51:25.000Z</time>
      </trkpt>
      <trkpt lat="45.13451" lon="5.92212">
        <ele>1978.8000488281</ele>
        <time>2021-01-06T09:51:26.000Z</time>
      </trkpt>
      <trkpt lat="45.13451" lon="5.92212">
        <ele>1978.8000488281</ele>
        <time>2021-01-06T09:51:27.000Z</time>
      </trkpt>
      <trkpt lat="45.13447" lon="5.92215">
        <ele>1979.5999755859</ele>
        <time>2021-01-06T09:51:32.000Z</time>
      </trkpt>
      <trkpt lat="45.13446" lon="5.92216">
        <ele>1979.8000488281</ele>
        <time>2021-01-06T09:51:34.000Z</time>
      </trkpt>
      <trkpt lat="45.13443" lon="5.92215">
        <ele>1980.5999755859</ele>
        <time>2021-01-06T09:51:38.000Z</time>
      </trkpt>
      <trkpt lat="45.13442" lon="5.92216">
        <ele>1981</ele>
        <time>2021-01-06T09:51:40.000Z</time>
      </trkpt>
      <trkpt lat="45.13439" lon="5.92218">
        <ele>1981.8000488281</ele>
        <time>2021-01-06T09:51:44.000Z</time>
      </trkpt>
      <trkpt lat="45.13438" lon="5.92219">
        <ele>1982.1999511719</ele>
        <time>2021-01-06T09:51:47.000Z</time>
      </trkpt>
      <trkpt lat="45.13437" lon="5.92219">
        <ele>1982.8000488281</ele>
        <time>2021-01-06T09:51:50.000Z</time>
      </trkpt>
      <trkpt lat="45.13435" lon="5.9222">
        <ele>1983.1999511719</ele>
        <time>2021-01-06T09:51:53.000Z</time>
      </trkpt>
      <trkpt lat="45.13432" lon="5.92222">
        <ele>1984</ele>
        <time>2021-01-06T09:51:57.000Z</time>
      </trkpt>
      <trkpt lat="45.1343" lon="5.92222">
        <ele>1984.4000244141</ele>
        <time>2021-01-06T09:52:00.000Z</time>
      </trkpt>
      <trkpt lat="45.13429" lon="5.92223">
        <ele>1984.8000488281</ele>
        <time>2021-01-06T09:52:03.000Z</time>
      </trkpt>
      <trkpt lat="45.13428" lon="5.92224">
        <ele>1985.4000244141</ele>
        <time>2021-01-06T09:52:08.000Z</time>
      </trkpt>
      <trkpt lat="45.13428" lon="5.92224">
        <ele>1985.5999755859</ele>
        <time>2021-01-06T09:52:11.000Z</time>
      </trkpt>
      <trkpt lat="45.13424" lon="5.92225">
        <ele>1986.1999511719</ele>
        <time>2021-01-06T09:52:18.000Z</time>
      </trkpt>
      <trkpt lat="45.13423" lon="5.92226">
        <ele>1986.5999755859</ele>
        <time>2021-01-06T09:52:20.000Z</time>
      </trkpt>
      <trkpt lat="45.13421" lon="5.92227">
        <ele>1987.4000244141</ele>
        <time>2021-01-06T09:52:25.000Z</time>
      </trkpt>
      <trkpt lat="45.1342" lon="5.92227">
        <ele>1987.5999755859</ele>
        <time>2021-01-06T09:52:26.000Z</time>
      </trkpt>
      <trkpt lat="45.13419" lon="5.92229">
        <ele>1989</ele>
        <time>2021-01-06T09:52:32.000Z</time>
      </trkpt>
      <trkpt lat="45.13417" lon="5.92231">
        <ele>1990</ele>
        <time>2021-01-06T09:52:38.000Z</time>
      </trkpt>
      <trkpt lat="45.13416" lon="5.9223">
        <ele>1990.1999511719</ele>
        <time>2021-01-06T09:52:39.000Z</time>
      </trkpt>
      <trkpt lat="45.13415" lon="5.92232">
        <ele>1991</ele>
        <time>2021-01-06T09:52:49.000Z</time>
      </trkpt>
      <trkpt lat="45.13415" lon="5.92233">
        <ele>1991</ele>
        <time>2021-01-06T09:52:51.000Z</time>
      </trkpt>
      <trkpt lat="45.13415" lon="5.92233">
        <ele>1991.4000244141</ele>
        <time>2021-01-06T09:52:53.000Z</time>
      </trkpt>
      <trkpt lat="45.13417" lon="5.92235">
        <ele>1992.1999511719</ele>
        <time>2021-01-06T09:52:57.000Z</time>
      </trkpt>
      <trkpt lat="45.13418" lon="5.92236">
        <ele>1992.1999511719</ele>
        <time>2021-01-06T09:52:58.000Z</time>
      </trkpt>
      <trkpt lat="45.13422" lon="5.92239">
        <ele>1993.1999511719</ele>
        <time>2021-01-06T09:53:05.000Z</time>
      </trkpt>
      <trkpt lat="45.13422" lon="5.9224">
        <ele>1993.4000244141</ele>
        <time>2021-01-06T09:53:06.000Z</time>
      </trkpt>
      <trkpt lat="45.13426" lon="5.92243">
        <ele>1994.1999511719</ele>
        <time>2021-01-06T09:53:11.000Z</time>
      </trkpt>
      <trkpt lat="45.13427" lon="5.92244">
        <ele>1994.4000244141</ele>
        <time>2021-01-06T09:53:12.000Z</time>
      </trkpt>
      <trkpt lat="45.13429" lon="5.92248">
        <ele>1995.1999511719</ele>
        <time>2021-01-06T09:53:17.000Z</time>
      </trkpt>
      <trkpt lat="45.1343" lon="5.92249">
        <ele>1996.1999511719</ele>
        <time>2021-01-06T09:53:21.000Z</time>
      </trkpt>
      <trkpt lat="45.13432" lon="5.9225">
        <ele>1996.8000488281</ele>
        <time>2021-01-06T09:53:23.000Z</time>
      </trkpt>
      <trkpt lat="45.13432" lon="5.92251">
        <ele>1997</ele>
        <time>2021-01-06T09:53:24.000Z</time>
      </trkpt>
      <trkpt lat="45.13433" lon="5.92251">
        <ele>1997.4000244141</ele>
        <time>2021-01-06T09:53:26.000Z</time>
      </trkpt>
      <trkpt lat="45.13433" lon="5.92251">
        <ele>1998</ele>
        <time>2021-01-06T09:53:28.000Z</time>
      </trkpt>
      <trkpt lat="45.13432" lon="5.92251">
        <ele>1998.5999755859</ele>
        <time>2021-01-06T09:53:31.000Z</time>
      </trkpt>
      <trkpt lat="45.13432" lon="5.92251">
        <ele>1998.5999755859</ele>
        <time>2021-01-06T09:53:32.000Z</time>
      </trkpt>
      <trkpt lat="45.13428" lon="5.92254">
        <ele>1999.4000244141</ele>
        <time>2021-01-06T09:53:39.000Z</time>
      </trkpt>
      <trkpt lat="45.13427" lon="5.92255">
        <ele>1999.5999755859</ele>
        <time>2021-01-06T09:53:40.000Z</time>
      </trkpt>
      <trkpt lat="45.13428" lon="5.92258">
        <ele>2000.8000488281</ele>
        <time>2021-01-06T09:53:45.000Z</time>
      </trkpt>
      <trkpt lat="45.13424" lon="5.92259">
        <ele>2002</ele>
        <time>2021-01-06T09:53:50.000Z</time>
      </trkpt>
      <trkpt lat="45.13423" lon="5.9226">
        <ele>2002.4000244141</ele>
        <time>2021-01-06T09:53:52.000Z</time>
      </trkpt>
      <trkpt lat="45.13423" lon="5.9226">
        <ele>2003</ele>
        <time>2021-01-06T09:53:55.000Z</time>
      </trkpt>
      <trkpt lat="45.13423" lon="5.92261">
        <ele>2003.5999755859</ele>
        <time>2021-01-06T09:53:58.000Z</time>
      </trkpt>
      <trkpt lat="45.13423" lon="5.92261">
        <ele>2004</ele>
        <time>2021-01-06T09:54:01.000Z</time>
      </trkpt>
      <trkpt lat="45.13423" lon="5.92261">
        <ele>2004.1999511719</ele>
        <time>2021-01-06T09:54:03.000Z</time>
      </trkpt>
      <trkpt lat="45.13427" lon="5.92265">
        <ele>2004.8000488281</ele>
        <time>2021-01-06T09:54:09.000Z</time>
      </trkpt>
      <trkpt lat="45.13428" lon="5.92265">
        <ele>2005</ele>
        <time>2021-01-06T09:54:11.000Z</time>
      </trkpt>
      <trkpt lat="45.1343" lon="5.92266">
        <ele>2005.5999755859</ele>
        <time>2021-01-06T09:54:15.000Z</time>
      </trkpt>
      <trkpt lat="45.1343" lon="5.92266">
        <ele>2006</ele>
        <time>2021-01-06T09:54:18.000Z</time>
      </trkpt>
      <trkpt lat="45.1343" lon="5.92266">
        <ele>2006.1999511719</ele>
        <time>2021-01-06T09:54:24.000Z</time>
      </trkpt>
      <trkpt lat="45.13431" lon="5.92267">
        <ele>2006.4000244141</ele>
        <time>2021-01-06T09:54:29.000Z</time>
      </trkpt>
      <trkpt lat="45.13433" lon="5.92268">
        <ele>2006.4000244141</ele>
        <time>2021-01-06T09:54:32.000Z</time>
      </trkpt>
      <trkpt lat="45.13436" lon="5.9227">
        <ele>2007.1999511719</ele>
        <time>2021-01-06T09:54:37.000Z</time>
      </trkpt>
      <trkpt lat="45.13439" lon="5.92271">
        <ele>2007.5999755859</ele>
        <time>2021-01-06T09:54:39.000Z</time>
      </trkpt>
      <trkpt lat="45.1344" lon="5.92273">
        <ele>2008.1999511719</ele>
        <time>2021-01-06T09:54:42.000Z</time>
      </trkpt>
      <trkpt lat="45.13441" lon="5.92273">
        <ele>2008.4000244141</ele>
        <time>2021-01-06T09:54:43.000Z</time>
      </trkpt>
      <trkpt lat="45.13443" lon="5.92274">
        <ele>2009</ele>
        <time>2021-01-06T09:54:46.000Z</time>
      </trkpt>
      <trkpt lat="45.13445" lon="5.92275">
        <ele>2009.5999755859</ele>
        <time>2021-01-06T09:54:48.000Z</time>
      </trkpt>
      <trkpt lat="45.13446" lon="5.92277">
        <ele>2010.5999755859</ele>
        <time>2021-01-06T09:54:52.000Z</time>
      </trkpt>
      <trkpt lat="45.13447" lon="5.92277">
        <ele>2010.8000488281</ele>
        <time>2021-01-06T09:54:53.000Z</time>
      </trkpt>
      <trkpt lat="45.13448" lon="5.92278">
        <ele>2011</ele>
        <time>2021-01-06T09:54:54.000Z</time>
      </trkpt>
      <trkpt lat="45.13449" lon="5.92278">
        <ele>2011.8000488281</ele>
        <time>2021-01-06T09:54:58.000Z</time>
      </trkpt>
      <trkpt lat="45.13449" lon="5.92278">
        <ele>2012.4000244141</ele>
        <time>2021-01-06T09:55:04.000Z</time>
      </trkpt>
      <trkpt lat="45.13442" lon="5.9228">
        <ele>2012.8000488281</ele>
        <time>2021-01-06T09:55:10.000Z</time>
      </trkpt>
      <trkpt lat="45.13441" lon="5.9228">
        <ele>2013</ele>
        <time>2021-01-06T09:55:11.000Z</time>
      </trkpt>
      <trkpt lat="45.13436" lon="5.92283">
        <ele>2014</ele>
        <time>2021-01-06T09:55:16.000Z</time>
      </trkpt>
      <trkpt lat="45.13433" lon="5.92284">
        <ele>2015.1999511719</ele>
        <time>2021-01-06T09:55:20.000Z</time>
      </trkpt>
      <trkpt lat="45.13432" lon="5.92285">
        <ele>2015.8000488281</ele>
        <time>2021-01-06T09:55:23.000Z</time>
      </trkpt>
      <trkpt lat="45.1343" lon="5.92287">
        <ele>2016.1999511719</ele>
        <time>2021-01-06T09:55:26.000Z</time>
      </trkpt>
      <trkpt lat="45.13429" lon="5.92288">
        <ele>2016.8000488281</ele>
        <time>2021-01-06T09:55:29.000Z</time>
      </trkpt>
      <trkpt lat="45.13429" lon="5.92289">
        <ele>2017.1999511719</ele>
        <time>2021-01-06T09:55:32.000Z</time>
      </trkpt>
      <trkpt lat="45.13429" lon="5.92289">
        <ele>2017.8000488281</ele>
        <time>2021-01-06T09:55:35.000Z</time>
      </trkpt>
      <trkpt lat="45.13429" lon="5.9229">
        <ele>2018</ele>
        <time>2021-01-06T09:55:36.000Z</time>
      </trkpt>
      <trkpt lat="45.13429" lon="5.9229">
        <ele>2018.1999511719</ele>
        <time>2021-01-06T09:55:38.000Z</time>
      </trkpt>
      <trkpt lat="45.1343" lon="5.9229">
        <ele>2018.4000244141</ele>
        <time>2021-01-06T09:55:39.000Z</time>
      </trkpt>
      <trkpt lat="45.13433" lon="5.92291">
        <ele>2019</ele>
        <time>2021-01-06T09:55:44.000Z</time>
      </trkpt>
      <trkpt lat="45.13435" lon="5.92292">
        <ele>2019.4000244141</ele>
        <time>2021-01-06T09:55:46.000Z</time>
      </trkpt>
      <trkpt lat="45.13437" lon="5.92293">
        <ele>2020.4000244141</ele>
        <time>2021-01-06T09:55:51.000Z</time>
      </trkpt>
      <trkpt lat="45.13438" lon="5.92293">
        <ele>2020.5999755859</ele>
        <time>2021-01-06T09:55:52.000Z</time>
      </trkpt>
      <trkpt lat="45.1344" lon="5.92293">
        <ele>2021.5999755859</ele>
        <time>2021-01-06T09:55:57.000Z</time>
      </trkpt>
      <trkpt lat="45.1344" lon="5.92293">
        <ele>2022</ele>
        <time>2021-01-06T09:55:59.000Z</time>
      </trkpt>
      <trkpt lat="45.13439" lon="5.92293">
        <ele>2022.1999511719</ele>
        <time>2021-01-06T09:56:01.000Z</time>
      </trkpt>
      <trkpt lat="45.13439" lon="5.92293">
        <ele>2022.4000244141</ele>
        <time>2021-01-06T09:56:03.000Z</time>
      </trkpt>
      <trkpt lat="45.13437" lon="5.92294">
        <ele>2022.5999755859</ele>
        <time>2021-01-06T09:56:06.000Z</time>
      </trkpt>
      <trkpt lat="45.13437" lon="5.92294">
        <ele>2022.8000488281</ele>
        <time>2021-01-06T09:56:07.000Z</time>
      </trkpt>
      <trkpt lat="45.13435" lon="5.92296">
        <ele>2023.5999755859</ele>
        <time>2021-01-06T09:56:12.000Z</time>
      </trkpt>
      <trkpt lat="45.13434" lon="5.92296">
        <ele>2023.8000488281</ele>
        <time>2021-01-06T09:56:13.000Z</time>
      </trkpt>
      <trkpt lat="45.13434" lon="5.92301">
        <ele>2024.5999755859</ele>
        <time>2021-01-06T09:56:18.000Z</time>
      </trkpt>
      <trkpt lat="45.13434" lon="5.92302">
        <ele>2024.8000488281</ele>
        <time>2021-01-06T09:56:19.000Z</time>
      </trkpt>
      <trkpt lat="45.13433" lon="5.92303">
        <ele>2025.5999755859</ele>
        <time>2021-01-06T09:56:24.000Z</time>
      </trkpt>
      <trkpt lat="45.13433" lon="5.92303">
        <ele>2025.8000488281</ele>
        <time>2021-01-06T09:56:25.000Z</time>
      </trkpt>
      <trkpt lat="45.13433" lon="5.92303">
        <ele>2026</ele>
        <time>2021-01-06T09:56:26.000Z</time>
      </trkpt>
      <trkpt lat="45.13433" lon="5.92303">
        <ele>2026.4000244141</ele>
        <time>2021-01-06T09:56:28.000Z</time>
      </trkpt>
      <trkpt lat="45.13435" lon="5.92303">
        <ele>2027</ele>
        <time>2021-01-06T09:56:33.000Z</time>
      </trkpt>
      <trkpt lat="45.13437" lon="5.92303">
        <ele>2027.4000244141</ele>
        <time>2021-01-06T09:56:35.000Z</time>
      </trkpt>
      <trkpt lat="45.13439" lon="5.92304">
        <ele>2028</ele>
        <time>2021-01-06T09:56:39.000Z</time>
      </trkpt>
      <trkpt lat="45.13439" lon="5.92304">
        <ele>2028.1999511719</ele>
        <time>2021-01-06T09:56:40.000Z</time>
      </trkpt>
      <trkpt lat="45.13441" lon="5.92306">
        <ele>2029.1999511719</ele>
        <time>2021-01-06T09:56:44.000Z</time>
      </trkpt>
      <trkpt lat="45.13444" lon="5.92308">
        <ele>2030.1999511719</ele>
        <time>2021-01-06T09:56:49.000Z</time>
      </trkpt>
      <trkpt lat="45.13444" lon="5.92309">
        <ele>2030.4000244141</ele>
        <time>2021-01-06T09:56:50.000Z</time>
      </trkpt>
      <trkpt lat="45.13446" lon="5.92309">
        <ele>2031.1999511719</ele>
        <time>2021-01-06T09:56:55.000Z</time>
      </trkpt>
      <trkpt lat="45.13446" lon="5.92309">
        <ele>2031.5999755859</ele>
        <time>2021-01-06T09:56:56.000Z</time>
      </trkpt>
      <trkpt lat="45.13444" lon="5.9231">
        <ele>2032.1999511719</ele>
        <time>2021-01-06T09:57:03.000Z</time>
      </trkpt>
      <trkpt lat="45.13442" lon="5.92311">
        <ele>2032.5999755859</ele>
        <time>2021-01-06T09:57:07.000Z</time>
      </trkpt>
      <trkpt lat="45.1344" lon="5.92312">
        <ele>2033</ele>
        <time>2021-01-06T09:57:09.000Z</time>
      </trkpt>
      <trkpt lat="45.13438" lon="5.92312">
        <ele>2033.8000488281</ele>
        <time>2021-01-06T09:57:13.000Z</time>
      </trkpt>
      <trkpt lat="45.13437" lon="5.92313">
        <ele>2034.1999511719</ele>
        <time>2021-01-06T09:57:16.000Z</time>
      </trkpt>
      <trkpt lat="45.13437" lon="5.92313">
        <ele>2034.8000488281</ele>
        <time>2021-01-06T09:57:20.000Z</time>
      </trkpt>
      <trkpt lat="45.13437" lon="5.92313">
        <ele>2035</ele>
        <time>2021-01-06T09:57:21.000Z</time>
      </trkpt>
      <trkpt lat="45.13437" lon="5.92313">
        <ele>2035.1999511719</ele>
        <time>2021-01-06T09:57:28.000Z</time>
      </trkpt>
      <trkpt lat="45.13437" lon="5.92313">
        <ele>2035.5999755859</ele>
        <time>2021-01-06T09:57:36.000Z</time>
      </trkpt>
      <trkpt lat="45.13437" lon="5.92314">
        <ele>2035.5999755859</ele>
        <time>2021-01-06T09:57:42.000Z</time>
      </trkpt>
      <trkpt lat="45.13438" lon="5.92315">
        <ele>2036</ele>
        <time>2021-01-06T09:57:46.000Z</time>
      </trkpt>
      <trkpt lat="45.1344" lon="5.92316">
        <ele>2036.4000244141</ele>
        <time>2021-01-06T09:57:49.000Z</time>
      </trkpt>
      <trkpt lat="45.1344" lon="5.92316">
        <ele>2037</ele>
        <time>2021-01-06T09:57:52.000Z</time>
      </trkpt>
      <trkpt lat="45.1344" lon="5.92316">
        <ele>2037.1999511719</ele>
        <time>2021-01-06T09:57:57.000Z</time>
      </trkpt>
      <trkpt lat="45.1344" lon="5.92316">
        <ele>2037.1999511719</ele>
        <time>2021-01-06T09:58:06.000Z</time>
      </trkpt>
      <trkpt lat="45.1344" lon="5.92316">
        <ele>2037.4000244141</ele>
        <time>2021-01-06T09:58:15.000Z</time>
      </trkpt>
      <trkpt lat="45.1344" lon="5.92315">
        <ele>2037.4000244141</ele>
        <time>2021-01-06T09:58:28.000Z</time>
      </trkpt>
      <trkpt lat="45.1344" lon="5.92315">
        <ele>2037.4000244141</ele>
        <time>2021-01-06T09:58:38.000Z</time>
      </trkpt>
      <trkpt lat="45.13443" lon="5.92316">
        <ele>2037.4000244141</ele>
        <time>2021-01-06T09:58:46.000Z</time>
      </trkpt>
      <trkpt lat="45.13444" lon="5.92317">
        <ele>2037.8000488281</ele>
        <time>2021-01-06T09:58:52.000Z</time>
      </trkpt>
      <trkpt lat="45.13445" lon="5.92317">
        <ele>2038.1999511719</ele>
        <time>2021-01-06T09:58:56.000Z</time>
      </trkpt>
      <trkpt lat="45.13438" lon="5.9232">
        <ele>2039.1999511719</ele>
        <time>2021-01-06T09:59:03.000Z</time>
      </trkpt>
      <trkpt lat="45.13438" lon="5.92321">
        <ele>2039.1999511719</ele>
        <time>2021-01-06T09:59:04.000Z</time>
      </trkpt>
      <trkpt lat="45.13437" lon="5.92321">
        <ele>2040</ele>
        <time>2021-01-06T09:59:08.000Z</time>
      </trkpt>
      <trkpt lat="45.13437" lon="5.92321">
        <ele>2040.4000244141</ele>
        <time>2021-01-06T09:59:10.000Z</time>
      </trkpt>
      <trkpt lat="45.13437" lon="5.92321">
        <ele>2040.5999755859</ele>
        <time>2021-01-06T09:59:14.000Z</time>
      </trkpt>
      <trkpt lat="45.13438" lon="5.92322">
        <ele>2040.8000488281</ele>
        <time>2021-01-06T09:59:19.000Z</time>
      </trkpt>
      <trkpt lat="45.1344" lon="5.92323">
        <ele>2041.5999755859</ele>
        <time>2021-01-06T09:59:23.000Z</time>
      </trkpt>
      <trkpt lat="45.1344" lon="5.92323">
        <ele>2042.1999511719</ele>
        <time>2021-01-06T09:59:27.000Z</time>
      </trkpt>
      <trkpt lat="45.1344" lon="5.92323">
        <ele>2042.4000244141</ele>
        <time>2021-01-06T09:59:35.000Z</time>
      </trkpt>
      <trkpt lat="45.13441" lon="5.92323">
        <ele>2042.4000244141</ele>
        <time>2021-01-06T09:59:40.000Z</time>
      </trkpt>
      <trkpt lat="45.13441" lon="5.92323">
        <ele>2042.5999755859</ele>
        <time>2021-01-06T09:59:41.000Z</time>
      </trkpt>
      <trkpt lat="45.13441" lon="5.92324">
        <ele>2042.8000488281</ele>
        <time>2021-01-06T09:59:46.000Z</time>
      </trkpt>
      <trkpt lat="45.13441" lon="5.92324">
        <ele>2042.8000488281</ele>
        <time>2021-01-06T09:59:48.000Z</time>
      </trkpt>
      <trkpt lat="45.13441" lon="5.92326">
        <ele>2043.1999511719</ele>
        <time>2021-01-06T09:59:55.000Z</time>
      </trkpt>
      <trkpt lat="45.13439" lon="5.92328">
        <ele>2043.5999755859</ele>
        <time>2021-01-06T09:59:59.000Z</time>
      </trkpt>
      <trkpt lat="45.13438" lon="5.92329">
        <ele>2044.4000244141</ele>
        <time>2021-01-06T10:00:03.000Z</time>
      </trkpt>
      <trkpt lat="45.13438" lon="5.9233">
        <ele>2044.8000488281</ele>
        <time>2021-01-06T10:00:05.000Z</time>
      </trkpt>
      <trkpt lat="45.13437" lon="5.9233">
        <ele>2045.8000488281</ele>
        <time>2021-01-06T10:00:09.000Z</time>
      </trkpt>
      <trkpt lat="45.13437" lon="5.92331">
        <ele>2046</ele>
        <time>2021-01-06T10:00:10.000Z</time>
      </trkpt>
      <trkpt lat="45.13437" lon="5.9233">
        <ele>2046.1999511719</ele>
        <time>2021-01-06T10:00:11.000Z</time>
      </trkpt>
      <trkpt lat="45.1344" lon="5.92334">
        <ele>2046.8000488281</ele>
        <time>2021-01-06T10:00:18.000Z</time>
      </trkpt>
      <trkpt lat="45.13441" lon="5.92336">
        <ele>2048</ele>
        <time>2021-01-06T10:00:25.000Z</time>
      </trkpt>
      <trkpt lat="45.13441" lon="5.92336">
        <ele>2049.1999511719</ele>
        <time>2021-01-06T10:00:31.000Z</time>
      </trkpt>
      <trkpt lat="45.13441" lon="5.92337">
        <ele>2050</ele>
        <time>2021-01-06T10:00:37.000Z</time>
      </trkpt>
      <trkpt lat="45.13438" lon="5.9234">
        <ele>2050.1999511719</ele>
        <time>2021-01-06T10:00:42.000Z</time>
      </trkpt>
      <trkpt lat="45.13438" lon="5.9234">
        <ele>2050.3999023438</ele>
        <time>2021-01-06T10:00:43.000Z</time>
      </trkpt>
      <trkpt lat="45.13437" lon="5.92342">
        <ele>2051</ele>
        <time>2021-01-06T10:00:47.000Z</time>
      </trkpt>
      <trkpt lat="45.13437" lon="5.92342">
        <ele>2051.6000976562</ele>
        <time>2021-01-06T10:00:50.000Z</time>
      </trkpt>
      <trkpt lat="45.13438" lon="5.92342">
        <ele>2052.1999511719</ele>
        <time>2021-01-06T10:00:54.000Z</time>
      </trkpt>
      <trkpt lat="45.13438" lon="5.92342">
        <ele>2052.6000976562</ele>
        <time>2021-01-06T10:00:57.000Z</time>
      </trkpt>
      <trkpt lat="45.13439" lon="5.92342">
        <ele>2053</ele>
        <time>2021-01-06T10:00:59.000Z</time>
      </trkpt>
      <trkpt lat="45.13439" lon="5.92342">
        <ele>2053.8000488281</ele>
        <time>2021-01-06T10:01:06.000Z</time>
      </trkpt>
      <trkpt lat="45.13439" lon="5.92342">
        <ele>2053.8000488281</ele>
        <time>2021-01-06T10:01:10.000Z</time>
      </trkpt>
      <trkpt lat="45.13439" lon="5.92342">
        <ele>2053.8000488281</ele>
        <time>2021-01-06T10:01:25.000Z</time>
      </trkpt>
      <trkpt lat="45.13439" lon="5.92343">
        <ele>2053.8000488281</ele>
        <time>2021-01-06T10:01:38.000Z</time>
      </trkpt>
      <trkpt lat="45.13439" lon="5.92343">
        <ele>2053.8000488281</ele>
        <time>2021-01-06T10:01:52.000Z</time>
      </trkpt>
      <trkpt lat="45.13439" lon="5.92343">
        <ele>2053.8000488281</ele>
        <time>2021-01-06T10:02:05.000Z</time>
      </trkpt>
      <trkpt lat="45.13441" lon="5.92342">
        <ele>2054</ele>
        <time>2021-01-06T10:02:13.000Z</time>
      </trkpt>
      <trkpt lat="45.1344" lon="5.92343">
        <ele>2054.3999023438</ele>
        <time>2021-01-06T10:02:17.000Z</time>
      </trkpt>
      <trkpt lat="45.13442" lon="5.92347">
        <ele>2054.6000976562</ele>
        <time>2021-01-06T10:02:22.000Z</time>
      </trkpt>
      <trkpt lat="45.13441" lon="5.92348">
        <ele>2054.8000488281</ele>
        <time>2021-01-06T10:02:23.000Z</time>
      </trkpt>
      <trkpt lat="45.13439" lon="5.92349">
        <ele>2055.6000976562</ele>
        <time>2021-01-06T10:02:27.000Z</time>
      </trkpt>
      <trkpt lat="45.13439" lon="5.9235">
        <ele>2056</ele>
        <time>2021-01-06T10:02:29.000Z</time>
      </trkpt>
      <trkpt lat="45.13439" lon="5.9235">
        <ele>2057</ele>
        <time>2021-01-06T10:02:33.000Z</time>
      </trkpt>
      <trkpt lat="45.13439" lon="5.9235">
        <ele>2057.1999511719</ele>
        <time>2021-01-06T10:02:34.000Z</time>
      </trkpt>
      <trkpt lat="45.13442" lon="5.92352">
        <ele>2058.1999511719</ele>
        <time>2021-01-06T10:02:39.000Z</time>
      </trkpt>
      <trkpt lat="45.13443" lon="5.92352">
        <ele>2059.3999023438</ele>
        <time>2021-01-06T10:02:44.000Z</time>
      </trkpt>
      <trkpt lat="45.13444" lon="5.92352">
        <ele>2059.8000488281</ele>
        <time>2021-01-06T10:02:46.000Z</time>
      </trkpt>
      <trkpt lat="45.13444" lon="5.92352">
        <ele>2060.6000976562</ele>
        <time>2021-01-06T10:02:50.000Z</time>
      </trkpt>
      <trkpt lat="45.13444" lon="5.92352">
        <ele>2061</ele>
        <time>2021-01-06T10:02:52.000Z</time>
      </trkpt>
      <trkpt lat="45.13443" lon="5.92354">
        <ele>2061.3999023438</ele>
        <time>2021-01-06T10:02:57.000Z</time>
      </trkpt>
      <trkpt lat="45.13442" lon="5.92356">
        <ele>2061.6000976562</ele>
        <time>2021-01-06T10:02:58.000Z</time>
      </trkpt>
      <trkpt lat="45.13441" lon="5.92358">
        <ele>2062.3999023438</ele>
        <time>2021-01-06T10:03:03.000Z</time>
      </trkpt>
      <trkpt lat="45.13441" lon="5.92359">
        <ele>2062.8000488281</ele>
        <time>2021-01-06T10:03:05.000Z</time>
      </trkpt>
      <trkpt lat="45.13441" lon="5.92359">
        <ele>2063.1999511719</ele>
        <time>2021-01-06T10:03:08.000Z</time>
      </trkpt>
      <trkpt lat="45.13441" lon="5.92359">
        <ele>2063.8000488281</ele>
        <time>2021-01-06T10:03:12.000Z</time>
      </trkpt>
      <trkpt lat="45.13441" lon="5.92359">
        <ele>2064.1999511719</ele>
        <time>2021-01-06T10:03:14.000Z</time>
      </trkpt>
      <trkpt lat="45.13441" lon="5.92359">
        <ele>2064.3999023438</ele>
        <time>2021-01-06T10:03:20.000Z</time>
      </trkpt>
      <trkpt lat="45.13444" lon="5.92361">
        <ele>2065</ele>
        <time>2021-01-06T10:03:26.000Z</time>
      </trkpt>
      <trkpt lat="45.13446" lon="5.92361">
        <ele>2066</ele>
        <time>2021-01-06T10:03:33.000Z</time>
      </trkpt>
      <trkpt lat="45.13447" lon="5.92362">
        <ele>2067</ele>
        <time>2021-01-06T10:03:38.000Z</time>
      </trkpt>
      <trkpt lat="45.13447" lon="5.92362">
        <ele>2067.1999511719</ele>
        <time>2021-01-06T10:03:39.000Z</time>
      </trkpt>
      <trkpt lat="45.13447" lon="5.92363">
        <ele>2068</ele>
        <time>2021-01-06T10:03:46.000Z</time>
      </trkpt>
      <trkpt lat="45.13445" lon="5.92366">
        <ele>2069</ele>
        <time>2021-01-06T10:03:53.000Z</time>
      </trkpt>
      <trkpt lat="45.13445" lon="5.92366">
        <ele>2069.1999511719</ele>
        <time>2021-01-06T10:03:54.000Z</time>
      </trkpt>
      <trkpt lat="45.13445" lon="5.92366">
        <ele>2070</ele>
        <time>2021-01-06T10:04:00.000Z</time>
      </trkpt>
      <trkpt lat="45.13447" lon="5.92367">
        <ele>2070</ele>
        <time>2021-01-06T10:04:02.000Z</time>
      </trkpt>
      <trkpt lat="45.1345" lon="5.92368">
        <ele>2070.3999023438</ele>
        <time>2021-01-06T10:04:07.000Z</time>
      </trkpt>
      <trkpt lat="45.1345" lon="5.92368">
        <ele>2071.1999511719</ele>
        <time>2021-01-06T10:04:10.000Z</time>
      </trkpt>
      <trkpt lat="45.1345" lon="5.92368">
        <ele>2071.6000976562</ele>
        <time>2021-01-06T10:04:16.000Z</time>
      </trkpt>
      <trkpt lat="45.1345" lon="5.92368">
        <ele>2071.8000488281</ele>
        <time>2021-01-06T10:04:22.000Z</time>
      </trkpt>
      <trkpt lat="45.1345" lon="5.92369">
        <ele>2072.1999511719</ele>
        <time>2021-01-06T10:04:30.000Z</time>
      </trkpt>
      <trkpt lat="45.13449" lon="5.9237">
        <ele>2072.1999511719</ele>
        <time>2021-01-06T10:04:31.000Z</time>
      </trkpt>
      <trkpt lat="45.13448" lon="5.9237">
        <ele>2072.6000976562</ele>
        <time>2021-01-06T10:04:36.000Z</time>
      </trkpt>
      <trkpt lat="45.13448" lon="5.92371">
        <ele>2072.8000488281</ele>
        <time>2021-01-06T10:04:44.000Z</time>
      </trkpt>
      <trkpt lat="45.13448" lon="5.92371">
        <ele>2073.3999023438</ele>
        <time>2021-01-06T10:04:49.000Z</time>
      </trkpt>
      <trkpt lat="45.13448" lon="5.92371">
        <ele>2073.6000976562</ele>
        <time>2021-01-06T10:04:51.000Z</time>
      </trkpt>
      <trkpt lat="45.13448" lon="5.92372">
        <ele>2073.3999023438</ele>
        <time>2021-01-06T10:04:59.000Z</time>
      </trkpt>
      <trkpt lat="45.13449" lon="5.92373">
        <ele>2074</ele>
        <time>2021-01-06T10:05:06.000Z</time>
      </trkpt>
      <trkpt lat="45.13449" lon="5.92374">
        <ele>2074.3999023438</ele>
        <time>2021-01-06T10:05:11.000Z</time>
      </trkpt>
      <trkpt lat="45.13448" lon="5.92375">
        <ele>2074.8000488281</ele>
        <time>2021-01-06T10:05:16.000Z</time>
      </trkpt>
      <trkpt lat="45.13448" lon="5.92376">
        <ele>2075.3999023438</ele>
        <time>2021-01-06T10:05:21.000Z</time>
      </trkpt>
      <trkpt lat="45.13449" lon="5.92376">
        <ele>2075.6000976562</ele>
        <time>2021-01-06T10:05:22.000Z</time>
      </trkpt>
      <trkpt lat="45.13451" lon="5.92376">
        <ele>2076.3999023438</ele>
        <time>2021-01-06T10:05:28.000Z</time>
      </trkpt>
      <trkpt lat="45.1345" lon="5.92377">
        <ele>2077.3999023438</ele>
        <time>2021-01-06T10:05:35.000Z</time>
      </trkpt>
      <trkpt lat="45.13448" lon="5.92378">
        <ele>2077.6000976562</ele>
        <time>2021-01-06T10:05:38.000Z</time>
      </trkpt>
      <trkpt lat="45.13449" lon="5.9238">
        <ele>2077.6000976562</ele>
        <time>2021-01-06T10:05:41.000Z</time>
      </trkpt>
      <trkpt lat="45.13448" lon="5.92381">
        <ele>2078.3999023438</ele>
        <time>2021-01-06T10:05:46.000Z</time>
      </trkpt>
      <trkpt lat="45.13448" lon="5.92381">
        <ele>2078.6000976562</ele>
        <time>2021-01-06T10:05:47.000Z</time>
      </trkpt>
      <trkpt lat="45.1345" lon="5.92381">
        <ele>2078.8000488281</ele>
        <time>2021-01-06T10:05:51.000Z</time>
      </trkpt>
      <trkpt lat="45.13451" lon="5.92381">
        <ele>2079.6000976562</ele>
        <time>2021-01-06T10:05:57.000Z</time>
      </trkpt>
      <trkpt lat="45.13451" lon="5.92382">
        <ele>2080.3999023438</ele>
        <time>2021-01-06T10:06:04.000Z</time>
      </trkpt>
      <trkpt lat="45.1345" lon="5.92383">
        <ele>2080.6000976562</ele>
        <time>2021-01-06T10:06:10.000Z</time>
      </trkpt>
      <trkpt lat="45.13449" lon="5.92384">
        <ele>2081.1999511719</ele>
        <time>2021-01-06T10:06:15.000Z</time>
      </trkpt>
      <trkpt lat="45.13449" lon="5.92385">
        <ele>2081.6000976562</ele>
        <time>2021-01-06T10:06:18.000Z</time>
      </trkpt>
      <trkpt lat="45.1345" lon="5.92385">
        <ele>2082</ele>
        <time>2021-01-06T10:06:21.000Z</time>
      </trkpt>
      <trkpt lat="45.13452" lon="5.92385">
        <ele>2082.3999023438</ele>
        <time>2021-01-06T10:06:27.000Z</time>
      </trkpt>
      <trkpt lat="45.13452" lon="5.92385">
        <ele>2082.6000976562</ele>
        <time>2021-01-06T10:06:29.000Z</time>
      </trkpt>
      <trkpt lat="45.13452" lon="5.92385">
        <ele>2082.8000488281</ele>
        <time>2021-01-06T10:06:30.000Z</time>
      </trkpt>
      <trkpt lat="45.13452" lon="5.92385">
        <ele>2083.1999511719</ele>
        <time>2021-01-06T10:06:33.000Z</time>
      </trkpt>
      <trkpt lat="45.13452" lon="5.92386">
        <ele>2083.6000976562</ele>
        <time>2021-01-06T10:06:39.000Z</time>
      </trkpt>
      <trkpt lat="45.1345" lon="5.92388">
        <ele>2083.8000488281</ele>
        <time>2021-01-06T10:06:43.000Z</time>
      </trkpt>
      <trkpt lat="45.1345" lon="5.92389">
        <ele>2084</ele>
        <time>2021-01-06T10:06:44.000Z</time>
      </trkpt>
      <trkpt lat="45.1345" lon="5.9239">
        <ele>2085</ele>
        <time>2021-01-06T10:06:49.000Z</time>
      </trkpt>
      <trkpt lat="45.1345" lon="5.9239">
        <ele>2086</ele>
        <time>2021-01-06T10:06:54.000Z</time>
      </trkpt>
      <trkpt lat="45.13451" lon="5.92391">
        <ele>2086.6000976562</ele>
        <time>2021-01-06T10:07:00.000Z</time>
      </trkpt>
      <trkpt lat="45.13452" lon="5.92391">
        <ele>2087</ele>
        <time>2021-01-06T10:07:06.000Z</time>
      </trkpt>
      <trkpt lat="45.13453" lon="5.92391">
        <ele>2087.1999511719</ele>
        <time>2021-01-06T10:07:07.000Z</time>
      </trkpt>
      <trkpt lat="45.13456" lon="5.92391">
        <ele>2088</ele>
        <time>2021-01-06T10:07:12.000Z</time>
      </trkpt>
      <trkpt lat="45.13456" lon="5.92391">
        <ele>2088.1999511719</ele>
        <time>2021-01-06T10:07:13.000Z</time>
      </trkpt>
      <trkpt lat="45.13456" lon="5.92391">
        <ele>2089</ele>
        <time>2021-01-06T10:07:18.000Z</time>
      </trkpt>
      <trkpt lat="45.13455" lon="5.92392">
        <ele>2089.1999511719</ele>
        <time>2021-01-06T10:07:22.000Z</time>
      </trkpt>
      <trkpt lat="45.13455" lon="5.92393">
        <ele>2089.1999511719</ele>
        <time>2021-01-06T10:07:23.000Z</time>
      </trkpt>
      <trkpt lat="45.13453" lon="5.92396">
        <ele>2090.1999511719</ele>
        <time>2021-01-06T10:07:30.000Z</time>
      </trkpt>
      <trkpt lat="45.13453" lon="5.92397">
        <ele>2090.3999023438</ele>
        <time>2021-01-06T10:07:31.000Z</time>
      </trkpt>
      <trkpt lat="45.13452" lon="5.92398">
        <ele>2091</ele>
        <time>2021-01-06T10:07:36.000Z</time>
      </trkpt>
      <trkpt lat="45.13452" lon="5.92398">
        <ele>2091.3999023438</ele>
        <time>2021-01-06T10:07:38.000Z</time>
      </trkpt>
      <trkpt lat="45.13453" lon="5.92398">
        <ele>2091.8000488281</ele>
        <time>2021-01-06T10:07:42.000Z</time>
      </trkpt>
      <trkpt lat="45.13453" lon="5.92398">
        <ele>2091.8000488281</ele>
        <time>2021-01-06T10:07:43.000Z</time>
      </trkpt>
      <trkpt lat="45.13453" lon="5.92397">
        <ele>2091.8000488281</ele>
        <time>2021-01-06T10:07:50.000Z</time>
      </trkpt>
      <trkpt lat="45.13453" lon="5.92398">
        <ele>2092</ele>
        <time>2021-01-06T10:07:56.000Z</time>
      </trkpt>
      <trkpt lat="45.13454" lon="5.92398">
        <ele>2092.3999023438</ele>
        <time>2021-01-06T10:08:00.000Z</time>
      </trkpt>
      <trkpt lat="45.13454" lon="5.92398">
        <ele>2092.6000976562</ele>
        <time>2021-01-06T10:08:01.000Z</time>
      </trkpt>
      <trkpt lat="45.13455" lon="5.92399">
        <ele>2093.3999023438</ele>
        <time>2021-01-06T10:08:07.000Z</time>
      </trkpt>
      <trkpt lat="45.13455" lon="5.92399">
        <ele>2093.6000976562</ele>
        <time>2021-01-06T10:08:08.000Z</time>
      </trkpt>
      <trkpt lat="45.13455" lon="5.92399">
        <ele>2094.1999511719</ele>
        <time>2021-01-06T10:08:13.000Z</time>
      </trkpt>
      <trkpt lat="45.13454" lon="5.924">
        <ele>2094.3999023438</ele>
        <time>2021-01-06T10:08:19.000Z</time>
      </trkpt>
      <trkpt lat="45.13454" lon="5.92401">
        <ele>2094.6000976562</ele>
        <time>2021-01-06T10:08:25.000Z</time>
      </trkpt>
      <trkpt lat="45.13454" lon="5.92401">
        <ele>2094.6000976562</ele>
        <time>2021-01-06T10:08:27.000Z</time>
      </trkpt>
      <trkpt lat="45.13454" lon="5.924">
        <ele>2095.3999023438</ele>
        <time>2021-01-06T10:08:31.000Z</time>
      </trkpt>
      <trkpt lat="45.13454" lon="5.924">
        <ele>2095.8000488281</ele>
        <time>2021-01-06T10:08:34.000Z</time>
      </trkpt>
      <trkpt lat="45.13455" lon="5.92401">
        <ele>2095.8000488281</ele>
        <time>2021-01-06T10:08:38.000Z</time>
      </trkpt>
      <trkpt lat="45.13456" lon="5.92401">
        <ele>2096.1999511719</ele>
        <time>2021-01-06T10:08:44.000Z</time>
      </trkpt>
      <trkpt lat="45.13459" lon="5.92403">
        <ele>2096.8000488281</ele>
        <time>2021-01-06T10:08:50.000Z</time>
      </trkpt>
      <trkpt lat="45.13458" lon="5.92403">
        <ele>2097.3999023438</ele>
        <time>2021-01-06T10:08:54.000Z</time>
      </trkpt>
      <trkpt lat="45.13458" lon="5.92404">
        <ele>2097.6000976562</ele>
        <time>2021-01-06T10:08:57.000Z</time>
      </trkpt>
      <trkpt lat="45.13455" lon="5.92407">
        <ele>2097.8000488281</ele>
        <time>2021-01-06T10:09:02.000Z</time>
      </trkpt>
      <trkpt lat="45.13455" lon="5.92407">
        <ele>2098</ele>
        <time>2021-01-06T10:09:03.000Z</time>
      </trkpt>
      <trkpt lat="45.13455" lon="5.92407">
        <ele>2098.6000976562</ele>
        <time>2021-01-06T10:09:12.000Z</time>
      </trkpt>
      <trkpt lat="45.13458" lon="5.92408">
        <ele>2098.8000488281</ele>
        <time>2021-01-06T10:09:18.000Z</time>
      </trkpt>
      <trkpt lat="45.13461" lon="5.92408">
        <ele>2099.6000976562</ele>
        <time>2021-01-06T10:09:24.000Z</time>
      </trkpt>
      <trkpt lat="45.13461" lon="5.92409">
        <ele>2099.8000488281</ele>
        <time>2021-01-06T10:09:25.000Z</time>
      </trkpt>
      <trkpt lat="45.1346" lon="5.9241">
        <ele>2100.3999023438</ele>
        <time>2021-01-06T10:09:29.000Z</time>
      </trkpt>
      <trkpt lat="45.1346" lon="5.9241">
        <ele>2101</ele>
        <time>2021-01-06T10:09:33.000Z</time>
      </trkpt>
      <trkpt lat="45.1346" lon="5.9241">
        <ele>2101.1999511719</ele>
        <time>2021-01-06T10:09:35.000Z</time>
      </trkpt>
      <trkpt lat="45.1346" lon="5.92411">
        <ele>2101.3999023438</ele>
        <time>2021-01-06T10:09:40.000Z</time>
      </trkpt>
      <trkpt lat="45.1346" lon="5.92411">
        <ele>2101.8000488281</ele>
        <time>2021-01-06T10:09:45.000Z</time>
      </trkpt>
      <trkpt lat="45.1346" lon="5.92411">
        <ele>2102</ele>
        <time>2021-01-06T10:09:49.000Z</time>
      </trkpt>
      <trkpt lat="45.13461" lon="5.92411">
        <ele>2102.1999511719</ele>
        <time>2021-01-06T10:09:52.000Z</time>
      </trkpt>
      <trkpt lat="45.13463" lon="5.92411">
        <ele>2103</ele>
        <time>2021-01-06T10:09:59.000Z</time>
      </trkpt>
      <trkpt lat="45.13463" lon="5.92412">
        <ele>2104</ele>
        <time>2021-01-06T10:10:06.000Z</time>
      </trkpt>
      <trkpt lat="45.13463" lon="5.92412">
        <ele>2104</ele>
        <time>2021-01-06T10:10:08.000Z</time>
      </trkpt>
      <trkpt lat="45.13463" lon="5.92412">
        <ele>2104.1999511719</ele>
        <time>2021-01-06T10:10:10.000Z</time>
      </trkpt>
      <trkpt lat="45.13463" lon="5.92412">
        <ele>2104.1999511719</ele>
        <time>2021-01-06T10:10:16.000Z</time>
      </trkpt>
      <trkpt lat="45.13462" lon="5.92413">
        <ele>2104.3999023438</ele>
        <time>2021-01-06T10:10:18.000Z</time>
      </trkpt>
      <trkpt lat="45.13462" lon="5.92415">
        <ele>2104.6000976562</ele>
        <time>2021-01-06T10:10:21.000Z</time>
      </trkpt>
      <trkpt lat="45.13463" lon="5.92415">
        <ele>2105.1999511719</ele>
        <time>2021-01-06T10:10:26.000Z</time>
      </trkpt>
      <trkpt lat="45.13463" lon="5.92415">
        <ele>2105.1999511719</ele>
        <time>2021-01-06T10:10:27.000Z</time>
      </trkpt>
      <trkpt lat="45.13465" lon="5.92415">
        <ele>2105.3999023438</ele>
        <time>2021-01-06T10:10:33.000Z</time>
      </trkpt>
      <trkpt lat="45.13465" lon="5.92414">
        <ele>2106.1999511719</ele>
        <time>2021-01-06T10:10:37.000Z</time>
      </trkpt>
      <trkpt lat="45.13465" lon="5.92414">
        <ele>2106.6000976562</ele>
        <time>2021-01-06T10:10:39.000Z</time>
      </trkpt>
      <trkpt lat="45.13465" lon="5.92416">
        <ele>2107</ele>
        <time>2021-01-06T10:10:47.000Z</time>
      </trkpt>
      <trkpt lat="45.13464" lon="5.92418">
        <ele>2107.1999511719</ele>
        <time>2021-01-06T10:10:51.000Z</time>
      </trkpt>
      <trkpt lat="45.13463" lon="5.92418">
        <ele>2107.3999023438</ele>
        <time>2021-01-06T10:10:53.000Z</time>
      </trkpt>
      <trkpt lat="45.13465" lon="5.92418">
        <ele>2108.1999511719</ele>
        <time>2021-01-06T10:10:59.000Z</time>
      </trkpt>
      <trkpt lat="45.13466" lon="5.92419">
        <ele>2108.8000488281</ele>
        <time>2021-01-06T10:11:07.000Z</time>
      </trkpt>
      <trkpt lat="45.13466" lon="5.92419">
        <ele>2109.3999023438</ele>
        <time>2021-01-06T10:11:12.000Z</time>
      </trkpt>
      <trkpt lat="45.13466" lon="5.92419">
        <ele>2109.3999023438</ele>
        <time>2021-01-06T10:11:14.000Z</time>
      </trkpt>
      <trkpt lat="45.13466" lon="5.9242">
        <ele>2109.6000976562</ele>
        <time>2021-01-06T10:11:19.000Z</time>
      </trkpt>
      <trkpt lat="45.13466" lon="5.92421">
        <ele>2110</ele>
        <time>2021-01-06T10:11:25.000Z</time>
      </trkpt>
      <trkpt lat="45.13466" lon="5.92421">
        <ele>2110.1999511719</ele>
        <time>2021-01-06T10:11:31.000Z</time>
      </trkpt>
      <trkpt lat="45.13466" lon="5.92421">
        <ele>2110.3999023438</ele>
        <time>2021-01-06T10:11:32.000Z</time>
      </trkpt>
      <trkpt lat="45.13466" lon="5.92421">
        <ele>2110.8000488281</ele>
        <time>2021-01-06T10:11:41.000Z</time>
      </trkpt>
      <trkpt lat="45.13467" lon="5.92421">
        <ele>2111</ele>
        <time>2021-01-06T10:11:47.000Z</time>
      </trkpt>
      <trkpt lat="45.13468" lon="5.9242">
        <ele>2111.1999511719</ele>
        <time>2021-01-06T10:11:52.000Z</time>
      </trkpt>
      <trkpt lat="45.13468" lon="5.92419">
        <ele>2111.3999023438</ele>
        <time>2021-01-06T10:11:55.000Z</time>
      </trkpt>
      <trkpt lat="45.13468" lon="5.92419">
        <ele>2111.6000976562</ele>
        <time>2021-01-06T10:11:58.000Z</time>
      </trkpt>
      <trkpt lat="45.13468" lon="5.9242">
        <ele>2112</ele>
        <time>2021-01-06T10:12:03.000Z</time>
      </trkpt>
      <trkpt lat="45.13468" lon="5.92419">
        <ele>2112</ele>
        <time>2021-01-06T10:12:05.000Z</time>
      </trkpt>
      <trkpt lat="45.13467" lon="5.92422">
        <ele>2112.3999023438</ele>
        <time>2021-01-06T10:12:10.000Z</time>
      </trkpt>
      <trkpt lat="45.13467" lon="5.92422">
        <ele>2112.6000976562</ele>
        <time>2021-01-06T10:12:11.000Z</time>
      </trkpt>
      <trkpt lat="45.13467" lon="5.92423">
        <ele>2113.1999511719</ele>
        <time>2021-01-06T10:12:16.000Z</time>
      </trkpt>
      <trkpt lat="45.13468" lon="5.92423">
        <ele>2113.1999511719</ele>
        <time>2021-01-06T10:12:21.000Z</time>
      </trkpt>
      <trkpt lat="45.13467" lon="5.92424">
        <ele>2113.3999023438</ele>
        <time>2021-01-06T10:12:26.000Z</time>
      </trkpt>
      <trkpt lat="45.13467" lon="5.92424">
        <ele>2113.6000976562</ele>
        <time>2021-01-06T10:12:27.000Z</time>
      </trkpt>
      <trkpt lat="45.13467" lon="5.92424">
        <ele>2114.3999023438</ele>
        <time>2021-01-06T10:12:33.000Z</time>
      </trkpt>
      <trkpt lat="45.13468" lon="5.92424">
        <ele>2114.3999023438</ele>
        <time>2021-01-06T10:12:40.000Z</time>
      </trkpt>
      <trkpt lat="45.13468" lon="5.92425">
        <ele>2114.6000976562</ele>
        <time>2021-01-06T10:12:42.000Z</time>
      </trkpt>
      <trkpt lat="45.13467" lon="5.92426">
        <ele>2115</ele>
        <time>2021-01-06T10:12:46.000Z</time>
      </trkpt>
      <trkpt lat="45.13467" lon="5.92427">
        <ele>2115.6000976562</ele>
        <time>2021-01-06T10:12:49.000Z</time>
      </trkpt>
      <trkpt lat="45.13467" lon="5.92427">
        <ele>2116</ele>
        <time>2021-01-06T10:12:51.000Z</time>
      </trkpt>
      <trkpt lat="45.13468" lon="5.92429">
        <ele>2116.3999023438</ele>
        <time>2021-01-06T10:12:57.000Z</time>
      </trkpt>
      <trkpt lat="45.13469" lon="5.92428">
        <ele>2116.8000488281</ele>
        <time>2021-01-06T10:13:01.000Z</time>
      </trkpt>
      <trkpt lat="45.13469" lon="5.92428">
        <ele>2116.8000488281</ele>
        <time>2021-01-06T10:13:02.000Z</time>
      </trkpt>
      <trkpt lat="45.13469" lon="5.92428">
        <ele>2116.8000488281</ele>
        <time>2021-01-06T10:13:08.000Z</time>
      </trkpt>
      <trkpt lat="45.13469" lon="5.92427">
        <ele>2116.8000488281</ele>
        <time>2021-01-06T10:13:15.000Z</time>
      </trkpt>
      <trkpt lat="45.13469" lon="5.92427">
        <ele>2117</ele>
        <time>2021-01-06T10:13:22.000Z</time>
      </trkpt>
      <trkpt lat="45.13469" lon="5.92427">
        <ele>2117.1999511719</ele>
        <time>2021-01-06T10:13:31.000Z</time>
      </trkpt>
      <trkpt lat="45.13469" lon="5.92427">
        <ele>2117</ele>
        <time>2021-01-06T10:13:37.000Z</time>
      </trkpt>
      <trkpt lat="45.13469" lon="5.92427">
        <ele>2116.6000976562</ele>
        <time>2021-01-06T10:13:44.000Z</time>
      </trkpt>
      <trkpt lat="45.1347" lon="5.92427">
        <ele>2117</ele>
        <time>2021-01-06T10:13:51.000Z</time>
      </trkpt>
      <trkpt lat="45.1347" lon="5.92427">
        <ele>2117.6000976562</ele>
        <time>2021-01-06T10:13:59.000Z</time>
      </trkpt>
      <trkpt lat="45.1347" lon="5.92427">
        <ele>2117.3999023438</ele>
        <time>2021-01-06T10:14:06.000Z</time>
      </trkpt>
      <trkpt lat="45.1347" lon="5.92427">
        <ele>2117.6000976562</ele>
        <time>2021-01-06T10:14:12.000Z</time>
      </trkpt>
      <trkpt lat="45.1347" lon="5.92427">
        <ele>2117.8000488281</ele>
        <time>2021-01-06T10:14:17.000Z</time>
      </trkpt>
      <trkpt lat="45.1347" lon="5.92427">
        <ele>2117.8000488281</ele>
        <time>2021-01-06T10:14:18.000Z</time>
      </trkpt>
      <trkpt lat="45.1347" lon="5.92431">
        <ele>2118.3999023438</ele>
        <time>2021-01-06T10:14:24.000Z</time>
      </trkpt>
      <trkpt lat="45.1347" lon="5.92431">
        <ele>2118.8000488281</ele>
        <time>2021-01-06T10:14:28.000Z</time>
      </trkpt>
      <trkpt lat="45.13469" lon="5.92433">
        <ele>2119.3999023438</ele>
        <time>2021-01-06T10:14:31.000Z</time>
      </trkpt>
      <trkpt lat="45.13469" lon="5.92434">
        <ele>2120</ele>
        <time>2021-01-06T10:14:34.000Z</time>
      </trkpt>
      <trkpt lat="45.13469" lon="5.92434">
        <ele>2120.6000976562</ele>
        <time>2021-01-06T10:14:37.000Z</time>
      </trkpt>
      <trkpt lat="45.13469" lon="5.92434">
        <ele>2120.8000488281</ele>
        <time>2021-01-06T10:14:42.000Z</time>
      </trkpt>
      <trkpt lat="45.13469" lon="5.92434">
        <ele>2121</ele>
        <time>2021-01-06T10:14:43.000Z</time>
      </trkpt>
      <trkpt lat="45.1347" lon="5.92434">
        <ele>2121.3999023438</ele>
        <time>2021-01-06T10:14:47.000Z</time>
      </trkpt>
      <trkpt lat="45.13471" lon="5.92434">
        <ele>2122</ele>
        <time>2021-01-06T10:14:53.000Z</time>
      </trkpt>
      <trkpt lat="45.13471" lon="5.92434">
        <ele>2122.1999511719</ele>
        <time>2021-01-06T10:14:54.000Z</time>
      </trkpt>
      <trkpt lat="45.13471" lon="5.92434">
        <ele>2122.3999023438</ele>
        <time>2021-01-06T10:15:00.000Z</time>
      </trkpt>
      <trkpt lat="45.13472" lon="5.92434">
        <ele>2122.8000488281</ele>
        <time>2021-01-06T10:15:06.000Z</time>
      </trkpt>
      <trkpt lat="45.13472" lon="5.92434">
        <ele>2123</ele>
        <time>2021-01-06T10:15:14.000Z</time>
      </trkpt>
      <trkpt lat="45.13472" lon="5.92435">
        <ele>2123</ele>
        <time>2021-01-06T10:15:17.000Z</time>
      </trkpt>
      <trkpt lat="45.13472" lon="5.92435">
        <ele>2123</ele>
        <time>2021-01-06T10:15:20.000Z</time>
      </trkpt>
      <trkpt lat="45.13472" lon="5.92436">
        <ele>2123.1999511719</ele>
        <time>2021-01-06T10:15:21.000Z</time>
      </trkpt>
      <trkpt lat="45.13471" lon="5.92437">
        <ele>2123.3999023438</ele>
        <time>2021-01-06T10:15:25.000Z</time>
      </trkpt>
      <trkpt lat="45.13472" lon="5.92438">
        <ele>2124</ele>
        <time>2021-01-06T10:15:31.000Z</time>
      </trkpt>
      <trkpt lat="45.13472" lon="5.92439">
        <ele>2124.1999511719</ele>
        <time>2021-01-06T10:15:32.000Z</time>
      </trkpt>
      <trkpt lat="45.13472" lon="5.92439">
        <ele>2124.8000488281</ele>
        <time>2021-01-06T10:15:37.000Z</time>
      </trkpt>
      <trkpt lat="45.13472" lon="5.92439">
        <ele>2125.1999511719</ele>
        <time>2021-01-06T10:15:45.000Z</time>
      </trkpt>
      <trkpt lat="45.13472" lon="5.9244">
        <ele>2125</ele>
        <time>2021-01-06T10:15:54.000Z</time>
      </trkpt>
      <trkpt lat="45.13472" lon="5.92441">
        <ele>2125.3999023438</ele>
        <time>2021-01-06T10:15:59.000Z</time>
      </trkpt>
      <trkpt lat="45.13472" lon="5.92441">
        <ele>2125.6000976562</ele>
        <time>2021-01-06T10:16:01.000Z</time>
      </trkpt>
      <trkpt lat="45.13472" lon="5.92441">
        <ele>2126.1999511719</ele>
        <time>2021-01-06T10:16:07.000Z</time>
      </trkpt>
      <trkpt lat="45.13475" lon="5.92441">
        <ele>2126.3999023438</ele>
        <time>2021-01-06T10:16:11.000Z</time>
      </trkpt>
      <trkpt lat="45.13476" lon="5.92441">
        <ele>2126.6000976562</ele>
        <time>2021-01-06T10:16:12.000Z</time>
      </trkpt>
      <trkpt lat="45.13477" lon="5.92441">
        <ele>2127.6000976562</ele>
        <time>2021-01-06T10:16:18.000Z</time>
      </trkpt>
      <trkpt lat="45.13477" lon="5.92441">
        <ele>2127.6000976562</ele>
        <time>2021-01-06T10:16:19.000Z</time>
      </trkpt>
      <trkpt lat="45.13477" lon="5.92441">
        <ele>2128</ele>
        <time>2021-01-06T10:16:25.000Z</time>
      </trkpt>
      <trkpt lat="45.13477" lon="5.92441">
        <ele>2128.3999023438</ele>
        <time>2021-01-06T10:16:34.000Z</time>
      </trkpt>
      <trkpt lat="45.13477" lon="5.92441">
        <ele>2128.6000976562</ele>
        <time>2021-01-06T10:16:35.000Z</time>
      </trkpt>
      <trkpt lat="45.13478" lon="5.92442">
        <ele>2128.6000976562</ele>
        <time>2021-01-06T10:16:39.000Z</time>
      </trkpt>
      <trkpt lat="45.13478" lon="5.92441">
        <ele>2128.6000976562</ele>
        <time>2021-01-06T10:16:41.000Z</time>
      </trkpt>
      <trkpt lat="45.13476" lon="5.92445">
        <ele>2128.8000488281</ele>
        <time>2021-01-06T10:16:45.000Z</time>
      </trkpt>
      <trkpt lat="45.13476" lon="5.92446">
        <ele>2129</ele>
        <time>2021-01-06T10:16:47.000Z</time>
      </trkpt>
      <trkpt lat="45.13474" lon="5.92447">
        <ele>2129.3999023438</ele>
        <time>2021-01-06T10:16:50.000Z</time>
      </trkpt>
      <trkpt lat="45.13473" lon="5.92447">
        <ele>2129.6000976562</ele>
        <time>2021-01-06T10:16:52.000Z</time>
      </trkpt>
      <trkpt lat="45.13474" lon="5.92447">
        <ele>2130.3999023438</ele>
        <time>2021-01-06T10:16:58.000Z</time>
      </trkpt>
      <trkpt lat="45.13475" lon="5.92448">
        <ele>2130.8000488281</ele>
        <time>2021-01-06T10:17:02.000Z</time>
      </trkpt>
      <trkpt lat="45.13477" lon="5.92448">
        <ele>2131</ele>
        <time>2021-01-06T10:17:04.000Z</time>
      </trkpt>
      <trkpt lat="45.13481" lon="5.92447">
        <ele>2131.3999023438</ele>
        <time>2021-01-06T10:17:08.000Z</time>
      </trkpt>
      <trkpt lat="45.13482" lon="5.92447">
        <ele>2131.3999023438</ele>
        <time>2021-01-06T10:17:09.000Z</time>
      </trkpt>
      <trkpt lat="45.13482" lon="5.92446">
        <ele>2131.8000488281</ele>
        <time>2021-01-06T10:17:13.000Z</time>
      </trkpt>
      <trkpt lat="45.13483" lon="5.92446">
        <ele>2132</ele>
        <time>2021-01-06T10:17:14.000Z</time>
      </trkpt>
      <trkpt lat="45.13483" lon="5.92446">
        <ele>2132.8000488281</ele>
        <time>2021-01-06T10:17:19.000Z</time>
      </trkpt>
      <trkpt lat="45.13482" lon="5.92446">
        <ele>2133</ele>
        <time>2021-01-06T10:17:20.000Z</time>
      </trkpt>
      <trkpt lat="45.13481" lon="5.92452">
        <ele>2133.6000976562</ele>
        <time>2021-01-06T10:17:28.000Z</time>
      </trkpt>
      <trkpt lat="45.1348" lon="5.92453">
        <ele>2134</ele>
        <time>2021-01-06T10:17:30.000Z</time>
      </trkpt>
      <trkpt lat="45.13479" lon="5.92453">
        <ele>2134.8000488281</ele>
        <time>2021-01-06T10:17:34.000Z</time>
      </trkpt>
      <trkpt lat="45.13479" lon="5.92453">
        <ele>2135.1999511719</ele>
        <time>2021-01-06T10:17:36.000Z</time>
      </trkpt>
      <trkpt lat="45.13481" lon="5.92454">
        <ele>2135.6000976562</ele>
        <time>2021-01-06T10:17:40.000Z</time>
      </trkpt>
      <trkpt lat="45.13483" lon="5.92454">
        <ele>2136</ele>
        <time>2021-01-06T10:17:45.000Z</time>
      </trkpt>
      <trkpt lat="45.13484" lon="5.92455">
        <ele>2136.3999023438</ele>
        <time>2021-01-06T10:17:47.000Z</time>
      </trkpt>
      <trkpt lat="45.13486" lon="5.92454">
        <ele>2137</ele>
        <time>2021-01-06T10:17:50.000Z</time>
      </trkpt>
      <trkpt lat="45.13485" lon="5.92454">
        <ele>2137.3999023438</ele>
        <time>2021-01-06T10:17:53.000Z</time>
      </trkpt>
      <trkpt lat="45.13487" lon="5.92452">
        <ele>2137.8000488281</ele>
        <time>2021-01-06T10:17:55.000Z</time>
      </trkpt>
      <trkpt lat="45.1349" lon="5.92452">
        <ele>2138.6000976562</ele>
        <time>2021-01-06T10:18:00.000Z</time>
      </trkpt>
      <trkpt lat="45.13492" lon="5.9245">
        <ele>2139.3999023438</ele>
        <time>2021-01-06T10:18:05.000Z</time>
      </trkpt>
      <trkpt lat="45.13492" lon="5.9245">
        <ele>2139.6000976562</ele>
        <time>2021-01-06T10:18:06.000Z</time>
      </trkpt>
      <trkpt lat="45.13492" lon="5.92451">
        <ele>2140.1999511719</ele>
        <time>2021-01-06T10:18:10.000Z</time>
      </trkpt>
      <trkpt lat="45.13492" lon="5.92452">
        <ele>2140.6000976562</ele>
        <time>2021-01-06T10:18:12.000Z</time>
      </trkpt>
      <trkpt lat="45.13493" lon="5.92454">
        <ele>2141.6000976562</ele>
        <time>2021-01-06T10:18:17.000Z</time>
      </trkpt>
      <trkpt lat="45.13493" lon="5.92455">
        <ele>2141.8000488281</ele>
        <time>2021-01-06T10:18:18.000Z</time>
      </trkpt>
      <trkpt lat="45.13494" lon="5.92456">
        <ele>2142.8000488281</ele>
        <time>2021-01-06T10:18:24.000Z</time>
      </trkpt>
      <trkpt lat="45.13494" lon="5.92458">
        <ele>2143</ele>
        <time>2021-01-06T10:18:25.000Z</time>
      </trkpt>
      <trkpt lat="45.13492" lon="5.92459">
        <ele>2143.1999511719</ele>
        <time>2021-01-06T10:18:28.000Z</time>
      </trkpt>
      <trkpt lat="45.1349" lon="5.92459">
        <ele>2143.3999023438</ele>
        <time>2021-01-06T10:18:33.000Z</time>
      </trkpt>
      <trkpt lat="45.1349" lon="5.92459">
        <ele>2143.8000488281</ele>
        <time>2021-01-06T10:18:44.000Z</time>
      </trkpt>
      <trkpt lat="45.1349" lon="5.92459">
        <ele>2143.8000488281</ele>
        <time>2021-01-06T10:18:54.000Z</time>
      </trkpt>
      <trkpt lat="45.1349" lon="5.92459">
        <ele>2143.8000488281</ele>
        <time>2021-01-06T10:19:08.000Z</time>
      </trkpt>
      <trkpt lat="45.1349" lon="5.92459">
        <ele>2143.8000488281</ele>
        <time>2021-01-06T10:19:10.000Z</time>
      </trkpt>
      <trkpt lat="45.13492" lon="5.92461">
        <ele>2143.8000488281</ele>
        <time>2021-01-06T10:19:15.000Z</time>
      </trkpt>
      <trkpt lat="45.13495" lon="5.92465">
        <ele>2144.1999511719</ele>
        <time>2021-01-06T10:19:21.000Z</time>
      </trkpt>
      <trkpt lat="45.13497" lon="5.92468">
        <ele>2145</ele>
        <time>2021-01-06T10:19:24.000Z</time>
      </trkpt>
      <trkpt lat="45.13499" lon="5.92475">
        <ele>2146</ele>
        <time>2021-01-06T10:19:29.000Z</time>
      </trkpt>
      <trkpt lat="45.135" lon="5.92476">
        <ele>2146</ele>
        <time>2021-01-06T10:19:30.000Z</time>
      </trkpt>
      <trkpt lat="45.13503" lon="5.92485">
        <ele>2146.3999023438</ele>
        <time>2021-01-06T10:19:35.000Z</time>
      </trkpt>
      <trkpt lat="45.13506" lon="5.92499">
        <ele>2145.8000488281</ele>
        <time>2021-01-06T10:19:43.000Z</time>
      </trkpt>
      <trkpt lat="45.13508" lon="5.92503">
        <ele>2145.3999023438</ele>
        <time>2021-01-06T10:19:46.000Z</time>
      </trkpt>
      <trkpt lat="45.1351" lon="5.92508">
        <ele>2145.3999023438</ele>
        <time>2021-01-06T10:19:50.000Z</time>
      </trkpt>
      <trkpt lat="45.13512" lon="5.92516">
        <ele>2146.3999023438</ele>
        <time>2021-01-06T10:19:55.000Z</time>
      </trkpt>
      <trkpt lat="45.13513" lon="5.92522">
        <ele>2147.1999511719</ele>
        <time>2021-01-06T10:19:59.000Z</time>
      </trkpt>
      <trkpt lat="45.13513" lon="5.92524">
        <ele>2147.6000976562</ele>
        <time>2021-01-06T10:20:01.000Z</time>
      </trkpt>
      <trkpt lat="45.13514" lon="5.92528">
        <ele>2148.1999511719</ele>
        <time>2021-01-06T10:20:04.000Z</time>
      </trkpt>
      <trkpt lat="45.13514" lon="5.92532">
        <ele>2149</ele>
        <time>2021-01-06T10:20:07.000Z</time>
      </trkpt>
      <trkpt lat="45.13514" lon="5.92535">
        <ele>2149.3999023438</ele>
        <time>2021-01-06T10:20:09.000Z</time>
      </trkpt>
      <trkpt lat="45.13514" lon="5.92536">
        <ele>2149.6000976562</ele>
        <time>2021-01-06T10:20:10.000Z</time>
      </trkpt>
      <trkpt lat="45.13514" lon="5.92539">
        <ele>2150.6000976562</ele>
        <time>2021-01-06T10:20:13.000Z</time>
      </trkpt>
      <trkpt lat="45.13513" lon="5.9254">
        <ele>2150.8000488281</ele>
        <time>2021-01-06T10:20:14.000Z</time>
      </trkpt>
      <trkpt lat="45.13514" lon="5.92544">
        <ele>2151.6000976562</ele>
        <time>2021-01-06T10:20:17.000Z</time>
      </trkpt>
      <trkpt lat="45.13514" lon="5.92547">
        <ele>2152</ele>
        <time>2021-01-06T10:20:19.000Z</time>
      </trkpt>
      <trkpt lat="45.13514" lon="5.92551">
        <ele>2152.8000488281</ele>
        <time>2021-01-06T10:20:23.000Z</time>
      </trkpt>
      <trkpt lat="45.13514" lon="5.92554">
        <ele>2153</ele>
        <time>2021-01-06T10:20:26.000Z</time>
      </trkpt>
      <trkpt lat="45.13516" lon="5.92559">
        <ele>2154</ele>
        <time>2021-01-06T10:20:30.000Z</time>
      </trkpt>
      <trkpt lat="45.13516" lon="5.92561">
        <ele>2154.3999023438</ele>
        <time>2021-01-06T10:20:33.000Z</time>
      </trkpt>
      <trkpt lat="45.13516" lon="5.92562">
        <ele>2155</ele>
        <time>2021-01-06T10:20:36.000Z</time>
      </trkpt>
      <trkpt lat="45.13516" lon="5.92564">
        <ele>2155.6000976562</ele>
        <time>2021-01-06T10:20:40.000Z</time>
      </trkpt>
      <trkpt lat="45.13515" lon="5.9257">
        <ele>2156</ele>
        <time>2021-01-06T10:20:45.000Z</time>
      </trkpt>
      <trkpt lat="45.13515" lon="5.92569">
        <ele>2156.1999511719</ele>
        <time>2021-01-06T10:20:46.000Z</time>
      </trkpt>
      <trkpt lat="45.13514" lon="5.92572">
        <ele>2157.1999511719</ele>
        <time>2021-01-06T10:20:51.000Z</time>
      </trkpt>
      <trkpt lat="45.13513" lon="5.92574">
        <ele>2158.3999023438</ele>
        <time>2021-01-06T10:20:56.000Z</time>
      </trkpt>
      <trkpt lat="45.13514" lon="5.92574">
        <ele>2158.6000976562</ele>
        <time>2021-01-06T10:20:57.000Z</time>
      </trkpt>
      <trkpt lat="45.13512" lon="5.92578">
        <ele>2159.3999023438</ele>
        <time>2021-01-06T10:21:00.000Z</time>
      </trkpt>
      <trkpt lat="45.13511" lon="5.92581">
        <ele>2160.6000976562</ele>
        <time>2021-01-06T10:21:05.000Z</time>
      </trkpt>
      <trkpt lat="45.13509" lon="5.92587">
        <ele>2161.8000488281</ele>
        <time>2021-01-06T10:21:10.000Z</time>
      </trkpt>
      <trkpt lat="45.13508" lon="5.92588">
        <ele>2162</ele>
        <time>2021-01-06T10:21:11.000Z</time>
      </trkpt>
      <trkpt lat="45.13508" lon="5.92592">
        <ele>2162.8000488281</ele>
        <time>2021-01-06T10:21:15.000Z</time>
      </trkpt>
      <trkpt lat="45.13507" lon="5.92596">
        <ele>2163.1999511719</ele>
        <time>2021-01-06T10:21:18.000Z</time>
      </trkpt>
      <trkpt lat="45.13506" lon="5.926">
        <ele>2164</ele>
        <time>2021-01-06T10:21:23.000Z</time>
      </trkpt>
      <trkpt lat="45.13506" lon="5.92603">
        <ele>2164.3999023438</ele>
        <time>2021-01-06T10:21:25.000Z</time>
      </trkpt>
      <trkpt lat="45.13504" lon="5.92608">
        <ele>2165.1999511719</ele>
        <time>2021-01-06T10:21:30.000Z</time>
      </trkpt>
      <trkpt lat="45.13504" lon="5.92609">
        <ele>2165.3999023438</ele>
        <time>2021-01-06T10:21:32.000Z</time>
      </trkpt>
      <trkpt lat="45.13504" lon="5.92613">
        <ele>2166.1999511719</ele>
        <time>2021-01-06T10:21:36.000Z</time>
      </trkpt>
      <trkpt lat="45.13504" lon="5.92616">
        <ele>2166.6000976562</ele>
        <time>2021-01-06T10:21:38.000Z</time>
      </trkpt>
      <trkpt lat="45.13503" lon="5.92619">
        <ele>2167.3999023438</ele>
        <time>2021-01-06T10:21:41.000Z</time>
      </trkpt>
      <trkpt lat="45.13502" lon="5.92624">
        <ele>2168</ele>
        <time>2021-01-06T10:21:45.000Z</time>
      </trkpt>
      <trkpt lat="45.13501" lon="5.92626">
        <ele>2168.6000976562</ele>
        <time>2021-01-06T10:21:47.000Z</time>
      </trkpt>
      <trkpt lat="45.13498" lon="5.92632">
        <ele>2169.3999023438</ele>
        <time>2021-01-06T10:21:53.000Z</time>
      </trkpt>
      <trkpt lat="45.13496" lon="5.92634">
        <ele>2169.6000976562</ele>
        <time>2021-01-06T10:21:55.000Z</time>
      </trkpt>
      <trkpt lat="45.13496" lon="5.9264">
        <ele>2170.1999511719</ele>
        <time>2021-01-06T10:22:00.000Z</time>
      </trkpt>
      <trkpt lat="45.13496" lon="5.92643">
        <ele>2170.8000488281</ele>
        <time>2021-01-06T10:22:03.000Z</time>
      </trkpt>
      <trkpt lat="45.13496" lon="5.92647">
        <ele>2171.8000488281</ele>
        <time>2021-01-06T10:22:07.000Z</time>
      </trkpt>
      <trkpt lat="45.13495" lon="5.92648">
        <ele>2172</ele>
        <time>2021-01-06T10:22:08.000Z</time>
      </trkpt>
      <trkpt lat="45.13495" lon="5.9265">
        <ele>2173.1999511719</ele>
        <time>2021-01-06T10:22:12.000Z</time>
      </trkpt>
      <trkpt lat="45.13495" lon="5.92654">
        <ele>2174</ele>
        <time>2021-01-06T10:22:15.000Z</time>
      </trkpt>
      <trkpt lat="45.13494" lon="5.92655">
        <ele>2174.3999023438</ele>
        <time>2021-01-06T10:22:17.000Z</time>
      </trkpt>
      <trkpt lat="45.13495" lon="5.92658">
        <ele>2175.3999023438</ele>
        <time>2021-01-06T10:22:21.000Z</time>
      </trkpt>
      <trkpt lat="45.13495" lon="5.9266">
        <ele>2175.6000976562</ele>
        <time>2021-01-06T10:22:22.000Z</time>
      </trkpt>
      <trkpt lat="45.13494" lon="5.92662">
        <ele>2176.1999511719</ele>
        <time>2021-01-06T10:22:24.000Z</time>
      </trkpt>
      <trkpt lat="45.13492" lon="5.92665">
        <ele>2176.8000488281</ele>
        <time>2021-01-06T10:22:27.000Z</time>
      </trkpt>
      <trkpt lat="45.13492" lon="5.92669">
        <ele>2177.8000488281</ele>
        <time>2021-01-06T10:22:33.000Z</time>
      </trkpt>
      <trkpt lat="45.13492" lon="5.92674">
        <ele>2178.8000488281</ele>
        <time>2021-01-06T10:22:38.000Z</time>
      </trkpt>
      <trkpt lat="45.13491" lon="5.92679">
        <ele>2179.8000488281</ele>
        <time>2021-01-06T10:22:42.000Z</time>
      </trkpt>
      <trkpt lat="45.13491" lon="5.92678">
        <ele>2180</ele>
        <time>2021-01-06T10:22:43.000Z</time>
      </trkpt>
      <trkpt lat="45.13491" lon="5.92678">
        <ele>2180.8000488281</ele>
        <time>2021-01-06T10:22:48.000Z</time>
      </trkpt>
      <trkpt lat="45.13491" lon="5.92678">
        <ele>2181</ele>
        <time>2021-01-06T10:22:54.000Z</time>
      </trkpt>
      <trkpt lat="45.13491" lon="5.92678">
        <ele>2181</ele>
        <time>2021-01-06T10:22:58.000Z</time>
      </trkpt>
      <trkpt lat="45.13489" lon="5.92683">
        <ele>2181.1999511719</ele>
        <time>2021-01-06T10:23:05.000Z</time>
      </trkpt>
      <trkpt lat="45.13487" lon="5.92689">
        <ele>2181.8000488281</ele>
        <time>2021-01-06T10:23:10.000Z</time>
      </trkpt>
      <trkpt lat="45.13488" lon="5.9269">
        <ele>2182</ele>
        <time>2021-01-06T10:23:11.000Z</time>
      </trkpt>
      <trkpt lat="45.13488" lon="5.92691">
        <ele>2182.1999511719</ele>
        <time>2021-01-06T10:23:12.000Z</time>
      </trkpt>
      <trkpt lat="45.13485" lon="5.92698">
        <ele>2183.1999511719</ele>
        <time>2021-01-06T10:23:17.000Z</time>
      </trkpt>
      <trkpt lat="45.13485" lon="5.927">
        <ele>2183.3999023438</ele>
        <time>2021-01-06T10:23:19.000Z</time>
      </trkpt>
      <trkpt lat="45.13483" lon="5.92707">
        <ele>2184.1999511719</ele>
        <time>2021-01-06T10:23:24.000Z</time>
      </trkpt>
      <trkpt lat="45.13483" lon="5.92713">
        <ele>2184.8000488281</ele>
        <time>2021-01-06T10:23:29.000Z</time>
      </trkpt>
      <trkpt lat="45.13481" lon="5.92717">
        <ele>2185.1999511719</ele>
        <time>2021-01-06T10:23:32.000Z</time>
      </trkpt>
      <trkpt lat="45.13479" lon="5.9272">
        <ele>2185.8000488281</ele>
        <time>2021-01-06T10:23:35.000Z</time>
      </trkpt>
      <trkpt lat="45.13477" lon="5.92723">
        <ele>2186.3999023438</ele>
        <time>2021-01-06T10:23:38.000Z</time>
      </trkpt>
      <trkpt lat="45.13473" lon="5.92728">
        <ele>2187</ele>
        <time>2021-01-06T10:23:42.000Z</time>
      </trkpt>
      <trkpt lat="45.13471" lon="5.9273">
        <ele>2187.3999023438</ele>
        <time>2021-01-06T10:23:44.000Z</time>
      </trkpt>
      <trkpt lat="45.13467" lon="5.92733">
        <ele>2188.3999023438</ele>
        <time>2021-01-06T10:23:48.000Z</time>
      </trkpt>
      <trkpt lat="45.13465" lon="5.92735">
        <ele>2188.8000488281</ele>
        <time>2021-01-06T10:23:50.000Z</time>
      </trkpt>
      <trkpt lat="45.13464" lon="5.9274">
        <ele>2189.6000976562</ele>
        <time>2021-01-06T10:23:54.000Z</time>
      </trkpt>
      <trkpt lat="45.13463" lon="5.92742">
        <ele>2190</ele>
        <time>2021-01-06T10:23:56.000Z</time>
      </trkpt>
      <trkpt lat="45.13462" lon="5.92744">
        <ele>2190.3999023438</ele>
        <time>2021-01-06T10:23:58.000Z</time>
      </trkpt>
      <trkpt lat="45.13461" lon="5.92744">
        <ele>2190.6000976562</ele>
        <time>2021-01-06T10:23:59.000Z</time>
      </trkpt>
      <trkpt lat="45.1346" lon="5.92747">
        <ele>2191.1999511719</ele>
        <time>2021-01-06T10:24:02.000Z</time>
      </trkpt>
      <trkpt lat="45.13459" lon="5.9275">
        <ele>2191.6000976562</ele>
        <time>2021-01-06T10:24:05.000Z</time>
      </trkpt>
      <trkpt lat="45.1346" lon="5.92758">
        <ele>2192.3999023438</ele>
        <time>2021-01-06T10:24:09.000Z</time>
      </trkpt>
      <trkpt lat="45.13458" lon="5.92758">
        <ele>2192.6000976562</ele>
        <time>2021-01-06T10:24:10.000Z</time>
      </trkpt>
      <trkpt lat="45.13468" lon="5.92757">
        <ele>2193.8000488281</ele>
        <time>2021-01-06T10:24:14.000Z</time>
      </trkpt>
      <trkpt lat="45.13468" lon="5.92758">
        <ele>2194</ele>
        <time>2021-01-06T10:24:15.000Z</time>
      </trkpt>
      <trkpt lat="45.13467" lon="5.9276">
        <ele>2194.8000488281</ele>
        <time>2021-01-06T10:24:19.000Z</time>
      </trkpt>
      <trkpt lat="45.13472" lon="5.92761">
        <ele>2195.8000488281</ele>
        <time>2021-01-06T10:24:24.000Z</time>
      </trkpt>
      <trkpt lat="45.13478" lon="5.92762">
        <ele>2196.3999023438</ele>
        <time>2021-01-06T10:24:29.000Z</time>
      </trkpt>
      <trkpt lat="45.13481" lon="5.92763">
        <ele>2196.8000488281</ele>
        <time>2021-01-06T10:24:32.000Z</time>
      </trkpt>
      <trkpt lat="45.13484" lon="5.92764">
        <ele>2197.8000488281</ele>
        <time>2021-01-06T10:24:36.000Z</time>
      </trkpt>
      <trkpt lat="45.13484" lon="5.92764">
        <ele>2198</ele>
        <time>2021-01-06T10:24:37.000Z</time>
      </trkpt>
      <trkpt lat="45.13486" lon="5.92765">
        <ele>2199</ele>
        <time>2021-01-06T10:24:43.000Z</time>
      </trkpt>
      <trkpt lat="45.13486" lon="5.92765">
        <ele>2199.1999511719</ele>
        <time>2021-01-06T10:24:44.000Z</time>
      </trkpt>
      <trkpt lat="45.13487" lon="5.92766">
        <ele>2200.1999511719</ele>
        <time>2021-01-06T10:24:50.000Z</time>
      </trkpt>
      <trkpt lat="45.13489" lon="5.92768">
        <ele>2201.3999023438</ele>
        <time>2021-01-06T10:24:56.000Z</time>
      </trkpt>
      <trkpt lat="45.13489" lon="5.92768">
        <ele>2201.6000976562</ele>
        <time>2021-01-06T10:24:57.000Z</time>
      </trkpt>
      <trkpt lat="45.13491" lon="5.92767">
        <ele>2202.3999023438</ele>
        <time>2021-01-06T10:25:00.000Z</time>
      </trkpt>
      <trkpt lat="45.13492" lon="5.92767">
        <ele>2203.1999511719</ele>
        <time>2021-01-06T10:25:03.000Z</time>
      </trkpt>
      <trkpt lat="45.13494" lon="5.92766">
        <ele>2203.6000976562</ele>
        <time>2021-01-06T10:25:05.000Z</time>
      </trkpt>
      <trkpt lat="45.13498" lon="5.92765">
        <ele>2204.8000488281</ele>
        <time>2021-01-06T10:25:11.000Z</time>
      </trkpt>
      <trkpt lat="45.13495" lon="5.92764">
        <ele>2205.6000976562</ele>
        <time>2021-01-06T10:25:16.000Z</time>
      </trkpt>
      <trkpt lat="45.13495" lon="5.92764">
        <ele>2205.8000488281</ele>
        <time>2021-01-06T10:25:17.000Z</time>
      </trkpt>
      <trkpt lat="45.13494" lon="5.92766">
        <ele>2206.3999023438</ele>
        <time>2021-01-06T10:25:20.000Z</time>
      </trkpt>
      <trkpt lat="45.13496" lon="5.92768">
        <ele>2206.8000488281</ele>
        <time>2021-01-06T10:25:23.000Z</time>
      </trkpt>
      <trkpt lat="45.13497" lon="5.92769">
        <ele>2207</ele>
        <time>2021-01-06T10:25:24.000Z</time>
      </trkpt>
      <trkpt lat="45.135" lon="5.92773">
        <ele>2207.8000488281</ele>
        <time>2021-01-06T10:25:29.000Z</time>
      </trkpt>
      <trkpt lat="45.13498" lon="5.92778">
        <ele>2209</ele>
        <time>2021-01-06T10:25:35.000Z</time>
      </trkpt>
      <trkpt lat="45.13496" lon="5.92783">
        <ele>2210.1999511719</ele>
        <time>2021-01-06T10:25:40.000Z</time>
      </trkpt>
      <trkpt lat="45.13497" lon="5.92783">
        <ele>2210.6000976562</ele>
        <time>2021-01-06T10:25:43.000Z</time>
      </trkpt>
      <trkpt lat="45.13495" lon="5.92786">
        <ele>2211.1999511719</ele>
        <time>2021-01-06T10:25:47.000Z</time>
      </trkpt>
      <trkpt lat="45.13494" lon="5.92786">
        <ele>2211.8000488281</ele>
        <time>2021-01-06T10:25:50.000Z</time>
      </trkpt>
      <trkpt lat="45.13494" lon="5.92787">
        <ele>2212.1999511719</ele>
        <time>2021-01-06T10:25:52.000Z</time>
      </trkpt>
      <trkpt lat="45.13495" lon="5.92788">
        <ele>2212.6000976562</ele>
        <time>2021-01-06T10:25:56.000Z</time>
      </trkpt>
      <trkpt lat="45.13496" lon="5.92788">
        <ele>2213.3999023438</ele>
        <time>2021-01-06T10:26:01.000Z</time>
      </trkpt>
      <trkpt lat="45.13496" lon="5.92788">
        <ele>2213.6000976562</ele>
        <time>2021-01-06T10:26:02.000Z</time>
      </trkpt>
      <trkpt lat="45.13496" lon="5.92788">
        <ele>2214.3999023438</ele>
        <time>2021-01-06T10:26:07.000Z</time>
      </trkpt>
      <trkpt lat="45.13496" lon="5.92788">
        <ele>2215.6000976562</ele>
        <time>2021-01-06T10:26:12.000Z</time>
      </trkpt>
      <trkpt lat="45.13496" lon="5.92788">
        <ele>2215.6000976562</ele>
        <time>2021-01-06T10:26:13.000Z</time>
      </trkpt>
      <trkpt lat="45.13494" lon="5.92792">
        <ele>2216.3999023438</ele>
        <time>2021-01-06T10:26:19.000Z</time>
      </trkpt>
      <trkpt lat="45.13494" lon="5.92792">
        <ele>2216.8000488281</ele>
        <time>2021-01-06T10:26:21.000Z</time>
      </trkpt>
      <trkpt lat="45.13494" lon="5.92792">
        <ele>2217.1999511719</ele>
        <time>2021-01-06T10:26:24.000Z</time>
      </trkpt>
      <trkpt lat="45.13494" lon="5.92792">
        <ele>2217.8000488281</ele>
        <time>2021-01-06T10:26:30.000Z</time>
      </trkpt>
      <trkpt lat="45.13494" lon="5.92792">
        <ele>2219.1999511719</ele>
        <time>2021-01-06T10:26:36.000Z</time>
      </trkpt>
      <trkpt lat="45.13496" lon="5.92792">
        <ele>2220.3999023438</ele>
        <time>2021-01-06T10:26:41.000Z</time>
      </trkpt>
      <trkpt lat="45.13496" lon="5.92792">
        <ele>2221.3999023438</ele>
        <time>2021-01-06T10:26:46.000Z</time>
      </trkpt>
      <trkpt lat="45.13496" lon="5.92792">
        <ele>2221.6000976562</ele>
        <time>2021-01-06T10:26:47.000Z</time>
      </trkpt>
      <trkpt lat="45.13496" lon="5.92792">
        <ele>2222.6000976562</ele>
        <time>2021-01-06T10:26:52.000Z</time>
      </trkpt>
      <trkpt lat="45.13496" lon="5.92792">
        <ele>2222.8000488281</ele>
        <time>2021-01-06T10:26:53.000Z</time>
      </trkpt>
      <trkpt lat="45.13496" lon="5.92792">
        <ele>2223.6000976562</ele>
        <time>2021-01-06T10:26:57.000Z</time>
      </trkpt>
      <trkpt lat="45.13496" lon="5.92792">
        <ele>2223.8000488281</ele>
        <time>2021-01-06T10:26:58.000Z</time>
      </trkpt>
      <trkpt lat="45.13496" lon="5.92792">
        <ele>2224.6000976562</ele>
        <time>2021-01-06T10:27:01.000Z</time>
      </trkpt>
      <trkpt lat="45.13512" lon="5.92794">
        <ele>2225.6000976562</ele>
        <time>2021-01-06T10:27:06.000Z</time>
      </trkpt>
      <trkpt lat="45.13515" lon="5.92794">
        <ele>2225.8000488281</ele>
        <time>2021-01-06T10:27:07.000Z</time>
      </trkpt>
      <trkpt lat="45.13528" lon="5.92799">
        <ele>2227</ele>
        <time>2021-01-06T10:27:13.000Z</time>
      </trkpt>
      <trkpt lat="45.13528" lon="5.928">
        <ele>2227.1999511719</ele>
        <time>2021-01-06T10:27:14.000Z</time>
      </trkpt>
      <trkpt lat="45.13529" lon="5.92804">
        <ele>2227.3999023438</ele>
        <time>2021-01-06T10:27:19.000Z</time>
      </trkpt>
      <trkpt lat="45.13528" lon="5.92808">
        <ele>2228.1999511719</ele>
        <time>2021-01-06T10:27:24.000Z</time>
      </trkpt>
      <trkpt lat="45.13528" lon="5.9281">
        <ele>2229</ele>
        <time>2021-01-06T10:27:28.000Z</time>
      </trkpt>
      <trkpt lat="45.13528" lon="5.9281">
        <ele>2229.1999511719</ele>
        <time>2021-01-06T10:27:29.000Z</time>
      </trkpt>
      <trkpt lat="45.13528" lon="5.9281">
        <ele>2230</ele>
        <time>2021-01-06T10:27:33.000Z</time>
      </trkpt>
      <trkpt lat="45.13528" lon="5.9281">
        <ele>2230.3999023438</ele>
        <time>2021-01-06T10:27:35.000Z</time>
      </trkpt>
      <trkpt lat="45.13528" lon="5.9281">
        <ele>2231.1999511719</ele>
        <time>2021-01-06T10:27:39.000Z</time>
      </trkpt>
      <trkpt lat="45.13528" lon="5.9281">
        <ele>2231.3999023438</ele>
        <time>2021-01-06T10:27:40.000Z</time>
      </trkpt>
      <trkpt lat="45.13527" lon="5.92814">
        <ele>2232.3999023438</ele>
        <time>2021-01-06T10:27:46.000Z</time>
      </trkpt>
      <trkpt lat="45.13527" lon="5.92817">
        <ele>2232.8000488281</ele>
        <time>2021-01-06T10:27:48.000Z</time>
      </trkpt>
      <trkpt lat="45.13527" lon="5.92822">
        <ele>2233.3999023438</ele>
        <time>2021-01-06T10:27:51.000Z</time>
      </trkpt>
      <trkpt lat="45.13527" lon="5.92826">
        <ele>2234</ele>
        <time>2021-01-06T10:27:55.000Z</time>
      </trkpt>
      <trkpt lat="45.13526" lon="5.9283">
        <ele>2234.6000976562</ele>
        <time>2021-01-06T10:27:58.000Z</time>
      </trkpt>
      <trkpt lat="45.13526" lon="5.92835">
        <ele>2235.3999023438</ele>
        <time>2021-01-06T10:28:02.000Z</time>
      </trkpt>
      <trkpt lat="45.13526" lon="5.92836">
        <ele>2235.6000976562</ele>
        <time>2021-01-06T10:28:03.000Z</time>
      </trkpt>
      <trkpt lat="45.13525" lon="5.92843">
        <ele>2236.8000488281</ele>
        <time>2021-01-06T10:28:09.000Z</time>
      </trkpt>
      <trkpt lat="45.13524" lon="5.9285">
        <ele>2237.6000976562</ele>
        <time>2021-01-06T10:28:15.000Z</time>
      </trkpt>
      <trkpt lat="45.13526" lon="5.92853">
        <ele>2237.8000488281</ele>
        <time>2021-01-06T10:28:18.000Z</time>
      </trkpt>
      <trkpt lat="45.13526" lon="5.92855">
        <ele>2238.1999511719</ele>
        <time>2021-01-06T10:28:20.000Z</time>
      </trkpt>
      <trkpt lat="45.13527" lon="5.92858">
        <ele>2239</ele>
        <time>2021-01-06T10:28:23.000Z</time>
      </trkpt>
      <trkpt lat="45.13528" lon="5.92861">
        <ele>2239.8000488281</ele>
        <time>2021-01-06T10:28:27.000Z</time>
      </trkpt>
      <trkpt lat="45.13528" lon="5.92862">
        <ele>2240</ele>
        <time>2021-01-06T10:28:28.000Z</time>
      </trkpt>
      <trkpt lat="45.13529" lon="5.92868">
        <ele>2241.1999511719</ele>
        <time>2021-01-06T10:28:33.000Z</time>
      </trkpt>
      <trkpt lat="45.13528" lon="5.9287">
        <ele>2241.8000488281</ele>
        <time>2021-01-06T10:28:35.000Z</time>
      </trkpt>
      <trkpt lat="45.13528" lon="5.92871">
        <ele>2242.3999023438</ele>
        <time>2021-01-06T10:28:36.000Z</time>
      </trkpt>
      <trkpt lat="45.13529" lon="5.92875">
        <ele>2243.3999023438</ele>
        <time>2021-01-06T10:28:41.000Z</time>
      </trkpt>
      <trkpt lat="45.1353" lon="5.92883">
        <ele>2244.3999023438</ele>
        <time>2021-01-06T10:28:48.000Z</time>
      </trkpt>
      <trkpt lat="45.1353" lon="5.92885">
        <ele>2244.8000488281</ele>
        <time>2021-01-06T10:28:50.000Z</time>
      </trkpt>
      <trkpt lat="45.13529" lon="5.92891">
        <ele>2245.6000976562</ele>
        <time>2021-01-06T10:28:56.000Z</time>
      </trkpt>
      <trkpt lat="45.13528" lon="5.92897">
        <ele>2246.8000488281</ele>
        <time>2021-01-06T10:29:03.000Z</time>
      </trkpt>
      <trkpt lat="45.13528" lon="5.92898">
        <ele>2248</ele>
        <time>2021-01-06T10:29:10.000Z</time>
      </trkpt>
      <trkpt lat="45.13528" lon="5.92898">
        <ele>2247.8000488281</ele>
        <time>2021-01-06T10:29:20.000Z</time>
      </trkpt>
      <trkpt lat="45.13528" lon="5.92898">
        <ele>2247.8000488281</ele>
        <time>2021-01-06T10:29:31.000Z</time>
      </trkpt>
      <trkpt lat="45.13529" lon="5.929">
        <ele>2248</ele>
        <time>2021-01-06T10:29:36.000Z</time>
      </trkpt>
      <trkpt lat="45.13528" lon="5.92907">
        <ele>2248.8000488281</ele>
        <time>2021-01-06T10:29:41.000Z</time>
      </trkpt>
      <trkpt lat="45.13528" lon="5.92908">
        <ele>2249</ele>
        <time>2021-01-06T10:29:42.000Z</time>
      </trkpt>
      <trkpt lat="45.13528" lon="5.92915">
        <ele>2250.1999511719</ele>
        <time>2021-01-06T10:29:48.000Z</time>
      </trkpt>
      <trkpt lat="45.1353" lon="5.92925">
        <ele>2250.8000488281</ele>
        <time>2021-01-06T10:29:54.000Z</time>
      </trkpt>
      <trkpt lat="45.13531" lon="5.92932">
        <ele>2251.1999511719</ele>
        <time>2021-01-06T10:29:59.000Z</time>
      </trkpt>
      <trkpt lat="45.13532" lon="5.92937">
        <ele>2252.1999511719</ele>
        <time>2021-01-06T10:30:04.000Z</time>
      </trkpt>
      <trkpt lat="45.13532" lon="5.92938">
        <ele>2252.3999023438</ele>
        <time>2021-01-06T10:30:05.000Z</time>
      </trkpt>
      <trkpt lat="45.13535" lon="5.92942">
        <ele>2253.3999023438</ele>
        <time>2021-01-06T10:30:09.000Z</time>
      </trkpt>
      <trkpt lat="45.13535" lon="5.92943">
        <ele>2254</ele>
        <time>2021-01-06T10:30:11.000Z</time>
      </trkpt>
      <trkpt lat="45.13536" lon="5.92944">
        <ele>2254.6000976562</ele>
        <time>2021-01-06T10:30:13.000Z</time>
      </trkpt>
      <trkpt lat="45.13539" lon="5.92945">
        <ele>2255.8000488281</ele>
        <time>2021-01-06T10:30:18.000Z</time>
      </trkpt>
      <trkpt lat="45.13542" lon="5.92946">
        <ele>2256.8000488281</ele>
        <time>2021-01-06T10:30:22.000Z</time>
      </trkpt>
      <trkpt lat="45.13543" lon="5.92947">
        <ele>2257.1999511719</ele>
        <time>2021-01-06T10:30:24.000Z</time>
      </trkpt>
      <trkpt lat="45.13545" lon="5.92949">
        <ele>2257.8000488281</ele>
        <time>2021-01-06T10:30:27.000Z</time>
      </trkpt>
      <trkpt lat="45.13546" lon="5.92951">
        <ele>2258.1999511719</ele>
        <time>2021-01-06T10:30:29.000Z</time>
      </trkpt>
      <trkpt lat="45.13547" lon="5.92954">
        <ele>2258.8000488281</ele>
        <time>2021-01-06T10:30:32.000Z</time>
      </trkpt>
      <trkpt lat="45.13546" lon="5.92958">
        <ele>2260.1999511719</ele>
        <time>2021-01-06T10:30:36.000Z</time>
      </trkpt>
      <trkpt lat="45.13546" lon="5.92962">
        <ele>2261.1999511719</ele>
        <time>2021-01-06T10:30:42.000Z</time>
      </trkpt>
      <trkpt lat="45.13546" lon="5.92963">
        <ele>2261.3999023438</ele>
        <time>2021-01-06T10:30:43.000Z</time>
      </trkpt>
      <trkpt lat="45.13547" lon="5.92968">
        <ele>2262.3999023438</ele>
        <time>2021-01-06T10:30:48.000Z</time>
      </trkpt>
      <trkpt lat="45.13547" lon="5.92968">
        <ele>2262.8000488281</ele>
        <time>2021-01-06T10:30:50.000Z</time>
      </trkpt>
      <trkpt lat="45.13551" lon="5.92967">
        <ele>2263.3999023438</ele>
        <time>2021-01-06T10:30:54.000Z</time>
      </trkpt>
      <trkpt lat="45.13551" lon="5.92967">
        <ele>2263.8000488281</ele>
        <time>2021-01-06T10:30:56.000Z</time>
      </trkpt>
      <trkpt lat="45.13552" lon="5.92967">
        <ele>2264.8000488281</ele>
        <time>2021-01-06T10:31:00.000Z</time>
      </trkpt>
      <trkpt lat="45.13552" lon="5.92967">
        <ele>2265</ele>
        <time>2021-01-06T10:31:01.000Z</time>
      </trkpt>
      <trkpt lat="45.13553" lon="5.92967">
        <ele>2266</ele>
        <time>2021-01-06T10:31:05.000Z</time>
      </trkpt>
      <trkpt lat="45.13553" lon="5.92967">
        <ele>2266.3999023438</ele>
        <time>2021-01-06T10:31:07.000Z</time>
      </trkpt>
      <trkpt lat="45.13554" lon="5.92968">
        <ele>2267.1999511719</ele>
        <time>2021-01-06T10:31:10.000Z</time>
      </trkpt>
      <trkpt lat="45.13554" lon="5.92968">
        <ele>2267.6000976562</ele>
        <time>2021-01-06T10:31:12.000Z</time>
      </trkpt>
      <trkpt lat="45.13553" lon="5.9297">
        <ele>2268.1999511719</ele>
        <time>2021-01-06T10:31:18.000Z</time>
      </trkpt>
      <trkpt lat="45.13553" lon="5.92975">
        <ele>2269.3999023438</ele>
        <time>2021-01-06T10:31:24.000Z</time>
      </trkpt>
      <trkpt lat="45.13552" lon="5.92979">
        <ele>2270.3999023438</ele>
        <time>2021-01-06T10:31:30.000Z</time>
      </trkpt>
      <trkpt lat="45.13552" lon="5.92981">
        <ele>2270.6000976562</ele>
        <time>2021-01-06T10:31:31.000Z</time>
      </trkpt>
      <trkpt lat="45.13551" lon="5.92984">
        <ele>2271.3999023438</ele>
        <time>2021-01-06T10:31:36.000Z</time>
      </trkpt>
      <trkpt lat="45.13552" lon="5.92985">
        <ele>2272</ele>
        <time>2021-01-06T10:31:39.000Z</time>
      </trkpt>
      <trkpt lat="45.13552" lon="5.92985">
        <ele>2272.6000976562</ele>
        <time>2021-01-06T10:31:43.000Z</time>
      </trkpt>
      <trkpt lat="45.13552" lon="5.92985">
        <ele>2272.6000976562</ele>
        <time>2021-01-06T10:31:45.000Z</time>
      </trkpt>
      <trkpt lat="45.13552" lon="5.92985">
        <ele>2273.3999023438</ele>
        <time>2021-01-06T10:31:51.000Z</time>
      </trkpt>
      <trkpt lat="45.13552" lon="5.92985">
        <ele>2273.6000976562</ele>
        <time>2021-01-06T10:31:52.000Z</time>
      </trkpt>
      <trkpt lat="45.13556" lon="5.92985">
        <ele>2274.8000488281</ele>
        <time>2021-01-06T10:31:57.000Z</time>
      </trkpt>
      <trkpt lat="45.13558" lon="5.92984">
        <ele>2275.8000488281</ele>
        <time>2021-01-06T10:32:02.000Z</time>
      </trkpt>
      <trkpt lat="45.13558" lon="5.92984">
        <ele>2276.8000488281</ele>
        <time>2021-01-06T10:32:08.000Z</time>
      </trkpt>
      <trkpt lat="45.13558" lon="5.92984">
        <ele>2277</ele>
        <time>2021-01-06T10:32:09.000Z</time>
      </trkpt>
      <trkpt lat="45.13558" lon="5.92984">
        <ele>2278</ele>
        <time>2021-01-06T10:32:14.000Z</time>
      </trkpt>
      <trkpt lat="45.13558" lon="5.92984">
        <ele>2278.3999023438</ele>
        <time>2021-01-06T10:32:16.000Z</time>
      </trkpt>
      <trkpt lat="45.13558" lon="5.92984">
        <ele>2279</ele>
        <time>2021-01-06T10:32:22.000Z</time>
      </trkpt>
      <trkpt lat="45.13558" lon="5.92984">
        <ele>2279.1999511719</ele>
        <time>2021-01-06T10:32:23.000Z</time>
      </trkpt>
      <trkpt lat="45.13558" lon="5.92984">
        <ele>2280.1999511719</ele>
        <time>2021-01-06T10:32:29.000Z</time>
      </trkpt>
      <trkpt lat="45.13558" lon="5.92984">
        <ele>2280.1999511719</ele>
        <time>2021-01-06T10:32:30.000Z</time>
      </trkpt>
      <trkpt lat="45.13558" lon="5.92984">
        <ele>2280.8000488281</ele>
        <time>2021-01-06T10:32:36.000Z</time>
      </trkpt>
      <trkpt lat="45.13562" lon="5.92984">
        <ele>2281.3999023438</ele>
        <time>2021-01-06T10:32:40.000Z</time>
      </trkpt>
      <trkpt lat="45.13562" lon="5.92984">
        <ele>2282</ele>
        <time>2021-01-06T10:32:43.000Z</time>
      </trkpt>
      <trkpt lat="45.13562" lon="5.92984">
        <ele>2282.3999023438</ele>
        <time>2021-01-06T10:32:46.000Z</time>
      </trkpt>
      <trkpt lat="45.13566" lon="5.92983">
        <ele>2283</ele>
        <time>2021-01-06T10:32:49.000Z</time>
      </trkpt>
      <trkpt lat="45.13582" lon="5.92978">
        <ele>2283.3999023438</ele>
        <time>2021-01-06T10:32:53.000Z</time>
      </trkpt>
      <trkpt lat="45.13586" lon="5.92977">
        <ele>2283.6000976562</ele>
        <time>2021-01-06T10:32:54.000Z</time>
      </trkpt>
      <trkpt lat="45.13586" lon="5.92977">
        <ele>2284.3999023438</ele>
        <time>2021-01-06T10:33:00.000Z</time>
      </trkpt>
      <trkpt lat="45.13589" lon="5.92978">
        <ele>2284.6000976562</ele>
        <time>2021-01-06T10:33:05.000Z</time>
      </trkpt>
      <trkpt lat="45.1359" lon="5.92978">
        <ele>2284.8000488281</ele>
        <time>2021-01-06T10:33:06.000Z</time>
      </trkpt>
      <trkpt lat="45.13591" lon="5.92979">
        <ele>2285.1999511719</ele>
        <time>2021-01-06T10:33:07.000Z</time>
      </trkpt>
      <trkpt lat="45.13592" lon="5.92981">
        <ele>2285.8000488281</ele>
        <time>2021-01-06T10:33:10.000Z</time>
      </trkpt>
      <trkpt lat="45.13593" lon="5.92983">
        <ele>2286.6000976562</ele>
        <time>2021-01-06T10:33:13.000Z</time>
      </trkpt>
      <trkpt lat="45.13593" lon="5.92985">
        <ele>2287</ele>
        <time>2021-01-06T10:33:15.000Z</time>
      </trkpt>
      <trkpt lat="45.13593" lon="5.92988">
        <ele>2288.1999511719</ele>
        <time>2021-01-06T10:33:20.000Z</time>
      </trkpt>
      <trkpt lat="45.13592" lon="5.92989">
        <ele>2288.6000976562</ele>
        <time>2021-01-06T10:33:21.000Z</time>
      </trkpt>
      <trkpt lat="45.13592" lon="5.92991">
        <ele>2289.1999511719</ele>
        <time>2021-01-06T10:33:24.000Z</time>
      </trkpt>
      <trkpt lat="45.13592" lon="5.92991">
        <ele>2289.6000976562</ele>
        <time>2021-01-06T10:33:26.000Z</time>
      </trkpt>
      <trkpt lat="45.13592" lon="5.92991">
        <ele>2290.3999023438</ele>
        <time>2021-01-06T10:33:32.000Z</time>
      </trkpt>
      <trkpt lat="45.13592" lon="5.92991">
        <ele>2291.3999023438</ele>
        <time>2021-01-06T10:33:37.000Z</time>
      </trkpt>
      <trkpt lat="45.13592" lon="5.92991">
        <ele>2291.8000488281</ele>
        <time>2021-01-06T10:33:39.000Z</time>
      </trkpt>
      <trkpt lat="45.13592" lon="5.92991">
        <ele>2292.3999023438</ele>
        <time>2021-01-06T10:33:42.000Z</time>
      </trkpt>
      <trkpt lat="45.13596" lon="5.92988">
        <ele>2293.1999511719</ele>
        <time>2021-01-06T10:33:46.000Z</time>
      </trkpt>
      <trkpt lat="45.13599" lon="5.92986">
        <ele>2293.8000488281</ele>
        <time>2021-01-06T10:33:48.000Z</time>
      </trkpt>
      <trkpt lat="45.13604" lon="5.92981">
        <ele>2294.3999023438</ele>
        <time>2021-01-06T10:33:53.000Z</time>
      </trkpt>
      <trkpt lat="45.13604" lon="5.9298">
        <ele>2294.8000488281</ele>
        <time>2021-01-06T10:33:55.000Z</time>
      </trkpt>
      <trkpt lat="45.13604" lon="5.92981">
        <ele>2295</ele>
        <time>2021-01-06T10:33:56.000Z</time>
      </trkpt>
      <trkpt lat="45.13604" lon="5.92981">
        <ele>2295.1999511719</ele>
        <time>2021-01-06T10:33:58.000Z</time>
      </trkpt>
      <trkpt lat="45.13605" lon="5.92987">
        <ele>2295.8000488281</ele>
        <time>2021-01-06T10:34:04.000Z</time>
      </trkpt>
      <trkpt lat="45.13604" lon="5.92992">
        <ele>2297</ele>
        <time>2021-01-06T10:34:09.000Z</time>
      </trkpt>
      <trkpt lat="45.13604" lon="5.92993">
        <ele>2297.1999511719</ele>
        <time>2021-01-06T10:34:10.000Z</time>
      </trkpt>
      <trkpt lat="45.13604" lon="5.92994">
        <ele>2298</ele>
        <time>2021-01-06T10:34:12.000Z</time>
      </trkpt>
      <trkpt lat="45.13604" lon="5.92997">
        <ele>2298.8000488281</ele>
        <time>2021-01-06T10:34:16.000Z</time>
      </trkpt>
      <trkpt lat="45.13604" lon="5.92998">
        <ele>2299</ele>
        <time>2021-01-06T10:34:17.000Z</time>
      </trkpt>
      <trkpt lat="45.13603" lon="5.93003">
        <ele>2300</ele>
        <time>2021-01-06T10:34:22.000Z</time>
      </trkpt>
      <trkpt lat="45.13603" lon="5.93004">
        <ele>2300.1999511719</ele>
        <time>2021-01-06T10:34:23.000Z</time>
      </trkpt>
      <trkpt lat="45.13602" lon="5.93009">
        <ele>2301.3999023438</ele>
        <time>2021-01-06T10:34:29.000Z</time>
      </trkpt>
      <trkpt lat="45.13601" lon="5.9301">
        <ele>2301.3999023438</ele>
        <time>2021-01-06T10:34:30.000Z</time>
      </trkpt>
      <trkpt lat="45.136" lon="5.93014">
        <ele>2302</ele>
        <time>2021-01-06T10:34:34.000Z</time>
      </trkpt>
      <trkpt lat="45.13599" lon="5.93016">
        <ele>2302.3999023438</ele>
        <time>2021-01-06T10:34:36.000Z</time>
      </trkpt>
      <trkpt lat="45.13598" lon="5.9302">
        <ele>2303.1999511719</ele>
        <time>2021-01-06T10:34:42.000Z</time>
      </trkpt>
      <trkpt lat="45.13598" lon="5.9302">
        <ele>2303.3999023438</ele>
        <time>2021-01-06T10:34:43.000Z</time>
      </trkpt>
      <trkpt lat="45.13597" lon="5.93023">
        <ele>2304.3999023438</ele>
        <time>2021-01-06T10:34:49.000Z</time>
      </trkpt>
      <trkpt lat="45.13596" lon="5.93023">
        <ele>2304.6000976562</ele>
        <time>2021-01-06T10:34:50.000Z</time>
      </trkpt>
      <trkpt lat="45.13596" lon="5.93023">
        <ele>2305.3999023438</ele>
        <time>2021-01-06T10:34:55.000Z</time>
      </trkpt>
      <trkpt lat="45.13597" lon="5.93024">
        <ele>2306.3999023438</ele>
        <time>2021-01-06T10:35:02.000Z</time>
      </trkpt>
      <trkpt lat="45.13598" lon="5.93024">
        <ele>2306.6000976562</ele>
        <time>2021-01-06T10:35:03.000Z</time>
      </trkpt>
      <trkpt lat="45.13601" lon="5.93024">
        <ele>2307.6000976562</ele>
        <time>2021-01-06T10:35:08.000Z</time>
      </trkpt>
      <trkpt lat="45.13601" lon="5.93024">
        <ele>2307.8000488281</ele>
        <time>2021-01-06T10:35:09.000Z</time>
      </trkpt>
      <trkpt lat="45.13602" lon="5.93025">
        <ele>2308.8000488281</ele>
        <time>2021-01-06T10:35:14.000Z</time>
      </trkpt>
      <trkpt lat="45.13603" lon="5.93029">
        <ele>2309.6000976562</ele>
        <time>2021-01-06T10:35:20.000Z</time>
      </trkpt>
      <trkpt lat="45.13602" lon="5.9303">
        <ele>2309.8000488281</ele>
        <time>2021-01-06T10:35:21.000Z</time>
      </trkpt>
      <trkpt lat="45.13602" lon="5.93034">
        <ele>2311</ele>
        <time>2021-01-06T10:35:26.000Z</time>
      </trkpt>
      <trkpt lat="45.13601" lon="5.93036">
        <ele>2311.3999023438</ele>
        <time>2021-01-06T10:35:28.000Z</time>
      </trkpt>
      <trkpt lat="45.13601" lon="5.93038">
        <ele>2312</ele>
        <time>2021-01-06T10:35:31.000Z</time>
      </trkpt>
      <trkpt lat="45.136" lon="5.93041">
        <ele>2313</ele>
        <time>2021-01-06T10:35:35.000Z</time>
      </trkpt>
      <trkpt lat="45.136" lon="5.93042">
        <ele>2313.1999511719</ele>
        <time>2021-01-06T10:35:36.000Z</time>
      </trkpt>
      <trkpt lat="45.13599" lon="5.93048">
        <ele>2314.3999023438</ele>
        <time>2021-01-06T10:35:42.000Z</time>
      </trkpt>
      <trkpt lat="45.13599" lon="5.93051">
        <ele>2315.3999023438</ele>
        <time>2021-01-06T10:35:46.000Z</time>
      </trkpt>
      <trkpt lat="45.13599" lon="5.93054">
        <ele>2316.1999511719</ele>
        <time>2021-01-06T10:35:49.000Z</time>
      </trkpt>
      <trkpt lat="45.13599" lon="5.93055">
        <ele>2316.3999023438</ele>
        <time>2021-01-06T10:35:50.000Z</time>
      </trkpt>
      <trkpt lat="45.136" lon="5.9306">
        <ele>2317.3999023438</ele>
        <time>2021-01-06T10:35:55.000Z</time>
      </trkpt>
      <trkpt lat="45.136" lon="5.93061">
        <ele>2317.8000488281</ele>
        <time>2021-01-06T10:35:56.000Z</time>
      </trkpt>
      <trkpt lat="45.136" lon="5.93063">
        <ele>2318.6000976562</ele>
        <time>2021-01-06T10:36:00.000Z</time>
      </trkpt>
      <trkpt lat="45.136" lon="5.93063">
        <ele>2319</ele>
        <time>2021-01-06T10:36:02.000Z</time>
      </trkpt>
      <trkpt lat="45.136" lon="5.93063">
        <ele>2319.8000488281</ele>
        <time>2021-01-06T10:36:06.000Z</time>
      </trkpt>
      <trkpt lat="45.136" lon="5.93063">
        <ele>2319.8000488281</ele>
        <time>2021-01-06T10:36:16.000Z</time>
      </trkpt>
      <trkpt lat="45.136" lon="5.93064">
        <ele>2319.8000488281</ele>
        <time>2021-01-06T10:36:25.000Z</time>
      </trkpt>
      <trkpt lat="45.13599" lon="5.93066">
        <ele>2320</ele>
        <time>2021-01-06T10:36:27.000Z</time>
      </trkpt>
      <trkpt lat="45.13598" lon="5.93073">
        <ele>2320.8000488281</ele>
        <time>2021-01-06T10:36:33.000Z</time>
      </trkpt>
      <trkpt lat="45.13598" lon="5.93074">
        <ele>2321</ele>
        <time>2021-01-06T10:36:34.000Z</time>
      </trkpt>
      <trkpt lat="45.13597" lon="5.93077">
        <ele>2322</ele>
        <time>2021-01-06T10:36:37.000Z</time>
      </trkpt>
      <trkpt lat="45.13596" lon="5.93081">
        <ele>2323</ele>
        <time>2021-01-06T10:36:40.000Z</time>
      </trkpt>
      <trkpt lat="45.13596" lon="5.93082">
        <ele>2323.1999511719</ele>
        <time>2021-01-06T10:36:41.000Z</time>
      </trkpt>
      <trkpt lat="45.13596" lon="5.93088">
        <ele>2324.6000976562</ele>
        <time>2021-01-06T10:36:45.000Z</time>
      </trkpt>
      <trkpt lat="45.13595" lon="5.9309">
        <ele>2325</ele>
        <time>2021-01-06T10:36:47.000Z</time>
      </trkpt>
      <trkpt lat="45.13595" lon="5.93093">
        <ele>2325.6000976562</ele>
        <time>2021-01-06T10:36:50.000Z</time>
      </trkpt>
      <trkpt lat="45.13595" lon="5.93099">
        <ele>2326.6000976562</ele>
        <time>2021-01-06T10:36:55.000Z</time>
      </trkpt>
      <trkpt lat="45.13595" lon="5.93103">
        <ele>2327.8000488281</ele>
        <time>2021-01-06T10:36:59.000Z</time>
      </trkpt>
      <trkpt lat="45.13595" lon="5.93106">
        <ele>2328.8000488281</ele>
        <time>2021-01-06T10:37:02.000Z</time>
      </trkpt>
      <trkpt lat="45.13595" lon="5.93107">
        <ele>2329</ele>
        <time>2021-01-06T10:37:03.000Z</time>
      </trkpt>
      <trkpt lat="45.13595" lon="5.93112">
        <ele>2330</ele>
        <time>2021-01-06T10:37:08.000Z</time>
      </trkpt>
      <trkpt lat="45.13595" lon="5.93113">
        <ele>2330.3999023438</ele>
        <time>2021-01-06T10:37:09.000Z</time>
      </trkpt>
      <trkpt lat="45.13595" lon="5.93118">
        <ele>2331.1999511719</ele>
        <time>2021-01-06T10:37:13.000Z</time>
      </trkpt>
      <trkpt lat="45.13595" lon="5.93123">
        <ele>2331.3999023438</ele>
        <time>2021-01-06T10:37:17.000Z</time>
      </trkpt>
      <trkpt lat="45.13595" lon="5.93128">
        <ele>2332.1999511719</ele>
        <time>2021-01-06T10:37:22.000Z</time>
      </trkpt>
      <trkpt lat="45.13595" lon="5.9313">
        <ele>2332.8000488281</ele>
        <time>2021-01-06T10:37:24.000Z</time>
      </trkpt>
      <trkpt lat="45.13595" lon="5.93133">
        <ele>2333.3999023438</ele>
        <time>2021-01-06T10:37:26.000Z</time>
      </trkpt>
      <trkpt lat="45.13595" lon="5.93137">
        <ele>2334.6000976562</ele>
        <time>2021-01-06T10:37:31.000Z</time>
      </trkpt>
      <trkpt lat="45.13596" lon="5.93142">
        <ele>2335.6000976562</ele>
        <time>2021-01-06T10:37:36.000Z</time>
      </trkpt>
      <trkpt lat="45.13596" lon="5.93145">
        <ele>2336.3999023438</ele>
        <time>2021-01-06T10:37:39.000Z</time>
      </trkpt>
      <trkpt lat="45.13596" lon="5.93147">
        <ele>2336.8000488281</ele>
        <time>2021-01-06T10:37:41.000Z</time>
      </trkpt>
      <trkpt lat="45.13595" lon="5.93151">
        <ele>2337.8000488281</ele>
        <time>2021-01-06T10:37:46.000Z</time>
      </trkpt>
      <trkpt lat="45.13595" lon="5.93156">
        <ele>2338.8000488281</ele>
        <time>2021-01-06T10:37:50.000Z</time>
      </trkpt>
      <trkpt lat="45.13595" lon="5.9316">
        <ele>2339.1999511719</ele>
        <time>2021-01-06T10:37:53.000Z</time>
      </trkpt>
      <trkpt lat="45.13595" lon="5.93164">
        <ele>2339.8000488281</ele>
        <time>2021-01-06T10:37:57.000Z</time>
      </trkpt>
      <trkpt lat="45.13595" lon="5.93166">
        <ele>2340.6000976562</ele>
        <time>2021-01-06T10:38:00.000Z</time>
      </trkpt>
      <trkpt lat="45.13595" lon="5.93168">
        <ele>2341</ele>
        <time>2021-01-06T10:38:02.000Z</time>
      </trkpt>
      <trkpt lat="45.13595" lon="5.93174">
        <ele>2342.1999511719</ele>
        <time>2021-01-06T10:38:08.000Z</time>
      </trkpt>
      <trkpt lat="45.13595" lon="5.93179">
        <ele>2343.1999511719</ele>
        <time>2021-01-06T10:38:13.000Z</time>
      </trkpt>
      <trkpt lat="45.13595" lon="5.93181">
        <ele>2343.6000976562</ele>
        <time>2021-01-06T10:38:15.000Z</time>
      </trkpt>
      <trkpt lat="45.13596" lon="5.93183">
        <ele>2344.1999511719</ele>
        <time>2021-01-06T10:38:18.000Z</time>
      </trkpt>
      <trkpt lat="45.13595" lon="5.93188">
        <ele>2345.1999511719</ele>
        <time>2021-01-06T10:38:23.000Z</time>
      </trkpt>
      <trkpt lat="45.13595" lon="5.93195">
        <ele>2346.1999511719</ele>
        <time>2021-01-06T10:38:29.000Z</time>
      </trkpt>
      <trkpt lat="45.13595" lon="5.93195">
        <ele>2346.3999023438</ele>
        <time>2021-01-06T10:38:30.000Z</time>
      </trkpt>
      <trkpt lat="45.13595" lon="5.93202">
        <ele>2347.3999023438</ele>
        <time>2021-01-06T10:38:36.000Z</time>
      </trkpt>
      <trkpt lat="45.13594" lon="5.93203">
        <ele>2347.8000488281</ele>
        <time>2021-01-06T10:38:37.000Z</time>
      </trkpt>
      <trkpt lat="45.13594" lon="5.93208">
        <ele>2348</ele>
        <time>2021-01-06T10:38:41.000Z</time>
      </trkpt>
      <trkpt lat="45.13594" lon="5.93211">
        <ele>2348</ele>
        <time>2021-01-06T10:38:43.000Z</time>
      </trkpt>
      <trkpt lat="45.13592" lon="5.93218">
        <ele>2347.6000976562</ele>
        <time>2021-01-06T10:38:50.000Z</time>
      </trkpt>
      <trkpt lat="45.13591" lon="5.93225">
        <ele>2346.8000488281</ele>
        <time>2021-01-06T10:38:55.000Z</time>
      </trkpt>
      <trkpt lat="45.13591" lon="5.93226">
        <ele>2346.6000976562</ele>
        <time>2021-01-06T10:38:56.000Z</time>
      </trkpt>
      <trkpt lat="45.13589" lon="5.93232">
        <ele>2345.6000976562</ele>
        <time>2021-01-06T10:39:00.000Z</time>
      </trkpt>
      <trkpt lat="45.13588" lon="5.93237">
        <ele>2345.1999511719</ele>
        <time>2021-01-06T10:39:03.000Z</time>
      </trkpt>
      <trkpt lat="45.13588" lon="5.93241">
        <ele>2345</ele>
        <time>2021-01-06T10:39:05.000Z</time>
      </trkpt>
      <trkpt lat="45.13588" lon="5.93247">
        <ele>2344.6000976562</ele>
        <time>2021-01-06T10:39:08.000Z</time>
      </trkpt>
      <trkpt lat="45.13588" lon="5.93248">
        <ele>2344.6000976562</ele>
        <time>2021-01-06T10:39:09.000Z</time>
      </trkpt>
      <trkpt lat="45.13586" lon="5.93256">
        <ele>2344</ele>
        <time>2021-01-06T10:39:14.000Z</time>
      </trkpt>
      <trkpt lat="45.13584" lon="5.93264">
        <ele>2343.6000976562</ele>
        <time>2021-01-06T10:39:19.000Z</time>
      </trkpt>
      <trkpt lat="45.13583" lon="5.93266">
        <ele>2343.3999023438</ele>
        <time>2021-01-06T10:39:21.000Z</time>
      </trkpt>
      <trkpt lat="45.1358" lon="5.9327">
        <ele>2343</ele>
        <time>2021-01-06T10:39:24.000Z</time>
      </trkpt>
      <trkpt lat="45.13576" lon="5.93279">
        <ele>2343.3999023438</ele>
        <time>2021-01-06T10:39:31.000Z</time>
      </trkpt>
      <trkpt lat="45.1357" lon="5.93286">
        <ele>2344.1999511719</ele>
        <time>2021-01-06T10:39:38.000Z</time>
      </trkpt>
      <trkpt lat="45.13568" lon="5.93288">
        <ele>2344.6000976562</ele>
        <time>2021-01-06T10:39:40.000Z</time>
      </trkpt>
      <trkpt lat="45.13563" lon="5.9329">
        <ele>2345.8000488281</ele>
        <time>2021-01-06T10:39:46.000Z</time>
      </trkpt>
      <trkpt lat="45.13559" lon="5.93294">
        <ele>2346.8000488281</ele>
        <time>2021-01-06T10:39:50.000Z</time>
      </trkpt>
      <trkpt lat="45.13556" lon="5.93295">
        <ele>2347.3999023438</ele>
        <time>2021-01-06T10:39:53.000Z</time>
      </trkpt>
      <trkpt lat="45.13554" lon="5.93297">
        <ele>2348</ele>
        <time>2021-01-06T10:39:57.000Z</time>
      </trkpt>
      <trkpt lat="45.13551" lon="5.93299">
        <ele>2348.3999023438</ele>
        <time>2021-01-06T10:40:00.000Z</time>
      </trkpt>
      <trkpt lat="45.13547" lon="5.93302">
        <ele>2349</ele>
        <time>2021-01-06T10:40:04.000Z</time>
      </trkpt>
      <trkpt lat="45.13545" lon="5.93302">
        <ele>2349.6000976562</ele>
        <time>2021-01-06T10:40:07.000Z</time>
      </trkpt>
      <trkpt lat="45.13545" lon="5.93301">
        <ele>2350.1999511719</ele>
        <time>2021-01-06T10:40:10.000Z</time>
      </trkpt>
      <trkpt lat="45.13545" lon="5.93302">
        <ele>2350.6000976562</ele>
        <time>2021-01-06T10:40:13.000Z</time>
      </trkpt>
      <trkpt lat="45.13545" lon="5.93304">
        <ele>2351.1999511719</ele>
        <time>2021-01-06T10:40:19.000Z</time>
      </trkpt>
      <trkpt lat="45.13546" lon="5.93306">
        <ele>2352.1999511719</ele>
        <time>2021-01-06T10:40:25.000Z</time>
      </trkpt>
      <trkpt lat="45.13545" lon="5.93308">
        <ele>2353.1999511719</ele>
        <time>2021-01-06T10:40:30.000Z</time>
      </trkpt>
      <trkpt lat="45.13545" lon="5.93309">
        <ele>2354.1999511719</ele>
        <time>2021-01-06T10:40:35.000Z</time>
      </trkpt>
      <trkpt lat="45.13543" lon="5.93311">
        <ele>2355.1999511719</ele>
        <time>2021-01-06T10:40:39.000Z</time>
      </trkpt>
      <trkpt lat="45.13543" lon="5.93311">
        <ele>2355.3999023438</ele>
        <time>2021-01-06T10:40:40.000Z</time>
      </trkpt>
      <trkpt lat="45.1354" lon="5.93314">
        <ele>2355.6000976562</ele>
        <time>2021-01-06T10:40:44.000Z</time>
      </trkpt>
      <trkpt lat="45.13535" lon="5.93318">
        <ele>2356.3999023438</ele>
        <time>2021-01-06T10:40:49.000Z</time>
      </trkpt>
      <trkpt lat="45.13534" lon="5.9332">
        <ele>2356.8000488281</ele>
        <time>2021-01-06T10:40:52.000Z</time>
      </trkpt>
      <trkpt lat="45.13532" lon="5.9332">
        <ele>2357.3999023438</ele>
        <time>2021-01-06T10:40:58.000Z</time>
      </trkpt>
      <trkpt lat="45.13532" lon="5.9332">
        <ele>2357.6000976562</ele>
        <time>2021-01-06T10:40:59.000Z</time>
      </trkpt>
      <trkpt lat="45.13531" lon="5.93321">
        <ele>2358.3999023438</ele>
        <time>2021-01-06T10:41:04.000Z</time>
      </trkpt>
      <trkpt lat="45.13531" lon="5.93322">
        <ele>2358.6000976562</ele>
        <time>2021-01-06T10:41:05.000Z</time>
      </trkpt>
      <trkpt lat="45.13533" lon="5.93324">
        <ele>2359</ele>
        <time>2021-01-06T10:41:10.000Z</time>
      </trkpt>
      <trkpt lat="45.13534" lon="5.93324">
        <ele>2359.6000976562</ele>
        <time>2021-01-06T10:41:13.000Z</time>
      </trkpt>
      <trkpt lat="45.13535" lon="5.93326">
        <ele>2360</ele>
        <time>2021-01-06T10:41:16.000Z</time>
      </trkpt>
      <trkpt lat="45.13534" lon="5.93326">
        <ele>2360.8000488281</ele>
        <time>2021-01-06T10:41:20.000Z</time>
      </trkpt>
      <trkpt lat="45.13536" lon="5.93327">
        <ele>2361.1999511719</ele>
        <time>2021-01-06T10:41:22.000Z</time>
      </trkpt>
      <trkpt lat="45.13535" lon="5.93329">
        <ele>2361.8000488281</ele>
        <time>2021-01-06T10:41:25.000Z</time>
      </trkpt>
      <trkpt lat="45.13534" lon="5.93331">
        <ele>2362</ele>
        <time>2021-01-06T10:41:26.000Z</time>
      </trkpt>
      <trkpt lat="45.13536" lon="5.93333">
        <ele>2363</ele>
        <time>2021-01-06T10:41:31.000Z</time>
      </trkpt>
      <trkpt lat="45.13537" lon="5.93333">
        <ele>2363.1999511719</ele>
        <time>2021-01-06T10:41:33.000Z</time>
      </trkpt>
      <trkpt lat="45.13535" lon="5.93336">
        <ele>2364</ele>
        <time>2021-01-06T10:41:38.000Z</time>
      </trkpt>
      <trkpt lat="45.13535" lon="5.93337">
        <ele>2364.3999023438</ele>
        <time>2021-01-06T10:41:40.000Z</time>
      </trkpt>
      <trkpt lat="45.13534" lon="5.93338">
        <ele>2365</ele>
        <time>2021-01-06T10:41:44.000Z</time>
      </trkpt>
      <trkpt lat="45.13533" lon="5.93338">
        <ele>2365.6000976562</ele>
        <time>2021-01-06T10:41:47.000Z</time>
      </trkpt>
      <trkpt lat="45.13533" lon="5.93338">
        <ele>2366.1999511719</ele>
        <time>2021-01-06T10:41:49.000Z</time>
      </trkpt>
      <trkpt lat="45.13535" lon="5.93338">
        <ele>2366.6000976562</ele>
        <time>2021-01-06T10:41:52.000Z</time>
      </trkpt>
      <trkpt lat="45.13539" lon="5.9334">
        <ele>2366.8000488281</ele>
        <time>2021-01-06T10:41:55.000Z</time>
      </trkpt>
      <trkpt lat="45.1354" lon="5.9334">
        <ele>2367</ele>
        <time>2021-01-06T10:41:57.000Z</time>
      </trkpt>
      <trkpt lat="45.13542" lon="5.93342">
        <ele>2367.1999511719</ele>
        <time>2021-01-06T10:42:01.000Z</time>
      </trkpt>
      <trkpt lat="45.13543" lon="5.93343">
        <ele>2367.6000976562</ele>
        <time>2021-01-06T10:42:04.000Z</time>
      </trkpt>
      <trkpt lat="45.13547" lon="5.93346">
        <ele>2368</ele>
        <time>2021-01-06T10:42:08.000Z</time>
      </trkpt>
      <trkpt lat="45.13549" lon="5.93349">
        <ele>2368.1999511719</ele>
        <time>2021-01-06T10:42:10.000Z</time>
      </trkpt>
      <trkpt lat="45.1355" lon="5.93353">
        <ele>2368.1999511719</ele>
        <time>2021-01-06T10:42:15.000Z</time>
      </trkpt>
      <trkpt lat="45.13551" lon="5.93355">
        <ele>2368.3999023438</ele>
        <time>2021-01-06T10:42:19.000Z</time>
      </trkpt>
      <trkpt lat="45.1355" lon="5.93356">
        <ele>2368.3999023438</ele>
        <time>2021-01-06T10:42:20.000Z</time>
      </trkpt>
      <trkpt lat="45.13548" lon="5.93358">
        <ele>2369.1999511719</ele>
        <time>2021-01-06T10:42:23.000Z</time>
      </trkpt>
      <trkpt lat="45.13547" lon="5.93359">
        <ele>2369.6000976562</ele>
        <time>2021-01-06T10:42:25.000Z</time>
      </trkpt>
      <trkpt lat="45.13546" lon="5.93358">
        <ele>2369.8000488281</ele>
        <time>2021-01-06T10:42:26.000Z</time>
      </trkpt>
      <trkpt lat="45.13545" lon="5.93358">
        <ele>2370.6000976562</ele>
        <time>2021-01-06T10:42:30.000Z</time>
      </trkpt>
      <trkpt lat="45.13544" lon="5.93358">
        <ele>2371.3999023438</ele>
        <time>2021-01-06T10:42:33.000Z</time>
      </trkpt>
      <trkpt lat="45.13543" lon="5.93358">
        <ele>2371.8000488281</ele>
        <time>2021-01-06T10:42:35.000Z</time>
      </trkpt>
      <trkpt lat="45.13542" lon="5.93359">
        <ele>2372</ele>
        <time>2021-01-06T10:42:36.000Z</time>
      </trkpt>
      <trkpt lat="45.13543" lon="5.9336">
        <ele>2372.3999023438</ele>
        <time>2021-01-06T10:42:37.000Z</time>
      </trkpt>
      <trkpt lat="45.13545" lon="5.93361">
        <ele>2372.8000488281</ele>
        <time>2021-01-06T10:42:40.000Z</time>
      </trkpt>
      <trkpt lat="45.13546" lon="5.93361">
        <ele>2373</ele>
        <time>2021-01-06T10:42:41.000Z</time>
      </trkpt>
      <trkpt lat="45.13548" lon="5.93367">
        <ele>2373.3999023438</ele>
        <time>2021-01-06T10:42:47.000Z</time>
      </trkpt>
      <trkpt lat="45.13549" lon="5.93371">
        <ele>2373.6000976562</ele>
        <time>2021-01-06T10:42:53.000Z</time>
      </trkpt>
      <trkpt lat="45.13549" lon="5.93371">
        <ele>2373.8000488281</ele>
        <time>2021-01-06T10:42:56.000Z</time>
      </trkpt>
      <trkpt lat="45.13549" lon="5.93371">
        <ele>2374.3999023438</ele>
        <time>2021-01-06T10:42:59.000Z</time>
      </trkpt>
      <trkpt lat="45.13549" lon="5.93371">
        <ele>2374.8000488281</ele>
        <time>2021-01-06T10:43:07.000Z</time>
      </trkpt>
      <trkpt lat="45.13549" lon="5.93371">
        <ele>2374.8000488281</ele>
        <time>2021-01-06T10:43:10.000Z</time>
      </trkpt>
      <trkpt lat="45.13549" lon="5.93371">
        <ele>2375.1999511719</ele>
        <time>2021-01-06T10:43:13.000Z</time>
      </trkpt>
      <trkpt lat="45.13549" lon="5.93372">
        <ele>2376</ele>
        <time>2021-01-06T10:43:18.000Z</time>
      </trkpt>
      <trkpt lat="45.13549" lon="5.93371">
        <ele>2376.1999511719</ele>
        <time>2021-01-06T10:43:19.000Z</time>
      </trkpt>
      <trkpt lat="45.13549" lon="5.93372">
        <ele>2377</ele>
        <time>2021-01-06T10:43:26.000Z</time>
      </trkpt>
      <trkpt lat="45.13549" lon="5.93372">
        <ele>2377.1999511719</ele>
        <time>2021-01-06T10:43:27.000Z</time>
      </trkpt>
      <trkpt lat="45.13548" lon="5.93376">
        <ele>2378.1999511719</ele>
        <time>2021-01-06T10:43:33.000Z</time>
      </trkpt>
      <trkpt lat="45.13548" lon="5.9338">
        <ele>2379.1999511719</ele>
        <time>2021-01-06T10:43:39.000Z</time>
      </trkpt>
      <trkpt lat="45.1355" lon="5.93381">
        <ele>2379.1999511719</ele>
        <time>2021-01-06T10:43:41.000Z</time>
      </trkpt>
      <trkpt lat="45.13547" lon="5.93383">
        <ele>2380</ele>
        <time>2021-01-06T10:43:46.000Z</time>
      </trkpt>
      <trkpt lat="45.13547" lon="5.93383">
        <ele>2380.3999023438</ele>
        <time>2021-01-06T10:43:48.000Z</time>
      </trkpt>
      <trkpt lat="45.13548" lon="5.93383">
        <ele>2380.6000976562</ele>
        <time>2021-01-06T10:43:51.000Z</time>
      </trkpt>
      <trkpt lat="45.1355" lon="5.93384">
        <ele>2381</ele>
        <time>2021-01-06T10:43:57.000Z</time>
      </trkpt>
      <trkpt lat="45.13551" lon="5.93384">
        <ele>2381.3999023438</ele>
        <time>2021-01-06T10:44:00.000Z</time>
      </trkpt>
      <trkpt lat="45.13551" lon="5.93384">
        <ele>2382</ele>
        <time>2021-01-06T10:44:03.000Z</time>
      </trkpt>
      <trkpt lat="45.13552" lon="5.93384">
        <ele>2382.6000976562</ele>
        <time>2021-01-06T10:44:06.000Z</time>
      </trkpt>
      <trkpt lat="45.13552" lon="5.93384">
        <ele>2383</ele>
        <time>2021-01-06T10:44:09.000Z</time>
      </trkpt>
      <trkpt lat="45.13552" lon="5.93384">
        <ele>2383.6000976562</ele>
        <time>2021-01-06T10:44:12.000Z</time>
      </trkpt>
      <trkpt lat="45.13552" lon="5.93384">
        <ele>2383.8000488281</ele>
        <time>2021-01-06T10:44:15.000Z</time>
      </trkpt>
      <trkpt lat="45.13552" lon="5.93384">
        <ele>2384</ele>
        <time>2021-01-06T10:44:16.000Z</time>
      </trkpt>
      <trkpt lat="45.13552" lon="5.93386">
        <ele>2384</ele>
        <time>2021-01-06T10:44:19.000Z</time>
      </trkpt>
      <trkpt lat="45.13552" lon="5.93388">
        <ele>2384.8000488281</ele>
        <time>2021-01-06T10:44:24.000Z</time>
      </trkpt>
      <trkpt lat="45.13552" lon="5.93388">
        <ele>2385</ele>
        <time>2021-01-06T10:44:26.000Z</time>
      </trkpt>
      <trkpt lat="45.13553" lon="5.93391">
        <ele>2385.6000976562</ele>
        <time>2021-01-06T10:44:32.000Z</time>
      </trkpt>
      <trkpt lat="45.13554" lon="5.93391">
        <ele>2385.8000488281</ele>
        <time>2021-01-06T10:44:33.000Z</time>
      </trkpt>
      <trkpt lat="45.13555" lon="5.93391">
        <ele>2386.1999511719</ele>
        <time>2021-01-06T10:44:37.000Z</time>
      </trkpt>
      <trkpt lat="45.13557" lon="5.93391">
        <ele>2386.8000488281</ele>
        <time>2021-01-06T10:44:43.000Z</time>
      </trkpt>
      <trkpt lat="45.13556" lon="5.93391">
        <ele>2387.8000488281</ele>
        <time>2021-01-06T10:44:50.000Z</time>
      </trkpt>
      <trkpt lat="45.13556" lon="5.93392">
        <ele>2387.8000488281</ele>
        <time>2021-01-06T10:44:53.000Z</time>
      </trkpt>
      <trkpt lat="45.13557" lon="5.93393">
        <ele>2388</ele>
        <time>2021-01-06T10:44:56.000Z</time>
      </trkpt>
      <trkpt lat="45.13557" lon="5.93395">
        <ele>2388.8000488281</ele>
        <time>2021-01-06T10:45:03.000Z</time>
      </trkpt>
      <trkpt lat="45.13557" lon="5.93395">
        <ele>2389</ele>
        <time>2021-01-06T10:45:04.000Z</time>
      </trkpt>
      <trkpt lat="45.13557" lon="5.93395">
        <ele>2389.3999023438</ele>
        <time>2021-01-06T10:45:08.000Z</time>
      </trkpt>
      <trkpt lat="45.13558" lon="5.93395">
        <ele>2390</ele>
        <time>2021-01-06T10:45:14.000Z</time>
      </trkpt>
      <trkpt lat="45.13558" lon="5.93395">
        <ele>2390.6000976562</ele>
        <time>2021-01-06T10:45:19.000Z</time>
      </trkpt>
      <trkpt lat="45.13558" lon="5.93395">
        <ele>2391</ele>
        <time>2021-01-06T10:45:24.000Z</time>
      </trkpt>
      <trkpt lat="45.13558" lon="5.93395">
        <ele>2391</ele>
        <time>2021-01-06T10:45:25.000Z</time>
      </trkpt>
      <trkpt lat="45.13558" lon="5.93399">
        <ele>2392</ele>
        <time>2021-01-06T10:45:31.000Z</time>
      </trkpt>
      <trkpt lat="45.13558" lon="5.93398">
        <ele>2392.1999511719</ele>
        <time>2021-01-06T10:45:32.000Z</time>
      </trkpt>
      <trkpt lat="45.13559" lon="5.93398">
        <ele>2393</ele>
        <time>2021-01-06T10:45:39.000Z</time>
      </trkpt>
      <trkpt lat="45.13559" lon="5.93398">
        <ele>2393.1999511719</ele>
        <time>2021-01-06T10:45:41.000Z</time>
      </trkpt>
      <trkpt lat="45.13558" lon="5.93399">
        <ele>2393.1999511719</ele>
        <time>2021-01-06T10:45:49.000Z</time>
      </trkpt>
      <trkpt lat="45.13558" lon="5.93399">
        <ele>2393.6000976562</ele>
        <time>2021-01-06T10:45:58.000Z</time>
      </trkpt>
      <trkpt lat="45.13558" lon="5.93399">
        <ele>2394</ele>
        <time>2021-01-06T10:46:04.000Z</time>
      </trkpt>
      <trkpt lat="45.13559" lon="5.93399">
        <ele>2394.1999511719</ele>
        <time>2021-01-06T10:46:05.000Z</time>
      </trkpt>
      <trkpt lat="45.13559" lon="5.934">
        <ele>2394.6000976562</ele>
        <time>2021-01-06T10:46:10.000Z</time>
      </trkpt>
      <trkpt lat="45.13558" lon="5.93402">
        <ele>2395</ele>
        <time>2021-01-06T10:46:16.000Z</time>
      </trkpt>
      <trkpt lat="45.13558" lon="5.93402">
        <ele>2395.1999511719</ele>
        <time>2021-01-06T10:46:18.000Z</time>
      </trkpt>
      <trkpt lat="45.13559" lon="5.93402">
        <ele>2395.6000976562</ele>
        <time>2021-01-06T10:46:23.000Z</time>
      </trkpt>
      <trkpt lat="45.1356" lon="5.93404">
        <ele>2396.1999511719</ele>
        <time>2021-01-06T10:46:29.000Z</time>
      </trkpt>
      <trkpt lat="45.1356" lon="5.93404">
        <ele>2396.1999511719</ele>
        <time>2021-01-06T10:46:30.000Z</time>
      </trkpt>
      <trkpt lat="45.13562" lon="5.93405">
        <ele>2396.8000488281</ele>
        <time>2021-01-06T10:46:34.000Z</time>
      </trkpt>
      <trkpt lat="45.13562" lon="5.93405">
        <ele>2397.1999511719</ele>
        <time>2021-01-06T10:46:38.000Z</time>
      </trkpt>
      <trkpt lat="45.13562" lon="5.93405">
        <ele>2397.6000976562</ele>
        <time>2021-01-06T10:46:41.000Z</time>
      </trkpt>
      <trkpt lat="45.13562" lon="5.93405">
        <ele>2398.1999511719</ele>
        <time>2021-01-06T10:46:52.000Z</time>
      </trkpt>
      <trkpt lat="45.13562" lon="5.93405">
        <ele>2398.3999023438</ele>
        <time>2021-01-06T10:46:56.000Z</time>
      </trkpt>
      <trkpt lat="45.13562" lon="5.93405">
        <ele>2398.6000976562</ele>
        <time>2021-01-06T10:46:58.000Z</time>
      </trkpt>
      <trkpt lat="45.13562" lon="5.93405">
        <ele>2399</ele>
        <time>2021-01-06T10:47:03.000Z</time>
      </trkpt>
      <trkpt lat="45.13564" lon="5.93407">
        <ele>2399.3999023438</ele>
        <time>2021-01-06T10:47:06.000Z</time>
      </trkpt>
      <trkpt lat="45.13565" lon="5.9341">
        <ele>2400.3999023438</ele>
        <time>2021-01-06T10:47:12.000Z</time>
      </trkpt>
      <trkpt lat="45.13564" lon="5.93411">
        <ele>2400.6000976562</ele>
        <time>2021-01-06T10:47:13.000Z</time>
      </trkpt>
      <trkpt lat="45.13564" lon="5.93411">
        <ele>2401.1999511719</ele>
        <time>2021-01-06T10:47:16.000Z</time>
      </trkpt>
      <trkpt lat="45.13564" lon="5.93412">
        <ele>2401.6000976562</ele>
        <time>2021-01-06T10:47:18.000Z</time>
      </trkpt>
      <trkpt lat="45.13566" lon="5.93413">
        <ele>2402.1999511719</ele>
        <time>2021-01-06T10:47:23.000Z</time>
      </trkpt>
      <trkpt lat="45.13568" lon="5.93413">
        <ele>2402.3999023438</ele>
        <time>2021-01-06T10:47:25.000Z</time>
      </trkpt>
      <trkpt lat="45.13571" lon="5.93414">
        <ele>2402.6000976562</ele>
        <time>2021-01-06T10:47:27.000Z</time>
      </trkpt>
      <trkpt lat="45.13572" lon="5.93414">
        <ele>2402.8000488281</ele>
        <time>2021-01-06T10:47:28.000Z</time>
      </trkpt>
      <trkpt lat="45.13573" lon="5.93414">
        <ele>2403.6000976562</ele>
        <time>2021-01-06T10:47:34.000Z</time>
      </trkpt>
      <trkpt lat="45.13573" lon="5.93415">
        <ele>2404</ele>
        <time>2021-01-06T10:47:36.000Z</time>
      </trkpt>
      <trkpt lat="45.13574" lon="5.93415">
        <ele>2404.3999023438</ele>
        <time>2021-01-06T10:47:38.000Z</time>
      </trkpt>
      <trkpt lat="45.13574" lon="5.93415">
        <ele>2404.6000976562</ele>
        <time>2021-01-06T10:47:40.000Z</time>
      </trkpt>
      <trkpt lat="45.13573" lon="5.93414">
        <ele>2405.1999511719</ele>
        <time>2021-01-06T10:47:44.000Z</time>
      </trkpt>
      <trkpt lat="45.13573" lon="5.93416">
        <ele>2405.6000976562</ele>
        <time>2021-01-06T10:47:46.000Z</time>
      </trkpt>
      <trkpt lat="45.13573" lon="5.93418">
        <ele>2405.8000488281</ele>
        <time>2021-01-06T10:47:47.000Z</time>
      </trkpt>
      <trkpt lat="45.13574" lon="5.93418">
        <ele>2406.6000976562</ele>
        <time>2021-01-06T10:47:52.000Z</time>
      </trkpt>
      <trkpt lat="45.13574" lon="5.93419">
        <ele>2407</ele>
        <time>2021-01-06T10:47:54.000Z</time>
      </trkpt>
      <trkpt lat="45.13576" lon="5.93419">
        <ele>2407.3999023438</ele>
        <time>2021-01-06T10:47:57.000Z</time>
      </trkpt>
      <trkpt lat="45.13579" lon="5.93421">
        <ele>2407.8000488281</ele>
        <time>2021-01-06T10:48:02.000Z</time>
      </trkpt>
      <trkpt lat="45.1358" lon="5.93422">
        <ele>2408</ele>
        <time>2021-01-06T10:48:05.000Z</time>
      </trkpt>
      <trkpt lat="45.13582" lon="5.93423">
        <ele>2408.3999023438</ele>
        <time>2021-01-06T10:48:09.000Z</time>
      </trkpt>
      <trkpt lat="45.13585" lon="5.93422">
        <ele>2409.1999511719</ele>
        <time>2021-01-06T10:48:13.000Z</time>
      </trkpt>
      <trkpt lat="45.13587" lon="5.9342">
        <ele>2410</ele>
        <time>2021-01-06T10:48:17.000Z</time>
      </trkpt>
      <trkpt lat="45.13588" lon="5.93419">
        <ele>2410.3999023438</ele>
        <time>2021-01-06T10:48:19.000Z</time>
      </trkpt>
      <trkpt lat="45.1359" lon="5.93417">
        <ele>2411.3999023438</ele>
        <time>2021-01-06T10:48:24.000Z</time>
      </trkpt>
      <trkpt lat="45.13592" lon="5.93415">
        <ele>2412.3999023438</ele>
        <time>2021-01-06T10:48:30.000Z</time>
      </trkpt>
      <trkpt lat="45.13592" lon="5.93415">
        <ele>2412.6000976562</ele>
        <time>2021-01-06T10:48:33.000Z</time>
      </trkpt>
      <trkpt lat="45.13592" lon="5.93415">
        <ele>2413</ele>
        <time>2021-01-06T10:48:37.000Z</time>
      </trkpt>
      <trkpt lat="45.13592" lon="5.93415">
        <ele>2413.1999511719</ele>
        <time>2021-01-06T10:48:43.000Z</time>
      </trkpt>
      <trkpt lat="45.13592" lon="5.93415">
        <ele>2413.6000976562</ele>
        <time>2021-01-06T10:48:50.000Z</time>
      </trkpt>
      <trkpt lat="45.13591" lon="5.93418">
        <ele>2413.6000976562</ele>
        <time>2021-01-06T10:48:54.000Z</time>
      </trkpt>
      <trkpt lat="45.13592" lon="5.9342">
        <ele>2413.8000488281</ele>
        <time>2021-01-06T10:49:00.000Z</time>
      </trkpt>
      <trkpt lat="45.13594" lon="5.9342">
        <ele>2414.6000976562</ele>
        <time>2021-01-06T10:49:04.000Z</time>
      </trkpt>
      <trkpt lat="45.13599" lon="5.93416">
        <ele>2415.3999023438</ele>
        <time>2021-01-06T10:49:12.000Z</time>
      </trkpt>
      <trkpt lat="45.136" lon="5.93416">
        <ele>2415.6000976562</ele>
        <time>2021-01-06T10:49:13.000Z</time>
      </trkpt>
      <trkpt lat="45.13604" lon="5.93414">
        <ele>2416.6000976562</ele>
        <time>2021-01-06T10:49:19.000Z</time>
      </trkpt>
      <trkpt lat="45.13609" lon="5.93411">
        <ele>2417.6000976562</ele>
        <time>2021-01-06T10:49:25.000Z</time>
      </trkpt>
      <trkpt lat="45.13609" lon="5.9341">
        <ele>2417.8000488281</ele>
        <time>2021-01-06T10:49:26.000Z</time>
      </trkpt>
      <trkpt lat="45.13611" lon="5.93408">
        <ele>2418.8000488281</ele>
        <time>2021-01-06T10:49:30.000Z</time>
      </trkpt>
      <trkpt lat="45.13613" lon="5.93407">
        <ele>2419.6000976562</ele>
        <time>2021-01-06T10:49:34.000Z</time>
      </trkpt>
      <trkpt lat="45.13613" lon="5.93406">
        <ele>2419.8000488281</ele>
        <time>2021-01-06T10:49:36.000Z</time>
      </trkpt>
      <trkpt lat="45.13614" lon="5.93407">
        <ele>2420.1999511719</ele>
        <time>2021-01-06T10:49:39.000Z</time>
      </trkpt>
      <trkpt lat="45.13614" lon="5.9341">
        <ele>2420.6000976562</ele>
        <time>2021-01-06T10:49:42.000Z</time>
      </trkpt>
      <trkpt lat="45.13613" lon="5.93413">
        <ele>2420.8000488281</ele>
        <time>2021-01-06T10:49:44.000Z</time>
      </trkpt>
      <trkpt lat="45.13613" lon="5.93414">
        <ele>2421</ele>
        <time>2021-01-06T10:49:45.000Z</time>
      </trkpt>
      <trkpt lat="45.13613" lon="5.93421">
        <ele>2421.6000976562</ele>
        <time>2021-01-06T10:49:52.000Z</time>
      </trkpt>
      <trkpt lat="45.13613" lon="5.93422">
        <ele>2422</ele>
        <time>2021-01-06T10:49:55.000Z</time>
      </trkpt>
      <trkpt lat="45.13613" lon="5.93425">
        <ele>2422.3999023438</ele>
        <time>2021-01-06T10:50:00.000Z</time>
      </trkpt>
      <trkpt lat="45.13613" lon="5.93425">
        <ele>2422.6000976562</ele>
        <time>2021-01-06T10:50:04.000Z</time>
      </trkpt>
      <trkpt lat="45.13615" lon="5.93423">
        <ele>2423</ele>
        <time>2021-01-06T10:50:08.000Z</time>
      </trkpt>
      <trkpt lat="45.13615" lon="5.93423">
        <ele>2423.1999511719</ele>
        <time>2021-01-06T10:50:09.000Z</time>
      </trkpt>
      <trkpt lat="45.13619" lon="5.93419">
        <ele>2424.1999511719</ele>
        <time>2021-01-06T10:50:16.000Z</time>
      </trkpt>
      <trkpt lat="45.1362" lon="5.93419">
        <ele>2424.3999023438</ele>
        <time>2021-01-06T10:50:17.000Z</time>
      </trkpt>
      <trkpt lat="45.13624" lon="5.93417">
        <ele>2425.1999511719</ele>
        <time>2021-01-06T10:50:22.000Z</time>
      </trkpt>
      <trkpt lat="45.13627" lon="5.93416">
        <ele>2426</ele>
        <time>2021-01-06T10:50:26.000Z</time>
      </trkpt>
      <trkpt lat="45.13629" lon="5.93415">
        <ele>2426.3999023438</ele>
        <time>2021-01-06T10:50:29.000Z</time>
      </trkpt>
      <trkpt lat="45.13632" lon="5.93415">
        <ele>2427.1999511719</ele>
        <time>2021-01-06T10:50:33.000Z</time>
      </trkpt>
      <trkpt lat="45.13633" lon="5.93414">
        <ele>2427.6000976562</ele>
        <time>2021-01-06T10:50:35.000Z</time>
      </trkpt>
      <trkpt lat="45.13637" lon="5.93412">
        <ele>2428.6000976562</ele>
        <time>2021-01-06T10:50:40.000Z</time>
      </trkpt>
      <trkpt lat="45.13638" lon="5.93411">
        <ele>2428.8000488281</ele>
        <time>2021-01-06T10:50:41.000Z</time>
      </trkpt>
      <trkpt lat="45.1364" lon="5.9341">
        <ele>2429.8000488281</ele>
        <time>2021-01-06T10:50:46.000Z</time>
      </trkpt>
      <trkpt lat="45.13642" lon="5.93408">
        <ele>2430</ele>
        <time>2021-01-06T10:50:48.000Z</time>
      </trkpt>
      <trkpt lat="45.13644" lon="5.93407">
        <ele>2430.8000488281</ele>
        <time>2021-01-06T10:50:54.000Z</time>
      </trkpt>
      <trkpt lat="45.13644" lon="5.93406">
        <ele>2431</ele>
        <time>2021-01-06T10:50:55.000Z</time>
      </trkpt>
      <trkpt lat="45.13647" lon="5.93404">
        <ele>2431.6000976562</ele>
        <time>2021-01-06T10:51:02.000Z</time>
      </trkpt>
      <trkpt lat="45.13647" lon="5.93404">
        <ele>2431.8000488281</ele>
        <time>2021-01-06T10:51:03.000Z</time>
      </trkpt>
      <trkpt lat="45.13649" lon="5.93401">
        <ele>2432.1999511719</ele>
        <time>2021-01-06T10:51:11.000Z</time>
      </trkpt>
      <trkpt lat="45.13652" lon="5.93398">
        <ele>2433</ele>
        <time>2021-01-06T10:51:18.000Z</time>
      </trkpt>
      <trkpt lat="45.13657" lon="5.93394">
        <ele>2434</ele>
        <time>2021-01-06T10:51:25.000Z</time>
      </trkpt>
      <trkpt lat="45.1366" lon="5.93393">
        <ele>2435</ele>
        <time>2021-01-06T10:51:30.000Z</time>
      </trkpt>
      <trkpt lat="45.13662" lon="5.93392">
        <ele>2435.6000976562</ele>
        <time>2021-01-06T10:51:33.000Z</time>
      </trkpt>
      <trkpt lat="45.13665" lon="5.93393">
        <ele>2436.1999511719</ele>
        <time>2021-01-06T10:51:37.000Z</time>
      </trkpt>
      <trkpt lat="45.13666" lon="5.93394">
        <ele>2436.6000976562</ele>
        <time>2021-01-06T10:51:39.000Z</time>
      </trkpt>
      <trkpt lat="45.13667" lon="5.93397">
        <ele>2437.3999023438</ele>
        <time>2021-01-06T10:51:44.000Z</time>
      </trkpt>
      <trkpt lat="45.13667" lon="5.93397">
        <ele>2437.6000976562</ele>
        <time>2021-01-06T10:51:45.000Z</time>
      </trkpt>
      <trkpt lat="45.13667" lon="5.93397">
        <ele>2438.6000976562</ele>
        <time>2021-01-06T10:51:50.000Z</time>
      </trkpt>
      <trkpt lat="45.13667" lon="5.93397">
        <ele>2439</ele>
        <time>2021-01-06T10:52:03.000Z</time>
      </trkpt>
      <trkpt lat="45.13666" lon="5.93402">
        <ele>2439.1999511719</ele>
        <time>2021-01-06T10:52:09.000Z</time>
      </trkpt>
      <trkpt lat="45.13665" lon="5.9341">
        <ele>2439.8000488281</ele>
        <time>2021-01-06T10:52:15.000Z</time>
      </trkpt>
      <trkpt lat="45.13665" lon="5.93411">
        <ele>2440</ele>
        <time>2021-01-06T10:52:16.000Z</time>
      </trkpt>
      <trkpt lat="45.13662" lon="5.93421">
        <ele>2440.6000976562</ele>
        <time>2021-01-06T10:52:23.000Z</time>
      </trkpt>
      <trkpt lat="45.13661" lon="5.93424">
        <ele>2440.8000488281</ele>
        <time>2021-01-06T10:52:25.000Z</time>
      </trkpt>
      <trkpt lat="45.13659" lon="5.9343">
        <ele>2441.6000976562</ele>
        <time>2021-01-06T10:52:30.000Z</time>
      </trkpt>
      <trkpt lat="45.13658" lon="5.93431">
        <ele>2442</ele>
        <time>2021-01-06T10:52:32.000Z</time>
      </trkpt>
      <trkpt lat="45.13655" lon="5.93437">
        <ele>2443</ele>
        <time>2021-01-06T10:52:37.000Z</time>
      </trkpt>
      <trkpt lat="45.13652" lon="5.93441">
        <ele>2444</ele>
        <time>2021-01-06T10:52:43.000Z</time>
      </trkpt>
      <trkpt lat="45.13654" lon="5.93441">
        <ele>2444.6000976562</ele>
        <time>2021-01-06T10:52:46.000Z</time>
      </trkpt>
      <trkpt lat="45.13655" lon="5.93441">
        <ele>2444.8000488281</ele>
        <time>2021-01-06T10:52:48.000Z</time>
      </trkpt>
      <trkpt lat="45.13658" lon="5.93441">
        <ele>2445.1999511719</ele>
        <time>2021-01-06T10:52:52.000Z</time>
      </trkpt>
      <trkpt lat="45.1366" lon="5.93442">
        <ele>2445.6000976562</ele>
        <time>2021-01-06T10:52:55.000Z</time>
      </trkpt>
      <trkpt lat="45.13663" lon="5.93441">
        <ele>2446.1999511719</ele>
        <time>2021-01-06T10:52:59.000Z</time>
      </trkpt>
      <trkpt lat="45.13665" lon="5.93441">
        <ele>2446.6000976562</ele>
        <time>2021-01-06T10:53:02.000Z</time>
      </trkpt>
      <trkpt lat="45.13667" lon="5.9344">
        <ele>2447.3999023438</ele>
        <time>2021-01-06T10:53:05.000Z</time>
      </trkpt>
      <trkpt lat="45.13671" lon="5.93439">
        <ele>2448.1999511719</ele>
        <time>2021-01-06T10:53:10.000Z</time>
      </trkpt>
      <trkpt lat="45.13671" lon="5.93439">
        <ele>2448.3999023438</ele>
        <time>2021-01-06T10:53:12.000Z</time>
      </trkpt>
      <trkpt lat="45.13672" lon="5.93441">
        <ele>2448.8000488281</ele>
        <time>2021-01-06T10:53:14.000Z</time>
      </trkpt>
      <trkpt lat="45.13671" lon="5.93445">
        <ele>2449.6000976562</ele>
        <time>2021-01-06T10:53:18.000Z</time>
      </trkpt>
      <trkpt lat="45.13671" lon="5.93446">
        <ele>2450</ele>
        <time>2021-01-06T10:53:20.000Z</time>
      </trkpt>
      <trkpt lat="45.13671" lon="5.93449">
        <ele>2450.6000976562</ele>
        <time>2021-01-06T10:53:23.000Z</time>
      </trkpt>
      <trkpt lat="45.1367" lon="5.93452">
        <ele>2451</ele>
        <time>2021-01-06T10:53:26.000Z</time>
      </trkpt>
      <trkpt lat="45.1367" lon="5.93453">
        <ele>2451.8000488281</ele>
        <time>2021-01-06T10:53:28.000Z</time>
      </trkpt>
      <trkpt lat="45.13671" lon="5.93453">
        <ele>2452.6000976562</ele>
        <time>2021-01-06T10:53:32.000Z</time>
      </trkpt>
      <trkpt lat="45.13671" lon="5.93453">
        <ele>2452.8000488281</ele>
        <time>2021-01-06T10:53:33.000Z</time>
      </trkpt>
      <trkpt lat="45.13671" lon="5.93453">
        <ele>2452.8000488281</ele>
        <time>2021-01-06T10:53:34.000Z</time>
      </trkpt>
      <trkpt lat="45.13673" lon="5.93452">
        <ele>2453.6000976562</ele>
        <time>2021-01-06T10:53:39.000Z</time>
      </trkpt>
      <trkpt lat="45.13675" lon="5.93452">
        <ele>2454</ele>
        <time>2021-01-06T10:53:42.000Z</time>
      </trkpt>
      <trkpt lat="45.13678" lon="5.93449">
        <ele>2454.1999511719</ele>
        <time>2021-01-06T10:53:46.000Z</time>
      </trkpt>
      <trkpt lat="45.13681" lon="5.93446">
        <ele>2455</ele>
        <time>2021-01-06T10:53:51.000Z</time>
      </trkpt>
      <trkpt lat="45.13683" lon="5.93445">
        <ele>2455.1999511719</ele>
        <time>2021-01-06T10:53:53.000Z</time>
      </trkpt>
      <trkpt lat="45.13685" lon="5.93443">
        <ele>2456</ele>
        <time>2021-01-06T10:53:58.000Z</time>
      </trkpt>
      <trkpt lat="45.13687" lon="5.93442">
        <ele>2456.6000976562</ele>
        <time>2021-01-06T10:54:00.000Z</time>
      </trkpt>
      <trkpt lat="45.13688" lon="5.93439">
        <ele>2457.1999511719</ele>
        <time>2021-01-06T10:54:05.000Z</time>
      </trkpt>
      <trkpt lat="45.13688" lon="5.93439">
        <ele>2457.3999023438</ele>
        <time>2021-01-06T10:54:07.000Z</time>
      </trkpt>
      <trkpt lat="45.13689" lon="5.93438">
        <ele>2457.6000976562</ele>
        <time>2021-01-06T10:54:15.000Z</time>
      </trkpt>
      <trkpt lat="45.1369" lon="5.93437">
        <ele>2457.6000976562</ele>
        <time>2021-01-06T10:54:17.000Z</time>
      </trkpt>
      <trkpt lat="45.1369" lon="5.93437">
        <ele>2457.8000488281</ele>
        <time>2021-01-06T10:54:21.000Z</time>
      </trkpt>
      <trkpt lat="45.1369" lon="5.9344">
        <ele>2458.1999511719</ele>
        <time>2021-01-06T10:54:25.000Z</time>
      </trkpt>
      <trkpt lat="45.1369" lon="5.93441">
        <ele>2458.3999023438</ele>
        <time>2021-01-06T10:54:26.000Z</time>
      </trkpt>
      <trkpt lat="45.1369" lon="5.93447">
        <ele>2459.1999511719</ele>
        <time>2021-01-06T10:54:33.000Z</time>
      </trkpt>
      <trkpt lat="45.1369" lon="5.93447">
        <ele>2459.3999023438</ele>
        <time>2021-01-06T10:54:34.000Z</time>
      </trkpt>
      <trkpt lat="45.1369" lon="5.93451">
        <ele>2460</ele>
        <time>2021-01-06T10:54:39.000Z</time>
      </trkpt>
      <trkpt lat="45.13689" lon="5.93455">
        <ele>2460.6000976562</ele>
        <time>2021-01-06T10:54:44.000Z</time>
      </trkpt>
      <trkpt lat="45.13689" lon="5.93456">
        <ele>2460.6000976562</ele>
        <time>2021-01-06T10:54:45.000Z</time>
      </trkpt>
      <trkpt lat="45.13688" lon="5.93461">
        <ele>2461.6000976562</ele>
        <time>2021-01-06T10:54:51.000Z</time>
      </trkpt>
      <trkpt lat="45.13687" lon="5.93462">
        <ele>2462</ele>
        <time>2021-01-06T10:54:53.000Z</time>
      </trkpt>
      <trkpt lat="45.13686" lon="5.93465">
        <ele>2462.8000488281</ele>
        <time>2021-01-06T10:54:58.000Z</time>
      </trkpt>
      <trkpt lat="45.13686" lon="5.93466">
        <ele>2462.8000488281</ele>
        <time>2021-01-06T10:54:59.000Z</time>
      </trkpt>
      <trkpt lat="45.13687" lon="5.93467">
        <ele>2463.1999511719</ele>
        <time>2021-01-06T10:55:02.000Z</time>
      </trkpt>
      <trkpt lat="45.13687" lon="5.93467">
        <ele>2463.3999023438</ele>
        <time>2021-01-06T10:55:03.000Z</time>
      </trkpt>
      <trkpt lat="45.13687" lon="5.93467">
        <ele>2463.8000488281</ele>
        <time>2021-01-06T10:55:06.000Z</time>
      </trkpt>
      <trkpt lat="45.13689" lon="5.93465">
        <ele>2464</ele>
        <time>2021-01-06T10:55:10.000Z</time>
      </trkpt>
      <trkpt lat="45.13691" lon="5.93463">
        <ele>2464.1999511719</ele>
        <time>2021-01-06T10:55:17.000Z</time>
      </trkpt>
      <trkpt lat="45.13694" lon="5.93458">
        <ele>2464.3999023438</ele>
        <time>2021-01-06T10:55:25.000Z</time>
      </trkpt>
      <trkpt lat="45.13694" lon="5.93457">
        <ele>2464.6000976562</ele>
        <time>2021-01-06T10:55:26.000Z</time>
      </trkpt>
      <trkpt lat="45.13697" lon="5.93449">
        <ele>2464.8000488281</ele>
        <time>2021-01-06T10:55:34.000Z</time>
      </trkpt>
      <trkpt lat="45.13699" lon="5.93444">
        <ele>2464.8000488281</ele>
        <time>2021-01-06T10:55:40.000Z</time>
      </trkpt>
      <trkpt lat="45.137" lon="5.93443">
        <ele>2465</ele>
        <time>2021-01-06T10:55:41.000Z</time>
      </trkpt>
      <trkpt lat="45.137" lon="5.93442">
        <ele>2465.6000976562</ele>
        <time>2021-01-06T10:55:46.000Z</time>
      </trkpt>
      <trkpt lat="45.13701" lon="5.9344">
        <ele>2465.8000488281</ele>
        <time>2021-01-06T10:55:48.000Z</time>
      </trkpt>
      <trkpt lat="45.13701" lon="5.9344">
        <ele>2465.8000488281</ele>
        <time>2021-01-06T10:55:50.000Z</time>
      </trkpt>
      <trkpt lat="45.13701" lon="5.9344">
        <ele>2466</ele>
        <time>2021-01-06T10:55:51.000Z</time>
      </trkpt>
      <trkpt lat="45.13701" lon="5.93441">
        <ele>2466</ele>
        <time>2021-01-06T10:55:52.000Z</time>
      </trkpt>
      <trkpt lat="45.13701" lon="5.9344">
        <ele>2466.1999511719</ele>
        <time>2021-01-06T10:55:55.000Z</time>
      </trkpt>
      <trkpt lat="45.13701" lon="5.93442">
        <ele>2466.8000488281</ele>
        <time>2021-01-06T10:56:01.000Z</time>
      </trkpt>
      <trkpt lat="45.13701" lon="5.93443">
        <ele>2466.8000488281</ele>
        <time>2021-01-06T10:56:02.000Z</time>
      </trkpt>
      <trkpt lat="45.13702" lon="5.93442">
        <ele>2467.3999023438</ele>
        <time>2021-01-06T10:56:06.000Z</time>
      </trkpt>
      <trkpt lat="45.13702" lon="5.93441">
        <ele>2467.6000976562</ele>
        <time>2021-01-06T10:56:07.000Z</time>
      </trkpt>
      <trkpt lat="45.13704" lon="5.93439">
        <ele>2468</ele>
        <time>2021-01-06T10:56:11.000Z</time>
      </trkpt>
      <trkpt lat="45.13705" lon="5.93439">
        <ele>2468</ele>
        <time>2021-01-06T10:56:12.000Z</time>
      </trkpt>
      <trkpt lat="45.13706" lon="5.93436">
        <ele>2468.3999023438</ele>
        <time>2021-01-06T10:56:15.000Z</time>
      </trkpt>
      <trkpt lat="45.13707" lon="5.93435">
        <ele>2468.8000488281</ele>
        <time>2021-01-06T10:56:18.000Z</time>
      </trkpt>
      <trkpt lat="45.13707" lon="5.93435">
        <ele>2469</ele>
        <time>2021-01-06T10:56:20.000Z</time>
      </trkpt>
      <trkpt lat="45.13707" lon="5.93436">
        <ele>2469.3999023438</ele>
        <time>2021-01-06T10:56:22.000Z</time>
      </trkpt>
      <trkpt lat="45.13707" lon="5.93436">
        <ele>2469.6000976562</ele>
        <time>2021-01-06T10:56:23.000Z</time>
      </trkpt>
      <trkpt lat="45.13708" lon="5.93438">
        <ele>2470</ele>
        <time>2021-01-06T10:56:28.000Z</time>
      </trkpt>
      <trkpt lat="45.1371" lon="5.93442">
        <ele>2470.8000488281</ele>
        <time>2021-01-06T10:56:32.000Z</time>
      </trkpt>
      <trkpt lat="45.1371" lon="5.93443">
        <ele>2471.1999511719</ele>
        <time>2021-01-06T10:56:33.000Z</time>
      </trkpt>
      <trkpt lat="45.13711" lon="5.93443">
        <ele>2471.6000976562</ele>
        <time>2021-01-06T10:56:35.000Z</time>
      </trkpt>
      <trkpt lat="45.1371" lon="5.93444">
        <ele>2472.1999511719</ele>
        <time>2021-01-06T10:56:38.000Z</time>
      </trkpt>
      <trkpt lat="45.1371" lon="5.93445">
        <ele>2472.8000488281</ele>
        <time>2021-01-06T10:56:40.000Z</time>
      </trkpt>
      <trkpt lat="45.1371" lon="5.93446">
        <ele>2473.1999511719</ele>
        <time>2021-01-06T10:56:42.000Z</time>
      </trkpt>
      <trkpt lat="45.1371" lon="5.93447">
        <ele>2473.8000488281</ele>
        <time>2021-01-06T10:56:45.000Z</time>
      </trkpt>
      <trkpt lat="45.1371" lon="5.93447">
        <ele>2474.3999023438</ele>
        <time>2021-01-06T10:56:48.000Z</time>
      </trkpt>
      <trkpt lat="45.1371" lon="5.93448">
        <ele>2474.6000976562</ele>
        <time>2021-01-06T10:56:50.000Z</time>
      </trkpt>
      <trkpt lat="45.13714" lon="5.93452">
        <ele>2475.1999511719</ele>
        <time>2021-01-06T10:56:56.000Z</time>
      </trkpt>
      <trkpt lat="45.13713" lon="5.93453">
        <ele>2475.3999023438</ele>
        <time>2021-01-06T10:56:58.000Z</time>
      </trkpt>
      <trkpt lat="45.13713" lon="5.93454">
        <ele>2475.8000488281</ele>
        <time>2021-01-06T10:57:01.000Z</time>
      </trkpt>
      <trkpt lat="45.13713" lon="5.93454">
        <ele>2476.3999023438</ele>
        <time>2021-01-06T10:57:06.000Z</time>
      </trkpt>
      <trkpt lat="45.13712" lon="5.93456">
        <ele>2476.6000976562</ele>
        <time>2021-01-06T10:57:09.000Z</time>
      </trkpt>
      <trkpt lat="45.13712" lon="5.93456">
        <ele>2477.3999023438</ele>
        <time>2021-01-06T10:57:16.000Z</time>
      </trkpt>
      <trkpt lat="45.13712" lon="5.93456">
        <ele>2477.6000976562</ele>
        <time>2021-01-06T10:57:19.000Z</time>
      </trkpt>
      <trkpt lat="45.13712" lon="5.93456">
        <ele>2477.3999023438</ele>
        <time>2021-01-06T10:57:28.000Z</time>
      </trkpt>
      <trkpt lat="45.13712" lon="5.93456">
        <ele>2477.1999511719</ele>
        <time>2021-01-06T10:57:38.000Z</time>
      </trkpt>
      <trkpt lat="45.13712" lon="5.93456">
        <ele>2477.3999023438</ele>
        <time>2021-01-06T10:57:47.000Z</time>
      </trkpt>
      <trkpt lat="45.13712" lon="5.93457">
        <ele>2477.1999511719</ele>
        <time>2021-01-06T10:58:01.000Z</time>
      </trkpt>
      <trkpt lat="45.13711" lon="5.93461">
        <ele>2477.6000976562</ele>
        <time>2021-01-06T10:58:06.000Z</time>
      </trkpt>
      <trkpt lat="45.13711" lon="5.9346">
        <ele>2478</ele>
        <time>2021-01-06T10:58:10.000Z</time>
      </trkpt>
      <trkpt lat="45.13711" lon="5.93461">
        <ele>2478</ele>
        <time>2021-01-06T10:58:12.000Z</time>
      </trkpt>
      <trkpt lat="45.13712" lon="5.9346">
        <ele>2478.6000976562</ele>
        <time>2021-01-06T10:58:17.000Z</time>
      </trkpt>
      <trkpt lat="45.13712" lon="5.9346">
        <ele>2478.6000976562</ele>
        <time>2021-01-06T10:58:18.000Z</time>
      </trkpt>
      <trkpt lat="45.13712" lon="5.9346">
        <ele>2479.3999023438</ele>
        <time>2021-01-06T10:58:24.000Z</time>
      </trkpt>
      <trkpt lat="45.13712" lon="5.93461">
        <ele>2479.1999511719</ele>
        <time>2021-01-06T10:58:33.000Z</time>
      </trkpt>
      <trkpt lat="45.13712" lon="5.93461">
        <ele>2479.3999023438</ele>
        <time>2021-01-06T10:58:40.000Z</time>
      </trkpt>
      <trkpt lat="45.13713" lon="5.9346">
        <ele>2479.6000976562</ele>
        <time>2021-01-06T10:58:48.000Z</time>
      </trkpt>
      <trkpt lat="45.13713" lon="5.9346">
        <ele>2480.3999023438</ele>
        <time>2021-01-06T10:58:55.000Z</time>
      </trkpt>
      <trkpt lat="45.13713" lon="5.93461">
        <ele>2480.6000976562</ele>
        <time>2021-01-06T10:59:01.000Z</time>
      </trkpt>
      <trkpt lat="45.13713" lon="5.93463">
        <ele>2481.3999023438</ele>
        <time>2021-01-06T10:59:08.000Z</time>
      </trkpt>
      <trkpt lat="45.13713" lon="5.93463">
        <ele>2481.6000976562</ele>
        <time>2021-01-06T10:59:10.000Z</time>
      </trkpt>
      <trkpt lat="45.13714" lon="5.93463">
        <ele>2481.8000488281</ele>
        <time>2021-01-06T10:59:16.000Z</time>
      </trkpt>
      <trkpt lat="45.13715" lon="5.93463">
        <ele>2482.1999511719</ele>
        <time>2021-01-06T10:59:22.000Z</time>
      </trkpt>
      <trkpt lat="45.13716" lon="5.93466">
        <ele>2482.6000976562</ele>
        <time>2021-01-06T10:59:27.000Z</time>
      </trkpt>
      <trkpt lat="45.13716" lon="5.93467">
        <ele>2482.8000488281</ele>
        <time>2021-01-06T10:59:28.000Z</time>
      </trkpt>
      <trkpt lat="45.13717" lon="5.93472">
        <ele>2483.8000488281</ele>
        <time>2021-01-06T10:59:33.000Z</time>
      </trkpt>
      <trkpt lat="45.13717" lon="5.93472">
        <ele>2484</ele>
        <time>2021-01-06T10:59:34.000Z</time>
      </trkpt>
      <trkpt lat="45.13717" lon="5.93474">
        <ele>2485</ele>
        <time>2021-01-06T10:59:38.000Z</time>
      </trkpt>
      <trkpt lat="45.13718" lon="5.93476">
        <ele>2486.1999511719</ele>
        <time>2021-01-06T10:59:42.000Z</time>
      </trkpt>
      <trkpt lat="45.13718" lon="5.93477">
        <ele>2486.3999023438</ele>
        <time>2021-01-06T10:59:43.000Z</time>
      </trkpt>
      <trkpt lat="45.13718" lon="5.93477">
        <ele>2487</ele>
        <time>2021-01-06T10:59:48.000Z</time>
      </trkpt>
      <trkpt lat="45.13718" lon="5.93477">
        <ele>2487.1999511719</ele>
        <time>2021-01-06T10:59:50.000Z</time>
      </trkpt>
      <trkpt lat="45.13718" lon="5.93477">
        <ele>2487.1999511719</ele>
        <time>2021-01-06T10:59:56.000Z</time>
      </trkpt>
      <trkpt lat="45.13718" lon="5.9348">
        <ele>2487.3999023438</ele>
        <time>2021-01-06T11:00:01.000Z</time>
      </trkpt>
      <trkpt lat="45.13719" lon="5.93481">
        <ele>2487.6000976562</ele>
        <time>2021-01-06T11:00:06.000Z</time>
      </trkpt>
      <trkpt lat="45.13719" lon="5.93481">
        <ele>2487.6000976562</ele>
        <time>2021-01-06T11:00:16.000Z</time>
      </trkpt>
      <trkpt lat="45.13719" lon="5.93481">
        <ele>2487.3999023438</ele>
        <time>2021-01-06T11:00:24.000Z</time>
      </trkpt>
      <trkpt lat="45.13719" lon="5.93481">
        <ele>2487.3999023438</ele>
        <time>2021-01-06T11:00:38.000Z</time>
      </trkpt>
      <trkpt lat="45.13719" lon="5.9348">
        <ele>2487.3999023438</ele>
        <time>2021-01-06T11:00:44.000Z</time>
      </trkpt>
      <trkpt lat="45.13719" lon="5.9348">
        <ele>2487.1999511719</ele>
        <time>2021-01-06T11:00:55.000Z</time>
      </trkpt>
      <trkpt lat="45.1372" lon="5.9348">
        <ele>2487.1999511719</ele>
        <time>2021-01-06T11:01:01.000Z</time>
      </trkpt>
      <trkpt lat="45.1372" lon="5.9348">
        <ele>2487.1999511719</ele>
        <time>2021-01-06T11:01:03.000Z</time>
      </trkpt>
      <trkpt lat="45.1372" lon="5.9348">
        <ele>2486.3999023438</ele>
        <time>2021-01-06T11:01:09.000Z</time>
      </trkpt>
      <trkpt lat="45.1372" lon="5.9348">
        <ele>2486.1999511719</ele>
        <time>2021-01-06T11:01:11.000Z</time>
      </trkpt>
      <trkpt lat="45.1372" lon="5.9348">
        <ele>2486</ele>
        <time>2021-01-06T11:01:26.000Z</time>
      </trkpt>
      <trkpt lat="45.1372" lon="5.9348">
        <ele>2485.8000488281</ele>
        <time>2021-01-06T11:01:43.000Z</time>
      </trkpt>
      <trkpt lat="45.1372" lon="5.9348">
        <ele>2485.8000488281</ele>
        <time>2021-01-06T11:02:00.000Z</time>
      </trkpt>
      <trkpt lat="45.1372" lon="5.9348">
        <ele>2485.8000488281</ele>
        <time>2021-01-06T11:02:15.000Z</time>
      </trkpt>
      <trkpt lat="45.1372" lon="5.93481">
        <ele>2485.6000976562</ele>
        <time>2021-01-06T11:02:23.000Z</time>
      </trkpt>
      <trkpt lat="45.1372" lon="5.93481">
        <ele>2486.3999023438</ele>
        <time>2021-01-06T11:02:32.000Z</time>
      </trkpt>
      <trkpt lat="45.1372" lon="5.93482">
        <ele>2486.8000488281</ele>
        <time>2021-01-06T11:02:36.000Z</time>
      </trkpt>
      <trkpt lat="45.1372" lon="5.93482">
        <ele>2486.1999511719</ele>
        <time>2021-01-06T11:02:42.000Z</time>
      </trkpt>
      <trkpt lat="45.1372" lon="5.93482">
        <ele>2486.8000488281</ele>
        <time>2021-01-06T11:02:50.000Z</time>
      </trkpt>
      <trkpt lat="45.1372" lon="5.93482">
        <ele>2486.6000976562</ele>
        <time>2021-01-06T11:02:52.000Z</time>
      </trkpt>
      <trkpt lat="45.1372" lon="5.93482">
        <ele>2486.6000976562</ele>
        <time>2021-01-06T11:03:01.000Z</time>
      </trkpt>
      <trkpt lat="45.1372" lon="5.93482">
        <ele>2486.3999023438</ele>
        <time>2021-01-06T11:03:12.000Z</time>
      </trkpt>
      <trkpt lat="45.1372" lon="5.93482">
        <ele>2486.6000976562</ele>
        <time>2021-01-06T11:03:21.000Z</time>
      </trkpt>
      <trkpt lat="45.1372" lon="5.93482">
        <ele>2486.6000976562</ele>
        <time>2021-01-06T11:03:31.000Z</time>
      </trkpt>
      <trkpt lat="45.1372" lon="5.93482">
        <ele>2486.8000488281</ele>
        <time>2021-01-06T11:03:40.000Z</time>
      </trkpt>
      <trkpt lat="45.1372" lon="5.93482">
        <ele>2486.8000488281</ele>
        <time>2021-01-06T11:03:53.000Z</time>
      </trkpt>
      <trkpt lat="45.1372" lon="5.93481">
        <ele>2486.8000488281</ele>
        <time>2021-01-06T11:04:02.000Z</time>
      </trkpt>
      <trkpt lat="45.1372" lon="5.93481">
        <ele>2487</ele>
        <time>2021-01-06T11:04:14.000Z</time>
      </trkpt>
      <trkpt lat="45.1372" lon="5.93481">
        <ele>2486.8000488281</ele>
        <time>2021-01-06T11:04:26.000Z</time>
      </trkpt>
      <trkpt lat="45.1372" lon="5.93481">
        <ele>2486.6000976562</ele>
        <time>2021-01-06T11:04:39.000Z</time>
      </trkpt>
      <trkpt lat="45.1372" lon="5.93481">
        <ele>2487</ele>
        <time>2021-01-06T11:04:53.000Z</time>
      </trkpt>
      <trkpt lat="45.1372" lon="5.93481">
        <ele>2487.1999511719</ele>
        <time>2021-01-06T11:04:57.000Z</time>
      </trkpt>
      <trkpt lat="45.1372" lon="5.93481">
        <ele>2487</ele>
        <time>2021-01-06T11:05:04.000Z</time>
      </trkpt>
      <trkpt lat="45.1372" lon="5.93481">
        <ele>2486</ele>
        <time>2021-01-06T11:05:13.000Z</time>
      </trkpt>
      <trkpt lat="45.1372" lon="5.93481">
        <ele>2486</ele>
        <time>2021-01-06T11:05:14.000Z</time>
      </trkpt>
      <trkpt lat="45.1372" lon="5.93481">
        <ele>2487.3999023438</ele>
        <time>2021-01-06T11:05:17.000Z</time>
      </trkpt>
      <trkpt lat="45.13721" lon="5.93481">
        <ele>2486.8000488281</ele>
        <time>2021-01-06T11:05:24.000Z</time>
      </trkpt>
      <trkpt lat="45.13721" lon="5.93481">
        <ele>2487</ele>
        <time>2021-01-06T11:05:35.000Z</time>
      </trkpt>
      <trkpt lat="45.13721" lon="5.93481">
        <ele>2486.8000488281</ele>
        <time>2021-01-06T11:05:47.000Z</time>
      </trkpt>
      <trkpt lat="45.13721" lon="5.93481">
        <ele>2487</ele>
        <time>2021-01-06T11:05:56.000Z</time>
      </trkpt>
      <trkpt lat="45.13721" lon="5.93481">
        <ele>2487</ele>
        <time>2021-01-06T11:06:10.000Z</time>
      </trkpt>
      <trkpt lat="45.13721" lon="5.93481">
        <ele>2487</ele>
        <time>2021-01-06T11:06:16.000Z</time>
      </trkpt>
      <trkpt lat="45.13721" lon="5.93481">
        <ele>2486.8000488281</ele>
        <time>2021-01-06T11:06:24.000Z</time>
      </trkpt>
      <trkpt lat="45.13721" lon="5.93481">
        <ele>2487.1999511719</ele>
        <time>2021-01-06T11:06:35.000Z</time>
      </trkpt>
      <trkpt lat="45.13721" lon="5.93481">
        <ele>2487.1999511719</ele>
        <time>2021-01-06T11:06:50.000Z</time>
      </trkpt>
      <trkpt lat="45.13721" lon="5.93481">
        <ele>2487.1999511719</ele>
        <time>2021-01-06T11:06:59.000Z</time>
      </trkpt>
      <trkpt lat="45.13721" lon="5.93481">
        <ele>2487.3999023438</ele>
        <time>2021-01-06T11:07:08.000Z</time>
      </trkpt>
      <trkpt lat="45.13721" lon="5.93481">
        <ele>2487.3999023438</ele>
        <time>2021-01-06T11:07:20.000Z</time>
      </trkpt>
      <trkpt lat="45.13721" lon="5.93481">
        <ele>2487.6000976562</ele>
        <time>2021-01-06T11:07:32.000Z</time>
      </trkpt>
      <trkpt lat="45.13721" lon="5.93481">
        <ele>2487.3999023438</ele>
        <time>2021-01-06T11:07:43.000Z</time>
      </trkpt>
      <trkpt lat="45.13721" lon="5.93481">
        <ele>2487.6000976562</ele>
        <time>2021-01-06T11:07:53.000Z</time>
      </trkpt>
      <trkpt lat="45.13721" lon="5.93481">
        <ele>2487.1999511719</ele>
        <time>2021-01-06T11:08:03.000Z</time>
      </trkpt>
      <trkpt lat="45.13721" lon="5.93481">
        <ele>2487.6000976562</ele>
        <time>2021-01-06T11:08:18.000Z</time>
      </trkpt>
      <trkpt lat="45.13721" lon="5.93481">
        <ele>2487.3999023438</ele>
        <time>2021-01-06T11:08:27.000Z</time>
      </trkpt>
      <trkpt lat="45.13721" lon="5.93481">
        <ele>2487.6000976562</ele>
        <time>2021-01-06T11:08:41.000Z</time>
      </trkpt>
      <trkpt lat="45.13721" lon="5.93481">
        <ele>2487.8000488281</ele>
        <time>2021-01-06T11:08:50.000Z</time>
      </trkpt>
      <trkpt lat="45.13721" lon="5.93481">
        <ele>2487.6000976562</ele>
        <time>2021-01-06T11:08:59.000Z</time>
      </trkpt>
      <trkpt lat="45.13721" lon="5.93481">
        <ele>2487.6000976562</ele>
        <time>2021-01-06T11:09:09.000Z</time>
      </trkpt>
      <trkpt lat="45.13721" lon="5.93481">
        <ele>2487.8000488281</ele>
        <time>2021-01-06T11:09:17.000Z</time>
      </trkpt>
      <trkpt lat="45.13721" lon="5.93481">
        <ele>2487.6000976562</ele>
        <time>2021-01-06T11:09:28.000Z</time>
      </trkpt>
      <trkpt lat="45.13721" lon="5.93481">
        <ele>2487.6000976562</ele>
        <time>2021-01-06T11:09:35.000Z</time>
      </trkpt>
      <trkpt lat="45.13721" lon="5.93481">
        <ele>2487.6000976562</ele>
        <time>2021-01-06T11:09:45.000Z</time>
      </trkpt>
      <trkpt lat="45.13721" lon="5.93481">
        <ele>2487.3999023438</ele>
        <time>2021-01-06T11:09:51.000Z</time>
      </trkpt>
      <trkpt lat="45.13721" lon="5.93481">
        <ele>2487.1999511719</ele>
        <time>2021-01-06T11:10:04.000Z</time>
      </trkpt>
      <trkpt lat="45.13721" lon="5.93481">
        <ele>2487.6000976562</ele>
        <time>2021-01-06T11:10:16.000Z</time>
      </trkpt>
      <trkpt lat="45.13721" lon="5.93481">
        <ele>2487.6000976562</ele>
        <time>2021-01-06T11:10:26.000Z</time>
      </trkpt>
      <trkpt lat="45.13721" lon="5.93481">
        <ele>2487.6000976562</ele>
        <time>2021-01-06T11:10:34.000Z</time>
      </trkpt>
      <trkpt lat="45.13721" lon="5.93481">
        <ele>2487.3999023438</ele>
        <time>2021-01-06T11:10:44.000Z</time>
      </trkpt>
      <trkpt lat="45.13721" lon="5.93482">
        <ele>2487.8000488281</ele>
        <time>2021-01-06T11:10:52.000Z</time>
      </trkpt>
      <trkpt lat="45.13721" lon="5.93482">
        <ele>2488</ele>
        <time>2021-01-06T11:11:01.000Z</time>
      </trkpt>
      <trkpt lat="45.13721" lon="5.93482">
        <ele>2487.8000488281</ele>
        <time>2021-01-06T11:11:16.000Z</time>
      </trkpt>
      <trkpt lat="45.13721" lon="5.93482">
        <ele>2488</ele>
        <time>2021-01-06T11:11:28.000Z</time>
      </trkpt>
      <trkpt lat="45.13721" lon="5.93482">
        <ele>2487.8000488281</ele>
        <time>2021-01-06T11:11:36.000Z</time>
      </trkpt>
      <trkpt lat="45.13721" lon="5.93482">
        <ele>2486</ele>
        <time>2021-01-06T11:11:40.000Z</time>
      </trkpt>
      <trkpt lat="45.13721" lon="5.93482">
        <ele>2486.3999023438</ele>
        <time>2021-01-06T11:11:47.000Z</time>
      </trkpt>
      <trkpt lat="45.13721" lon="5.93482">
        <ele>2487</ele>
        <time>2021-01-06T11:11:48.000Z</time>
      </trkpt>
      <trkpt lat="45.13721" lon="5.93482">
        <ele>2487.8000488281</ele>
        <time>2021-01-06T11:12:06.000Z</time>
      </trkpt>
      <trkpt lat="45.13721" lon="5.93481">
        <ele>2487</ele>
        <time>2021-01-06T11:12:18.000Z</time>
      </trkpt>
      <trkpt lat="45.1372" lon="5.93478">
        <ele>2488</ele>
        <time>2021-01-06T11:12:21.000Z</time>
      </trkpt>
      <trkpt lat="45.1372" lon="5.93478">
        <ele>2488.3999023438</ele>
        <time>2021-01-06T11:12:24.000Z</time>
      </trkpt>
      <trkpt lat="45.13721" lon="5.93475">
        <ele>2486.8000488281</ele>
        <time>2021-01-06T11:12:26.000Z</time>
      </trkpt>
      <trkpt lat="45.13721" lon="5.93475">
        <ele>2485.8000488281</ele>
        <time>2021-01-06T11:12:28.000Z</time>
      </trkpt>
      <trkpt lat="45.13721" lon="5.93474">
        <ele>2485.1999511719</ele>
        <time>2021-01-06T11:12:29.000Z</time>
      </trkpt>
      <trkpt lat="45.13719" lon="5.93468">
        <ele>2484.6000976562</ele>
        <time>2021-01-06T11:12:34.000Z</time>
      </trkpt>
      <trkpt lat="45.13715" lon="5.93464">
        <ele>2483.3999023438</ele>
        <time>2021-01-06T11:12:38.000Z</time>
      </trkpt>
      <trkpt lat="45.13712" lon="5.93466">
        <ele>2481.8000488281</ele>
        <time>2021-01-06T11:12:41.000Z</time>
      </trkpt>
      <trkpt lat="45.13711" lon="5.93467">
        <ele>2480.8000488281</ele>
        <time>2021-01-06T11:12:45.000Z</time>
      </trkpt>
      <trkpt lat="45.13712" lon="5.93463">
        <ele>2480.1999511719</ele>
        <time>2021-01-06T11:12:48.000Z</time>
      </trkpt>
      <trkpt lat="45.13713" lon="5.93461">
        <ele>2479.3999023438</ele>
        <time>2021-01-06T11:12:50.000Z</time>
      </trkpt>
      <trkpt lat="45.13713" lon="5.93461">
        <ele>2477.8000488281</ele>
        <time>2021-01-06T11:12:52.000Z</time>
      </trkpt>
      <trkpt lat="45.13713" lon="5.93461">
        <ele>2476.6000976562</ele>
        <time>2021-01-06T11:12:54.000Z</time>
      </trkpt>
      <trkpt lat="45.13711" lon="5.93457">
        <ele>2475.3999023438</ele>
        <time>2021-01-06T11:12:58.000Z</time>
      </trkpt>
      <trkpt lat="45.13711" lon="5.93456">
        <ele>2474.6000976562</ele>
        <time>2021-01-06T11:13:01.000Z</time>
      </trkpt>
      <trkpt lat="45.13709" lon="5.93452">
        <ele>2474.1999511719</ele>
        <time>2021-01-06T11:13:03.000Z</time>
      </trkpt>
      <trkpt lat="45.13707" lon="5.93452">
        <ele>2472.8000488281</ele>
        <time>2021-01-06T11:13:06.000Z</time>
      </trkpt>
      <trkpt lat="45.13707" lon="5.93452">
        <ele>2471.6000976562</ele>
        <time>2021-01-06T11:13:08.000Z</time>
      </trkpt>
      <trkpt lat="45.13707" lon="5.93452">
        <ele>2471.1999511719</ele>
        <time>2021-01-06T11:13:09.000Z</time>
      </trkpt>
      <trkpt lat="45.13706" lon="5.93453">
        <ele>2470.8000488281</ele>
        <time>2021-01-06T11:13:12.000Z</time>
      </trkpt>
      <trkpt lat="45.13703" lon="5.93456">
        <ele>2470.8000488281</ele>
        <time>2021-01-06T11:13:14.000Z</time>
      </trkpt>
      <trkpt lat="45.13701" lon="5.93458">
        <ele>2470.8000488281</ele>
        <time>2021-01-06T11:13:15.000Z</time>
      </trkpt>
      <trkpt lat="45.137" lon="5.93458">
        <ele>2470.3999023438</ele>
        <time>2021-01-06T11:13:16.000Z</time>
      </trkpt>
      <trkpt lat="45.13699" lon="5.93453">
        <ele>2468.6000976562</ele>
        <time>2021-01-06T11:13:18.000Z</time>
      </trkpt>
      <trkpt lat="45.13699" lon="5.93448">
        <ele>2467.6000976562</ele>
        <time>2021-01-06T11:13:19.000Z</time>
      </trkpt>
      <trkpt lat="45.13698" lon="5.93444">
        <ele>2466.1999511719</ele>
        <time>2021-01-06T11:13:20.000Z</time>
      </trkpt>
      <trkpt lat="45.13699" lon="5.93441">
        <ele>2464.6000976562</ele>
        <time>2021-01-06T11:13:21.000Z</time>
      </trkpt>
      <trkpt lat="45.13699" lon="5.93437">
        <ele>2462.6000976562</ele>
        <time>2021-01-06T11:13:22.000Z</time>
      </trkpt>
      <trkpt lat="45.137" lon="5.93434">
        <ele>2460.6000976562</ele>
        <time>2021-01-06T11:13:23.000Z</time>
      </trkpt>
      <trkpt lat="45.137" lon="5.9343">
        <ele>2458.1999511719</ele>
        <time>2021-01-06T11:13:24.000Z</time>
      </trkpt>
      <trkpt lat="45.137" lon="5.93426">
        <ele>2455.1999511719</ele>
        <time>2021-01-06T11:13:25.000Z</time>
      </trkpt>
      <trkpt lat="45.137" lon="5.9342">
        <ele>2451.8000488281</ele>
        <time>2021-01-06T11:13:26.000Z</time>
      </trkpt>
      <trkpt lat="45.13697" lon="5.93413">
        <ele>2448</ele>
        <time>2021-01-06T11:13:27.000Z</time>
      </trkpt>
      <trkpt lat="45.13693" lon="5.93407">
        <ele>2444.1999511719</ele>
        <time>2021-01-06T11:13:28.000Z</time>
      </trkpt>
      <trkpt lat="45.13689" lon="5.93401">
        <ele>2438.3999023438</ele>
        <time>2021-01-06T11:13:29.000Z</time>
      </trkpt>
      <trkpt lat="45.13681" lon="5.93392">
        <ele>2436.6000976562</ele>
        <time>2021-01-06T11:13:30.000Z</time>
      </trkpt>
      <trkpt lat="45.13673" lon="5.93385">
        <ele>2435.1999511719</ele>
        <time>2021-01-06T11:13:31.000Z</time>
      </trkpt>
      <trkpt lat="45.13666" lon="5.93387">
        <ele>2433.6000976562</ele>
        <time>2021-01-06T11:13:33.000Z</time>
      </trkpt>
      <trkpt lat="45.13666" lon="5.93387">
        <ele>2432.6000976562</ele>
        <time>2021-01-06T11:13:36.000Z</time>
      </trkpt>
      <trkpt lat="45.13666" lon="5.93387">
        <ele>2432.8000488281</ele>
        <time>2021-01-06T11:13:44.000Z</time>
      </trkpt>
      <trkpt lat="45.13663" lon="5.93391">
        <ele>2432.1999511719</ele>
        <time>2021-01-06T11:13:52.000Z</time>
      </trkpt>
      <trkpt lat="45.13661" lon="5.93396">
        <ele>2432.1999511719</ele>
        <time>2021-01-06T11:14:03.000Z</time>
      </trkpt>
      <trkpt lat="45.13661" lon="5.93396">
        <ele>2432.1999511719</ele>
        <time>2021-01-06T11:14:04.000Z</time>
      </trkpt>
      <trkpt lat="45.13661" lon="5.93396">
        <ele>2432.1999511719</ele>
        <time>2021-01-06T11:14:19.000Z</time>
      </trkpt>
      <trkpt lat="45.13661" lon="5.93396">
        <ele>2432.1999511719</ele>
        <time>2021-01-06T11:14:29.000Z</time>
      </trkpt>
      <trkpt lat="45.13661" lon="5.93397">
        <ele>2432</ele>
        <time>2021-01-06T11:14:43.000Z</time>
      </trkpt>
      <trkpt lat="45.13661" lon="5.93397">
        <ele>2432</ele>
        <time>2021-01-06T11:14:57.000Z</time>
      </trkpt>
      <trkpt lat="45.1366" lon="5.93397">
        <ele>2431</ele>
        <time>2021-01-06T11:15:08.000Z</time>
      </trkpt>
      <trkpt lat="45.1366" lon="5.93397">
        <ele>2430.6000976562</ele>
        <time>2021-01-06T11:15:09.000Z</time>
      </trkpt>
      <trkpt lat="45.1366" lon="5.93397">
        <ele>2432</ele>
        <time>2021-01-06T11:15:14.000Z</time>
      </trkpt>
      <trkpt lat="45.1366" lon="5.93397">
        <ele>2431.8000488281</ele>
        <time>2021-01-06T11:15:20.000Z</time>
      </trkpt>
      <trkpt lat="45.1366" lon="5.93394">
        <ele>2431.6000976562</ele>
        <time>2021-01-06T11:15:26.000Z</time>
      </trkpt>
      <trkpt lat="45.13661" lon="5.93384">
        <ele>2429.1999511719</ele>
        <time>2021-01-06T11:15:29.000Z</time>
      </trkpt>
      <trkpt lat="45.13661" lon="5.9338">
        <ele>2428</ele>
        <time>2021-01-06T11:15:30.000Z</time>
      </trkpt>
      <trkpt lat="45.13661" lon="5.93375">
        <ele>2427</ele>
        <time>2021-01-06T11:15:31.000Z</time>
      </trkpt>
      <trkpt lat="45.13661" lon="5.93371">
        <ele>2425.8000488281</ele>
        <time>2021-01-06T11:15:32.000Z</time>
      </trkpt>
      <trkpt lat="45.1366" lon="5.93367">
        <ele>2424.1999511719</ele>
        <time>2021-01-06T11:15:33.000Z</time>
      </trkpt>
      <trkpt lat="45.13659" lon="5.93363">
        <ele>2422.3999023438</ele>
        <time>2021-01-06T11:15:34.000Z</time>
      </trkpt>
      <trkpt lat="45.13657" lon="5.9336">
        <ele>2420.3999023438</ele>
        <time>2021-01-06T11:15:35.000Z</time>
      </trkpt>
      <trkpt lat="45.13655" lon="5.93358">
        <ele>2418.1999511719</ele>
        <time>2021-01-06T11:15:36.000Z</time>
      </trkpt>
      <trkpt lat="45.13651" lon="5.93358">
        <ele>2415.8000488281</ele>
        <time>2021-01-06T11:15:37.000Z</time>
      </trkpt>
      <trkpt lat="45.13649" lon="5.93357">
        <ele>2413.3999023438</ele>
        <time>2021-01-06T11:15:38.000Z</time>
      </trkpt>
      <trkpt lat="45.13648" lon="5.93355">
        <ele>2410.8000488281</ele>
        <time>2021-01-06T11:15:39.000Z</time>
      </trkpt>
      <trkpt lat="45.13646" lon="5.93353">
        <ele>2408.1999511719</ele>
        <time>2021-01-06T11:15:40.000Z</time>
      </trkpt>
      <trkpt lat="45.13643" lon="5.93353">
        <ele>2405.6000976562</ele>
        <time>2021-01-06T11:15:41.000Z</time>
      </trkpt>
      <trkpt lat="45.13642" lon="5.93351">
        <ele>2403.1999511719</ele>
        <time>2021-01-06T11:15:42.000Z</time>
      </trkpt>
      <trkpt lat="45.1364" lon="5.93348">
        <ele>2401</ele>
        <time>2021-01-06T11:15:43.000Z</time>
      </trkpt>
      <trkpt lat="45.13638" lon="5.93347">
        <ele>2398.6000976562</ele>
        <time>2021-01-06T11:15:44.000Z</time>
      </trkpt>
      <trkpt lat="45.13637" lon="5.93346">
        <ele>2396.1999511719</ele>
        <time>2021-01-06T11:15:45.000Z</time>
      </trkpt>
      <trkpt lat="45.13635" lon="5.93346">
        <ele>2393.6000976562</ele>
        <time>2021-01-06T11:15:46.000Z</time>
      </trkpt>
      <trkpt lat="45.13634" lon="5.93344">
        <ele>2391</ele>
        <time>2021-01-06T11:15:47.000Z</time>
      </trkpt>
      <trkpt lat="45.13633" lon="5.93343">
        <ele>2388.1999511719</ele>
        <time>2021-01-06T11:15:48.000Z</time>
      </trkpt>
      <trkpt lat="45.13633" lon="5.93341">
        <ele>2385.6000976562</ele>
        <time>2021-01-06T11:15:49.000Z</time>
      </trkpt>
      <trkpt lat="45.13634" lon="5.93339">
        <ele>2383.6000976562</ele>
        <time>2021-01-06T11:15:50.000Z</time>
      </trkpt>
      <trkpt lat="45.13634" lon="5.93336">
        <ele>2381.8000488281</ele>
        <time>2021-01-06T11:15:51.000Z</time>
      </trkpt>
      <trkpt lat="45.13633" lon="5.93327">
        <ele>2379.8000488281</ele>
        <time>2021-01-06T11:15:52.000Z</time>
      </trkpt>
      <trkpt lat="45.13631" lon="5.9332">
        <ele>2375</ele>
        <time>2021-01-06T11:15:53.000Z</time>
      </trkpt>
      <trkpt lat="45.13633" lon="5.9332">
        <ele>2372.8000488281</ele>
        <time>2021-01-06T11:15:54.000Z</time>
      </trkpt>
      <trkpt lat="45.13632" lon="5.93318">
        <ele>2371</ele>
        <time>2021-01-06T11:15:55.000Z</time>
      </trkpt>
      <trkpt lat="45.13631" lon="5.93316">
        <ele>2369</ele>
        <time>2021-01-06T11:15:56.000Z</time>
      </trkpt>
      <trkpt lat="45.1363" lon="5.93314">
        <ele>2367</ele>
        <time>2021-01-06T11:15:57.000Z</time>
      </trkpt>
      <trkpt lat="45.13629" lon="5.93313">
        <ele>2364.8000488281</ele>
        <time>2021-01-06T11:15:58.000Z</time>
      </trkpt>
      <trkpt lat="45.13625" lon="5.93308">
        <ele>2363</ele>
        <time>2021-01-06T11:15:59.000Z</time>
      </trkpt>
      <trkpt lat="45.13625" lon="5.93308">
        <ele>2361.6000976562</ele>
        <time>2021-01-06T11:16:00.000Z</time>
      </trkpt>
      <trkpt lat="45.13625" lon="5.93309">
        <ele>2360.1999511719</ele>
        <time>2021-01-06T11:16:01.000Z</time>
      </trkpt>
      <trkpt lat="45.13624" lon="5.93313">
        <ele>2358.3999023438</ele>
        <time>2021-01-06T11:16:02.000Z</time>
      </trkpt>
      <trkpt lat="45.13624" lon="5.93313">
        <ele>2356.1999511719</ele>
        <time>2021-01-06T11:16:03.000Z</time>
      </trkpt>
      <trkpt lat="45.13624" lon="5.93313">
        <ele>2353.6000976562</ele>
        <time>2021-01-06T11:16:04.000Z</time>
      </trkpt>
      <trkpt lat="45.13624" lon="5.93313">
        <ele>2351.6000976562</ele>
        <time>2021-01-06T11:16:05.000Z</time>
      </trkpt>
      <trkpt lat="45.13624" lon="5.93313">
        <ele>2350.1999511719</ele>
        <time>2021-01-06T11:16:06.000Z</time>
      </trkpt>
      <trkpt lat="45.13624" lon="5.93313">
        <ele>2349</ele>
        <time>2021-01-06T11:16:08.000Z</time>
      </trkpt>
      <trkpt lat="45.13624" lon="5.93313">
        <ele>2348.8000488281</ele>
        <time>2021-01-06T11:16:10.000Z</time>
      </trkpt>
      <trkpt lat="45.13624" lon="5.93313">
        <ele>2349</ele>
        <time>2021-01-06T11:16:20.000Z</time>
      </trkpt>
      <trkpt lat="45.13624" lon="5.93313">
        <ele>2349</ele>
        <time>2021-01-06T11:16:31.000Z</time>
      </trkpt>
      <trkpt lat="45.13624" lon="5.93314">
        <ele>2349.1999511719</ele>
        <time>2021-01-06T11:16:43.000Z</time>
      </trkpt>
      <trkpt lat="45.13624" lon="5.93314">
        <ele>2349.1999511719</ele>
        <time>2021-01-06T11:16:53.000Z</time>
      </trkpt>
      <trkpt lat="45.13624" lon="5.93314">
        <ele>2349</ele>
        <time>2021-01-06T11:17:08.000Z</time>
      </trkpt>
      <trkpt lat="45.13624" lon="5.93314">
        <ele>2349.1999511719</ele>
        <time>2021-01-06T11:17:16.000Z</time>
      </trkpt>
      <trkpt lat="45.13622" lon="5.93313">
        <ele>2349</ele>
        <time>2021-01-06T11:17:28.000Z</time>
      </trkpt>
      <trkpt lat="45.13623" lon="5.93313">
        <ele>2347.3999023438</ele>
        <time>2021-01-06T11:17:31.000Z</time>
      </trkpt>
      <trkpt lat="45.13623" lon="5.93312">
        <ele>2346</ele>
        <time>2021-01-06T11:17:32.000Z</time>
      </trkpt>
      <trkpt lat="45.13626" lon="5.93307">
        <ele>2344.1999511719</ele>
        <time>2021-01-06T11:17:33.000Z</time>
      </trkpt>
      <trkpt lat="45.13628" lon="5.93301">
        <ele>2342.1999511719</ele>
        <time>2021-01-06T11:17:34.000Z</time>
      </trkpt>
      <trkpt lat="45.13629" lon="5.93294">
        <ele>2339.8000488281</ele>
        <time>2021-01-06T11:17:35.000Z</time>
      </trkpt>
      <trkpt lat="45.13628" lon="5.93288">
        <ele>2337.6000976562</ele>
        <time>2021-01-06T11:17:36.000Z</time>
      </trkpt>
      <trkpt lat="45.13627" lon="5.9328">
        <ele>2336</ele>
        <time>2021-01-06T11:17:37.000Z</time>
      </trkpt>
      <trkpt lat="45.13625" lon="5.93272">
        <ele>2335</ele>
        <time>2021-01-06T11:17:38.000Z</time>
      </trkpt>
      <trkpt lat="45.13616" lon="5.93244">
        <ele>2333.8000488281</ele>
        <time>2021-01-06T11:17:41.000Z</time>
      </trkpt>
      <trkpt lat="45.13613" lon="5.93233">
        <ele>2333.1999511719</ele>
        <time>2021-01-06T11:17:43.000Z</time>
      </trkpt>
      <trkpt lat="45.13613" lon="5.93229">
        <ele>2332.6000976562</ele>
        <time>2021-01-06T11:17:44.000Z</time>
      </trkpt>
      <trkpt lat="45.13613" lon="5.93221">
        <ele>2331.3999023438</ele>
        <time>2021-01-06T11:17:46.000Z</time>
      </trkpt>
      <trkpt lat="45.13613" lon="5.93207">
        <ele>2330.1999511719</ele>
        <time>2021-01-06T11:17:49.000Z</time>
      </trkpt>
      <trkpt lat="45.13614" lon="5.93196">
        <ele>2329.1999511719</ele>
        <time>2021-01-06T11:17:51.000Z</time>
      </trkpt>
      <trkpt lat="45.13616" lon="5.93185">
        <ele>2327</ele>
        <time>2021-01-06T11:17:53.000Z</time>
      </trkpt>
      <trkpt lat="45.13615" lon="5.93179">
        <ele>2326.1999511719</ele>
        <time>2021-01-06T11:17:54.000Z</time>
      </trkpt>
      <trkpt lat="45.13614" lon="5.93173">
        <ele>2325.3999023438</ele>
        <time>2021-01-06T11:17:55.000Z</time>
      </trkpt>
      <trkpt lat="45.13607" lon="5.93155">
        <ele>2324</ele>
        <time>2021-01-06T11:17:57.000Z</time>
      </trkpt>
      <trkpt lat="45.13604" lon="5.93148">
        <ele>2323.6000976562</ele>
        <time>2021-01-06T11:17:58.000Z</time>
      </trkpt>
      <trkpt lat="45.136" lon="5.93137">
        <ele>2322.3999023438</ele>
        <time>2021-01-06T11:18:00.000Z</time>
      </trkpt>
      <trkpt lat="45.13598" lon="5.93137">
        <ele>2320.6000976562</ele>
        <time>2021-01-06T11:18:02.000Z</time>
      </trkpt>
      <trkpt lat="45.13597" lon="5.93135">
        <ele>2319.8000488281</ele>
        <time>2021-01-06T11:18:03.000Z</time>
      </trkpt>
      <trkpt lat="45.13595" lon="5.93132">
        <ele>2319.1999511719</ele>
        <time>2021-01-06T11:18:04.000Z</time>
      </trkpt>
      <trkpt lat="45.13591" lon="5.93125">
        <ele>2317.3999023438</ele>
        <time>2021-01-06T11:18:06.000Z</time>
      </trkpt>
      <trkpt lat="45.13586" lon="5.93121">
        <ele>2315.8000488281</ele>
        <time>2021-01-06T11:18:07.000Z</time>
      </trkpt>
      <trkpt lat="45.13587" lon="5.93112">
        <ele>2313.3999023438</ele>
        <time>2021-01-06T11:18:08.000Z</time>
      </trkpt>
      <trkpt lat="45.13583" lon="5.93103">
        <ele>2311</ele>
        <time>2021-01-06T11:18:09.000Z</time>
      </trkpt>
      <trkpt lat="45.13582" lon="5.93097">
        <ele>2308.8000488281</ele>
        <time>2021-01-06T11:18:10.000Z</time>
      </trkpt>
      <trkpt lat="45.1358" lon="5.93093">
        <ele>2307.1999511719</ele>
        <time>2021-01-06T11:18:11.000Z</time>
      </trkpt>
      <trkpt lat="45.13577" lon="5.93087">
        <ele>2306</ele>
        <time>2021-01-06T11:18:12.000Z</time>
      </trkpt>
      <trkpt lat="45.13576" lon="5.93081">
        <ele>2305</ele>
        <time>2021-01-06T11:18:14.000Z</time>
      </trkpt>
      <trkpt lat="45.13574" lon="5.93075">
        <ele>2303</ele>
        <time>2021-01-06T11:18:17.000Z</time>
      </trkpt>
      <trkpt lat="45.13572" lon="5.9307">
        <ele>2301</ele>
        <time>2021-01-06T11:18:19.000Z</time>
      </trkpt>
      <trkpt lat="45.13571" lon="5.93066">
        <ele>2300.1999511719</ele>
        <time>2021-01-06T11:18:20.000Z</time>
      </trkpt>
      <trkpt lat="45.13569" lon="5.93062">
        <ele>2299.3999023438</ele>
        <time>2021-01-06T11:18:21.000Z</time>
      </trkpt>
      <trkpt lat="45.13569" lon="5.93062">
        <ele>2298.8000488281</ele>
        <time>2021-01-06T11:18:28.000Z</time>
      </trkpt>
      <trkpt lat="45.13567" lon="5.93053">
        <ele>2298.3999023438</ele>
        <time>2021-01-06T11:18:33.000Z</time>
      </trkpt>
      <trkpt lat="45.13567" lon="5.93053">
        <ele>2297.3999023438</ele>
        <time>2021-01-06T11:18:35.000Z</time>
      </trkpt>
      <trkpt lat="45.13565" lon="5.9305">
        <ele>2296.8000488281</ele>
        <time>2021-01-06T11:18:36.000Z</time>
      </trkpt>
      <trkpt lat="45.13564" lon="5.93046">
        <ele>2294.8000488281</ele>
        <time>2021-01-06T11:18:38.000Z</time>
      </trkpt>
      <trkpt lat="45.13565" lon="5.93044">
        <ele>2293.6000976562</ele>
        <time>2021-01-06T11:18:39.000Z</time>
      </trkpt>
      <trkpt lat="45.13565" lon="5.93039">
        <ele>2292.6000976562</ele>
        <time>2021-01-06T11:18:40.000Z</time>
      </trkpt>
      <trkpt lat="45.13564" lon="5.93033">
        <ele>2290</ele>
        <time>2021-01-06T11:18:41.000Z</time>
      </trkpt>
      <trkpt lat="45.13564" lon="5.93031">
        <ele>2288.6000976562</ele>
        <time>2021-01-06T11:18:42.000Z</time>
      </trkpt>
      <trkpt lat="45.13565" lon="5.93028">
        <ele>2287</ele>
        <time>2021-01-06T11:18:43.000Z</time>
      </trkpt>
      <trkpt lat="45.13566" lon="5.93026">
        <ele>2285</ele>
        <time>2021-01-06T11:18:44.000Z</time>
      </trkpt>
      <trkpt lat="45.13565" lon="5.9302">
        <ele>2283.1999511719</ele>
        <time>2021-01-06T11:18:45.000Z</time>
      </trkpt>
      <trkpt lat="45.13564" lon="5.93016">
        <ele>2281.3999023438</ele>
        <time>2021-01-06T11:18:46.000Z</time>
      </trkpt>
      <trkpt lat="45.13562" lon="5.9301">
        <ele>2279.8000488281</ele>
        <time>2021-01-06T11:18:47.000Z</time>
      </trkpt>
      <trkpt lat="45.13562" lon="5.93008">
        <ele>2278.1999511719</ele>
        <time>2021-01-06T11:18:48.000Z</time>
      </trkpt>
      <trkpt lat="45.13561" lon="5.93005">
        <ele>2276.6000976562</ele>
        <time>2021-01-06T11:18:49.000Z</time>
      </trkpt>
      <trkpt lat="45.13561" lon="5.93003">
        <ele>2275</ele>
        <time>2021-01-06T11:18:50.000Z</time>
      </trkpt>
      <trkpt lat="45.13561" lon="5.92999">
        <ele>2273.1999511719</ele>
        <time>2021-01-06T11:18:51.000Z</time>
      </trkpt>
      <trkpt lat="45.13561" lon="5.92995">
        <ele>2271.6000976562</ele>
        <time>2021-01-06T11:18:52.000Z</time>
      </trkpt>
      <trkpt lat="45.13561" lon="5.9299">
        <ele>2270.1999511719</ele>
        <time>2021-01-06T11:18:53.000Z</time>
      </trkpt>
      <trkpt lat="45.13561" lon="5.92985">
        <ele>2268.8000488281</ele>
        <time>2021-01-06T11:18:54.000Z</time>
      </trkpt>
      <trkpt lat="45.1356" lon="5.92979">
        <ele>2267.3999023438</ele>
        <time>2021-01-06T11:18:55.000Z</time>
      </trkpt>
      <trkpt lat="45.13559" lon="5.92974">
        <ele>2265.3999023438</ele>
        <time>2021-01-06T11:18:56.000Z</time>
      </trkpt>
      <trkpt lat="45.13557" lon="5.92969">
        <ele>2263.3999023438</ele>
        <time>2021-01-06T11:18:57.000Z</time>
      </trkpt>
      <trkpt lat="45.13557" lon="5.92964">
        <ele>2261.1999511719</ele>
        <time>2021-01-06T11:18:58.000Z</time>
      </trkpt>
      <trkpt lat="45.13557" lon="5.92964">
        <ele>2259.1999511719</ele>
        <time>2021-01-06T11:18:59.000Z</time>
      </trkpt>
      <trkpt lat="45.13559" lon="5.92958">
        <ele>2257.6000976562</ele>
        <time>2021-01-06T11:19:00.000Z</time>
      </trkpt>
      <trkpt lat="45.13562" lon="5.9295">
        <ele>2256.3999023438</ele>
        <time>2021-01-06T11:19:01.000Z</time>
      </trkpt>
      <trkpt lat="45.13566" lon="5.92942">
        <ele>2255.3999023438</ele>
        <time>2021-01-06T11:19:02.000Z</time>
      </trkpt>
      <trkpt lat="45.13569" lon="5.92934">
        <ele>2254</ele>
        <time>2021-01-06T11:19:03.000Z</time>
      </trkpt>
      <trkpt lat="45.13572" lon="5.92925">
        <ele>2252.1999511719</ele>
        <time>2021-01-06T11:19:04.000Z</time>
      </trkpt>
      <trkpt lat="45.13575" lon="5.92915">
        <ele>2247.1999511719</ele>
        <time>2021-01-06T11:19:05.000Z</time>
      </trkpt>
      <trkpt lat="45.13578" lon="5.92905">
        <ele>2244.6000976562</ele>
        <time>2021-01-06T11:19:06.000Z</time>
      </trkpt>
      <trkpt lat="45.1358" lon="5.92895">
        <ele>2242.1999511719</ele>
        <time>2021-01-06T11:19:07.000Z</time>
      </trkpt>
      <trkpt lat="45.13582" lon="5.92888">
        <ele>2239.8000488281</ele>
        <time>2021-01-06T11:19:08.000Z</time>
      </trkpt>
      <trkpt lat="45.13583" lon="5.92881">
        <ele>2237.3999023438</ele>
        <time>2021-01-06T11:19:09.000Z</time>
      </trkpt>
      <trkpt lat="45.13583" lon="5.92875">
        <ele>2235</ele>
        <time>2021-01-06T11:19:10.000Z</time>
      </trkpt>
      <trkpt lat="45.13582" lon="5.92868">
        <ele>2233</ele>
        <time>2021-01-06T11:19:11.000Z</time>
      </trkpt>
      <trkpt lat="45.13581" lon="5.92861">
        <ele>2231.3999023438</ele>
        <time>2021-01-06T11:19:12.000Z</time>
      </trkpt>
      <trkpt lat="45.13581" lon="5.92858">
        <ele>2230.3999023438</ele>
        <time>2021-01-06T11:19:13.000Z</time>
      </trkpt>
      <trkpt lat="45.13584" lon="5.92844">
        <ele>2229</ele>
        <time>2021-01-06T11:19:15.000Z</time>
      </trkpt>
      <trkpt lat="45.13591" lon="5.92831">
        <ele>2227.3999023438</ele>
        <time>2021-01-06T11:19:17.000Z</time>
      </trkpt>
      <trkpt lat="45.13593" lon="5.92827">
        <ele>2226.1999511719</ele>
        <time>2021-01-06T11:19:18.000Z</time>
      </trkpt>
      <trkpt lat="45.13595" lon="5.92823">
        <ele>2224.8000488281</ele>
        <time>2021-01-06T11:19:19.000Z</time>
      </trkpt>
      <trkpt lat="45.13596" lon="5.9282">
        <ele>2223.3999023438</ele>
        <time>2021-01-06T11:19:20.000Z</time>
      </trkpt>
      <trkpt lat="45.13598" lon="5.92817">
        <ele>2222.1999511719</ele>
        <time>2021-01-06T11:19:21.000Z</time>
      </trkpt>
      <trkpt lat="45.13599" lon="5.92812">
        <ele>2221</ele>
        <time>2021-01-06T11:19:22.000Z</time>
      </trkpt>
      <trkpt lat="45.13601" lon="5.92809">
        <ele>2219.6000976562</ele>
        <time>2021-01-06T11:19:23.000Z</time>
      </trkpt>
      <trkpt lat="45.13603" lon="5.92807">
        <ele>2218</ele>
        <time>2021-01-06T11:19:24.000Z</time>
      </trkpt>
      <trkpt lat="45.13607" lon="5.92805">
        <ele>2216.3999023438</ele>
        <time>2021-01-06T11:19:25.000Z</time>
      </trkpt>
      <trkpt lat="45.1361" lon="5.92799">
        <ele>2214.8000488281</ele>
        <time>2021-01-06T11:19:26.000Z</time>
      </trkpt>
      <trkpt lat="45.13613" lon="5.92791">
        <ele>2213</ele>
        <time>2021-01-06T11:19:27.000Z</time>
      </trkpt>
      <trkpt lat="45.13615" lon="5.92783">
        <ele>2210.8000488281</ele>
        <time>2021-01-06T11:19:28.000Z</time>
      </trkpt>
      <trkpt lat="45.13617" lon="5.92775">
        <ele>2208</ele>
        <time>2021-01-06T11:19:29.000Z</time>
      </trkpt>
      <trkpt lat="45.13619" lon="5.92768">
        <ele>2202.3999023438</ele>
        <time>2021-01-06T11:19:30.000Z</time>
      </trkpt>
      <trkpt lat="45.1362" lon="5.9276">
        <ele>2199.8000488281</ele>
        <time>2021-01-06T11:19:31.000Z</time>
      </trkpt>
      <trkpt lat="45.13621" lon="5.92752">
        <ele>2197.3999023438</ele>
        <time>2021-01-06T11:19:32.000Z</time>
      </trkpt>
      <trkpt lat="45.13623" lon="5.92742">
        <ele>2194.8000488281</ele>
        <time>2021-01-06T11:19:33.000Z</time>
      </trkpt>
      <trkpt lat="45.13624" lon="5.92733">
        <ele>2192</ele>
        <time>2021-01-06T11:19:34.000Z</time>
      </trkpt>
      <trkpt lat="45.13626" lon="5.92723">
        <ele>2189.3999023438</ele>
        <time>2021-01-06T11:19:35.000Z</time>
      </trkpt>
      <trkpt lat="45.13627" lon="5.92715">
        <ele>2187</ele>
        <time>2021-01-06T11:19:36.000Z</time>
      </trkpt>
      <trkpt lat="45.13628" lon="5.92705">
        <ele>2185</ele>
        <time>2021-01-06T11:19:37.000Z</time>
      </trkpt>
      <trkpt lat="45.13628" lon="5.92696">
        <ele>2183.3999023438</ele>
        <time>2021-01-06T11:19:38.000Z</time>
      </trkpt>
      <trkpt lat="45.13627" lon="5.9269">
        <ele>2181.8000488281</ele>
        <time>2021-01-06T11:19:39.000Z</time>
      </trkpt>
      <trkpt lat="45.13626" lon="5.92683">
        <ele>2180.1999511719</ele>
        <time>2021-01-06T11:19:40.000Z</time>
      </trkpt>
      <trkpt lat="45.13625" lon="5.92675">
        <ele>2178.6000976562</ele>
        <time>2021-01-06T11:19:41.000Z</time>
      </trkpt>
      <trkpt lat="45.13623" lon="5.92667">
        <ele>2176.8000488281</ele>
        <time>2021-01-06T11:19:42.000Z</time>
      </trkpt>
      <trkpt lat="45.13623" lon="5.92658">
        <ele>2175.1999511719</ele>
        <time>2021-01-06T11:19:43.000Z</time>
      </trkpt>
      <trkpt lat="45.13623" lon="5.92646">
        <ele>2173.6000976562</ele>
        <time>2021-01-06T11:19:44.000Z</time>
      </trkpt>
      <trkpt lat="45.13624" lon="5.92636">
        <ele>2171.8000488281</ele>
        <time>2021-01-06T11:19:45.000Z</time>
      </trkpt>
      <trkpt lat="45.13625" lon="5.92629">
        <ele>2169.6000976562</ele>
        <time>2021-01-06T11:19:46.000Z</time>
      </trkpt>
      <trkpt lat="45.13626" lon="5.92622">
        <ele>2167.6000976562</ele>
        <time>2021-01-06T11:19:47.000Z</time>
      </trkpt>
      <trkpt lat="45.13628" lon="5.92615">
        <ele>2165.6000976562</ele>
        <time>2021-01-06T11:19:48.000Z</time>
      </trkpt>
      <trkpt lat="45.13629" lon="5.92609">
        <ele>2164.1999511719</ele>
        <time>2021-01-06T11:19:49.000Z</time>
      </trkpt>
      <trkpt lat="45.13629" lon="5.92601">
        <ele>2163.1999511719</ele>
        <time>2021-01-06T11:19:50.000Z</time>
      </trkpt>
      <trkpt lat="45.1363" lon="5.9259">
        <ele>2162.1999511719</ele>
        <time>2021-01-06T11:19:51.000Z</time>
      </trkpt>
      <trkpt lat="45.13631" lon="5.92579">
        <ele>2160.8000488281</ele>
        <time>2021-01-06T11:19:52.000Z</time>
      </trkpt>
      <trkpt lat="45.1363" lon="5.9257">
        <ele>2159</ele>
        <time>2021-01-06T11:19:53.000Z</time>
      </trkpt>
      <trkpt lat="45.13629" lon="5.92562">
        <ele>2154.8000488281</ele>
        <time>2021-01-06T11:19:54.000Z</time>
      </trkpt>
      <trkpt lat="45.13626" lon="5.92553">
        <ele>2152.6000976562</ele>
        <time>2021-01-06T11:19:55.000Z</time>
      </trkpt>
      <trkpt lat="45.13622" lon="5.92544">
        <ele>2150.6000976562</ele>
        <time>2021-01-06T11:19:56.000Z</time>
      </trkpt>
      <trkpt lat="45.13619" lon="5.92535">
        <ele>2148.6000976562</ele>
        <time>2021-01-06T11:19:57.000Z</time>
      </trkpt>
      <trkpt lat="45.13615" lon="5.92527">
        <ele>2146.8000488281</ele>
        <time>2021-01-06T11:19:58.000Z</time>
      </trkpt>
      <trkpt lat="45.13613" lon="5.92523">
        <ele>2145.6000976562</ele>
        <time>2021-01-06T11:19:59.000Z</time>
      </trkpt>
      <trkpt lat="45.13592" lon="5.92485">
        <ele>2145</ele>
        <time>2021-01-06T11:20:04.000Z</time>
      </trkpt>
      <trkpt lat="45.1358" lon="5.92473">
        <ele>2144.6000976562</ele>
        <time>2021-01-06T11:20:10.000Z</time>
      </trkpt>
      <trkpt lat="45.13577" lon="5.92467">
        <ele>2144</ele>
        <time>2021-01-06T11:20:19.000Z</time>
      </trkpt>
      <trkpt lat="45.13575" lon="5.92463">
        <ele>2144</ele>
        <time>2021-01-06T11:20:20.000Z</time>
      </trkpt>
      <trkpt lat="45.13573" lon="5.92459">
        <ele>2143.3999023438</ele>
        <time>2021-01-06T11:20:22.000Z</time>
      </trkpt>
      <trkpt lat="45.1357" lon="5.92454">
        <ele>2142.1999511719</ele>
        <time>2021-01-06T11:20:24.000Z</time>
      </trkpt>
      <trkpt lat="45.13568" lon="5.92451">
        <ele>2141.1999511719</ele>
        <time>2021-01-06T11:20:25.000Z</time>
      </trkpt>
      <trkpt lat="45.13567" lon="5.92449">
        <ele>2139.6000976562</ele>
        <time>2021-01-06T11:20:26.000Z</time>
      </trkpt>
      <trkpt lat="45.13566" lon="5.92446">
        <ele>2138.1999511719</ele>
        <time>2021-01-06T11:20:27.000Z</time>
      </trkpt>
      <trkpt lat="45.13565" lon="5.92444">
        <ele>2136.8000488281</ele>
        <time>2021-01-06T11:20:28.000Z</time>
      </trkpt>
      <trkpt lat="45.13564" lon="5.92442">
        <ele>2135.3999023438</ele>
        <time>2021-01-06T11:20:29.000Z</time>
      </trkpt>
      <trkpt lat="45.13564" lon="5.9244">
        <ele>2134.1999511719</ele>
        <time>2021-01-06T11:20:30.000Z</time>
      </trkpt>
      <trkpt lat="45.13565" lon="5.92438">
        <ele>2132.8000488281</ele>
        <time>2021-01-06T11:20:31.000Z</time>
      </trkpt>
      <trkpt lat="45.13566" lon="5.92436">
        <ele>2131.1999511719</ele>
        <time>2021-01-06T11:20:32.000Z</time>
      </trkpt>
      <trkpt lat="45.13564" lon="5.92434">
        <ele>2130</ele>
        <time>2021-01-06T11:20:33.000Z</time>
      </trkpt>
      <trkpt lat="45.13562" lon="5.92432">
        <ele>2128.6000976562</ele>
        <time>2021-01-06T11:20:34.000Z</time>
      </trkpt>
      <trkpt lat="45.13559" lon="5.92427">
        <ele>2127</ele>
        <time>2021-01-06T11:20:36.000Z</time>
      </trkpt>
      <trkpt lat="45.13558" lon="5.92424">
        <ele>2126.6000976562</ele>
        <time>2021-01-06T11:20:37.000Z</time>
      </trkpt>
      <trkpt lat="45.13551" lon="5.92412">
        <ele>2125.8000488281</ele>
        <time>2021-01-06T11:20:40.000Z</time>
      </trkpt>
      <trkpt lat="45.13548" lon="5.92407">
        <ele>2123.1999511719</ele>
        <time>2021-01-06T11:20:42.000Z</time>
      </trkpt>
      <trkpt lat="45.13546" lon="5.92406">
        <ele>2122.1999511719</ele>
        <time>2021-01-06T11:20:43.000Z</time>
      </trkpt>
      <trkpt lat="45.13544" lon="5.92402">
        <ele>2120.1999511719</ele>
        <time>2021-01-06T11:20:45.000Z</time>
      </trkpt>
      <trkpt lat="45.13541" lon="5.92398">
        <ele>2118.1999511719</ele>
        <time>2021-01-06T11:20:47.000Z</time>
      </trkpt>
      <trkpt lat="45.13539" lon="5.92396">
        <ele>2117</ele>
        <time>2021-01-06T11:20:48.000Z</time>
      </trkpt>
      <trkpt lat="45.13538" lon="5.92395">
        <ele>2116</ele>
        <time>2021-01-06T11:20:49.000Z</time>
      </trkpt>
      <trkpt lat="45.13537" lon="5.92392">
        <ele>2114.1999511719</ele>
        <time>2021-01-06T11:20:51.000Z</time>
      </trkpt>
      <trkpt lat="45.13536" lon="5.92391">
        <ele>2113.3999023438</ele>
        <time>2021-01-06T11:20:52.000Z</time>
      </trkpt>
      <trkpt lat="45.13535" lon="5.9239">
        <ele>2112.3999023438</ele>
        <time>2021-01-06T11:20:53.000Z</time>
      </trkpt>
      <trkpt lat="45.13532" lon="5.92388">
        <ele>2110.8000488281</ele>
        <time>2021-01-06T11:20:55.000Z</time>
      </trkpt>
      <trkpt lat="45.13529" lon="5.92385">
        <ele>2109.6000976562</ele>
        <time>2021-01-06T11:20:57.000Z</time>
      </trkpt>
      <trkpt lat="45.13526" lon="5.92379">
        <ele>2107.8000488281</ele>
        <time>2021-01-06T11:21:00.000Z</time>
      </trkpt>
      <trkpt lat="45.13525" lon="5.92378">
        <ele>2106.6000976562</ele>
        <time>2021-01-06T11:21:01.000Z</time>
      </trkpt>
      <trkpt lat="45.13524" lon="5.92376">
        <ele>2105.3999023438</ele>
        <time>2021-01-06T11:21:02.000Z</time>
      </trkpt>
      <trkpt lat="45.13523" lon="5.92374">
        <ele>2104.3999023438</ele>
        <time>2021-01-06T11:21:03.000Z</time>
      </trkpt>
      <trkpt lat="45.13522" lon="5.9237">
        <ele>2103</ele>
        <time>2021-01-06T11:21:05.000Z</time>
      </trkpt>
      <trkpt lat="45.13522" lon="5.92363">
        <ele>2102.1999511719</ele>
        <time>2021-01-06T11:21:07.000Z</time>
      </trkpt>
      <trkpt lat="45.13521" lon="5.9236">
        <ele>2102</ele>
        <time>2021-01-06T11:21:08.000Z</time>
      </trkpt>
      <trkpt lat="45.1352" lon="5.92356">
        <ele>2100.6000976562</ele>
        <time>2021-01-06T11:21:11.000Z</time>
      </trkpt>
      <trkpt lat="45.13517" lon="5.92352">
        <ele>2099.1999511719</ele>
        <time>2021-01-06T11:21:13.000Z</time>
      </trkpt>
      <trkpt lat="45.13517" lon="5.92346">
        <ele>2098</ele>
        <time>2021-01-06T11:21:15.000Z</time>
      </trkpt>
      <trkpt lat="45.13517" lon="5.9234">
        <ele>2096.6000976562</ele>
        <time>2021-01-06T11:21:18.000Z</time>
      </trkpt>
      <trkpt lat="45.13516" lon="5.92337">
        <ele>2095.1999511719</ele>
        <time>2021-01-06T11:21:20.000Z</time>
      </trkpt>
      <trkpt lat="45.13515" lon="5.92332">
        <ele>2093.1999511719</ele>
        <time>2021-01-06T11:21:22.000Z</time>
      </trkpt>
      <trkpt lat="45.13514" lon="5.92329">
        <ele>2092</ele>
        <time>2021-01-06T11:21:23.000Z</time>
      </trkpt>
      <trkpt lat="45.13514" lon="5.92327">
        <ele>2091</ele>
        <time>2021-01-06T11:21:24.000Z</time>
      </trkpt>
      <trkpt lat="45.13514" lon="5.92324">
        <ele>2090</ele>
        <time>2021-01-06T11:21:25.000Z</time>
      </trkpt>
      <trkpt lat="45.13514" lon="5.92323">
        <ele>2088</ele>
        <time>2021-01-06T11:21:27.000Z</time>
      </trkpt>
      <trkpt lat="45.13515" lon="5.92322">
        <ele>2086.1999511719</ele>
        <time>2021-01-06T11:21:29.000Z</time>
      </trkpt>
      <trkpt lat="45.13515" lon="5.92321">
        <ele>2084.6000976562</ele>
        <time>2021-01-06T11:21:30.000Z</time>
      </trkpt>
      <trkpt lat="45.13515" lon="5.92321">
        <ele>2083.6000976562</ele>
        <time>2021-01-06T11:21:32.000Z</time>
      </trkpt>
      <trkpt lat="45.13515" lon="5.92321">
        <ele>2083</ele>
        <time>2021-01-06T11:21:37.000Z</time>
      </trkpt>
      <trkpt lat="45.13513" lon="5.92315">
        <ele>2082.3999023438</ele>
        <time>2021-01-06T11:21:42.000Z</time>
      </trkpt>
      <trkpt lat="45.13511" lon="5.92311">
        <ele>2080.8000488281</ele>
        <time>2021-01-06T11:21:45.000Z</time>
      </trkpt>
      <trkpt lat="45.1351" lon="5.92307">
        <ele>2079.1999511719</ele>
        <time>2021-01-06T11:21:47.000Z</time>
      </trkpt>
      <trkpt lat="45.13511" lon="5.92301">
        <ele>2077.3999023438</ele>
        <time>2021-01-06T11:21:49.000Z</time>
      </trkpt>
      <trkpt lat="45.1351" lon="5.92297">
        <ele>2075.3999023438</ele>
        <time>2021-01-06T11:21:51.000Z</time>
      </trkpt>
      <trkpt lat="45.13509" lon="5.92295">
        <ele>2074.3999023438</ele>
        <time>2021-01-06T11:21:52.000Z</time>
      </trkpt>
      <trkpt lat="45.13509" lon="5.92293">
        <ele>2073.3999023438</ele>
        <time>2021-01-06T11:21:53.000Z</time>
      </trkpt>
      <trkpt lat="45.13508" lon="5.92291">
        <ele>2072.1999511719</ele>
        <time>2021-01-06T11:21:54.000Z</time>
      </trkpt>
      <trkpt lat="45.13507" lon="5.9229">
        <ele>2071.1999511719</ele>
        <time>2021-01-06T11:21:56.000Z</time>
      </trkpt>
      <trkpt lat="45.13507" lon="5.92288">
        <ele>2069.3999023438</ele>
        <time>2021-01-06T11:21:58.000Z</time>
      </trkpt>
      <trkpt lat="45.13506" lon="5.92285">
        <ele>2067.8000488281</ele>
        <time>2021-01-06T11:22:00.000Z</time>
      </trkpt>
      <trkpt lat="45.13506" lon="5.92285">
        <ele>2066.6000976562</ele>
        <time>2021-01-06T11:22:02.000Z</time>
      </trkpt>
      <trkpt lat="45.13505" lon="5.92284">
        <ele>2065</ele>
        <time>2021-01-06T11:22:04.000Z</time>
      </trkpt>
      <trkpt lat="45.13504" lon="5.92284">
        <ele>2064</ele>
        <time>2021-01-06T11:22:05.000Z</time>
      </trkpt>
      <trkpt lat="45.13503" lon="5.92283">
        <ele>2062.8000488281</ele>
        <time>2021-01-06T11:22:06.000Z</time>
      </trkpt>
      <trkpt lat="45.13506" lon="5.9228">
        <ele>2061.1999511719</ele>
        <time>2021-01-06T11:22:08.000Z</time>
      </trkpt>
      <trkpt lat="45.13508" lon="5.92278">
        <ele>2060</ele>
        <time>2021-01-06T11:22:10.000Z</time>
      </trkpt>
      <trkpt lat="45.13508" lon="5.92277">
        <ele>2059.1999511719</ele>
        <time>2021-01-06T11:22:11.000Z</time>
      </trkpt>
      <trkpt lat="45.13507" lon="5.92276">
        <ele>2058.3999023438</ele>
        <time>2021-01-06T11:22:12.000Z</time>
      </trkpt>
      <trkpt lat="45.13508" lon="5.92274">
        <ele>2057.3999023438</ele>
        <time>2021-01-06T11:22:13.000Z</time>
      </trkpt>
      <trkpt lat="45.13509" lon="5.92272">
        <ele>2056.1999511719</ele>
        <time>2021-01-06T11:22:14.000Z</time>
      </trkpt>
      <trkpt lat="45.13512" lon="5.92271">
        <ele>2054.8000488281</ele>
        <time>2021-01-06T11:22:15.000Z</time>
      </trkpt>
      <trkpt lat="45.13514" lon="5.9227">
        <ele>2053.3999023438</ele>
        <time>2021-01-06T11:22:16.000Z</time>
      </trkpt>
      <trkpt lat="45.13516" lon="5.92269">
        <ele>2052.1999511719</ele>
        <time>2021-01-06T11:22:17.000Z</time>
      </trkpt>
      <trkpt lat="45.13517" lon="5.92267">
        <ele>2049.6000976562</ele>
        <time>2021-01-06T11:22:18.000Z</time>
      </trkpt>
      <trkpt lat="45.13516" lon="5.92264">
        <ele>2047.8000488281</ele>
        <time>2021-01-06T11:22:20.000Z</time>
      </trkpt>
      <trkpt lat="45.13516" lon="5.92261">
        <ele>2046.1999511719</ele>
        <time>2021-01-06T11:22:22.000Z</time>
      </trkpt>
      <trkpt lat="45.13517" lon="5.92261">
        <ele>2045</ele>
        <time>2021-01-06T11:22:23.000Z</time>
      </trkpt>
      <trkpt lat="45.13518" lon="5.9226">
        <ele>2044</ele>
        <time>2021-01-06T11:22:24.000Z</time>
      </trkpt>
      <trkpt lat="45.13519" lon="5.92259">
        <ele>2043</ele>
        <time>2021-01-06T11:22:25.000Z</time>
      </trkpt>
      <trkpt lat="45.13518" lon="5.92258">
        <ele>2041.1999511719</ele>
        <time>2021-01-06T11:22:27.000Z</time>
      </trkpt>
      <trkpt lat="45.13518" lon="5.92257">
        <ele>2040.4000244141</ele>
        <time>2021-01-06T11:22:28.000Z</time>
      </trkpt>
      <trkpt lat="45.13517" lon="5.92256">
        <ele>2039.5999755859</ele>
        <time>2021-01-06T11:22:29.000Z</time>
      </trkpt>
      <trkpt lat="45.13514" lon="5.92255">
        <ele>2037.5999755859</ele>
        <time>2021-01-06T11:22:31.000Z</time>
      </trkpt>
      <trkpt lat="45.13512" lon="5.92254">
        <ele>2036.5999755859</ele>
        <time>2021-01-06T11:22:32.000Z</time>
      </trkpt>
      <trkpt lat="45.13509" lon="5.92252">
        <ele>2035.1999511719</ele>
        <time>2021-01-06T11:22:34.000Z</time>
      </trkpt>
      <trkpt lat="45.13504" lon="5.92249">
        <ele>2034</ele>
        <time>2021-01-06T11:22:37.000Z</time>
      </trkpt>
      <trkpt lat="45.135" lon="5.92247">
        <ele>2032.4000244141</ele>
        <time>2021-01-06T11:22:39.000Z</time>
      </trkpt>
      <trkpt lat="45.13499" lon="5.92246">
        <ele>2031.1999511719</ele>
        <time>2021-01-06T11:22:40.000Z</time>
      </trkpt>
      <trkpt lat="45.13499" lon="5.92244">
        <ele>2030.1999511719</ele>
        <time>2021-01-06T11:22:41.000Z</time>
      </trkpt>
      <trkpt lat="45.13498" lon="5.92241">
        <ele>2028.4000244141</ele>
        <time>2021-01-06T11:22:42.000Z</time>
      </trkpt>
      <trkpt lat="45.13497" lon="5.92238">
        <ele>2027.4000244141</ele>
        <time>2021-01-06T11:22:43.000Z</time>
      </trkpt>
      <trkpt lat="45.13496" lon="5.92233">
        <ele>2026</ele>
        <time>2021-01-06T11:22:44.000Z</time>
      </trkpt>
      <trkpt lat="45.13495" lon="5.92229">
        <ele>2024.1999511719</ele>
        <time>2021-01-06T11:22:45.000Z</time>
      </trkpt>
      <trkpt lat="45.13495" lon="5.92227">
        <ele>2022.4000244141</ele>
        <time>2021-01-06T11:22:46.000Z</time>
      </trkpt>
      <trkpt lat="45.13495" lon="5.92224">
        <ele>2020.4000244141</ele>
        <time>2021-01-06T11:22:47.000Z</time>
      </trkpt>
      <trkpt lat="45.13494" lon="5.92223">
        <ele>2018.5999755859</ele>
        <time>2021-01-06T11:22:48.000Z</time>
      </trkpt>
      <trkpt lat="45.13492" lon="5.92221">
        <ele>2017</ele>
        <time>2021-01-06T11:22:49.000Z</time>
      </trkpt>
      <trkpt lat="45.13491" lon="5.9222">
        <ele>2015.1999511719</ele>
        <time>2021-01-06T11:22:50.000Z</time>
      </trkpt>
      <trkpt lat="45.13489" lon="5.92217">
        <ele>2013.1999511719</ele>
        <time>2021-01-06T11:22:51.000Z</time>
      </trkpt>
      <trkpt lat="45.13487" lon="5.92215">
        <ele>2011.1999511719</ele>
        <time>2021-01-06T11:22:52.000Z</time>
      </trkpt>
      <trkpt lat="45.13487" lon="5.92215">
        <ele>2009.5999755859</ele>
        <time>2021-01-06T11:22:53.000Z</time>
      </trkpt>
      <trkpt lat="45.13487" lon="5.92215">
        <ele>2008</ele>
        <time>2021-01-06T11:22:55.000Z</time>
      </trkpt>
      <trkpt lat="45.13487" lon="5.92213">
        <ele>2008</ele>
        <time>2021-01-06T11:23:11.000Z</time>
      </trkpt>
      <trkpt lat="45.13487" lon="5.92205">
        <ele>2007</ele>
        <time>2021-01-06T11:23:14.000Z</time>
      </trkpt>
      <trkpt lat="45.13489" lon="5.922">
        <ele>2004.5999755859</ele>
        <time>2021-01-06T11:23:16.000Z</time>
      </trkpt>
      <trkpt lat="45.13489" lon="5.92199">
        <ele>2002.5999755859</ele>
        <time>2021-01-06T11:23:17.000Z</time>
      </trkpt>
      <trkpt lat="45.13489" lon="5.92198">
        <ele>2000</ele>
        <time>2021-01-06T11:23:18.000Z</time>
      </trkpt>
      <trkpt lat="45.13489" lon="5.92198">
        <ele>1997.1999511719</ele>
        <time>2021-01-06T11:23:19.000Z</time>
      </trkpt>
      <trkpt lat="45.13489" lon="5.92199">
        <ele>1994</ele>
        <time>2021-01-06T11:23:20.000Z</time>
      </trkpt>
      <trkpt lat="45.13488" lon="5.92199">
        <ele>1991</ele>
        <time>2021-01-06T11:23:21.000Z</time>
      </trkpt>
      <trkpt lat="45.13486" lon="5.92198">
        <ele>1988.5999755859</ele>
        <time>2021-01-06T11:23:22.000Z</time>
      </trkpt>
      <trkpt lat="45.13475" lon="5.92191">
        <ele>1987</ele>
        <time>2021-01-06T11:23:23.000Z</time>
      </trkpt>
      <trkpt lat="45.1347" lon="5.92188">
        <ele>1985.8000488281</ele>
        <time>2021-01-06T11:23:24.000Z</time>
      </trkpt>
      <trkpt lat="45.13456" lon="5.9218">
        <ele>1984.5999755859</ele>
        <time>2021-01-06T11:23:26.000Z</time>
      </trkpt>
      <trkpt lat="45.13427" lon="5.92163">
        <ele>1984.4000244141</ele>
        <time>2021-01-06T11:23:30.000Z</time>
      </trkpt>
      <trkpt lat="45.13398" lon="5.92137">
        <ele>1983.4000244141</ele>
        <time>2021-01-06T11:23:39.000Z</time>
      </trkpt>
      <trkpt lat="45.13393" lon="5.92129">
        <ele>1982.1999511719</ele>
        <time>2021-01-06T11:23:42.000Z</time>
      </trkpt>
      <trkpt lat="45.13386" lon="5.92122">
        <ele>1981.1999511719</ele>
        <time>2021-01-06T11:23:44.000Z</time>
      </trkpt>
      <trkpt lat="45.13382" lon="5.92121">
        <ele>1981</ele>
        <time>2021-01-06T11:23:45.000Z</time>
      </trkpt>
      <trkpt lat="45.13371" lon="5.92113">
        <ele>1982.1999511719</ele>
        <time>2021-01-06T11:23:54.000Z</time>
      </trkpt>
      <trkpt lat="45.1337" lon="5.9211">
        <ele>1982.4000244141</ele>
        <time>2021-01-06T11:23:55.000Z</time>
      </trkpt>
      <trkpt lat="45.13359" lon="5.92098">
        <ele>1983.1999511719</ele>
        <time>2021-01-06T11:24:05.000Z</time>
      </trkpt>
      <trkpt lat="45.13346" lon="5.92087">
        <ele>1983.5999755859</ele>
        <time>2021-01-06T11:24:14.000Z</time>
      </trkpt>
      <trkpt lat="45.13345" lon="5.92086">
        <ele>1984</ele>
        <time>2021-01-06T11:24:23.000Z</time>
      </trkpt>
      <trkpt lat="45.13345" lon="5.92086">
        <ele>1984.4000244141</ele>
        <time>2021-01-06T11:24:29.000Z</time>
      </trkpt>
      <trkpt lat="45.13341" lon="5.92083">
        <ele>1984.5999755859</ele>
        <time>2021-01-06T11:24:33.000Z</time>
      </trkpt>
      <trkpt lat="45.13341" lon="5.92083">
        <ele>1984.8000488281</ele>
        <time>2021-01-06T11:24:43.000Z</time>
      </trkpt>
      <trkpt lat="45.13332" lon="5.92076">
        <ele>1985</ele>
        <time>2021-01-06T11:24:52.000Z</time>
      </trkpt>
      <trkpt lat="45.13332" lon="5.92076">
        <ele>1985.4000244141</ele>
        <time>2021-01-06T11:25:02.000Z</time>
      </trkpt>
      <trkpt lat="45.13332" lon="5.92076">
        <ele>1985.4000244141</ele>
        <time>2021-01-06T11:25:05.000Z</time>
      </trkpt>
      <trkpt lat="45.13332" lon="5.92076">
        <ele>1985.4000244141</ele>
        <time>2021-01-06T11:25:21.000Z</time>
      </trkpt>
      <trkpt lat="45.13327" lon="5.92072">
        <ele>1985.1999511719</ele>
        <time>2021-01-06T11:25:33.000Z</time>
      </trkpt>
      <trkpt lat="45.13319" lon="5.92069">
        <ele>1985.5999755859</ele>
        <time>2021-01-06T11:25:44.000Z</time>
      </trkpt>
      <trkpt lat="45.13319" lon="5.92069">
        <ele>1986.1999511719</ele>
        <time>2021-01-06T11:25:55.000Z</time>
      </trkpt>
      <trkpt lat="45.13314" lon="5.92063">
        <ele>1986.4000244141</ele>
        <time>2021-01-06T11:26:00.000Z</time>
      </trkpt>
      <trkpt lat="45.13311" lon="5.92062">
        <ele>1986.5999755859</ele>
        <time>2021-01-06T11:26:05.000Z</time>
      </trkpt>
      <trkpt lat="45.13305" lon="5.92059">
        <ele>1987.4000244141</ele>
        <time>2021-01-06T11:26:13.000Z</time>
      </trkpt>
      <trkpt lat="45.13303" lon="5.92058">
        <ele>1987.4000244141</ele>
        <time>2021-01-06T11:26:20.000Z</time>
      </trkpt>
      <trkpt lat="45.13301" lon="5.92057">
        <ele>1987.5999755859</ele>
        <time>2021-01-06T11:26:23.000Z</time>
      </trkpt>
      <trkpt lat="45.13294" lon="5.92051">
        <ele>1988.1999511719</ele>
        <time>2021-01-06T11:26:33.000Z</time>
      </trkpt>
      <trkpt lat="45.13291" lon="5.92049">
        <ele>1988.5999755859</ele>
        <time>2021-01-06T11:26:39.000Z</time>
      </trkpt>
      <trkpt lat="45.13289" lon="5.92048">
        <ele>1988.8000488281</ele>
        <time>2021-01-06T11:26:43.000Z</time>
      </trkpt>
      <trkpt lat="45.13284" lon="5.92043">
        <ele>1989.5999755859</ele>
        <time>2021-01-06T11:26:52.000Z</time>
      </trkpt>
      <trkpt lat="45.13282" lon="5.92041">
        <ele>1990</ele>
        <time>2021-01-06T11:27:02.000Z</time>
      </trkpt>
      <trkpt lat="45.13278" lon="5.9203">
        <ele>1990</ele>
        <time>2021-01-06T11:27:11.000Z</time>
      </trkpt>
      <trkpt lat="45.13274" lon="5.92023">
        <ele>1990.1999511719</ele>
        <time>2021-01-06T11:27:19.000Z</time>
      </trkpt>
      <trkpt lat="45.13273" lon="5.92019">
        <ele>1990.4000244141</ele>
        <time>2021-01-06T11:27:26.000Z</time>
      </trkpt>
      <trkpt lat="45.1327" lon="5.92015">
        <ele>1990.4000244141</ele>
        <time>2021-01-06T11:27:35.000Z</time>
      </trkpt>
      <trkpt lat="45.13267" lon="5.92007">
        <ele>1990.4000244141</ele>
        <time>2021-01-06T11:27:43.000Z</time>
      </trkpt>
      <trkpt lat="45.13257" lon="5.91992">
        <ele>1990</ele>
        <time>2021-01-06T11:27:49.000Z</time>
      </trkpt>
      <trkpt lat="45.13245" lon="5.9198">
        <ele>1988</ele>
        <time>2021-01-06T11:27:54.000Z</time>
      </trkpt>
      <trkpt lat="45.13244" lon="5.91978">
        <ele>1987.8000488281</ele>
        <time>2021-01-06T11:27:55.000Z</time>
      </trkpt>
      <trkpt lat="45.13242" lon="5.91976">
        <ele>1987.8000488281</ele>
        <time>2021-01-06T11:27:59.000Z</time>
      </trkpt>
      <trkpt lat="45.13242" lon="5.91976">
        <ele>1987.8000488281</ele>
        <time>2021-01-06T11:28:12.000Z</time>
      </trkpt>
      <trkpt lat="45.13242" lon="5.91976">
        <ele>1987.5999755859</ele>
        <time>2021-01-06T11:28:23.000Z</time>
      </trkpt>
      <trkpt lat="45.13242" lon="5.91976">
        <ele>1987.4000244141</ele>
        <time>2021-01-06T11:28:35.000Z</time>
      </trkpt>
      <trkpt lat="45.13242" lon="5.91977">
        <ele>1987.8000488281</ele>
        <time>2021-01-06T11:28:45.000Z</time>
      </trkpt>
      <trkpt lat="45.13242" lon="5.91977">
        <ele>1987.4000244141</ele>
        <time>2021-01-06T11:28:50.000Z</time>
      </trkpt>
      <trkpt lat="45.13242" lon="5.91977">
        <ele>1987.4000244141</ele>
        <time>2021-01-06T11:28:59.000Z</time>
      </trkpt>
      <trkpt lat="45.13242" lon="5.91977">
        <ele>1987.4000244141</ele>
        <time>2021-01-06T11:29:07.000Z</time>
      </trkpt>
      <trkpt lat="45.13243" lon="5.91978">
        <ele>1987.4000244141</ele>
        <time>2021-01-06T11:29:21.000Z</time>
      </trkpt>
      <trkpt lat="45.13243" lon="5.91978">
        <ele>1987</ele>
        <time>2021-01-06T11:29:36.000Z</time>
      </trkpt>
      <trkpt lat="45.13243" lon="5.91978">
        <ele>1987</ele>
        <time>2021-01-06T11:29:48.000Z</time>
      </trkpt>
      <trkpt lat="45.13243" lon="5.91978">
        <ele>1987</ele>
        <time>2021-01-06T11:29:53.000Z</time>
      </trkpt>
      <trkpt lat="45.13243" lon="5.91978">
        <ele>1986.8000488281</ele>
        <time>2021-01-06T11:29:57.000Z</time>
      </trkpt>
      <trkpt lat="45.13244" lon="5.91979">
        <ele>1986.8000488281</ele>
        <time>2021-01-06T11:30:10.000Z</time>
      </trkpt>
      <trkpt lat="45.13244" lon="5.91979">
        <ele>1986.8000488281</ele>
        <time>2021-01-06T11:30:20.000Z</time>
      </trkpt>
      <trkpt lat="45.13244" lon="5.91979">
        <ele>1986.8000488281</ele>
        <time>2021-01-06T11:30:32.000Z</time>
      </trkpt>
      <trkpt lat="45.13244" lon="5.91979">
        <ele>1986.5999755859</ele>
        <time>2021-01-06T11:30:34.000Z</time>
      </trkpt>
      <trkpt lat="45.13244" lon="5.91979">
        <ele>1986.8000488281</ele>
        <time>2021-01-06T11:30:44.000Z</time>
      </trkpt>
      <trkpt lat="45.13244" lon="5.91979">
        <ele>1986.8000488281</ele>
        <time>2021-01-06T11:30:55.000Z</time>
      </trkpt>
      <trkpt lat="45.13245" lon="5.91979">
        <ele>1986.8000488281</ele>
        <time>2021-01-06T11:31:01.000Z</time>
      </trkpt>
      <trkpt lat="45.13245" lon="5.91979">
        <ele>1986.8000488281</ele>
        <time>2021-01-06T11:31:10.000Z</time>
      </trkpt>
      <trkpt lat="45.13245" lon="5.91979">
        <ele>1986.4000244141</ele>
        <time>2021-01-06T11:31:20.000Z</time>
      </trkpt>
      <trkpt lat="45.13245" lon="5.91979">
        <ele>1986.4000244141</ele>
        <time>2021-01-06T11:31:29.000Z</time>
      </trkpt>
      <trkpt lat="45.13245" lon="5.91979">
        <ele>1986.8000488281</ele>
        <time>2021-01-06T11:31:37.000Z</time>
      </trkpt>
      <trkpt lat="45.13245" lon="5.91979">
        <ele>1986.8000488281</ele>
        <time>2021-01-06T11:31:45.000Z</time>
      </trkpt>
      <trkpt lat="45.13245" lon="5.91979">
        <ele>1986.8000488281</ele>
        <time>2021-01-06T11:31:55.000Z</time>
      </trkpt>
      <trkpt lat="45.13245" lon="5.91979">
        <ele>1986.5999755859</ele>
        <time>2021-01-06T11:32:05.000Z</time>
      </trkpt>
      <trkpt lat="45.13244" lon="5.91978">
        <ele>1986.5999755859</ele>
        <time>2021-01-06T11:32:14.000Z</time>
      </trkpt>
      <trkpt lat="45.13244" lon="5.91978">
        <ele>1986.5999755859</ele>
        <time>2021-01-06T11:32:27.000Z</time>
      </trkpt>
      <trkpt lat="45.13244" lon="5.91978">
        <ele>1986.5999755859</ele>
        <time>2021-01-06T11:32:39.000Z</time>
      </trkpt>
      <trkpt lat="45.13244" lon="5.91979">
        <ele>1986.4000244141</ele>
        <time>2021-01-06T11:32:49.000Z</time>
      </trkpt>
      <trkpt lat="45.13244" lon="5.91979">
        <ele>1986.5999755859</ele>
        <time>2021-01-06T11:33:00.000Z</time>
      </trkpt>
      <trkpt lat="45.13244" lon="5.91978">
        <ele>1986.4000244141</ele>
        <time>2021-01-06T11:33:07.000Z</time>
      </trkpt>
      <trkpt lat="45.13244" lon="5.91978">
        <ele>1986.4000244141</ele>
        <time>2021-01-06T11:33:20.000Z</time>
      </trkpt>
      <trkpt lat="45.13244" lon="5.91978">
        <ele>1986.1999511719</ele>
        <time>2021-01-06T11:33:29.000Z</time>
      </trkpt>
      <trkpt lat="45.13244" lon="5.91978">
        <ele>1986.4000244141</ele>
        <time>2021-01-06T11:33:41.000Z</time>
      </trkpt>
      <trkpt lat="45.13244" lon="5.91978">
        <ele>1986.4000244141</ele>
        <time>2021-01-06T11:33:53.000Z</time>
      </trkpt>
      <trkpt lat="45.13244" lon="5.91978">
        <ele>1986.4000244141</ele>
        <time>2021-01-06T11:33:54.000Z</time>
      </trkpt>
      <trkpt lat="45.13244" lon="5.91978">
        <ele>1986.4000244141</ele>
        <time>2021-01-06T11:34:02.000Z</time>
      </trkpt>
      <trkpt lat="45.13244" lon="5.91979">
        <ele>1986.4000244141</ele>
        <time>2021-01-06T11:34:11.000Z</time>
      </trkpt>
      <trkpt lat="45.13244" lon="5.91979">
        <ele>1986.1999511719</ele>
        <time>2021-01-06T11:34:13.000Z</time>
      </trkpt>
      <trkpt lat="45.13244" lon="5.91979">
        <ele>1986</ele>
        <time>2021-01-06T11:34:15.000Z</time>
      </trkpt>
      <trkpt lat="45.13244" lon="5.91979">
        <ele>1985.8000488281</ele>
        <time>2021-01-06T11:34:18.000Z</time>
      </trkpt>
      <trkpt lat="45.13244" lon="5.91978">
        <ele>1983.4000244141</ele>
        <time>2021-01-06T11:34:20.000Z</time>
      </trkpt>
      <trkpt lat="45.13244" lon="5.91978">
        <ele>1982.4000244141</ele>
        <time>2021-01-06T11:34:22.000Z</time>
      </trkpt>
      <trkpt lat="45.13244" lon="5.91978">
        <ele>1984</ele>
        <time>2021-01-06T11:34:27.000Z</time>
      </trkpt>
      <trkpt lat="45.13244" lon="5.91978">
        <ele>1984.8000488281</ele>
        <time>2021-01-06T11:34:28.000Z</time>
      </trkpt>
      <trkpt lat="45.13244" lon="5.91978">
        <ele>1985.4000244141</ele>
        <time>2021-01-06T11:34:29.000Z</time>
      </trkpt>
      <trkpt lat="45.13245" lon="5.91979">
        <ele>1985.8000488281</ele>
        <time>2021-01-06T11:34:35.000Z</time>
      </trkpt>
      <trkpt lat="45.13245" lon="5.91979">
        <ele>1986.5999755859</ele>
        <time>2021-01-06T11:34:44.000Z</time>
      </trkpt>
      <trkpt lat="45.13245" lon="5.91979">
        <ele>1986.5999755859</ele>
        <time>2021-01-06T11:34:45.000Z</time>
      </trkpt>
      <trkpt lat="45.13245" lon="5.91979">
        <ele>1986.4000244141</ele>
        <time>2021-01-06T11:34:57.000Z</time>
      </trkpt>
      <trkpt lat="45.13245" lon="5.91979">
        <ele>1986.4000244141</ele>
        <time>2021-01-06T11:35:12.000Z</time>
      </trkpt>
      <trkpt lat="45.13245" lon="5.91979">
        <ele>1986.4000244141</ele>
        <time>2021-01-06T11:35:25.000Z</time>
      </trkpt>
      <trkpt lat="45.13244" lon="5.91978">
        <ele>1986.4000244141</ele>
        <time>2021-01-06T11:35:32.000Z</time>
      </trkpt>
      <trkpt lat="45.13242" lon="5.91976">
        <ele>1986.8000488281</ele>
        <time>2021-01-06T11:35:38.000Z</time>
      </trkpt>
      <trkpt lat="45.1324" lon="5.91973">
        <ele>1987</ele>
        <time>2021-01-06T11:35:44.000Z</time>
      </trkpt>
      <trkpt lat="45.13236" lon="5.9197">
        <ele>1987.1999511719</ele>
        <time>2021-01-06T11:35:49.000Z</time>
      </trkpt>
      <trkpt lat="45.13235" lon="5.91969">
        <ele>1987.5999755859</ele>
        <time>2021-01-06T11:35:55.000Z</time>
      </trkpt>
      <trkpt lat="45.13234" lon="5.91969">
        <ele>1987.8000488281</ele>
        <time>2021-01-06T11:36:00.000Z</time>
      </trkpt>
      <trkpt lat="45.13233" lon="5.91968">
        <ele>1988</ele>
        <time>2021-01-06T11:36:06.000Z</time>
      </trkpt>
      <trkpt lat="45.13233" lon="5.91967">
        <ele>1988</ele>
        <time>2021-01-06T11:36:12.000Z</time>
      </trkpt>
      <trkpt lat="45.1323" lon="5.91966">
        <ele>1988</ele>
        <time>2021-01-06T11:36:18.000Z</time>
      </trkpt>
      <trkpt lat="45.13229" lon="5.91965">
        <ele>1988.5999755859</ele>
        <time>2021-01-06T11:36:23.000Z</time>
      </trkpt>
      <trkpt lat="45.13229" lon="5.91965">
        <ele>1988.8000488281</ele>
        <time>2021-01-06T11:36:24.000Z</time>
      </trkpt>
      <trkpt lat="45.13226" lon="5.91965">
        <ele>1989</ele>
        <time>2021-01-06T11:36:31.000Z</time>
      </trkpt>
      <trkpt lat="45.13221" lon="5.91963">
        <ele>1989.8000488281</ele>
        <time>2021-01-06T11:36:38.000Z</time>
      </trkpt>
      <trkpt lat="45.13216" lon="5.9196">
        <ele>1990.8000488281</ele>
        <time>2021-01-06T11:36:44.000Z</time>
      </trkpt>
      <trkpt lat="45.13216" lon="5.9196">
        <ele>1991</ele>
        <time>2021-01-06T11:36:45.000Z</time>
      </trkpt>
      <trkpt lat="45.1321" lon="5.91958">
        <ele>1991.4000244141</ele>
        <time>2021-01-06T11:36:52.000Z</time>
      </trkpt>
      <trkpt lat="45.1321" lon="5.91958">
        <ele>1991.8000488281</ele>
        <time>2021-01-06T11:36:56.000Z</time>
      </trkpt>
      <trkpt lat="45.13209" lon="5.91957">
        <ele>1992</ele>
        <time>2021-01-06T11:36:58.000Z</time>
      </trkpt>
      <trkpt lat="45.13207" lon="5.91957">
        <ele>1992</ele>
        <time>2021-01-06T11:37:00.000Z</time>
      </trkpt>
      <trkpt lat="45.13203" lon="5.91955">
        <ele>1992.1999511719</ele>
        <time>2021-01-06T11:37:04.000Z</time>
      </trkpt>
      <trkpt lat="45.13202" lon="5.91954">
        <ele>1992.1999511719</ele>
        <time>2021-01-06T11:37:07.000Z</time>
      </trkpt>
      <trkpt lat="45.13199" lon="5.91953">
        <ele>1992.1999511719</ele>
        <time>2021-01-06T11:37:10.000Z</time>
      </trkpt>
      <trkpt lat="45.13194" lon="5.9195">
        <ele>1992.1999511719</ele>
        <time>2021-01-06T11:37:15.000Z</time>
      </trkpt>
      <trkpt lat="45.13193" lon="5.9195">
        <ele>1992</ele>
        <time>2021-01-06T11:37:17.000Z</time>
      </trkpt>
      <trkpt lat="45.13189" lon="5.91946">
        <ele>1991.8000488281</ele>
        <time>2021-01-06T11:37:21.000Z</time>
      </trkpt>
      <trkpt lat="45.13185" lon="5.91944">
        <ele>1992</ele>
        <time>2021-01-06T11:37:27.000Z</time>
      </trkpt>
      <trkpt lat="45.13178" lon="5.91943">
        <ele>1992.5999755859</ele>
        <time>2021-01-06T11:37:31.000Z</time>
      </trkpt>
      <trkpt lat="45.13176" lon="5.91944">
        <ele>1992.4000244141</ele>
        <time>2021-01-06T11:37:35.000Z</time>
      </trkpt>
      <trkpt lat="45.13172" lon="5.91946">
        <ele>1992.4000244141</ele>
        <time>2021-01-06T11:37:39.000Z</time>
      </trkpt>
      <trkpt lat="45.13172" lon="5.91946">
        <ele>1992.5999755859</ele>
        <time>2021-01-06T11:37:41.000Z</time>
      </trkpt>
      <trkpt lat="45.1317" lon="5.91946">
        <ele>1993</ele>
        <time>2021-01-06T11:37:43.000Z</time>
      </trkpt>
      <trkpt lat="45.13167" lon="5.91947">
        <ele>1993.8000488281</ele>
        <time>2021-01-06T11:37:48.000Z</time>
      </trkpt>
      <trkpt lat="45.13165" lon="5.91948">
        <ele>1994</ele>
        <time>2021-01-06T11:37:50.000Z</time>
      </trkpt>
      <trkpt lat="45.13163" lon="5.91947">
        <ele>1994.4000244141</ele>
        <time>2021-01-06T11:37:53.000Z</time>
      </trkpt>
      <trkpt lat="45.13161" lon="5.91948">
        <ele>1994.5999755859</ele>
        <time>2021-01-06T11:37:55.000Z</time>
      </trkpt>
      <trkpt lat="45.13158" lon="5.91947">
        <ele>1995</ele>
        <time>2021-01-06T11:37:59.000Z</time>
      </trkpt>
      <trkpt lat="45.13157" lon="5.91947">
        <ele>1995.1999511719</ele>
        <time>2021-01-06T11:38:00.000Z</time>
      </trkpt>
      <trkpt lat="45.13156" lon="5.91947">
        <ele>1995.1999511719</ele>
        <time>2021-01-06T11:38:01.000Z</time>
      </trkpt>
      <trkpt lat="45.13154" lon="5.91947">
        <ele>1995.1999511719</ele>
        <time>2021-01-06T11:38:07.000Z</time>
      </trkpt>
      <trkpt lat="45.13147" lon="5.91948">
        <ele>1995.1999511719</ele>
        <time>2021-01-06T11:38:13.000Z</time>
      </trkpt>
      <trkpt lat="45.13139" lon="5.91952">
        <ele>1995</ele>
        <time>2021-01-06T11:38:19.000Z</time>
      </trkpt>
      <trkpt lat="45.13131" lon="5.91957">
        <ele>1994.4000244141</ele>
        <time>2021-01-06T11:38:26.000Z</time>
      </trkpt>
      <trkpt lat="45.13127" lon="5.91958">
        <ele>1994.1999511719</ele>
        <time>2021-01-06T11:38:29.000Z</time>
      </trkpt>
      <trkpt lat="45.13127" lon="5.91959">
        <ele>1994</ele>
        <time>2021-01-06T11:38:30.000Z</time>
      </trkpt>
      <trkpt lat="45.13125" lon="5.91963">
        <ele>1994</ele>
        <time>2021-01-06T11:38:33.000Z</time>
      </trkpt>
      <trkpt lat="45.1312" lon="5.91967">
        <ele>1994.4000244141</ele>
        <time>2021-01-06T11:38:39.000Z</time>
      </trkpt>
      <trkpt lat="45.13117" lon="5.9197">
        <ele>1995.4000244141</ele>
        <time>2021-01-06T11:38:44.000Z</time>
      </trkpt>
      <trkpt lat="45.13116" lon="5.91971">
        <ele>1995.5999755859</ele>
        <time>2021-01-06T11:38:45.000Z</time>
      </trkpt>
      <trkpt lat="45.13112" lon="5.91974">
        <ele>1996.5999755859</ele>
        <time>2021-01-06T11:38:50.000Z</time>
      </trkpt>
      <trkpt lat="45.13111" lon="5.91976">
        <ele>1997</ele>
        <time>2021-01-06T11:38:52.000Z</time>
      </trkpt>
      <trkpt lat="45.13109" lon="5.91978">
        <ele>1997.5999755859</ele>
        <time>2021-01-06T11:38:55.000Z</time>
      </trkpt>
      <trkpt lat="45.13108" lon="5.9198">
        <ele>1998</ele>
        <time>2021-01-06T11:38:57.000Z</time>
      </trkpt>
      <trkpt lat="45.13107" lon="5.91983">
        <ele>1998.8000488281</ele>
        <time>2021-01-06T11:39:00.000Z</time>
      </trkpt>
      <trkpt lat="45.13109" lon="5.91985">
        <ele>1999.5999755859</ele>
        <time>2021-01-06T11:39:03.000Z</time>
      </trkpt>
      <trkpt lat="45.1311" lon="5.91985">
        <ele>2000</ele>
        <time>2021-01-06T11:39:04.000Z</time>
      </trkpt>
      <trkpt lat="45.13113" lon="5.91988">
        <ele>2001.1999511719</ele>
        <time>2021-01-06T11:39:08.000Z</time>
      </trkpt>
      <trkpt lat="45.13114" lon="5.91989">
        <ele>2001.5999755859</ele>
        <time>2021-01-06T11:39:10.000Z</time>
      </trkpt>
      <trkpt lat="45.13116" lon="5.9199">
        <ele>2002.1999511719</ele>
        <time>2021-01-06T11:39:13.000Z</time>
      </trkpt>
      <trkpt lat="45.13118" lon="5.91992">
        <ele>2003</ele>
        <time>2021-01-06T11:39:17.000Z</time>
      </trkpt>
      <trkpt lat="45.13119" lon="5.91993">
        <ele>2003.1999511719</ele>
        <time>2021-01-06T11:39:18.000Z</time>
      </trkpt>
      <trkpt lat="45.13122" lon="5.91995">
        <ele>2004.1999511719</ele>
        <time>2021-01-06T11:39:23.000Z</time>
      </trkpt>
      <trkpt lat="45.13125" lon="5.91997">
        <ele>2005.4000244141</ele>
        <time>2021-01-06T11:39:28.000Z</time>
      </trkpt>
      <trkpt lat="45.13125" lon="5.91997">
        <ele>2005.5999755859</ele>
        <time>2021-01-06T11:39:29.000Z</time>
      </trkpt>
      <trkpt lat="45.13126" lon="5.91997">
        <ele>2006.4000244141</ele>
        <time>2021-01-06T11:39:32.000Z</time>
      </trkpt>
      <trkpt lat="45.13127" lon="5.91998">
        <ele>2006.8000488281</ele>
        <time>2021-01-06T11:39:34.000Z</time>
      </trkpt>
      <trkpt lat="45.1313" lon="5.92">
        <ele>2007.4000244141</ele>
        <time>2021-01-06T11:39:38.000Z</time>
      </trkpt>
      <trkpt lat="45.13131" lon="5.92001">
        <ele>2007.8000488281</ele>
        <time>2021-01-06T11:39:40.000Z</time>
      </trkpt>
      <trkpt lat="45.13132" lon="5.92001">
        <ele>2008.5999755859</ele>
        <time>2021-01-06T11:39:44.000Z</time>
      </trkpt>
      <trkpt lat="45.13134" lon="5.92001">
        <ele>2009.1999511719</ele>
        <time>2021-01-06T11:39:46.000Z</time>
      </trkpt>
      <trkpt lat="45.13136" lon="5.92002">
        <ele>2009.8000488281</ele>
        <time>2021-01-06T11:39:49.000Z</time>
      </trkpt>
      <trkpt lat="45.13136" lon="5.92003">
        <ele>2010.5999755859</ele>
        <time>2021-01-06T11:39:53.000Z</time>
      </trkpt>
      <trkpt lat="45.13138" lon="5.92004">
        <ele>2011</ele>
        <time>2021-01-06T11:39:55.000Z</time>
      </trkpt>
      <trkpt lat="45.13141" lon="5.92006">
        <ele>2011.8000488281</ele>
        <time>2021-01-06T11:39:58.000Z</time>
      </trkpt>
      <trkpt lat="45.13141" lon="5.92007">
        <ele>2012</ele>
        <time>2021-01-06T11:39:59.000Z</time>
      </trkpt>
      <trkpt lat="45.13142" lon="5.92007">
        <ele>2012.1999511719</ele>
        <time>2021-01-06T11:40:00.000Z</time>
      </trkpt>
      <trkpt lat="45.13144" lon="5.92009">
        <ele>2013.4000244141</ele>
        <time>2021-01-06T11:40:04.000Z</time>
      </trkpt>
      <trkpt lat="45.13144" lon="5.9201">
        <ele>2013.8000488281</ele>
        <time>2021-01-06T11:40:06.000Z</time>
      </trkpt>
      <trkpt lat="45.13147" lon="5.92011">
        <ele>2014.4000244141</ele>
        <time>2021-01-06T11:40:10.000Z</time>
      </trkpt>
      <trkpt lat="45.13148" lon="5.92012">
        <ele>2014.5999755859</ele>
        <time>2021-01-06T11:40:11.000Z</time>
      </trkpt>
      <trkpt lat="45.13149" lon="5.92012">
        <ele>2015</ele>
        <time>2021-01-06T11:40:13.000Z</time>
      </trkpt>
      <trkpt lat="45.1315" lon="5.92013">
        <ele>2015.5999755859</ele>
        <time>2021-01-06T11:40:16.000Z</time>
      </trkpt>
      <trkpt lat="45.13151" lon="5.92014">
        <ele>2016</ele>
        <time>2021-01-06T11:40:18.000Z</time>
      </trkpt>
      <trkpt lat="45.13153" lon="5.92015">
        <ele>2016.8000488281</ele>
        <time>2021-01-06T11:40:20.000Z</time>
      </trkpt>
      <trkpt lat="45.13154" lon="5.92017">
        <ele>2017.1999511719</ele>
        <time>2021-01-06T11:40:22.000Z</time>
      </trkpt>
      <trkpt lat="45.13157" lon="5.92018">
        <ele>2017.5999755859</ele>
        <time>2021-01-06T11:40:25.000Z</time>
      </trkpt>
      <trkpt lat="45.13157" lon="5.92019">
        <ele>2017.8000488281</ele>
        <time>2021-01-06T11:40:26.000Z</time>
      </trkpt>
      <trkpt lat="45.1316" lon="5.92023">
        <ele>2018.4000244141</ele>
        <time>2021-01-06T11:40:29.000Z</time>
      </trkpt>
      <trkpt lat="45.13161" lon="5.92023">
        <ele>2018.5999755859</ele>
        <time>2021-01-06T11:40:31.000Z</time>
      </trkpt>
      <trkpt lat="45.13161" lon="5.92023">
        <ele>2019</ele>
        <time>2021-01-06T11:40:32.000Z</time>
      </trkpt>
      <trkpt lat="45.13163" lon="5.92025">
        <ele>2020</ele>
        <time>2021-01-06T11:40:37.000Z</time>
      </trkpt>
      <trkpt lat="45.13167" lon="5.92028">
        <ele>2021</ele>
        <time>2021-01-06T11:40:42.000Z</time>
      </trkpt>
      <trkpt lat="45.13167" lon="5.92028">
        <ele>2021.1999511719</ele>
        <time>2021-01-06T11:40:43.000Z</time>
      </trkpt>
      <trkpt lat="45.13167" lon="5.92029">
        <ele>2022</ele>
        <time>2021-01-06T11:40:49.000Z</time>
      </trkpt>
      <trkpt lat="45.13164" lon="5.92029">
        <ele>2022.4000244141</ele>
        <time>2021-01-06T11:40:54.000Z</time>
      </trkpt>
      <trkpt lat="45.1316" lon="5.92029">
        <ele>2023.1999511719</ele>
        <time>2021-01-06T11:40:59.000Z</time>
      </trkpt>
      <trkpt lat="45.13157" lon="5.92031">
        <ele>2024.1999511719</ele>
        <time>2021-01-06T11:41:04.000Z</time>
      </trkpt>
      <trkpt lat="45.13156" lon="5.92031">
        <ele>2024.4000244141</ele>
        <time>2021-01-06T11:41:05.000Z</time>
      </trkpt>
      <trkpt lat="45.13154" lon="5.92032">
        <ele>2025.4000244141</ele>
        <time>2021-01-06T11:41:08.000Z</time>
      </trkpt>
      <trkpt lat="45.13151" lon="5.92033">
        <ele>2026.1999511719</ele>
        <time>2021-01-06T11:41:12.000Z</time>
      </trkpt>
      <trkpt lat="45.1315" lon="5.92034">
        <ele>2026.5999755859</ele>
        <time>2021-01-06T11:41:14.000Z</time>
      </trkpt>
      <trkpt lat="45.13148" lon="5.92035">
        <ele>2027.4000244141</ele>
        <time>2021-01-06T11:41:17.000Z</time>
      </trkpt>
      <trkpt lat="45.13147" lon="5.92035">
        <ele>2027.8000488281</ele>
        <time>2021-01-06T11:41:19.000Z</time>
      </trkpt>
      <trkpt lat="45.13144" lon="5.92038">
        <ele>2029</ele>
        <time>2021-01-06T11:41:24.000Z</time>
      </trkpt>
      <trkpt lat="45.13142" lon="5.92039">
        <ele>2029.5999755859</ele>
        <time>2021-01-06T11:41:26.000Z</time>
      </trkpt>
      <trkpt lat="45.1314" lon="5.9204">
        <ele>2030.1999511719</ele>
        <time>2021-01-06T11:41:30.000Z</time>
      </trkpt>
      <trkpt lat="45.13139" lon="5.92042">
        <ele>2030.5999755859</ele>
        <time>2021-01-06T11:41:32.000Z</time>
      </trkpt>
      <trkpt lat="45.13138" lon="5.92044">
        <ele>2031.1999511719</ele>
        <time>2021-01-06T11:41:35.000Z</time>
      </trkpt>
      <trkpt lat="45.13135" lon="5.92046">
        <ele>2031.8000488281</ele>
        <time>2021-01-06T11:41:38.000Z</time>
      </trkpt>
      <trkpt lat="45.13135" lon="5.92047">
        <ele>2032.1999511719</ele>
        <time>2021-01-06T11:41:40.000Z</time>
      </trkpt>
      <trkpt lat="45.13134" lon="5.92047">
        <ele>2033</ele>
        <time>2021-01-06T11:41:44.000Z</time>
      </trkpt>
      <trkpt lat="45.13133" lon="5.92049">
        <ele>2033.1999511719</ele>
        <time>2021-01-06T11:41:49.000Z</time>
      </trkpt>
      <trkpt lat="45.13132" lon="5.9205">
        <ele>2033.4000244141</ele>
        <time>2021-01-06T11:41:50.000Z</time>
      </trkpt>
      <trkpt lat="45.13129" lon="5.92052">
        <ele>2034</ele>
        <time>2021-01-06T11:41:55.000Z</time>
      </trkpt>
      <trkpt lat="45.13129" lon="5.92053">
        <ele>2034.4000244141</ele>
        <time>2021-01-06T11:41:56.000Z</time>
      </trkpt>
      <trkpt lat="45.13128" lon="5.92054">
        <ele>2035.5999755859</ele>
        <time>2021-01-06T11:42:01.000Z</time>
      </trkpt>
      <trkpt lat="45.13128" lon="5.92054">
        <ele>2035.8000488281</ele>
        <time>2021-01-06T11:42:02.000Z</time>
      </trkpt>
      <trkpt lat="45.1313" lon="5.92053">
        <ele>2036</ele>
        <time>2021-01-06T11:42:08.000Z</time>
      </trkpt>
      <trkpt lat="45.13131" lon="5.92053">
        <ele>2036</ele>
        <time>2021-01-06T11:42:09.000Z</time>
      </trkpt>
      <trkpt lat="45.13134" lon="5.92055">
        <ele>2036.1999511719</ele>
        <time>2021-01-06T11:42:13.000Z</time>
      </trkpt>
      <trkpt lat="45.13136" lon="5.92056">
        <ele>2036.5999755859</ele>
        <time>2021-01-06T11:42:15.000Z</time>
      </trkpt>
      <trkpt lat="45.13137" lon="5.92056">
        <ele>2036.8000488281</ele>
        <time>2021-01-06T11:42:16.000Z</time>
      </trkpt>
      <trkpt lat="45.1314" lon="5.92057">
        <ele>2038</ele>
        <time>2021-01-06T11:42:20.000Z</time>
      </trkpt>
      <trkpt lat="45.13141" lon="5.92058">
        <ele>2038.4000244141</ele>
        <time>2021-01-06T11:42:21.000Z</time>
      </trkpt>
      <trkpt lat="45.13144" lon="5.92059">
        <ele>2039.1999511719</ele>
        <time>2021-01-06T11:42:25.000Z</time>
      </trkpt>
      <trkpt lat="45.13145" lon="5.92059">
        <ele>2039.8000488281</ele>
        <time>2021-01-06T11:42:27.000Z</time>
      </trkpt>
      <trkpt lat="45.13146" lon="5.9206">
        <ele>2040</ele>
        <time>2021-01-06T11:42:28.000Z</time>
      </trkpt>
      <trkpt lat="45.13148" lon="5.92061">
        <ele>2040.4000244141</ele>
        <time>2021-01-06T11:42:30.000Z</time>
      </trkpt>
      <trkpt lat="45.1315" lon="5.92062">
        <ele>2040.8000488281</ele>
        <time>2021-01-06T11:42:32.000Z</time>
      </trkpt>
      <trkpt lat="45.13151" lon="5.92063">
        <ele>2041.5999755859</ele>
        <time>2021-01-06T11:42:35.000Z</time>
      </trkpt>
      <trkpt lat="45.13152" lon="5.92064">
        <ele>2041.8000488281</ele>
        <time>2021-01-06T11:42:36.000Z</time>
      </trkpt>
      <trkpt lat="45.13153" lon="5.92065">
        <ele>2042</ele>
        <time>2021-01-06T11:42:37.000Z</time>
      </trkpt>
      <trkpt lat="45.13155" lon="5.92066">
        <ele>2042.5999755859</ele>
        <time>2021-01-06T11:42:40.000Z</time>
      </trkpt>
      <trkpt lat="45.13158" lon="5.92068">
        <ele>2043.4000244141</ele>
        <time>2021-01-06T11:42:43.000Z</time>
      </trkpt>
      <trkpt lat="45.13158" lon="5.92068">
        <ele>2043.8000488281</ele>
        <time>2021-01-06T11:42:44.000Z</time>
      </trkpt>
      <trkpt lat="45.13161" lon="5.92071">
        <ele>2044.4000244141</ele>
        <time>2021-01-06T11:42:47.000Z</time>
      </trkpt>
      <trkpt lat="45.13162" lon="5.92072">
        <ele>2044.5999755859</ele>
        <time>2021-01-06T11:42:49.000Z</time>
      </trkpt>
      <trkpt lat="45.13163" lon="5.92072">
        <ele>2044.8000488281</ele>
        <time>2021-01-06T11:42:50.000Z</time>
      </trkpt>
      <trkpt lat="45.13163" lon="5.92073">
        <ele>2045</ele>
        <time>2021-01-06T11:42:51.000Z</time>
      </trkpt>
      <trkpt lat="45.13165" lon="5.92074">
        <ele>2045.8000488281</ele>
        <time>2021-01-06T11:42:55.000Z</time>
      </trkpt>
      <trkpt lat="45.13166" lon="5.92075">
        <ele>2046.1999511719</ele>
        <time>2021-01-06T11:42:56.000Z</time>
      </trkpt>
      <trkpt lat="45.13169" lon="5.92078">
        <ele>2047</ele>
        <time>2021-01-06T11:43:01.000Z</time>
      </trkpt>
      <trkpt lat="45.13171" lon="5.9208">
        <ele>2047.5999755859</ele>
        <time>2021-01-06T11:43:04.000Z</time>
      </trkpt>
      <trkpt lat="45.13171" lon="5.92081">
        <ele>2047.8000488281</ele>
        <time>2021-01-06T11:43:05.000Z</time>
      </trkpt>
      <trkpt lat="45.13172" lon="5.92082">
        <ele>2048.1999511719</ele>
        <time>2021-01-06T11:43:07.000Z</time>
      </trkpt>
      <trkpt lat="45.13172" lon="5.92082">
        <ele>2048.8000488281</ele>
        <time>2021-01-06T11:43:09.000Z</time>
      </trkpt>
      <trkpt lat="45.1317" lon="5.92082">
        <ele>2049.1999511719</ele>
        <time>2021-01-06T11:43:13.000Z</time>
      </trkpt>
      <trkpt lat="45.13169" lon="5.92081">
        <ele>2049.3999023438</ele>
        <time>2021-01-06T11:43:14.000Z</time>
      </trkpt>
      <trkpt lat="45.13168" lon="5.92082">
        <ele>2049.6000976562</ele>
        <time>2021-01-06T11:43:15.000Z</time>
      </trkpt>
      <trkpt lat="45.13166" lon="5.92081">
        <ele>2050</ele>
        <time>2021-01-06T11:43:18.000Z</time>
      </trkpt>
      <trkpt lat="45.13164" lon="5.92082">
        <ele>2050.3999023438</ele>
        <time>2021-01-06T11:43:20.000Z</time>
      </trkpt>
      <trkpt lat="45.13162" lon="5.92082">
        <ele>2051.3999023438</ele>
        <time>2021-01-06T11:43:24.000Z</time>
      </trkpt>
      <trkpt lat="45.13161" lon="5.92082">
        <ele>2051.6000976562</ele>
        <time>2021-01-06T11:43:25.000Z</time>
      </trkpt>
      <trkpt lat="45.1316" lon="5.92082">
        <ele>2051.8000488281</ele>
        <time>2021-01-06T11:43:26.000Z</time>
      </trkpt>
      <trkpt lat="45.13158" lon="5.92083">
        <ele>2052.1999511719</ele>
        <time>2021-01-06T11:43:29.000Z</time>
      </trkpt>
      <trkpt lat="45.13157" lon="5.92083">
        <ele>2052.6000976562</ele>
        <time>2021-01-06T11:43:31.000Z</time>
      </trkpt>
      <trkpt lat="45.13154" lon="5.92084">
        <ele>2053.8000488281</ele>
        <time>2021-01-06T11:43:35.000Z</time>
      </trkpt>
      <trkpt lat="45.13151" lon="5.92085">
        <ele>2054.8000488281</ele>
        <time>2021-01-06T11:43:40.000Z</time>
      </trkpt>
      <trkpt lat="45.1315" lon="5.92086">
        <ele>2055.1999511719</ele>
        <time>2021-01-06T11:43:42.000Z</time>
      </trkpt>
      <trkpt lat="45.13147" lon="5.92086">
        <ele>2055.8000488281</ele>
        <time>2021-01-06T11:43:46.000Z</time>
      </trkpt>
      <trkpt lat="45.13146" lon="5.92087">
        <ele>2056.3999023438</ele>
        <time>2021-01-06T11:43:49.000Z</time>
      </trkpt>
      <trkpt lat="45.13144" lon="5.92088">
        <ele>2056.8000488281</ele>
        <time>2021-01-06T11:43:52.000Z</time>
      </trkpt>
      <trkpt lat="45.13142" lon="5.9209">
        <ele>2058</ele>
        <time>2021-01-06T11:43:56.000Z</time>
      </trkpt>
      <trkpt lat="45.13139" lon="5.92091">
        <ele>2059</ele>
        <time>2021-01-06T11:44:03.000Z</time>
      </trkpt>
      <trkpt lat="45.13139" lon="5.92091">
        <ele>2059.1999511719</ele>
        <time>2021-01-06T11:44:04.000Z</time>
      </trkpt>
      <trkpt lat="45.13141" lon="5.92092">
        <ele>2059.6000976562</ele>
        <time>2021-01-06T11:44:07.000Z</time>
      </trkpt>
      <trkpt lat="45.13142" lon="5.92093">
        <ele>2060</ele>
        <time>2021-01-06T11:44:09.000Z</time>
      </trkpt>
      <trkpt lat="45.13143" lon="5.92093">
        <ele>2060.1999511719</ele>
        <time>2021-01-06T11:44:10.000Z</time>
      </trkpt>
      <trkpt lat="45.13146" lon="5.92095">
        <ele>2061</ele>
        <time>2021-01-06T11:44:15.000Z</time>
      </trkpt>
      <trkpt lat="45.13147" lon="5.92097">
        <ele>2061.1999511719</ele>
        <time>2021-01-06T11:44:17.000Z</time>
      </trkpt>
      <trkpt lat="45.13148" lon="5.92097">
        <ele>2061.3999023438</ele>
        <time>2021-01-06T11:44:18.000Z</time>
      </trkpt>
      <trkpt lat="45.1315" lon="5.92098">
        <ele>2062</ele>
        <time>2021-01-06T11:44:21.000Z</time>
      </trkpt>
      <trkpt lat="45.13151" lon="5.92099">
        <ele>2062.3999023438</ele>
        <time>2021-01-06T11:44:23.000Z</time>
      </trkpt>
      <trkpt lat="45.13153" lon="5.92102">
        <ele>2062.8000488281</ele>
        <time>2021-01-06T11:44:26.000Z</time>
      </trkpt>
      <trkpt lat="45.13154" lon="5.92102">
        <ele>2063.1999511719</ele>
        <time>2021-01-06T11:44:28.000Z</time>
      </trkpt>
      <trkpt lat="45.13153" lon="5.92102">
        <ele>2063.6000976562</ele>
        <time>2021-01-06T11:44:30.000Z</time>
      </trkpt>
      <trkpt lat="45.13153" lon="5.92102">
        <ele>2064</ele>
        <time>2021-01-06T11:44:33.000Z</time>
      </trkpt>
      <trkpt lat="45.13149" lon="5.92104">
        <ele>2064.6000976562</ele>
        <time>2021-01-06T11:44:38.000Z</time>
      </trkpt>
      <trkpt lat="45.13144" lon="5.92105">
        <ele>2066</ele>
        <time>2021-01-06T11:44:44.000Z</time>
      </trkpt>
      <trkpt lat="45.13142" lon="5.92106">
        <ele>2067.1999511719</ele>
        <time>2021-01-06T11:44:49.000Z</time>
      </trkpt>
      <trkpt lat="45.13141" lon="5.92107">
        <ele>2067.3999023438</ele>
        <time>2021-01-06T11:44:50.000Z</time>
      </trkpt>
      <trkpt lat="45.1314" lon="5.92107">
        <ele>2068.1999511719</ele>
        <time>2021-01-06T11:44:55.000Z</time>
      </trkpt>
      <trkpt lat="45.1314" lon="5.92107">
        <ele>2068.3999023438</ele>
        <time>2021-01-06T11:44:56.000Z</time>
      </trkpt>
      <trkpt lat="45.1314" lon="5.92107">
        <ele>2068.6000976562</ele>
        <time>2021-01-06T11:45:02.000Z</time>
      </trkpt>
      <trkpt lat="45.13143" lon="5.9211">
        <ele>2069.1999511719</ele>
        <time>2021-01-06T11:45:07.000Z</time>
      </trkpt>
      <trkpt lat="45.13143" lon="5.9211">
        <ele>2069.6000976562</ele>
        <time>2021-01-06T11:45:08.000Z</time>
      </trkpt>
      <trkpt lat="45.13143" lon="5.9211">
        <ele>2070.1999511719</ele>
        <time>2021-01-06T11:45:12.000Z</time>
      </trkpt>
      <trkpt lat="45.13146" lon="5.92112">
        <ele>2070.6000976562</ele>
        <time>2021-01-06T11:45:15.000Z</time>
      </trkpt>
      <trkpt lat="45.1315" lon="5.92115">
        <ele>2071.3999023438</ele>
        <time>2021-01-06T11:45:20.000Z</time>
      </trkpt>
      <trkpt lat="45.1315" lon="5.92115">
        <ele>2071.6000976562</ele>
        <time>2021-01-06T11:45:21.000Z</time>
      </trkpt>
      <trkpt lat="45.13152" lon="5.92116">
        <ele>2072.3999023438</ele>
        <time>2021-01-06T11:45:26.000Z</time>
      </trkpt>
      <trkpt lat="45.13152" lon="5.92116">
        <ele>2072.8000488281</ele>
        <time>2021-01-06T11:45:28.000Z</time>
      </trkpt>
      <trkpt lat="45.13152" lon="5.92116">
        <ele>2073.3999023438</ele>
        <time>2021-01-06T11:45:34.000Z</time>
      </trkpt>
      <trkpt lat="45.13151" lon="5.92116">
        <ele>2073.3999023438</ele>
        <time>2021-01-06T11:45:35.000Z</time>
      </trkpt>
      <trkpt lat="45.13149" lon="5.92117">
        <ele>2073.6000976562</ele>
        <time>2021-01-06T11:45:39.000Z</time>
      </trkpt>
      <trkpt lat="45.13149" lon="5.92118">
        <ele>2073.8000488281</ele>
        <time>2021-01-06T11:45:40.000Z</time>
      </trkpt>
      <trkpt lat="45.13144" lon="5.92119">
        <ele>2074.6000976562</ele>
        <time>2021-01-06T11:45:46.000Z</time>
      </trkpt>
      <trkpt lat="45.13141" lon="5.92121">
        <ele>2075.8000488281</ele>
        <time>2021-01-06T11:45:51.000Z</time>
      </trkpt>
      <trkpt lat="45.13141" lon="5.92121">
        <ele>2076</ele>
        <time>2021-01-06T11:45:52.000Z</time>
      </trkpt>
      <trkpt lat="45.1314" lon="5.92121">
        <ele>2077</ele>
        <time>2021-01-06T11:45:56.000Z</time>
      </trkpt>
      <trkpt lat="45.1314" lon="5.92121">
        <ele>2077</ele>
        <time>2021-01-06T11:45:57.000Z</time>
      </trkpt>
      <trkpt lat="45.13142" lon="5.92122">
        <ele>2077.3999023438</ele>
        <time>2021-01-06T11:46:00.000Z</time>
      </trkpt>
      <trkpt lat="45.13143" lon="5.92123">
        <ele>2077.6000976562</ele>
        <time>2021-01-06T11:46:02.000Z</time>
      </trkpt>
      <trkpt lat="45.13146" lon="5.92124">
        <ele>2078</ele>
        <time>2021-01-06T11:46:06.000Z</time>
      </trkpt>
      <trkpt lat="45.13147" lon="5.92125">
        <ele>2078.3999023438</ele>
        <time>2021-01-06T11:46:08.000Z</time>
      </trkpt>
      <trkpt lat="45.13149" lon="5.92127">
        <ele>2079.1999511719</ele>
        <time>2021-01-06T11:46:11.000Z</time>
      </trkpt>
      <trkpt lat="45.13152" lon="5.92129">
        <ele>2079.6000976562</ele>
        <time>2021-01-06T11:46:14.000Z</time>
      </trkpt>
      <trkpt lat="45.13153" lon="5.92131">
        <ele>2080.1999511719</ele>
        <time>2021-01-06T11:46:17.000Z</time>
      </trkpt>
      <trkpt lat="45.13155" lon="5.92132">
        <ele>2081.1999511719</ele>
        <time>2021-01-06T11:46:20.000Z</time>
      </trkpt>
      <trkpt lat="45.13158" lon="5.92135">
        <ele>2082.1999511719</ele>
        <time>2021-01-06T11:46:25.000Z</time>
      </trkpt>
      <trkpt lat="45.13158" lon="5.92135">
        <ele>2082.3999023438</ele>
        <time>2021-01-06T11:46:26.000Z</time>
      </trkpt>
      <trkpt lat="45.1316" lon="5.92138">
        <ele>2083</ele>
        <time>2021-01-06T11:46:30.000Z</time>
      </trkpt>
      <trkpt lat="45.13161" lon="5.92138">
        <ele>2083.1999511719</ele>
        <time>2021-01-06T11:46:31.000Z</time>
      </trkpt>
      <trkpt lat="45.13162" lon="5.9214">
        <ele>2083.6000976562</ele>
        <time>2021-01-06T11:46:33.000Z</time>
      </trkpt>
      <trkpt lat="45.13165" lon="5.92142">
        <ele>2084.3999023438</ele>
        <time>2021-01-06T11:46:38.000Z</time>
      </trkpt>
      <trkpt lat="45.13165" lon="5.92143">
        <ele>2084.6000976562</ele>
        <time>2021-01-06T11:46:39.000Z</time>
      </trkpt>
      <trkpt lat="45.13165" lon="5.92144">
        <ele>2085.1999511719</ele>
        <time>2021-01-06T11:46:43.000Z</time>
      </trkpt>
      <trkpt lat="45.13165" lon="5.92144">
        <ele>2085.6000976562</ele>
        <time>2021-01-06T11:46:44.000Z</time>
      </trkpt>
      <trkpt lat="45.13161" lon="5.92142">
        <ele>2086.1999511719</ele>
        <time>2021-01-06T11:46:50.000Z</time>
      </trkpt>
      <trkpt lat="45.13158" lon="5.92143">
        <ele>2086.6000976562</ele>
        <time>2021-01-06T11:46:54.000Z</time>
      </trkpt>
      <trkpt lat="45.13157" lon="5.92144">
        <ele>2087.1999511719</ele>
        <time>2021-01-06T11:46:56.000Z</time>
      </trkpt>
      <trkpt lat="45.13155" lon="5.92144">
        <ele>2087.8000488281</ele>
        <time>2021-01-06T11:46:58.000Z</time>
      </trkpt>
      <trkpt lat="45.13152" lon="5.92144">
        <ele>2088.6000976562</ele>
        <time>2021-01-06T11:47:02.000Z</time>
      </trkpt>
      <trkpt lat="45.13152" lon="5.92144">
        <ele>2088.8000488281</ele>
        <time>2021-01-06T11:47:03.000Z</time>
      </trkpt>
      <trkpt lat="45.13151" lon="5.92144">
        <ele>2089.8000488281</ele>
        <time>2021-01-06T11:47:07.000Z</time>
      </trkpt>
      <trkpt lat="45.13151" lon="5.92144">
        <ele>2090.1999511719</ele>
        <time>2021-01-06T11:47:08.000Z</time>
      </trkpt>
      <trkpt lat="45.13152" lon="5.92147">
        <ele>2090.8000488281</ele>
        <time>2021-01-06T11:47:13.000Z</time>
      </trkpt>
      <trkpt lat="45.13153" lon="5.92148">
        <ele>2090.8000488281</ele>
        <time>2021-01-06T11:47:14.000Z</time>
      </trkpt>
      <trkpt lat="45.13153" lon="5.92148">
        <ele>2091</ele>
        <time>2021-01-06T11:47:15.000Z</time>
      </trkpt>
      <trkpt lat="45.13155" lon="5.92152">
        <ele>2091.6000976562</ele>
        <time>2021-01-06T11:47:20.000Z</time>
      </trkpt>
      <trkpt lat="45.13156" lon="5.92153">
        <ele>2092</ele>
        <time>2021-01-06T11:47:22.000Z</time>
      </trkpt>
      <trkpt lat="45.13158" lon="5.92157">
        <ele>2093</ele>
        <time>2021-01-06T11:47:26.000Z</time>
      </trkpt>
      <trkpt lat="45.13158" lon="5.92157">
        <ele>2093.1999511719</ele>
        <time>2021-01-06T11:47:27.000Z</time>
      </trkpt>
      <trkpt lat="45.1316" lon="5.92161">
        <ele>2094.3999023438</ele>
        <time>2021-01-06T11:47:32.000Z</time>
      </trkpt>
      <trkpt lat="45.13161" lon="5.92162">
        <ele>2094.6000976562</ele>
        <time>2021-01-06T11:47:33.000Z</time>
      </trkpt>
      <trkpt lat="45.13163" lon="5.92166">
        <ele>2095.3999023438</ele>
        <time>2021-01-06T11:47:38.000Z</time>
      </trkpt>
      <trkpt lat="45.13163" lon="5.92167">
        <ele>2096.3999023438</ele>
        <time>2021-01-06T11:47:43.000Z</time>
      </trkpt>
      <trkpt lat="45.13162" lon="5.92167">
        <ele>2096.6000976562</ele>
        <time>2021-01-06T11:47:44.000Z</time>
      </trkpt>
      <trkpt lat="45.13159" lon="5.92168">
        <ele>2097.1999511719</ele>
        <time>2021-01-06T11:47:48.000Z</time>
      </trkpt>
      <trkpt lat="45.13157" lon="5.92169">
        <ele>2097.6000976562</ele>
        <time>2021-01-06T11:47:51.000Z</time>
      </trkpt>
      <trkpt lat="45.13155" lon="5.92169">
        <ele>2098.1999511719</ele>
        <time>2021-01-06T11:47:54.000Z</time>
      </trkpt>
      <trkpt lat="45.13154" lon="5.92169">
        <ele>2098.8000488281</ele>
        <time>2021-01-06T11:47:56.000Z</time>
      </trkpt>
      <trkpt lat="45.13149" lon="5.92169">
        <ele>2099.8000488281</ele>
        <time>2021-01-06T11:48:02.000Z</time>
      </trkpt>
      <trkpt lat="45.13148" lon="5.9217">
        <ele>2100</ele>
        <time>2021-01-06T11:48:03.000Z</time>
      </trkpt>
      <trkpt lat="45.13146" lon="5.92169">
        <ele>2101</ele>
        <time>2021-01-06T11:48:07.000Z</time>
      </trkpt>
      <trkpt lat="45.13145" lon="5.9217">
        <ele>2101.1999511719</ele>
        <time>2021-01-06T11:48:08.000Z</time>
      </trkpt>
      <trkpt lat="45.13145" lon="5.9217">
        <ele>2102.1999511719</ele>
        <time>2021-01-06T11:48:12.000Z</time>
      </trkpt>
      <trkpt lat="45.13147" lon="5.92174">
        <ele>2102.6000976562</ele>
        <time>2021-01-06T11:48:17.000Z</time>
      </trkpt>
      <trkpt lat="45.13148" lon="5.92176">
        <ele>2103.1999511719</ele>
        <time>2021-01-06T11:48:20.000Z</time>
      </trkpt>
      <trkpt lat="45.13149" lon="5.92178">
        <ele>2103.8000488281</ele>
        <time>2021-01-06T11:48:22.000Z</time>
      </trkpt>
      <trkpt lat="45.1315" lon="5.9218">
        <ele>2104.3999023438</ele>
        <time>2021-01-06T11:48:25.000Z</time>
      </trkpt>
      <trkpt lat="45.13151" lon="5.92183">
        <ele>2105.1999511719</ele>
        <time>2021-01-06T11:48:28.000Z</time>
      </trkpt>
      <trkpt lat="45.13153" lon="5.92184">
        <ele>2105.6000976562</ele>
        <time>2021-01-06T11:48:30.000Z</time>
      </trkpt>
      <trkpt lat="45.13154" lon="5.92187">
        <ele>2106.1999511719</ele>
        <time>2021-01-06T11:48:34.000Z</time>
      </trkpt>
      <trkpt lat="45.13155" lon="5.92188">
        <ele>2106.6000976562</ele>
        <time>2021-01-06T11:48:36.000Z</time>
      </trkpt>
      <trkpt lat="45.13158" lon="5.92192">
        <ele>2107.8000488281</ele>
        <time>2021-01-06T11:48:41.000Z</time>
      </trkpt>
      <trkpt lat="45.13157" lon="5.92192">
        <ele>2108.8000488281</ele>
        <time>2021-01-06T11:48:45.000Z</time>
      </trkpt>
      <trkpt lat="45.13157" lon="5.92192">
        <ele>2108.8000488281</ele>
        <time>2021-01-06T11:48:46.000Z</time>
      </trkpt>
      <trkpt lat="45.13155" lon="5.92192">
        <ele>2109.1999511719</ele>
        <time>2021-01-06T11:48:50.000Z</time>
      </trkpt>
      <trkpt lat="45.13154" lon="5.92192">
        <ele>2109.1999511719</ele>
        <time>2021-01-06T11:48:51.000Z</time>
      </trkpt>
      <trkpt lat="45.1315" lon="5.92191">
        <ele>2109.8000488281</ele>
        <time>2021-01-06T11:48:57.000Z</time>
      </trkpt>
      <trkpt lat="45.13149" lon="5.92191">
        <ele>2110</ele>
        <time>2021-01-06T11:48:58.000Z</time>
      </trkpt>
      <trkpt lat="45.13146" lon="5.92191">
        <ele>2111</ele>
        <time>2021-01-06T11:49:03.000Z</time>
      </trkpt>
      <trkpt lat="45.13145" lon="5.92191">
        <ele>2111.1999511719</ele>
        <time>2021-01-06T11:49:04.000Z</time>
      </trkpt>
      <trkpt lat="45.13141" lon="5.92192">
        <ele>2112.3999023438</ele>
        <time>2021-01-06T11:49:09.000Z</time>
      </trkpt>
      <trkpt lat="45.1314" lon="5.92191">
        <ele>2112.3999023438</ele>
        <time>2021-01-06T11:49:10.000Z</time>
      </trkpt>
      <trkpt lat="45.13139" lon="5.92191">
        <ele>2113</ele>
        <time>2021-01-06T11:49:15.000Z</time>
      </trkpt>
      <trkpt lat="45.13136" lon="5.92191">
        <ele>2113.3999023438</ele>
        <time>2021-01-06T11:49:19.000Z</time>
      </trkpt>
      <trkpt lat="45.13134" lon="5.92192">
        <ele>2113.6000976562</ele>
        <time>2021-01-06T11:49:21.000Z</time>
      </trkpt>
      <trkpt lat="45.13132" lon="5.92192">
        <ele>2114.3999023438</ele>
        <time>2021-01-06T11:49:25.000Z</time>
      </trkpt>
      <trkpt lat="45.13131" lon="5.92192">
        <ele>2114.8000488281</ele>
        <time>2021-01-06T11:49:27.000Z</time>
      </trkpt>
      <trkpt lat="45.13129" lon="5.92192">
        <ele>2115.6000976562</ele>
        <time>2021-01-06T11:49:30.000Z</time>
      </trkpt>
      <trkpt lat="45.1313" lon="5.92192">
        <ele>2116.3999023438</ele>
        <time>2021-01-06T11:49:34.000Z</time>
      </trkpt>
      <trkpt lat="45.1313" lon="5.92192">
        <ele>2116.6000976562</ele>
        <time>2021-01-06T11:49:36.000Z</time>
      </trkpt>
      <trkpt lat="45.13127" lon="5.92192">
        <ele>2116.8000488281</ele>
        <time>2021-01-06T11:49:44.000Z</time>
      </trkpt>
      <trkpt lat="45.13123" lon="5.92195">
        <ele>2117.6000976562</ele>
        <time>2021-01-06T11:49:50.000Z</time>
      </trkpt>
      <trkpt lat="45.13123" lon="5.92196">
        <ele>2117.8000488281</ele>
        <time>2021-01-06T11:49:51.000Z</time>
      </trkpt>
      <trkpt lat="45.1312" lon="5.922">
        <ele>2118.8000488281</ele>
        <time>2021-01-06T11:49:57.000Z</time>
      </trkpt>
      <trkpt lat="45.13119" lon="5.922">
        <ele>2119</ele>
        <time>2021-01-06T11:49:58.000Z</time>
      </trkpt>
      <trkpt lat="45.13117" lon="5.92204">
        <ele>2120</ele>
        <time>2021-01-06T11:50:03.000Z</time>
      </trkpt>
      <trkpt lat="45.13116" lon="5.92205">
        <ele>2120.1999511719</ele>
        <time>2021-01-06T11:50:05.000Z</time>
      </trkpt>
      <trkpt lat="45.13114" lon="5.92208">
        <ele>2121</ele>
        <time>2021-01-06T11:50:09.000Z</time>
      </trkpt>
      <trkpt lat="45.13112" lon="5.9221">
        <ele>2121.8000488281</ele>
        <time>2021-01-06T11:50:12.000Z</time>
      </trkpt>
      <trkpt lat="45.13111" lon="5.92212">
        <ele>2122.1999511719</ele>
        <time>2021-01-06T11:50:15.000Z</time>
      </trkpt>
      <trkpt lat="45.13109" lon="5.92215">
        <ele>2122.8000488281</ele>
        <time>2021-01-06T11:50:19.000Z</time>
      </trkpt>
      <trkpt lat="45.13108" lon="5.92216">
        <ele>2123.3999023438</ele>
        <time>2021-01-06T11:50:21.000Z</time>
      </trkpt>
      <trkpt lat="45.13105" lon="5.92219">
        <ele>2124.1999511719</ele>
        <time>2021-01-06T11:50:26.000Z</time>
      </trkpt>
      <trkpt lat="45.13104" lon="5.92219">
        <ele>2124.6000976562</ele>
        <time>2021-01-06T11:50:28.000Z</time>
      </trkpt>
      <trkpt lat="45.13102" lon="5.9222">
        <ele>2125.6000976562</ele>
        <time>2021-01-06T11:50:32.000Z</time>
      </trkpt>
      <trkpt lat="45.13102" lon="5.9222">
        <ele>2125.8000488281</ele>
        <time>2021-01-06T11:50:33.000Z</time>
      </trkpt>
      <trkpt lat="45.13099" lon="5.92224">
        <ele>2127</ele>
        <time>2021-01-06T11:50:38.000Z</time>
      </trkpt>
      <trkpt lat="45.131" lon="5.92225">
        <ele>2127.1999511719</ele>
        <time>2021-01-06T11:50:39.000Z</time>
      </trkpt>
      <trkpt lat="45.131" lon="5.92229">
        <ele>2128</ele>
        <time>2021-01-06T11:50:43.000Z</time>
      </trkpt>
      <trkpt lat="45.131" lon="5.92231">
        <ele>2128.8000488281</ele>
        <time>2021-01-06T11:50:45.000Z</time>
      </trkpt>
      <trkpt lat="45.13102" lon="5.92234">
        <ele>2129.1999511719</ele>
        <time>2021-01-06T11:50:48.000Z</time>
      </trkpt>
      <trkpt lat="45.13103" lon="5.92236">
        <ele>2129.6000976562</ele>
        <time>2021-01-06T11:50:51.000Z</time>
      </trkpt>
      <trkpt lat="45.13105" lon="5.92239">
        <ele>2130.1999511719</ele>
        <time>2021-01-06T11:50:55.000Z</time>
      </trkpt>
      <trkpt lat="45.13107" lon="5.92242">
        <ele>2130.6000976562</ele>
        <time>2021-01-06T11:50:58.000Z</time>
      </trkpt>
      <trkpt lat="45.13109" lon="5.92244">
        <ele>2131.3999023438</ele>
        <time>2021-01-06T11:51:02.000Z</time>
      </trkpt>
      <trkpt lat="45.13109" lon="5.92245">
        <ele>2131.8000488281</ele>
        <time>2021-01-06T11:51:04.000Z</time>
      </trkpt>
      <trkpt lat="45.13108" lon="5.92246">
        <ele>2132.6000976562</ele>
        <time>2021-01-06T11:51:08.000Z</time>
      </trkpt>
      <trkpt lat="45.13108" lon="5.92247">
        <ele>2133.1999511719</ele>
        <time>2021-01-06T11:51:09.000Z</time>
      </trkpt>
      <trkpt lat="45.13106" lon="5.92249">
        <ele>2133.8000488281</ele>
        <time>2021-01-06T11:51:12.000Z</time>
      </trkpt>
      <trkpt lat="45.13105" lon="5.9225">
        <ele>2134.1999511719</ele>
        <time>2021-01-06T11:51:15.000Z</time>
      </trkpt>
      <trkpt lat="45.13102" lon="5.92252">
        <ele>2134.8000488281</ele>
        <time>2021-01-06T11:51:19.000Z</time>
      </trkpt>
      <trkpt lat="45.13102" lon="5.92253">
        <ele>2135.1999511719</ele>
        <time>2021-01-06T11:51:21.000Z</time>
      </trkpt>
      <trkpt lat="45.131" lon="5.92253">
        <ele>2135.8000488281</ele>
        <time>2021-01-06T11:51:24.000Z</time>
      </trkpt>
      <trkpt lat="45.13098" lon="5.92254">
        <ele>2136.3999023438</ele>
        <time>2021-01-06T11:51:27.000Z</time>
      </trkpt>
      <trkpt lat="45.13097" lon="5.92255">
        <ele>2137</ele>
        <time>2021-01-06T11:51:30.000Z</time>
      </trkpt>
      <trkpt lat="45.13096" lon="5.92257">
        <ele>2137.3999023438</ele>
        <time>2021-01-06T11:51:32.000Z</time>
      </trkpt>
      <trkpt lat="45.13095" lon="5.92257">
        <ele>2138.1999511719</ele>
        <time>2021-01-06T11:51:34.000Z</time>
      </trkpt>
      <trkpt lat="45.13092" lon="5.92258">
        <ele>2139.1999511719</ele>
        <time>2021-01-06T11:51:39.000Z</time>
      </trkpt>
      <trkpt lat="45.13092" lon="5.92259">
        <ele>2139.3999023438</ele>
        <time>2021-01-06T11:51:40.000Z</time>
      </trkpt>
      <trkpt lat="45.13089" lon="5.9226">
        <ele>2140.3999023438</ele>
        <time>2021-01-06T11:51:45.000Z</time>
      </trkpt>
      <trkpt lat="45.13088" lon="5.9226">
        <ele>2140.6000976562</ele>
        <time>2021-01-06T11:51:47.000Z</time>
      </trkpt>
      <trkpt lat="45.13086" lon="5.92261">
        <ele>2141</ele>
        <time>2021-01-06T11:51:49.000Z</time>
      </trkpt>
      <trkpt lat="45.13086" lon="5.92262">
        <ele>2141.3999023438</ele>
        <time>2021-01-06T11:51:51.000Z</time>
      </trkpt>
      <trkpt lat="45.13086" lon="5.92263">
        <ele>2141.6000976562</ele>
        <time>2021-01-06T11:51:52.000Z</time>
      </trkpt>
      <trkpt lat="45.13087" lon="5.92266">
        <ele>2142.3999023438</ele>
        <time>2021-01-06T11:51:56.000Z</time>
      </trkpt>
      <trkpt lat="45.13088" lon="5.92267">
        <ele>2143.1999511719</ele>
        <time>2021-01-06T11:51:58.000Z</time>
      </trkpt>
      <trkpt lat="45.13088" lon="5.92268">
        <ele>2143.3999023438</ele>
        <time>2021-01-06T11:51:59.000Z</time>
      </trkpt>
      <trkpt lat="45.13092" lon="5.92272">
        <ele>2144.3999023438</ele>
        <time>2021-01-06T11:52:05.000Z</time>
      </trkpt>
      <trkpt lat="45.13092" lon="5.92273">
        <ele>2144.6000976562</ele>
        <time>2021-01-06T11:52:06.000Z</time>
      </trkpt>
      <trkpt lat="45.13095" lon="5.92276">
        <ele>2145.3999023438</ele>
        <time>2021-01-06T11:52:11.000Z</time>
      </trkpt>
      <trkpt lat="45.13095" lon="5.92278">
        <ele>2145.6000976562</ele>
        <time>2021-01-06T11:52:13.000Z</time>
      </trkpt>
      <trkpt lat="45.13096" lon="5.92279">
        <ele>2145.8000488281</ele>
        <time>2021-01-06T11:52:14.000Z</time>
      </trkpt>
      <trkpt lat="45.13097" lon="5.92281">
        <ele>2146.6000976562</ele>
        <time>2021-01-06T11:52:18.000Z</time>
      </trkpt>
      <trkpt lat="45.13098" lon="5.92282">
        <ele>2146.8000488281</ele>
        <time>2021-01-06T11:52:19.000Z</time>
      </trkpt>
      <trkpt lat="45.13099" lon="5.92285">
        <ele>2147.6000976562</ele>
        <time>2021-01-06T11:52:25.000Z</time>
      </trkpt>
      <trkpt lat="45.13099" lon="5.92286">
        <ele>2147.8000488281</ele>
        <time>2021-01-06T11:52:29.000Z</time>
      </trkpt>
      <trkpt lat="45.13101" lon="5.92286">
        <ele>2148.1999511719</ele>
        <time>2021-01-06T11:52:31.000Z</time>
      </trkpt>
      <trkpt lat="45.13101" lon="5.92288">
        <ele>2148.3999023438</ele>
        <time>2021-01-06T11:52:32.000Z</time>
      </trkpt>
      <trkpt lat="45.13103" lon="5.92291">
        <ele>2148.8000488281</ele>
        <time>2021-01-06T11:52:36.000Z</time>
      </trkpt>
      <trkpt lat="45.13103" lon="5.92292">
        <ele>2149</ele>
        <time>2021-01-06T11:52:37.000Z</time>
      </trkpt>
      <trkpt lat="45.13105" lon="5.92295">
        <ele>2150</ele>
        <time>2021-01-06T11:52:42.000Z</time>
      </trkpt>
      <trkpt lat="45.13105" lon="5.92295">
        <ele>2150.1999511719</ele>
        <time>2021-01-06T11:52:43.000Z</time>
      </trkpt>
      <trkpt lat="45.13107" lon="5.923">
        <ele>2151.3999023438</ele>
        <time>2021-01-06T11:52:48.000Z</time>
      </trkpt>
      <trkpt lat="45.13108" lon="5.92302">
        <ele>2151.8000488281</ele>
        <time>2021-01-06T11:52:50.000Z</time>
      </trkpt>
      <trkpt lat="45.13109" lon="5.92304">
        <ele>2152.6000976562</ele>
        <time>2021-01-06T11:52:53.000Z</time>
      </trkpt>
      <trkpt lat="45.13109" lon="5.92304">
        <ele>2152.8000488281</ele>
        <time>2021-01-06T11:52:54.000Z</time>
      </trkpt>
      <trkpt lat="45.13109" lon="5.92307">
        <ele>2153.8000488281</ele>
        <time>2021-01-06T11:52:58.000Z</time>
      </trkpt>
      <trkpt lat="45.1311" lon="5.92308">
        <ele>2154.3999023438</ele>
        <time>2021-01-06T11:53:00.000Z</time>
      </trkpt>
      <trkpt lat="45.1311" lon="5.9231">
        <ele>2155</ele>
        <time>2021-01-06T11:53:03.000Z</time>
      </trkpt>
      <trkpt lat="45.1311" lon="5.92311">
        <ele>2155.8000488281</ele>
        <time>2021-01-06T11:53:07.000Z</time>
      </trkpt>
      <trkpt lat="45.1311" lon="5.92311">
        <ele>2156</ele>
        <time>2021-01-06T11:53:08.000Z</time>
      </trkpt>
      <trkpt lat="45.1311" lon="5.92312">
        <ele>2156.3999023438</ele>
        <time>2021-01-06T11:53:17.000Z</time>
      </trkpt>
      <trkpt lat="45.13109" lon="5.92312">
        <ele>2157</ele>
        <time>2021-01-06T11:53:21.000Z</time>
      </trkpt>
      <trkpt lat="45.13106" lon="5.92311">
        <ele>2157.1999511719</ele>
        <time>2021-01-06T11:53:24.000Z</time>
      </trkpt>
      <trkpt lat="45.13104" lon="5.9231">
        <ele>2157.3999023438</ele>
        <time>2021-01-06T11:53:28.000Z</time>
      </trkpt>
      <trkpt lat="45.13103" lon="5.92309">
        <ele>2157.3999023438</ele>
        <time>2021-01-06T11:53:29.000Z</time>
      </trkpt>
      <trkpt lat="45.13102" lon="5.92311">
        <ele>2158</ele>
        <time>2021-01-06T11:53:34.000Z</time>
      </trkpt>
      <trkpt lat="45.13102" lon="5.92312">
        <ele>2158.8000488281</ele>
        <time>2021-01-06T11:53:46.000Z</time>
      </trkpt>
      <trkpt lat="45.13103" lon="5.92313">
        <ele>2159.1999511719</ele>
        <time>2021-01-06T11:53:49.000Z</time>
      </trkpt>
      <trkpt lat="45.13103" lon="5.92316">
        <ele>2159.6000976562</ele>
        <time>2021-01-06T11:53:52.000Z</time>
      </trkpt>
      <trkpt lat="45.13104" lon="5.9232">
        <ele>2160.1999511719</ele>
        <time>2021-01-06T11:53:55.000Z</time>
      </trkpt>
      <trkpt lat="45.13105" lon="5.92322">
        <ele>2160.8000488281</ele>
        <time>2021-01-06T11:53:59.000Z</time>
      </trkpt>
      <trkpt lat="45.13105" lon="5.92322">
        <ele>2161.1999511719</ele>
        <time>2021-01-06T11:54:01.000Z</time>
      </trkpt>
      <trkpt lat="45.13106" lon="5.92322">
        <ele>2161.6000976562</ele>
        <time>2021-01-06T11:54:11.000Z</time>
      </trkpt>
      <trkpt lat="45.13107" lon="5.9233">
        <ele>2162.3999023438</ele>
        <time>2021-01-06T11:54:18.000Z</time>
      </trkpt>
      <trkpt lat="45.1311" lon="5.92335">
        <ele>2163.1999511719</ele>
        <time>2021-01-06T11:54:22.000Z</time>
      </trkpt>
      <trkpt lat="45.1311" lon="5.92335">
        <ele>2163.3999023438</ele>
        <time>2021-01-06T11:54:23.000Z</time>
      </trkpt>
      <trkpt lat="45.13111" lon="5.92337">
        <ele>2163.6000976562</ele>
        <time>2021-01-06T11:54:24.000Z</time>
      </trkpt>
      <trkpt lat="45.13111" lon="5.92339">
        <ele>2164</ele>
        <time>2021-01-06T11:54:26.000Z</time>
      </trkpt>
      <trkpt lat="45.13113" lon="5.92344">
        <ele>2164.6000976562</ele>
        <time>2021-01-06T11:54:30.000Z</time>
      </trkpt>
      <trkpt lat="45.13114" lon="5.92346">
        <ele>2165.6000976562</ele>
        <time>2021-01-06T11:54:35.000Z</time>
      </trkpt>
      <trkpt lat="45.13115" lon="5.92347">
        <ele>2166</ele>
        <time>2021-01-06T11:54:36.000Z</time>
      </trkpt>
      <trkpt lat="45.13116" lon="5.92351">
        <ele>2166.8000488281</ele>
        <time>2021-01-06T11:54:40.000Z</time>
      </trkpt>
      <trkpt lat="45.13117" lon="5.92353">
        <ele>2167.1999511719</ele>
        <time>2021-01-06T11:54:42.000Z</time>
      </trkpt>
      <trkpt lat="45.13119" lon="5.92356">
        <ele>2167.8000488281</ele>
        <time>2021-01-06T11:54:46.000Z</time>
      </trkpt>
      <trkpt lat="45.13119" lon="5.92358">
        <ele>2168.1999511719</ele>
        <time>2021-01-06T11:54:49.000Z</time>
      </trkpt>
      <trkpt lat="45.13121" lon="5.92363">
        <ele>2169</ele>
        <time>2021-01-06T11:54:54.000Z</time>
      </trkpt>
      <trkpt lat="45.13121" lon="5.92364">
        <ele>2169</ele>
        <time>2021-01-06T11:54:55.000Z</time>
      </trkpt>
      <trkpt lat="45.13123" lon="5.92368">
        <ele>2170</ele>
        <time>2021-01-06T11:55:00.000Z</time>
      </trkpt>
      <trkpt lat="45.13123" lon="5.92369">
        <ele>2170</ele>
        <time>2021-01-06T11:55:01.000Z</time>
      </trkpt>
      <trkpt lat="45.13126" lon="5.92375">
        <ele>2170.8000488281</ele>
        <time>2021-01-06T11:55:08.000Z</time>
      </trkpt>
      <trkpt lat="45.13127" lon="5.92375">
        <ele>2171.1999511719</ele>
        <time>2021-01-06T11:55:09.000Z</time>
      </trkpt>
      <trkpt lat="45.1313" lon="5.92379">
        <ele>2172</ele>
        <time>2021-01-06T11:55:15.000Z</time>
      </trkpt>
      <trkpt lat="45.13131" lon="5.9238">
        <ele>2172.1999511719</ele>
        <time>2021-01-06T11:55:17.000Z</time>
      </trkpt>
      <trkpt lat="45.13132" lon="5.92382">
        <ele>2172.8000488281</ele>
        <time>2021-01-06T11:55:20.000Z</time>
      </trkpt>
      <trkpt lat="45.13133" lon="5.92382">
        <ele>2173</ele>
        <time>2021-01-06T11:55:21.000Z</time>
      </trkpt>
      <trkpt lat="45.13133" lon="5.92384">
        <ele>2173.3999023438</ele>
        <time>2021-01-06T11:55:23.000Z</time>
      </trkpt>
      <trkpt lat="45.13132" lon="5.92387">
        <ele>2174.1999511719</ele>
        <time>2021-01-06T11:55:27.000Z</time>
      </trkpt>
      <trkpt lat="45.13132" lon="5.92388">
        <ele>2174.3999023438</ele>
        <time>2021-01-06T11:55:28.000Z</time>
      </trkpt>
      <trkpt lat="45.13132" lon="5.92392">
        <ele>2175.8000488281</ele>
        <time>2021-01-06T11:55:33.000Z</time>
      </trkpt>
      <trkpt lat="45.13132" lon="5.92393">
        <ele>2176</ele>
        <time>2021-01-06T11:55:34.000Z</time>
      </trkpt>
      <trkpt lat="45.13132" lon="5.92397">
        <ele>2176.8000488281</ele>
        <time>2021-01-06T11:55:38.000Z</time>
      </trkpt>
      <trkpt lat="45.13132" lon="5.92399">
        <ele>2177.1999511719</ele>
        <time>2021-01-06T11:55:40.000Z</time>
      </trkpt>
      <trkpt lat="45.13132" lon="5.92403">
        <ele>2178</ele>
        <time>2021-01-06T11:55:44.000Z</time>
      </trkpt>
      <trkpt lat="45.13132" lon="5.92405">
        <ele>2178.3999023438</ele>
        <time>2021-01-06T11:55:46.000Z</time>
      </trkpt>
      <trkpt lat="45.13131" lon="5.92408">
        <ele>2179.1999511719</ele>
        <time>2021-01-06T11:55:50.000Z</time>
      </trkpt>
      <trkpt lat="45.13131" lon="5.9241">
        <ele>2179.6000976562</ele>
        <time>2021-01-06T11:55:52.000Z</time>
      </trkpt>
      <trkpt lat="45.13132" lon="5.92414">
        <ele>2180.1999511719</ele>
        <time>2021-01-06T11:55:56.000Z</time>
      </trkpt>
      <trkpt lat="45.13132" lon="5.92416">
        <ele>2181</ele>
        <time>2021-01-06T11:55:58.000Z</time>
      </trkpt>
      <trkpt lat="45.13132" lon="5.92418">
        <ele>2181.3999023438</ele>
        <time>2021-01-06T11:56:00.000Z</time>
      </trkpt>
      <trkpt lat="45.13132" lon="5.92421">
        <ele>2182.1999511719</ele>
        <time>2021-01-06T11:56:04.000Z</time>
      </trkpt>
      <trkpt lat="45.13132" lon="5.92422">
        <ele>2182.3999023438</ele>
        <time>2021-01-06T11:56:05.000Z</time>
      </trkpt>
      <trkpt lat="45.13132" lon="5.92427">
        <ele>2183.3999023438</ele>
        <time>2021-01-06T11:56:10.000Z</time>
      </trkpt>
      <trkpt lat="45.13132" lon="5.92427">
        <ele>2183.6000976562</ele>
        <time>2021-01-06T11:56:11.000Z</time>
      </trkpt>
      <trkpt lat="45.13133" lon="5.92431">
        <ele>2185</ele>
        <time>2021-01-06T11:56:16.000Z</time>
      </trkpt>
      <trkpt lat="45.13133" lon="5.92434">
        <ele>2185.3999023438</ele>
        <time>2021-01-06T11:56:18.000Z</time>
      </trkpt>
      <trkpt lat="45.13133" lon="5.92436">
        <ele>2186.1999511719</ele>
        <time>2021-01-06T11:56:21.000Z</time>
      </trkpt>
      <trkpt lat="45.13133" lon="5.92437">
        <ele>2186.3999023438</ele>
        <time>2021-01-06T11:56:22.000Z</time>
      </trkpt>
      <trkpt lat="45.13132" lon="5.9244">
        <ele>2187.3999023438</ele>
        <time>2021-01-06T11:56:26.000Z</time>
      </trkpt>
      <trkpt lat="45.13131" lon="5.92443">
        <ele>2188</ele>
        <time>2021-01-06T11:56:29.000Z</time>
      </trkpt>
      <trkpt lat="45.1313" lon="5.92443">
        <ele>2188.3999023438</ele>
        <time>2021-01-06T11:56:31.000Z</time>
      </trkpt>
      <trkpt lat="45.13128" lon="5.92445">
        <ele>2189.3999023438</ele>
        <time>2021-01-06T11:56:36.000Z</time>
      </trkpt>
      <trkpt lat="45.13127" lon="5.92446">
        <ele>2189.6000976562</ele>
        <time>2021-01-06T11:56:37.000Z</time>
      </trkpt>
      <trkpt lat="45.13127" lon="5.92446">
        <ele>2189.8000488281</ele>
        <time>2021-01-06T11:56:38.000Z</time>
      </trkpt>
      <trkpt lat="45.13127" lon="5.9245">
        <ele>2190.3999023438</ele>
        <time>2021-01-06T11:56:42.000Z</time>
      </trkpt>
      <trkpt lat="45.13127" lon="5.92451">
        <ele>2190.6000976562</ele>
        <time>2021-01-06T11:56:43.000Z</time>
      </trkpt>
      <trkpt lat="45.13128" lon="5.92455">
        <ele>2191.8000488281</ele>
        <time>2021-01-06T11:56:48.000Z</time>
      </trkpt>
      <trkpt lat="45.13129" lon="5.92455">
        <ele>2192</ele>
        <time>2021-01-06T11:56:49.000Z</time>
      </trkpt>
      <trkpt lat="45.1313" lon="5.9246">
        <ele>2192.8000488281</ele>
        <time>2021-01-06T11:56:54.000Z</time>
      </trkpt>
      <trkpt lat="45.1313" lon="5.92462">
        <ele>2193.1999511719</ele>
        <time>2021-01-06T11:56:56.000Z</time>
      </trkpt>
      <trkpt lat="45.13131" lon="5.92465">
        <ele>2193.8000488281</ele>
        <time>2021-01-06T11:57:00.000Z</time>
      </trkpt>
      <trkpt lat="45.1313" lon="5.92466">
        <ele>2194.1999511719</ele>
        <time>2021-01-06T11:57:01.000Z</time>
      </trkpt>
      <trkpt lat="45.13129" lon="5.92467">
        <ele>2195</ele>
        <time>2021-01-06T11:57:05.000Z</time>
      </trkpt>
      <trkpt lat="45.13127" lon="5.92468">
        <ele>2196</ele>
        <time>2021-01-06T11:57:08.000Z</time>
      </trkpt>
      <trkpt lat="45.13127" lon="5.92469">
        <ele>2196.3999023438</ele>
        <time>2021-01-06T11:57:09.000Z</time>
      </trkpt>
      <trkpt lat="45.13126" lon="5.9247">
        <ele>2197</ele>
        <time>2021-01-06T11:57:13.000Z</time>
      </trkpt>
      <trkpt lat="45.13126" lon="5.9247">
        <ele>2197.3999023438</ele>
        <time>2021-01-06T11:57:15.000Z</time>
      </trkpt>
      <trkpt lat="45.13126" lon="5.92473">
        <ele>2198</ele>
        <time>2021-01-06T11:57:19.000Z</time>
      </trkpt>
      <trkpt lat="45.13127" lon="5.92475">
        <ele>2198.3999023438</ele>
        <time>2021-01-06T11:57:22.000Z</time>
      </trkpt>
      <trkpt lat="45.13128" lon="5.92479">
        <ele>2199.3999023438</ele>
        <time>2021-01-06T11:57:27.000Z</time>
      </trkpt>
      <trkpt lat="45.13128" lon="5.92479">
        <ele>2199.6000976562</ele>
        <time>2021-01-06T11:57:28.000Z</time>
      </trkpt>
      <trkpt lat="45.1313" lon="5.92483">
        <ele>2200.6000976562</ele>
        <time>2021-01-06T11:57:33.000Z</time>
      </trkpt>
      <trkpt lat="45.1313" lon="5.92484">
        <ele>2200.8000488281</ele>
        <time>2021-01-06T11:57:34.000Z</time>
      </trkpt>
      <trkpt lat="45.13131" lon="5.92485">
        <ele>2201.6000976562</ele>
        <time>2021-01-06T11:57:39.000Z</time>
      </trkpt>
      <trkpt lat="45.13132" lon="5.92484">
        <ele>2201.8000488281</ele>
        <time>2021-01-06T11:57:40.000Z</time>
      </trkpt>
      <trkpt lat="45.13135" lon="5.92486">
        <ele>2203</ele>
        <time>2021-01-06T11:57:45.000Z</time>
      </trkpt>
      <trkpt lat="45.13136" lon="5.92487">
        <ele>2203.3999023438</ele>
        <time>2021-01-06T11:57:47.000Z</time>
      </trkpt>
      <trkpt lat="45.13138" lon="5.92489">
        <ele>2204</ele>
        <time>2021-01-06T11:57:51.000Z</time>
      </trkpt>
      <trkpt lat="45.13141" lon="5.92491">
        <ele>2205</ele>
        <time>2021-01-06T11:57:56.000Z</time>
      </trkpt>
      <trkpt lat="45.13141" lon="5.92492">
        <ele>2205.1999511719</ele>
        <time>2021-01-06T11:57:57.000Z</time>
      </trkpt>
      <trkpt lat="45.13142" lon="5.92493">
        <ele>2205.3999023438</ele>
        <time>2021-01-06T11:57:58.000Z</time>
      </trkpt>
      <trkpt lat="45.13145" lon="5.92494">
        <ele>2206.1999511719</ele>
        <time>2021-01-06T11:58:02.000Z</time>
      </trkpt>
      <trkpt lat="45.13146" lon="5.92495">
        <ele>2206.3999023438</ele>
        <time>2021-01-06T11:58:03.000Z</time>
      </trkpt>
      <trkpt lat="45.13149" lon="5.92497">
        <ele>2207.1999511719</ele>
        <time>2021-01-06T11:58:09.000Z</time>
      </trkpt>
      <trkpt lat="45.1315" lon="5.92497">
        <ele>2207.3999023438</ele>
        <time>2021-01-06T11:58:10.000Z</time>
      </trkpt>
      <trkpt lat="45.13153" lon="5.92497">
        <ele>2208.1999511719</ele>
        <time>2021-01-06T11:58:15.000Z</time>
      </trkpt>
      <trkpt lat="45.13154" lon="5.92499">
        <ele>2208.6000976562</ele>
        <time>2021-01-06T11:58:17.000Z</time>
      </trkpt>
      <trkpt lat="45.13155" lon="5.925">
        <ele>2208.8000488281</ele>
        <time>2021-01-06T11:58:18.000Z</time>
      </trkpt>
      <trkpt lat="45.13156" lon="5.92502">
        <ele>2209.8000488281</ele>
        <time>2021-01-06T11:58:21.000Z</time>
      </trkpt>
      <trkpt lat="45.13159" lon="5.925">
        <ele>2210.8000488281</ele>
        <time>2021-01-06T11:58:26.000Z</time>
      </trkpt>
      <trkpt lat="45.13159" lon="5.925">
        <ele>2211</ele>
        <time>2021-01-06T11:58:27.000Z</time>
      </trkpt>
      <trkpt lat="45.13161" lon="5.92498">
        <ele>2212</ele>
        <time>2021-01-06T11:58:32.000Z</time>
      </trkpt>
      <trkpt lat="45.13163" lon="5.92499">
        <ele>2212.3999023438</ele>
        <time>2021-01-06T11:58:34.000Z</time>
      </trkpt>
      <trkpt lat="45.13165" lon="5.925">
        <ele>2213.1999511719</ele>
        <time>2021-01-06T11:58:37.000Z</time>
      </trkpt>
      <trkpt lat="45.13165" lon="5.92501">
        <ele>2213.3999023438</ele>
        <time>2021-01-06T11:58:38.000Z</time>
      </trkpt>
      <trkpt lat="45.13166" lon="5.92504">
        <ele>2214.1999511719</ele>
        <time>2021-01-06T11:58:42.000Z</time>
      </trkpt>
      <trkpt lat="45.13167" lon="5.92506">
        <ele>2215</ele>
        <time>2021-01-06T11:58:45.000Z</time>
      </trkpt>
      <trkpt lat="45.13168" lon="5.92508">
        <ele>2215.1999511719</ele>
        <time>2021-01-06T11:58:48.000Z</time>
      </trkpt>
      <trkpt lat="45.13166" lon="5.92512">
        <ele>2215.8000488281</ele>
        <time>2021-01-06T11:58:52.000Z</time>
      </trkpt>
      <trkpt lat="45.13166" lon="5.92513">
        <ele>2215.8000488281</ele>
        <time>2021-01-06T11:58:53.000Z</time>
      </trkpt>
      <trkpt lat="45.13165" lon="5.92517">
        <ele>2216.3999023438</ele>
        <time>2021-01-06T11:58:57.000Z</time>
      </trkpt>
      <trkpt lat="45.13164" lon="5.92518">
        <ele>2216.8000488281</ele>
        <time>2021-01-06T11:58:59.000Z</time>
      </trkpt>
      <trkpt lat="45.13162" lon="5.92519">
        <ele>2217.3999023438</ele>
        <time>2021-01-06T11:59:03.000Z</time>
      </trkpt>
      <trkpt lat="45.13161" lon="5.92521">
        <ele>2218.1999511719</ele>
        <time>2021-01-06T11:59:07.000Z</time>
      </trkpt>
      <trkpt lat="45.1316" lon="5.92523">
        <ele>2218.8000488281</ele>
        <time>2021-01-06T11:59:09.000Z</time>
      </trkpt>
      <trkpt lat="45.13158" lon="5.92525">
        <ele>2219.6000976562</ele>
        <time>2021-01-06T11:59:13.000Z</time>
      </trkpt>
      <trkpt lat="45.13157" lon="5.92525">
        <ele>2219.8000488281</ele>
        <time>2021-01-06T11:59:14.000Z</time>
      </trkpt>
      <trkpt lat="45.13155" lon="5.92529">
        <ele>2221</ele>
        <time>2021-01-06T11:59:19.000Z</time>
      </trkpt>
      <trkpt lat="45.13152" lon="5.92532">
        <ele>2222</ele>
        <time>2021-01-06T11:59:25.000Z</time>
      </trkpt>
      <trkpt lat="45.13152" lon="5.92534">
        <ele>2222.3999023438</ele>
        <time>2021-01-06T11:59:27.000Z</time>
      </trkpt>
      <trkpt lat="45.1315" lon="5.92537">
        <ele>2223</ele>
        <time>2021-01-06T11:59:31.000Z</time>
      </trkpt>
      <trkpt lat="45.13148" lon="5.92539">
        <ele>2223.6000976562</ele>
        <time>2021-01-06T11:59:34.000Z</time>
      </trkpt>
      <trkpt lat="45.13147" lon="5.92541">
        <ele>2224.1999511719</ele>
        <time>2021-01-06T11:59:37.000Z</time>
      </trkpt>
      <trkpt lat="45.13145" lon="5.92544">
        <ele>2225</ele>
        <time>2021-01-06T11:59:41.000Z</time>
      </trkpt>
      <trkpt lat="45.13144" lon="5.92545">
        <ele>2225.3999023438</ele>
        <time>2021-01-06T11:59:43.000Z</time>
      </trkpt>
      <trkpt lat="45.13143" lon="5.92546">
        <ele>2225.8000488281</ele>
        <time>2021-01-06T11:59:46.000Z</time>
      </trkpt>
      <trkpt lat="45.13142" lon="5.92552">
        <ele>2226.6000976562</ele>
        <time>2021-01-06T11:59:51.000Z</time>
      </trkpt>
      <trkpt lat="45.13143" lon="5.92557">
        <ele>2227</ele>
        <time>2021-01-06T11:59:55.000Z</time>
      </trkpt>
      <trkpt lat="45.13145" lon="5.9256">
        <ele>2227.6000976562</ele>
        <time>2021-01-06T11:59:59.000Z</time>
      </trkpt>
      <trkpt lat="45.13145" lon="5.92563">
        <ele>2227.8000488281</ele>
        <time>2021-01-06T12:00:01.000Z</time>
      </trkpt>
      <trkpt lat="45.13146" lon="5.92568">
        <ele>2228.6000976562</ele>
        <time>2021-01-06T12:00:06.000Z</time>
      </trkpt>
      <trkpt lat="45.13146" lon="5.92571">
        <ele>2229.1999511719</ele>
        <time>2021-01-06T12:00:09.000Z</time>
      </trkpt>
      <trkpt lat="45.13146" lon="5.92573">
        <ele>2229.6000976562</ele>
        <time>2021-01-06T12:00:11.000Z</time>
      </trkpt>
      <trkpt lat="45.13146" lon="5.92574">
        <ele>2229.8000488281</ele>
        <time>2021-01-06T12:00:12.000Z</time>
      </trkpt>
      <trkpt lat="45.13147" lon="5.92577">
        <ele>2230.3999023438</ele>
        <time>2021-01-06T12:00:15.000Z</time>
      </trkpt>
      <trkpt lat="45.13148" lon="5.92578">
        <ele>2230.8000488281</ele>
        <time>2021-01-06T12:00:17.000Z</time>
      </trkpt>
      <trkpt lat="45.13149" lon="5.92582">
        <ele>2232</ele>
        <time>2021-01-06T12:00:22.000Z</time>
      </trkpt>
      <trkpt lat="45.13149" lon="5.92586">
        <ele>2233</ele>
        <time>2021-01-06T12:00:27.000Z</time>
      </trkpt>
      <trkpt lat="45.1315" lon="5.92588">
        <ele>2233.3999023438</ele>
        <time>2021-01-06T12:00:29.000Z</time>
      </trkpt>
      <trkpt lat="45.1315" lon="5.92591">
        <ele>2234.1999511719</ele>
        <time>2021-01-06T12:00:33.000Z</time>
      </trkpt>
      <trkpt lat="45.1315" lon="5.92592">
        <ele>2234.3999023438</ele>
        <time>2021-01-06T12:00:34.000Z</time>
      </trkpt>
      <trkpt lat="45.13149" lon="5.92595">
        <ele>2235.3999023438</ele>
        <time>2021-01-06T12:00:38.000Z</time>
      </trkpt>
      <trkpt lat="45.13148" lon="5.92595">
        <ele>2235.6000976562</ele>
        <time>2021-01-06T12:00:39.000Z</time>
      </trkpt>
      <trkpt lat="45.13149" lon="5.926">
        <ele>2236.6000976562</ele>
        <time>2021-01-06T12:00:43.000Z</time>
      </trkpt>
      <trkpt lat="45.13149" lon="5.926">
        <ele>2236.8000488281</ele>
        <time>2021-01-06T12:00:44.000Z</time>
      </trkpt>
      <trkpt lat="45.13149" lon="5.92602">
        <ele>2237.6000976562</ele>
        <time>2021-01-06T12:00:47.000Z</time>
      </trkpt>
      <trkpt lat="45.1315" lon="5.92605">
        <ele>2238.1999511719</ele>
        <time>2021-01-06T12:00:50.000Z</time>
      </trkpt>
      <trkpt lat="45.1315" lon="5.9261">
        <ele>2238.8000488281</ele>
        <time>2021-01-06T12:00:54.000Z</time>
      </trkpt>
      <trkpt lat="45.1315" lon="5.92612">
        <ele>2239.3999023438</ele>
        <time>2021-01-06T12:00:57.000Z</time>
      </trkpt>
      <trkpt lat="45.1315" lon="5.92616">
        <ele>2239.8000488281</ele>
        <time>2021-01-06T12:01:01.000Z</time>
      </trkpt>
      <trkpt lat="45.1315" lon="5.92619">
        <ele>2240.1999511719</ele>
        <time>2021-01-06T12:01:03.000Z</time>
      </trkpt>
      <trkpt lat="45.1315" lon="5.92624">
        <ele>2241</ele>
        <time>2021-01-06T12:01:09.000Z</time>
      </trkpt>
      <trkpt lat="45.1315" lon="5.92625">
        <ele>2241</ele>
        <time>2021-01-06T12:01:10.000Z</time>
      </trkpt>
      <trkpt lat="45.13148" lon="5.92633">
        <ele>2242</ele>
        <time>2021-01-06T12:01:17.000Z</time>
      </trkpt>
      <trkpt lat="45.13147" lon="5.92642">
        <ele>2242.8000488281</ele>
        <time>2021-01-06T12:01:24.000Z</time>
      </trkpt>
      <trkpt lat="45.13147" lon="5.92647">
        <ele>2243</ele>
        <time>2021-01-06T12:01:27.000Z</time>
      </trkpt>
      <trkpt lat="45.13147" lon="5.92653">
        <ele>2243.1999511719</ele>
        <time>2021-01-06T12:01:32.000Z</time>
      </trkpt>
      <trkpt lat="45.13145" lon="5.92664">
        <ele>2244</ele>
        <time>2021-01-06T12:01:41.000Z</time>
      </trkpt>
      <trkpt lat="45.13145" lon="5.92665">
        <ele>2244</ele>
        <time>2021-01-06T12:01:42.000Z</time>
      </trkpt>
      <trkpt lat="45.13145" lon="5.92673">
        <ele>2245.1999511719</ele>
        <time>2021-01-06T12:01:49.000Z</time>
      </trkpt>
      <trkpt lat="45.13145" lon="5.92675">
        <ele>2245.1999511719</ele>
        <time>2021-01-06T12:01:50.000Z</time>
      </trkpt>
      <trkpt lat="45.13146" lon="5.92683">
        <ele>2246.1999511719</ele>
        <time>2021-01-06T12:01:57.000Z</time>
      </trkpt>
      <trkpt lat="45.13146" lon="5.92691">
        <ele>2246.8000488281</ele>
        <time>2021-01-06T12:02:04.000Z</time>
      </trkpt>
      <trkpt lat="45.13147" lon="5.92696">
        <ele>2247.1999511719</ele>
        <time>2021-01-06T12:02:08.000Z</time>
      </trkpt>
      <trkpt lat="45.13147" lon="5.92702">
        <ele>2248</ele>
        <time>2021-01-06T12:02:13.000Z</time>
      </trkpt>
      <trkpt lat="45.13148" lon="5.92704">
        <ele>2248.1999511719</ele>
        <time>2021-01-06T12:02:15.000Z</time>
      </trkpt>
      <trkpt lat="45.13148" lon="5.92709">
        <ele>2248.8000488281</ele>
        <time>2021-01-06T12:02:19.000Z</time>
      </trkpt>
      <trkpt lat="45.13149" lon="5.92712">
        <ele>2249.6000976562</ele>
        <time>2021-01-06T12:02:22.000Z</time>
      </trkpt>
      <trkpt lat="45.1315" lon="5.92714">
        <ele>2250.3999023438</ele>
        <time>2021-01-06T12:02:25.000Z</time>
      </trkpt>
      <trkpt lat="45.1315" lon="5.92716">
        <ele>2250.8000488281</ele>
        <time>2021-01-06T12:02:27.000Z</time>
      </trkpt>
      <trkpt lat="45.13152" lon="5.9272">
        <ele>2251.6000976562</ele>
        <time>2021-01-06T12:02:31.000Z</time>
      </trkpt>
      <trkpt lat="45.13153" lon="5.92721">
        <ele>2252</ele>
        <time>2021-01-06T12:02:33.000Z</time>
      </trkpt>
      <trkpt lat="45.13154" lon="5.92725">
        <ele>2253</ele>
        <time>2021-01-06T12:02:38.000Z</time>
      </trkpt>
      <trkpt lat="45.13155" lon="5.92729">
        <ele>2254.1999511719</ele>
        <time>2021-01-06T12:02:43.000Z</time>
      </trkpt>
      <trkpt lat="45.13155" lon="5.9273">
        <ele>2254.3999023438</ele>
        <time>2021-01-06T12:02:44.000Z</time>
      </trkpt>
      <trkpt lat="45.13156" lon="5.92733">
        <ele>2255.3999023438</ele>
        <time>2021-01-06T12:02:48.000Z</time>
      </trkpt>
      <trkpt lat="45.13157" lon="5.92736">
        <ele>2255.8000488281</ele>
        <time>2021-01-06T12:02:50.000Z</time>
      </trkpt>
      <trkpt lat="45.13158" lon="5.92739">
        <ele>2256.3999023438</ele>
        <time>2021-01-06T12:02:55.000Z</time>
      </trkpt>
      <trkpt lat="45.13159" lon="5.92742">
        <ele>2256.8000488281</ele>
        <time>2021-01-06T12:02:58.000Z</time>
      </trkpt>
      <trkpt lat="45.13163" lon="5.92749">
        <ele>2257.3999023438</ele>
        <time>2021-01-06T12:03:05.000Z</time>
      </trkpt>
      <trkpt lat="45.13166" lon="5.92755">
        <ele>2257.8000488281</ele>
        <time>2021-01-06T12:03:11.000Z</time>
      </trkpt>
      <trkpt lat="45.13167" lon="5.92762">
        <ele>2258.3999023438</ele>
        <time>2021-01-06T12:03:17.000Z</time>
      </trkpt>
      <trkpt lat="45.13168" lon="5.92763">
        <ele>2258.6000976562</ele>
        <time>2021-01-06T12:03:19.000Z</time>
      </trkpt>
      <trkpt lat="45.1317" lon="5.9277">
        <ele>2258.8000488281</ele>
        <time>2021-01-06T12:03:24.000Z</time>
      </trkpt>
      <trkpt lat="45.13171" lon="5.92772">
        <ele>2259</ele>
        <time>2021-01-06T12:03:26.000Z</time>
      </trkpt>
      <trkpt lat="45.13172" lon="5.92775">
        <ele>2259.3999023438</ele>
        <time>2021-01-06T12:03:30.000Z</time>
      </trkpt>
      <trkpt lat="45.13172" lon="5.92776">
        <ele>2259.6000976562</ele>
        <time>2021-01-06T12:03:31.000Z</time>
      </trkpt>
      <trkpt lat="45.13174" lon="5.92781">
        <ele>2260.1999511719</ele>
        <time>2021-01-06T12:03:36.000Z</time>
      </trkpt>
      <trkpt lat="45.13175" lon="5.92783">
        <ele>2260.6000976562</ele>
        <time>2021-01-06T12:03:38.000Z</time>
      </trkpt>
      <trkpt lat="45.13176" lon="5.92787">
        <ele>2261.1999511719</ele>
        <time>2021-01-06T12:03:42.000Z</time>
      </trkpt>
      <trkpt lat="45.13177" lon="5.92791">
        <ele>2261.8000488281</ele>
        <time>2021-01-06T12:03:46.000Z</time>
      </trkpt>
      <trkpt lat="45.13178" lon="5.92793">
        <ele>2262</ele>
        <time>2021-01-06T12:03:48.000Z</time>
      </trkpt>
      <trkpt lat="45.13181" lon="5.92797">
        <ele>2262.8000488281</ele>
        <time>2021-01-06T12:03:53.000Z</time>
      </trkpt>
      <trkpt lat="45.13181" lon="5.92798">
        <ele>2263</ele>
        <time>2021-01-06T12:03:54.000Z</time>
      </trkpt>
      <trkpt lat="45.13181" lon="5.92799">
        <ele>2263.1999511719</ele>
        <time>2021-01-06T12:03:55.000Z</time>
      </trkpt>
      <trkpt lat="45.13182" lon="5.92801">
        <ele>2263.8000488281</ele>
        <time>2021-01-06T12:03:58.000Z</time>
      </trkpt>
      <trkpt lat="45.13182" lon="5.92804">
        <ele>2264.1999511719</ele>
        <time>2021-01-06T12:04:00.000Z</time>
      </trkpt>
      <trkpt lat="45.13184" lon="5.92808">
        <ele>2264.8000488281</ele>
        <time>2021-01-06T12:04:05.000Z</time>
      </trkpt>
      <trkpt lat="45.13185" lon="5.92809">
        <ele>2264.8000488281</ele>
        <time>2021-01-06T12:04:06.000Z</time>
      </trkpt>
      <trkpt lat="45.13185" lon="5.9281">
        <ele>2265</ele>
        <time>2021-01-06T12:04:07.000Z</time>
      </trkpt>
      <trkpt lat="45.13185" lon="5.92812">
        <ele>2265.1999511719</ele>
        <time>2021-01-06T12:04:09.000Z</time>
      </trkpt>
      <trkpt lat="45.13185" lon="5.92815">
        <ele>2265.6000976562</ele>
        <time>2021-01-06T12:04:12.000Z</time>
      </trkpt>
      <trkpt lat="45.13187" lon="5.92819">
        <ele>2266</ele>
        <time>2021-01-06T12:04:16.000Z</time>
      </trkpt>
      <trkpt lat="45.13187" lon="5.92821">
        <ele>2266.3999023438</ele>
        <time>2021-01-06T12:04:19.000Z</time>
      </trkpt>
      <trkpt lat="45.13187" lon="5.92827">
        <ele>2267.1999511719</ele>
        <time>2021-01-06T12:04:25.000Z</time>
      </trkpt>
      <trkpt lat="45.13187" lon="5.9283">
        <ele>2267.6000976562</ele>
        <time>2021-01-06T12:04:28.000Z</time>
      </trkpt>
      <trkpt lat="45.13188" lon="5.92832">
        <ele>2268.1999511719</ele>
        <time>2021-01-06T12:04:31.000Z</time>
      </trkpt>
      <trkpt lat="45.1319" lon="5.92838">
        <ele>2269.3999023438</ele>
        <time>2021-01-06T12:04:38.000Z</time>
      </trkpt>
      <trkpt lat="45.13192" lon="5.92843">
        <ele>2270.3999023438</ele>
        <time>2021-01-06T12:04:43.000Z</time>
      </trkpt>
      <trkpt lat="45.13192" lon="5.92844">
        <ele>2270.8000488281</ele>
        <time>2021-01-06T12:04:45.000Z</time>
      </trkpt>
      <trkpt lat="45.13193" lon="5.92847">
        <ele>2271.6000976562</ele>
        <time>2021-01-06T12:04:48.000Z</time>
      </trkpt>
      <trkpt lat="45.13194" lon="5.92849">
        <ele>2272.1999511719</ele>
        <time>2021-01-06T12:04:51.000Z</time>
      </trkpt>
      <trkpt lat="45.13195" lon="5.92852">
        <ele>2272.6000976562</ele>
        <time>2021-01-06T12:04:54.000Z</time>
      </trkpt>
      <trkpt lat="45.13196" lon="5.92856">
        <ele>2273.6000976562</ele>
        <time>2021-01-06T12:04:59.000Z</time>
      </trkpt>
      <trkpt lat="45.13197" lon="5.92856">
        <ele>2273.6000976562</ele>
        <time>2021-01-06T12:05:00.000Z</time>
      </trkpt>
      <trkpt lat="45.13198" lon="5.92859">
        <ele>2274.6000976562</ele>
        <time>2021-01-06T12:05:04.000Z</time>
      </trkpt>
      <trkpt lat="45.13198" lon="5.9286">
        <ele>2274.8000488281</ele>
        <time>2021-01-06T12:05:05.000Z</time>
      </trkpt>
      <trkpt lat="45.132" lon="5.92863">
        <ele>2275.8000488281</ele>
        <time>2021-01-06T12:05:10.000Z</time>
      </trkpt>
      <trkpt lat="45.13203" lon="5.92867">
        <ele>2276.8000488281</ele>
        <time>2021-01-06T12:05:15.000Z</time>
      </trkpt>
      <trkpt lat="45.13203" lon="5.92868">
        <ele>2277</ele>
        <time>2021-01-06T12:05:16.000Z</time>
      </trkpt>
      <trkpt lat="45.13205" lon="5.92869">
        <ele>2277.8000488281</ele>
        <time>2021-01-06T12:05:20.000Z</time>
      </trkpt>
      <trkpt lat="45.13206" lon="5.9287">
        <ele>2278</ele>
        <time>2021-01-06T12:05:21.000Z</time>
      </trkpt>
      <trkpt lat="45.13207" lon="5.92871">
        <ele>2278.1999511719</ele>
        <time>2021-01-06T12:05:22.000Z</time>
      </trkpt>
      <trkpt lat="45.13209" lon="5.92873">
        <ele>2279</ele>
        <time>2021-01-06T12:05:27.000Z</time>
      </trkpt>
      <trkpt lat="45.13209" lon="5.92874">
        <ele>2279.1999511719</ele>
        <time>2021-01-06T12:05:28.000Z</time>
      </trkpt>
      <trkpt lat="45.13212" lon="5.92876">
        <ele>2280</ele>
        <time>2021-01-06T12:05:32.000Z</time>
      </trkpt>
      <trkpt lat="45.13212" lon="5.92876">
        <ele>2280.1999511719</ele>
        <time>2021-01-06T12:05:33.000Z</time>
      </trkpt>
      <trkpt lat="45.13213" lon="5.92877">
        <ele>2280.6000976562</ele>
        <time>2021-01-06T12:05:34.000Z</time>
      </trkpt>
      <trkpt lat="45.13215" lon="5.92879">
        <ele>2281.3999023438</ele>
        <time>2021-01-06T12:05:38.000Z</time>
      </trkpt>
      <trkpt lat="45.13216" lon="5.9288">
        <ele>2281.8000488281</ele>
        <time>2021-01-06T12:05:40.000Z</time>
      </trkpt>
      <trkpt lat="45.13218" lon="5.92882">
        <ele>2282.3999023438</ele>
        <time>2021-01-06T12:05:43.000Z</time>
      </trkpt>
      <trkpt lat="45.13219" lon="5.92882">
        <ele>2282.6000976562</ele>
        <time>2021-01-06T12:05:44.000Z</time>
      </trkpt>
      <trkpt lat="45.1322" lon="5.92883">
        <ele>2283</ele>
        <time>2021-01-06T12:05:46.000Z</time>
      </trkpt>
      <trkpt lat="45.13222" lon="5.92885">
        <ele>2283.6000976562</ele>
        <time>2021-01-06T12:05:50.000Z</time>
      </trkpt>
      <trkpt lat="45.13223" lon="5.92885">
        <ele>2284</ele>
        <time>2021-01-06T12:05:52.000Z</time>
      </trkpt>
      <trkpt lat="45.13223" lon="5.92885">
        <ele>2284.6000976562</ele>
        <time>2021-01-06T12:05:56.000Z</time>
      </trkpt>
      <trkpt lat="45.13223" lon="5.92885">
        <ele>2285.3999023438</ele>
        <time>2021-01-06T12:05:59.000Z</time>
      </trkpt>
      <trkpt lat="45.13223" lon="5.92885">
        <ele>2285.8000488281</ele>
        <time>2021-01-06T12:06:01.000Z</time>
      </trkpt>
      <trkpt lat="45.13223" lon="5.92885">
        <ele>2286</ele>
        <time>2021-01-06T12:06:02.000Z</time>
      </trkpt>
      <trkpt lat="45.13219" lon="5.92888">
        <ele>2286.6000976562</ele>
        <time>2021-01-06T12:06:05.000Z</time>
      </trkpt>
      <trkpt lat="45.13218" lon="5.92888">
        <ele>2286.8000488281</ele>
        <time>2021-01-06T12:06:06.000Z</time>
      </trkpt>
      <trkpt lat="45.13215" lon="5.92895">
        <ele>2288</ele>
        <time>2021-01-06T12:06:12.000Z</time>
      </trkpt>
      <trkpt lat="45.13213" lon="5.92899">
        <ele>2288.8000488281</ele>
        <time>2021-01-06T12:06:17.000Z</time>
      </trkpt>
      <trkpt lat="45.13214" lon="5.929">
        <ele>2289.1999511719</ele>
        <time>2021-01-06T12:06:19.000Z</time>
      </trkpt>
      <trkpt lat="45.13211" lon="5.92904">
        <ele>2290.3999023438</ele>
        <time>2021-01-06T12:06:24.000Z</time>
      </trkpt>
      <trkpt lat="45.13209" lon="5.92907">
        <ele>2291.1999511719</ele>
        <time>2021-01-06T12:06:30.000Z</time>
      </trkpt>
      <trkpt lat="45.13208" lon="5.92907">
        <ele>2291.3999023438</ele>
        <time>2021-01-06T12:06:31.000Z</time>
      </trkpt>
      <trkpt lat="45.13207" lon="5.92912">
        <ele>2292.1999511719</ele>
        <time>2021-01-06T12:06:37.000Z</time>
      </trkpt>
      <trkpt lat="45.13206" lon="5.92913">
        <ele>2292.3999023438</ele>
        <time>2021-01-06T12:06:39.000Z</time>
      </trkpt>
      <trkpt lat="45.13206" lon="5.92914">
        <ele>2293.1999511719</ele>
        <time>2021-01-06T12:06:43.000Z</time>
      </trkpt>
      <trkpt lat="45.13205" lon="5.92915">
        <ele>2293.6000976562</ele>
        <time>2021-01-06T12:06:45.000Z</time>
      </trkpt>
      <trkpt lat="45.13203" lon="5.92917">
        <ele>2294.8000488281</ele>
        <time>2021-01-06T12:06:50.000Z</time>
      </trkpt>
      <trkpt lat="45.13201" lon="5.9292">
        <ele>2295.8000488281</ele>
        <time>2021-01-06T12:06:55.000Z</time>
      </trkpt>
      <trkpt lat="45.13201" lon="5.9292">
        <ele>2296</ele>
        <time>2021-01-06T12:06:56.000Z</time>
      </trkpt>
      <trkpt lat="45.13199" lon="5.92921">
        <ele>2297</ele>
        <time>2021-01-06T12:07:01.000Z</time>
      </trkpt>
      <trkpt lat="45.13197" lon="5.92922">
        <ele>2298.1999511719</ele>
        <time>2021-01-06T12:07:07.000Z</time>
      </trkpt>
      <trkpt lat="45.13196" lon="5.92924">
        <ele>2298.6000976562</ele>
        <time>2021-01-06T12:07:09.000Z</time>
      </trkpt>
      <trkpt lat="45.13195" lon="5.92925">
        <ele>2299.3999023438</ele>
        <time>2021-01-06T12:07:12.000Z</time>
      </trkpt>
      <trkpt lat="45.13194" lon="5.92926">
        <ele>2299.8000488281</ele>
        <time>2021-01-06T12:07:14.000Z</time>
      </trkpt>
      <trkpt lat="45.13193" lon="5.92926">
        <ele>2300.3999023438</ele>
        <time>2021-01-06T12:07:18.000Z</time>
      </trkpt>
      <trkpt lat="45.13192" lon="5.92927">
        <ele>2300.8000488281</ele>
        <time>2021-01-06T12:07:20.000Z</time>
      </trkpt>
      <trkpt lat="45.13192" lon="5.92927">
        <ele>2301.6000976562</ele>
        <time>2021-01-06T12:07:24.000Z</time>
      </trkpt>
      <trkpt lat="45.13191" lon="5.92928">
        <ele>2302.3999023438</ele>
        <time>2021-01-06T12:07:29.000Z</time>
      </trkpt>
      <trkpt lat="45.13191" lon="5.92928">
        <ele>2302.6000976562</ele>
        <time>2021-01-06T12:07:30.000Z</time>
      </trkpt>
      <trkpt lat="45.13191" lon="5.92929">
        <ele>2303.1999511719</ele>
        <time>2021-01-06T12:07:33.000Z</time>
      </trkpt>
      <trkpt lat="45.13193" lon="5.92933">
        <ele>2303.6000976562</ele>
        <time>2021-01-06T12:07:38.000Z</time>
      </trkpt>
      <trkpt lat="45.13194" lon="5.92935">
        <ele>2303.8000488281</ele>
        <time>2021-01-06T12:07:40.000Z</time>
      </trkpt>
      <trkpt lat="45.13195" lon="5.92938">
        <ele>2304.8000488281</ele>
        <time>2021-01-06T12:07:46.000Z</time>
      </trkpt>
      <trkpt lat="45.13198" lon="5.92941">
        <ele>2306</ele>
        <time>2021-01-06T12:07:52.000Z</time>
      </trkpt>
      <trkpt lat="45.13198" lon="5.92944">
        <ele>2306.1999511719</ele>
        <time>2021-01-06T12:07:54.000Z</time>
      </trkpt>
      <trkpt lat="45.132" lon="5.92947">
        <ele>2307</ele>
        <time>2021-01-06T12:07:58.000Z</time>
      </trkpt>
      <trkpt lat="45.13201" lon="5.92948">
        <ele>2307.3999023438</ele>
        <time>2021-01-06T12:08:00.000Z</time>
      </trkpt>
      <trkpt lat="45.13203" lon="5.92949">
        <ele>2308.1999511719</ele>
        <time>2021-01-06T12:08:04.000Z</time>
      </trkpt>
      <trkpt lat="45.13204" lon="5.92952">
        <ele>2309.1999511719</ele>
        <time>2021-01-06T12:08:09.000Z</time>
      </trkpt>
      <trkpt lat="45.13204" lon="5.92953">
        <ele>2309.1999511719</ele>
        <time>2021-01-06T12:08:10.000Z</time>
      </trkpt>
      <trkpt lat="45.13205" lon="5.92954">
        <ele>2310</ele>
        <time>2021-01-06T12:08:14.000Z</time>
      </trkpt>
      <trkpt lat="45.13206" lon="5.92955">
        <ele>2310.3999023438</ele>
        <time>2021-01-06T12:08:16.000Z</time>
      </trkpt>
      <trkpt lat="45.13206" lon="5.92957">
        <ele>2311.1999511719</ele>
        <time>2021-01-06T12:08:21.000Z</time>
      </trkpt>
      <trkpt lat="45.13206" lon="5.92956">
        <ele>2311.6000976562</ele>
        <time>2021-01-06T12:08:22.000Z</time>
      </trkpt>
      <trkpt lat="45.13207" lon="5.92958">
        <ele>2312.3999023438</ele>
        <time>2021-01-06T12:08:27.000Z</time>
      </trkpt>
      <trkpt lat="45.13208" lon="5.9296">
        <ele>2312.6000976562</ele>
        <time>2021-01-06T12:08:28.000Z</time>
      </trkpt>
      <trkpt lat="45.13211" lon="5.92964">
        <ele>2313.8000488281</ele>
        <time>2021-01-06T12:08:35.000Z</time>
      </trkpt>
      <trkpt lat="45.1321" lon="5.92964">
        <ele>2314.6000976562</ele>
        <time>2021-01-06T12:08:41.000Z</time>
      </trkpt>
      <trkpt lat="45.1321" lon="5.92964">
        <ele>2314.8000488281</ele>
        <time>2021-01-06T12:08:42.000Z</time>
      </trkpt>
      <trkpt lat="45.13209" lon="5.92965">
        <ele>2315</ele>
        <time>2021-01-06T12:08:47.000Z</time>
      </trkpt>
      <trkpt lat="45.13206" lon="5.92966">
        <ele>2315.6000976562</ele>
        <time>2021-01-06T12:08:53.000Z</time>
      </trkpt>
      <trkpt lat="45.13204" lon="5.92966">
        <ele>2315.8000488281</ele>
        <time>2021-01-06T12:08:55.000Z</time>
      </trkpt>
      <trkpt lat="45.13202" lon="5.92967">
        <ele>2316.3999023438</ele>
        <time>2021-01-06T12:08:59.000Z</time>
      </trkpt>
      <trkpt lat="45.132" lon="5.92968">
        <ele>2317</ele>
        <time>2021-01-06T12:09:02.000Z</time>
      </trkpt>
      <trkpt lat="45.13199" lon="5.92968">
        <ele>2317.1999511719</ele>
        <time>2021-01-06T12:09:04.000Z</time>
      </trkpt>
      <trkpt lat="45.13198" lon="5.92969">
        <ele>2318</ele>
        <time>2021-01-06T12:09:08.000Z</time>
      </trkpt>
      <trkpt lat="45.13195" lon="5.9297">
        <ele>2319</ele>
        <time>2021-01-06T12:09:12.000Z</time>
      </trkpt>
      <trkpt lat="45.13192" lon="5.92971">
        <ele>2320.1999511719</ele>
        <time>2021-01-06T12:09:18.000Z</time>
      </trkpt>
      <trkpt lat="45.1319" lon="5.92972">
        <ele>2321.1999511719</ele>
        <time>2021-01-06T12:09:24.000Z</time>
      </trkpt>
      <trkpt lat="45.13186" lon="5.92973">
        <ele>2322.3999023438</ele>
        <time>2021-01-06T12:09:30.000Z</time>
      </trkpt>
      <trkpt lat="45.13186" lon="5.92973">
        <ele>2322.6000976562</ele>
        <time>2021-01-06T12:09:31.000Z</time>
      </trkpt>
      <trkpt lat="45.13182" lon="5.92974">
        <ele>2323.3999023438</ele>
        <time>2021-01-06T12:09:35.000Z</time>
      </trkpt>
      <trkpt lat="45.13181" lon="5.92974">
        <ele>2324</ele>
        <time>2021-01-06T12:09:37.000Z</time>
      </trkpt>
      <trkpt lat="45.13179" lon="5.92974">
        <ele>2324.6000976562</ele>
        <time>2021-01-06T12:09:41.000Z</time>
      </trkpt>
      <trkpt lat="45.13179" lon="5.92973">
        <ele>2324.8000488281</ele>
        <time>2021-01-06T12:09:42.000Z</time>
      </trkpt>
      <trkpt lat="45.13178" lon="5.92973">
        <ele>2325.8000488281</ele>
        <time>2021-01-06T12:09:47.000Z</time>
      </trkpt>
      <trkpt lat="45.13178" lon="5.92973">
        <ele>2326</ele>
        <time>2021-01-06T12:09:49.000Z</time>
      </trkpt>
      <trkpt lat="45.13178" lon="5.92974">
        <ele>2326.1999511719</ele>
        <time>2021-01-06T12:09:52.000Z</time>
      </trkpt>
      <trkpt lat="45.13179" lon="5.92975">
        <ele>2326.1999511719</ele>
        <time>2021-01-06T12:10:00.000Z</time>
      </trkpt>
      <trkpt lat="45.13181" lon="5.92978">
        <ele>2326.8000488281</ele>
        <time>2021-01-06T12:10:05.000Z</time>
      </trkpt>
      <trkpt lat="45.13181" lon="5.92978">
        <ele>2327</ele>
        <time>2021-01-06T12:10:06.000Z</time>
      </trkpt>
      <trkpt lat="45.13183" lon="5.92982">
        <ele>2328</ele>
        <time>2021-01-06T12:10:12.000Z</time>
      </trkpt>
      <trkpt lat="45.13184" lon="5.92983">
        <ele>2328.1999511719</ele>
        <time>2021-01-06T12:10:14.000Z</time>
      </trkpt>
      <trkpt lat="45.13185" lon="5.92985">
        <ele>2329</ele>
        <time>2021-01-06T12:10:18.000Z</time>
      </trkpt>
      <trkpt lat="45.13187" lon="5.92987">
        <ele>2329.6000976562</ele>
        <time>2021-01-06T12:10:21.000Z</time>
      </trkpt>
      <trkpt lat="45.13188" lon="5.92988">
        <ele>2330.1999511719</ele>
        <time>2021-01-06T12:10:23.000Z</time>
      </trkpt>
      <trkpt lat="45.13191" lon="5.92991">
        <ele>2330.8000488281</ele>
        <time>2021-01-06T12:10:27.000Z</time>
      </trkpt>
      <trkpt lat="45.13192" lon="5.92992">
        <ele>2331.1999511719</ele>
        <time>2021-01-06T12:10:30.000Z</time>
      </trkpt>
      <trkpt lat="45.13193" lon="5.92994">
        <ele>2331.8000488281</ele>
        <time>2021-01-06T12:10:34.000Z</time>
      </trkpt>
      <trkpt lat="45.13195" lon="5.92996">
        <ele>2332.1999511719</ele>
        <time>2021-01-06T12:10:38.000Z</time>
      </trkpt>
      <trkpt lat="45.13196" lon="5.92998">
        <ele>2332.6000976562</ele>
        <time>2021-01-06T12:10:40.000Z</time>
      </trkpt>
      <trkpt lat="45.13197" lon="5.93">
        <ele>2333.3999023438</ele>
        <time>2021-01-06T12:10:44.000Z</time>
      </trkpt>
      <trkpt lat="45.13199" lon="5.93002">
        <ele>2334</ele>
        <time>2021-01-06T12:10:47.000Z</time>
      </trkpt>
      <trkpt lat="45.132" lon="5.93003">
        <ele>2334.3999023438</ele>
        <time>2021-01-06T12:10:49.000Z</time>
      </trkpt>
      <trkpt lat="45.13201" lon="5.93004">
        <ele>2335.3999023438</ele>
        <time>2021-01-06T12:10:54.000Z</time>
      </trkpt>
      <trkpt lat="45.13201" lon="5.93004">
        <ele>2335.6000976562</ele>
        <time>2021-01-06T12:10:55.000Z</time>
      </trkpt>
      <trkpt lat="45.132" lon="5.93005">
        <ele>2336.1999511719</ele>
        <time>2021-01-06T12:11:00.000Z</time>
      </trkpt>
      <trkpt lat="45.13199" lon="5.93006">
        <ele>2336.6000976562</ele>
        <time>2021-01-06T12:11:03.000Z</time>
      </trkpt>
      <trkpt lat="45.13197" lon="5.93007">
        <ele>2336.8000488281</ele>
        <time>2021-01-06T12:11:06.000Z</time>
      </trkpt>
      <trkpt lat="45.13195" lon="5.93007">
        <ele>2337.6000976562</ele>
        <time>2021-01-06T12:11:10.000Z</time>
      </trkpt>
      <trkpt lat="45.13193" lon="5.93008">
        <ele>2338</ele>
        <time>2021-01-06T12:11:12.000Z</time>
      </trkpt>
      <trkpt lat="45.13192" lon="5.93009">
        <ele>2338.8000488281</ele>
        <time>2021-01-06T12:11:16.000Z</time>
      </trkpt>
      <trkpt lat="45.13192" lon="5.93009">
        <ele>2339</ele>
        <time>2021-01-06T12:11:17.000Z</time>
      </trkpt>
      <trkpt lat="45.13191" lon="5.9301">
        <ele>2339.8000488281</ele>
        <time>2021-01-06T12:11:22.000Z</time>
      </trkpt>
      <trkpt lat="45.13191" lon="5.9301">
        <ele>2340</ele>
        <time>2021-01-06T12:11:23.000Z</time>
      </trkpt>
      <trkpt lat="45.13189" lon="5.9301">
        <ele>2341</ele>
        <time>2021-01-06T12:11:29.000Z</time>
      </trkpt>
      <trkpt lat="45.13188" lon="5.93011">
        <ele>2341.3999023438</ele>
        <time>2021-01-06T12:11:32.000Z</time>
      </trkpt>
      <trkpt lat="45.13187" lon="5.9301">
        <ele>2342</ele>
        <time>2021-01-06T12:11:34.000Z</time>
      </trkpt>
      <trkpt lat="45.13187" lon="5.9301">
        <ele>2342.6000976562</ele>
        <time>2021-01-06T12:11:38.000Z</time>
      </trkpt>
      <trkpt lat="45.13187" lon="5.9301">
        <ele>2343</ele>
        <time>2021-01-06T12:11:42.000Z</time>
      </trkpt>
      <trkpt lat="45.13187" lon="5.9301">
        <ele>2343.1999511719</ele>
        <time>2021-01-06T12:11:44.000Z</time>
      </trkpt>
      <trkpt lat="45.13188" lon="5.93012">
        <ele>2343.6000976562</ele>
        <time>2021-01-06T12:11:50.000Z</time>
      </trkpt>
      <trkpt lat="45.13189" lon="5.93012">
        <ele>2344.1999511719</ele>
        <time>2021-01-06T12:11:53.000Z</time>
      </trkpt>
      <trkpt lat="45.13191" lon="5.93015">
        <ele>2344.6000976562</ele>
        <time>2021-01-06T12:11:56.000Z</time>
      </trkpt>
      <trkpt lat="45.13192" lon="5.93017">
        <ele>2345.1999511719</ele>
        <time>2021-01-06T12:11:58.000Z</time>
      </trkpt>
      <trkpt lat="45.13194" lon="5.93021">
        <ele>2346.1999511719</ele>
        <time>2021-01-06T12:12:03.000Z</time>
      </trkpt>
      <trkpt lat="45.13195" lon="5.93022">
        <ele>2346.3999023438</ele>
        <time>2021-01-06T12:12:04.000Z</time>
      </trkpt>
      <trkpt lat="45.132" lon="5.93027">
        <ele>2347.3999023438</ele>
        <time>2021-01-06T12:12:10.000Z</time>
      </trkpt>
      <trkpt lat="45.132" lon="5.93028">
        <ele>2348.3999023438</ele>
        <time>2021-01-06T12:12:16.000Z</time>
      </trkpt>
      <trkpt lat="45.13201" lon="5.93028">
        <ele>2348.6000976562</ele>
        <time>2021-01-06T12:12:17.000Z</time>
      </trkpt>
      <trkpt lat="45.13202" lon="5.9303">
        <ele>2349.8000488281</ele>
        <time>2021-01-06T12:12:22.000Z</time>
      </trkpt>
      <trkpt lat="45.13202" lon="5.9303">
        <ele>2350.6000976562</ele>
        <time>2021-01-06T12:12:27.000Z</time>
      </trkpt>
      <trkpt lat="45.13202" lon="5.9303">
        <ele>2350.8000488281</ele>
        <time>2021-01-06T12:12:28.000Z</time>
      </trkpt>
      <trkpt lat="45.13201" lon="5.93031">
        <ele>2351.3999023438</ele>
        <time>2021-01-06T12:12:33.000Z</time>
      </trkpt>
      <trkpt lat="45.13201" lon="5.9303">
        <ele>2351.8000488281</ele>
        <time>2021-01-06T12:12:43.000Z</time>
      </trkpt>
      <trkpt lat="45.132" lon="5.93031">
        <ele>2351.8000488281</ele>
        <time>2021-01-06T12:12:44.000Z</time>
      </trkpt>
      <trkpt lat="45.132" lon="5.93032">
        <ele>2351</ele>
        <time>2021-01-06T12:12:51.000Z</time>
      </trkpt>
      <trkpt lat="45.132" lon="5.93032">
        <ele>2350.8000488281</ele>
        <time>2021-01-06T12:13:10.000Z</time>
      </trkpt>
      <trkpt lat="45.132" lon="5.93032">
        <ele>2350.8000488281</ele>
        <time>2021-01-06T12:13:30.000Z</time>
      </trkpt>
      <trkpt lat="45.13201" lon="5.93032">
        <ele>2351</ele>
        <time>2021-01-06T12:13:38.000Z</time>
      </trkpt>
      <trkpt lat="45.13201" lon="5.93032">
        <ele>2351.8000488281</ele>
        <time>2021-01-06T12:13:45.000Z</time>
      </trkpt>
      <trkpt lat="45.13201" lon="5.93032">
        <ele>2352</ele>
        <time>2021-01-06T12:13:57.000Z</time>
      </trkpt>
      <trkpt lat="45.13201" lon="5.93032">
        <ele>2352</ele>
        <time>2021-01-06T12:14:07.000Z</time>
      </trkpt>
      <trkpt lat="45.132" lon="5.93033">
        <ele>2352</ele>
        <time>2021-01-06T12:14:20.000Z</time>
      </trkpt>
      <trkpt lat="45.13197" lon="5.93035">
        <ele>2352.3999023438</ele>
        <time>2021-01-06T12:14:26.000Z</time>
      </trkpt>
      <trkpt lat="45.13196" lon="5.93036">
        <ele>2352.8000488281</ele>
        <time>2021-01-06T12:14:28.000Z</time>
      </trkpt>
      <trkpt lat="45.13194" lon="5.93038">
        <ele>2353.6000976562</ele>
        <time>2021-01-06T12:14:32.000Z</time>
      </trkpt>
      <trkpt lat="45.13194" lon="5.93038">
        <ele>2354</ele>
        <time>2021-01-06T12:14:34.000Z</time>
      </trkpt>
      <trkpt lat="45.13192" lon="5.93039">
        <ele>2354.8000488281</ele>
        <time>2021-01-06T12:14:38.000Z</time>
      </trkpt>
      <trkpt lat="45.13192" lon="5.93039">
        <ele>2355.1999511719</ele>
        <time>2021-01-06T12:14:40.000Z</time>
      </trkpt>
      <trkpt lat="45.13192" lon="5.93039">
        <ele>2355.1999511719</ele>
        <time>2021-01-06T12:14:41.000Z</time>
      </trkpt>
      <trkpt lat="45.13192" lon="5.93039">
        <ele>2355.6000976562</ele>
        <time>2021-01-06T12:14:43.000Z</time>
      </trkpt>
      <trkpt lat="45.13194" lon="5.93041">
        <ele>2356</ele>
        <time>2021-01-06T12:14:48.000Z</time>
      </trkpt>
      <trkpt lat="45.13195" lon="5.93042">
        <ele>2356.1999511719</ele>
        <time>2021-01-06T12:14:50.000Z</time>
      </trkpt>
      <trkpt lat="45.13197" lon="5.93043">
        <ele>2356.8000488281</ele>
        <time>2021-01-06T12:14:54.000Z</time>
      </trkpt>
      <trkpt lat="45.13198" lon="5.93043">
        <ele>2357.1999511719</ele>
        <time>2021-01-06T12:14:56.000Z</time>
      </trkpt>
      <trkpt lat="45.132" lon="5.93043">
        <ele>2358.1999511719</ele>
        <time>2021-01-06T12:15:02.000Z</time>
      </trkpt>
      <trkpt lat="45.132" lon="5.93043">
        <ele>2359</ele>
        <time>2021-01-06T12:15:10.000Z</time>
      </trkpt>
      <trkpt lat="45.132" lon="5.93043">
        <ele>2359.1999511719</ele>
        <time>2021-01-06T12:15:13.000Z</time>
      </trkpt>
      <trkpt lat="45.132" lon="5.93043">
        <ele>2359.3999023438</ele>
        <time>2021-01-06T12:15:14.000Z</time>
      </trkpt>
      <trkpt lat="45.13199" lon="5.93044">
        <ele>2360</ele>
        <time>2021-01-06T12:15:20.000Z</time>
      </trkpt>
      <trkpt lat="45.13197" lon="5.93045">
        <ele>2360.3999023438</ele>
        <time>2021-01-06T12:15:22.000Z</time>
      </trkpt>
      <trkpt lat="45.13195" lon="5.93046">
        <ele>2360.6000976562</ele>
        <time>2021-01-06T12:15:24.000Z</time>
      </trkpt>
      <trkpt lat="45.13194" lon="5.93047">
        <ele>2360.8000488281</ele>
        <time>2021-01-06T12:15:25.000Z</time>
      </trkpt>
      <trkpt lat="45.13194" lon="5.93047">
        <ele>2361.3999023438</ele>
        <time>2021-01-06T12:15:30.000Z</time>
      </trkpt>
      <trkpt lat="45.13195" lon="5.9305">
        <ele>2362.1999511719</ele>
        <time>2021-01-06T12:15:36.000Z</time>
      </trkpt>
      <trkpt lat="45.13197" lon="5.93052">
        <ele>2362.6000976562</ele>
        <time>2021-01-06T12:15:39.000Z</time>
      </trkpt>
      <trkpt lat="45.13198" lon="5.93052">
        <ele>2362.6000976562</ele>
        <time>2021-01-06T12:15:40.000Z</time>
      </trkpt>
      <trkpt lat="45.13199" lon="5.93053">
        <ele>2363</ele>
        <time>2021-01-06T12:15:42.000Z</time>
      </trkpt>
      <trkpt lat="45.132" lon="5.93054">
        <ele>2363.6000976562</ele>
        <time>2021-01-06T12:15:46.000Z</time>
      </trkpt>
      <trkpt lat="45.13202" lon="5.93054">
        <ele>2364</ele>
        <time>2021-01-06T12:15:49.000Z</time>
      </trkpt>
      <trkpt lat="45.13205" lon="5.93054">
        <ele>2364.8000488281</ele>
        <time>2021-01-06T12:15:54.000Z</time>
      </trkpt>
      <trkpt lat="45.13206" lon="5.93053">
        <ele>2365.8000488281</ele>
        <time>2021-01-06T12:15:59.000Z</time>
      </trkpt>
      <trkpt lat="45.13206" lon="5.93053">
        <ele>2366</ele>
        <time>2021-01-06T12:16:00.000Z</time>
      </trkpt>
      <trkpt lat="45.13205" lon="5.93053">
        <ele>2366.3999023438</ele>
        <time>2021-01-06T12:16:05.000Z</time>
      </trkpt>
      <trkpt lat="45.13203" lon="5.93056">
        <ele>2366.6000976562</ele>
        <time>2021-01-06T12:16:11.000Z</time>
      </trkpt>
      <trkpt lat="45.13202" lon="5.93056">
        <ele>2366.8000488281</ele>
        <time>2021-01-06T12:16:13.000Z</time>
      </trkpt>
      <trkpt lat="45.13201" lon="5.93057">
        <ele>2367.3999023438</ele>
        <time>2021-01-06T12:16:16.000Z</time>
      </trkpt>
      <trkpt lat="45.13201" lon="5.93057">
        <ele>2368</ele>
        <time>2021-01-06T12:16:19.000Z</time>
      </trkpt>
      <trkpt lat="45.13199" lon="5.93059">
        <ele>2369</ele>
        <time>2021-01-06T12:16:23.000Z</time>
      </trkpt>
      <trkpt lat="45.13199" lon="5.93059">
        <ele>2369</ele>
        <time>2021-01-06T12:16:24.000Z</time>
      </trkpt>
      <trkpt lat="45.13198" lon="5.93061">
        <ele>2369.6000976562</ele>
        <time>2021-01-06T12:16:28.000Z</time>
      </trkpt>
      <trkpt lat="45.13197" lon="5.93061">
        <ele>2370.1999511719</ele>
        <time>2021-01-06T12:16:31.000Z</time>
      </trkpt>
      <trkpt lat="45.13197" lon="5.93061">
        <ele>2370.6000976562</ele>
        <time>2021-01-06T12:16:33.000Z</time>
      </trkpt>
      <trkpt lat="45.13197" lon="5.93063">
        <ele>2371.1999511719</ele>
        <time>2021-01-06T12:16:40.000Z</time>
      </trkpt>
      <trkpt lat="45.13201" lon="5.93066">
        <ele>2371.3999023438</ele>
        <time>2021-01-06T12:16:45.000Z</time>
      </trkpt>
      <trkpt lat="45.13201" lon="5.93066">
        <ele>2371.3999023438</ele>
        <time>2021-01-06T12:16:46.000Z</time>
      </trkpt>
      <trkpt lat="45.13204" lon="5.93068">
        <ele>2372.3999023438</ele>
        <time>2021-01-06T12:16:51.000Z</time>
      </trkpt>
      <trkpt lat="45.13206" lon="5.93069">
        <ele>2373.6000976562</ele>
        <time>2021-01-06T12:16:58.000Z</time>
      </trkpt>
      <trkpt lat="45.13207" lon="5.93069">
        <ele>2373.6000976562</ele>
        <time>2021-01-06T12:16:59.000Z</time>
      </trkpt>
      <trkpt lat="45.13209" lon="5.93069">
        <ele>2374.3999023438</ele>
        <time>2021-01-06T12:17:04.000Z</time>
      </trkpt>
      <trkpt lat="45.13209" lon="5.93069">
        <ele>2374.6000976562</ele>
        <time>2021-01-06T12:17:05.000Z</time>
      </trkpt>
      <trkpt lat="45.13209" lon="5.93069">
        <ele>2375.6000976562</ele>
        <time>2021-01-06T12:17:10.000Z</time>
      </trkpt>
      <trkpt lat="45.13209" lon="5.9307">
        <ele>2376</ele>
        <time>2021-01-06T12:17:11.000Z</time>
      </trkpt>
      <trkpt lat="45.13209" lon="5.9307">
        <ele>2376.3999023438</ele>
        <time>2021-01-06T12:17:14.000Z</time>
      </trkpt>
      <trkpt lat="45.13209" lon="5.9307">
        <ele>2376.3999023438</ele>
        <time>2021-01-06T12:17:16.000Z</time>
      </trkpt>
      <trkpt lat="45.13208" lon="5.93071">
        <ele>2376.6000976562</ele>
        <time>2021-01-06T12:17:19.000Z</time>
      </trkpt>
      <trkpt lat="45.13208" lon="5.93073">
        <ele>2377</ele>
        <time>2021-01-06T12:17:21.000Z</time>
      </trkpt>
      <trkpt lat="45.13206" lon="5.93075">
        <ele>2377.8000488281</ele>
        <time>2021-01-06T12:17:26.000Z</time>
      </trkpt>
      <trkpt lat="45.13205" lon="5.93077">
        <ele>2378.1999511719</ele>
        <time>2021-01-06T12:17:28.000Z</time>
      </trkpt>
      <trkpt lat="45.13205" lon="5.93077">
        <ele>2378.6000976562</ele>
        <time>2021-01-06T12:17:31.000Z</time>
      </trkpt>
      <trkpt lat="45.13204" lon="5.93078">
        <ele>2379.1999511719</ele>
        <time>2021-01-06T12:17:34.000Z</time>
      </trkpt>
      <trkpt lat="45.13205" lon="5.93078">
        <ele>2379.8000488281</ele>
        <time>2021-01-06T12:17:36.000Z</time>
      </trkpt>
      <trkpt lat="45.13205" lon="5.93078">
        <ele>2380.1999511719</ele>
        <time>2021-01-06T12:17:39.000Z</time>
      </trkpt>
      <trkpt lat="45.13204" lon="5.93078">
        <ele>2380.6000976562</ele>
        <time>2021-01-06T12:17:42.000Z</time>
      </trkpt>
      <trkpt lat="45.13204" lon="5.93079">
        <ele>2380.8000488281</ele>
        <time>2021-01-06T12:17:48.000Z</time>
      </trkpt>
      <trkpt lat="45.13206" lon="5.93081">
        <ele>2381</ele>
        <time>2021-01-06T12:17:54.000Z</time>
      </trkpt>
      <trkpt lat="45.13208" lon="5.93082">
        <ele>2381.3999023438</ele>
        <time>2021-01-06T12:17:57.000Z</time>
      </trkpt>
      <trkpt lat="45.13209" lon="5.93083">
        <ele>2382</ele>
        <time>2021-01-06T12:18:00.000Z</time>
      </trkpt>
      <trkpt lat="45.13211" lon="5.93083">
        <ele>2382.3999023438</ele>
        <time>2021-01-06T12:18:03.000Z</time>
      </trkpt>
      <trkpt lat="45.13214" lon="5.93084">
        <ele>2383.1999511719</ele>
        <time>2021-01-06T12:18:07.000Z</time>
      </trkpt>
      <trkpt lat="45.13215" lon="5.93084">
        <ele>2383.3999023438</ele>
        <time>2021-01-06T12:18:09.000Z</time>
      </trkpt>
      <trkpt lat="45.13216" lon="5.93083">
        <ele>2384.1999511719</ele>
        <time>2021-01-06T12:18:12.000Z</time>
      </trkpt>
      <trkpt lat="45.13217" lon="5.93083">
        <ele>2384.6000976562</ele>
        <time>2021-01-06T12:18:15.000Z</time>
      </trkpt>
      <trkpt lat="45.13216" lon="5.93084">
        <ele>2384.8000488281</ele>
        <time>2021-01-06T12:18:16.000Z</time>
      </trkpt>
      <trkpt lat="45.13217" lon="5.93084">
        <ele>2385</ele>
        <time>2021-01-06T12:18:17.000Z</time>
      </trkpt>
      <trkpt lat="45.13216" lon="5.93085">
        <ele>2385.1999511719</ele>
        <time>2021-01-06T12:18:20.000Z</time>
      </trkpt>
      <trkpt lat="45.13216" lon="5.93086">
        <ele>2385.3999023438</ele>
        <time>2021-01-06T12:18:22.000Z</time>
      </trkpt>
      <trkpt lat="45.13216" lon="5.93088">
        <ele>2385.6000976562</ele>
        <time>2021-01-06T12:18:25.000Z</time>
      </trkpt>
      <trkpt lat="45.13215" lon="5.93089">
        <ele>2386</ele>
        <time>2021-01-06T12:18:27.000Z</time>
      </trkpt>
      <trkpt lat="45.13214" lon="5.93091">
        <ele>2386.8000488281</ele>
        <time>2021-01-06T12:18:31.000Z</time>
      </trkpt>
      <trkpt lat="45.13213" lon="5.93093">
        <ele>2387.1999511719</ele>
        <time>2021-01-06T12:18:34.000Z</time>
      </trkpt>
      <trkpt lat="45.13213" lon="5.93094">
        <ele>2387.8000488281</ele>
        <time>2021-01-06T12:18:37.000Z</time>
      </trkpt>
      <trkpt lat="45.13213" lon="5.93094">
        <ele>2388.6000976562</ele>
        <time>2021-01-06T12:18:41.000Z</time>
      </trkpt>
      <trkpt lat="45.13213" lon="5.93095">
        <ele>2389</ele>
        <time>2021-01-06T12:18:43.000Z</time>
      </trkpt>
      <trkpt lat="45.13215" lon="5.93095">
        <ele>2390.1999511719</ele>
        <time>2021-01-06T12:18:48.000Z</time>
      </trkpt>
      <trkpt lat="45.13215" lon="5.93095">
        <ele>2390.1999511719</ele>
        <time>2021-01-06T12:18:49.000Z</time>
      </trkpt>
      <trkpt lat="45.13216" lon="5.93097">
        <ele>2390.8000488281</ele>
        <time>2021-01-06T12:18:54.000Z</time>
      </trkpt>
      <trkpt lat="45.13218" lon="5.93099">
        <ele>2391.1999511719</ele>
        <time>2021-01-06T12:18:57.000Z</time>
      </trkpt>
      <trkpt lat="45.13219" lon="5.93099">
        <ele>2391.3999023438</ele>
        <time>2021-01-06T12:18:59.000Z</time>
      </trkpt>
      <trkpt lat="45.13221" lon="5.93102">
        <ele>2392.3999023438</ele>
        <time>2021-01-06T12:19:05.000Z</time>
      </trkpt>
      <trkpt lat="45.13221" lon="5.93102">
        <ele>2393.3999023438</ele>
        <time>2021-01-06T12:19:11.000Z</time>
      </trkpt>
      <trkpt lat="45.13222" lon="5.93102">
        <ele>2393.8000488281</ele>
        <time>2021-01-06T12:19:13.000Z</time>
      </trkpt>
      <trkpt lat="45.13224" lon="5.93103">
        <ele>2394.6000976562</ele>
        <time>2021-01-06T12:19:17.000Z</time>
      </trkpt>
      <trkpt lat="45.13224" lon="5.93102">
        <ele>2395</ele>
        <time>2021-01-06T12:19:19.000Z</time>
      </trkpt>
      <trkpt lat="45.13225" lon="5.93102">
        <ele>2395.6000976562</ele>
        <time>2021-01-06T12:19:23.000Z</time>
      </trkpt>
      <trkpt lat="45.13227" lon="5.93101">
        <ele>2396.3999023438</ele>
        <time>2021-01-06T12:19:27.000Z</time>
      </trkpt>
      <trkpt lat="45.13228" lon="5.931">
        <ele>2396.8000488281</ele>
        <time>2021-01-06T12:19:29.000Z</time>
      </trkpt>
      <trkpt lat="45.13227" lon="5.931">
        <ele>2397.1999511719</ele>
        <time>2021-01-06T12:19:32.000Z</time>
      </trkpt>
      <trkpt lat="45.13227" lon="5.93101">
        <ele>2397.8000488281</ele>
        <time>2021-01-06T12:19:36.000Z</time>
      </trkpt>
      <trkpt lat="45.13227" lon="5.93102">
        <ele>2397.8000488281</ele>
        <time>2021-01-06T12:19:37.000Z</time>
      </trkpt>
      <trkpt lat="45.13226" lon="5.93107">
        <ele>2398.3999023438</ele>
        <time>2021-01-06T12:19:43.000Z</time>
      </trkpt>
      <trkpt lat="45.13224" lon="5.9311">
        <ele>2398.8000488281</ele>
        <time>2021-01-06T12:19:46.000Z</time>
      </trkpt>
      <trkpt lat="45.13224" lon="5.93114">
        <ele>2399.3999023438</ele>
        <time>2021-01-06T12:19:50.000Z</time>
      </trkpt>
      <trkpt lat="45.13222" lon="5.93116">
        <ele>2400</ele>
        <time>2021-01-06T12:19:53.000Z</time>
      </trkpt>
      <trkpt lat="45.13221" lon="5.93118">
        <ele>2400.3999023438</ele>
        <time>2021-01-06T12:19:55.000Z</time>
      </trkpt>
      <trkpt lat="45.13221" lon="5.93118">
        <ele>2400.6000976562</ele>
        <time>2021-01-06T12:19:56.000Z</time>
      </trkpt>
      <trkpt lat="45.1322" lon="5.9312">
        <ele>2401.1999511719</ele>
        <time>2021-01-06T12:19:59.000Z</time>
      </trkpt>
      <trkpt lat="45.13219" lon="5.93123">
        <ele>2401.8000488281</ele>
        <time>2021-01-06T12:20:02.000Z</time>
      </trkpt>
      <trkpt lat="45.13219" lon="5.93125">
        <ele>2402.1999511719</ele>
        <time>2021-01-06T12:20:05.000Z</time>
      </trkpt>
      <trkpt lat="45.13218" lon="5.93127">
        <ele>2403</ele>
        <time>2021-01-06T12:20:08.000Z</time>
      </trkpt>
      <trkpt lat="45.13218" lon="5.93129">
        <ele>2403.3999023438</ele>
        <time>2021-01-06T12:20:11.000Z</time>
      </trkpt>
      <trkpt lat="45.13218" lon="5.93131">
        <ele>2404</ele>
        <time>2021-01-06T12:20:14.000Z</time>
      </trkpt>
      <trkpt lat="45.13218" lon="5.93131">
        <ele>2404.6000976562</ele>
        <time>2021-01-06T12:20:17.000Z</time>
      </trkpt>
      <trkpt lat="45.13218" lon="5.93131">
        <ele>2405</ele>
        <time>2021-01-06T12:20:21.000Z</time>
      </trkpt>
      <trkpt lat="45.13218" lon="5.93131">
        <ele>2405.6000976562</ele>
        <time>2021-01-06T12:20:24.000Z</time>
      </trkpt>
      <trkpt lat="45.13219" lon="5.93131">
        <ele>2406.1999511719</ele>
        <time>2021-01-06T12:20:27.000Z</time>
      </trkpt>
      <trkpt lat="45.13222" lon="5.93132">
        <ele>2406.6000976562</ele>
        <time>2021-01-06T12:20:30.000Z</time>
      </trkpt>
      <trkpt lat="45.13226" lon="5.93131">
        <ele>2407.1999511719</ele>
        <time>2021-01-06T12:20:34.000Z</time>
      </trkpt>
      <trkpt lat="45.13228" lon="5.9313">
        <ele>2407.8000488281</ele>
        <time>2021-01-06T12:20:37.000Z</time>
      </trkpt>
      <trkpt lat="45.1323" lon="5.9313">
        <ele>2408.3999023438</ele>
        <time>2021-01-06T12:20:41.000Z</time>
      </trkpt>
      <trkpt lat="45.13233" lon="5.9313">
        <ele>2408.8000488281</ele>
        <time>2021-01-06T12:20:44.000Z</time>
      </trkpt>
      <trkpt lat="45.13234" lon="5.93129">
        <ele>2409.3999023438</ele>
        <time>2021-01-06T12:20:47.000Z</time>
      </trkpt>
      <trkpt lat="45.13235" lon="5.93128">
        <ele>2409.8000488281</ele>
        <time>2021-01-06T12:20:49.000Z</time>
      </trkpt>
      <trkpt lat="45.13239" lon="5.93128">
        <ele>2411</ele>
        <time>2021-01-06T12:20:56.000Z</time>
      </trkpt>
      <trkpt lat="45.13241" lon="5.93127">
        <ele>2412</ele>
        <time>2021-01-06T12:21:01.000Z</time>
      </trkpt>
      <trkpt lat="45.13243" lon="5.93127">
        <ele>2412.3999023438</ele>
        <time>2021-01-06T12:21:04.000Z</time>
      </trkpt>
      <trkpt lat="45.13246" lon="5.93127">
        <ele>2413.1999511719</ele>
        <time>2021-01-06T12:21:10.000Z</time>
      </trkpt>
      <trkpt lat="45.13248" lon="5.93127">
        <ele>2414.1999511719</ele>
        <time>2021-01-06T12:21:15.000Z</time>
      </trkpt>
      <trkpt lat="45.13248" lon="5.93127">
        <ele>2414.1999511719</ele>
        <time>2021-01-06T12:21:16.000Z</time>
      </trkpt>
      <trkpt lat="45.13247" lon="5.93127">
        <ele>2414.8000488281</ele>
        <time>2021-01-06T12:21:19.000Z</time>
      </trkpt>
      <trkpt lat="45.13247" lon="5.93127">
        <ele>2414.8000488281</ele>
        <time>2021-01-06T12:21:21.000Z</time>
      </trkpt>
      <trkpt lat="45.13245" lon="5.93131">
        <ele>2415.1999511719</ele>
        <time>2021-01-06T12:21:28.000Z</time>
      </trkpt>
      <trkpt lat="45.13244" lon="5.93133">
        <ele>2415.3999023438</ele>
        <time>2021-01-06T12:21:30.000Z</time>
      </trkpt>
      <trkpt lat="45.13242" lon="5.93138">
        <ele>2416.6000976562</ele>
        <time>2021-01-06T12:21:36.000Z</time>
      </trkpt>
      <trkpt lat="45.1324" lon="5.93142">
        <ele>2417.6000976562</ele>
        <time>2021-01-06T12:21:42.000Z</time>
      </trkpt>
      <trkpt lat="45.1324" lon="5.93142">
        <ele>2417.8000488281</ele>
        <time>2021-01-06T12:21:43.000Z</time>
      </trkpt>
      <trkpt lat="45.13241" lon="5.93141">
        <ele>2418.1999511719</ele>
        <time>2021-01-06T12:21:49.000Z</time>
      </trkpt>
      <trkpt lat="45.13243" lon="5.9314">
        <ele>2418.6000976562</ele>
        <time>2021-01-06T12:21:57.000Z</time>
      </trkpt>
      <trkpt lat="45.13245" lon="5.93139">
        <ele>2419</ele>
        <time>2021-01-06T12:22:00.000Z</time>
      </trkpt>
      <trkpt lat="45.13246" lon="5.93139">
        <ele>2419.1999511719</ele>
        <time>2021-01-06T12:22:01.000Z</time>
      </trkpt>
      <trkpt lat="45.13247" lon="5.93139">
        <ele>2419.6000976562</ele>
        <time>2021-01-06T12:22:03.000Z</time>
      </trkpt>
      <trkpt lat="45.13248" lon="5.93138">
        <ele>2420</ele>
        <time>2021-01-06T12:22:06.000Z</time>
      </trkpt>
      <trkpt lat="45.1325" lon="5.93138">
        <ele>2420.6000976562</ele>
        <time>2021-01-06T12:22:09.000Z</time>
      </trkpt>
      <trkpt lat="45.1325" lon="5.93138">
        <ele>2421</ele>
        <time>2021-01-06T12:22:12.000Z</time>
      </trkpt>
      <trkpt lat="45.1325" lon="5.93138">
        <ele>2421.6000976562</ele>
        <time>2021-01-06T12:22:15.000Z</time>
      </trkpt>
      <trkpt lat="45.13249" lon="5.93138">
        <ele>2421.6000976562</ele>
        <time>2021-01-06T12:22:16.000Z</time>
      </trkpt>
      <trkpt lat="45.13249" lon="5.93139">
        <ele>2421.6000976562</ele>
        <time>2021-01-06T12:22:19.000Z</time>
      </trkpt>
      <trkpt lat="45.13247" lon="5.93143">
        <ele>2422.1999511719</ele>
        <time>2021-01-06T12:22:25.000Z</time>
      </trkpt>
      <trkpt lat="45.13245" lon="5.93147">
        <ele>2423</ele>
        <time>2021-01-06T12:22:30.000Z</time>
      </trkpt>
      <trkpt lat="45.13246" lon="5.93147">
        <ele>2423.1999511719</ele>
        <time>2021-01-06T12:22:31.000Z</time>
      </trkpt>
      <trkpt lat="45.13245" lon="5.93148">
        <ele>2424</ele>
        <time>2021-01-06T12:22:35.000Z</time>
      </trkpt>
      <trkpt lat="45.13245" lon="5.93148">
        <ele>2424.1999511719</ele>
        <time>2021-01-06T12:22:37.000Z</time>
      </trkpt>
      <trkpt lat="45.13245" lon="5.93148">
        <ele>2424.8000488281</ele>
        <time>2021-01-06T12:22:40.000Z</time>
      </trkpt>
      <trkpt lat="45.13246" lon="5.93148">
        <ele>2425.1999511719</ele>
        <time>2021-01-06T12:22:46.000Z</time>
      </trkpt>
      <trkpt lat="45.13247" lon="5.93147">
        <ele>2425.3999023438</ele>
        <time>2021-01-06T12:22:48.000Z</time>
      </trkpt>
      <trkpt lat="45.13248" lon="5.93147">
        <ele>2425.6000976562</ele>
        <time>2021-01-06T12:22:50.000Z</time>
      </trkpt>
      <trkpt lat="45.1325" lon="5.93146">
        <ele>2425.8000488281</ele>
        <time>2021-01-06T12:22:52.000Z</time>
      </trkpt>
      <trkpt lat="45.13252" lon="5.93146">
        <ele>2426.3999023438</ele>
        <time>2021-01-06T12:22:56.000Z</time>
      </trkpt>
      <trkpt lat="45.13252" lon="5.93146">
        <ele>2426.6000976562</ele>
        <time>2021-01-06T12:22:57.000Z</time>
      </trkpt>
      <trkpt lat="45.13255" lon="5.93146">
        <ele>2427.6000976562</ele>
        <time>2021-01-06T12:23:02.000Z</time>
      </trkpt>
      <trkpt lat="45.13255" lon="5.93146">
        <ele>2427.8000488281</ele>
        <time>2021-01-06T12:23:03.000Z</time>
      </trkpt>
      <trkpt lat="45.13256" lon="5.93145">
        <ele>2428.6000976562</ele>
        <time>2021-01-06T12:23:09.000Z</time>
      </trkpt>
      <trkpt lat="45.13255" lon="5.93146">
        <ele>2428.8000488281</ele>
        <time>2021-01-06T12:23:14.000Z</time>
      </trkpt>
      <trkpt lat="45.13254" lon="5.93147">
        <ele>2429</ele>
        <time>2021-01-06T12:23:16.000Z</time>
      </trkpt>
      <trkpt lat="45.13253" lon="5.93149">
        <ele>2429.1999511719</ele>
        <time>2021-01-06T12:23:19.000Z</time>
      </trkpt>
      <trkpt lat="45.13252" lon="5.93151">
        <ele>2429.6000976562</ele>
        <time>2021-01-06T12:23:23.000Z</time>
      </trkpt>
      <trkpt lat="45.13252" lon="5.93152">
        <ele>2429.8000488281</ele>
        <time>2021-01-06T12:23:24.000Z</time>
      </trkpt>
      <trkpt lat="45.13251" lon="5.93154">
        <ele>2430</ele>
        <time>2021-01-06T12:23:26.000Z</time>
      </trkpt>
      <trkpt lat="45.13249" lon="5.93157">
        <ele>2430.8000488281</ele>
        <time>2021-01-06T12:23:30.000Z</time>
      </trkpt>
      <trkpt lat="45.13249" lon="5.93158">
        <ele>2431.1999511719</ele>
        <time>2021-01-06T12:23:33.000Z</time>
      </trkpt>
      <trkpt lat="45.13248" lon="5.9316">
        <ele>2432</ele>
        <time>2021-01-06T12:23:36.000Z</time>
      </trkpt>
      <trkpt lat="45.13247" lon="5.93161">
        <ele>2432.1999511719</ele>
        <time>2021-01-06T12:23:37.000Z</time>
      </trkpt>
      <trkpt lat="45.13246" lon="5.93162">
        <ele>2432.6000976562</ele>
        <time>2021-01-06T12:23:39.000Z</time>
      </trkpt>
      <trkpt lat="45.13244" lon="5.93165">
        <ele>2433.1999511719</ele>
        <time>2021-01-06T12:23:44.000Z</time>
      </trkpt>
      <trkpt lat="45.13244" lon="5.93166">
        <ele>2433.3999023438</ele>
        <time>2021-01-06T12:23:45.000Z</time>
      </trkpt>
      <trkpt lat="45.13242" lon="5.93169">
        <ele>2434.1999511719</ele>
        <time>2021-01-06T12:23:50.000Z</time>
      </trkpt>
      <trkpt lat="45.13242" lon="5.9317">
        <ele>2434.3999023438</ele>
        <time>2021-01-06T12:23:51.000Z</time>
      </trkpt>
      <trkpt lat="45.13241" lon="5.93172">
        <ele>2435.1999511719</ele>
        <time>2021-01-06T12:23:56.000Z</time>
      </trkpt>
      <trkpt lat="45.1324" lon="5.93173">
        <ele>2435.6000976562</ele>
        <time>2021-01-06T12:23:58.000Z</time>
      </trkpt>
      <trkpt lat="45.13238" lon="5.93176">
        <ele>2436.3999023438</ele>
        <time>2021-01-06T12:24:02.000Z</time>
      </trkpt>
      <trkpt lat="45.13237" lon="5.93177">
        <ele>2436.8000488281</ele>
        <time>2021-01-06T12:24:04.000Z</time>
      </trkpt>
      <trkpt lat="45.13236" lon="5.93178">
        <ele>2437.3999023438</ele>
        <time>2021-01-06T12:24:09.000Z</time>
      </trkpt>
      <trkpt lat="45.13236" lon="5.93178">
        <ele>2438</ele>
        <time>2021-01-06T12:24:17.000Z</time>
      </trkpt>
      <trkpt lat="45.13237" lon="5.93178">
        <ele>2438.3999023438</ele>
        <time>2021-01-06T12:24:23.000Z</time>
      </trkpt>
      <trkpt lat="45.13241" lon="5.9318">
        <ele>2439.6000976562</ele>
        <time>2021-01-06T12:24:29.000Z</time>
      </trkpt>
      <trkpt lat="45.13242" lon="5.93182">
        <ele>2440</ele>
        <time>2021-01-06T12:24:31.000Z</time>
      </trkpt>
      <trkpt lat="45.13244" lon="5.93183">
        <ele>2440.8000488281</ele>
        <time>2021-01-06T12:24:36.000Z</time>
      </trkpt>
      <trkpt lat="45.13245" lon="5.93184">
        <ele>2440.8000488281</ele>
        <time>2021-01-06T12:24:37.000Z</time>
      </trkpt>
      <trkpt lat="45.13248" lon="5.93185">
        <ele>2441.8000488281</ele>
        <time>2021-01-06T12:24:42.000Z</time>
      </trkpt>
      <trkpt lat="45.13248" lon="5.93186">
        <ele>2442</ele>
        <time>2021-01-06T12:24:43.000Z</time>
      </trkpt>
      <trkpt lat="45.13252" lon="5.93185">
        <ele>2443</ele>
        <time>2021-01-06T12:24:48.000Z</time>
      </trkpt>
      <trkpt lat="45.13253" lon="5.93185">
        <ele>2443.3999023438</ele>
        <time>2021-01-06T12:24:50.000Z</time>
      </trkpt>
      <trkpt lat="45.13253" lon="5.93184">
        <ele>2444</ele>
        <time>2021-01-06T12:24:56.000Z</time>
      </trkpt>
      <trkpt lat="45.13253" lon="5.93184">
        <ele>2444</ele>
        <time>2021-01-06T12:24:57.000Z</time>
      </trkpt>
      <trkpt lat="45.13253" lon="5.93185">
        <ele>2444.1999511719</ele>
        <time>2021-01-06T12:25:04.000Z</time>
      </trkpt>
      <trkpt lat="45.13253" lon="5.93185">
        <ele>2444.1999511719</ele>
        <time>2021-01-06T12:25:06.000Z</time>
      </trkpt>
      <trkpt lat="45.13252" lon="5.93189">
        <ele>2444.3999023438</ele>
        <time>2021-01-06T12:25:12.000Z</time>
      </trkpt>
      <trkpt lat="45.13252" lon="5.93193">
        <ele>2445</ele>
        <time>2021-01-06T12:25:16.000Z</time>
      </trkpt>
      <trkpt lat="45.13251" lon="5.93194">
        <ele>2445.3999023438</ele>
        <time>2021-01-06T12:25:18.000Z</time>
      </trkpt>
      <trkpt lat="45.1325" lon="5.93198">
        <ele>2446.1999511719</ele>
        <time>2021-01-06T12:25:22.000Z</time>
      </trkpt>
      <trkpt lat="45.13249" lon="5.932">
        <ele>2446.8000488281</ele>
        <time>2021-01-06T12:25:25.000Z</time>
      </trkpt>
      <trkpt lat="45.13247" lon="5.93202">
        <ele>2447.3999023438</ele>
        <time>2021-01-06T12:25:28.000Z</time>
      </trkpt>
      <trkpt lat="45.13246" lon="5.93205">
        <ele>2448</ele>
        <time>2021-01-06T12:25:32.000Z</time>
      </trkpt>
      <trkpt lat="45.13245" lon="5.93206">
        <ele>2448.3999023438</ele>
        <time>2021-01-06T12:25:35.000Z</time>
      </trkpt>
      <trkpt lat="45.13244" lon="5.93209">
        <ele>2449.3999023438</ele>
        <time>2021-01-06T12:25:39.000Z</time>
      </trkpt>
      <trkpt lat="45.13243" lon="5.9321">
        <ele>2449.6000976562</ele>
        <time>2021-01-06T12:25:41.000Z</time>
      </trkpt>
      <trkpt lat="45.13243" lon="5.9321">
        <ele>2450.3999023438</ele>
        <time>2021-01-06T12:25:45.000Z</time>
      </trkpt>
      <trkpt lat="45.13243" lon="5.93211">
        <ele>2450.6000976562</ele>
        <time>2021-01-06T12:25:47.000Z</time>
      </trkpt>
      <trkpt lat="45.13244" lon="5.93212">
        <ele>2451</ele>
        <time>2021-01-06T12:25:49.000Z</time>
      </trkpt>
      <trkpt lat="45.13248" lon="5.93213">
        <ele>2451.8000488281</ele>
        <time>2021-01-06T12:25:56.000Z</time>
      </trkpt>
      <trkpt lat="45.13251" lon="5.93213">
        <ele>2452.8000488281</ele>
        <time>2021-01-06T12:26:02.000Z</time>
      </trkpt>
      <trkpt lat="45.13254" lon="5.93212">
        <ele>2454</ele>
        <time>2021-01-06T12:26:09.000Z</time>
      </trkpt>
      <trkpt lat="45.13255" lon="5.93213">
        <ele>2455</ele>
        <time>2021-01-06T12:26:15.000Z</time>
      </trkpt>
      <trkpt lat="45.13255" lon="5.93213">
        <ele>2455.1999511719</ele>
        <time>2021-01-06T12:26:16.000Z</time>
      </trkpt>
      <trkpt lat="45.13258" lon="5.93212">
        <ele>2455.8000488281</ele>
        <time>2021-01-06T12:26:22.000Z</time>
      </trkpt>
      <trkpt lat="45.13259" lon="5.93212">
        <ele>2456.1999511719</ele>
        <time>2021-01-06T12:26:24.000Z</time>
      </trkpt>
      <trkpt lat="45.1326" lon="5.93212">
        <ele>2457.1999511719</ele>
        <time>2021-01-06T12:26:31.000Z</time>
      </trkpt>
      <trkpt lat="45.13261" lon="5.93211">
        <ele>2458</ele>
        <time>2021-01-06T12:26:37.000Z</time>
      </trkpt>
      <trkpt lat="45.13261" lon="5.93212">
        <ele>2458</ele>
        <time>2021-01-06T12:26:42.000Z</time>
      </trkpt>
      <trkpt lat="45.13261" lon="5.93213">
        <ele>2458.1999511719</ele>
        <time>2021-01-06T12:26:45.000Z</time>
      </trkpt>
      <trkpt lat="45.13261" lon="5.93215">
        <ele>2458.6000976562</ele>
        <time>2021-01-06T12:26:48.000Z</time>
      </trkpt>
      <trkpt lat="45.1326" lon="5.93218">
        <ele>2459.1999511719</ele>
        <time>2021-01-06T12:26:53.000Z</time>
      </trkpt>
      <trkpt lat="45.1326" lon="5.93219">
        <ele>2459.3999023438</ele>
        <time>2021-01-06T12:26:54.000Z</time>
      </trkpt>
      <trkpt lat="45.13258" lon="5.93221">
        <ele>2459.8000488281</ele>
        <time>2021-01-06T12:26:57.000Z</time>
      </trkpt>
      <trkpt lat="45.13258" lon="5.93221">
        <ele>2460</ele>
        <time>2021-01-06T12:26:58.000Z</time>
      </trkpt>
      <trkpt lat="45.13258" lon="5.93222">
        <ele>2460.3999023438</ele>
        <time>2021-01-06T12:27:01.000Z</time>
      </trkpt>
      <trkpt lat="45.13258" lon="5.93223">
        <ele>2460.6000976562</ele>
        <time>2021-01-06T12:27:03.000Z</time>
      </trkpt>
      <trkpt lat="45.13258" lon="5.93223">
        <ele>2461.3999023438</ele>
        <time>2021-01-06T12:27:15.000Z</time>
      </trkpt>
      <trkpt lat="45.13258" lon="5.93223">
        <ele>2461.1999511719</ele>
        <time>2021-01-06T12:27:23.000Z</time>
      </trkpt>
      <trkpt lat="45.13258" lon="5.93223">
        <ele>2461</ele>
        <time>2021-01-06T12:27:35.000Z</time>
      </trkpt>
      <trkpt lat="45.13258" lon="5.93223">
        <ele>2461</ele>
        <time>2021-01-06T12:27:45.000Z</time>
      </trkpt>
      <trkpt lat="45.13258" lon="5.93223">
        <ele>2460.8000488281</ele>
        <time>2021-01-06T12:27:53.000Z</time>
      </trkpt>
      <trkpt lat="45.13258" lon="5.93223">
        <ele>2460.6000976562</ele>
        <time>2021-01-06T12:28:03.000Z</time>
      </trkpt>
      <trkpt lat="45.13258" lon="5.93223">
        <ele>2460.6000976562</ele>
        <time>2021-01-06T12:28:19.000Z</time>
      </trkpt>
      <trkpt lat="45.13258" lon="5.93223">
        <ele>2460.1999511719</ele>
        <time>2021-01-06T12:28:28.000Z</time>
      </trkpt>
      <trkpt lat="45.13258" lon="5.93223">
        <ele>2460.3999023438</ele>
        <time>2021-01-06T12:28:40.000Z</time>
      </trkpt>
      <trkpt lat="45.13258" lon="5.93223">
        <ele>2459.6000976562</ele>
        <time>2021-01-06T12:28:49.000Z</time>
      </trkpt>
      <trkpt lat="45.13258" lon="5.93222">
        <ele>2460.6000976562</ele>
        <time>2021-01-06T12:28:59.000Z</time>
      </trkpt>
      <trkpt lat="45.13258" lon="5.93222">
        <ele>2461.1999511719</ele>
        <time>2021-01-06T12:29:11.000Z</time>
      </trkpt>
      <trkpt lat="45.13258" lon="5.93222">
        <ele>2461.3999023438</ele>
        <time>2021-01-06T12:29:12.000Z</time>
      </trkpt>
      <trkpt lat="45.13258" lon="5.93222">
        <ele>2461.1999511719</ele>
        <time>2021-01-06T12:29:23.000Z</time>
      </trkpt>
      <trkpt lat="45.13258" lon="5.93222">
        <ele>2461</ele>
        <time>2021-01-06T12:29:32.000Z</time>
      </trkpt>
      <trkpt lat="45.13257" lon="5.93222">
        <ele>2460.3999023438</ele>
        <time>2021-01-06T12:29:36.000Z</time>
      </trkpt>
      <trkpt lat="45.13257" lon="5.93222">
        <ele>2460.6000976562</ele>
        <time>2021-01-06T12:29:39.000Z</time>
      </trkpt>
      <trkpt lat="45.13257" lon="5.93222">
        <ele>2461.6000976562</ele>
        <time>2021-01-06T12:29:42.000Z</time>
      </trkpt>
      <trkpt lat="45.13257" lon="5.93223">
        <ele>2461.8000488281</ele>
        <time>2021-01-06T12:29:45.000Z</time>
      </trkpt>
      <trkpt lat="45.13259" lon="5.93221">
        <ele>2462</ele>
        <time>2021-01-06T12:29:51.000Z</time>
      </trkpt>
      <trkpt lat="45.13261" lon="5.93218">
        <ele>2462.3999023438</ele>
        <time>2021-01-06T12:29:57.000Z</time>
      </trkpt>
      <trkpt lat="45.13265" lon="5.93217">
        <ele>2461.8000488281</ele>
        <time>2021-01-06T12:30:03.000Z</time>
      </trkpt>
      <trkpt lat="45.13266" lon="5.93216">
        <ele>2462.8000488281</ele>
        <time>2021-01-06T12:30:10.000Z</time>
      </trkpt>
      <trkpt lat="45.13267" lon="5.93216">
        <ele>2463</ele>
        <time>2021-01-06T12:30:11.000Z</time>
      </trkpt>
      <trkpt lat="45.13268" lon="5.93215">
        <ele>2463.3999023438</ele>
        <time>2021-01-06T12:30:16.000Z</time>
      </trkpt>
      <trkpt lat="45.13268" lon="5.93215">
        <ele>2464</ele>
        <time>2021-01-06T12:30:18.000Z</time>
      </trkpt>
      <trkpt lat="45.13268" lon="5.93215">
        <ele>2464.6000976562</ele>
        <time>2021-01-06T12:30:22.000Z</time>
      </trkpt>
      <trkpt lat="45.13269" lon="5.93216">
        <ele>2465</ele>
        <time>2021-01-06T12:30:26.000Z</time>
      </trkpt>
      <trkpt lat="45.13269" lon="5.93216">
        <ele>2466.1999511719</ele>
        <time>2021-01-06T12:30:28.000Z</time>
      </trkpt>
      <trkpt lat="45.13269" lon="5.93215">
        <ele>2466.3999023438</ele>
        <time>2021-01-06T12:30:29.000Z</time>
      </trkpt>
      <trkpt lat="45.13269" lon="5.93216">
        <ele>2467.1999511719</ele>
        <time>2021-01-06T12:30:35.000Z</time>
      </trkpt>
      <trkpt lat="45.13269" lon="5.93216">
        <ele>2468.1999511719</ele>
        <time>2021-01-06T12:30:40.000Z</time>
      </trkpt>
      <trkpt lat="45.13269" lon="5.93216">
        <ele>2468.3999023438</ele>
        <time>2021-01-06T12:30:45.000Z</time>
      </trkpt>
      <trkpt lat="45.1327" lon="5.93214">
        <ele>2468.1999511719</ele>
        <time>2021-01-06T12:30:53.000Z</time>
      </trkpt>
      <trkpt lat="45.1327" lon="5.93214">
        <ele>2468.1999511719</ele>
        <time>2021-01-06T12:30:58.000Z</time>
      </trkpt>
      <trkpt lat="45.13271" lon="5.93214">
        <ele>2469.1999511719</ele>
        <time>2021-01-06T12:31:04.000Z</time>
      </trkpt>
      <trkpt lat="45.13271" lon="5.93214">
        <ele>2469.6000976562</ele>
        <time>2021-01-06T12:31:05.000Z</time>
      </trkpt>
      <trkpt lat="45.13271" lon="5.93214">
        <ele>2470.1999511719</ele>
        <time>2021-01-06T12:31:08.000Z</time>
      </trkpt>
      <trkpt lat="45.13273" lon="5.93214">
        <ele>2471</ele>
        <time>2021-01-06T12:31:12.000Z</time>
      </trkpt>
      <trkpt lat="45.13274" lon="5.93214">
        <ele>2471.3999023438</ele>
        <time>2021-01-06T12:31:14.000Z</time>
      </trkpt>
      <trkpt lat="45.13274" lon="5.93214">
        <ele>2472.1999511719</ele>
        <time>2021-01-06T12:31:18.000Z</time>
      </trkpt>
      <trkpt lat="45.13274" lon="5.93214">
        <ele>2472.8000488281</ele>
        <time>2021-01-06T12:31:20.000Z</time>
      </trkpt>
      <trkpt lat="45.13274" lon="5.93214">
        <ele>2473.6000976562</ele>
        <time>2021-01-06T12:31:27.000Z</time>
      </trkpt>
      <trkpt lat="45.13274" lon="5.93214">
        <ele>2473.8000488281</ele>
        <time>2021-01-06T12:31:36.000Z</time>
      </trkpt>
      <trkpt lat="45.13274" lon="5.93214">
        <ele>2474.8000488281</ele>
        <time>2021-01-06T12:31:43.000Z</time>
      </trkpt>
      <trkpt lat="45.13274" lon="5.93214">
        <ele>2475.1999511719</ele>
        <time>2021-01-06T12:31:47.000Z</time>
      </trkpt>
      <trkpt lat="45.13274" lon="5.93214">
        <ele>2475.8000488281</ele>
        <time>2021-01-06T12:31:55.000Z</time>
      </trkpt>
      <trkpt lat="45.13274" lon="5.93215">
        <ele>2475.8000488281</ele>
        <time>2021-01-06T12:31:58.000Z</time>
      </trkpt>
      <trkpt lat="45.13274" lon="5.93214">
        <ele>2476.3999023438</ele>
        <time>2021-01-06T12:32:01.000Z</time>
      </trkpt>
      <trkpt lat="45.13276" lon="5.93216">
        <ele>2477</ele>
        <time>2021-01-06T12:32:06.000Z</time>
      </trkpt>
      <trkpt lat="45.13276" lon="5.93216">
        <ele>2478</ele>
        <time>2021-01-06T12:32:10.000Z</time>
      </trkpt>
      <trkpt lat="45.13276" lon="5.93217">
        <ele>2479</ele>
        <time>2021-01-06T12:32:13.000Z</time>
      </trkpt>
      <trkpt lat="45.13277" lon="5.93218">
        <ele>2478.1999511719</ele>
        <time>2021-01-06T12:32:19.000Z</time>
      </trkpt>
      <trkpt lat="45.13277" lon="5.93218">
        <ele>2479.1999511719</ele>
        <time>2021-01-06T12:32:22.000Z</time>
      </trkpt>
      <trkpt lat="45.13278" lon="5.93218">
        <ele>2479.8000488281</ele>
        <time>2021-01-06T12:32:25.000Z</time>
      </trkpt>
      <trkpt lat="45.13278" lon="5.93218">
        <ele>2480.1999511719</ele>
        <time>2021-01-06T12:32:28.000Z</time>
      </trkpt>
      <trkpt lat="45.13278" lon="5.93219">
        <ele>2481</ele>
        <time>2021-01-06T12:32:32.000Z</time>
      </trkpt>
      <trkpt lat="45.13278" lon="5.93219">
        <ele>2481.3999023438</ele>
        <time>2021-01-06T12:32:35.000Z</time>
      </trkpt>
      <trkpt lat="45.13278" lon="5.93219">
        <ele>2482</ele>
        <time>2021-01-06T12:32:37.000Z</time>
      </trkpt>
      <trkpt lat="45.13278" lon="5.93219">
        <ele>2482.3999023438</ele>
        <time>2021-01-06T12:32:39.000Z</time>
      </trkpt>
      <trkpt lat="45.13279" lon="5.9322">
        <ele>2482.1999511719</ele>
        <time>2021-01-06T12:32:46.000Z</time>
      </trkpt>
      <trkpt lat="45.1328" lon="5.93221">
        <ele>2483.6000976562</ele>
        <time>2021-01-06T12:32:55.000Z</time>
      </trkpt>
      <trkpt lat="45.1328" lon="5.93221">
        <ele>2483.1999511719</ele>
        <time>2021-01-06T12:33:09.000Z</time>
      </trkpt>
      <trkpt lat="45.1328" lon="5.93221">
        <ele>2483.1999511719</ele>
        <time>2021-01-06T12:33:17.000Z</time>
      </trkpt>
      <trkpt lat="45.1328" lon="5.93221">
        <ele>2482.8000488281</ele>
        <time>2021-01-06T12:33:26.000Z</time>
      </trkpt>
      <trkpt lat="45.1328" lon="5.93221">
        <ele>2483.8000488281</ele>
        <time>2021-01-06T12:33:34.000Z</time>
      </trkpt>
      <trkpt lat="45.13281" lon="5.93223">
        <ele>2484.3999023438</ele>
        <time>2021-01-06T12:33:41.000Z</time>
      </trkpt>
      <trkpt lat="45.13281" lon="5.93223">
        <ele>2484.8000488281</ele>
        <time>2021-01-06T12:33:42.000Z</time>
      </trkpt>
      <trkpt lat="45.13281" lon="5.93223">
        <ele>2485.8000488281</ele>
        <time>2021-01-06T12:33:46.000Z</time>
      </trkpt>
      <trkpt lat="45.13282" lon="5.93224">
        <ele>2486</ele>
        <time>2021-01-06T12:33:48.000Z</time>
      </trkpt>
      <trkpt lat="45.13285" lon="5.93225">
        <ele>2487</ele>
        <time>2021-01-06T12:33:55.000Z</time>
      </trkpt>
      <trkpt lat="45.13286" lon="5.93226">
        <ele>2488.1999511719</ele>
        <time>2021-01-06T12:34:01.000Z</time>
      </trkpt>
      <trkpt lat="45.13286" lon="5.93226">
        <ele>2488.8000488281</ele>
        <time>2021-01-06T12:34:02.000Z</time>
      </trkpt>
      <trkpt lat="45.13286" lon="5.93226">
        <ele>2489.3999023438</ele>
        <time>2021-01-06T12:34:03.000Z</time>
      </trkpt>
      <trkpt lat="45.13286" lon="5.93227">
        <ele>2489.1999511719</ele>
        <time>2021-01-06T12:34:10.000Z</time>
      </trkpt>
      <trkpt lat="45.13287" lon="5.93227">
        <ele>2490.1999511719</ele>
        <time>2021-01-06T12:34:17.000Z</time>
      </trkpt>
      <trkpt lat="45.13287" lon="5.93227">
        <ele>2490.3999023438</ele>
        <time>2021-01-06T12:34:19.000Z</time>
      </trkpt>
      <trkpt lat="45.13287" lon="5.93227">
        <ele>2491.6000976562</ele>
        <time>2021-01-06T12:34:23.000Z</time>
      </trkpt>
      <trkpt lat="45.13287" lon="5.93227">
        <ele>2491.8000488281</ele>
        <time>2021-01-06T12:34:24.000Z</time>
      </trkpt>
      <trkpt lat="45.13288" lon="5.93227">
        <ele>2492.3999023438</ele>
        <time>2021-01-06T12:34:32.000Z</time>
      </trkpt>
      <trkpt lat="45.13288" lon="5.93227">
        <ele>2493</ele>
        <time>2021-01-06T12:34:34.000Z</time>
      </trkpt>
      <trkpt lat="45.13288" lon="5.93227">
        <ele>2494.1999511719</ele>
        <time>2021-01-06T12:34:36.000Z</time>
      </trkpt>
      <trkpt lat="45.13288" lon="5.93227">
        <ele>2494</ele>
        <time>2021-01-06T12:34:44.000Z</time>
      </trkpt>
      <trkpt lat="45.13288" lon="5.93227">
        <ele>2493.3999023438</ele>
        <time>2021-01-06T12:34:51.000Z</time>
      </trkpt>
      <trkpt lat="45.13288" lon="5.93227">
        <ele>2495.6000976562</ele>
        <time>2021-01-06T12:34:55.000Z</time>
      </trkpt>
      <trkpt lat="45.1329" lon="5.93229">
        <ele>2496.1999511719</ele>
        <time>2021-01-06T12:34:57.000Z</time>
      </trkpt>
      <trkpt lat="45.13291" lon="5.9323">
        <ele>2496</ele>
        <time>2021-01-06T12:35:03.000Z</time>
      </trkpt>
      <trkpt lat="45.13292" lon="5.93231">
        <ele>2496.6000976562</ele>
        <time>2021-01-06T12:35:11.000Z</time>
      </trkpt>
      <trkpt lat="45.13292" lon="5.93231">
        <ele>2497</ele>
        <time>2021-01-06T12:35:12.000Z</time>
      </trkpt>
      <trkpt lat="45.13292" lon="5.93232">
        <ele>2498.1999511719</ele>
        <time>2021-01-06T12:35:15.000Z</time>
      </trkpt>
      <trkpt lat="45.13293" lon="5.93233">
        <ele>2498.3999023438</ele>
        <time>2021-01-06T12:35:17.000Z</time>
      </trkpt>
      <trkpt lat="45.13294" lon="5.93233">
        <ele>2499</ele>
        <time>2021-01-06T12:35:23.000Z</time>
      </trkpt>
      <trkpt lat="45.13294" lon="5.93233">
        <ele>2499.1999511719</ele>
        <time>2021-01-06T12:35:25.000Z</time>
      </trkpt>
      <trkpt lat="45.13295" lon="5.93234">
        <ele>2499.8000488281</ele>
        <time>2021-01-06T12:35:29.000Z</time>
      </trkpt>
      <trkpt lat="45.13295" lon="5.93234">
        <ele>2500.1999511719</ele>
        <time>2021-01-06T12:35:30.000Z</time>
      </trkpt>
      <trkpt lat="45.13296" lon="5.93235">
        <ele>2501.3999023438</ele>
        <time>2021-01-06T12:35:33.000Z</time>
      </trkpt>
      <trkpt lat="45.13298" lon="5.93238">
        <ele>2501.8000488281</ele>
        <time>2021-01-06T12:35:39.000Z</time>
      </trkpt>
      <trkpt lat="45.13298" lon="5.93238">
        <ele>2502.1999511719</ele>
        <time>2021-01-06T12:35:54.000Z</time>
      </trkpt>
      <trkpt lat="45.13298" lon="5.93238">
        <ele>2502.1999511719</ele>
        <time>2021-01-06T12:36:05.000Z</time>
      </trkpt>
      <trkpt lat="45.13298" lon="5.93238">
        <ele>2502.1999511719</ele>
        <time>2021-01-06T12:36:19.000Z</time>
      </trkpt>
      <trkpt lat="45.13298" lon="5.93238">
        <ele>2502</ele>
        <time>2021-01-06T12:36:38.000Z</time>
      </trkpt>
      <trkpt lat="45.13299" lon="5.93242">
        <ele>2502</ele>
        <time>2021-01-06T12:36:49.000Z</time>
      </trkpt>
      <trkpt lat="45.133" lon="5.93242">
        <ele>2502.6000976562</ele>
        <time>2021-01-06T12:36:50.000Z</time>
      </trkpt>
      <trkpt lat="45.13303" lon="5.93248">
        <ele>2502.6000976562</ele>
        <time>2021-01-06T12:36:56.000Z</time>
      </trkpt>
      <trkpt lat="45.13303" lon="5.9325">
        <ele>2502.6000976562</ele>
        <time>2021-01-06T12:36:58.000Z</time>
      </trkpt>
      <trkpt lat="45.13305" lon="5.93254">
        <ele>2502.3999023438</ele>
        <time>2021-01-06T12:37:03.000Z</time>
      </trkpt>
      <trkpt lat="45.13307" lon="5.93261">
        <ele>2503</ele>
        <time>2021-01-06T12:37:11.000Z</time>
      </trkpt>
      <trkpt lat="45.13309" lon="5.93265">
        <ele>2502.8000488281</ele>
        <time>2021-01-06T12:37:19.000Z</time>
      </trkpt>
      <trkpt lat="45.13312" lon="5.93271">
        <ele>2502.6000976562</ele>
        <time>2021-01-06T12:37:27.000Z</time>
      </trkpt>
      <trkpt lat="45.13315" lon="5.93274">
        <ele>2502.1999511719</ele>
        <time>2021-01-06T12:37:34.000Z</time>
      </trkpt>
      <trkpt lat="45.13319" lon="5.93277">
        <ele>2501.3999023438</ele>
        <time>2021-01-06T12:37:40.000Z</time>
      </trkpt>
      <trkpt lat="45.13319" lon="5.93278">
        <ele>2501.1999511719</ele>
        <time>2021-01-06T12:37:41.000Z</time>
      </trkpt>
      <trkpt lat="45.13322" lon="5.93281">
        <ele>2500.8000488281</ele>
        <time>2021-01-06T12:37:48.000Z</time>
      </trkpt>
      <trkpt lat="45.13326" lon="5.93283">
        <ele>2500.6000976562</ele>
        <time>2021-01-06T12:37:55.000Z</time>
      </trkpt>
      <trkpt lat="45.13327" lon="5.93284">
        <ele>2500.1999511719</ele>
        <time>2021-01-06T12:37:57.000Z</time>
      </trkpt>
      <trkpt lat="45.1333" lon="5.93285">
        <ele>2499.1999511719</ele>
        <time>2021-01-06T12:38:03.000Z</time>
      </trkpt>
      <trkpt lat="45.1333" lon="5.93285">
        <ele>2499</ele>
        <time>2021-01-06T12:38:04.000Z</time>
      </trkpt>
      <trkpt lat="45.13334" lon="5.93286">
        <ele>2498</ele>
        <time>2021-01-06T12:38:11.000Z</time>
      </trkpt>
      <trkpt lat="45.13336" lon="5.93287">
        <ele>2496.8000488281</ele>
        <time>2021-01-06T12:38:16.000Z</time>
      </trkpt>
      <trkpt lat="45.13337" lon="5.93287">
        <ele>2496.6000976562</ele>
        <time>2021-01-06T12:38:17.000Z</time>
      </trkpt>
      <trkpt lat="45.1334" lon="5.93288">
        <ele>2496.1999511719</ele>
        <time>2021-01-06T12:38:23.000Z</time>
      </trkpt>
      <trkpt lat="45.13341" lon="5.93288">
        <ele>2495.6000976562</ele>
        <time>2021-01-06T12:38:25.000Z</time>
      </trkpt>
      <trkpt lat="45.13343" lon="5.93289">
        <ele>2494.8000488281</ele>
        <time>2021-01-06T12:38:29.000Z</time>
      </trkpt>
      <trkpt lat="45.13343" lon="5.93289">
        <ele>2494.6000976562</ele>
        <time>2021-01-06T12:38:30.000Z</time>
      </trkpt>
      <trkpt lat="45.13347" lon="5.93292">
        <ele>2494.1999511719</ele>
        <time>2021-01-06T12:38:36.000Z</time>
      </trkpt>
      <trkpt lat="45.13351" lon="5.93295">
        <ele>2494.3999023438</ele>
        <time>2021-01-06T12:38:44.000Z</time>
      </trkpt>
      <trkpt lat="45.13355" lon="5.93297">
        <ele>2494.8000488281</ele>
        <time>2021-01-06T12:38:51.000Z</time>
      </trkpt>
      <trkpt lat="45.13357" lon="5.93299">
        <ele>2495.6000976562</ele>
        <time>2021-01-06T12:39:00.000Z</time>
      </trkpt>
      <trkpt lat="45.13359" lon="5.93299">
        <ele>2495.8000488281</ele>
        <time>2021-01-06T12:39:05.000Z</time>
      </trkpt>
      <trkpt lat="45.13359" lon="5.93299">
        <ele>2496.1999511719</ele>
        <time>2021-01-06T12:39:06.000Z</time>
      </trkpt>
      <trkpt lat="45.13359" lon="5.93299">
        <ele>2497</ele>
        <time>2021-01-06T12:39:08.000Z</time>
      </trkpt>
      <trkpt lat="45.13359" lon="5.93299">
        <ele>2496.1999511719</ele>
        <time>2021-01-06T12:39:14.000Z</time>
      </trkpt>
      <trkpt lat="45.13359" lon="5.93299">
        <ele>2496.1999511719</ele>
        <time>2021-01-06T12:39:15.000Z</time>
      </trkpt>
      <trkpt lat="45.13359" lon="5.93299">
        <ele>2497.6000976562</ele>
        <time>2021-01-06T12:39:22.000Z</time>
      </trkpt>
      <trkpt lat="45.13359" lon="5.933">
        <ele>2498.3999023438</ele>
        <time>2021-01-06T12:39:29.000Z</time>
      </trkpt>
      <trkpt lat="45.1336" lon="5.933">
        <ele>2499</ele>
        <time>2021-01-06T12:39:37.000Z</time>
      </trkpt>
      <trkpt lat="45.1336" lon="5.933">
        <ele>2499.6000976562</ele>
        <time>2021-01-06T12:39:39.000Z</time>
      </trkpt>
      <trkpt lat="45.13362" lon="5.93302">
        <ele>2500.6000976562</ele>
        <time>2021-01-06T12:39:43.000Z</time>
      </trkpt>
      <trkpt lat="45.13362" lon="5.93303">
        <ele>2500.6000976562</ele>
        <time>2021-01-06T12:39:44.000Z</time>
      </trkpt>
      <trkpt lat="45.13363" lon="5.93304">
        <ele>2501.1999511719</ele>
        <time>2021-01-06T12:39:49.000Z</time>
      </trkpt>
      <trkpt lat="45.13363" lon="5.93304">
        <ele>2501.6000976562</ele>
        <time>2021-01-06T12:39:51.000Z</time>
      </trkpt>
      <trkpt lat="45.13363" lon="5.93304">
        <ele>2502.6000976562</ele>
        <time>2021-01-06T12:39:56.000Z</time>
      </trkpt>
      <trkpt lat="45.13363" lon="5.93304">
        <ele>2502.8000488281</ele>
        <time>2021-01-06T12:40:00.000Z</time>
      </trkpt>
      <trkpt lat="45.13363" lon="5.93304">
        <ele>2502.3999023438</ele>
        <time>2021-01-06T12:40:07.000Z</time>
      </trkpt>
      <trkpt lat="45.13365" lon="5.93308">
        <ele>2503.6000976562</ele>
        <time>2021-01-06T12:40:13.000Z</time>
      </trkpt>
      <trkpt lat="45.13365" lon="5.93308">
        <ele>2503.8000488281</ele>
        <time>2021-01-06T12:40:14.000Z</time>
      </trkpt>
      <trkpt lat="45.13366" lon="5.9331">
        <ele>2504.8000488281</ele>
        <time>2021-01-06T12:40:18.000Z</time>
      </trkpt>
      <trkpt lat="45.13366" lon="5.93311">
        <ele>2505.1999511719</ele>
        <time>2021-01-06T12:40:20.000Z</time>
      </trkpt>
      <trkpt lat="45.13366" lon="5.93311">
        <ele>2506</ele>
        <time>2021-01-06T12:40:23.000Z</time>
      </trkpt>
      <trkpt lat="45.13366" lon="5.93311">
        <ele>2506.3999023438</ele>
        <time>2021-01-06T12:40:26.000Z</time>
      </trkpt>
      <trkpt lat="45.13366" lon="5.93311">
        <ele>2507</ele>
        <time>2021-01-06T12:40:30.000Z</time>
      </trkpt>
      <trkpt lat="45.13367" lon="5.93312">
        <ele>2507.1999511719</ele>
        <time>2021-01-06T12:40:32.000Z</time>
      </trkpt>
      <trkpt lat="45.13366" lon="5.93311">
        <ele>2508.3999023438</ele>
        <time>2021-01-06T12:40:36.000Z</time>
      </trkpt>
      <trkpt lat="45.13366" lon="5.93311">
        <ele>2508.6000976562</ele>
        <time>2021-01-06T12:40:40.000Z</time>
      </trkpt>
      <trkpt lat="45.13369" lon="5.93316">
        <ele>2508.3999023438</ele>
        <time>2021-01-06T12:40:46.000Z</time>
      </trkpt>
      <trkpt lat="45.13369" lon="5.93318">
        <ele>2509.6000976562</ele>
        <time>2021-01-06T12:40:49.000Z</time>
      </trkpt>
      <trkpt lat="45.1337" lon="5.9332">
        <ele>2509.8000488281</ele>
        <time>2021-01-06T12:40:51.000Z</time>
      </trkpt>
      <trkpt lat="45.13371" lon="5.93323">
        <ele>2510.3999023438</ele>
        <time>2021-01-06T12:40:56.000Z</time>
      </trkpt>
      <trkpt lat="45.13372" lon="5.93323">
        <ele>2510.6000976562</ele>
        <time>2021-01-06T12:40:57.000Z</time>
      </trkpt>
      <trkpt lat="45.13372" lon="5.93323">
        <ele>2511.6000976562</ele>
        <time>2021-01-06T12:41:02.000Z</time>
      </trkpt>
      <trkpt lat="45.13372" lon="5.93323">
        <ele>2511.8000488281</ele>
        <time>2021-01-06T12:41:03.000Z</time>
      </trkpt>
      <trkpt lat="45.13372" lon="5.93324">
        <ele>2512</ele>
        <time>2021-01-06T12:41:18.000Z</time>
      </trkpt>
      <trkpt lat="45.13372" lon="5.93323">
        <ele>2512.8000488281</ele>
        <time>2021-01-06T12:41:21.000Z</time>
      </trkpt>
      <trkpt lat="45.13373" lon="5.93325">
        <ele>2513.6000976562</ele>
        <time>2021-01-06T12:41:25.000Z</time>
      </trkpt>
      <trkpt lat="45.13373" lon="5.93326">
        <ele>2514</ele>
        <time>2021-01-06T12:41:27.000Z</time>
      </trkpt>
      <trkpt lat="45.13373" lon="5.93327">
        <ele>2514.1999511719</ele>
        <time>2021-01-06T12:41:31.000Z</time>
      </trkpt>
      <trkpt lat="45.13374" lon="5.93328">
        <ele>2515</ele>
        <time>2021-01-06T12:41:35.000Z</time>
      </trkpt>
      <trkpt lat="45.13374" lon="5.93329">
        <ele>2515.3999023438</ele>
        <time>2021-01-06T12:41:39.000Z</time>
      </trkpt>
      <trkpt lat="45.13374" lon="5.93329">
        <ele>2516.1999511719</ele>
        <time>2021-01-06T12:41:43.000Z</time>
      </trkpt>
      <trkpt lat="45.13374" lon="5.93329">
        <ele>2516.3999023438</ele>
        <time>2021-01-06T12:41:45.000Z</time>
      </trkpt>
      <trkpt lat="45.13376" lon="5.93333">
        <ele>2517.3999023438</ele>
        <time>2021-01-06T12:41:51.000Z</time>
      </trkpt>
      <trkpt lat="45.13377" lon="5.93335">
        <ele>2518.6000976562</ele>
        <time>2021-01-06T12:41:57.000Z</time>
      </trkpt>
      <trkpt lat="45.13377" lon="5.93335">
        <ele>2519.1999511719</ele>
        <time>2021-01-06T12:42:12.000Z</time>
      </trkpt>
      <trkpt lat="45.13378" lon="5.93338">
        <ele>2519.3999023438</ele>
        <time>2021-01-06T12:42:18.000Z</time>
      </trkpt>
      <trkpt lat="45.13378" lon="5.93339">
        <ele>2519.6000976562</ele>
        <time>2021-01-06T12:42:19.000Z</time>
      </trkpt>
      <trkpt lat="45.13379" lon="5.93341">
        <ele>2520.6000976562</ele>
        <time>2021-01-06T12:42:24.000Z</time>
      </trkpt>
      <trkpt lat="45.13379" lon="5.93342">
        <ele>2520.6000976562</ele>
        <time>2021-01-06T12:42:25.000Z</time>
      </trkpt>
      <trkpt lat="45.13379" lon="5.93342">
        <ele>2520</ele>
        <time>2021-01-06T12:42:29.000Z</time>
      </trkpt>
      <trkpt lat="45.13379" lon="5.93342">
        <ele>2521.6000976562</ele>
        <time>2021-01-06T12:42:32.000Z</time>
      </trkpt>
      <trkpt lat="45.13379" lon="5.93343">
        <ele>2522.6000976562</ele>
        <time>2021-01-06T12:42:35.000Z</time>
      </trkpt>
      <trkpt lat="45.1338" lon="5.93344">
        <ele>2522.6000976562</ele>
        <time>2021-01-06T12:42:36.000Z</time>
      </trkpt>
      <trkpt lat="45.13381" lon="5.93347">
        <ele>2522.6000976562</ele>
        <time>2021-01-06T12:42:42.000Z</time>
      </trkpt>
      <trkpt lat="45.13382" lon="5.93349">
        <ele>2523.1999511719</ele>
        <time>2021-01-06T12:42:47.000Z</time>
      </trkpt>
      <trkpt lat="45.13383" lon="5.93351">
        <ele>2523.8000488281</ele>
        <time>2021-01-06T12:42:51.000Z</time>
      </trkpt>
      <trkpt lat="45.13383" lon="5.93352">
        <ele>2524</ele>
        <time>2021-01-06T12:42:52.000Z</time>
      </trkpt>
      <trkpt lat="45.13384" lon="5.93354">
        <ele>2524.6000976562</ele>
        <time>2021-01-06T12:42:58.000Z</time>
      </trkpt>
      <trkpt lat="45.13384" lon="5.93354">
        <ele>2524.8000488281</ele>
        <time>2021-01-06T12:43:00.000Z</time>
      </trkpt>
      <trkpt lat="45.13384" lon="5.93354">
        <ele>2526</ele>
        <time>2021-01-06T12:43:04.000Z</time>
      </trkpt>
      <trkpt lat="45.13384" lon="5.93354">
        <ele>2526.3999023438</ele>
        <time>2021-01-06T12:43:07.000Z</time>
      </trkpt>
      <trkpt lat="45.13385" lon="5.93356">
        <ele>2526</ele>
        <time>2021-01-06T12:43:15.000Z</time>
      </trkpt>
      <trkpt lat="45.13386" lon="5.93358">
        <ele>2526.8000488281</ele>
        <time>2021-01-06T12:43:21.000Z</time>
      </trkpt>
      <trkpt lat="45.13386" lon="5.93359">
        <ele>2527.1999511719</ele>
        <time>2021-01-06T12:43:24.000Z</time>
      </trkpt>
      <trkpt lat="45.13387" lon="5.9336">
        <ele>2527.8000488281</ele>
        <time>2021-01-06T12:43:27.000Z</time>
      </trkpt>
      <trkpt lat="45.13387" lon="5.93361">
        <ele>2528.1999511719</ele>
        <time>2021-01-06T12:43:32.000Z</time>
      </trkpt>
      <trkpt lat="45.13387" lon="5.93361">
        <ele>2528.3999023438</ele>
        <time>2021-01-06T12:43:34.000Z</time>
      </trkpt>
      <trkpt lat="45.13388" lon="5.93362">
        <ele>2529</ele>
        <time>2021-01-06T12:43:38.000Z</time>
      </trkpt>
      <trkpt lat="45.13388" lon="5.93362">
        <ele>2529.3999023438</ele>
        <time>2021-01-06T12:43:40.000Z</time>
      </trkpt>
      <trkpt lat="45.13388" lon="5.93362">
        <ele>2529.6000976562</ele>
        <time>2021-01-06T12:43:41.000Z</time>
      </trkpt>
      <trkpt lat="45.13388" lon="5.93362">
        <ele>2530.3999023438</ele>
        <time>2021-01-06T12:43:47.000Z</time>
      </trkpt>
      <trkpt lat="45.13388" lon="5.93363">
        <ele>2530.3999023438</ele>
        <time>2021-01-06T12:43:48.000Z</time>
      </trkpt>
      <trkpt lat="45.13389" lon="5.93364">
        <ele>2531</ele>
        <time>2021-01-06T12:43:53.000Z</time>
      </trkpt>
      <trkpt lat="45.13389" lon="5.93364">
        <ele>2531.3999023438</ele>
        <time>2021-01-06T12:43:57.000Z</time>
      </trkpt>
      <trkpt lat="45.13389" lon="5.93364">
        <ele>2531.6000976562</ele>
        <time>2021-01-06T12:44:02.000Z</time>
      </trkpt>
      <trkpt lat="45.1339" lon="5.93366">
        <ele>2532.1999511719</ele>
        <time>2021-01-06T12:44:11.000Z</time>
      </trkpt>
      <trkpt lat="45.13391" lon="5.93367">
        <ele>2532.6000976562</ele>
        <time>2021-01-06T12:44:14.000Z</time>
      </trkpt>
      <trkpt lat="45.13391" lon="5.93367">
        <ele>2533.3999023438</ele>
        <time>2021-01-06T12:44:16.000Z</time>
      </trkpt>
      <trkpt lat="45.13391" lon="5.93367">
        <ele>2533.6000976562</ele>
        <time>2021-01-06T12:44:17.000Z</time>
      </trkpt>
      <trkpt lat="45.13391" lon="5.93367">
        <ele>2534.3999023438</ele>
        <time>2021-01-06T12:44:30.000Z</time>
      </trkpt>
      <trkpt lat="45.13391" lon="5.93367">
        <ele>2534.3999023438</ele>
        <time>2021-01-06T12:44:41.000Z</time>
      </trkpt>
      <trkpt lat="45.13391" lon="5.93368">
        <ele>2534.3999023438</ele>
        <time>2021-01-06T12:44:56.000Z</time>
      </trkpt>
      <trkpt lat="45.13391" lon="5.93368">
        <ele>2534.3999023438</ele>
        <time>2021-01-06T12:45:07.000Z</time>
      </trkpt>
      <trkpt lat="45.13391" lon="5.93368">
        <ele>2533.8000488281</ele>
        <time>2021-01-06T12:45:20.000Z</time>
      </trkpt>
      <trkpt lat="45.13391" lon="5.93368">
        <ele>2533.3999023438</ele>
        <time>2021-01-06T12:45:29.000Z</time>
      </trkpt>
      <trkpt lat="45.13391" lon="5.93368">
        <ele>2533.6000976562</ele>
        <time>2021-01-06T12:45:45.000Z</time>
      </trkpt>
      <trkpt lat="45.13391" lon="5.93368">
        <ele>2533.1999511719</ele>
        <time>2021-01-06T12:45:52.000Z</time>
      </trkpt>
      <trkpt lat="45.13391" lon="5.93368">
        <ele>2533.3999023438</ele>
        <time>2021-01-06T12:46:13.000Z</time>
      </trkpt>
      <trkpt lat="45.13391" lon="5.93368">
        <ele>2533.3999023438</ele>
        <time>2021-01-06T12:46:36.000Z</time>
      </trkpt>
      <trkpt lat="45.13391" lon="5.93369">
        <ele>2533.1999511719</ele>
        <time>2021-01-06T12:46:58.000Z</time>
      </trkpt>
      <trkpt lat="45.13391" lon="5.93369">
        <ele>2533.1999511719</ele>
        <time>2021-01-06T12:47:20.000Z</time>
      </trkpt>
      <trkpt lat="45.13391" lon="5.93369">
        <ele>2533.1999511719</ele>
        <time>2021-01-06T12:47:38.000Z</time>
      </trkpt>
      <trkpt lat="45.13391" lon="5.93369">
        <ele>2533.3999023438</ele>
        <time>2021-01-06T12:47:58.000Z</time>
      </trkpt>
      <trkpt lat="45.13391" lon="5.9337">
        <ele>2533.3999023438</ele>
        <time>2021-01-06T12:48:16.000Z</time>
      </trkpt>
      <trkpt lat="45.13391" lon="5.9337">
        <ele>2533.3999023438</ele>
        <time>2021-01-06T12:48:42.000Z</time>
      </trkpt>
      <trkpt lat="45.13391" lon="5.9337">
        <ele>2533.8000488281</ele>
        <time>2021-01-06T12:48:51.000Z</time>
      </trkpt>
      <trkpt lat="45.13391" lon="5.9337">
        <ele>2534.6000976562</ele>
        <time>2021-01-06T12:48:56.000Z</time>
      </trkpt>
      <trkpt lat="45.13391" lon="5.9337">
        <ele>2534.8000488281</ele>
        <time>2021-01-06T12:48:58.000Z</time>
      </trkpt>
      <trkpt lat="45.13391" lon="5.9337">
        <ele>2534.6000976562</ele>
        <time>2021-01-06T12:49:03.000Z</time>
      </trkpt>
      <trkpt lat="45.13391" lon="5.9337">
        <ele>2534</ele>
        <time>2021-01-06T12:49:12.000Z</time>
      </trkpt>
      <trkpt lat="45.13391" lon="5.9337">
        <ele>2534.1999511719</ele>
        <time>2021-01-06T12:49:24.000Z</time>
      </trkpt>
      <trkpt lat="45.13391" lon="5.9337">
        <ele>2533.6000976562</ele>
        <time>2021-01-06T12:49:29.000Z</time>
      </trkpt>
      <trkpt lat="45.13391" lon="5.9337">
        <ele>2534.6000976562</ele>
        <time>2021-01-06T12:49:36.000Z</time>
      </trkpt>
      <trkpt lat="45.13391" lon="5.9337">
        <ele>2534.3999023438</ele>
        <time>2021-01-06T12:49:49.000Z</time>
      </trkpt>
      <trkpt lat="45.13391" lon="5.9337">
        <ele>2534.6000976562</ele>
        <time>2021-01-06T12:49:59.000Z</time>
      </trkpt>
      <trkpt lat="45.13391" lon="5.9337">
        <ele>2534.3999023438</ele>
        <time>2021-01-06T12:50:09.000Z</time>
      </trkpt>
      <trkpt lat="45.13391" lon="5.9337">
        <ele>2534.3999023438</ele>
        <time>2021-01-06T12:50:20.000Z</time>
      </trkpt>
      <trkpt lat="45.13391" lon="5.9337">
        <ele>2534.1999511719</ele>
        <time>2021-01-06T12:50:28.000Z</time>
      </trkpt>
      <trkpt lat="45.13391" lon="5.9337">
        <ele>2534.6000976562</ele>
        <time>2021-01-06T12:50:33.000Z</time>
      </trkpt>
      <trkpt lat="45.13391" lon="5.9337">
        <ele>2534.6000976562</ele>
        <time>2021-01-06T12:50:36.000Z</time>
      </trkpt>
      <trkpt lat="45.13391" lon="5.9337">
        <ele>2534.6000976562</ele>
        <time>2021-01-06T12:50:52.000Z</time>
      </trkpt>
      <trkpt lat="45.13391" lon="5.9337">
        <ele>2534.3999023438</ele>
        <time>2021-01-06T12:51:04.000Z</time>
      </trkpt>
      <trkpt lat="45.13391" lon="5.9337">
        <ele>2534.3999023438</ele>
        <time>2021-01-06T12:51:15.000Z</time>
      </trkpt>
      <trkpt lat="45.13391" lon="5.9337">
        <ele>2534.3999023438</ele>
        <time>2021-01-06T12:51:28.000Z</time>
      </trkpt>
      <trkpt lat="45.13391" lon="5.9337">
        <ele>2534.8000488281</ele>
        <time>2021-01-06T12:51:36.000Z</time>
      </trkpt>
      <trkpt lat="45.13391" lon="5.9337">
        <ele>2534.8000488281</ele>
        <time>2021-01-06T12:51:51.000Z</time>
      </trkpt>
      <trkpt lat="45.13391" lon="5.9337">
        <ele>2535</ele>
        <time>2021-01-06T12:52:03.000Z</time>
      </trkpt>
      <trkpt lat="45.13392" lon="5.9337">
        <ele>2534.8000488281</ele>
        <time>2021-01-06T12:52:18.000Z</time>
      </trkpt>
      <trkpt lat="45.13393" lon="5.93369">
        <ele>2534.3999023438</ele>
        <time>2021-01-06T12:52:25.000Z</time>
      </trkpt>
      <trkpt lat="45.13394" lon="5.93368">
        <ele>2533.8000488281</ele>
        <time>2021-01-06T12:52:26.000Z</time>
      </trkpt>
      <trkpt lat="45.13394" lon="5.93366">
        <ele>2533.6000976562</ele>
        <time>2021-01-06T12:52:27.000Z</time>
      </trkpt>
      <trkpt lat="45.13392" lon="5.93362">
        <ele>2533.3999023438</ele>
        <time>2021-01-06T12:52:28.000Z</time>
      </trkpt>
      <trkpt lat="45.13386" lon="5.93354">
        <ele>2532.8000488281</ele>
        <time>2021-01-06T12:52:30.000Z</time>
      </trkpt>
      <trkpt lat="45.13384" lon="5.93351">
        <ele>2532</ele>
        <time>2021-01-06T12:52:31.000Z</time>
      </trkpt>
      <trkpt lat="45.13384" lon="5.93347">
        <ele>2530.6000976562</ele>
        <time>2021-01-06T12:52:32.000Z</time>
      </trkpt>
      <trkpt lat="45.13385" lon="5.93344">
        <ele>2528.8000488281</ele>
        <time>2021-01-06T12:52:33.000Z</time>
      </trkpt>
      <trkpt lat="45.13385" lon="5.93341">
        <ele>2527</ele>
        <time>2021-01-06T12:52:34.000Z</time>
      </trkpt>
      <trkpt lat="45.13383" lon="5.93338">
        <ele>2525.6000976562</ele>
        <time>2021-01-06T12:52:35.000Z</time>
      </trkpt>
      <trkpt lat="45.13382" lon="5.93335">
        <ele>2524.1999511719</ele>
        <time>2021-01-06T12:52:36.000Z</time>
      </trkpt>
      <trkpt lat="45.13381" lon="5.93332">
        <ele>2523</ele>
        <time>2021-01-06T12:52:37.000Z</time>
      </trkpt>
      <trkpt lat="45.1338" lon="5.93328">
        <ele>2521.8000488281</ele>
        <time>2021-01-06T12:52:38.000Z</time>
      </trkpt>
      <trkpt lat="45.13379" lon="5.93324">
        <ele>2520</ele>
        <time>2021-01-06T12:52:39.000Z</time>
      </trkpt>
      <trkpt lat="45.13376" lon="5.93321">
        <ele>2518.1999511719</ele>
        <time>2021-01-06T12:52:40.000Z</time>
      </trkpt>
      <trkpt lat="45.13374" lon="5.93316">
        <ele>2516.3999023438</ele>
        <time>2021-01-06T12:52:41.000Z</time>
      </trkpt>
      <trkpt lat="45.13371" lon="5.93312">
        <ele>2514.6000976562</ele>
        <time>2021-01-06T12:52:42.000Z</time>
      </trkpt>
      <trkpt lat="45.13368" lon="5.93307">
        <ele>2512.8000488281</ele>
        <time>2021-01-06T12:52:43.000Z</time>
      </trkpt>
      <trkpt lat="45.13364" lon="5.93302">
        <ele>2510.8000488281</ele>
        <time>2021-01-06T12:52:44.000Z</time>
      </trkpt>
      <trkpt lat="45.13359" lon="5.93298">
        <ele>2508.8000488281</ele>
        <time>2021-01-06T12:52:45.000Z</time>
      </trkpt>
      <trkpt lat="45.13354" lon="5.93294">
        <ele>2507</ele>
        <time>2021-01-06T12:52:46.000Z</time>
      </trkpt>
      <trkpt lat="45.1335" lon="5.93288">
        <ele>2504.8000488281</ele>
        <time>2021-01-06T12:52:47.000Z</time>
      </trkpt>
      <trkpt lat="45.13347" lon="5.93282">
        <ele>2502.3999023438</ele>
        <time>2021-01-06T12:52:48.000Z</time>
      </trkpt>
      <trkpt lat="45.13347" lon="5.93274">
        <ele>2499.3999023438</ele>
        <time>2021-01-06T12:52:49.000Z</time>
      </trkpt>
      <trkpt lat="45.13348" lon="5.93266">
        <ele>2493.8000488281</ele>
        <time>2021-01-06T12:52:50.000Z</time>
      </trkpt>
      <trkpt lat="45.13349" lon="5.93257">
        <ele>2491.8000488281</ele>
        <time>2021-01-06T12:52:51.000Z</time>
      </trkpt>
      <trkpt lat="45.1335" lon="5.93246">
        <ele>2490.1999511719</ele>
        <time>2021-01-06T12:52:52.000Z</time>
      </trkpt>
      <trkpt lat="45.13351" lon="5.93235">
        <ele>2488.3999023438</ele>
        <time>2021-01-06T12:52:53.000Z</time>
      </trkpt>
      <trkpt lat="45.13352" lon="5.93222">
        <ele>2486.3999023438</ele>
        <time>2021-01-06T12:52:54.000Z</time>
      </trkpt>
      <trkpt lat="45.13354" lon="5.9321">
        <ele>2483.8000488281</ele>
        <time>2021-01-06T12:52:55.000Z</time>
      </trkpt>
      <trkpt lat="45.13357" lon="5.93199">
        <ele>2480.3999023438</ele>
        <time>2021-01-06T12:52:56.000Z</time>
      </trkpt>
      <trkpt lat="45.13361" lon="5.93188">
        <ele>2477</ele>
        <time>2021-01-06T12:52:57.000Z</time>
      </trkpt>
      <trkpt lat="45.13365" lon="5.9318">
        <ele>2473.8000488281</ele>
        <time>2021-01-06T12:52:58.000Z</time>
      </trkpt>
      <trkpt lat="45.1337" lon="5.93171">
        <ele>2471</ele>
        <time>2021-01-06T12:52:59.000Z</time>
      </trkpt>
      <trkpt lat="45.13374" lon="5.93164">
        <ele>2469</ele>
        <time>2021-01-06T12:53:00.000Z</time>
      </trkpt>
      <trkpt lat="45.13379" lon="5.93157">
        <ele>2467.6000976562</ele>
        <time>2021-01-06T12:53:01.000Z</time>
      </trkpt>
      <trkpt lat="45.13384" lon="5.93151">
        <ele>2466.3999023438</ele>
        <time>2021-01-06T12:53:02.000Z</time>
      </trkpt>
      <trkpt lat="45.13388" lon="5.93145">
        <ele>2465.3999023438</ele>
        <time>2021-01-06T12:53:03.000Z</time>
      </trkpt>
      <trkpt lat="45.13399" lon="5.93135">
        <ele>2463.8000488281</ele>
        <time>2021-01-06T12:53:05.000Z</time>
      </trkpt>
      <trkpt lat="45.13409" lon="5.93123">
        <ele>2462.3999023438</ele>
        <time>2021-01-06T12:53:07.000Z</time>
      </trkpt>
      <trkpt lat="45.1342" lon="5.93111">
        <ele>2460.8000488281</ele>
        <time>2021-01-06T12:53:09.000Z</time>
      </trkpt>
      <trkpt lat="45.13426" lon="5.93105">
        <ele>2459.8000488281</ele>
        <time>2021-01-06T12:53:10.000Z</time>
      </trkpt>
      <trkpt lat="45.13429" lon="5.93099">
        <ele>2458.6000976562</ele>
        <time>2021-01-06T12:53:11.000Z</time>
      </trkpt>
      <trkpt lat="45.1343" lon="5.93094">
        <ele>2457.3999023438</ele>
        <time>2021-01-06T12:53:12.000Z</time>
      </trkpt>
      <trkpt lat="45.1343" lon="5.93089">
        <ele>2456.1999511719</ele>
        <time>2021-01-06T12:53:13.000Z</time>
      </trkpt>
      <trkpt lat="45.13431" lon="5.93084">
        <ele>2454</ele>
        <time>2021-01-06T12:53:14.000Z</time>
      </trkpt>
      <trkpt lat="45.13431" lon="5.93074">
        <ele>2453</ele>
        <time>2021-01-06T12:53:16.000Z</time>
      </trkpt>
      <trkpt lat="45.1343" lon="5.93067">
        <ele>2452.8000488281</ele>
        <time>2021-01-06T12:53:17.000Z</time>
      </trkpt>
      <trkpt lat="45.13429" lon="5.93049">
        <ele>2451.3999023438</ele>
        <time>2021-01-06T12:53:19.000Z</time>
      </trkpt>
      <trkpt lat="45.13429" lon="5.9304">
        <ele>2450.1999511719</ele>
        <time>2021-01-06T12:53:20.000Z</time>
      </trkpt>
      <trkpt lat="45.13429" lon="5.93032">
        <ele>2448.6000976562</ele>
        <time>2021-01-06T12:53:21.000Z</time>
      </trkpt>
      <trkpt lat="45.13429" lon="5.93023">
        <ele>2446.8000488281</ele>
        <time>2021-01-06T12:53:22.000Z</time>
      </trkpt>
      <trkpt lat="45.13428" lon="5.93016">
        <ele>2444.6000976562</ele>
        <time>2021-01-06T12:53:23.000Z</time>
      </trkpt>
      <trkpt lat="45.13426" lon="5.93008">
        <ele>2442.6000976562</ele>
        <time>2021-01-06T12:53:24.000Z</time>
      </trkpt>
      <trkpt lat="45.13423" lon="5.93002">
        <ele>2440.8000488281</ele>
        <time>2021-01-06T12:53:25.000Z</time>
      </trkpt>
      <trkpt lat="45.13422" lon="5.92994">
        <ele>2438.6000976562</ele>
        <time>2021-01-06T12:53:26.000Z</time>
      </trkpt>
      <trkpt lat="45.13422" lon="5.92986">
        <ele>2436.6000976562</ele>
        <time>2021-01-06T12:53:27.000Z</time>
      </trkpt>
      <trkpt lat="45.13424" lon="5.92977">
        <ele>2434.1999511719</ele>
        <time>2021-01-06T12:53:28.000Z</time>
      </trkpt>
      <trkpt lat="45.13423" lon="5.92968">
        <ele>2432</ele>
        <time>2021-01-06T12:53:29.000Z</time>
      </trkpt>
      <trkpt lat="45.13419" lon="5.92961">
        <ele>2429.6000976562</ele>
        <time>2021-01-06T12:53:30.000Z</time>
      </trkpt>
      <trkpt lat="45.13414" lon="5.92955">
        <ele>2427.1999511719</ele>
        <time>2021-01-06T12:53:31.000Z</time>
      </trkpt>
      <trkpt lat="45.13406" lon="5.92951">
        <ele>2424.6000976562</ele>
        <time>2021-01-06T12:53:32.000Z</time>
      </trkpt>
      <trkpt lat="45.134" lon="5.92947">
        <ele>2422.1999511719</ele>
        <time>2021-01-06T12:53:33.000Z</time>
      </trkpt>
      <trkpt lat="45.13393" lon="5.92944">
        <ele>2419.8000488281</ele>
        <time>2021-01-06T12:53:34.000Z</time>
      </trkpt>
      <trkpt lat="45.13387" lon="5.9294">
        <ele>2417.6000976562</ele>
        <time>2021-01-06T12:53:35.000Z</time>
      </trkpt>
      <trkpt lat="45.13382" lon="5.92936">
        <ele>2415.8000488281</ele>
        <time>2021-01-06T12:53:36.000Z</time>
      </trkpt>
      <trkpt lat="45.13377" lon="5.92932">
        <ele>2414.3999023438</ele>
        <time>2021-01-06T12:53:37.000Z</time>
      </trkpt>
      <trkpt lat="45.13374" lon="5.92929">
        <ele>2412.8000488281</ele>
        <time>2021-01-06T12:53:38.000Z</time>
      </trkpt>
      <trkpt lat="45.1337" lon="5.92926">
        <ele>2412.1999511719</ele>
        <time>2021-01-06T12:53:39.000Z</time>
      </trkpt>
      <trkpt lat="45.13365" lon="5.92922">
        <ele>2411.6000976562</ele>
        <time>2021-01-06T12:53:40.000Z</time>
      </trkpt>
      <trkpt lat="45.1336" lon="5.92915">
        <ele>2411.1999511719</ele>
        <time>2021-01-06T12:53:42.000Z</time>
      </trkpt>
      <trkpt lat="45.13359" lon="5.92909">
        <ele>2410</ele>
        <time>2021-01-06T12:53:44.000Z</time>
      </trkpt>
      <trkpt lat="45.1336" lon="5.92906">
        <ele>2409.1999511719</ele>
        <time>2021-01-06T12:53:45.000Z</time>
      </trkpt>
      <trkpt lat="45.13361" lon="5.92904">
        <ele>2408.3999023438</ele>
        <time>2021-01-06T12:53:46.000Z</time>
      </trkpt>
      <trkpt lat="45.13363" lon="5.92902">
        <ele>2407.3999023438</ele>
        <time>2021-01-06T12:53:47.000Z</time>
      </trkpt>
      <trkpt lat="45.13365" lon="5.929">
        <ele>2406.1999511719</ele>
        <time>2021-01-06T12:53:48.000Z</time>
      </trkpt>
      <trkpt lat="45.13368" lon="5.92898">
        <ele>2404.3999023438</ele>
        <time>2021-01-06T12:53:49.000Z</time>
      </trkpt>
      <trkpt lat="45.13367" lon="5.92886">
        <ele>2402.3999023438</ele>
        <time>2021-01-06T12:53:50.000Z</time>
      </trkpt>
      <trkpt lat="45.13367" lon="5.92878">
        <ele>2400.3999023438</ele>
        <time>2021-01-06T12:53:51.000Z</time>
      </trkpt>
      <trkpt lat="45.13367" lon="5.92878">
        <ele>2398.1999511719</ele>
        <time>2021-01-06T12:53:52.000Z</time>
      </trkpt>
      <trkpt lat="45.13367" lon="5.92878">
        <ele>2396</ele>
        <time>2021-01-06T12:53:53.000Z</time>
      </trkpt>
      <trkpt lat="45.13367" lon="5.92878">
        <ele>2394</ele>
        <time>2021-01-06T12:53:54.000Z</time>
      </trkpt>
      <trkpt lat="45.13367" lon="5.92878">
        <ele>2392.3999023438</ele>
        <time>2021-01-06T12:53:55.000Z</time>
      </trkpt>
      <trkpt lat="45.13367" lon="5.92878">
        <ele>2391.3999023438</ele>
        <time>2021-01-06T12:53:56.000Z</time>
      </trkpt>
      <trkpt lat="45.13367" lon="5.92878">
        <ele>2390.3999023438</ele>
        <time>2021-01-06T12:53:59.000Z</time>
      </trkpt>
      <trkpt lat="45.13367" lon="5.92878">
        <ele>2390.1999511719</ele>
        <time>2021-01-06T12:54:01.000Z</time>
      </trkpt>
      <trkpt lat="45.13367" lon="5.92878">
        <ele>2390.1999511719</ele>
        <time>2021-01-06T12:54:13.000Z</time>
      </trkpt>
      <trkpt lat="45.13366" lon="5.92873">
        <ele>2390.3999023438</ele>
        <time>2021-01-06T12:54:21.000Z</time>
      </trkpt>
      <trkpt lat="45.13366" lon="5.92873">
        <ele>2390.3999023438</ele>
        <time>2021-01-06T12:54:39.000Z</time>
      </trkpt>
      <trkpt lat="45.13365" lon="5.92865">
        <ele>2390.3999023438</ele>
        <time>2021-01-06T12:54:58.000Z</time>
      </trkpt>
      <trkpt lat="45.13365" lon="5.92865">
        <ele>2390.1999511719</ele>
        <time>2021-01-06T12:55:18.000Z</time>
      </trkpt>
      <trkpt lat="45.13365" lon="5.92865">
        <ele>2390.1999511719</ele>
        <time>2021-01-06T12:55:32.000Z</time>
      </trkpt>
      <trkpt lat="45.13363" lon="5.92852">
        <ele>2390.3999023438</ele>
        <time>2021-01-06T12:55:46.000Z</time>
      </trkpt>
      <trkpt lat="45.13363" lon="5.92852">
        <ele>2390.1999511719</ele>
        <time>2021-01-06T12:56:05.000Z</time>
      </trkpt>
      <trkpt lat="45.13364" lon="5.92851">
        <ele>2390.1999511719</ele>
        <time>2021-01-06T12:56:13.000Z</time>
      </trkpt>
      <trkpt lat="45.13364" lon="5.92851">
        <ele>2390.1999511719</ele>
        <time>2021-01-06T12:56:29.000Z</time>
      </trkpt>
      <trkpt lat="45.13367" lon="5.92846">
        <ele>2390.1999511719</ele>
        <time>2021-01-06T12:56:36.000Z</time>
      </trkpt>
      <trkpt lat="45.1337" lon="5.9284">
        <ele>2389.1999511719</ele>
        <time>2021-01-06T12:56:39.000Z</time>
      </trkpt>
      <trkpt lat="45.13371" lon="5.92835">
        <ele>2387.3999023438</ele>
        <time>2021-01-06T12:56:41.000Z</time>
      </trkpt>
      <trkpt lat="45.13372" lon="5.92829">
        <ele>2385.6000976562</ele>
        <time>2021-01-06T12:56:43.000Z</time>
      </trkpt>
      <trkpt lat="45.13372" lon="5.92826">
        <ele>2383.8000488281</ele>
        <time>2021-01-06T12:56:45.000Z</time>
      </trkpt>
      <trkpt lat="45.1337" lon="5.92822">
        <ele>2382.3999023438</ele>
        <time>2021-01-06T12:56:47.000Z</time>
      </trkpt>
      <trkpt lat="45.1337" lon="5.9282">
        <ele>2381.1999511719</ele>
        <time>2021-01-06T12:56:49.000Z</time>
      </trkpt>
      <trkpt lat="45.1337" lon="5.92814">
        <ele>2380</ele>
        <time>2021-01-06T12:56:51.000Z</time>
      </trkpt>
      <trkpt lat="45.13373" lon="5.928">
        <ele>2379.1999511719</ele>
        <time>2021-01-06T12:56:57.000Z</time>
      </trkpt>
      <trkpt lat="45.13376" lon="5.92777">
        <ele>2379.3999023438</ele>
        <time>2021-01-06T12:57:06.000Z</time>
      </trkpt>
      <trkpt lat="45.13375" lon="5.92767">
        <ele>2379.1999511719</ele>
        <time>2021-01-06T12:57:09.000Z</time>
      </trkpt>
      <trkpt lat="45.13373" lon="5.92757">
        <ele>2378.8000488281</ele>
        <time>2021-01-06T12:57:12.000Z</time>
      </trkpt>
      <trkpt lat="45.13372" lon="5.92754">
        <ele>2378.3999023438</ele>
        <time>2021-01-06T12:57:13.000Z</time>
      </trkpt>
      <trkpt lat="45.13369" lon="5.92751">
        <ele>2377.6000976562</ele>
        <time>2021-01-06T12:57:14.000Z</time>
      </trkpt>
      <trkpt lat="45.13366" lon="5.92747">
        <ele>2376.3999023438</ele>
        <time>2021-01-06T12:57:16.000Z</time>
      </trkpt>
      <trkpt lat="45.13365" lon="5.92747">
        <ele>2375.8000488281</ele>
        <time>2021-01-06T12:57:17.000Z</time>
      </trkpt>
      <trkpt lat="45.13363" lon="5.92744">
        <ele>2375.1999511719</ele>
        <time>2021-01-06T12:57:19.000Z</time>
      </trkpt>
      <trkpt lat="45.13359" lon="5.92741">
        <ele>2374.8000488281</ele>
        <time>2021-01-06T12:57:25.000Z</time>
      </trkpt>
      <trkpt lat="45.13353" lon="5.92735">
        <ele>2373.8000488281</ele>
        <time>2021-01-06T12:57:30.000Z</time>
      </trkpt>
      <trkpt lat="45.13355" lon="5.92733">
        <ele>2373.6000976562</ele>
        <time>2021-01-06T12:57:31.000Z</time>
      </trkpt>
      <trkpt lat="45.13358" lon="5.92729">
        <ele>2372.6000976562</ele>
        <time>2021-01-06T12:57:33.000Z</time>
      </trkpt>
      <trkpt lat="45.1336" lon="5.92726">
        <ele>2372</ele>
        <time>2021-01-06T12:57:34.000Z</time>
      </trkpt>
      <trkpt lat="45.13361" lon="5.92723">
        <ele>2371</ele>
        <time>2021-01-06T12:57:35.000Z</time>
      </trkpt>
      <trkpt lat="45.1336" lon="5.92721">
        <ele>2369.6000976562</ele>
        <time>2021-01-06T12:57:36.000Z</time>
      </trkpt>
      <trkpt lat="45.1336" lon="5.92718">
        <ele>2368</ele>
        <time>2021-01-06T12:57:37.000Z</time>
      </trkpt>
      <trkpt lat="45.13361" lon="5.92715">
        <ele>2364</ele>
        <time>2021-01-06T12:57:38.000Z</time>
      </trkpt>
      <trkpt lat="45.1336" lon="5.92713">
        <ele>2361.6000976562</ele>
        <time>2021-01-06T12:57:39.000Z</time>
      </trkpt>
      <trkpt lat="45.13359" lon="5.92711">
        <ele>2359.3999023438</ele>
        <time>2021-01-06T12:57:40.000Z</time>
      </trkpt>
      <trkpt lat="45.13359" lon="5.92709">
        <ele>2357</ele>
        <time>2021-01-06T12:57:41.000Z</time>
      </trkpt>
      <trkpt lat="45.1336" lon="5.92706">
        <ele>2354.8000488281</ele>
        <time>2021-01-06T12:57:42.000Z</time>
      </trkpt>
      <trkpt lat="45.1336" lon="5.92704">
        <ele>2352.3999023438</ele>
        <time>2021-01-06T12:57:43.000Z</time>
      </trkpt>
      <trkpt lat="45.1336" lon="5.92703">
        <ele>2349.6000976562</ele>
        <time>2021-01-06T12:57:44.000Z</time>
      </trkpt>
      <trkpt lat="45.13361" lon="5.927">
        <ele>2346.6000976562</ele>
        <time>2021-01-06T12:57:45.000Z</time>
      </trkpt>
      <trkpt lat="45.13361" lon="5.92698">
        <ele>2343.6000976562</ele>
        <time>2021-01-06T12:57:46.000Z</time>
      </trkpt>
      <trkpt lat="45.13364" lon="5.92696">
        <ele>2340.1999511719</ele>
        <time>2021-01-06T12:57:47.000Z</time>
      </trkpt>
      <trkpt lat="45.13368" lon="5.92695">
        <ele>2336.6000976562</ele>
        <time>2021-01-06T12:57:48.000Z</time>
      </trkpt>
      <trkpt lat="45.13371" lon="5.92692">
        <ele>2333</ele>
        <time>2021-01-06T12:57:49.000Z</time>
      </trkpt>
      <trkpt lat="45.13372" lon="5.92691">
        <ele>2329</ele>
        <time>2021-01-06T12:57:50.000Z</time>
      </trkpt>
      <trkpt lat="45.13371" lon="5.92689">
        <ele>2324.8000488281</ele>
        <time>2021-01-06T12:57:51.000Z</time>
      </trkpt>
      <trkpt lat="45.13369" lon="5.92687">
        <ele>2320.8000488281</ele>
        <time>2021-01-06T12:57:52.000Z</time>
      </trkpt>
      <trkpt lat="45.13366" lon="5.92687">
        <ele>2316.6000976562</ele>
        <time>2021-01-06T12:57:53.000Z</time>
      </trkpt>
      <trkpt lat="45.13363" lon="5.92686">
        <ele>2312.6000976562</ele>
        <time>2021-01-06T12:57:54.000Z</time>
      </trkpt>
      <trkpt lat="45.1336" lon="5.92685">
        <ele>2308.8000488281</ele>
        <time>2021-01-06T12:57:55.000Z</time>
      </trkpt>
      <trkpt lat="45.13357" lon="5.92687">
        <ele>2305.6000976562</ele>
        <time>2021-01-06T12:57:56.000Z</time>
      </trkpt>
      <trkpt lat="45.13351" lon="5.92676">
        <ele>2302.8000488281</ele>
        <time>2021-01-06T12:57:57.000Z</time>
      </trkpt>
      <trkpt lat="45.13344" lon="5.92665">
        <ele>2301.1999511719</ele>
        <time>2021-01-06T12:57:58.000Z</time>
      </trkpt>
      <trkpt lat="45.13338" lon="5.92654">
        <ele>2300.1999511719</ele>
        <time>2021-01-06T12:57:59.000Z</time>
      </trkpt>
      <trkpt lat="45.13333" lon="5.92643">
        <ele>2299.8000488281</ele>
        <time>2021-01-06T12:58:00.000Z</time>
      </trkpt>
      <trkpt lat="45.13334" lon="5.92627">
        <ele>2299.3999023438</ele>
        <time>2021-01-06T12:58:03.000Z</time>
      </trkpt>
      <trkpt lat="45.13334" lon="5.92627">
        <ele>2299.6000976562</ele>
        <time>2021-01-06T12:58:16.000Z</time>
      </trkpt>
      <trkpt lat="45.13334" lon="5.92627">
        <ele>2299.3999023438</ele>
        <time>2021-01-06T12:58:29.000Z</time>
      </trkpt>
      <trkpt lat="45.13334" lon="5.92627">
        <ele>2299.3999023438</ele>
        <time>2021-01-06T12:58:38.000Z</time>
      </trkpt>
      <trkpt lat="45.13333" lon="5.92618">
        <ele>2299.3999023438</ele>
        <time>2021-01-06T12:58:54.000Z</time>
      </trkpt>
      <trkpt lat="45.13331" lon="5.92608">
        <ele>2299.3999023438</ele>
        <time>2021-01-06T12:59:07.000Z</time>
      </trkpt>
      <trkpt lat="45.13315" lon="5.92588">
        <ele>2299.1999511719</ele>
        <time>2021-01-06T12:59:14.000Z</time>
      </trkpt>
      <trkpt lat="45.13312" lon="5.92584">
        <ele>2298.8000488281</ele>
        <time>2021-01-06T12:59:15.000Z</time>
      </trkpt>
      <trkpt lat="45.13303" lon="5.92571">
        <ele>2297.1999511719</ele>
        <time>2021-01-06T12:59:19.000Z</time>
      </trkpt>
      <trkpt lat="45.13303" lon="5.92571">
        <ele>2296.6000976562</ele>
        <time>2021-01-06T12:59:21.000Z</time>
      </trkpt>
      <trkpt lat="45.13303" lon="5.92571">
        <ele>2296.1999511719</ele>
        <time>2021-01-06T12:59:27.000Z</time>
      </trkpt>
      <trkpt lat="45.13302" lon="5.9257">
        <ele>2296</ele>
        <time>2021-01-06T12:59:32.000Z</time>
      </trkpt>
      <trkpt lat="45.13302" lon="5.9257">
        <ele>2295.1999511719</ele>
        <time>2021-01-06T12:59:39.000Z</time>
      </trkpt>
      <trkpt lat="45.13302" lon="5.9257">
        <ele>2295</ele>
        <time>2021-01-06T12:59:43.000Z</time>
      </trkpt>
      <trkpt lat="45.13302" lon="5.9257">
        <ele>2295</ele>
        <time>2021-01-06T12:59:57.000Z</time>
      </trkpt>
      <trkpt lat="45.13299" lon="5.92566">
        <ele>2294.1999511719</ele>
        <time>2021-01-06T13:00:05.000Z</time>
      </trkpt>
      <trkpt lat="45.13298" lon="5.92565">
        <ele>2293.8000488281</ele>
        <time>2021-01-06T13:00:06.000Z</time>
      </trkpt>
      <trkpt lat="45.13292" lon="5.92565">
        <ele>2292.3999023438</ele>
        <time>2021-01-06T13:00:09.000Z</time>
      </trkpt>
      <trkpt lat="45.1329" lon="5.92568">
        <ele>2290.6000976562</ele>
        <time>2021-01-06T13:00:11.000Z</time>
      </trkpt>
      <trkpt lat="45.13288" lon="5.92567">
        <ele>2289.6000976562</ele>
        <time>2021-01-06T13:00:12.000Z</time>
      </trkpt>
      <trkpt lat="45.13287" lon="5.92564">
        <ele>2287.8000488281</ele>
        <time>2021-01-06T13:00:14.000Z</time>
      </trkpt>
      <trkpt lat="45.13287" lon="5.92564">
        <ele>2286.3999023438</ele>
        <time>2021-01-06T13:00:16.000Z</time>
      </trkpt>
      <trkpt lat="45.13287" lon="5.92564">
        <ele>2284.3999023438</ele>
        <time>2021-01-06T13:00:18.000Z</time>
      </trkpt>
      <trkpt lat="45.13287" lon="5.92564">
        <ele>2283</ele>
        <time>2021-01-06T13:00:19.000Z</time>
      </trkpt>
      <trkpt lat="45.13287" lon="5.92564">
        <ele>2282</ele>
        <time>2021-01-06T13:00:20.000Z</time>
      </trkpt>
      <trkpt lat="45.13287" lon="5.92564">
        <ele>2280.3999023438</ele>
        <time>2021-01-06T13:00:22.000Z</time>
      </trkpt>
      <trkpt lat="45.13285" lon="5.92563">
        <ele>2279.6000976562</ele>
        <time>2021-01-06T13:00:24.000Z</time>
      </trkpt>
      <trkpt lat="45.13284" lon="5.92562">
        <ele>2279.1999511719</ele>
        <time>2021-01-06T13:00:25.000Z</time>
      </trkpt>
      <trkpt lat="45.13281" lon="5.92563">
        <ele>2278.1999511719</ele>
        <time>2021-01-06T13:00:27.000Z</time>
      </trkpt>
      <trkpt lat="45.13278" lon="5.92564">
        <ele>2277.3999023438</ele>
        <time>2021-01-06T13:00:28.000Z</time>
      </trkpt>
      <trkpt lat="45.13274" lon="5.92566">
        <ele>2276.3999023438</ele>
        <time>2021-01-06T13:00:29.000Z</time>
      </trkpt>
      <trkpt lat="45.1327" lon="5.92566">
        <ele>2275.3999023438</ele>
        <time>2021-01-06T13:00:30.000Z</time>
      </trkpt>
      <trkpt lat="45.13267" lon="5.92567">
        <ele>2274.1999511719</ele>
        <time>2021-01-06T13:00:31.000Z</time>
      </trkpt>
      <trkpt lat="45.13264" lon="5.92568">
        <ele>2272.6000976562</ele>
        <time>2021-01-06T13:00:32.000Z</time>
      </trkpt>
      <trkpt lat="45.13261" lon="5.92568">
        <ele>2270.8000488281</ele>
        <time>2021-01-06T13:00:33.000Z</time>
      </trkpt>
      <trkpt lat="45.1326" lon="5.92566">
        <ele>2268.8000488281</ele>
        <time>2021-01-06T13:00:34.000Z</time>
      </trkpt>
      <trkpt lat="45.13258" lon="5.92564">
        <ele>2266.6000976562</ele>
        <time>2021-01-06T13:00:35.000Z</time>
      </trkpt>
      <trkpt lat="45.13256" lon="5.92561">
        <ele>2264.3999023438</ele>
        <time>2021-01-06T13:00:36.000Z</time>
      </trkpt>
      <trkpt lat="45.13253" lon="5.92559">
        <ele>2262.1999511719</ele>
        <time>2021-01-06T13:00:37.000Z</time>
      </trkpt>
      <trkpt lat="45.13251" lon="5.92558">
        <ele>2260.1999511719</ele>
        <time>2021-01-06T13:00:38.000Z</time>
      </trkpt>
      <trkpt lat="45.13248" lon="5.92556">
        <ele>2258.1999511719</ele>
        <time>2021-01-06T13:00:39.000Z</time>
      </trkpt>
      <trkpt lat="45.13244" lon="5.92552">
        <ele>2255.8000488281</ele>
        <time>2021-01-06T13:00:40.000Z</time>
      </trkpt>
      <trkpt lat="45.13241" lon="5.9255">
        <ele>2253.1999511719</ele>
        <time>2021-01-06T13:00:41.000Z</time>
      </trkpt>
      <trkpt lat="45.13237" lon="5.92545">
        <ele>2250.1999511719</ele>
        <time>2021-01-06T13:00:42.000Z</time>
      </trkpt>
      <trkpt lat="45.13234" lon="5.92541">
        <ele>2247</ele>
        <time>2021-01-06T13:00:43.000Z</time>
      </trkpt>
      <trkpt lat="45.13231" lon="5.92538">
        <ele>2244</ele>
        <time>2021-01-06T13:00:44.000Z</time>
      </trkpt>
      <trkpt lat="45.13227" lon="5.92536">
        <ele>2241.1999511719</ele>
        <time>2021-01-06T13:00:45.000Z</time>
      </trkpt>
      <trkpt lat="45.13224" lon="5.92536">
        <ele>2238.8000488281</ele>
        <time>2021-01-06T13:00:46.000Z</time>
      </trkpt>
      <trkpt lat="45.13221" lon="5.92536">
        <ele>2236.8000488281</ele>
        <time>2021-01-06T13:00:47.000Z</time>
      </trkpt>
      <trkpt lat="45.13217" lon="5.92538">
        <ele>2235.1999511719</ele>
        <time>2021-01-06T13:00:48.000Z</time>
      </trkpt>
      <trkpt lat="45.13212" lon="5.9254">
        <ele>2233.8000488281</ele>
        <time>2021-01-06T13:00:49.000Z</time>
      </trkpt>
      <trkpt lat="45.13203" lon="5.92543">
        <ele>2232.8000488281</ele>
        <time>2021-01-06T13:00:50.000Z</time>
      </trkpt>
      <trkpt lat="45.13193" lon="5.92549">
        <ele>2230.6000976562</ele>
        <time>2021-01-06T13:00:51.000Z</time>
      </trkpt>
      <trkpt lat="45.13187" lon="5.92551">
        <ele>2229.3999023438</ele>
        <time>2021-01-06T13:00:52.000Z</time>
      </trkpt>
      <trkpt lat="45.13183" lon="5.92551">
        <ele>2228</ele>
        <time>2021-01-06T13:00:53.000Z</time>
      </trkpt>
      <trkpt lat="45.13179" lon="5.92551">
        <ele>2226.6000976562</ele>
        <time>2021-01-06T13:00:54.000Z</time>
      </trkpt>
      <trkpt lat="45.13176" lon="5.92552">
        <ele>2225.6000976562</ele>
        <time>2021-01-06T13:00:55.000Z</time>
      </trkpt>
      <trkpt lat="45.13176" lon="5.92554">
        <ele>2224.8000488281</ele>
        <time>2021-01-06T13:00:56.000Z</time>
      </trkpt>
      <trkpt lat="45.13182" lon="5.92563">
        <ele>2224.1999511719</ele>
        <time>2021-01-06T13:00:57.000Z</time>
      </trkpt>
      <trkpt lat="45.1319" lon="5.9257">
        <ele>2224</ele>
        <time>2021-01-06T13:00:59.000Z</time>
      </trkpt>
      <trkpt lat="45.13195" lon="5.92572">
        <ele>2224</ele>
        <time>2021-01-06T13:01:01.000Z</time>
      </trkpt>
      <trkpt lat="45.132" lon="5.92568">
        <ele>2224.1999511719</ele>
        <time>2021-01-06T13:01:09.000Z</time>
      </trkpt>
      <trkpt lat="45.13201" lon="5.92559">
        <ele>2224</ele>
        <time>2021-01-06T13:01:17.000Z</time>
      </trkpt>
      <trkpt lat="45.13201" lon="5.92559">
        <ele>2224</ele>
        <time>2021-01-06T13:01:26.000Z</time>
      </trkpt>
      <trkpt lat="45.13201" lon="5.92559">
        <ele>2224.1999511719</ele>
        <time>2021-01-06T13:01:39.000Z</time>
      </trkpt>
      <trkpt lat="45.13201" lon="5.92559">
        <ele>2224.1999511719</ele>
        <time>2021-01-06T13:01:50.000Z</time>
      </trkpt>
      <trkpt lat="45.13202" lon="5.92553">
        <ele>2223.8000488281</ele>
        <time>2021-01-06T13:01:59.000Z</time>
      </trkpt>
      <trkpt lat="45.13202" lon="5.92548">
        <ele>2223.1999511719</ele>
        <time>2021-01-06T13:02:06.000Z</time>
      </trkpt>
      <trkpt lat="45.13202" lon="5.92548">
        <ele>2223</ele>
        <time>2021-01-06T13:02:10.000Z</time>
      </trkpt>
      <trkpt lat="45.13202" lon="5.92548">
        <ele>2223</ele>
        <time>2021-01-06T13:02:28.000Z</time>
      </trkpt>
      <trkpt lat="45.13202" lon="5.92544">
        <ele>2223</ele>
        <time>2021-01-06T13:02:32.000Z</time>
      </trkpt>
      <trkpt lat="45.13202" lon="5.92539">
        <ele>2222.8000488281</ele>
        <time>2021-01-06T13:02:34.000Z</time>
      </trkpt>
      <trkpt lat="45.132" lon="5.92533">
        <ele>2222</ele>
        <time>2021-01-06T13:02:37.000Z</time>
      </trkpt>
      <trkpt lat="45.13196" lon="5.92524">
        <ele>2220.8000488281</ele>
        <time>2021-01-06T13:02:41.000Z</time>
      </trkpt>
      <trkpt lat="45.13193" lon="5.92517">
        <ele>2219.6000976562</ele>
        <time>2021-01-06T13:02:44.000Z</time>
      </trkpt>
      <trkpt lat="45.13191" lon="5.92514">
        <ele>2218</ele>
        <time>2021-01-06T13:02:46.000Z</time>
      </trkpt>
      <trkpt lat="45.13186" lon="5.92512">
        <ele>2216.3999023438</ele>
        <time>2021-01-06T13:02:48.000Z</time>
      </trkpt>
      <trkpt lat="45.13183" lon="5.92506">
        <ele>2215</ele>
        <time>2021-01-06T13:02:50.000Z</time>
      </trkpt>
      <trkpt lat="45.13182" lon="5.92504">
        <ele>2212.8000488281</ele>
        <time>2021-01-06T13:02:51.000Z</time>
      </trkpt>
      <trkpt lat="45.1318" lon="5.92502">
        <ele>2211.3999023438</ele>
        <time>2021-01-06T13:02:52.000Z</time>
      </trkpt>
      <trkpt lat="45.13179" lon="5.925">
        <ele>2209.6000976562</ele>
        <time>2021-01-06T13:02:53.000Z</time>
      </trkpt>
      <trkpt lat="45.13175" lon="5.92499">
        <ele>2208.1999511719</ele>
        <time>2021-01-06T13:02:54.000Z</time>
      </trkpt>
      <trkpt lat="45.13173" lon="5.92501">
        <ele>2207</ele>
        <time>2021-01-06T13:02:55.000Z</time>
      </trkpt>
      <trkpt lat="45.13161" lon="5.92501">
        <ele>2205.1999511719</ele>
        <time>2021-01-06T13:02:57.000Z</time>
      </trkpt>
      <trkpt lat="45.1316" lon="5.92499">
        <ele>2204.3999023438</ele>
        <time>2021-01-06T13:02:58.000Z</time>
      </trkpt>
      <trkpt lat="45.13159" lon="5.92494">
        <ele>2203.8000488281</ele>
        <time>2021-01-06T13:02:59.000Z</time>
      </trkpt>
      <trkpt lat="45.13161" lon="5.9248">
        <ele>2202</ele>
        <time>2021-01-06T13:03:01.000Z</time>
      </trkpt>
      <trkpt lat="45.13164" lon="5.92475">
        <ele>2201</ele>
        <time>2021-01-06T13:03:02.000Z</time>
      </trkpt>
      <trkpt lat="45.13166" lon="5.92469">
        <ele>2199.6000976562</ele>
        <time>2021-01-06T13:03:03.000Z</time>
      </trkpt>
      <trkpt lat="45.13167" lon="5.92464">
        <ele>2198</ele>
        <time>2021-01-06T13:03:04.000Z</time>
      </trkpt>
      <trkpt lat="45.13169" lon="5.92459">
        <ele>2196.1999511719</ele>
        <time>2021-01-06T13:03:05.000Z</time>
      </trkpt>
      <trkpt lat="45.1317" lon="5.92454">
        <ele>2194.6000976562</ele>
        <time>2021-01-06T13:03:06.000Z</time>
      </trkpt>
      <trkpt lat="45.1317" lon="5.92449">
        <ele>2193.1999511719</ele>
        <time>2021-01-06T13:03:07.000Z</time>
      </trkpt>
      <trkpt lat="45.13171" lon="5.92444">
        <ele>2192</ele>
        <time>2021-01-06T13:03:08.000Z</time>
      </trkpt>
      <trkpt lat="45.13171" lon="5.92439">
        <ele>2191</ele>
        <time>2021-01-06T13:03:09.000Z</time>
      </trkpt>
      <trkpt lat="45.13171" lon="5.92429">
        <ele>2189</ele>
        <time>2021-01-06T13:03:11.000Z</time>
      </trkpt>
      <trkpt lat="45.13172" lon="5.9242">
        <ele>2187.1999511719</ele>
        <time>2021-01-06T13:03:13.000Z</time>
      </trkpt>
      <trkpt lat="45.13172" lon="5.9241">
        <ele>2185.1999511719</ele>
        <time>2021-01-06T13:03:15.000Z</time>
      </trkpt>
      <trkpt lat="45.1317" lon="5.92395">
        <ele>2184</ele>
        <time>2021-01-06T13:03:18.000Z</time>
      </trkpt>
      <trkpt lat="45.13168" lon="5.92385">
        <ele>2183.3999023438</ele>
        <time>2021-01-06T13:03:20.000Z</time>
      </trkpt>
      <trkpt lat="45.13167" lon="5.92379">
        <ele>2182.6000976562</ele>
        <time>2021-01-06T13:03:21.000Z</time>
      </trkpt>
      <trkpt lat="45.13167" lon="5.92374">
        <ele>2181.3999023438</ele>
        <time>2021-01-06T13:03:22.000Z</time>
      </trkpt>
      <trkpt lat="45.13166" lon="5.92371">
        <ele>2180</ele>
        <time>2021-01-06T13:03:23.000Z</time>
      </trkpt>
      <trkpt lat="45.13165" lon="5.92368">
        <ele>2178.3999023438</ele>
        <time>2021-01-06T13:03:24.000Z</time>
      </trkpt>
      <trkpt lat="45.13164" lon="5.92367">
        <ele>2176.3999023438</ele>
        <time>2021-01-06T13:03:25.000Z</time>
      </trkpt>
      <trkpt lat="45.13162" lon="5.92364">
        <ele>2174.6000976562</ele>
        <time>2021-01-06T13:03:26.000Z</time>
      </trkpt>
      <trkpt lat="45.1316" lon="5.92364">
        <ele>2173.1999511719</ele>
        <time>2021-01-06T13:03:27.000Z</time>
      </trkpt>
      <trkpt lat="45.13154" lon="5.92361">
        <ele>2171.8000488281</ele>
        <time>2021-01-06T13:03:29.000Z</time>
      </trkpt>
      <trkpt lat="45.13149" lon="5.92357">
        <ele>2170.3999023438</ele>
        <time>2021-01-06T13:03:31.000Z</time>
      </trkpt>
      <trkpt lat="45.13148" lon="5.92351">
        <ele>2169</ele>
        <time>2021-01-06T13:03:33.000Z</time>
      </trkpt>
      <trkpt lat="45.13144" lon="5.92341">
        <ele>2167.3999023438</ele>
        <time>2021-01-06T13:03:35.000Z</time>
      </trkpt>
      <trkpt lat="45.1314" lon="5.92332">
        <ele>2165.8000488281</ele>
        <time>2021-01-06T13:03:37.000Z</time>
      </trkpt>
      <trkpt lat="45.13138" lon="5.92328">
        <ele>2164.6000976562</ele>
        <time>2021-01-06T13:03:38.000Z</time>
      </trkpt>
      <trkpt lat="45.13137" lon="5.92325">
        <ele>2162</ele>
        <time>2021-01-06T13:03:39.000Z</time>
      </trkpt>
      <trkpt lat="45.13136" lon="5.9232">
        <ele>2161</ele>
        <time>2021-01-06T13:03:40.000Z</time>
      </trkpt>
      <trkpt lat="45.13137" lon="5.92315">
        <ele>2160.1999511719</ele>
        <time>2021-01-06T13:03:41.000Z</time>
      </trkpt>
      <trkpt lat="45.13137" lon="5.9231">
        <ele>2159.6000976562</ele>
        <time>2021-01-06T13:03:42.000Z</time>
      </trkpt>
      <trkpt lat="45.13139" lon="5.92299">
        <ele>2158</ele>
        <time>2021-01-06T13:03:44.000Z</time>
      </trkpt>
      <trkpt lat="45.13137" lon="5.92294">
        <ele>2156.3999023438</ele>
        <time>2021-01-06T13:03:45.000Z</time>
      </trkpt>
      <trkpt lat="45.13135" lon="5.92291">
        <ele>2154.6000976562</ele>
        <time>2021-01-06T13:03:46.000Z</time>
      </trkpt>
      <trkpt lat="45.13135" lon="5.92291">
        <ele>2152.8000488281</ele>
        <time>2021-01-06T13:03:47.000Z</time>
      </trkpt>
      <trkpt lat="45.13135" lon="5.92291">
        <ele>2151.1999511719</ele>
        <time>2021-01-06T13:03:48.000Z</time>
      </trkpt>
      <trkpt lat="45.13131" lon="5.92284">
        <ele>2149.8000488281</ele>
        <time>2021-01-06T13:03:50.000Z</time>
      </trkpt>
      <trkpt lat="45.13125" lon="5.92277">
        <ele>2148.6000976562</ele>
        <time>2021-01-06T13:03:54.000Z</time>
      </trkpt>
      <trkpt lat="45.13125" lon="5.92277">
        <ele>2148.3999023438</ele>
        <time>2021-01-06T13:03:56.000Z</time>
      </trkpt>
      <trkpt lat="45.13125" lon="5.92277">
        <ele>2148.6000976562</ele>
        <time>2021-01-06T13:04:06.000Z</time>
      </trkpt>
      <trkpt lat="45.13124" lon="5.92272">
        <ele>2148.6000976562</ele>
        <time>2021-01-06T13:04:07.000Z</time>
      </trkpt>
      <trkpt lat="45.1312" lon="5.9226">
        <ele>2148.3999023438</ele>
        <time>2021-01-06T13:04:09.000Z</time>
      </trkpt>
      <trkpt lat="45.13117" lon="5.92252">
        <ele>2148.1999511719</ele>
        <time>2021-01-06T13:04:10.000Z</time>
      </trkpt>
      <trkpt lat="45.13117" lon="5.92244">
        <ele>2147.6000976562</ele>
        <time>2021-01-06T13:04:11.000Z</time>
      </trkpt>
      <trkpt lat="45.13116" lon="5.92232">
        <ele>2145.3999023438</ele>
        <time>2021-01-06T13:04:13.000Z</time>
      </trkpt>
      <trkpt lat="45.13115" lon="5.92228">
        <ele>2144.1999511719</ele>
        <time>2021-01-06T13:04:14.000Z</time>
      </trkpt>
      <trkpt lat="45.13115" lon="5.92223">
        <ele>2143</ele>
        <time>2021-01-06T13:04:15.000Z</time>
      </trkpt>
      <trkpt lat="45.13115" lon="5.92216">
        <ele>2141.1999511719</ele>
        <time>2021-01-06T13:04:17.000Z</time>
      </trkpt>
      <trkpt lat="45.13113" lon="5.9221">
        <ele>2139.8000488281</ele>
        <time>2021-01-06T13:04:19.000Z</time>
      </trkpt>
      <trkpt lat="45.13109" lon="5.92203">
        <ele>2137.8000488281</ele>
        <time>2021-01-06T13:04:21.000Z</time>
      </trkpt>
      <trkpt lat="45.13107" lon="5.92199">
        <ele>2136.8000488281</ele>
        <time>2021-01-06T13:04:22.000Z</time>
      </trkpt>
      <trkpt lat="45.13106" lon="5.92196">
        <ele>2135.6000976562</ele>
        <time>2021-01-06T13:04:23.000Z</time>
      </trkpt>
      <trkpt lat="45.13104" lon="5.92193">
        <ele>2134.3999023438</ele>
        <time>2021-01-06T13:04:24.000Z</time>
      </trkpt>
      <trkpt lat="45.13101" lon="5.9219">
        <ele>2133.1999511719</ele>
        <time>2021-01-06T13:04:25.000Z</time>
      </trkpt>
      <trkpt lat="45.13096" lon="5.92185">
        <ele>2131.6000976562</ele>
        <time>2021-01-06T13:04:27.000Z</time>
      </trkpt>
      <trkpt lat="45.13093" lon="5.92186">
        <ele>2131.6000976562</ele>
        <time>2021-01-06T13:04:30.000Z</time>
      </trkpt>
      <trkpt lat="45.13093" lon="5.92187">
        <ele>2131.3999023438</ele>
        <time>2021-01-06T13:04:38.000Z</time>
      </trkpt>
      <trkpt lat="45.13092" lon="5.92183">
        <ele>2131.1999511719</ele>
        <time>2021-01-06T13:04:42.000Z</time>
      </trkpt>
      <trkpt lat="45.13095" lon="5.92185">
        <ele>2130.6000976562</ele>
        <time>2021-01-06T13:04:45.000Z</time>
      </trkpt>
      <trkpt lat="45.13097" lon="5.92185">
        <ele>2130.3999023438</ele>
        <time>2021-01-06T13:04:46.000Z</time>
      </trkpt>
      <trkpt lat="45.13103" lon="5.92183">
        <ele>2129</ele>
        <time>2021-01-06T13:04:49.000Z</time>
      </trkpt>
      <trkpt lat="45.13104" lon="5.92182">
        <ele>2128.6000976562</ele>
        <time>2021-01-06T13:04:50.000Z</time>
      </trkpt>
      <trkpt lat="45.13108" lon="5.9218">
        <ele>2127.6000976562</ele>
        <time>2021-01-06T13:04:51.000Z</time>
      </trkpt>
      <trkpt lat="45.13113" lon="5.92174">
        <ele>2125.6000976562</ele>
        <time>2021-01-06T13:04:53.000Z</time>
      </trkpt>
      <trkpt lat="45.13115" lon="5.92172">
        <ele>2124.3999023438</ele>
        <time>2021-01-06T13:04:54.000Z</time>
      </trkpt>
      <trkpt lat="45.13117" lon="5.9217">
        <ele>2123</ele>
        <time>2021-01-06T13:04:55.000Z</time>
      </trkpt>
      <trkpt lat="45.13118" lon="5.92168">
        <ele>2121.6000976562</ele>
        <time>2021-01-06T13:04:56.000Z</time>
      </trkpt>
      <trkpt lat="45.1312" lon="5.92166">
        <ele>2120.3999023438</ele>
        <time>2021-01-06T13:04:57.000Z</time>
      </trkpt>
      <trkpt lat="45.13121" lon="5.92163">
        <ele>2118.8000488281</ele>
        <time>2021-01-06T13:04:58.000Z</time>
      </trkpt>
      <trkpt lat="45.13122" lon="5.92161">
        <ele>2117</ele>
        <time>2021-01-06T13:04:59.000Z</time>
      </trkpt>
      <trkpt lat="45.13123" lon="5.9216">
        <ele>2115.3999023438</ele>
        <time>2021-01-06T13:05:00.000Z</time>
      </trkpt>
      <trkpt lat="45.13124" lon="5.92158">
        <ele>2114</ele>
        <time>2021-01-06T13:05:01.000Z</time>
      </trkpt>
      <trkpt lat="45.13125" lon="5.92156">
        <ele>2112.8000488281</ele>
        <time>2021-01-06T13:05:02.000Z</time>
      </trkpt>
      <trkpt lat="45.13126" lon="5.92154">
        <ele>2111.6000976562</ele>
        <time>2021-01-06T13:05:03.000Z</time>
      </trkpt>
      <trkpt lat="45.13124" lon="5.92149">
        <ele>2110</ele>
        <time>2021-01-06T13:05:05.000Z</time>
      </trkpt>
      <trkpt lat="45.13117" lon="5.92142">
        <ele>2108.1999511719</ele>
        <time>2021-01-06T13:05:07.000Z</time>
      </trkpt>
      <trkpt lat="45.13117" lon="5.92141">
        <ele>2107</ele>
        <time>2021-01-06T13:05:08.000Z</time>
      </trkpt>
      <trkpt lat="45.13114" lon="5.9214">
        <ele>2105.8000488281</ele>
        <time>2021-01-06T13:05:09.000Z</time>
      </trkpt>
      <trkpt lat="45.13114" lon="5.92137">
        <ele>2105</ele>
        <time>2021-01-06T13:05:10.000Z</time>
      </trkpt>
      <trkpt lat="45.13114" lon="5.92134">
        <ele>2104.1999511719</ele>
        <time>2021-01-06T13:05:11.000Z</time>
      </trkpt>
      <trkpt lat="45.13114" lon="5.92127">
        <ele>2102.6000976562</ele>
        <time>2021-01-06T13:05:13.000Z</time>
      </trkpt>
      <trkpt lat="45.13115" lon="5.92124">
        <ele>2101.3999023438</ele>
        <time>2021-01-06T13:05:14.000Z</time>
      </trkpt>
      <trkpt lat="45.13116" lon="5.92122">
        <ele>2098</ele>
        <time>2021-01-06T13:05:15.000Z</time>
      </trkpt>
      <trkpt lat="45.13117" lon="5.9212">
        <ele>2096.1999511719</ele>
        <time>2021-01-06T13:05:16.000Z</time>
      </trkpt>
      <trkpt lat="45.13117" lon="5.92118">
        <ele>2094.3999023438</ele>
        <time>2021-01-06T13:05:17.000Z</time>
      </trkpt>
      <trkpt lat="45.13117" lon="5.92115">
        <ele>2092.8000488281</ele>
        <time>2021-01-06T13:05:18.000Z</time>
      </trkpt>
      <trkpt lat="45.13115" lon="5.92114">
        <ele>2091</ele>
        <time>2021-01-06T13:05:19.000Z</time>
      </trkpt>
      <trkpt lat="45.13114" lon="5.92112">
        <ele>2089.3999023438</ele>
        <time>2021-01-06T13:05:20.000Z</time>
      </trkpt>
      <trkpt lat="45.13112" lon="5.92112">
        <ele>2088.1999511719</ele>
        <time>2021-01-06T13:05:21.000Z</time>
      </trkpt>
      <trkpt lat="45.13112" lon="5.92112">
        <ele>2087</ele>
        <time>2021-01-06T13:05:23.000Z</time>
      </trkpt>
      <trkpt lat="45.13115" lon="5.9211">
        <ele>2086.6000976562</ele>
        <time>2021-01-06T13:05:27.000Z</time>
      </trkpt>
      <trkpt lat="45.13118" lon="5.92107">
        <ele>2086.3999023438</ele>
        <time>2021-01-06T13:05:28.000Z</time>
      </trkpt>
      <trkpt lat="45.13119" lon="5.92104">
        <ele>2085.8000488281</ele>
        <time>2021-01-06T13:05:30.000Z</time>
      </trkpt>
      <trkpt lat="45.13118" lon="5.92103">
        <ele>2085</ele>
        <time>2021-01-06T13:05:31.000Z</time>
      </trkpt>
      <trkpt lat="45.13115" lon="5.92098">
        <ele>2083.6000976562</ele>
        <time>2021-01-06T13:05:32.000Z</time>
      </trkpt>
      <trkpt lat="45.13113" lon="5.92097">
        <ele>2082</ele>
        <time>2021-01-06T13:05:33.000Z</time>
      </trkpt>
      <trkpt lat="45.13113" lon="5.92097">
        <ele>2079.8000488281</ele>
        <time>2021-01-06T13:05:34.000Z</time>
      </trkpt>
      <trkpt lat="45.13111" lon="5.92097">
        <ele>2077.8000488281</ele>
        <time>2021-01-06T13:05:35.000Z</time>
      </trkpt>
      <trkpt lat="45.13111" lon="5.92097">
        <ele>2075.8000488281</ele>
        <time>2021-01-06T13:05:36.000Z</time>
      </trkpt>
      <trkpt lat="45.13111" lon="5.92097">
        <ele>2074.6000976562</ele>
        <time>2021-01-06T13:05:37.000Z</time>
      </trkpt>
      <trkpt lat="45.13111" lon="5.92097">
        <ele>2073</ele>
        <time>2021-01-06T13:05:39.000Z</time>
      </trkpt>
      <trkpt lat="45.13109" lon="5.92096">
        <ele>2072.3999023438</ele>
        <time>2021-01-06T13:05:44.000Z</time>
      </trkpt>
      <trkpt lat="45.13107" lon="5.92095">
        <ele>2072.1999511719</ele>
        <time>2021-01-06T13:05:53.000Z</time>
      </trkpt>
      <trkpt lat="45.131" lon="5.9209">
        <ele>2071.8000488281</ele>
        <time>2021-01-06T13:05:57.000Z</time>
      </trkpt>
      <trkpt lat="45.13098" lon="5.92089">
        <ele>2071.3999023438</ele>
        <time>2021-01-06T13:05:58.000Z</time>
      </trkpt>
      <trkpt lat="45.13096" lon="5.92088">
        <ele>2070.6000976562</ele>
        <time>2021-01-06T13:06:00.000Z</time>
      </trkpt>
      <trkpt lat="45.13091" lon="5.92081">
        <ele>2069.6000976562</ele>
        <time>2021-01-06T13:06:05.000Z</time>
      </trkpt>
      <trkpt lat="45.13085" lon="5.92072">
        <ele>2068.1999511719</ele>
        <time>2021-01-06T13:06:09.000Z</time>
      </trkpt>
      <trkpt lat="45.13078" lon="5.92067">
        <ele>2067</ele>
        <time>2021-01-06T13:06:12.000Z</time>
      </trkpt>
      <trkpt lat="45.13077" lon="5.92066">
        <ele>2066.6000976562</ele>
        <time>2021-01-06T13:06:14.000Z</time>
      </trkpt>
      <trkpt lat="45.13077" lon="5.92066">
        <ele>2066.1999511719</ele>
        <time>2021-01-06T13:06:30.000Z</time>
      </trkpt>
      <trkpt lat="45.13077" lon="5.92066">
        <ele>2066.1999511719</ele>
        <time>2021-01-06T13:06:47.000Z</time>
      </trkpt>
      <trkpt lat="45.13076" lon="5.92066">
        <ele>2066</ele>
        <time>2021-01-06T13:06:54.000Z</time>
      </trkpt>
      <trkpt lat="45.13076" lon="5.92066">
        <ele>2066.1999511719</ele>
        <time>2021-01-06T13:06:59.000Z</time>
      </trkpt>
      <trkpt lat="45.13076" lon="5.92066">
        <ele>2065.3999023438</ele>
        <time>2021-01-06T13:07:10.000Z</time>
      </trkpt>
      <trkpt lat="45.13074" lon="5.92063">
        <ele>2064.8000488281</ele>
        <time>2021-01-06T13:07:12.000Z</time>
      </trkpt>
      <trkpt lat="45.13072" lon="5.92061">
        <ele>2064.6000976562</ele>
        <time>2021-01-06T13:07:13.000Z</time>
      </trkpt>
      <trkpt lat="45.13068" lon="5.92056">
        <ele>2063.8000488281</ele>
        <time>2021-01-06T13:07:15.000Z</time>
      </trkpt>
      <trkpt lat="45.13064" lon="5.9205">
        <ele>2063</ele>
        <time>2021-01-06T13:07:17.000Z</time>
      </trkpt>
      <trkpt lat="45.13063" lon="5.92048">
        <ele>2062.3999023438</ele>
        <time>2021-01-06T13:07:18.000Z</time>
      </trkpt>
      <trkpt lat="45.13058" lon="5.92047">
        <ele>2061</ele>
        <time>2021-01-06T13:07:20.000Z</time>
      </trkpt>
      <trkpt lat="45.13056" lon="5.92045">
        <ele>2060.3999023438</ele>
        <time>2021-01-06T13:07:21.000Z</time>
      </trkpt>
      <trkpt lat="45.13054" lon="5.92044">
        <ele>2059.6000976562</ele>
        <time>2021-01-06T13:07:22.000Z</time>
      </trkpt>
      <trkpt lat="45.13052" lon="5.92041">
        <ele>2059</ele>
        <time>2021-01-06T13:07:23.000Z</time>
      </trkpt>
      <trkpt lat="45.13052" lon="5.92038">
        <ele>2058.1999511719</ele>
        <time>2021-01-06T13:07:24.000Z</time>
      </trkpt>
      <trkpt lat="45.13051" lon="5.92035">
        <ele>2057</ele>
        <time>2021-01-06T13:07:25.000Z</time>
      </trkpt>
      <trkpt lat="45.13049" lon="5.92032">
        <ele>2055.3999023438</ele>
        <time>2021-01-06T13:07:26.000Z</time>
      </trkpt>
      <trkpt lat="45.13047" lon="5.92027">
        <ele>2053.3999023438</ele>
        <time>2021-01-06T13:07:27.000Z</time>
      </trkpt>
      <trkpt lat="45.13043" lon="5.92022">
        <ele>2051.1999511719</ele>
        <time>2021-01-06T13:07:28.000Z</time>
      </trkpt>
      <trkpt lat="45.1304" lon="5.92017">
        <ele>2048.8000488281</ele>
        <time>2021-01-06T13:07:29.000Z</time>
      </trkpt>
      <trkpt lat="45.13039" lon="5.92012">
        <ele>2046.5999755859</ele>
        <time>2021-01-06T13:07:30.000Z</time>
      </trkpt>
      <trkpt lat="45.13037" lon="5.92008">
        <ele>2044.5999755859</ele>
        <time>2021-01-06T13:07:31.000Z</time>
      </trkpt>
      <trkpt lat="45.13037" lon="5.92004">
        <ele>2043.1999511719</ele>
        <time>2021-01-06T13:07:32.000Z</time>
      </trkpt>
      <trkpt lat="45.13036" lon="5.91999">
        <ele>2042</ele>
        <time>2021-01-06T13:07:33.000Z</time>
      </trkpt>
      <trkpt lat="45.13035" lon="5.91996">
        <ele>2041.1999511719</ele>
        <time>2021-01-06T13:07:34.000Z</time>
      </trkpt>
      <trkpt lat="45.13034" lon="5.91995">
        <ele>2040.4000244141</ele>
        <time>2021-01-06T13:07:35.000Z</time>
      </trkpt>
      <trkpt lat="45.13031" lon="5.91993">
        <ele>2038.5999755859</ele>
        <time>2021-01-06T13:07:37.000Z</time>
      </trkpt>
      <trkpt lat="45.13031" lon="5.91993">
        <ele>2037.1999511719</ele>
        <time>2021-01-06T13:07:39.000Z</time>
      </trkpt>
      <trkpt lat="45.13031" lon="5.91993">
        <ele>2037</ele>
        <time>2021-01-06T13:07:44.000Z</time>
      </trkpt>
      <trkpt lat="45.13031" lon="5.91993">
        <ele>2037.5999755859</ele>
        <time>2021-01-06T13:07:54.000Z</time>
      </trkpt>
      <trkpt lat="45.13027" lon="5.91989">
        <ele>2037.4000244141</ele>
        <time>2021-01-06T13:08:01.000Z</time>
      </trkpt>
      <trkpt lat="45.13027" lon="5.91989">
        <ele>2037.1999511719</ele>
        <time>2021-01-06T13:08:14.000Z</time>
      </trkpt>
      <trkpt lat="45.13027" lon="5.91989">
        <ele>2037.1999511719</ele>
        <time>2021-01-06T13:08:26.000Z</time>
      </trkpt>
      <trkpt lat="45.13027" lon="5.91989">
        <ele>2037.1999511719</ele>
        <time>2021-01-06T13:08:37.000Z</time>
      </trkpt>
      <trkpt lat="45.13027" lon="5.91988">
        <ele>2037</ele>
        <time>2021-01-06T13:08:46.000Z</time>
      </trkpt>
      <trkpt lat="45.13027" lon="5.91988">
        <ele>2037</ele>
        <time>2021-01-06T13:08:57.000Z</time>
      </trkpt>
      <trkpt lat="45.13027" lon="5.91988">
        <ele>2037</ele>
        <time>2021-01-06T13:09:07.000Z</time>
      </trkpt>
      <trkpt lat="45.13027" lon="5.91988">
        <ele>2037</ele>
        <time>2021-01-06T13:09:17.000Z</time>
      </trkpt>
      <trkpt lat="45.13026" lon="5.91987">
        <ele>2037</ele>
        <time>2021-01-06T13:09:30.000Z</time>
      </trkpt>
      <trkpt lat="45.13026" lon="5.91987">
        <ele>2037</ele>
        <time>2021-01-06T13:09:45.000Z</time>
      </trkpt>
      <trkpt lat="45.13026" lon="5.91987">
        <ele>2037</ele>
        <time>2021-01-06T13:09:56.000Z</time>
      </trkpt>
      <trkpt lat="45.13025" lon="5.91986">
        <ele>2037</ele>
        <time>2021-01-06T13:10:08.000Z</time>
      </trkpt>
      <trkpt lat="45.13025" lon="5.91986">
        <ele>2036.8000488281</ele>
        <time>2021-01-06T13:10:17.000Z</time>
      </trkpt>
      <trkpt lat="45.13025" lon="5.91986">
        <ele>2037</ele>
        <time>2021-01-06T13:10:29.000Z</time>
      </trkpt>
      <trkpt lat="45.13018" lon="5.9197">
        <ele>2036.8000488281</ele>
        <time>2021-01-06T13:10:36.000Z</time>
      </trkpt>
      <trkpt lat="45.13017" lon="5.91966">
        <ele>2036.4000244141</ele>
        <time>2021-01-06T13:10:45.000Z</time>
      </trkpt>
      <trkpt lat="45.13017" lon="5.91963">
        <ele>2036.4000244141</ele>
        <time>2021-01-06T13:10:51.000Z</time>
      </trkpt>
      <trkpt lat="45.13017" lon="5.91963">
        <ele>2036.1999511719</ele>
        <time>2021-01-06T13:10:53.000Z</time>
      </trkpt>
      <trkpt lat="45.13017" lon="5.91963">
        <ele>2036.1999511719</ele>
        <time>2021-01-06T13:11:01.000Z</time>
      </trkpt>
      <trkpt lat="45.13017" lon="5.91963">
        <ele>2036.1999511719</ele>
        <time>2021-01-06T13:11:10.000Z</time>
      </trkpt>
      <trkpt lat="45.13013" lon="5.91961">
        <ele>2036.1999511719</ele>
        <time>2021-01-06T13:11:16.000Z</time>
      </trkpt>
      <trkpt lat="45.13013" lon="5.91961">
        <ele>2037</ele>
        <time>2021-01-06T13:11:27.000Z</time>
      </trkpt>
      <trkpt lat="45.13013" lon="5.91961">
        <ele>2037</ele>
        <time>2021-01-06T13:11:40.000Z</time>
      </trkpt>
      <trkpt lat="45.13013" lon="5.91961">
        <ele>2036.8000488281</ele>
        <time>2021-01-06T13:11:52.000Z</time>
      </trkpt>
      <trkpt lat="45.13012" lon="5.9196">
        <ele>2036.8000488281</ele>
        <time>2021-01-06T13:11:58.000Z</time>
      </trkpt>
      <trkpt lat="45.13008" lon="5.91955">
        <ele>2036.8000488281</ele>
        <time>2021-01-06T13:12:07.000Z</time>
      </trkpt>
      <trkpt lat="45.13008" lon="5.91955">
        <ele>2036.8000488281</ele>
        <time>2021-01-06T13:12:16.000Z</time>
      </trkpt>
      <trkpt lat="45.13007" lon="5.91956">
        <ele>2036.8000488281</ele>
        <time>2021-01-06T13:12:25.000Z</time>
      </trkpt>
      <trkpt lat="45.13005" lon="5.91956">
        <ele>2036.8000488281</ele>
        <time>2021-01-06T13:12:33.000Z</time>
      </trkpt>
      <trkpt lat="45.13005" lon="5.91956">
        <ele>2036.5999755859</ele>
        <time>2021-01-06T13:12:43.000Z</time>
      </trkpt>
      <trkpt lat="45.13005" lon="5.91957">
        <ele>2036.8000488281</ele>
        <time>2021-01-06T13:12:52.000Z</time>
      </trkpt>
      <trkpt lat="45.13005" lon="5.91957">
        <ele>2036.8000488281</ele>
        <time>2021-01-06T13:13:02.000Z</time>
      </trkpt>
      <trkpt lat="45.13005" lon="5.91957">
        <ele>2036.8000488281</ele>
        <time>2021-01-06T13:13:16.000Z</time>
      </trkpt>
      <trkpt lat="45.13005" lon="5.91957">
        <ele>2036.8000488281</ele>
        <time>2021-01-06T13:13:27.000Z</time>
      </trkpt>
      <trkpt lat="45.13006" lon="5.91955">
        <ele>2036.5999755859</ele>
        <time>2021-01-06T13:13:36.000Z</time>
      </trkpt>
      <trkpt lat="45.13006" lon="5.91955">
        <ele>2036.8000488281</ele>
        <time>2021-01-06T13:13:45.000Z</time>
      </trkpt>
      <trkpt lat="45.13006" lon="5.91955">
        <ele>2037</ele>
        <time>2021-01-06T13:13:55.000Z</time>
      </trkpt>
      <trkpt lat="45.13006" lon="5.91955">
        <ele>2037</ele>
        <time>2021-01-06T13:14:04.000Z</time>
      </trkpt>
      <trkpt lat="45.13006" lon="5.91955">
        <ele>2037</ele>
        <time>2021-01-06T13:14:11.000Z</time>
      </trkpt>
      <trkpt lat="45.13006" lon="5.91958">
        <ele>2037</ele>
        <time>2021-01-06T13:14:17.000Z</time>
      </trkpt>
      <trkpt lat="45.13006" lon="5.91958">
        <ele>2036.8000488281</ele>
        <time>2021-01-06T13:14:25.000Z</time>
      </trkpt>
      <trkpt lat="45.13006" lon="5.91958">
        <ele>2037</ele>
        <time>2021-01-06T13:14:34.000Z</time>
      </trkpt>
      <trkpt lat="45.13006" lon="5.91958">
        <ele>2037</ele>
        <time>2021-01-06T13:14:45.000Z</time>
      </trkpt>
      <trkpt lat="45.13007" lon="5.91957">
        <ele>2037.1999511719</ele>
        <time>2021-01-06T13:14:59.000Z</time>
      </trkpt>
      <trkpt lat="45.13006" lon="5.91958">
        <ele>2036.8000488281</ele>
        <time>2021-01-06T13:15:09.000Z</time>
      </trkpt>
      <trkpt lat="45.13006" lon="5.91958">
        <ele>2037</ele>
        <time>2021-01-06T13:15:18.000Z</time>
      </trkpt>
      <trkpt lat="45.13006" lon="5.91958">
        <ele>2037</ele>
        <time>2021-01-06T13:15:30.000Z</time>
      </trkpt>
      <trkpt lat="45.13006" lon="5.91958">
        <ele>2037.1999511719</ele>
        <time>2021-01-06T13:15:38.000Z</time>
      </trkpt>
      <trkpt lat="45.13006" lon="5.91958">
        <ele>2037</ele>
        <time>2021-01-06T13:15:48.000Z</time>
      </trkpt>
      <trkpt lat="45.13006" lon="5.91958">
        <ele>2037.1999511719</ele>
        <time>2021-01-06T13:15:58.000Z</time>
      </trkpt>
      <trkpt lat="45.13006" lon="5.91958">
        <ele>2037.1999511719</ele>
        <time>2021-01-06T13:16:06.000Z</time>
      </trkpt>
      <trkpt lat="45.13005" lon="5.91958">
        <ele>2037.1999511719</ele>
        <time>2021-01-06T13:16:08.000Z</time>
      </trkpt>
      <trkpt lat="45.13005" lon="5.91958">
        <ele>2037.4000244141</ele>
        <time>2021-01-06T13:16:10.000Z</time>
      </trkpt>
      <trkpt lat="45.13005" lon="5.91958">
        <ele>2036.4000244141</ele>
        <time>2021-01-06T13:16:20.000Z</time>
      </trkpt>
      <trkpt lat="45.13005" lon="5.91958">
        <ele>2036.1999511719</ele>
        <time>2021-01-06T13:16:21.000Z</time>
      </trkpt>
      <trkpt lat="45.13005" lon="5.91958">
        <ele>2037.4000244141</ele>
        <time>2021-01-06T13:16:26.000Z</time>
      </trkpt>
      <trkpt lat="45.13005" lon="5.91958">
        <ele>2038.4000244141</ele>
        <time>2021-01-06T13:16:29.000Z</time>
      </trkpt>
      <trkpt lat="45.13005" lon="5.91958">
        <ele>2038.1999511719</ele>
        <time>2021-01-06T13:16:30.000Z</time>
      </trkpt>
      <trkpt lat="45.13003" lon="5.9196">
        <ele>2037.1999511719</ele>
        <time>2021-01-06T13:16:33.000Z</time>
      </trkpt>
      <trkpt lat="45.13002" lon="5.9196">
        <ele>2037</ele>
        <time>2021-01-06T13:16:37.000Z</time>
      </trkpt>
      <trkpt lat="45.13002" lon="5.9196">
        <ele>2037.4000244141</ele>
        <time>2021-01-06T13:16:49.000Z</time>
      </trkpt>
      <trkpt lat="45.13002" lon="5.9196">
        <ele>2037.5999755859</ele>
        <time>2021-01-06T13:17:02.000Z</time>
      </trkpt>
      <trkpt lat="45.13002" lon="5.9196">
        <ele>2037.4000244141</ele>
        <time>2021-01-06T13:17:11.000Z</time>
      </trkpt>
      <trkpt lat="45.13008" lon="5.91964">
        <ele>2037</ele>
        <time>2021-01-06T13:17:22.000Z</time>
      </trkpt>
      <trkpt lat="45.13007" lon="5.91965">
        <ele>2037</ele>
        <time>2021-01-06T13:17:32.000Z</time>
      </trkpt>
      <trkpt lat="45.13005" lon="5.91964">
        <ele>2037.1999511719</ele>
        <time>2021-01-06T13:17:42.000Z</time>
      </trkpt>
      <trkpt lat="45.13005" lon="5.91965">
        <ele>2037.1999511719</ele>
        <time>2021-01-06T13:17:55.000Z</time>
      </trkpt>
      <trkpt lat="45.13003" lon="5.91964">
        <ele>2037.4000244141</ele>
        <time>2021-01-06T13:18:03.000Z</time>
      </trkpt>
      <trkpt lat="45.13003" lon="5.91964">
        <ele>2037.5999755859</ele>
        <time>2021-01-06T13:18:12.000Z</time>
      </trkpt>
      <trkpt lat="45.13003" lon="5.91964">
        <ele>2037.8000488281</ele>
        <time>2021-01-06T13:18:27.000Z</time>
      </trkpt>
      <trkpt lat="45.13003" lon="5.91964">
        <ele>2037.5999755859</ele>
        <time>2021-01-06T13:18:38.000Z</time>
      </trkpt>
      <trkpt lat="45.13003" lon="5.91963">
        <ele>2037.8000488281</ele>
        <time>2021-01-06T13:18:49.000Z</time>
      </trkpt>
      <trkpt lat="45.13003" lon="5.91963">
        <ele>2037.8000488281</ele>
        <time>2021-01-06T13:19:00.000Z</time>
      </trkpt>
      <trkpt lat="45.13003" lon="5.91963">
        <ele>2037.8000488281</ele>
        <time>2021-01-06T13:19:12.000Z</time>
      </trkpt>
      <trkpt lat="45.13003" lon="5.91963">
        <ele>2037.8000488281</ele>
        <time>2021-01-06T13:19:16.000Z</time>
      </trkpt>
      <trkpt lat="45.13003" lon="5.91961">
        <ele>2038</ele>
        <time>2021-01-06T13:19:30.000Z</time>
      </trkpt>
      <trkpt lat="45.13" lon="5.91962">
        <ele>2037.8000488281</ele>
        <time>2021-01-06T13:19:37.000Z</time>
      </trkpt>
      <trkpt lat="45.1299" lon="5.91963">
        <ele>2038.1999511719</ele>
        <time>2021-01-06T13:19:43.000Z</time>
      </trkpt>
      <trkpt lat="45.12989" lon="5.91962">
        <ele>2038.5999755859</ele>
        <time>2021-01-06T13:19:44.000Z</time>
      </trkpt>
      <trkpt lat="45.12986" lon="5.91959">
        <ele>2039.5999755859</ele>
        <time>2021-01-06T13:19:48.000Z</time>
      </trkpt>
      <trkpt lat="45.12984" lon="5.91958">
        <ele>2039.8000488281</ele>
        <time>2021-01-06T13:19:50.000Z</time>
      </trkpt>
      <trkpt lat="45.12982" lon="5.91953">
        <ele>2040.5999755859</ele>
        <time>2021-01-06T13:19:55.000Z</time>
      </trkpt>
      <trkpt lat="45.12981" lon="5.91951">
        <ele>2041</ele>
        <time>2021-01-06T13:19:57.000Z</time>
      </trkpt>
      <trkpt lat="45.1298" lon="5.91948">
        <ele>2041.5999755859</ele>
        <time>2021-01-06T13:20:00.000Z</time>
      </trkpt>
      <trkpt lat="45.12978" lon="5.91945">
        <ele>2042.1999511719</ele>
        <time>2021-01-06T13:20:03.000Z</time>
      </trkpt>
      <trkpt lat="45.12976" lon="5.91942">
        <ele>2043</ele>
        <time>2021-01-06T13:20:05.000Z</time>
      </trkpt>
      <trkpt lat="45.12973" lon="5.9194">
        <ele>2043.8000488281</ele>
        <time>2021-01-06T13:20:09.000Z</time>
      </trkpt>
      <trkpt lat="45.12972" lon="5.9194">
        <ele>2044</ele>
        <time>2021-01-06T13:20:10.000Z</time>
      </trkpt>
      <trkpt lat="45.12969" lon="5.91939">
        <ele>2044.8000488281</ele>
        <time>2021-01-06T13:20:16.000Z</time>
      </trkpt>
      <trkpt lat="45.12968" lon="5.91938">
        <ele>2045</ele>
        <time>2021-01-06T13:20:18.000Z</time>
      </trkpt>
      <trkpt lat="45.12966" lon="5.91938">
        <ele>2045.5999755859</ele>
        <time>2021-01-06T13:20:21.000Z</time>
      </trkpt>
      <trkpt lat="45.12961" lon="5.91938">
        <ele>2046.1999511719</ele>
        <time>2021-01-06T13:20:26.000Z</time>
      </trkpt>
      <trkpt lat="45.1296" lon="5.91938">
        <ele>2046.4000244141</ele>
        <time>2021-01-06T13:20:28.000Z</time>
      </trkpt>
      <trkpt lat="45.12958" lon="5.91937">
        <ele>2047.4000244141</ele>
        <time>2021-01-06T13:20:33.000Z</time>
      </trkpt>
      <trkpt lat="45.12956" lon="5.91936">
        <ele>2047.5999755859</ele>
        <time>2021-01-06T13:20:35.000Z</time>
      </trkpt>
      <trkpt lat="45.12953" lon="5.91935">
        <ele>2048.3999023438</ele>
        <time>2021-01-06T13:20:41.000Z</time>
      </trkpt>
      <trkpt lat="45.12951" lon="5.91934">
        <ele>2048.6000976562</ele>
        <time>2021-01-06T13:20:42.000Z</time>
      </trkpt>
      <trkpt lat="45.12944" lon="5.91931">
        <ele>2049.6000976562</ele>
        <time>2021-01-06T13:20:47.000Z</time>
      </trkpt>
      <trkpt lat="45.12942" lon="5.91929">
        <ele>2050.3999023438</ele>
        <time>2021-01-06T13:20:50.000Z</time>
      </trkpt>
      <trkpt lat="45.1294" lon="5.91927">
        <ele>2050.8000488281</ele>
        <time>2021-01-06T13:20:52.000Z</time>
      </trkpt>
      <trkpt lat="45.12939" lon="5.91926">
        <ele>2051.6000976562</ele>
        <time>2021-01-06T13:20:56.000Z</time>
      </trkpt>
      <trkpt lat="45.12939" lon="5.91926">
        <ele>2051.8000488281</ele>
        <time>2021-01-06T13:20:57.000Z</time>
      </trkpt>
      <trkpt lat="45.12934" lon="5.91921">
        <ele>2052.6000976562</ele>
        <time>2021-01-06T13:21:02.000Z</time>
      </trkpt>
      <trkpt lat="45.12932" lon="5.91918">
        <ele>2053</ele>
        <time>2021-01-06T13:21:04.000Z</time>
      </trkpt>
      <trkpt lat="45.1293" lon="5.91917">
        <ele>2053.6000976562</ele>
        <time>2021-01-06T13:21:08.000Z</time>
      </trkpt>
      <trkpt lat="45.12929" lon="5.91918">
        <ele>2054</ele>
        <time>2021-01-06T13:21:11.000Z</time>
      </trkpt>
      <trkpt lat="45.12929" lon="5.91921">
        <ele>2054.6000976562</ele>
        <time>2021-01-06T13:21:15.000Z</time>
      </trkpt>
      <trkpt lat="45.12928" lon="5.91924">
        <ele>2055</ele>
        <time>2021-01-06T13:21:18.000Z</time>
      </trkpt>
      <trkpt lat="45.12928" lon="5.91927">
        <ele>2055.8000488281</ele>
        <time>2021-01-06T13:21:22.000Z</time>
      </trkpt>
      <trkpt lat="45.12928" lon="5.91928">
        <ele>2056</ele>
        <time>2021-01-06T13:21:23.000Z</time>
      </trkpt>
      <trkpt lat="45.12928" lon="5.91932">
        <ele>2057.1999511719</ele>
        <time>2021-01-06T13:21:28.000Z</time>
      </trkpt>
      <trkpt lat="45.12927" lon="5.91934">
        <ele>2057.8000488281</ele>
        <time>2021-01-06T13:21:31.000Z</time>
      </trkpt>
      <trkpt lat="45.12927" lon="5.91936">
        <ele>2058.1999511719</ele>
        <time>2021-01-06T13:21:33.000Z</time>
      </trkpt>
      <trkpt lat="45.12925" lon="5.91941">
        <ele>2059</ele>
        <time>2021-01-06T13:21:37.000Z</time>
      </trkpt>
      <trkpt lat="45.12925" lon="5.91941">
        <ele>2059.1999511719</ele>
        <time>2021-01-06T13:21:38.000Z</time>
      </trkpt>
      <trkpt lat="45.12924" lon="5.91942">
        <ele>2060.3999023438</ele>
        <time>2021-01-06T13:21:44.000Z</time>
      </trkpt>
      <trkpt lat="45.1292" lon="5.9194">
        <ele>2061.1999511719</ele>
        <time>2021-01-06T13:21:51.000Z</time>
      </trkpt>
      <trkpt lat="45.12919" lon="5.9194">
        <ele>2061.3999023438</ele>
        <time>2021-01-06T13:21:52.000Z</time>
      </trkpt>
      <trkpt lat="45.12915" lon="5.91938">
        <ele>2062.3999023438</ele>
        <time>2021-01-06T13:21:57.000Z</time>
      </trkpt>
      <trkpt lat="45.12915" lon="5.91938">
        <ele>2062.6000976562</ele>
        <time>2021-01-06T13:21:58.000Z</time>
      </trkpt>
      <trkpt lat="45.12911" lon="5.91934">
        <ele>2063.8000488281</ele>
        <time>2021-01-06T13:22:03.000Z</time>
      </trkpt>
      <trkpt lat="45.1291" lon="5.91932">
        <ele>2064.3999023438</ele>
        <time>2021-01-06T13:22:05.000Z</time>
      </trkpt>
      <trkpt lat="45.12908" lon="5.91932">
        <ele>2064.8000488281</ele>
        <time>2021-01-06T13:22:08.000Z</time>
      </trkpt>
      <trkpt lat="45.12907" lon="5.91931">
        <ele>2065.3999023438</ele>
        <time>2021-01-06T13:22:12.000Z</time>
      </trkpt>
      <trkpt lat="45.12907" lon="5.91931">
        <ele>2065.8000488281</ele>
        <time>2021-01-06T13:22:14.000Z</time>
      </trkpt>
      <trkpt lat="45.12907" lon="5.91931">
        <ele>2066.3999023438</ele>
        <time>2021-01-06T13:22:19.000Z</time>
      </trkpt>
      <trkpt lat="45.12909" lon="5.91936">
        <ele>2066.8000488281</ele>
        <time>2021-01-06T13:22:25.000Z</time>
      </trkpt>
      <trkpt lat="45.12909" lon="5.91937">
        <ele>2067</ele>
        <time>2021-01-06T13:22:27.000Z</time>
      </trkpt>
      <trkpt lat="45.12909" lon="5.91938">
        <ele>2068</ele>
        <time>2021-01-06T13:22:32.000Z</time>
      </trkpt>
      <trkpt lat="45.12909" lon="5.91938">
        <ele>2069</ele>
        <time>2021-01-06T13:22:40.000Z</time>
      </trkpt>
      <trkpt lat="45.12909" lon="5.91938">
        <ele>2069.1999511719</ele>
        <time>2021-01-06T13:22:41.000Z</time>
      </trkpt>
      <trkpt lat="45.12906" lon="5.91937">
        <ele>2070.1999511719</ele>
        <time>2021-01-06T13:22:47.000Z</time>
      </trkpt>
      <trkpt lat="45.12906" lon="5.91937">
        <ele>2071.3999023438</ele>
        <time>2021-01-06T13:22:53.000Z</time>
      </trkpt>
      <trkpt lat="45.12906" lon="5.91937">
        <ele>2071.6000976562</ele>
        <time>2021-01-06T13:22:55.000Z</time>
      </trkpt>
      <trkpt lat="45.12905" lon="5.91936">
        <ele>2071.8000488281</ele>
        <time>2021-01-06T13:23:01.000Z</time>
      </trkpt>
      <trkpt lat="45.12905" lon="5.91936">
        <ele>2072.3999023438</ele>
        <time>2021-01-06T13:23:07.000Z</time>
      </trkpt>
      <trkpt lat="45.12905" lon="5.91936">
        <ele>2073</ele>
        <time>2021-01-06T13:23:11.000Z</time>
      </trkpt>
      <trkpt lat="45.12904" lon="5.91937">
        <ele>2073.6000976562</ele>
        <time>2021-01-06T13:23:14.000Z</time>
      </trkpt>
      <trkpt lat="45.12904" lon="5.91937">
        <ele>2073.8000488281</ele>
        <time>2021-01-06T13:23:17.000Z</time>
      </trkpt>
      <trkpt lat="45.12903" lon="5.91937">
        <ele>2074.6000976562</ele>
        <time>2021-01-06T13:23:26.000Z</time>
      </trkpt>
      <trkpt lat="45.12901" lon="5.91934">
        <ele>2075.6000976562</ele>
        <time>2021-01-06T13:23:32.000Z</time>
      </trkpt>
      <trkpt lat="45.12901" lon="5.91934">
        <ele>2075.8000488281</ele>
        <time>2021-01-06T13:23:34.000Z</time>
      </trkpt>
      <trkpt lat="45.129" lon="5.91935">
        <ele>2076</ele>
        <time>2021-01-06T13:23:42.000Z</time>
      </trkpt>
      <trkpt lat="45.129" lon="5.91935">
        <ele>2076.6000976562</ele>
        <time>2021-01-06T13:23:48.000Z</time>
      </trkpt>
      <trkpt lat="45.129" lon="5.91935">
        <ele>2076.8000488281</ele>
        <time>2021-01-06T13:23:50.000Z</time>
      </trkpt>
      <trkpt lat="45.129" lon="5.91935">
        <ele>2077.1999511719</ele>
        <time>2021-01-06T13:23:57.000Z</time>
      </trkpt>
      <trkpt lat="45.129" lon="5.91935">
        <ele>2077.6000976562</ele>
        <time>2021-01-06T13:23:59.000Z</time>
      </trkpt>
      <trkpt lat="45.129" lon="5.91935">
        <ele>2077.6000976562</ele>
        <time>2021-01-06T13:24:00.000Z</time>
      </trkpt>
      <trkpt lat="45.129" lon="5.91935">
        <ele>2078.6000976562</ele>
        <time>2021-01-06T13:24:05.000Z</time>
      </trkpt>
      <trkpt lat="45.129" lon="5.91935">
        <ele>2078.8000488281</ele>
        <time>2021-01-06T13:24:06.000Z</time>
      </trkpt>
      <trkpt lat="45.129" lon="5.91935">
        <ele>2080</ele>
        <time>2021-01-06T13:24:11.000Z</time>
      </trkpt>
      <trkpt lat="45.129" lon="5.91935">
        <ele>2080.1999511719</ele>
        <time>2021-01-06T13:24:12.000Z</time>
      </trkpt>
      <trkpt lat="45.12901" lon="5.91936">
        <ele>2081.1999511719</ele>
        <time>2021-01-06T13:24:16.000Z</time>
      </trkpt>
      <trkpt lat="45.12901" lon="5.91936">
        <ele>2082</ele>
        <time>2021-01-06T13:24:19.000Z</time>
      </trkpt>
      <trkpt lat="45.12901" lon="5.91936">
        <ele>2082.3999023438</ele>
        <time>2021-01-06T13:24:21.000Z</time>
      </trkpt>
      <trkpt lat="45.12901" lon="5.91936">
        <ele>2083.3999023438</ele>
        <time>2021-01-06T13:24:26.000Z</time>
      </trkpt>
      <trkpt lat="45.12901" lon="5.91936">
        <ele>2083.6000976562</ele>
        <time>2021-01-06T13:24:27.000Z</time>
      </trkpt>
      <trkpt lat="45.129" lon="5.91939">
        <ele>2084.6000976562</ele>
        <time>2021-01-06T13:24:31.000Z</time>
      </trkpt>
      <trkpt lat="45.129" lon="5.91942">
        <ele>2084.8000488281</ele>
        <time>2021-01-06T13:24:33.000Z</time>
      </trkpt>
      <trkpt lat="45.12898" lon="5.91954">
        <ele>2085.8000488281</ele>
        <time>2021-01-06T13:24:37.000Z</time>
      </trkpt>
      <trkpt lat="45.12894" lon="5.91963">
        <ele>2086.8000488281</ele>
        <time>2021-01-06T13:24:42.000Z</time>
      </trkpt>
      <trkpt lat="45.1289" lon="5.91967">
        <ele>2088</ele>
        <time>2021-01-06T13:24:48.000Z</time>
      </trkpt>
      <trkpt lat="45.12889" lon="5.91969">
        <ele>2088.1999511719</ele>
        <time>2021-01-06T13:24:50.000Z</time>
      </trkpt>
      <trkpt lat="45.12887" lon="5.9197">
        <ele>2089.1999511719</ele>
        <time>2021-01-06T13:24:53.000Z</time>
      </trkpt>
      <trkpt lat="45.12884" lon="5.91971">
        <ele>2090</ele>
        <time>2021-01-06T13:24:57.000Z</time>
      </trkpt>
      <trkpt lat="45.12883" lon="5.9197">
        <ele>2090.1999511719</ele>
        <time>2021-01-06T13:24:58.000Z</time>
      </trkpt>
      <trkpt lat="45.1288" lon="5.91971">
        <ele>2091.3999023438</ele>
        <time>2021-01-06T13:25:03.000Z</time>
      </trkpt>
      <trkpt lat="45.1288" lon="5.91971">
        <ele>2091.6000976562</ele>
        <time>2021-01-06T13:25:04.000Z</time>
      </trkpt>
      <trkpt lat="45.12875" lon="5.9197">
        <ele>2092.3999023438</ele>
        <time>2021-01-06T13:25:10.000Z</time>
      </trkpt>
      <trkpt lat="45.12871" lon="5.91971">
        <ele>2093.8000488281</ele>
        <time>2021-01-06T13:25:17.000Z</time>
      </trkpt>
      <trkpt lat="45.12866" lon="5.9197">
        <ele>2094.8000488281</ele>
        <time>2021-01-06T13:25:24.000Z</time>
      </trkpt>
      <trkpt lat="45.12865" lon="5.9197">
        <ele>2095</ele>
        <time>2021-01-06T13:25:26.000Z</time>
      </trkpt>
      <trkpt lat="45.12862" lon="5.91968">
        <ele>2095.8000488281</ele>
        <time>2021-01-06T13:25:31.000Z</time>
      </trkpt>
      <trkpt lat="45.1286" lon="5.91968">
        <ele>2096.1999511719</ele>
        <time>2021-01-06T13:25:33.000Z</time>
      </trkpt>
      <trkpt lat="45.12858" lon="5.91967">
        <ele>2096.3999023438</ele>
        <time>2021-01-06T13:25:35.000Z</time>
      </trkpt>
      <trkpt lat="45.12854" lon="5.91966">
        <ele>2097</ele>
        <time>2021-01-06T13:25:39.000Z</time>
      </trkpt>
      <trkpt lat="45.12854" lon="5.91966">
        <ele>2097.1999511719</ele>
        <time>2021-01-06T13:25:40.000Z</time>
      </trkpt>
      <trkpt lat="45.12849" lon="5.91963">
        <ele>2098.1999511719</ele>
        <time>2021-01-06T13:25:46.000Z</time>
      </trkpt>
      <trkpt lat="45.12848" lon="5.91962">
        <ele>2098.3999023438</ele>
        <time>2021-01-06T13:25:47.000Z</time>
      </trkpt>
      <trkpt lat="45.12845" lon="5.91959">
        <ele>2099</ele>
        <time>2021-01-06T13:25:52.000Z</time>
      </trkpt>
      <trkpt lat="45.12844" lon="5.91958">
        <ele>2099.1999511719</ele>
        <time>2021-01-06T13:25:54.000Z</time>
      </trkpt>
      <trkpt lat="45.12845" lon="5.91957">
        <ele>2099.6000976562</ele>
        <time>2021-01-06T13:26:00.000Z</time>
      </trkpt>
      <trkpt lat="45.12845" lon="5.91957">
        <ele>2099.6000976562</ele>
        <time>2021-01-06T13:26:12.000Z</time>
      </trkpt>
      <trkpt lat="45.12845" lon="5.91957">
        <ele>2099.3999023438</ele>
        <time>2021-01-06T13:26:21.000Z</time>
      </trkpt>
      <trkpt lat="45.12845" lon="5.91957">
        <ele>2099.3999023438</ele>
        <time>2021-01-06T13:26:30.000Z</time>
      </trkpt>
      <trkpt lat="45.12845" lon="5.91957">
        <ele>2099.6000976562</ele>
        <time>2021-01-06T13:26:39.000Z</time>
      </trkpt>
      <trkpt lat="45.12845" lon="5.91957">
        <ele>2099.6000976562</ele>
        <time>2021-01-06T13:26:51.000Z</time>
      </trkpt>
      <trkpt lat="45.12845" lon="5.91957">
        <ele>2099.1999511719</ele>
        <time>2021-01-06T13:27:02.000Z</time>
      </trkpt>
      <trkpt lat="45.12845" lon="5.91957">
        <ele>2099.1999511719</ele>
        <time>2021-01-06T13:27:14.000Z</time>
      </trkpt>
      <trkpt lat="45.12843" lon="5.91953">
        <ele>2099</ele>
        <time>2021-01-06T13:27:21.000Z</time>
      </trkpt>
      <trkpt lat="45.1284" lon="5.91943">
        <ele>2099</ele>
        <time>2021-01-06T13:27:28.000Z</time>
      </trkpt>
      <trkpt lat="45.12835" lon="5.91933">
        <ele>2099.1999511719</ele>
        <time>2021-01-06T13:27:35.000Z</time>
      </trkpt>
      <trkpt lat="45.1283" lon="5.91921">
        <ele>2099</ele>
        <time>2021-01-06T13:27:42.000Z</time>
      </trkpt>
      <trkpt lat="45.12827" lon="5.91913">
        <ele>2099.1999511719</ele>
        <time>2021-01-06T13:27:48.000Z</time>
      </trkpt>
      <trkpt lat="45.12823" lon="5.91905">
        <ele>2099.6000976562</ele>
        <time>2021-01-06T13:27:55.000Z</time>
      </trkpt>
      <trkpt lat="45.12821" lon="5.91898">
        <ele>2100.1999511719</ele>
        <time>2021-01-06T13:28:02.000Z</time>
      </trkpt>
      <trkpt lat="45.1282" lon="5.91898">
        <ele>2100.3999023438</ele>
        <time>2021-01-06T13:28:03.000Z</time>
      </trkpt>
      <trkpt lat="45.12819" lon="5.91894">
        <ele>2101</ele>
        <time>2021-01-06T13:28:08.000Z</time>
      </trkpt>
      <trkpt lat="45.12814" lon="5.91892">
        <ele>2101.3999023438</ele>
        <time>2021-01-06T13:28:13.000Z</time>
      </trkpt>
      <trkpt lat="45.12812" lon="5.9189">
        <ele>2101.8000488281</ele>
        <time>2021-01-06T13:28:15.000Z</time>
      </trkpt>
      <trkpt lat="45.12806" lon="5.91883">
        <ele>2102.3999023438</ele>
        <time>2021-01-06T13:28:22.000Z</time>
      </trkpt>
      <trkpt lat="45.12802" lon="5.91876">
        <ele>2101.3999023438</ele>
        <time>2021-01-06T13:28:27.000Z</time>
      </trkpt>
      <trkpt lat="45.128" lon="5.91873">
        <ele>2100.1999511719</ele>
        <time>2021-01-06T13:28:31.000Z</time>
      </trkpt>
      <trkpt lat="45.12799" lon="5.91871">
        <ele>2100</ele>
        <time>2021-01-06T13:28:33.000Z</time>
      </trkpt>
      <trkpt lat="45.12796" lon="5.91867">
        <ele>2099.8000488281</ele>
        <time>2021-01-06T13:28:39.000Z</time>
      </trkpt>
      <trkpt lat="45.12792" lon="5.91865">
        <ele>2099.1999511719</ele>
        <time>2021-01-06T13:28:43.000Z</time>
      </trkpt>
      <trkpt lat="45.12788" lon="5.91863">
        <ele>2098.8000488281</ele>
        <time>2021-01-06T13:28:46.000Z</time>
      </trkpt>
      <trkpt lat="45.12783" lon="5.91859">
        <ele>2098.1999511719</ele>
        <time>2021-01-06T13:28:49.000Z</time>
      </trkpt>
      <trkpt lat="45.12779" lon="5.91856">
        <ele>2096.8000488281</ele>
        <time>2021-01-06T13:28:52.000Z</time>
      </trkpt>
      <trkpt lat="45.12779" lon="5.91856">
        <ele>2096.3999023438</ele>
        <time>2021-01-06T13:28:53.000Z</time>
      </trkpt>
      <trkpt lat="45.12779" lon="5.91856">
        <ele>2095.3999023438</ele>
        <time>2021-01-06T13:28:54.000Z</time>
      </trkpt>
      <trkpt lat="45.12779" lon="5.91856">
        <ele>2094.3999023438</ele>
        <time>2021-01-06T13:28:58.000Z</time>
      </trkpt>
      <trkpt lat="45.12779" lon="5.91856">
        <ele>2094.1999511719</ele>
        <time>2021-01-06T13:29:04.000Z</time>
      </trkpt>
      <trkpt lat="45.12779" lon="5.91856">
        <ele>2094.1999511719</ele>
        <time>2021-01-06T13:29:16.000Z</time>
      </trkpt>
      <trkpt lat="45.12777" lon="5.91855">
        <ele>2094</ele>
        <time>2021-01-06T13:29:30.000Z</time>
      </trkpt>
      <trkpt lat="45.12771" lon="5.9185">
        <ele>2093.6000976562</ele>
        <time>2021-01-06T13:29:36.000Z</time>
      </trkpt>
      <trkpt lat="45.12769" lon="5.91849">
        <ele>2093.1999511719</ele>
        <time>2021-01-06T13:29:38.000Z</time>
      </trkpt>
      <trkpt lat="45.12766" lon="5.91846">
        <ele>2092.8000488281</ele>
        <time>2021-01-06T13:29:41.000Z</time>
      </trkpt>
      <trkpt lat="45.12764" lon="5.91845">
        <ele>2092.3999023438</ele>
        <time>2021-01-06T13:29:43.000Z</time>
      </trkpt>
      <trkpt lat="45.12762" lon="5.91845">
        <ele>2092.1999511719</ele>
        <time>2021-01-06T13:29:44.000Z</time>
      </trkpt>
      <trkpt lat="45.12758" lon="5.91843">
        <ele>2091.6000976562</ele>
        <time>2021-01-06T13:29:48.000Z</time>
      </trkpt>
      <trkpt lat="45.12757" lon="5.91842">
        <ele>2091.1999511719</ele>
        <time>2021-01-06T13:29:49.000Z</time>
      </trkpt>
      <trkpt lat="45.12755" lon="5.9184">
        <ele>2090</ele>
        <time>2021-01-06T13:29:53.000Z</time>
      </trkpt>
      <trkpt lat="45.12753" lon="5.91839">
        <ele>2090</ele>
        <time>2021-01-06T13:29:55.000Z</time>
      </trkpt>
      <trkpt lat="45.12752" lon="5.91837">
        <ele>2090</ele>
        <time>2021-01-06T13:30:02.000Z</time>
      </trkpt>
      <trkpt lat="45.12752" lon="5.91837">
        <ele>2090</ele>
        <time>2021-01-06T13:30:17.000Z</time>
      </trkpt>
      <trkpt lat="45.12752" lon="5.91837">
        <ele>2090</ele>
        <time>2021-01-06T13:30:28.000Z</time>
      </trkpt>
      <trkpt lat="45.12752" lon="5.91837">
        <ele>2090</ele>
        <time>2021-01-06T13:30:37.000Z</time>
      </trkpt>
      <trkpt lat="45.12752" lon="5.91837">
        <ele>2090</ele>
        <time>2021-01-06T13:30:46.000Z</time>
      </trkpt>
      <trkpt lat="45.12752" lon="5.91837">
        <ele>2089</ele>
        <time>2021-01-06T13:30:54.000Z</time>
      </trkpt>
      <trkpt lat="45.12752" lon="5.91837">
        <ele>2089</ele>
        <time>2021-01-06T13:31:00.000Z</time>
      </trkpt>
      <trkpt lat="45.12752" lon="5.91837">
        <ele>2089.1999511719</ele>
        <time>2021-01-06T13:31:15.000Z</time>
      </trkpt>
      <trkpt lat="45.12752" lon="5.91837">
        <ele>2089</ele>
        <time>2021-01-06T13:31:31.000Z</time>
      </trkpt>
      <trkpt lat="45.12752" lon="5.91837">
        <ele>2088.8000488281</ele>
        <time>2021-01-06T13:31:48.000Z</time>
      </trkpt>
      <trkpt lat="45.12752" lon="5.91837">
        <ele>2088.8000488281</ele>
        <time>2021-01-06T13:32:09.000Z</time>
      </trkpt>
      <trkpt lat="45.12752" lon="5.91837">
        <ele>2088.8000488281</ele>
        <time>2021-01-06T13:32:18.000Z</time>
      </trkpt>
      <trkpt lat="45.12752" lon="5.91837">
        <ele>2088.8000488281</ele>
        <time>2021-01-06T13:32:25.000Z</time>
      </trkpt>
      <trkpt lat="45.12752" lon="5.91836">
        <ele>2088.6000976562</ele>
        <time>2021-01-06T13:32:40.000Z</time>
      </trkpt>
      <trkpt lat="45.12752" lon="5.91836">
        <ele>2088.6000976562</ele>
        <time>2021-01-06T13:32:52.000Z</time>
      </trkpt>
      <trkpt lat="45.12752" lon="5.91836">
        <ele>2088.8000488281</ele>
        <time>2021-01-06T13:33:05.000Z</time>
      </trkpt>
      <trkpt lat="45.12752" lon="5.91836">
        <ele>2089.1999511719</ele>
        <time>2021-01-06T13:33:17.000Z</time>
      </trkpt>
      <trkpt lat="45.12752" lon="5.91836">
        <ele>2089.1999511719</ele>
        <time>2021-01-06T13:33:29.000Z</time>
      </trkpt>
      <trkpt lat="45.12752" lon="5.91836">
        <ele>2089.1999511719</ele>
        <time>2021-01-06T13:33:45.000Z</time>
      </trkpt>
      <trkpt lat="45.12752" lon="5.91836">
        <ele>2089.1999511719</ele>
        <time>2021-01-06T13:33:46.000Z</time>
      </trkpt>
      <trkpt lat="45.12752" lon="5.91836">
        <ele>2089</ele>
        <time>2021-01-06T13:34:01.000Z</time>
      </trkpt>
      <trkpt lat="45.12752" lon="5.91836">
        <ele>2088.8000488281</ele>
        <time>2021-01-06T13:34:11.000Z</time>
      </trkpt>
      <trkpt lat="45.12752" lon="5.91836">
        <ele>2088.6000976562</ele>
        <time>2021-01-06T13:34:25.000Z</time>
      </trkpt>
      <trkpt lat="45.12752" lon="5.91836">
        <ele>2088.3999023438</ele>
        <time>2021-01-06T13:34:39.000Z</time>
      </trkpt>
      <trkpt lat="45.12752" lon="5.91836">
        <ele>2088.3999023438</ele>
        <time>2021-01-06T13:34:52.000Z</time>
      </trkpt>
      <trkpt lat="45.12752" lon="5.91836">
        <ele>2088.8000488281</ele>
        <time>2021-01-06T13:35:03.000Z</time>
      </trkpt>
      <trkpt lat="45.12752" lon="5.91836">
        <ele>2089</ele>
        <time>2021-01-06T13:35:14.000Z</time>
      </trkpt>
      <trkpt lat="45.12753" lon="5.91836">
        <ele>2088.8000488281</ele>
        <time>2021-01-06T13:35:26.000Z</time>
      </trkpt>
      <trkpt lat="45.12753" lon="5.91836">
        <ele>2089.1999511719</ele>
        <time>2021-01-06T13:35:36.000Z</time>
      </trkpt>
      <trkpt lat="45.12753" lon="5.91836">
        <ele>2088.8000488281</ele>
        <time>2021-01-06T13:35:43.000Z</time>
      </trkpt>
      <trkpt lat="45.12753" lon="5.91836">
        <ele>2089.1999511719</ele>
        <time>2021-01-06T13:35:46.000Z</time>
      </trkpt>
      <trkpt lat="45.12752" lon="5.91835">
        <ele>2088.8000488281</ele>
        <time>2021-01-06T13:35:51.000Z</time>
      </trkpt>
      <trkpt lat="45.12752" lon="5.91835">
        <ele>2088.6000976562</ele>
        <time>2021-01-06T13:35:58.000Z</time>
      </trkpt>
      <trkpt lat="45.12752" lon="5.91835">
        <ele>2088.6000976562</ele>
        <time>2021-01-06T13:36:02.000Z</time>
      </trkpt>
      <trkpt lat="45.12752" lon="5.91835">
        <ele>2088</ele>
        <time>2021-01-06T13:36:08.000Z</time>
      </trkpt>
      <trkpt lat="45.12752" lon="5.91835">
        <ele>2087.1999511719</ele>
        <time>2021-01-06T13:36:09.000Z</time>
      </trkpt>
      <trkpt lat="45.12752" lon="5.91835">
        <ele>2085.8000488281</ele>
        <time>2021-01-06T13:36:11.000Z</time>
      </trkpt>
      <trkpt lat="45.12752" lon="5.91835">
        <ele>2087.1999511719</ele>
        <time>2021-01-06T13:36:16.000Z</time>
      </trkpt>
      <trkpt lat="45.12752" lon="5.91835">
        <ele>2087.8000488281</ele>
        <time>2021-01-06T13:36:21.000Z</time>
      </trkpt>
      <trkpt lat="45.12754" lon="5.91835">
        <ele>2088.1999511719</ele>
        <time>2021-01-06T13:36:30.000Z</time>
      </trkpt>
      <trkpt lat="45.12754" lon="5.91835">
        <ele>2088.1999511719</ele>
        <time>2021-01-06T13:36:31.000Z</time>
      </trkpt>
      <trkpt lat="45.12754" lon="5.91835">
        <ele>2088.8000488281</ele>
        <time>2021-01-06T13:36:38.000Z</time>
      </trkpt>
      <trkpt lat="45.12754" lon="5.91835">
        <ele>2089</ele>
        <time>2021-01-06T13:36:50.000Z</time>
      </trkpt>
      <trkpt lat="45.12754" lon="5.91835">
        <ele>2089</ele>
        <time>2021-01-06T13:37:03.000Z</time>
      </trkpt>
      <trkpt lat="45.12754" lon="5.91835">
        <ele>2089</ele>
        <time>2021-01-06T13:37:11.000Z</time>
      </trkpt>
      <trkpt lat="45.12753" lon="5.91835">
        <ele>2088.8000488281</ele>
        <time>2021-01-06T13:37:15.000Z</time>
      </trkpt>
      <trkpt lat="45.12752" lon="5.91833">
        <ele>2088.8000488281</ele>
        <time>2021-01-06T13:37:17.000Z</time>
      </trkpt>
      <trkpt lat="45.12745" lon="5.91827">
        <ele>2088.6000976562</ele>
        <time>2021-01-06T13:37:22.000Z</time>
      </trkpt>
      <trkpt lat="45.12744" lon="5.91826">
        <ele>2088.3999023438</ele>
        <time>2021-01-06T13:37:23.000Z</time>
      </trkpt>
      <trkpt lat="45.12743" lon="5.91823">
        <ele>2087.3999023438</ele>
        <time>2021-01-06T13:37:26.000Z</time>
      </trkpt>
      <trkpt lat="45.12742" lon="5.91822">
        <ele>2087</ele>
        <time>2021-01-06T13:37:27.000Z</time>
      </trkpt>
      <trkpt lat="45.12742" lon="5.91822">
        <ele>2086.8000488281</ele>
        <time>2021-01-06T13:37:28.000Z</time>
      </trkpt>
      <trkpt lat="45.12741" lon="5.9182">
        <ele>2086.3999023438</ele>
        <time>2021-01-06T13:37:34.000Z</time>
      </trkpt>
      <trkpt lat="45.1274" lon="5.91819">
        <ele>2086.3999023438</ele>
        <time>2021-01-06T13:37:35.000Z</time>
      </trkpt>
      <trkpt lat="45.12736" lon="5.91815">
        <ele>2086.3999023438</ele>
        <time>2021-01-06T13:37:39.000Z</time>
      </trkpt>
      <trkpt lat="45.12734" lon="5.91813">
        <ele>2086.1999511719</ele>
        <time>2021-01-06T13:37:41.000Z</time>
      </trkpt>
      <trkpt lat="45.12734" lon="5.91811">
        <ele>2086</ele>
        <time>2021-01-06T13:37:42.000Z</time>
      </trkpt>
      <trkpt lat="45.12728" lon="5.91804">
        <ele>2085.6000976562</ele>
        <time>2021-01-06T13:37:48.000Z</time>
      </trkpt>
      <trkpt lat="45.12723" lon="5.91798">
        <ele>2085</ele>
        <time>2021-01-06T13:37:54.000Z</time>
      </trkpt>
      <trkpt lat="45.12722" lon="5.91797">
        <ele>2084.8000488281</ele>
        <time>2021-01-06T13:37:55.000Z</time>
      </trkpt>
      <trkpt lat="45.12721" lon="5.91797">
        <ele>2084.3999023438</ele>
        <time>2021-01-06T13:38:01.000Z</time>
      </trkpt>
      <trkpt lat="45.12721" lon="5.91797">
        <ele>2084.1999511719</ele>
        <time>2021-01-06T13:38:09.000Z</time>
      </trkpt>
      <trkpt lat="45.12721" lon="5.91797">
        <ele>2084</ele>
        <time>2021-01-06T13:38:11.000Z</time>
      </trkpt>
      <trkpt lat="45.12721" lon="5.91797">
        <ele>2083.6000976562</ele>
        <time>2021-01-06T13:38:18.000Z</time>
      </trkpt>
      <trkpt lat="45.12721" lon="5.91797">
        <ele>2083.6000976562</ele>
        <time>2021-01-06T13:38:25.000Z</time>
      </trkpt>
      <trkpt lat="45.12721" lon="5.91797">
        <ele>2083.8000488281</ele>
        <time>2021-01-06T13:38:33.000Z</time>
      </trkpt>
      <trkpt lat="45.1272" lon="5.91797">
        <ele>2084</ele>
        <time>2021-01-06T13:38:43.000Z</time>
      </trkpt>
      <trkpt lat="45.12718" lon="5.91794">
        <ele>2084</ele>
        <time>2021-01-06T13:38:49.000Z</time>
      </trkpt>
      <trkpt lat="45.12711" lon="5.91784">
        <ele>2083.8000488281</ele>
        <time>2021-01-06T13:38:54.000Z</time>
      </trkpt>
      <trkpt lat="45.12706" lon="5.91774">
        <ele>2082.8000488281</ele>
        <time>2021-01-06T13:38:58.000Z</time>
      </trkpt>
      <trkpt lat="45.12703" lon="5.91768">
        <ele>2082.3999023438</ele>
        <time>2021-01-06T13:39:00.000Z</time>
      </trkpt>
      <trkpt lat="45.127" lon="5.91763">
        <ele>2081.6000976562</ele>
        <time>2021-01-06T13:39:02.000Z</time>
      </trkpt>
      <trkpt lat="45.12699" lon="5.9176">
        <ele>2080.8000488281</ele>
        <time>2021-01-06T13:39:04.000Z</time>
      </trkpt>
      <trkpt lat="45.12698" lon="5.91758">
        <ele>2080.3999023438</ele>
        <time>2021-01-06T13:39:05.000Z</time>
      </trkpt>
      <trkpt lat="45.12697" lon="5.91755">
        <ele>2079.8000488281</ele>
        <time>2021-01-06T13:39:07.000Z</time>
      </trkpt>
      <trkpt lat="45.12694" lon="5.91751">
        <ele>2079.3999023438</ele>
        <time>2021-01-06T13:39:10.000Z</time>
      </trkpt>
      <trkpt lat="45.12693" lon="5.91749">
        <ele>2079.3999023438</ele>
        <time>2021-01-06T13:39:12.000Z</time>
      </trkpt>
      <trkpt lat="45.12692" lon="5.91743">
        <ele>2079.3999023438</ele>
        <time>2021-01-06T13:39:16.000Z</time>
      </trkpt>
      <trkpt lat="45.12691" lon="5.91742">
        <ele>2079.3999023438</ele>
        <time>2021-01-06T13:39:17.000Z</time>
      </trkpt>
      <trkpt lat="45.1269" lon="5.91739">
        <ele>2079.8000488281</ele>
        <time>2021-01-06T13:39:20.000Z</time>
      </trkpt>
      <trkpt lat="45.12689" lon="5.91738">
        <ele>2080</ele>
        <time>2021-01-06T13:39:21.000Z</time>
      </trkpt>
      <trkpt lat="45.12686" lon="5.91732">
        <ele>2081</ele>
        <time>2021-01-06T13:39:28.000Z</time>
      </trkpt>
      <trkpt lat="45.12683" lon="5.91726">
        <ele>2081.1999511719</ele>
        <time>2021-01-06T13:39:35.000Z</time>
      </trkpt>
      <trkpt lat="45.12682" lon="5.91723">
        <ele>2081.3999023438</ele>
        <time>2021-01-06T13:39:37.000Z</time>
      </trkpt>
      <trkpt lat="45.12681" lon="5.91717">
        <ele>2081.8000488281</ele>
        <time>2021-01-06T13:39:41.000Z</time>
      </trkpt>
      <trkpt lat="45.1268" lon="5.91714">
        <ele>2082.3999023438</ele>
        <time>2021-01-06T13:39:44.000Z</time>
      </trkpt>
      <trkpt lat="45.12679" lon="5.91712">
        <ele>2082.6000976562</ele>
        <time>2021-01-06T13:39:46.000Z</time>
      </trkpt>
      <trkpt lat="45.12678" lon="5.91709">
        <ele>2082.8000488281</ele>
        <time>2021-01-06T13:39:48.000Z</time>
      </trkpt>
      <trkpt lat="45.12676" lon="5.91701">
        <ele>2083.3999023438</ele>
        <time>2021-01-06T13:39:54.000Z</time>
      </trkpt>
      <trkpt lat="45.12676" lon="5.917">
        <ele>2083.6000976562</ele>
        <time>2021-01-06T13:39:55.000Z</time>
      </trkpt>
      <trkpt lat="45.12674" lon="5.91695">
        <ele>2084</ele>
        <time>2021-01-06T13:40:00.000Z</time>
      </trkpt>
      <trkpt lat="45.12672" lon="5.91689">
        <ele>2084.6000976562</ele>
        <time>2021-01-06T13:40:05.000Z</time>
      </trkpt>
      <trkpt lat="45.12671" lon="5.91687">
        <ele>2085.1999511719</ele>
        <time>2021-01-06T13:40:07.000Z</time>
      </trkpt>
      <trkpt lat="45.1267" lon="5.91685">
        <ele>2085.6000976562</ele>
        <time>2021-01-06T13:40:09.000Z</time>
      </trkpt>
      <trkpt lat="45.12668" lon="5.91681">
        <ele>2086.3999023438</ele>
        <time>2021-01-06T13:40:14.000Z</time>
      </trkpt>
      <trkpt lat="45.12667" lon="5.91679">
        <ele>2086.8000488281</ele>
        <time>2021-01-06T13:40:16.000Z</time>
      </trkpt>
      <trkpt lat="45.12665" lon="5.91675">
        <ele>2087.6000976562</ele>
        <time>2021-01-06T13:40:20.000Z</time>
      </trkpt>
      <trkpt lat="45.12664" lon="5.91673">
        <ele>2088</ele>
        <time>2021-01-06T13:40:22.000Z</time>
      </trkpt>
      <trkpt lat="45.12663" lon="5.9167">
        <ele>2088.3999023438</ele>
        <time>2021-01-06T13:40:25.000Z</time>
      </trkpt>
      <trkpt lat="45.12662" lon="5.91665">
        <ele>2089</ele>
        <time>2021-01-06T13:40:29.000Z</time>
      </trkpt>
      <trkpt lat="45.12661" lon="5.91662">
        <ele>2089.6000976562</ele>
        <time>2021-01-06T13:40:32.000Z</time>
      </trkpt>
      <trkpt lat="45.12659" lon="5.91658">
        <ele>2090.1999511719</ele>
        <time>2021-01-06T13:40:35.000Z</time>
      </trkpt>
      <trkpt lat="45.12658" lon="5.91654">
        <ele>2090.3999023438</ele>
        <time>2021-01-06T13:40:38.000Z</time>
      </trkpt>
      <trkpt lat="45.12658" lon="5.91652">
        <ele>2090.6000976562</ele>
        <time>2021-01-06T13:40:40.000Z</time>
      </trkpt>
      <trkpt lat="45.12656" lon="5.91646">
        <ele>2091.1999511719</ele>
        <time>2021-01-06T13:40:45.000Z</time>
      </trkpt>
      <trkpt lat="45.12656" lon="5.91643">
        <ele>2091.8000488281</ele>
        <time>2021-01-06T13:40:48.000Z</time>
      </trkpt>
      <trkpt lat="45.12655" lon="5.9164">
        <ele>2092.3999023438</ele>
        <time>2021-01-06T13:40:51.000Z</time>
      </trkpt>
      <trkpt lat="45.12652" lon="5.91632">
        <ele>2093.3999023438</ele>
        <time>2021-01-06T13:40:58.000Z</time>
      </trkpt>
      <trkpt lat="45.12649" lon="5.91627">
        <ele>2094</ele>
        <time>2021-01-06T13:41:04.000Z</time>
      </trkpt>
      <trkpt lat="45.12649" lon="5.91624">
        <ele>2094.6000976562</ele>
        <time>2021-01-06T13:41:07.000Z</time>
      </trkpt>
      <trkpt lat="45.12648" lon="5.9162">
        <ele>2095</ele>
        <time>2021-01-06T13:41:10.000Z</time>
      </trkpt>
      <trkpt lat="45.12647" lon="5.91617">
        <ele>2095.6000976562</ele>
        <time>2021-01-06T13:41:13.000Z</time>
      </trkpt>
      <trkpt lat="45.12647" lon="5.91616">
        <ele>2095.6000976562</ele>
        <time>2021-01-06T13:41:14.000Z</time>
      </trkpt>
      <trkpt lat="45.12647" lon="5.91614">
        <ele>2096</ele>
        <time>2021-01-06T13:41:16.000Z</time>
      </trkpt>
      <trkpt lat="45.12647" lon="5.91608">
        <ele>2096.8000488281</ele>
        <time>2021-01-06T13:41:21.000Z</time>
      </trkpt>
      <trkpt lat="45.12647" lon="5.91606">
        <ele>2097.1999511719</ele>
        <time>2021-01-06T13:41:23.000Z</time>
      </trkpt>
      <trkpt lat="45.12647" lon="5.91602">
        <ele>2098</ele>
        <time>2021-01-06T13:41:27.000Z</time>
      </trkpt>
      <trkpt lat="45.12647" lon="5.91597">
        <ele>2098.8000488281</ele>
        <time>2021-01-06T13:41:31.000Z</time>
      </trkpt>
      <trkpt lat="45.12647" lon="5.91595">
        <ele>2099</ele>
        <time>2021-01-06T13:41:32.000Z</time>
      </trkpt>
      <trkpt lat="45.12647" lon="5.91589">
        <ele>2100</ele>
        <time>2021-01-06T13:41:38.000Z</time>
      </trkpt>
      <trkpt lat="45.12647" lon="5.91585">
        <ele>2100.1999511719</ele>
        <time>2021-01-06T13:41:40.000Z</time>
      </trkpt>
      <trkpt lat="45.12647" lon="5.91581">
        <ele>2100.8000488281</ele>
        <time>2021-01-06T13:41:44.000Z</time>
      </trkpt>
      <trkpt lat="45.12647" lon="5.91575">
        <ele>2101.1999511719</ele>
        <time>2021-01-06T13:41:49.000Z</time>
      </trkpt>
      <trkpt lat="45.12648" lon="5.91574">
        <ele>2101.3999023438</ele>
        <time>2021-01-06T13:41:50.000Z</time>
      </trkpt>
      <trkpt lat="45.12649" lon="5.91567">
        <ele>2102</ele>
        <time>2021-01-06T13:41:56.000Z</time>
      </trkpt>
      <trkpt lat="45.12649" lon="5.91564">
        <ele>2102.3999023438</ele>
        <time>2021-01-06T13:41:58.000Z</time>
      </trkpt>
      <trkpt lat="45.12649" lon="5.91559">
        <ele>2102.8000488281</ele>
        <time>2021-01-06T13:42:03.000Z</time>
      </trkpt>
      <trkpt lat="45.12649" lon="5.91556">
        <ele>2103.6000976562</ele>
        <time>2021-01-06T13:42:06.000Z</time>
      </trkpt>
      <trkpt lat="45.12649" lon="5.91552">
        <ele>2104.6000976562</ele>
        <time>2021-01-06T13:42:10.000Z</time>
      </trkpt>
      <trkpt lat="45.1265" lon="5.91546">
        <ele>2105.3999023438</ele>
        <time>2021-01-06T13:42:16.000Z</time>
      </trkpt>
      <trkpt lat="45.1265" lon="5.91544">
        <ele>2105.8000488281</ele>
        <time>2021-01-06T13:42:18.000Z</time>
      </trkpt>
      <trkpt lat="45.1265" lon="5.9154">
        <ele>2106.6000976562</ele>
        <time>2021-01-06T13:42:22.000Z</time>
      </trkpt>
      <trkpt lat="45.1265" lon="5.91538">
        <ele>2107</ele>
        <time>2021-01-06T13:42:24.000Z</time>
      </trkpt>
      <trkpt lat="45.1265" lon="5.91533">
        <ele>2107.6000976562</ele>
        <time>2021-01-06T13:42:28.000Z</time>
      </trkpt>
      <trkpt lat="45.1265" lon="5.91529">
        <ele>2108.3999023438</ele>
        <time>2021-01-06T13:42:31.000Z</time>
      </trkpt>
      <trkpt lat="45.1265" lon="5.91523">
        <ele>2109.1999511719</ele>
        <time>2021-01-06T13:42:36.000Z</time>
      </trkpt>
      <trkpt lat="45.12651" lon="5.91521">
        <ele>2109.3999023438</ele>
        <time>2021-01-06T13:42:38.000Z</time>
      </trkpt>
      <trkpt lat="45.12651" lon="5.91514">
        <ele>2110.3999023438</ele>
        <time>2021-01-06T13:42:44.000Z</time>
      </trkpt>
      <trkpt lat="45.12651" lon="5.91513">
        <ele>2110.3999023438</ele>
        <time>2021-01-06T13:42:45.000Z</time>
      </trkpt>
      <trkpt lat="45.12652" lon="5.9151">
        <ele>2110.6000976562</ele>
        <time>2021-01-06T13:42:47.000Z</time>
      </trkpt>
      <trkpt lat="45.12652" lon="5.91505">
        <ele>2111.1999511719</ele>
        <time>2021-01-06T13:42:51.000Z</time>
      </trkpt>
      <trkpt lat="45.12652" lon="5.91501">
        <ele>2111.6000976562</ele>
        <time>2021-01-06T13:42:54.000Z</time>
      </trkpt>
      <trkpt lat="45.12651" lon="5.91494">
        <ele>2112.1999511719</ele>
        <time>2021-01-06T13:42:59.000Z</time>
      </trkpt>
      <trkpt lat="45.12652" lon="5.91489">
        <ele>2112.6000976562</ele>
        <time>2021-01-06T13:43:03.000Z</time>
      </trkpt>
      <trkpt lat="45.12652" lon="5.91485">
        <ele>2113.1999511719</ele>
        <time>2021-01-06T13:43:06.000Z</time>
      </trkpt>
      <trkpt lat="45.12652" lon="5.91479">
        <ele>2113.8000488281</ele>
        <time>2021-01-06T13:43:10.000Z</time>
      </trkpt>
      <trkpt lat="45.12652" lon="5.91477">
        <ele>2114.1999511719</ele>
        <time>2021-01-06T13:43:12.000Z</time>
      </trkpt>
      <trkpt lat="45.12652" lon="5.91476">
        <ele>2115</ele>
        <time>2021-01-06T13:43:16.000Z</time>
      </trkpt>
      <trkpt lat="45.12652" lon="5.91475">
        <ele>2115.6000976562</ele>
        <time>2021-01-06T13:43:20.000Z</time>
      </trkpt>
      <trkpt lat="45.12651" lon="5.91469">
        <ele>2116</ele>
        <time>2021-01-06T13:43:25.000Z</time>
      </trkpt>
      <trkpt lat="45.12651" lon="5.91468">
        <ele>2116.1999511719</ele>
        <time>2021-01-06T13:43:26.000Z</time>
      </trkpt>
      <trkpt lat="45.12651" lon="5.91464">
        <ele>2116.6000976562</ele>
        <time>2021-01-06T13:43:29.000Z</time>
      </trkpt>
      <trkpt lat="45.12651" lon="5.91461">
        <ele>2117</ele>
        <time>2021-01-06T13:43:32.000Z</time>
      </trkpt>
      <trkpt lat="45.12651" lon="5.91459">
        <ele>2117.1999511719</ele>
        <time>2021-01-06T13:43:33.000Z</time>
      </trkpt>
      <trkpt lat="45.1265" lon="5.91451">
        <ele>2118.1999511719</ele>
        <time>2021-01-06T13:43:39.000Z</time>
      </trkpt>
      <trkpt lat="45.12649" lon="5.9145">
        <ele>2118.1999511719</ele>
        <time>2021-01-06T13:43:40.000Z</time>
      </trkpt>
      <trkpt lat="45.12649" lon="5.91444">
        <ele>2119.1999511719</ele>
        <time>2021-01-06T13:43:45.000Z</time>
      </trkpt>
      <trkpt lat="45.12648" lon="5.91442">
        <ele>2119.3999023438</ele>
        <time>2021-01-06T13:43:46.000Z</time>
      </trkpt>
      <trkpt lat="45.12647" lon="5.91435">
        <ele>2120.1999511719</ele>
        <time>2021-01-06T13:43:52.000Z</time>
      </trkpt>
      <trkpt lat="45.12647" lon="5.91433">
        <ele>2120.6000976562</ele>
        <time>2021-01-06T13:43:54.000Z</time>
      </trkpt>
      <trkpt lat="45.12646" lon="5.91428">
        <ele>2121.3999023438</ele>
        <time>2021-01-06T13:43:58.000Z</time>
      </trkpt>
      <trkpt lat="45.12646" lon="5.91426">
        <ele>2121.8000488281</ele>
        <time>2021-01-06T13:44:00.000Z</time>
      </trkpt>
      <trkpt lat="45.12645" lon="5.91423">
        <ele>2122.3999023438</ele>
        <time>2021-01-06T13:44:03.000Z</time>
      </trkpt>
      <trkpt lat="45.12644" lon="5.91419">
        <ele>2123.3999023438</ele>
        <time>2021-01-06T13:44:07.000Z</time>
      </trkpt>
      <trkpt lat="45.12642" lon="5.91413">
        <ele>2124.6000976562</ele>
        <time>2021-01-06T13:44:13.000Z</time>
      </trkpt>
      <trkpt lat="45.12642" lon="5.91412">
        <ele>2124.8000488281</ele>
        <time>2021-01-06T13:44:14.000Z</time>
      </trkpt>
      <trkpt lat="45.12642" lon="5.9141">
        <ele>2125</ele>
        <time>2021-01-06T13:44:15.000Z</time>
      </trkpt>
      <trkpt lat="45.12642" lon="5.91408">
        <ele>2125.8000488281</ele>
        <time>2021-01-06T13:44:18.000Z</time>
      </trkpt>
      <trkpt lat="45.12642" lon="5.91406">
        <ele>2126</ele>
        <time>2021-01-06T13:44:20.000Z</time>
      </trkpt>
      <trkpt lat="45.12641" lon="5.91402">
        <ele>2126.8000488281</ele>
        <time>2021-01-06T13:44:24.000Z</time>
      </trkpt>
      <trkpt lat="45.12641" lon="5.914">
        <ele>2127</ele>
        <time>2021-01-06T13:44:26.000Z</time>
      </trkpt>
      <trkpt lat="45.1264" lon="5.91394">
        <ele>2127.6000976562</ele>
        <time>2021-01-06T13:44:32.000Z</time>
      </trkpt>
      <trkpt lat="45.1264" lon="5.91392">
        <ele>2127.8000488281</ele>
        <time>2021-01-06T13:44:34.000Z</time>
      </trkpt>
      <trkpt lat="45.12639" lon="5.91387">
        <ele>2128.8000488281</ele>
        <time>2021-01-06T13:44:38.000Z</time>
      </trkpt>
      <trkpt lat="45.12639" lon="5.91386">
        <ele>2129</ele>
        <time>2021-01-06T13:44:39.000Z</time>
      </trkpt>
      <trkpt lat="45.12637" lon="5.91379">
        <ele>2130</ele>
        <time>2021-01-06T13:44:44.000Z</time>
      </trkpt>
      <trkpt lat="45.12634" lon="5.91372">
        <ele>2131</ele>
        <time>2021-01-06T13:44:51.000Z</time>
      </trkpt>
      <trkpt lat="45.12634" lon="5.91371">
        <ele>2131</ele>
        <time>2021-01-06T13:44:52.000Z</time>
      </trkpt>
      <trkpt lat="45.12629" lon="5.91364">
        <ele>2132</ele>
        <time>2021-01-06T13:44:59.000Z</time>
      </trkpt>
      <trkpt lat="45.12626" lon="5.91358">
        <ele>2132.8000488281</ele>
        <time>2021-01-06T13:45:05.000Z</time>
      </trkpt>
      <trkpt lat="45.12626" lon="5.91357">
        <ele>2133</ele>
        <time>2021-01-06T13:45:06.000Z</time>
      </trkpt>
      <trkpt lat="45.12623" lon="5.91353">
        <ele>2134.1999511719</ele>
        <time>2021-01-06T13:45:11.000Z</time>
      </trkpt>
      <trkpt lat="45.12623" lon="5.91352">
        <ele>2134.3999023438</ele>
        <time>2021-01-06T13:45:12.000Z</time>
      </trkpt>
      <trkpt lat="45.1262" lon="5.91349">
        <ele>2135.1999511719</ele>
        <time>2021-01-06T13:45:17.000Z</time>
      </trkpt>
      <trkpt lat="45.12619" lon="5.91347">
        <ele>2135.8000488281</ele>
        <time>2021-01-06T13:45:19.000Z</time>
      </trkpt>
      <trkpt lat="45.12617" lon="5.91345">
        <ele>2136.1999511719</ele>
        <time>2021-01-06T13:45:22.000Z</time>
      </trkpt>
      <trkpt lat="45.12616" lon="5.91343">
        <ele>2136.8000488281</ele>
        <time>2021-01-06T13:45:25.000Z</time>
      </trkpt>
      <trkpt lat="45.12616" lon="5.9134">
        <ele>2137.3999023438</ele>
        <time>2021-01-06T13:45:28.000Z</time>
      </trkpt>
      <trkpt lat="45.12614" lon="5.91334">
        <ele>2138.3999023438</ele>
        <time>2021-01-06T13:45:33.000Z</time>
      </trkpt>
      <trkpt lat="45.12614" lon="5.91333">
        <ele>2138.6000976562</ele>
        <time>2021-01-06T13:45:34.000Z</time>
      </trkpt>
      <trkpt lat="45.12612" lon="5.9133">
        <ele>2139.1999511719</ele>
        <time>2021-01-06T13:45:37.000Z</time>
      </trkpt>
      <trkpt lat="45.12612" lon="5.91329">
        <ele>2139.6000976562</ele>
        <time>2021-01-06T13:45:39.000Z</time>
      </trkpt>
      <trkpt lat="45.12611" lon="5.91328">
        <ele>2139.8000488281</ele>
        <time>2021-01-06T13:45:40.000Z</time>
      </trkpt>
      <trkpt lat="45.12609" lon="5.91324">
        <ele>2140.6000976562</ele>
        <time>2021-01-06T13:45:45.000Z</time>
      </trkpt>
      <trkpt lat="45.12608" lon="5.91322">
        <ele>2140.8000488281</ele>
        <time>2021-01-06T13:45:46.000Z</time>
      </trkpt>
      <trkpt lat="45.12605" lon="5.91316">
        <ele>2141.6000976562</ele>
        <time>2021-01-06T13:45:52.000Z</time>
      </trkpt>
      <trkpt lat="45.12603" lon="5.91312">
        <ele>2142</ele>
        <time>2021-01-06T13:45:56.000Z</time>
      </trkpt>
      <trkpt lat="45.12603" lon="5.9131">
        <ele>2142.3999023438</ele>
        <time>2021-01-06T13:45:58.000Z</time>
      </trkpt>
      <trkpt lat="45.12601" lon="5.91308">
        <ele>2142.8000488281</ele>
        <time>2021-01-06T13:46:00.000Z</time>
      </trkpt>
      <trkpt lat="45.12598" lon="5.91303">
        <ele>2143.3999023438</ele>
        <time>2021-01-06T13:46:04.000Z</time>
      </trkpt>
      <trkpt lat="45.12596" lon="5.913">
        <ele>2143.8000488281</ele>
        <time>2021-01-06T13:46:07.000Z</time>
      </trkpt>
      <trkpt lat="45.12593" lon="5.91296">
        <ele>2144.3999023438</ele>
        <time>2021-01-06T13:46:11.000Z</time>
      </trkpt>
      <trkpt lat="45.12589" lon="5.9129">
        <ele>2144.8000488281</ele>
        <time>2021-01-06T13:46:17.000Z</time>
      </trkpt>
      <trkpt lat="45.12589" lon="5.91289">
        <ele>2144.8000488281</ele>
        <time>2021-01-06T13:46:18.000Z</time>
      </trkpt>
      <trkpt lat="45.12587" lon="5.91286">
        <ele>2145</ele>
        <time>2021-01-06T13:46:21.000Z</time>
      </trkpt>
      <trkpt lat="45.12586" lon="5.91284">
        <ele>2145.1999511719</ele>
        <time>2021-01-06T13:46:23.000Z</time>
      </trkpt>
      <trkpt lat="45.12581" lon="5.91277">
        <ele>2145.8000488281</ele>
        <time>2021-01-06T13:46:30.000Z</time>
      </trkpt>
      <trkpt lat="45.12581" lon="5.91276">
        <ele>2145.8000488281</ele>
        <time>2021-01-06T13:46:31.000Z</time>
      </trkpt>
      <trkpt lat="45.12576" lon="5.91269">
        <ele>2146.8000488281</ele>
        <time>2021-01-06T13:46:39.000Z</time>
      </trkpt>
      <trkpt lat="45.12572" lon="5.91263">
        <ele>2147.3999023438</ele>
        <time>2021-01-06T13:46:45.000Z</time>
      </trkpt>
      <trkpt lat="45.12569" lon="5.9126">
        <ele>2148</ele>
        <time>2021-01-06T13:46:48.000Z</time>
      </trkpt>
      <trkpt lat="45.12565" lon="5.91257">
        <ele>2148.3999023438</ele>
        <time>2021-01-06T13:46:53.000Z</time>
      </trkpt>
      <trkpt lat="45.12561" lon="5.9125">
        <ele>2149</ele>
        <time>2021-01-06T13:47:00.000Z</time>
      </trkpt>
      <trkpt lat="45.1256" lon="5.91249">
        <ele>2149.1999511719</ele>
        <time>2021-01-06T13:47:01.000Z</time>
      </trkpt>
      <trkpt lat="45.12557" lon="5.91245">
        <ele>2149.6000976562</ele>
        <time>2021-01-06T13:47:06.000Z</time>
      </trkpt>
      <trkpt lat="45.12554" lon="5.91241">
        <ele>2150</ele>
        <time>2021-01-06T13:47:10.000Z</time>
      </trkpt>
      <trkpt lat="45.12553" lon="5.91239">
        <ele>2150.1999511719</ele>
        <time>2021-01-06T13:47:12.000Z</time>
      </trkpt>
      <trkpt lat="45.12549" lon="5.91233">
        <ele>2150.6000976562</ele>
        <time>2021-01-06T13:47:19.000Z</time>
      </trkpt>
      <trkpt lat="45.12546" lon="5.91228">
        <ele>2151.1999511719</ele>
        <time>2021-01-06T13:47:23.000Z</time>
      </trkpt>
      <trkpt lat="45.12545" lon="5.91227">
        <ele>2151.3999023438</ele>
        <time>2021-01-06T13:47:25.000Z</time>
      </trkpt>
      <trkpt lat="45.12542" lon="5.91225">
        <ele>2152.1999511719</ele>
        <time>2021-01-06T13:47:29.000Z</time>
      </trkpt>
      <trkpt lat="45.1254" lon="5.91222">
        <ele>2152.8000488281</ele>
        <time>2021-01-06T13:47:32.000Z</time>
      </trkpt>
      <trkpt lat="45.12537" lon="5.91219">
        <ele>2153.1999511719</ele>
        <time>2021-01-06T13:47:36.000Z</time>
      </trkpt>
      <trkpt lat="45.12535" lon="5.91217">
        <ele>2153.3999023438</ele>
        <time>2021-01-06T13:47:39.000Z</time>
      </trkpt>
      <trkpt lat="45.12532" lon="5.91212">
        <ele>2154.1999511719</ele>
        <time>2021-01-06T13:47:44.000Z</time>
      </trkpt>
      <trkpt lat="45.1253" lon="5.9121">
        <ele>2154.6000976562</ele>
        <time>2021-01-06T13:47:47.000Z</time>
      </trkpt>
      <trkpt lat="45.12526" lon="5.91208">
        <ele>2155.3999023438</ele>
        <time>2021-01-06T13:47:51.000Z</time>
      </trkpt>
      <trkpt lat="45.12525" lon="5.91207">
        <ele>2155.6000976562</ele>
        <time>2021-01-06T13:47:53.000Z</time>
      </trkpt>
      <trkpt lat="45.12524" lon="5.91206">
        <ele>2155.6000976562</ele>
        <time>2021-01-06T13:47:54.000Z</time>
      </trkpt>
      <trkpt lat="45.12521" lon="5.91204">
        <ele>2156.1999511719</ele>
        <time>2021-01-06T13:47:58.000Z</time>
      </trkpt>
      <trkpt lat="45.1252" lon="5.91204">
        <ele>2156.3999023438</ele>
        <time>2021-01-06T13:48:00.000Z</time>
      </trkpt>
      <trkpt lat="45.1252" lon="5.91203">
        <ele>2156.3999023438</ele>
        <time>2021-01-06T13:48:01.000Z</time>
      </trkpt>
      <trkpt lat="45.12516" lon="5.91201">
        <ele>2157.6000976562</ele>
        <time>2021-01-06T13:48:07.000Z</time>
      </trkpt>
      <trkpt lat="45.12516" lon="5.912">
        <ele>2157.8000488281</ele>
        <time>2021-01-06T13:48:08.000Z</time>
      </trkpt>
      <trkpt lat="45.12513" lon="5.91197">
        <ele>2158.6000976562</ele>
        <time>2021-01-06T13:48:13.000Z</time>
      </trkpt>
      <trkpt lat="45.12512" lon="5.91196">
        <ele>2159</ele>
        <time>2021-01-06T13:48:15.000Z</time>
      </trkpt>
      <trkpt lat="45.12509" lon="5.91192">
        <ele>2159.8000488281</ele>
        <time>2021-01-06T13:48:20.000Z</time>
      </trkpt>
      <trkpt lat="45.12509" lon="5.91191">
        <ele>2160</ele>
        <time>2021-01-06T13:48:22.000Z</time>
      </trkpt>
      <trkpt lat="45.12507" lon="5.91187">
        <ele>2160.6000976562</ele>
        <time>2021-01-06T13:48:28.000Z</time>
      </trkpt>
      <trkpt lat="45.12507" lon="5.91187">
        <ele>2160.8000488281</ele>
        <time>2021-01-06T13:48:29.000Z</time>
      </trkpt>
      <trkpt lat="45.12508" lon="5.91183">
        <ele>2161.3999023438</ele>
        <time>2021-01-06T13:48:34.000Z</time>
      </trkpt>
      <trkpt lat="45.1251" lon="5.91181">
        <ele>2161.8000488281</ele>
        <time>2021-01-06T13:48:39.000Z</time>
      </trkpt>
      <trkpt lat="45.1251" lon="5.9118">
        <ele>2161.8000488281</ele>
        <time>2021-01-06T13:48:40.000Z</time>
      </trkpt>
      <trkpt lat="45.12515" lon="5.91174">
        <ele>2162.1999511719</ele>
        <time>2021-01-06T13:48:46.000Z</time>
      </trkpt>
      <trkpt lat="45.12519" lon="5.91163">
        <ele>2161.8000488281</ele>
        <time>2021-01-06T13:48:55.000Z</time>
      </trkpt>
      <trkpt lat="45.1252" lon="5.91155">
        <ele>2161.8000488281</ele>
        <time>2021-01-06T13:49:01.000Z</time>
      </trkpt>
      <trkpt lat="45.12523" lon="5.91148">
        <ele>2161.8000488281</ele>
        <time>2021-01-06T13:49:07.000Z</time>
      </trkpt>
      <trkpt lat="45.12526" lon="5.91139">
        <ele>2162.1999511719</ele>
        <time>2021-01-06T13:49:14.000Z</time>
      </trkpt>
      <trkpt lat="45.12528" lon="5.91133">
        <ele>2162.8000488281</ele>
        <time>2021-01-06T13:49:19.000Z</time>
      </trkpt>
      <trkpt lat="45.12529" lon="5.91129">
        <ele>2163.1999511719</ele>
        <time>2021-01-06T13:49:21.000Z</time>
      </trkpt>
      <trkpt lat="45.12531" lon="5.91125">
        <ele>2163.8000488281</ele>
        <time>2021-01-06T13:49:26.000Z</time>
      </trkpt>
      <trkpt lat="45.12531" lon="5.91124">
        <ele>2164</ele>
        <time>2021-01-06T13:49:27.000Z</time>
      </trkpt>
      <trkpt lat="45.12533" lon="5.91122">
        <ele>2164.6000976562</ele>
        <time>2021-01-06T13:49:34.000Z</time>
      </trkpt>
      <trkpt lat="45.12533" lon="5.91121">
        <ele>2164.6000976562</ele>
        <time>2021-01-06T13:49:41.000Z</time>
      </trkpt>
      <trkpt lat="45.12533" lon="5.9112">
        <ele>2164.8000488281</ele>
        <time>2021-01-06T13:49:49.000Z</time>
      </trkpt>
      <trkpt lat="45.12535" lon="5.91114">
        <ele>2164.8000488281</ele>
        <time>2021-01-06T13:49:55.000Z</time>
      </trkpt>
      <trkpt lat="45.12536" lon="5.91111">
        <ele>2164.8000488281</ele>
        <time>2021-01-06T13:49:57.000Z</time>
      </trkpt>
      <trkpt lat="45.12537" lon="5.91108">
        <ele>2165</ele>
        <time>2021-01-06T13:50:00.000Z</time>
      </trkpt>
      <trkpt lat="45.12537" lon="5.91107">
        <ele>2165.1999511719</ele>
        <time>2021-01-06T13:50:01.000Z</time>
      </trkpt>
      <trkpt lat="45.12539" lon="5.91103">
        <ele>2165.3999023438</ele>
        <time>2021-01-06T13:50:06.000Z</time>
      </trkpt>
      <trkpt lat="45.12541" lon="5.91098">
        <ele>2165.8000488281</ele>
        <time>2021-01-06T13:50:12.000Z</time>
      </trkpt>
      <trkpt lat="45.12542" lon="5.91098">
        <ele>2166</ele>
        <time>2021-01-06T13:50:13.000Z</time>
      </trkpt>
      <trkpt lat="45.12543" lon="5.91094">
        <ele>2166</ele>
        <time>2021-01-06T13:50:16.000Z</time>
      </trkpt>
      <trkpt lat="45.12543" lon="5.91093">
        <ele>2166</ele>
        <time>2021-01-06T13:50:17.000Z</time>
      </trkpt>
      <trkpt lat="45.12543" lon="5.91092">
        <ele>2166.1999511719</ele>
        <time>2021-01-06T13:50:18.000Z</time>
      </trkpt>
      <trkpt lat="45.12545" lon="5.91088">
        <ele>2166.3999023438</ele>
        <time>2021-01-06T13:50:23.000Z</time>
      </trkpt>
      <trkpt lat="45.12547" lon="5.91082">
        <ele>2166.6000976562</ele>
        <time>2021-01-06T13:50:29.000Z</time>
      </trkpt>
      <trkpt lat="45.1255" lon="5.91077">
        <ele>2167</ele>
        <time>2021-01-06T13:50:34.000Z</time>
      </trkpt>
      <trkpt lat="45.12551" lon="5.91075">
        <ele>2167</ele>
        <time>2021-01-06T13:50:36.000Z</time>
      </trkpt>
      <trkpt lat="45.12555" lon="5.91069">
        <ele>2167.3999023438</ele>
        <time>2021-01-06T13:50:45.000Z</time>
      </trkpt>
      <trkpt lat="45.12558" lon="5.91063">
        <ele>2168</ele>
        <time>2021-01-06T13:50:52.000Z</time>
      </trkpt>
      <trkpt lat="45.1256" lon="5.91059">
        <ele>2168.6000976562</ele>
        <time>2021-01-06T13:50:57.000Z</time>
      </trkpt>
      <trkpt lat="45.12563" lon="5.91055">
        <ele>2168.8000488281</ele>
        <time>2021-01-06T13:51:03.000Z</time>
      </trkpt>
      <trkpt lat="45.12564" lon="5.91054">
        <ele>2169</ele>
        <time>2021-01-06T13:51:06.000Z</time>
      </trkpt>
      <trkpt lat="45.12565" lon="5.91053">
        <ele>2169.3999023438</ele>
        <time>2021-01-06T13:51:09.000Z</time>
      </trkpt>
      <trkpt lat="45.12567" lon="5.91049">
        <ele>2169.8000488281</ele>
        <time>2021-01-06T13:51:13.000Z</time>
      </trkpt>
      <trkpt lat="45.1257" lon="5.91044">
        <ele>2169.8000488281</ele>
        <time>2021-01-06T13:51:19.000Z</time>
      </trkpt>
      <trkpt lat="45.12573" lon="5.9104">
        <ele>2170</ele>
        <time>2021-01-06T13:51:23.000Z</time>
      </trkpt>
      <trkpt lat="45.12575" lon="5.91037">
        <ele>2170.1999511719</ele>
        <time>2021-01-06T13:51:26.000Z</time>
      </trkpt>
      <trkpt lat="45.12579" lon="5.91031">
        <ele>2170.3999023438</ele>
        <time>2021-01-06T13:51:33.000Z</time>
      </trkpt>
      <trkpt lat="45.12583" lon="5.91022">
        <ele>2170.3999023438</ele>
        <time>2021-01-06T13:51:40.000Z</time>
      </trkpt>
      <trkpt lat="45.12583" lon="5.91021">
        <ele>2170.3999023438</ele>
        <time>2021-01-06T13:51:41.000Z</time>
      </trkpt>
      <trkpt lat="45.12583" lon="5.91019">
        <ele>2170.3999023438</ele>
        <time>2021-01-06T13:51:44.000Z</time>
      </trkpt>
      <trkpt lat="45.12585" lon="5.91012">
        <ele>2170</ele>
        <time>2021-01-06T13:51:51.000Z</time>
      </trkpt>
      <trkpt lat="45.12586" lon="5.91002">
        <ele>2170</ele>
        <time>2021-01-06T13:51:58.000Z</time>
      </trkpt>
      <trkpt lat="45.12587" lon="5.90994">
        <ele>2170</ele>
        <time>2021-01-06T13:52:04.000Z</time>
      </trkpt>
      <trkpt lat="45.12589" lon="5.90986">
        <ele>2170.6000976562</ele>
        <time>2021-01-06T13:52:11.000Z</time>
      </trkpt>
      <trkpt lat="45.12591" lon="5.90978">
        <ele>2171.1999511719</ele>
        <time>2021-01-06T13:52:17.000Z</time>
      </trkpt>
      <trkpt lat="45.12591" lon="5.90975">
        <ele>2171.1999511719</ele>
        <time>2021-01-06T13:52:19.000Z</time>
      </trkpt>
      <trkpt lat="45.12592" lon="5.90964">
        <ele>2171.6000976562</ele>
        <time>2021-01-06T13:52:27.000Z</time>
      </trkpt>
      <trkpt lat="45.12593" lon="5.90962">
        <ele>2171.6000976562</ele>
        <time>2021-01-06T13:52:33.000Z</time>
      </trkpt>
      <trkpt lat="45.12594" lon="5.90954">
        <ele>2171.6000976562</ele>
        <time>2021-01-06T13:52:39.000Z</time>
      </trkpt>
      <trkpt lat="45.12593" lon="5.90946">
        <ele>2171.8000488281</ele>
        <time>2021-01-06T13:52:45.000Z</time>
      </trkpt>
      <trkpt lat="45.12593" lon="5.90941">
        <ele>2172</ele>
        <time>2021-01-06T13:52:51.000Z</time>
      </trkpt>
      <trkpt lat="45.12593" lon="5.9094">
        <ele>2172.1999511719</ele>
        <time>2021-01-06T13:52:53.000Z</time>
      </trkpt>
      <trkpt lat="45.12594" lon="5.90938">
        <ele>2172.1999511719</ele>
        <time>2021-01-06T13:52:57.000Z</time>
      </trkpt>
      <trkpt lat="45.12593" lon="5.90934">
        <ele>2172.6000976562</ele>
        <time>2021-01-06T13:53:01.000Z</time>
      </trkpt>
      <trkpt lat="45.12594" lon="5.90934">
        <ele>2172.6000976562</ele>
        <time>2021-01-06T13:53:03.000Z</time>
      </trkpt>
      <trkpt lat="45.12593" lon="5.90932">
        <ele>2172.8000488281</ele>
        <time>2021-01-06T13:53:04.000Z</time>
      </trkpt>
      <trkpt lat="45.12593" lon="5.90927">
        <ele>2172.8000488281</ele>
        <time>2021-01-06T13:53:08.000Z</time>
      </trkpt>
      <trkpt lat="45.12593" lon="5.90924">
        <ele>2173.1999511719</ele>
        <time>2021-01-06T13:53:11.000Z</time>
      </trkpt>
      <trkpt lat="45.12593" lon="5.9092">
        <ele>2173.3999023438</ele>
        <time>2021-01-06T13:53:14.000Z</time>
      </trkpt>
      <trkpt lat="45.12593" lon="5.90917">
        <ele>2173.6000976562</ele>
        <time>2021-01-06T13:53:16.000Z</time>
      </trkpt>
      <trkpt lat="45.12593" lon="5.90915">
        <ele>2174</ele>
        <time>2021-01-06T13:53:18.000Z</time>
      </trkpt>
      <trkpt lat="45.12593" lon="5.90915">
        <ele>2174</ele>
        <time>2021-01-06T13:53:19.000Z</time>
      </trkpt>
      <trkpt lat="45.12593" lon="5.90912">
        <ele>2174.1999511719</ele>
        <time>2021-01-06T13:53:21.000Z</time>
      </trkpt>
      <trkpt lat="45.12593" lon="5.90908">
        <ele>2174.8000488281</ele>
        <time>2021-01-06T13:53:25.000Z</time>
      </trkpt>
      <trkpt lat="45.12593" lon="5.90903">
        <ele>2175.3999023438</ele>
        <time>2021-01-06T13:53:29.000Z</time>
      </trkpt>
      <trkpt lat="45.12593" lon="5.90903">
        <ele>2175.6000976562</ele>
        <time>2021-01-06T13:53:31.000Z</time>
      </trkpt>
      <trkpt lat="45.12592" lon="5.90895">
        <ele>2176.3999023438</ele>
        <time>2021-01-06T13:53:38.000Z</time>
      </trkpt>
      <trkpt lat="45.12593" lon="5.90894">
        <ele>2176.3999023438</ele>
        <time>2021-01-06T13:53:39.000Z</time>
      </trkpt>
      <trkpt lat="45.12592" lon="5.90888">
        <ele>2177.1999511719</ele>
        <time>2021-01-06T13:53:44.000Z</time>
      </trkpt>
      <trkpt lat="45.12592" lon="5.90886">
        <ele>2177.6000976562</ele>
        <time>2021-01-06T13:53:46.000Z</time>
      </trkpt>
      <trkpt lat="45.12591" lon="5.90882">
        <ele>2178.1999511719</ele>
        <time>2021-01-06T13:53:49.000Z</time>
      </trkpt>
      <trkpt lat="45.12591" lon="5.90882">
        <ele>2178.6000976562</ele>
        <time>2021-01-06T13:53:51.000Z</time>
      </trkpt>
      <trkpt lat="45.12591" lon="5.90882">
        <ele>2178.6000976562</ele>
        <time>2021-01-06T13:53:52.000Z</time>
      </trkpt>
      <trkpt lat="45.12591" lon="5.90879">
        <ele>2179</ele>
        <time>2021-01-06T13:53:56.000Z</time>
      </trkpt>
      <trkpt lat="45.12591" lon="5.90879">
        <ele>2179.6000976562</ele>
        <time>2021-01-06T13:54:02.000Z</time>
      </trkpt>
      <trkpt lat="45.12591" lon="5.90878">
        <ele>2179.8000488281</ele>
        <time>2021-01-06T13:54:05.000Z</time>
      </trkpt>
      <trkpt lat="45.12591" lon="5.9087">
        <ele>2180.1999511719</ele>
        <time>2021-01-06T13:54:11.000Z</time>
      </trkpt>
      <trkpt lat="45.12591" lon="5.90869">
        <ele>2180.3999023438</ele>
        <time>2021-01-06T13:54:12.000Z</time>
      </trkpt>
      <trkpt lat="45.1259" lon="5.90867">
        <ele>2180.6000976562</ele>
        <time>2021-01-06T13:54:14.000Z</time>
      </trkpt>
      <trkpt lat="45.1259" lon="5.90863">
        <ele>2181.3999023438</ele>
        <time>2021-01-06T13:54:18.000Z</time>
      </trkpt>
      <trkpt lat="45.1259" lon="5.90861">
        <ele>2181.8000488281</ele>
        <time>2021-01-06T13:54:20.000Z</time>
      </trkpt>
      <trkpt lat="45.1259" lon="5.90855">
        <ele>2182.8000488281</ele>
        <time>2021-01-06T13:54:26.000Z</time>
      </trkpt>
      <trkpt lat="45.1259" lon="5.90854">
        <ele>2183</ele>
        <time>2021-01-06T13:54:27.000Z</time>
      </trkpt>
      <trkpt lat="45.1259" lon="5.90846">
        <ele>2184.1999511719</ele>
        <time>2021-01-06T13:54:34.000Z</time>
      </trkpt>
      <trkpt lat="45.1259" lon="5.9084">
        <ele>2185.3999023438</ele>
        <time>2021-01-06T13:54:40.000Z</time>
      </trkpt>
      <trkpt lat="45.12589" lon="5.90839">
        <ele>2185.6000976562</ele>
        <time>2021-01-06T13:54:41.000Z</time>
      </trkpt>
      <trkpt lat="45.12589" lon="5.90835">
        <ele>2186.6000976562</ele>
        <time>2021-01-06T13:54:46.000Z</time>
      </trkpt>
      <trkpt lat="45.12589" lon="5.90834">
        <ele>2187</ele>
        <time>2021-01-06T13:54:48.000Z</time>
      </trkpt>
      <trkpt lat="45.12589" lon="5.90832">
        <ele>2187.6000976562</ele>
        <time>2021-01-06T13:54:53.000Z</time>
      </trkpt>
      <trkpt lat="45.12589" lon="5.90831">
        <ele>2187.8000488281</ele>
        <time>2021-01-06T13:54:54.000Z</time>
      </trkpt>
      <trkpt lat="45.12589" lon="5.90823">
        <ele>2188.8000488281</ele>
        <time>2021-01-06T13:55:02.000Z</time>
      </trkpt>
      <trkpt lat="45.1259" lon="5.90818">
        <ele>2189.8000488281</ele>
        <time>2021-01-06T13:55:08.000Z</time>
      </trkpt>
      <trkpt lat="45.12591" lon="5.90817">
        <ele>2190</ele>
        <time>2021-01-06T13:55:09.000Z</time>
      </trkpt>
      <trkpt lat="45.1259" lon="5.90812">
        <ele>2190.8000488281</ele>
        <time>2021-01-06T13:55:15.000Z</time>
      </trkpt>
      <trkpt lat="45.1259" lon="5.90811">
        <ele>2191</ele>
        <time>2021-01-06T13:55:16.000Z</time>
      </trkpt>
      <trkpt lat="45.1259" lon="5.90806">
        <ele>2192</ele>
        <time>2021-01-06T13:55:22.000Z</time>
      </trkpt>
      <trkpt lat="45.1259" lon="5.90806">
        <ele>2192.1999511719</ele>
        <time>2021-01-06T13:55:23.000Z</time>
      </trkpt>
      <trkpt lat="45.1259" lon="5.90801">
        <ele>2193</ele>
        <time>2021-01-06T13:55:29.000Z</time>
      </trkpt>
      <trkpt lat="45.1259" lon="5.90799">
        <ele>2193.3999023438</ele>
        <time>2021-01-06T13:55:31.000Z</time>
      </trkpt>
      <trkpt lat="45.1259" lon="5.90794">
        <ele>2194.1999511719</ele>
        <time>2021-01-06T13:55:36.000Z</time>
      </trkpt>
      <trkpt lat="45.12591" lon="5.90792">
        <ele>2194.6000976562</ele>
        <time>2021-01-06T13:55:38.000Z</time>
      </trkpt>
      <trkpt lat="45.12591" lon="5.90789">
        <ele>2195.1999511719</ele>
        <time>2021-01-06T13:55:42.000Z</time>
      </trkpt>
      <trkpt lat="45.12591" lon="5.90786">
        <ele>2195.8000488281</ele>
        <time>2021-01-06T13:55:45.000Z</time>
      </trkpt>
      <trkpt lat="45.12591" lon="5.90784">
        <ele>2196.3999023438</ele>
        <time>2021-01-06T13:55:47.000Z</time>
      </trkpt>
      <trkpt lat="45.12592" lon="5.90779">
        <ele>2197.3999023438</ele>
        <time>2021-01-06T13:55:54.000Z</time>
      </trkpt>
      <trkpt lat="45.12592" lon="5.90776">
        <ele>2198.3999023438</ele>
        <time>2021-01-06T13:55:59.000Z</time>
      </trkpt>
      <trkpt lat="45.12592" lon="5.90775">
        <ele>2198.6000976562</ele>
        <time>2021-01-06T13:56:00.000Z</time>
      </trkpt>
      <trkpt lat="45.12592" lon="5.9077">
        <ele>2199.6000976562</ele>
        <time>2021-01-06T13:56:06.000Z</time>
      </trkpt>
      <trkpt lat="45.12592" lon="5.90769">
        <ele>2199.8000488281</ele>
        <time>2021-01-06T13:56:07.000Z</time>
      </trkpt>
      <trkpt lat="45.12592" lon="5.90764">
        <ele>2200.6000976562</ele>
        <time>2021-01-06T13:56:13.000Z</time>
      </trkpt>
      <trkpt lat="45.12593" lon="5.90764">
        <ele>2200.8000488281</ele>
        <time>2021-01-06T13:56:14.000Z</time>
      </trkpt>
      <trkpt lat="45.12594" lon="5.90759">
        <ele>2201.8000488281</ele>
        <time>2021-01-06T13:56:20.000Z</time>
      </trkpt>
      <trkpt lat="45.12594" lon="5.90758">
        <ele>2202</ele>
        <time>2021-01-06T13:56:21.000Z</time>
      </trkpt>
      <trkpt lat="45.12593" lon="5.90753">
        <ele>2203</ele>
        <time>2021-01-06T13:56:27.000Z</time>
      </trkpt>
      <trkpt lat="45.12593" lon="5.90752">
        <ele>2203</ele>
        <time>2021-01-06T13:56:28.000Z</time>
      </trkpt>
      <trkpt lat="45.12593" lon="5.90748">
        <ele>2204</ele>
        <time>2021-01-06T13:56:33.000Z</time>
      </trkpt>
      <trkpt lat="45.12593" lon="5.90746">
        <ele>2204.3999023438</ele>
        <time>2021-01-06T13:56:35.000Z</time>
      </trkpt>
      <trkpt lat="45.12592" lon="5.90743">
        <ele>2205.1999511719</ele>
        <time>2021-01-06T13:56:38.000Z</time>
      </trkpt>
      <trkpt lat="45.12592" lon="5.90741">
        <ele>2205.8000488281</ele>
        <time>2021-01-06T13:56:42.000Z</time>
      </trkpt>
      <trkpt lat="45.12591" lon="5.90739">
        <ele>2206.1999511719</ele>
        <time>2021-01-06T13:56:44.000Z</time>
      </trkpt>
      <trkpt lat="45.12593" lon="5.90735">
        <ele>2207.1999511719</ele>
        <time>2021-01-06T13:56:49.000Z</time>
      </trkpt>
      <trkpt lat="45.12593" lon="5.90734">
        <ele>2207.3999023438</ele>
        <time>2021-01-06T13:56:50.000Z</time>
      </trkpt>
      <trkpt lat="45.12592" lon="5.9073">
        <ele>2207.8000488281</ele>
        <time>2021-01-06T13:56:55.000Z</time>
      </trkpt>
      <trkpt lat="45.12592" lon="5.90728">
        <ele>2208.3999023438</ele>
        <time>2021-01-06T13:56:58.000Z</time>
      </trkpt>
      <trkpt lat="45.12591" lon="5.90726">
        <ele>2209</ele>
        <time>2021-01-06T13:57:01.000Z</time>
      </trkpt>
      <trkpt lat="45.1259" lon="5.90725">
        <ele>2209.3999023438</ele>
        <time>2021-01-06T13:57:03.000Z</time>
      </trkpt>
      <trkpt lat="45.12588" lon="5.90722">
        <ele>2210.3999023438</ele>
        <time>2021-01-06T13:57:07.000Z</time>
      </trkpt>
      <trkpt lat="45.12588" lon="5.90722">
        <ele>2210.6000976562</ele>
        <time>2021-01-06T13:57:08.000Z</time>
      </trkpt>
      <trkpt lat="45.12589" lon="5.90717">
        <ele>2211.8000488281</ele>
        <time>2021-01-06T13:57:14.000Z</time>
      </trkpt>
      <trkpt lat="45.12589" lon="5.90712">
        <ele>2212.6000976562</ele>
        <time>2021-01-06T13:57:20.000Z</time>
      </trkpt>
      <trkpt lat="45.12588" lon="5.90711">
        <ele>2212.8000488281</ele>
        <time>2021-01-06T13:57:21.000Z</time>
      </trkpt>
      <trkpt lat="45.12586" lon="5.90707">
        <ele>2213.8000488281</ele>
        <time>2021-01-06T13:57:26.000Z</time>
      </trkpt>
      <trkpt lat="45.12586" lon="5.90706">
        <ele>2214</ele>
        <time>2021-01-06T13:57:27.000Z</time>
      </trkpt>
      <trkpt lat="45.12585" lon="5.90701">
        <ele>2215.1999511719</ele>
        <time>2021-01-06T13:57:32.000Z</time>
      </trkpt>
      <trkpt lat="45.12584" lon="5.90695">
        <ele>2216.3999023438</ele>
        <time>2021-01-06T13:57:37.000Z</time>
      </trkpt>
      <trkpt lat="45.12583" lon="5.90693">
        <ele>2217</ele>
        <time>2021-01-06T13:57:39.000Z</time>
      </trkpt>
      <trkpt lat="45.12582" lon="5.90691">
        <ele>2217.3999023438</ele>
        <time>2021-01-06T13:57:41.000Z</time>
      </trkpt>
      <trkpt lat="45.12581" lon="5.90686">
        <ele>2218.3999023438</ele>
        <time>2021-01-06T13:57:45.000Z</time>
      </trkpt>
      <trkpt lat="45.12581" lon="5.90684">
        <ele>2219</ele>
        <time>2021-01-06T13:57:46.000Z</time>
      </trkpt>
      <trkpt lat="45.1258" lon="5.90682">
        <ele>2219.3999023438</ele>
        <time>2021-01-06T13:57:48.000Z</time>
      </trkpt>
      <trkpt lat="45.1258" lon="5.90681">
        <ele>2219.8000488281</ele>
        <time>2021-01-06T13:57:49.000Z</time>
      </trkpt>
      <trkpt lat="45.12579" lon="5.90677">
        <ele>2220.8000488281</ele>
        <time>2021-01-06T13:57:53.000Z</time>
      </trkpt>
      <trkpt lat="45.12577" lon="5.90672">
        <ele>2222</ele>
        <time>2021-01-06T13:57:58.000Z</time>
      </trkpt>
      <trkpt lat="45.12577" lon="5.90669">
        <ele>2222.8000488281</ele>
        <time>2021-01-06T13:58:01.000Z</time>
      </trkpt>
      <trkpt lat="45.12576" lon="5.90667">
        <ele>2223.3999023438</ele>
        <time>2021-01-06T13:58:03.000Z</time>
      </trkpt>
      <trkpt lat="45.12574" lon="5.90661">
        <ele>2224.3999023438</ele>
        <time>2021-01-06T13:58:08.000Z</time>
      </trkpt>
      <trkpt lat="45.12574" lon="5.9066">
        <ele>2224.6000976562</ele>
        <time>2021-01-06T13:58:09.000Z</time>
      </trkpt>
      <trkpt lat="45.12573" lon="5.90656">
        <ele>2225.6000976562</ele>
        <time>2021-01-06T13:58:12.000Z</time>
      </trkpt>
      <trkpt lat="45.12571" lon="5.90651">
        <ele>2226.6000976562</ele>
        <time>2021-01-06T13:58:17.000Z</time>
      </trkpt>
      <trkpt lat="45.12569" lon="5.90644">
        <ele>2227.8000488281</ele>
        <time>2021-01-06T13:58:23.000Z</time>
      </trkpt>
      <trkpt lat="45.12569" lon="5.90643">
        <ele>2228.1999511719</ele>
        <time>2021-01-06T13:58:24.000Z</time>
      </trkpt>
      <trkpt lat="45.12567" lon="5.90639">
        <ele>2229</ele>
        <time>2021-01-06T13:58:28.000Z</time>
      </trkpt>
      <trkpt lat="45.12566" lon="5.90635">
        <ele>2230</ele>
        <time>2021-01-06T13:58:32.000Z</time>
      </trkpt>
      <trkpt lat="45.12566" lon="5.90634">
        <ele>2230.1999511719</ele>
        <time>2021-01-06T13:58:33.000Z</time>
      </trkpt>
      <trkpt lat="45.12564" lon="5.9063">
        <ele>2231.3999023438</ele>
        <time>2021-01-06T13:58:37.000Z</time>
      </trkpt>
      <trkpt lat="45.12563" lon="5.90627">
        <ele>2231.8000488281</ele>
        <time>2021-01-06T13:58:39.000Z</time>
      </trkpt>
      <trkpt lat="45.12561" lon="5.90624">
        <ele>2232.3999023438</ele>
        <time>2021-01-06T13:58:42.000Z</time>
      </trkpt>
      <trkpt lat="45.12561" lon="5.90619">
        <ele>2233.1999511719</ele>
        <time>2021-01-06T13:58:46.000Z</time>
      </trkpt>
      <trkpt lat="45.1256" lon="5.90618">
        <ele>2233.6000976562</ele>
        <time>2021-01-06T13:58:47.000Z</time>
      </trkpt>
      <trkpt lat="45.12556" lon="5.90612">
        <ele>2234.6000976562</ele>
        <time>2021-01-06T13:58:53.000Z</time>
      </trkpt>
      <trkpt lat="45.12555" lon="5.90605">
        <ele>2235.6000976562</ele>
        <time>2021-01-06T13:58:58.000Z</time>
      </trkpt>
      <trkpt lat="45.12554" lon="5.90602">
        <ele>2236.1999511719</ele>
        <time>2021-01-06T13:59:00.000Z</time>
      </trkpt>
      <trkpt lat="45.12553" lon="5.90598">
        <ele>2236.8000488281</ele>
        <time>2021-01-06T13:59:03.000Z</time>
      </trkpt>
      <trkpt lat="45.12552" lon="5.90592">
        <ele>2237.8000488281</ele>
        <time>2021-01-06T13:59:08.000Z</time>
      </trkpt>
      <trkpt lat="45.1255" lon="5.90585">
        <ele>2239</ele>
        <time>2021-01-06T13:59:14.000Z</time>
      </trkpt>
      <trkpt lat="45.12548" lon="5.9058">
        <ele>2239.8000488281</ele>
        <time>2021-01-06T13:59:17.000Z</time>
      </trkpt>
      <trkpt lat="45.12548" lon="5.90578">
        <ele>2240.1999511719</ele>
        <time>2021-01-06T13:59:19.000Z</time>
      </trkpt>
      <trkpt lat="45.12547" lon="5.9057">
        <ele>2241.1999511719</ele>
        <time>2021-01-06T13:59:24.000Z</time>
      </trkpt>
      <trkpt lat="45.12546" lon="5.90558">
        <ele>2242.3999023438</ele>
        <time>2021-01-06T13:59:31.000Z</time>
      </trkpt>
      <trkpt lat="45.12545" lon="5.90546">
        <ele>2243.1999511719</ele>
        <time>2021-01-06T13:59:39.000Z</time>
      </trkpt>
      <trkpt lat="45.12545" lon="5.90542">
        <ele>2243.3999023438</ele>
        <time>2021-01-06T13:59:41.000Z</time>
      </trkpt>
      <trkpt lat="45.12546" lon="5.90532">
        <ele>2244</ele>
        <time>2021-01-06T13:59:47.000Z</time>
      </trkpt>
      <trkpt lat="45.12546" lon="5.90519">
        <ele>2244.1999511719</ele>
        <time>2021-01-06T13:59:55.000Z</time>
      </trkpt>
      <trkpt lat="45.12546" lon="5.90518">
        <ele>2244</ele>
        <time>2021-01-06T14:00:01.000Z</time>
      </trkpt>
      <trkpt lat="45.12546" lon="5.90518">
        <ele>2243.8000488281</ele>
        <time>2021-01-06T14:00:09.000Z</time>
      </trkpt>
      <trkpt lat="45.12546" lon="5.90518">
        <ele>2244</ele>
        <time>2021-01-06T14:00:19.000Z</time>
      </trkpt>
      <trkpt lat="45.12546" lon="5.90518">
        <ele>2243.8000488281</ele>
        <time>2021-01-06T14:00:31.000Z</time>
      </trkpt>
      <trkpt lat="45.12547" lon="5.90518">
        <ele>2243.8000488281</ele>
        <time>2021-01-06T14:00:32.000Z</time>
      </trkpt>
      <trkpt lat="45.12547" lon="5.90518">
        <ele>2243.3999023438</ele>
        <time>2021-01-06T14:00:36.000Z</time>
      </trkpt>
      <trkpt lat="45.12547" lon="5.90518">
        <ele>2242.6000976562</ele>
        <time>2021-01-06T14:00:57.000Z</time>
      </trkpt>
      <trkpt lat="45.12547" lon="5.90518">
        <ele>2242.6000976562</ele>
        <time>2021-01-06T14:01:11.000Z</time>
      </trkpt>
      <trkpt lat="45.12547" lon="5.90517">
        <ele>2242.6000976562</ele>
        <time>2021-01-06T14:01:29.000Z</time>
      </trkpt>
      <trkpt lat="45.12547" lon="5.90517">
        <ele>2242.6000976562</ele>
        <time>2021-01-06T14:01:43.000Z</time>
      </trkpt>
      <trkpt lat="45.12547" lon="5.90518">
        <ele>2242.6000976562</ele>
        <time>2021-01-06T14:02:00.000Z</time>
      </trkpt>
      <trkpt lat="45.12547" lon="5.90518">
        <ele>2242.6000976562</ele>
        <time>2021-01-06T14:02:18.000Z</time>
      </trkpt>
      <trkpt lat="45.12547" lon="5.90518">
        <ele>2242.6000976562</ele>
        <time>2021-01-06T14:02:34.000Z</time>
      </trkpt>
      <trkpt lat="45.12547" lon="5.90518">
        <ele>2242.6000976562</ele>
        <time>2021-01-06T14:02:45.000Z</time>
      </trkpt>
      <trkpt lat="45.12546" lon="5.90518">
        <ele>2242.6000976562</ele>
        <time>2021-01-06T14:03:01.000Z</time>
      </trkpt>
      <trkpt lat="45.12546" lon="5.90517">
        <ele>2242.8000488281</ele>
        <time>2021-01-06T14:03:05.000Z</time>
      </trkpt>
      <trkpt lat="45.12546" lon="5.90517">
        <ele>2243.6000976562</ele>
        <time>2021-01-06T14:03:11.000Z</time>
      </trkpt>
      <trkpt lat="45.12546" lon="5.90517">
        <ele>2243.8000488281</ele>
        <time>2021-01-06T14:03:22.000Z</time>
      </trkpt>
      <trkpt lat="45.12546" lon="5.90517">
        <ele>2243.8000488281</ele>
        <time>2021-01-06T14:03:30.000Z</time>
      </trkpt>
      <trkpt lat="45.12546" lon="5.90517">
        <ele>2243.8000488281</ele>
        <time>2021-01-06T14:03:37.000Z</time>
      </trkpt>
      <trkpt lat="45.12546" lon="5.90517">
        <ele>2243.6000976562</ele>
        <time>2021-01-06T14:03:45.000Z</time>
      </trkpt>
      <trkpt lat="45.12546" lon="5.90517">
        <ele>2243.3999023438</ele>
        <time>2021-01-06T14:03:50.000Z</time>
      </trkpt>
      <trkpt lat="45.12546" lon="5.90517">
        <ele>2243.3999023438</ele>
        <time>2021-01-06T14:03:53.000Z</time>
      </trkpt>
      <trkpt lat="45.12546" lon="5.90517">
        <ele>2243.3999023438</ele>
        <time>2021-01-06T14:04:04.000Z</time>
      </trkpt>
      <trkpt lat="45.12546" lon="5.90517">
        <ele>2243.6000976562</ele>
        <time>2021-01-06T14:04:13.000Z</time>
      </trkpt>
      <trkpt lat="45.12546" lon="5.90517">
        <ele>2243.8000488281</ele>
        <time>2021-01-06T14:04:23.000Z</time>
      </trkpt>
      <trkpt lat="45.12546" lon="5.90517">
        <ele>2243.8000488281</ele>
        <time>2021-01-06T14:04:30.000Z</time>
      </trkpt>
      <trkpt lat="45.12546" lon="5.90517">
        <ele>2243.6000976562</ele>
        <time>2021-01-06T14:04:40.000Z</time>
      </trkpt>
      <trkpt lat="45.12546" lon="5.90517">
        <ele>2243.8000488281</ele>
        <time>2021-01-06T14:04:46.000Z</time>
      </trkpt>
      <trkpt lat="45.12546" lon="5.90517">
        <ele>2243.8000488281</ele>
        <time>2021-01-06T14:04:57.000Z</time>
      </trkpt>
      <trkpt lat="45.12546" lon="5.90517">
        <ele>2243.6000976562</ele>
        <time>2021-01-06T14:05:03.000Z</time>
      </trkpt>
      <trkpt lat="45.12546" lon="5.90517">
        <ele>2243.6000976562</ele>
        <time>2021-01-06T14:05:17.000Z</time>
      </trkpt>
      <trkpt lat="45.12546" lon="5.90517">
        <ele>2243.6000976562</ele>
        <time>2021-01-06T14:05:31.000Z</time>
      </trkpt>
      <trkpt lat="45.12546" lon="5.90515">
        <ele>2243.6000976562</ele>
        <time>2021-01-06T14:05:37.000Z</time>
      </trkpt>
      <trkpt lat="45.12547" lon="5.90515">
        <ele>2243.6000976562</ele>
        <time>2021-01-06T14:05:46.000Z</time>
      </trkpt>
      <trkpt lat="45.12547" lon="5.90513">
        <ele>2243.8000488281</ele>
        <time>2021-01-06T14:05:55.000Z</time>
      </trkpt>
      <trkpt lat="45.12549" lon="5.90504">
        <ele>2243.6000976562</ele>
        <time>2021-01-06T14:05:59.000Z</time>
      </trkpt>
      <trkpt lat="45.12549" lon="5.90482">
        <ele>2243.3999023438</ele>
        <time>2021-01-06T14:06:07.000Z</time>
      </trkpt>
      <trkpt lat="45.12546" lon="5.90456">
        <ele>2242.3999023438</ele>
        <time>2021-01-06T14:06:16.000Z</time>
      </trkpt>
      <trkpt lat="45.12546" lon="5.90454">
        <ele>2242.1999511719</ele>
        <time>2021-01-06T14:06:17.000Z</time>
      </trkpt>
      <trkpt lat="45.12545" lon="5.90438">
        <ele>2241.6000976562</ele>
        <time>2021-01-06T14:06:23.000Z</time>
      </trkpt>
      <trkpt lat="45.12544" lon="5.90426">
        <ele>2241.1999511719</ele>
        <time>2021-01-06T14:06:29.000Z</time>
      </trkpt>
      <trkpt lat="45.12544" lon="5.90424">
        <ele>2241.1999511719</ele>
        <time>2021-01-06T14:06:30.000Z</time>
      </trkpt>
      <trkpt lat="45.12544" lon="5.90411">
        <ele>2241</ele>
        <time>2021-01-06T14:06:38.000Z</time>
      </trkpt>
      <trkpt lat="45.12543" lon="5.90405">
        <ele>2240.8000488281</ele>
        <time>2021-01-06T14:06:43.000Z</time>
      </trkpt>
      <trkpt lat="45.12543" lon="5.904">
        <ele>2240.8000488281</ele>
        <time>2021-01-06T14:06:45.000Z</time>
      </trkpt>
      <trkpt lat="45.12541" lon="5.90384">
        <ele>2240.3999023438</ele>
        <time>2021-01-06T14:06:51.000Z</time>
      </trkpt>
      <trkpt lat="45.12539" lon="5.90372">
        <ele>2240.1999511719</ele>
        <time>2021-01-06T14:06:55.000Z</time>
      </trkpt>
      <trkpt lat="45.12536" lon="5.90361">
        <ele>2239.6000976562</ele>
        <time>2021-01-06T14:06:59.000Z</time>
      </trkpt>
      <trkpt lat="45.12534" lon="5.90353">
        <ele>2239</ele>
        <time>2021-01-06T14:07:02.000Z</time>
      </trkpt>
      <trkpt lat="45.12529" lon="5.90335">
        <ele>2238.3999023438</ele>
        <time>2021-01-06T14:07:07.000Z</time>
      </trkpt>
      <trkpt lat="45.12525" lon="5.90317">
        <ele>2238</ele>
        <time>2021-01-06T14:07:10.000Z</time>
      </trkpt>
      <trkpt lat="45.12521" lon="5.90303">
        <ele>2237.3999023438</ele>
        <time>2021-01-06T14:07:12.000Z</time>
      </trkpt>
      <trkpt lat="45.12517" lon="5.9029">
        <ele>2236.6000976562</ele>
        <time>2021-01-06T14:07:14.000Z</time>
      </trkpt>
      <trkpt lat="45.12512" lon="5.90274">
        <ele>2235.3999023438</ele>
        <time>2021-01-06T14:07:17.000Z</time>
      </trkpt>
      <trkpt lat="45.12512" lon="5.90269">
        <ele>2235</ele>
        <time>2021-01-06T14:07:18.000Z</time>
      </trkpt>
      <trkpt lat="45.12512" lon="5.90261">
        <ele>2234.1999511719</ele>
        <time>2021-01-06T14:07:20.000Z</time>
      </trkpt>
      <trkpt lat="45.12511" lon="5.90255">
        <ele>2233.6000976562</ele>
        <time>2021-01-06T14:07:22.000Z</time>
      </trkpt>
      <trkpt lat="45.12509" lon="5.90244">
        <ele>2233</ele>
        <time>2021-01-06T14:07:24.000Z</time>
      </trkpt>
      <trkpt lat="45.12509" lon="5.90234">
        <ele>2232.6000976562</ele>
        <time>2021-01-06T14:07:26.000Z</time>
      </trkpt>
      <trkpt lat="45.12513" lon="5.90223">
        <ele>2231.3999023438</ele>
        <time>2021-01-06T14:07:29.000Z</time>
      </trkpt>
      <trkpt lat="45.12515" lon="5.90218">
        <ele>2230.6000976562</ele>
        <time>2021-01-06T14:07:31.000Z</time>
      </trkpt>
      <trkpt lat="45.12516" lon="5.90214">
        <ele>2230</ele>
        <time>2021-01-06T14:07:32.000Z</time>
      </trkpt>
      <trkpt lat="45.12522" lon="5.90202">
        <ele>2229</ele>
        <time>2021-01-06T14:07:35.000Z</time>
      </trkpt>
      <trkpt lat="45.12524" lon="5.90197">
        <ele>2228.6000976562</ele>
        <time>2021-01-06T14:07:36.000Z</time>
      </trkpt>
      <trkpt lat="45.12532" lon="5.90183">
        <ele>2227.8000488281</ele>
        <time>2021-01-06T14:07:39.000Z</time>
      </trkpt>
      <trkpt lat="45.12535" lon="5.90175">
        <ele>2226.8000488281</ele>
        <time>2021-01-06T14:07:41.000Z</time>
      </trkpt>
      <trkpt lat="45.12537" lon="5.90172">
        <ele>2226.3999023438</ele>
        <time>2021-01-06T14:07:42.000Z</time>
      </trkpt>
      <trkpt lat="45.12538" lon="5.90172">
        <ele>2225.8000488281</ele>
        <time>2021-01-06T14:07:43.000Z</time>
      </trkpt>
      <trkpt lat="45.12539" lon="5.90171">
        <ele>2225.3999023438</ele>
        <time>2021-01-06T14:07:44.000Z</time>
      </trkpt>
      <trkpt lat="45.1254" lon="5.90167">
        <ele>2225</ele>
        <time>2021-01-06T14:07:45.000Z</time>
      </trkpt>
      <trkpt lat="45.12543" lon="5.90163">
        <ele>2224.1999511719</ele>
        <time>2021-01-06T14:07:47.000Z</time>
      </trkpt>
      <trkpt lat="45.12545" lon="5.90159">
        <ele>2223.3999023438</ele>
        <time>2021-01-06T14:07:48.000Z</time>
      </trkpt>
      <trkpt lat="45.12545" lon="5.90151">
        <ele>2222.8000488281</ele>
        <time>2021-01-06T14:07:50.000Z</time>
      </trkpt>
      <trkpt lat="45.12541" lon="5.90148">
        <ele>2222.6000976562</ele>
        <time>2021-01-06T14:07:51.000Z</time>
      </trkpt>
      <trkpt lat="45.12537" lon="5.90145">
        <ele>2222</ele>
        <time>2021-01-06T14:07:52.000Z</time>
      </trkpt>
      <trkpt lat="45.12538" lon="5.90139">
        <ele>2221.3999023438</ele>
        <time>2021-01-06T14:07:53.000Z</time>
      </trkpt>
      <trkpt lat="45.12537" lon="5.90133">
        <ele>2220.6000976562</ele>
        <time>2021-01-06T14:07:54.000Z</time>
      </trkpt>
      <trkpt lat="45.12536" lon="5.90121">
        <ele>2218.8000488281</ele>
        <time>2021-01-06T14:07:56.000Z</time>
      </trkpt>
      <trkpt lat="45.12532" lon="5.90107">
        <ele>2216.8000488281</ele>
        <time>2021-01-06T14:07:58.000Z</time>
      </trkpt>
      <trkpt lat="45.12535" lon="5.90102">
        <ele>2215.6000976562</ele>
        <time>2021-01-06T14:07:59.000Z</time>
      </trkpt>
      <trkpt lat="45.12534" lon="5.90095">
        <ele>2214.3999023438</ele>
        <time>2021-01-06T14:08:00.000Z</time>
      </trkpt>
      <trkpt lat="45.12533" lon="5.90087">
        <ele>2213.1999511719</ele>
        <time>2021-01-06T14:08:01.000Z</time>
      </trkpt>
      <trkpt lat="45.12535" lon="5.9008">
        <ele>2212</ele>
        <time>2021-01-06T14:08:02.000Z</time>
      </trkpt>
      <trkpt lat="45.12533" lon="5.90073">
        <ele>2210.6000976562</ele>
        <time>2021-01-06T14:08:03.000Z</time>
      </trkpt>
      <trkpt lat="45.12536" lon="5.90066">
        <ele>2209</ele>
        <time>2021-01-06T14:08:04.000Z</time>
      </trkpt>
      <trkpt lat="45.12535" lon="5.90059">
        <ele>2207.6000976562</ele>
        <time>2021-01-06T14:08:05.000Z</time>
      </trkpt>
      <trkpt lat="45.12531" lon="5.90054">
        <ele>2205.8000488281</ele>
        <time>2021-01-06T14:08:06.000Z</time>
      </trkpt>
      <trkpt lat="45.12531" lon="5.90046">
        <ele>2204.1999511719</ele>
        <time>2021-01-06T14:08:07.000Z</time>
      </trkpt>
      <trkpt lat="45.12535" lon="5.90041">
        <ele>2202.1999511719</ele>
        <time>2021-01-06T14:08:08.000Z</time>
      </trkpt>
      <trkpt lat="45.12533" lon="5.90034">
        <ele>2200.3999023438</ele>
        <time>2021-01-06T14:08:09.000Z</time>
      </trkpt>
      <trkpt lat="45.12529" lon="5.9003">
        <ele>2198.6000976562</ele>
        <time>2021-01-06T14:08:10.000Z</time>
      </trkpt>
      <trkpt lat="45.12531" lon="5.90025">
        <ele>2196.8000488281</ele>
        <time>2021-01-06T14:08:11.000Z</time>
      </trkpt>
      <trkpt lat="45.12532" lon="5.90019">
        <ele>2193.3999023438</ele>
        <time>2021-01-06T14:08:12.000Z</time>
      </trkpt>
      <trkpt lat="45.12529" lon="5.90015">
        <ele>2191.6000976562</ele>
        <time>2021-01-06T14:08:13.000Z</time>
      </trkpt>
      <trkpt lat="45.12529" lon="5.90006">
        <ele>2189.8000488281</ele>
        <time>2021-01-06T14:08:14.000Z</time>
      </trkpt>
      <trkpt lat="45.1253" lon="5.89997">
        <ele>2188.1999511719</ele>
        <time>2021-01-06T14:08:15.000Z</time>
      </trkpt>
      <trkpt lat="45.12526" lon="5.89991">
        <ele>2186.3999023438</ele>
        <time>2021-01-06T14:08:16.000Z</time>
      </trkpt>
      <trkpt lat="45.12526" lon="5.89983">
        <ele>2184.6000976562</ele>
        <time>2021-01-06T14:08:17.000Z</time>
      </trkpt>
      <trkpt lat="45.12527" lon="5.89975">
        <ele>2182.8000488281</ele>
        <time>2021-01-06T14:08:18.000Z</time>
      </trkpt>
      <trkpt lat="45.12524" lon="5.8997">
        <ele>2180.8000488281</ele>
        <time>2021-01-06T14:08:19.000Z</time>
      </trkpt>
      <trkpt lat="45.12522" lon="5.89963">
        <ele>2179</ele>
        <time>2021-01-06T14:08:20.000Z</time>
      </trkpt>
      <trkpt lat="45.12526" lon="5.89958">
        <ele>2177.1999511719</ele>
        <time>2021-01-06T14:08:21.000Z</time>
      </trkpt>
      <trkpt lat="45.12527" lon="5.89951">
        <ele>2175.6000976562</ele>
        <time>2021-01-06T14:08:22.000Z</time>
      </trkpt>
      <trkpt lat="45.12524" lon="5.89945">
        <ele>2173.8000488281</ele>
        <time>2021-01-06T14:08:23.000Z</time>
      </trkpt>
      <trkpt lat="45.12525" lon="5.89936">
        <ele>2172</ele>
        <time>2021-01-06T14:08:24.000Z</time>
      </trkpt>
      <trkpt lat="45.12522" lon="5.89928">
        <ele>2170.3999023438</ele>
        <time>2021-01-06T14:08:25.000Z</time>
      </trkpt>
      <trkpt lat="45.12517" lon="5.89925">
        <ele>2168.8000488281</ele>
        <time>2021-01-06T14:08:26.000Z</time>
      </trkpt>
      <trkpt lat="45.12516" lon="5.89917">
        <ele>2167.1999511719</ele>
        <time>2021-01-06T14:08:27.000Z</time>
      </trkpt>
      <trkpt lat="45.12514" lon="5.8991">
        <ele>2165.6000976562</ele>
        <time>2021-01-06T14:08:28.000Z</time>
      </trkpt>
      <trkpt lat="45.12509" lon="5.89906">
        <ele>2164</ele>
        <time>2021-01-06T14:08:29.000Z</time>
      </trkpt>
      <trkpt lat="45.12504" lon="5.89903">
        <ele>2162.1999511719</ele>
        <time>2021-01-06T14:08:30.000Z</time>
      </trkpt>
      <trkpt lat="45.12505" lon="5.89895">
        <ele>2160.3999023438</ele>
        <time>2021-01-06T14:08:31.000Z</time>
      </trkpt>
      <trkpt lat="45.12509" lon="5.89892">
        <ele>2158.6000976562</ele>
        <time>2021-01-06T14:08:32.000Z</time>
      </trkpt>
      <trkpt lat="45.12509" lon="5.89887">
        <ele>2157</ele>
        <time>2021-01-06T14:08:33.000Z</time>
      </trkpt>
      <trkpt lat="45.12508" lon="5.8988">
        <ele>2155.1999511719</ele>
        <time>2021-01-06T14:08:34.000Z</time>
      </trkpt>
      <trkpt lat="45.1251" lon="5.89872">
        <ele>2153.3999023438</ele>
        <time>2021-01-06T14:08:35.000Z</time>
      </trkpt>
      <trkpt lat="45.12506" lon="5.89865">
        <ele>2150</ele>
        <time>2021-01-06T14:08:36.000Z</time>
      </trkpt>
      <trkpt lat="45.12502" lon="5.89865">
        <ele>2148.3999023438</ele>
        <time>2021-01-06T14:08:37.000Z</time>
      </trkpt>
      <trkpt lat="45.12499" lon="5.89865">
        <ele>2146.8000488281</ele>
        <time>2021-01-06T14:08:38.000Z</time>
      </trkpt>
      <trkpt lat="45.12495" lon="5.89864">
        <ele>2145</ele>
        <time>2021-01-06T14:08:39.000Z</time>
      </trkpt>
      <trkpt lat="45.12494" lon="5.89858">
        <ele>2143</ele>
        <time>2021-01-06T14:08:40.000Z</time>
      </trkpt>
      <trkpt lat="45.12492" lon="5.89851">
        <ele>2141.1999511719</ele>
        <time>2021-01-06T14:08:41.000Z</time>
      </trkpt>
      <trkpt lat="45.12487" lon="5.89851">
        <ele>2139.6000976562</ele>
        <time>2021-01-06T14:08:42.000Z</time>
      </trkpt>
      <trkpt lat="45.12483" lon="5.89849">
        <ele>2138.1999511719</ele>
        <time>2021-01-06T14:08:43.000Z</time>
      </trkpt>
      <trkpt lat="45.1248" lon="5.89842">
        <ele>2137</ele>
        <time>2021-01-06T14:08:44.000Z</time>
      </trkpt>
      <trkpt lat="45.1248" lon="5.89833">
        <ele>2135.6000976562</ele>
        <time>2021-01-06T14:08:45.000Z</time>
      </trkpt>
      <trkpt lat="45.12475" lon="5.89829">
        <ele>2134.1999511719</ele>
        <time>2021-01-06T14:08:46.000Z</time>
      </trkpt>
      <trkpt lat="45.12471" lon="5.89828">
        <ele>2132.6000976562</ele>
        <time>2021-01-06T14:08:47.000Z</time>
      </trkpt>
      <trkpt lat="45.12467" lon="5.89826">
        <ele>2131</ele>
        <time>2021-01-06T14:08:48.000Z</time>
      </trkpt>
      <trkpt lat="45.12464" lon="5.89827">
        <ele>2129.1999511719</ele>
        <time>2021-01-06T14:08:49.000Z</time>
      </trkpt>
      <trkpt lat="45.12462" lon="5.89826">
        <ele>2127.1999511719</ele>
        <time>2021-01-06T14:08:50.000Z</time>
      </trkpt>
      <trkpt lat="45.1246" lon="5.89821">
        <ele>2125.3999023438</ele>
        <time>2021-01-06T14:08:51.000Z</time>
      </trkpt>
      <trkpt lat="45.12462" lon="5.89816">
        <ele>2123.6000976562</ele>
        <time>2021-01-06T14:08:52.000Z</time>
      </trkpt>
      <trkpt lat="45.12465" lon="5.89813">
        <ele>2122</ele>
        <time>2021-01-06T14:08:53.000Z</time>
      </trkpt>
      <trkpt lat="45.12467" lon="5.8981">
        <ele>2120.8000488281</ele>
        <time>2021-01-06T14:08:54.000Z</time>
      </trkpt>
      <trkpt lat="45.12468" lon="5.89803">
        <ele>2119.6000976562</ele>
        <time>2021-01-06T14:08:55.000Z</time>
      </trkpt>
      <trkpt lat="45.12464" lon="5.898">
        <ele>2118.1999511719</ele>
        <time>2021-01-06T14:08:56.000Z</time>
      </trkpt>
      <trkpt lat="45.1246" lon="5.89797">
        <ele>2117</ele>
        <time>2021-01-06T14:08:57.000Z</time>
      </trkpt>
      <trkpt lat="45.1246" lon="5.8979">
        <ele>2115.6000976562</ele>
        <time>2021-01-06T14:08:58.000Z</time>
      </trkpt>
      <trkpt lat="45.12463" lon="5.89785">
        <ele>2114.1999511719</ele>
        <time>2021-01-06T14:08:59.000Z</time>
      </trkpt>
      <trkpt lat="45.12466" lon="5.89782">
        <ele>2111</ele>
        <time>2021-01-06T14:09:00.000Z</time>
      </trkpt>
      <trkpt lat="45.12467" lon="5.89776">
        <ele>2109.1999511719</ele>
        <time>2021-01-06T14:09:01.000Z</time>
      </trkpt>
      <trkpt lat="45.12465" lon="5.89769">
        <ele>2107.6000976562</ele>
        <time>2021-01-06T14:09:02.000Z</time>
      </trkpt>
      <trkpt lat="45.12468" lon="5.89763">
        <ele>2105.8000488281</ele>
        <time>2021-01-06T14:09:03.000Z</time>
      </trkpt>
      <trkpt lat="45.12471" lon="5.89756">
        <ele>2104</ele>
        <time>2021-01-06T14:09:04.000Z</time>
      </trkpt>
      <trkpt lat="45.12469" lon="5.89748">
        <ele>2102.1999511719</ele>
        <time>2021-01-06T14:09:05.000Z</time>
      </trkpt>
      <trkpt lat="45.12465" lon="5.89744">
        <ele>2100.1999511719</ele>
        <time>2021-01-06T14:09:06.000Z</time>
      </trkpt>
      <trkpt lat="45.12463" lon="5.89736">
        <ele>2098.1999511719</ele>
        <time>2021-01-06T14:09:07.000Z</time>
      </trkpt>
      <trkpt lat="45.12467" lon="5.89729">
        <ele>2095.8000488281</ele>
        <time>2021-01-06T14:09:08.000Z</time>
      </trkpt>
      <trkpt lat="45.12472" lon="5.89724">
        <ele>2093.6000976562</ele>
        <time>2021-01-06T14:09:09.000Z</time>
      </trkpt>
      <trkpt lat="45.12478" lon="5.89723">
        <ele>2091.1999511719</ele>
        <time>2021-01-06T14:09:10.000Z</time>
      </trkpt>
      <trkpt lat="45.12481" lon="5.89724">
        <ele>2089</ele>
        <time>2021-01-06T14:09:11.000Z</time>
      </trkpt>
      <trkpt lat="45.12484" lon="5.8972">
        <ele>2086.8000488281</ele>
        <time>2021-01-06T14:09:12.000Z</time>
      </trkpt>
      <trkpt lat="45.12484" lon="5.89714">
        <ele>2084.6000976562</ele>
        <time>2021-01-06T14:09:13.000Z</time>
      </trkpt>
      <trkpt lat="45.12486" lon="5.89707">
        <ele>2082.3999023438</ele>
        <time>2021-01-06T14:09:14.000Z</time>
      </trkpt>
      <trkpt lat="45.12489" lon="5.89706">
        <ele>2080.6000976562</ele>
        <time>2021-01-06T14:09:15.000Z</time>
      </trkpt>
      <trkpt lat="45.1249" lon="5.89707">
        <ele>2078.8000488281</ele>
        <time>2021-01-06T14:09:16.000Z</time>
      </trkpt>
      <trkpt lat="45.12489" lon="5.89707">
        <ele>2077.1999511719</ele>
        <time>2021-01-06T14:09:17.000Z</time>
      </trkpt>
      <trkpt lat="45.12489" lon="5.89707">
        <ele>2075.3999023438</ele>
        <time>2021-01-06T14:09:18.000Z</time>
      </trkpt>
      <trkpt lat="45.12489" lon="5.89707">
        <ele>2073.6000976562</ele>
        <time>2021-01-06T14:09:19.000Z</time>
      </trkpt>
      <trkpt lat="45.12489" lon="5.89707">
        <ele>2072</ele>
        <time>2021-01-06T14:09:20.000Z</time>
      </trkpt>
      <trkpt lat="45.12489" lon="5.89707">
        <ele>2070.8000488281</ele>
        <time>2021-01-06T14:09:21.000Z</time>
      </trkpt>
      <trkpt lat="45.12489" lon="5.89707">
        <ele>2069.3999023438</ele>
        <time>2021-01-06T14:09:23.000Z</time>
      </trkpt>
      <trkpt lat="45.12488" lon="5.89707">
        <ele>2068.8000488281</ele>
        <time>2021-01-06T14:09:26.000Z</time>
      </trkpt>
      <trkpt lat="45.12488" lon="5.89707">
        <ele>2068.8000488281</ele>
        <time>2021-01-06T14:09:38.000Z</time>
      </trkpt>
      <trkpt lat="45.12488" lon="5.89707">
        <ele>2068.6000976562</ele>
        <time>2021-01-06T14:09:54.000Z</time>
      </trkpt>
      <trkpt lat="45.1249" lon="5.89706">
        <ele>2068.6000976562</ele>
        <time>2021-01-06T14:09:57.000Z</time>
      </trkpt>
      <trkpt lat="45.12495" lon="5.89705">
        <ele>2068.6000976562</ele>
        <time>2021-01-06T14:09:59.000Z</time>
      </trkpt>
      <trkpt lat="45.12505" lon="5.89705">
        <ele>2068.3999023438</ele>
        <time>2021-01-06T14:10:02.000Z</time>
      </trkpt>
      <trkpt lat="45.12509" lon="5.89705">
        <ele>2067.3999023438</ele>
        <time>2021-01-06T14:10:04.000Z</time>
      </trkpt>
      <trkpt lat="45.12509" lon="5.89699">
        <ele>2066.8000488281</ele>
        <time>2021-01-06T14:10:05.000Z</time>
      </trkpt>
      <trkpt lat="45.12507" lon="5.89694">
        <ele>2066.1999511719</ele>
        <time>2021-01-06T14:10:06.000Z</time>
      </trkpt>
      <trkpt lat="45.12509" lon="5.89689">
        <ele>2065.6000976562</ele>
        <time>2021-01-06T14:10:07.000Z</time>
      </trkpt>
      <trkpt lat="45.12516" lon="5.89689">
        <ele>2064.8000488281</ele>
        <time>2021-01-06T14:10:08.000Z</time>
      </trkpt>
      <trkpt lat="45.12518" lon="5.89691">
        <ele>2063.8000488281</ele>
        <time>2021-01-06T14:10:09.000Z</time>
      </trkpt>
      <trkpt lat="45.12522" lon="5.89689">
        <ele>2062.8000488281</ele>
        <time>2021-01-06T14:10:10.000Z</time>
      </trkpt>
      <trkpt lat="45.12525" lon="5.8968">
        <ele>2061.3999023438</ele>
        <time>2021-01-06T14:10:11.000Z</time>
      </trkpt>
      <trkpt lat="45.12531" lon="5.89682">
        <ele>2058.6000976562</ele>
        <time>2021-01-06T14:10:12.000Z</time>
      </trkpt>
      <trkpt lat="45.12536" lon="5.89686">
        <ele>2057</ele>
        <time>2021-01-06T14:10:13.000Z</time>
      </trkpt>
      <trkpt lat="45.12541" lon="5.89682">
        <ele>2055.3999023438</ele>
        <time>2021-01-06T14:10:14.000Z</time>
      </trkpt>
      <trkpt lat="45.12547" lon="5.89679">
        <ele>2053.6000976562</ele>
        <time>2021-01-06T14:10:15.000Z</time>
      </trkpt>
      <trkpt lat="45.12552" lon="5.89685">
        <ele>2051.6000976562</ele>
        <time>2021-01-06T14:10:16.000Z</time>
      </trkpt>
      <trkpt lat="45.12558" lon="5.89686">
        <ele>2049.6000976562</ele>
        <time>2021-01-06T14:10:17.000Z</time>
      </trkpt>
      <trkpt lat="45.12566" lon="5.89683">
        <ele>2047.5999755859</ele>
        <time>2021-01-06T14:10:18.000Z</time>
      </trkpt>
      <trkpt lat="45.12573" lon="5.89687">
        <ele>2045.5999755859</ele>
        <time>2021-01-06T14:10:19.000Z</time>
      </trkpt>
      <trkpt lat="45.12581" lon="5.89684">
        <ele>2043.8000488281</ele>
        <time>2021-01-06T14:10:20.000Z</time>
      </trkpt>
      <trkpt lat="45.12589" lon="5.89688">
        <ele>2042</ele>
        <time>2021-01-06T14:10:21.000Z</time>
      </trkpt>
      <trkpt lat="45.12595" lon="5.89688">
        <ele>2040</ele>
        <time>2021-01-06T14:10:22.000Z</time>
      </trkpt>
      <trkpt lat="45.12602" lon="5.8969">
        <ele>2038.1999511719</ele>
        <time>2021-01-06T14:10:23.000Z</time>
      </trkpt>
      <trkpt lat="45.12608" lon="5.89691">
        <ele>2036.5999755859</ele>
        <time>2021-01-06T14:10:24.000Z</time>
      </trkpt>
      <trkpt lat="45.12614" lon="5.89692">
        <ele>2034.8000488281</ele>
        <time>2021-01-06T14:10:25.000Z</time>
      </trkpt>
      <trkpt lat="45.1262" lon="5.89694">
        <ele>2033.4000244141</ele>
        <time>2021-01-06T14:10:26.000Z</time>
      </trkpt>
      <trkpt lat="45.12623" lon="5.89689">
        <ele>2031.8000488281</ele>
        <time>2021-01-06T14:10:27.000Z</time>
      </trkpt>
      <trkpt lat="45.12629" lon="5.89691">
        <ele>2030.4000244141</ele>
        <time>2021-01-06T14:10:28.000Z</time>
      </trkpt>
      <trkpt lat="45.12634" lon="5.89696">
        <ele>2029</ele>
        <time>2021-01-06T14:10:29.000Z</time>
      </trkpt>
      <trkpt lat="45.12639" lon="5.89692">
        <ele>2027.5999755859</ele>
        <time>2021-01-06T14:10:30.000Z</time>
      </trkpt>
      <trkpt lat="45.12644" lon="5.89687">
        <ele>2026.1999511719</ele>
        <time>2021-01-06T14:10:31.000Z</time>
      </trkpt>
      <trkpt lat="45.12649" lon="5.89688">
        <ele>2024.5999755859</ele>
        <time>2021-01-06T14:10:32.000Z</time>
      </trkpt>
      <trkpt lat="45.12655" lon="5.89685">
        <ele>2023.1999511719</ele>
        <time>2021-01-06T14:10:33.000Z</time>
      </trkpt>
      <trkpt lat="45.12654" lon="5.89678">
        <ele>2021.8000488281</ele>
        <time>2021-01-06T14:10:34.000Z</time>
      </trkpt>
      <trkpt lat="45.12657" lon="5.89671">
        <ele>2020.1999511719</ele>
        <time>2021-01-06T14:10:35.000Z</time>
      </trkpt>
      <trkpt lat="45.12662" lon="5.89669">
        <ele>2018.5999755859</ele>
        <time>2021-01-06T14:10:36.000Z</time>
      </trkpt>
      <trkpt lat="45.12662" lon="5.89661">
        <ele>2014.8000488281</ele>
        <time>2021-01-06T14:10:37.000Z</time>
      </trkpt>
      <trkpt lat="45.12658" lon="5.89656">
        <ele>2012.8000488281</ele>
        <time>2021-01-06T14:10:38.000Z</time>
      </trkpt>
      <trkpt lat="45.1266" lon="5.89649">
        <ele>2010.8000488281</ele>
        <time>2021-01-06T14:10:39.000Z</time>
      </trkpt>
      <trkpt lat="45.12659" lon="5.89643">
        <ele>2009</ele>
        <time>2021-01-06T14:10:40.000Z</time>
      </trkpt>
      <trkpt lat="45.12657" lon="5.89643">
        <ele>2007.1999511719</ele>
        <time>2021-01-06T14:10:41.000Z</time>
      </trkpt>
      <trkpt lat="45.12656" lon="5.89644">
        <ele>2005.4000244141</ele>
        <time>2021-01-06T14:10:42.000Z</time>
      </trkpt>
      <trkpt lat="45.12655" lon="5.89644">
        <ele>2003.5999755859</ele>
        <time>2021-01-06T14:10:43.000Z</time>
      </trkpt>
      <trkpt lat="45.12655" lon="5.89644">
        <ele>2002</ele>
        <time>2021-01-06T14:10:44.000Z</time>
      </trkpt>
      <trkpt lat="45.12655" lon="5.89644">
        <ele>2000.5999755859</ele>
        <time>2021-01-06T14:10:45.000Z</time>
      </trkpt>
      <trkpt lat="45.12655" lon="5.89644">
        <ele>1999.5999755859</ele>
        <time>2021-01-06T14:10:46.000Z</time>
      </trkpt>
      <trkpt lat="45.12655" lon="5.89644">
        <ele>1998.4000244141</ele>
        <time>2021-01-06T14:10:48.000Z</time>
      </trkpt>
      <trkpt lat="45.12651" lon="5.89634">
        <ele>1998</ele>
        <time>2021-01-06T14:10:52.000Z</time>
      </trkpt>
      <trkpt lat="45.12651" lon="5.89625">
        <ele>1997.8000488281</ele>
        <time>2021-01-06T14:10:54.000Z</time>
      </trkpt>
      <trkpt lat="45.12652" lon="5.89612">
        <ele>1997.1999511719</ele>
        <time>2021-01-06T14:10:56.000Z</time>
      </trkpt>
      <trkpt lat="45.1265" lon="5.89605">
        <ele>1996.8000488281</ele>
        <time>2021-01-06T14:10:57.000Z</time>
      </trkpt>
      <trkpt lat="45.12646" lon="5.89603">
        <ele>1996</ele>
        <time>2021-01-06T14:10:58.000Z</time>
      </trkpt>
      <trkpt lat="45.12642" lon="5.89599">
        <ele>1995.1999511719</ele>
        <time>2021-01-06T14:10:59.000Z</time>
      </trkpt>
      <trkpt lat="45.1264" lon="5.89592">
        <ele>1994</ele>
        <time>2021-01-06T14:11:00.000Z</time>
      </trkpt>
      <trkpt lat="45.12644" lon="5.89586">
        <ele>1991.5999755859</ele>
        <time>2021-01-06T14:11:01.000Z</time>
      </trkpt>
      <trkpt lat="45.12644" lon="5.89579">
        <ele>1990.4000244141</ele>
        <time>2021-01-06T14:11:02.000Z</time>
      </trkpt>
      <trkpt lat="45.1264" lon="5.89575">
        <ele>1989.4000244141</ele>
        <time>2021-01-06T14:11:03.000Z</time>
      </trkpt>
      <trkpt lat="45.12637" lon="5.8957">
        <ele>1988.1999511719</ele>
        <time>2021-01-06T14:11:04.000Z</time>
      </trkpt>
      <trkpt lat="45.12637" lon="5.89562">
        <ele>1987</ele>
        <time>2021-01-06T14:11:05.000Z</time>
      </trkpt>
      <trkpt lat="45.12641" lon="5.89556">
        <ele>1985.5999755859</ele>
        <time>2021-01-06T14:11:06.000Z</time>
      </trkpt>
      <trkpt lat="45.12641" lon="5.89548">
        <ele>1984.4000244141</ele>
        <time>2021-01-06T14:11:07.000Z</time>
      </trkpt>
      <trkpt lat="45.12638" lon="5.89541">
        <ele>1983.1999511719</ele>
        <time>2021-01-06T14:11:08.000Z</time>
      </trkpt>
      <trkpt lat="45.12639" lon="5.89532">
        <ele>1981.8000488281</ele>
        <time>2021-01-06T14:11:09.000Z</time>
      </trkpt>
      <trkpt lat="45.12644" lon="5.89526">
        <ele>1980.1999511719</ele>
        <time>2021-01-06T14:11:10.000Z</time>
      </trkpt>
      <trkpt lat="45.12645" lon="5.89516">
        <ele>1978.5999755859</ele>
        <time>2021-01-06T14:11:11.000Z</time>
      </trkpt>
      <trkpt lat="45.12642" lon="5.89507">
        <ele>1976.8000488281</ele>
        <time>2021-01-06T14:11:12.000Z</time>
      </trkpt>
      <trkpt lat="45.12646" lon="5.89499">
        <ele>1975</ele>
        <time>2021-01-06T14:11:13.000Z</time>
      </trkpt>
      <trkpt lat="45.12649" lon="5.89491">
        <ele>1973</ele>
        <time>2021-01-06T14:11:14.000Z</time>
      </trkpt>
      <trkpt lat="45.12648" lon="5.89483">
        <ele>1971.1999511719</ele>
        <time>2021-01-06T14:11:15.000Z</time>
      </trkpt>
      <trkpt lat="45.12647" lon="5.89475">
        <ele>1969.4000244141</ele>
        <time>2021-01-06T14:11:16.000Z</time>
      </trkpt>
      <trkpt lat="45.12651" lon="5.89471">
        <ele>1967.5999755859</ele>
        <time>2021-01-06T14:11:17.000Z</time>
      </trkpt>
      <trkpt lat="45.12654" lon="5.89463">
        <ele>1965.8000488281</ele>
        <time>2021-01-06T14:11:18.000Z</time>
      </trkpt>
      <trkpt lat="45.12651" lon="5.89457">
        <ele>1964.1999511719</ele>
        <time>2021-01-06T14:11:19.000Z</time>
      </trkpt>
      <trkpt lat="45.12653" lon="5.8945">
        <ele>1962.5999755859</ele>
        <time>2021-01-06T14:11:20.000Z</time>
      </trkpt>
      <trkpt lat="45.12657" lon="5.89446">
        <ele>1961</ele>
        <time>2021-01-06T14:11:21.000Z</time>
      </trkpt>
      <trkpt lat="45.12659" lon="5.8944">
        <ele>1959.5999755859</ele>
        <time>2021-01-06T14:11:22.000Z</time>
      </trkpt>
      <trkpt lat="45.12658" lon="5.89435">
        <ele>1958.1999511719</ele>
        <time>2021-01-06T14:11:23.000Z</time>
      </trkpt>
      <trkpt lat="45.12659" lon="5.89429">
        <ele>1956.8000488281</ele>
        <time>2021-01-06T14:11:24.000Z</time>
      </trkpt>
      <trkpt lat="45.12662" lon="5.89429">
        <ele>1954.4000244141</ele>
        <time>2021-01-06T14:11:25.000Z</time>
      </trkpt>
      <trkpt lat="45.12662" lon="5.8943">
        <ele>1953.4000244141</ele>
        <time>2021-01-06T14:11:26.000Z</time>
      </trkpt>
      <trkpt lat="45.12662" lon="5.8943">
        <ele>1952.4000244141</ele>
        <time>2021-01-06T14:11:27.000Z</time>
      </trkpt>
      <trkpt lat="45.12662" lon="5.8943">
        <ele>1951.4000244141</ele>
        <time>2021-01-06T14:11:28.000Z</time>
      </trkpt>
      <trkpt lat="45.12662" lon="5.89431">
        <ele>1950.5999755859</ele>
        <time>2021-01-06T14:11:29.000Z</time>
      </trkpt>
      <trkpt lat="45.12661" lon="5.89431">
        <ele>1949.4000244141</ele>
        <time>2021-01-06T14:11:31.000Z</time>
      </trkpt>
      <trkpt lat="45.12661" lon="5.89431">
        <ele>1948.8000488281</ele>
        <time>2021-01-06T14:11:38.000Z</time>
      </trkpt>
      <trkpt lat="45.12662" lon="5.8943">
        <ele>1948.8000488281</ele>
        <time>2021-01-06T14:11:49.000Z</time>
      </trkpt>
      <trkpt lat="45.12662" lon="5.8943">
        <ele>1948.4000244141</ele>
        <time>2021-01-06T14:11:54.000Z</time>
      </trkpt>
      <trkpt lat="45.12662" lon="5.8943">
        <ele>1948.1999511719</ele>
        <time>2021-01-06T14:11:55.000Z</time>
      </trkpt>
      <trkpt lat="45.12665" lon="5.89426">
        <ele>1948.1999511719</ele>
        <time>2021-01-06T14:11:56.000Z</time>
      </trkpt>
      <trkpt lat="45.12666" lon="5.89416">
        <ele>1947.8000488281</ele>
        <time>2021-01-06T14:11:59.000Z</time>
      </trkpt>
      <trkpt lat="45.12666" lon="5.89405">
        <ele>1947</ele>
        <time>2021-01-06T14:12:01.000Z</time>
      </trkpt>
      <trkpt lat="45.12665" lon="5.894">
        <ele>1946.4000244141</ele>
        <time>2021-01-06T14:12:02.000Z</time>
      </trkpt>
      <trkpt lat="45.12669" lon="5.89398">
        <ele>1945.4000244141</ele>
        <time>2021-01-06T14:12:03.000Z</time>
      </trkpt>
      <trkpt lat="45.1267" lon="5.8939">
        <ele>1944</ele>
        <time>2021-01-06T14:12:04.000Z</time>
      </trkpt>
      <trkpt lat="45.12668" lon="5.89387">
        <ele>1942.5999755859</ele>
        <time>2021-01-06T14:12:05.000Z</time>
      </trkpt>
      <trkpt lat="45.12665" lon="5.89383">
        <ele>1941.1999511719</ele>
        <time>2021-01-06T14:12:06.000Z</time>
      </trkpt>
      <trkpt lat="45.12663" lon="5.89379">
        <ele>1939.5999755859</ele>
        <time>2021-01-06T14:12:07.000Z</time>
      </trkpt>
      <trkpt lat="45.12666" lon="5.89373">
        <ele>1938</ele>
        <time>2021-01-06T14:12:08.000Z</time>
      </trkpt>
      <trkpt lat="45.12669" lon="5.89372">
        <ele>1936.4000244141</ele>
        <time>2021-01-06T14:12:09.000Z</time>
      </trkpt>
      <trkpt lat="45.12674" lon="5.89369">
        <ele>1934.8000488281</ele>
        <time>2021-01-06T14:12:10.000Z</time>
      </trkpt>
      <trkpt lat="45.12672" lon="5.8936">
        <ele>1933.4000244141</ele>
        <time>2021-01-06T14:12:11.000Z</time>
      </trkpt>
      <trkpt lat="45.12669" lon="5.89355">
        <ele>1932</ele>
        <time>2021-01-06T14:12:12.000Z</time>
      </trkpt>
      <trkpt lat="45.12671" lon="5.89348">
        <ele>1928.8000488281</ele>
        <time>2021-01-06T14:12:13.000Z</time>
      </trkpt>
      <trkpt lat="45.12676" lon="5.89344">
        <ele>1927</ele>
        <time>2021-01-06T14:12:14.000Z</time>
      </trkpt>
      <trkpt lat="45.12678" lon="5.89335">
        <ele>1925.1999511719</ele>
        <time>2021-01-06T14:12:15.000Z</time>
      </trkpt>
      <trkpt lat="45.12676" lon="5.89325">
        <ele>1923.4000244141</ele>
        <time>2021-01-06T14:12:16.000Z</time>
      </trkpt>
      <trkpt lat="45.1268" lon="5.89315">
        <ele>1921.4000244141</ele>
        <time>2021-01-06T14:12:17.000Z</time>
      </trkpt>
      <trkpt lat="45.12684" lon="5.89302">
        <ele>1919.1999511719</ele>
        <time>2021-01-06T14:12:18.000Z</time>
      </trkpt>
      <trkpt lat="45.12685" lon="5.89288">
        <ele>1917</ele>
        <time>2021-01-06T14:12:19.000Z</time>
      </trkpt>
      <trkpt lat="45.12685" lon="5.89274">
        <ele>1914.5999755859</ele>
        <time>2021-01-06T14:12:20.000Z</time>
      </trkpt>
      <trkpt lat="45.12686" lon="5.89262">
        <ele>1912.1999511719</ele>
        <time>2021-01-06T14:12:21.000Z</time>
      </trkpt>
      <trkpt lat="45.1269" lon="5.89252">
        <ele>1910</ele>
        <time>2021-01-06T14:12:22.000Z</time>
      </trkpt>
      <trkpt lat="45.12695" lon="5.89243">
        <ele>1908</ele>
        <time>2021-01-06T14:12:23.000Z</time>
      </trkpt>
      <trkpt lat="45.12696" lon="5.89234">
        <ele>1906.1999511719</ele>
        <time>2021-01-06T14:12:24.000Z</time>
      </trkpt>
      <trkpt lat="45.12694" lon="5.89226">
        <ele>1904.8000488281</ele>
        <time>2021-01-06T14:12:25.000Z</time>
      </trkpt>
      <trkpt lat="45.12697" lon="5.89218">
        <ele>1903.5999755859</ele>
        <time>2021-01-06T14:12:26.000Z</time>
      </trkpt>
      <trkpt lat="45.12701" lon="5.89209">
        <ele>1902.4000244141</ele>
        <time>2021-01-06T14:12:27.000Z</time>
      </trkpt>
      <trkpt lat="45.12706" lon="5.89205">
        <ele>1901.1999511719</ele>
        <time>2021-01-06T14:12:28.000Z</time>
      </trkpt>
      <trkpt lat="45.12709" lon="5.89206">
        <ele>1900.1999511719</ele>
        <time>2021-01-06T14:12:29.000Z</time>
      </trkpt>
      <trkpt lat="45.12708" lon="5.89207">
        <ele>1899</ele>
        <time>2021-01-06T14:12:30.000Z</time>
      </trkpt>
      <trkpt lat="45.12707" lon="5.89207">
        <ele>1897.8000488281</ele>
        <time>2021-01-06T14:12:31.000Z</time>
      </trkpt>
      <trkpt lat="45.12707" lon="5.89207">
        <ele>1896.1999511719</ele>
        <time>2021-01-06T14:12:32.000Z</time>
      </trkpt>
      <trkpt lat="45.12707" lon="5.89207">
        <ele>1894.5999755859</ele>
        <time>2021-01-06T14:12:33.000Z</time>
      </trkpt>
      <trkpt lat="45.12706" lon="5.89207">
        <ele>1893</ele>
        <time>2021-01-06T14:12:34.000Z</time>
      </trkpt>
      <trkpt lat="45.12706" lon="5.89207">
        <ele>1891.8000488281</ele>
        <time>2021-01-06T14:12:35.000Z</time>
      </trkpt>
      <trkpt lat="45.12706" lon="5.89207">
        <ele>1890.1999511719</ele>
        <time>2021-01-06T14:12:37.000Z</time>
      </trkpt>
      <trkpt lat="45.12705" lon="5.89208">
        <ele>1890</ele>
        <time>2021-01-06T14:12:43.000Z</time>
      </trkpt>
      <trkpt lat="45.12705" lon="5.89207">
        <ele>1889.1999511719</ele>
        <time>2021-01-06T14:12:49.000Z</time>
      </trkpt>
      <trkpt lat="45.12705" lon="5.89208">
        <ele>1889.1999511719</ele>
        <time>2021-01-06T14:12:51.000Z</time>
      </trkpt>
      <trkpt lat="45.12704" lon="5.89208">
        <ele>1890.4000244141</ele>
        <time>2021-01-06T14:12:54.000Z</time>
      </trkpt>
      <trkpt lat="45.12704" lon="5.89209">
        <ele>1890.8000488281</ele>
        <time>2021-01-06T14:12:56.000Z</time>
      </trkpt>
      <trkpt lat="45.12705" lon="5.89211">
        <ele>1890.5999755859</ele>
        <time>2021-01-06T14:12:58.000Z</time>
      </trkpt>
      <trkpt lat="45.12705" lon="5.8921">
        <ele>1890.4000244141</ele>
        <time>2021-01-06T14:12:59.000Z</time>
      </trkpt>
      <trkpt lat="45.12705" lon="5.8921">
        <ele>1889.8000488281</ele>
        <time>2021-01-06T14:13:07.000Z</time>
      </trkpt>
      <trkpt lat="45.12705" lon="5.8921">
        <ele>1889.4000244141</ele>
        <time>2021-01-06T14:13:15.000Z</time>
      </trkpt>
      <trkpt lat="45.12705" lon="5.8921">
        <ele>1889.1999511719</ele>
        <time>2021-01-06T14:13:17.000Z</time>
      </trkpt>
      <trkpt lat="45.12705" lon="5.8921">
        <ele>1889.8000488281</ele>
        <time>2021-01-06T14:13:27.000Z</time>
      </trkpt>
      <trkpt lat="45.12704" lon="5.8921">
        <ele>1889.8000488281</ele>
        <time>2021-01-06T14:13:35.000Z</time>
      </trkpt>
      <trkpt lat="45.12704" lon="5.8921">
        <ele>1889.8000488281</ele>
        <time>2021-01-06T14:13:48.000Z</time>
      </trkpt>
      <trkpt lat="45.12704" lon="5.8921">
        <ele>1889.5999755859</ele>
        <time>2021-01-06T14:13:57.000Z</time>
      </trkpt>
      <trkpt lat="45.12704" lon="5.8921">
        <ele>1889.5999755859</ele>
        <time>2021-01-06T14:14:06.000Z</time>
      </trkpt>
      <trkpt lat="45.12704" lon="5.8921">
        <ele>1889.4000244141</ele>
        <time>2021-01-06T14:14:19.000Z</time>
      </trkpt>
      <trkpt lat="45.12704" lon="5.8921">
        <ele>1888.1999511719</ele>
        <time>2021-01-06T14:14:22.000Z</time>
      </trkpt>
      <trkpt lat="45.12704" lon="5.8921">
        <ele>1890</ele>
        <time>2021-01-06T14:14:30.000Z</time>
      </trkpt>
      <trkpt lat="45.12704" lon="5.8921">
        <ele>1891.4000244141</ele>
        <time>2021-01-06T14:14:32.000Z</time>
      </trkpt>
      <trkpt lat="45.12704" lon="5.8921">
        <ele>1891.5999755859</ele>
        <time>2021-01-06T14:14:33.000Z</time>
      </trkpt>
      <trkpt lat="45.12704" lon="5.8921">
        <ele>1890.1999511719</ele>
        <time>2021-01-06T14:14:36.000Z</time>
      </trkpt>
      <trkpt lat="45.12704" lon="5.8921">
        <ele>1889.8000488281</ele>
        <time>2021-01-06T14:14:46.000Z</time>
      </trkpt>
      <trkpt lat="45.12704" lon="5.8921">
        <ele>1889.5999755859</ele>
        <time>2021-01-06T14:14:50.000Z</time>
      </trkpt>
      <trkpt lat="45.12706" lon="5.89205">
        <ele>1889.4000244141</ele>
        <time>2021-01-06T14:14:52.000Z</time>
      </trkpt>
      <trkpt lat="45.12705" lon="5.89199">
        <ele>1889.1999511719</ele>
        <time>2021-01-06T14:14:54.000Z</time>
      </trkpt>
      <trkpt lat="45.12706" lon="5.89194">
        <ele>1888.8000488281</ele>
        <time>2021-01-06T14:14:55.000Z</time>
      </trkpt>
      <trkpt lat="45.12708" lon="5.89187">
        <ele>1888.4000244141</ele>
        <time>2021-01-06T14:14:56.000Z</time>
      </trkpt>
      <trkpt lat="45.12711" lon="5.89175">
        <ele>1887.4000244141</ele>
        <time>2021-01-06T14:14:58.000Z</time>
      </trkpt>
      <trkpt lat="45.12709" lon="5.89169">
        <ele>1886.4000244141</ele>
        <time>2021-01-06T14:14:59.000Z</time>
      </trkpt>
      <trkpt lat="45.1271" lon="5.89164">
        <ele>1885</ele>
        <time>2021-01-06T14:15:00.000Z</time>
      </trkpt>
      <trkpt lat="45.12713" lon="5.8916">
        <ele>1881.4000244141</ele>
        <time>2021-01-06T14:15:01.000Z</time>
      </trkpt>
      <trkpt lat="45.12716" lon="5.89154">
        <ele>1879.4000244141</ele>
        <time>2021-01-06T14:15:02.000Z</time>
      </trkpt>
      <trkpt lat="45.12716" lon="5.89148">
        <ele>1877.1999511719</ele>
        <time>2021-01-06T14:15:03.000Z</time>
      </trkpt>
      <trkpt lat="45.12714" lon="5.89144">
        <ele>1875</ele>
        <time>2021-01-06T14:15:04.000Z</time>
      </trkpt>
      <trkpt lat="45.12715" lon="5.89139">
        <ele>1872.8000488281</ele>
        <time>2021-01-06T14:15:05.000Z</time>
      </trkpt>
      <trkpt lat="45.12716" lon="5.89133">
        <ele>1871</ele>
        <time>2021-01-06T14:15:06.000Z</time>
      </trkpt>
      <trkpt lat="45.12716" lon="5.89127">
        <ele>1869</ele>
        <time>2021-01-06T14:15:07.000Z</time>
      </trkpt>
      <trkpt lat="45.12717" lon="5.89123">
        <ele>1867.1999511719</ele>
        <time>2021-01-06T14:15:08.000Z</time>
      </trkpt>
      <trkpt lat="45.12719" lon="5.8912">
        <ele>1865.1999511719</ele>
        <time>2021-01-06T14:15:09.000Z</time>
      </trkpt>
      <trkpt lat="45.12722" lon="5.89115">
        <ele>1863.1999511719</ele>
        <time>2021-01-06T14:15:10.000Z</time>
      </trkpt>
      <trkpt lat="45.12722" lon="5.89109">
        <ele>1861.1999511719</ele>
        <time>2021-01-06T14:15:11.000Z</time>
      </trkpt>
      <trkpt lat="45.12726" lon="5.89103">
        <ele>1859.4000244141</ele>
        <time>2021-01-06T14:15:12.000Z</time>
      </trkpt>
      <trkpt lat="45.1273" lon="5.89099">
        <ele>1857.5999755859</ele>
        <time>2021-01-06T14:15:13.000Z</time>
      </trkpt>
      <trkpt lat="45.12734" lon="5.89092">
        <ele>1855.5999755859</ele>
        <time>2021-01-06T14:15:14.000Z</time>
      </trkpt>
      <trkpt lat="45.12739" lon="5.89085">
        <ele>1853.5999755859</ele>
        <time>2021-01-06T14:15:15.000Z</time>
      </trkpt>
      <trkpt lat="45.12743" lon="5.89078">
        <ele>1851.5999755859</ele>
        <time>2021-01-06T14:15:16.000Z</time>
      </trkpt>
      <trkpt lat="45.12747" lon="5.89073">
        <ele>1849.4000244141</ele>
        <time>2021-01-06T14:15:17.000Z</time>
      </trkpt>
      <trkpt lat="45.1275" lon="5.89068">
        <ele>1847.4000244141</ele>
        <time>2021-01-06T14:15:18.000Z</time>
      </trkpt>
      <trkpt lat="45.12749" lon="5.89065">
        <ele>1845.8000488281</ele>
        <time>2021-01-06T14:15:19.000Z</time>
      </trkpt>
      <trkpt lat="45.12748" lon="5.89062">
        <ele>1844.4000244141</ele>
        <time>2021-01-06T14:15:21.000Z</time>
      </trkpt>
      <trkpt lat="45.12747" lon="5.89059">
        <ele>1844.5999755859</ele>
        <time>2021-01-06T14:15:24.000Z</time>
      </trkpt>
      <trkpt lat="45.12747" lon="5.89059">
        <ele>1845.5999755859</ele>
        <time>2021-01-06T14:15:26.000Z</time>
      </trkpt>
      <trkpt lat="45.12747" lon="5.89058">
        <ele>1845.8000488281</ele>
        <time>2021-01-06T14:15:31.000Z</time>
      </trkpt>
      <trkpt lat="45.12744" lon="5.89048">
        <ele>1845.8000488281</ele>
        <time>2021-01-06T14:15:35.000Z</time>
      </trkpt>
      <trkpt lat="45.12741" lon="5.8904">
        <ele>1845.4000244141</ele>
        <time>2021-01-06T14:15:37.000Z</time>
      </trkpt>
      <trkpt lat="45.12741" lon="5.89029">
        <ele>1844.8000488281</ele>
        <time>2021-01-06T14:15:39.000Z</time>
      </trkpt>
      <trkpt lat="45.1274" lon="5.89024">
        <ele>1843.8000488281</ele>
        <time>2021-01-06T14:15:40.000Z</time>
      </trkpt>
      <trkpt lat="45.12741" lon="5.89019">
        <ele>1842.5999755859</ele>
        <time>2021-01-06T14:15:41.000Z</time>
      </trkpt>
      <trkpt lat="45.12742" lon="5.89014">
        <ele>1841.4000244141</ele>
        <time>2021-01-06T14:15:42.000Z</time>
      </trkpt>
      <trkpt lat="45.12742" lon="5.89008">
        <ele>1840.1999511719</ele>
        <time>2021-01-06T14:15:43.000Z</time>
      </trkpt>
      <trkpt lat="45.12745" lon="5.89004">
        <ele>1838.8000488281</ele>
        <time>2021-01-06T14:15:44.000Z</time>
      </trkpt>
      <trkpt lat="45.12749" lon="5.89001">
        <ele>1837.5999755859</ele>
        <time>2021-01-06T14:15:45.000Z</time>
      </trkpt>
      <trkpt lat="45.12752" lon="5.88996">
        <ele>1836.1999511719</ele>
        <time>2021-01-06T14:15:46.000Z</time>
      </trkpt>
      <trkpt lat="45.12754" lon="5.88992">
        <ele>1834.8000488281</ele>
        <time>2021-01-06T14:15:47.000Z</time>
      </trkpt>
      <trkpt lat="45.12758" lon="5.88991">
        <ele>1833.4000244141</ele>
        <time>2021-01-06T14:15:48.000Z</time>
      </trkpt>
      <trkpt lat="45.1276" lon="5.88985">
        <ele>1830.8000488281</ele>
        <time>2021-01-06T14:15:49.000Z</time>
      </trkpt>
      <trkpt lat="45.12763" lon="5.88981">
        <ele>1829.4000244141</ele>
        <time>2021-01-06T14:15:50.000Z</time>
      </trkpt>
      <trkpt lat="45.12766" lon="5.88977">
        <ele>1828</ele>
        <time>2021-01-06T14:15:51.000Z</time>
      </trkpt>
      <trkpt lat="45.12768" lon="5.88973">
        <ele>1826.5999755859</ele>
        <time>2021-01-06T14:15:52.000Z</time>
      </trkpt>
      <trkpt lat="45.12769" lon="5.88968">
        <ele>1825.1999511719</ele>
        <time>2021-01-06T14:15:53.000Z</time>
      </trkpt>
      <trkpt lat="45.12773" lon="5.88965">
        <ele>1824</ele>
        <time>2021-01-06T14:15:54.000Z</time>
      </trkpt>
      <trkpt lat="45.12778" lon="5.88967">
        <ele>1822.5999755859</ele>
        <time>2021-01-06T14:15:55.000Z</time>
      </trkpt>
      <trkpt lat="45.12782" lon="5.88967">
        <ele>1821.1999511719</ele>
        <time>2021-01-06T14:15:56.000Z</time>
      </trkpt>
      <trkpt lat="45.12786" lon="5.88964">
        <ele>1819.8000488281</ele>
        <time>2021-01-06T14:15:57.000Z</time>
      </trkpt>
      <trkpt lat="45.12788" lon="5.88959">
        <ele>1818.1999511719</ele>
        <time>2021-01-06T14:15:58.000Z</time>
      </trkpt>
      <trkpt lat="45.1279" lon="5.88954">
        <ele>1816.8000488281</ele>
        <time>2021-01-06T14:15:59.000Z</time>
      </trkpt>
      <trkpt lat="45.12793" lon="5.88955">
        <ele>1815.4000244141</ele>
        <time>2021-01-06T14:16:00.000Z</time>
      </trkpt>
      <trkpt lat="45.12796" lon="5.88954">
        <ele>1814.1999511719</ele>
        <time>2021-01-06T14:16:01.000Z</time>
      </trkpt>
      <trkpt lat="45.12798" lon="5.8895">
        <ele>1813</ele>
        <time>2021-01-06T14:16:02.000Z</time>
      </trkpt>
      <trkpt lat="45.12801" lon="5.88947">
        <ele>1811.8000488281</ele>
        <time>2021-01-06T14:16:03.000Z</time>
      </trkpt>
      <trkpt lat="45.12804" lon="5.88946">
        <ele>1810.5999755859</ele>
        <time>2021-01-06T14:16:04.000Z</time>
      </trkpt>
      <trkpt lat="45.12807" lon="5.88944">
        <ele>1809.4000244141</ele>
        <time>2021-01-06T14:16:05.000Z</time>
      </trkpt>
      <trkpt lat="45.12809" lon="5.88941">
        <ele>1808.4000244141</ele>
        <time>2021-01-06T14:16:06.000Z</time>
      </trkpt>
      <trkpt lat="45.12811" lon="5.88937">
        <ele>1807.4000244141</ele>
        <time>2021-01-06T14:16:07.000Z</time>
      </trkpt>
      <trkpt lat="45.12812" lon="5.88934">
        <ele>1806.1999511719</ele>
        <time>2021-01-06T14:16:08.000Z</time>
      </trkpt>
      <trkpt lat="45.12814" lon="5.88932">
        <ele>1805.1999511719</ele>
        <time>2021-01-06T14:16:09.000Z</time>
      </trkpt>
      <trkpt lat="45.12816" lon="5.88933">
        <ele>1804</ele>
        <time>2021-01-06T14:16:10.000Z</time>
      </trkpt>
      <trkpt lat="45.12817" lon="5.88929">
        <ele>1802.8000488281</ele>
        <time>2021-01-06T14:16:11.000Z</time>
      </trkpt>
      <trkpt lat="45.12819" lon="5.88925">
        <ele>1801.8000488281</ele>
        <time>2021-01-06T14:16:12.000Z</time>
      </trkpt>
      <trkpt lat="45.12822" lon="5.88925">
        <ele>1799.5999755859</ele>
        <time>2021-01-06T14:16:13.000Z</time>
      </trkpt>
      <trkpt lat="45.12824" lon="5.88923">
        <ele>1798.5999755859</ele>
        <time>2021-01-06T14:16:14.000Z</time>
      </trkpt>
      <trkpt lat="45.12827" lon="5.88921">
        <ele>1797.4000244141</ele>
        <time>2021-01-06T14:16:15.000Z</time>
      </trkpt>
      <trkpt lat="45.1283" lon="5.8892">
        <ele>1796.4000244141</ele>
        <time>2021-01-06T14:16:16.000Z</time>
      </trkpt>
      <trkpt lat="45.12832" lon="5.88921">
        <ele>1795.4000244141</ele>
        <time>2021-01-06T14:16:17.000Z</time>
      </trkpt>
      <trkpt lat="45.12835" lon="5.8892">
        <ele>1794.4000244141</ele>
        <time>2021-01-06T14:16:18.000Z</time>
      </trkpt>
      <trkpt lat="45.12838" lon="5.88917">
        <ele>1793.4000244141</ele>
        <time>2021-01-06T14:16:19.000Z</time>
      </trkpt>
      <trkpt lat="45.1284" lon="5.88912">
        <ele>1792.4000244141</ele>
        <time>2021-01-06T14:16:20.000Z</time>
      </trkpt>
      <trkpt lat="45.12843" lon="5.88908">
        <ele>1791.1999511719</ele>
        <time>2021-01-06T14:16:21.000Z</time>
      </trkpt>
      <trkpt lat="45.12845" lon="5.88905">
        <ele>1790.1999511719</ele>
        <time>2021-01-06T14:16:22.000Z</time>
      </trkpt>
      <trkpt lat="45.12848" lon="5.88904">
        <ele>1789.1999511719</ele>
        <time>2021-01-06T14:16:23.000Z</time>
      </trkpt>
      <trkpt lat="45.1285" lon="5.88904">
        <ele>1788.4000244141</ele>
        <time>2021-01-06T14:16:24.000Z</time>
      </trkpt>
      <trkpt lat="45.12855" lon="5.889">
        <ele>1787</ele>
        <time>2021-01-06T14:16:26.000Z</time>
      </trkpt>
      <trkpt lat="45.12858" lon="5.88901">
        <ele>1786.1999511719</ele>
        <time>2021-01-06T14:16:27.000Z</time>
      </trkpt>
      <trkpt lat="45.12861" lon="5.889">
        <ele>1785.5999755859</ele>
        <time>2021-01-06T14:16:28.000Z</time>
      </trkpt>
      <trkpt lat="45.12866" lon="5.88897">
        <ele>1784</ele>
        <time>2021-01-06T14:16:30.000Z</time>
      </trkpt>
      <trkpt lat="45.12873" lon="5.88896">
        <ele>1782.1999511719</ele>
        <time>2021-01-06T14:16:32.000Z</time>
      </trkpt>
      <trkpt lat="45.1288" lon="5.8889">
        <ele>1780.1999511719</ele>
        <time>2021-01-06T14:16:34.000Z</time>
      </trkpt>
      <trkpt lat="45.12885" lon="5.88888">
        <ele>1778.4000244141</ele>
        <time>2021-01-06T14:16:36.000Z</time>
      </trkpt>
      <trkpt lat="45.12887" lon="5.88886">
        <ele>1776</ele>
        <time>2021-01-06T14:16:37.000Z</time>
      </trkpt>
      <trkpt lat="45.1289" lon="5.88885">
        <ele>1775</ele>
        <time>2021-01-06T14:16:38.000Z</time>
      </trkpt>
      <trkpt lat="45.12895" lon="5.88882">
        <ele>1773.1999511719</ele>
        <time>2021-01-06T14:16:40.000Z</time>
      </trkpt>
      <trkpt lat="45.12898" lon="5.8888">
        <ele>1772.1999511719</ele>
        <time>2021-01-06T14:16:41.000Z</time>
      </trkpt>
      <trkpt lat="45.12902" lon="5.8888">
        <ele>1771.1999511719</ele>
        <time>2021-01-06T14:16:42.000Z</time>
      </trkpt>
      <trkpt lat="45.12905" lon="5.88879">
        <ele>1770.1999511719</ele>
        <time>2021-01-06T14:16:43.000Z</time>
      </trkpt>
      <trkpt lat="45.12908" lon="5.88877">
        <ele>1769</ele>
        <time>2021-01-06T14:16:44.000Z</time>
      </trkpt>
      <trkpt lat="45.12911" lon="5.88876">
        <ele>1768</ele>
        <time>2021-01-06T14:16:45.000Z</time>
      </trkpt>
      <trkpt lat="45.12913" lon="5.88878">
        <ele>1767</ele>
        <time>2021-01-06T14:16:46.000Z</time>
      </trkpt>
      <trkpt lat="45.12915" lon="5.88877">
        <ele>1766</ele>
        <time>2021-01-06T14:16:47.000Z</time>
      </trkpt>
      <trkpt lat="45.12917" lon="5.88874">
        <ele>1764.8000488281</ele>
        <time>2021-01-06T14:16:48.000Z</time>
      </trkpt>
      <trkpt lat="45.12919" lon="5.88873">
        <ele>1763.8000488281</ele>
        <time>2021-01-06T14:16:49.000Z</time>
      </trkpt>
      <trkpt lat="45.12921" lon="5.88871">
        <ele>1762</ele>
        <time>2021-01-06T14:16:51.000Z</time>
      </trkpt>
      <trkpt lat="45.12921" lon="5.88871">
        <ele>1760.8000488281</ele>
        <time>2021-01-06T14:16:53.000Z</time>
      </trkpt>
      <trkpt lat="45.12921" lon="5.88871">
        <ele>1759.8000488281</ele>
        <time>2021-01-06T14:16:56.000Z</time>
      </trkpt>
      <trkpt lat="45.12921" lon="5.88871">
        <ele>1759.1999511719</ele>
        <time>2021-01-06T14:17:05.000Z</time>
      </trkpt>
      <trkpt lat="45.12922" lon="5.88872">
        <ele>1759.1999511719</ele>
        <time>2021-01-06T14:17:07.000Z</time>
      </trkpt>
      <trkpt lat="45.12926" lon="5.88869">
        <ele>1759</ele>
        <time>2021-01-06T14:17:09.000Z</time>
      </trkpt>
      <trkpt lat="45.12928" lon="5.88866">
        <ele>1758.5999755859</ele>
        <time>2021-01-06T14:17:10.000Z</time>
      </trkpt>
      <trkpt lat="45.12934" lon="5.88866">
        <ele>1758</ele>
        <time>2021-01-06T14:17:12.000Z</time>
      </trkpt>
      <trkpt lat="45.12937" lon="5.88864">
        <ele>1757.4000244141</ele>
        <time>2021-01-06T14:17:13.000Z</time>
      </trkpt>
      <trkpt lat="45.12944" lon="5.88862">
        <ele>1756.1999511719</ele>
        <time>2021-01-06T14:17:15.000Z</time>
      </trkpt>
      <trkpt lat="45.1295" lon="5.88859">
        <ele>1754.5999755859</ele>
        <time>2021-01-06T14:17:17.000Z</time>
      </trkpt>
      <trkpt lat="45.12953" lon="5.88859">
        <ele>1753.8000488281</ele>
        <time>2021-01-06T14:17:18.000Z</time>
      </trkpt>
      <trkpt lat="45.12956" lon="5.88859">
        <ele>1753</ele>
        <time>2021-01-06T14:17:19.000Z</time>
      </trkpt>
      <trkpt lat="45.12959" lon="5.88855">
        <ele>1751.5999755859</ele>
        <time>2021-01-06T14:17:21.000Z</time>
      </trkpt>
      <trkpt lat="45.12964" lon="5.88856">
        <ele>1750</ele>
        <time>2021-01-06T14:17:23.000Z</time>
      </trkpt>
      <trkpt lat="45.12967" lon="5.88856">
        <ele>1749.4000244141</ele>
        <time>2021-01-06T14:17:24.000Z</time>
      </trkpt>
      <trkpt lat="45.12969" lon="5.88855">
        <ele>1748.1999511719</ele>
        <time>2021-01-06T14:17:25.000Z</time>
      </trkpt>
      <trkpt lat="45.12973" lon="5.88849">
        <ele>1747</ele>
        <time>2021-01-06T14:17:27.000Z</time>
      </trkpt>
      <trkpt lat="45.12976" lon="5.88847">
        <ele>1746.4000244141</ele>
        <time>2021-01-06T14:17:28.000Z</time>
      </trkpt>
      <trkpt lat="45.12979" lon="5.88845">
        <ele>1745.5999755859</ele>
        <time>2021-01-06T14:17:29.000Z</time>
      </trkpt>
      <trkpt lat="45.12984" lon="5.88848">
        <ele>1744.1999511719</ele>
        <time>2021-01-06T14:17:31.000Z</time>
      </trkpt>
      <trkpt lat="45.1299" lon="5.88852">
        <ele>1743.1999511719</ele>
        <time>2021-01-06T14:17:33.000Z</time>
      </trkpt>
      <trkpt lat="45.12994" lon="5.88851">
        <ele>1742.1999511719</ele>
        <time>2021-01-06T14:17:35.000Z</time>
      </trkpt>
      <trkpt lat="45.12995" lon="5.88849">
        <ele>1741.5999755859</ele>
        <time>2021-01-06T14:17:36.000Z</time>
      </trkpt>
      <trkpt lat="45.13001" lon="5.88847">
        <ele>1740.5999755859</ele>
        <time>2021-01-06T14:17:38.000Z</time>
      </trkpt>
      <trkpt lat="45.13004" lon="5.88848">
        <ele>1740</ele>
        <time>2021-01-06T14:17:39.000Z</time>
      </trkpt>
      <trkpt lat="45.13009" lon="5.8885">
        <ele>1739</ele>
        <time>2021-01-06T14:17:41.000Z</time>
      </trkpt>
      <trkpt lat="45.13011" lon="5.88849">
        <ele>1738.4000244141</ele>
        <time>2021-01-06T14:17:42.000Z</time>
      </trkpt>
      <trkpt lat="45.13014" lon="5.88849">
        <ele>1737.8000488281</ele>
        <time>2021-01-06T14:17:43.000Z</time>
      </trkpt>
      <trkpt lat="45.13022" lon="5.88851">
        <ele>1736.4000244141</ele>
        <time>2021-01-06T14:17:46.000Z</time>
      </trkpt>
      <trkpt lat="45.13025" lon="5.88851">
        <ele>1735.8000488281</ele>
        <time>2021-01-06T14:17:47.000Z</time>
      </trkpt>
      <trkpt lat="45.1303" lon="5.88852">
        <ele>1734.1999511719</ele>
        <time>2021-01-06T14:17:49.000Z</time>
      </trkpt>
      <trkpt lat="45.13034" lon="5.88855">
        <ele>1732.5999755859</ele>
        <time>2021-01-06T14:17:51.000Z</time>
      </trkpt>
      <trkpt lat="45.13046" lon="5.88858">
        <ele>1731.4000244141</ele>
        <time>2021-01-06T14:17:55.000Z</time>
      </trkpt>
      <trkpt lat="45.13051" lon="5.8886">
        <ele>1730.1999511719</ele>
        <time>2021-01-06T14:17:57.000Z</time>
      </trkpt>
      <trkpt lat="45.13056" lon="5.88864">
        <ele>1729</ele>
        <time>2021-01-06T14:17:59.000Z</time>
      </trkpt>
      <trkpt lat="45.13061" lon="5.88869">
        <ele>1727.8000488281</ele>
        <time>2021-01-06T14:18:01.000Z</time>
      </trkpt>
      <trkpt lat="45.13065" lon="5.8887">
        <ele>1726.5999755859</ele>
        <time>2021-01-06T14:18:03.000Z</time>
      </trkpt>
      <trkpt lat="45.13069" lon="5.88875">
        <ele>1725</ele>
        <time>2021-01-06T14:18:05.000Z</time>
      </trkpt>
      <trkpt lat="45.1307" lon="5.88878">
        <ele>1724.1999511719</ele>
        <time>2021-01-06T14:18:06.000Z</time>
      </trkpt>
      <trkpt lat="45.1307" lon="5.8888">
        <ele>1723.1999511719</ele>
        <time>2021-01-06T14:18:07.000Z</time>
      </trkpt>
      <trkpt lat="45.13073" lon="5.88883">
        <ele>1721.5999755859</ele>
        <time>2021-01-06T14:18:09.000Z</time>
      </trkpt>
      <trkpt lat="45.13076" lon="5.88884">
        <ele>1720.8000488281</ele>
        <time>2021-01-06T14:18:10.000Z</time>
      </trkpt>
      <trkpt lat="45.13078" lon="5.88886">
        <ele>1720</ele>
        <time>2021-01-06T14:18:11.000Z</time>
      </trkpt>
      <trkpt lat="45.13082" lon="5.88886">
        <ele>1717.4000244141</ele>
        <time>2021-01-06T14:18:13.000Z</time>
      </trkpt>
      <trkpt lat="45.13089" lon="5.88884">
        <ele>1715.5999755859</ele>
        <time>2021-01-06T14:18:15.000Z</time>
      </trkpt>
      <trkpt lat="45.13092" lon="5.88885">
        <ele>1714.8000488281</ele>
        <time>2021-01-06T14:18:16.000Z</time>
      </trkpt>
      <trkpt lat="45.13095" lon="5.88884">
        <ele>1713.8000488281</ele>
        <time>2021-01-06T14:18:17.000Z</time>
      </trkpt>
      <trkpt lat="45.13101" lon="5.88881">
        <ele>1712.4000244141</ele>
        <time>2021-01-06T14:18:19.000Z</time>
      </trkpt>
      <trkpt lat="45.13104" lon="5.8888">
        <ele>1711.5999755859</ele>
        <time>2021-01-06T14:18:20.000Z</time>
      </trkpt>
      <trkpt lat="45.13106" lon="5.88877">
        <ele>1710.8000488281</ele>
        <time>2021-01-06T14:18:21.000Z</time>
      </trkpt>
      <trkpt lat="45.13111" lon="5.88873">
        <ele>1709</ele>
        <time>2021-01-06T14:18:23.000Z</time>
      </trkpt>
      <trkpt lat="45.13113" lon="5.88874">
        <ele>1707.8000488281</ele>
        <time>2021-01-06T14:18:24.000Z</time>
      </trkpt>
      <trkpt lat="45.13114" lon="5.88875">
        <ele>1706.8000488281</ele>
        <time>2021-01-06T14:18:25.000Z</time>
      </trkpt>
      <trkpt lat="45.13115" lon="5.88876">
        <ele>1705.4000244141</ele>
        <time>2021-01-06T14:18:27.000Z</time>
      </trkpt>
      <trkpt lat="45.13115" lon="5.88876">
        <ele>1704.4000244141</ele>
        <time>2021-01-06T14:18:32.000Z</time>
      </trkpt>
      <trkpt lat="45.13117" lon="5.88876">
        <ele>1704</ele>
        <time>2021-01-06T14:18:34.000Z</time>
      </trkpt>
      <trkpt lat="45.13125" lon="5.88874">
        <ele>1703.4000244141</ele>
        <time>2021-01-06T14:18:37.000Z</time>
      </trkpt>
      <trkpt lat="45.13128" lon="5.88874">
        <ele>1703.1999511719</ele>
        <time>2021-01-06T14:18:38.000Z</time>
      </trkpt>
      <trkpt lat="45.13132" lon="5.88871">
        <ele>1702.1999511719</ele>
        <time>2021-01-06T14:18:40.000Z</time>
      </trkpt>
      <trkpt lat="45.13135" lon="5.8887">
        <ele>1701.8000488281</ele>
        <time>2021-01-06T14:18:41.000Z</time>
      </trkpt>
      <trkpt lat="45.1314" lon="5.88869">
        <ele>1700.5999755859</ele>
        <time>2021-01-06T14:18:43.000Z</time>
      </trkpt>
      <trkpt lat="45.13144" lon="5.88865">
        <ele>1699.1999511719</ele>
        <time>2021-01-06T14:18:45.000Z</time>
      </trkpt>
      <trkpt lat="45.13148" lon="5.88866">
        <ele>1697.5999755859</ele>
        <time>2021-01-06T14:18:47.000Z</time>
      </trkpt>
      <trkpt lat="45.13151" lon="5.88866">
        <ele>1697</ele>
        <time>2021-01-06T14:18:48.000Z</time>
      </trkpt>
      <trkpt lat="45.13153" lon="5.88864">
        <ele>1696.1999511719</ele>
        <time>2021-01-06T14:18:49.000Z</time>
      </trkpt>
      <trkpt lat="45.13155" lon="5.88857">
        <ele>1695</ele>
        <time>2021-01-06T14:18:51.000Z</time>
      </trkpt>
      <trkpt lat="45.13159" lon="5.88853">
        <ele>1693.8000488281</ele>
        <time>2021-01-06T14:18:53.000Z</time>
      </trkpt>
      <trkpt lat="45.13161" lon="5.88853">
        <ele>1693.1999511719</ele>
        <time>2021-01-06T14:18:54.000Z</time>
      </trkpt>
      <trkpt lat="45.13163" lon="5.88853">
        <ele>1692.5999755859</ele>
        <time>2021-01-06T14:18:55.000Z</time>
      </trkpt>
      <trkpt lat="45.13164" lon="5.88851">
        <ele>1691.8000488281</ele>
        <time>2021-01-06T14:18:57.000Z</time>
      </trkpt>
      <trkpt lat="45.13164" lon="5.88851">
        <ele>1691.4000244141</ele>
        <time>2021-01-06T14:18:58.000Z</time>
      </trkpt>
      <trkpt lat="45.13165" lon="5.88851">
        <ele>1690.1999511719</ele>
        <time>2021-01-06T14:19:00.000Z</time>
      </trkpt>
      <trkpt lat="45.13168" lon="5.88848">
        <ele>1689.4000244141</ele>
        <time>2021-01-06T14:19:04.000Z</time>
      </trkpt>
      <trkpt lat="45.13174" lon="5.8885">
        <ele>1689.1999511719</ele>
        <time>2021-01-06T14:19:07.000Z</time>
      </trkpt>
      <trkpt lat="45.13175" lon="5.88851">
        <ele>1689</ele>
        <time>2021-01-06T14:19:08.000Z</time>
      </trkpt>
      <trkpt lat="45.13176" lon="5.88851">
        <ele>1688.5999755859</ele>
        <time>2021-01-06T14:19:09.000Z</time>
      </trkpt>
      <trkpt lat="45.13177" lon="5.88851">
        <ele>1688.1999511719</ele>
        <time>2021-01-06T14:19:10.000Z</time>
      </trkpt>
      <trkpt lat="45.13177" lon="5.88851">
        <ele>1687</ele>
        <time>2021-01-06T14:19:13.000Z</time>
      </trkpt>
      <trkpt lat="45.13177" lon="5.88851">
        <ele>1686.1999511719</ele>
        <time>2021-01-06T14:19:25.000Z</time>
      </trkpt>
      <trkpt lat="45.13179" lon="5.88849">
        <ele>1686.4000244141</ele>
        <time>2021-01-06T14:19:31.000Z</time>
      </trkpt>
      <trkpt lat="45.1318" lon="5.88846">
        <ele>1686</ele>
        <time>2021-01-06T14:19:33.000Z</time>
      </trkpt>
      <trkpt lat="45.1318" lon="5.88844">
        <ele>1685.8000488281</ele>
        <time>2021-01-06T14:19:34.000Z</time>
      </trkpt>
      <trkpt lat="45.13181" lon="5.88844">
        <ele>1685.4000244141</ele>
        <time>2021-01-06T14:19:39.000Z</time>
      </trkpt>
      <trkpt lat="45.1318" lon="5.88843">
        <ele>1685.4000244141</ele>
        <time>2021-01-06T14:19:46.000Z</time>
      </trkpt>
      <trkpt lat="45.1318" lon="5.88843">
        <ele>1685.5999755859</ele>
        <time>2021-01-06T14:19:52.000Z</time>
      </trkpt>
      <trkpt lat="45.1318" lon="5.88843">
        <ele>1684.8000488281</ele>
        <time>2021-01-06T14:19:59.000Z</time>
      </trkpt>
      <trkpt lat="45.1318" lon="5.88843">
        <ele>1685.1999511719</ele>
        <time>2021-01-06T14:20:04.000Z</time>
      </trkpt>
      <trkpt lat="45.1318" lon="5.88843">
        <ele>1684.5999755859</ele>
        <time>2021-01-06T14:20:22.000Z</time>
      </trkpt>
      <trkpt lat="45.1318" lon="5.88843">
        <ele>1685.8000488281</ele>
        <time>2021-01-06T14:20:29.000Z</time>
      </trkpt>
      <trkpt lat="45.1318" lon="5.88843">
        <ele>1685.8000488281</ele>
        <time>2021-01-06T14:20:35.000Z</time>
      </trkpt>
      <trkpt lat="45.1318" lon="5.88843">
        <ele>1685.5999755859</ele>
        <time>2021-01-06T14:20:42.000Z</time>
      </trkpt>
      <trkpt lat="45.1318" lon="5.88843">
        <ele>1685.4000244141</ele>
        <time>2021-01-06T14:20:46.000Z</time>
      </trkpt>
      <trkpt lat="45.13182" lon="5.88848">
        <ele>1685.4000244141</ele>
        <time>2021-01-06T14:20:47.000Z</time>
      </trkpt>
      <trkpt lat="45.13191" lon="5.88863">
        <ele>1685</ele>
        <time>2021-01-06T14:20:53.000Z</time>
      </trkpt>
      <trkpt lat="45.13192" lon="5.88865">
        <ele>1684.8000488281</ele>
        <time>2021-01-06T14:20:54.000Z</time>
      </trkpt>
      <trkpt lat="45.13196" lon="5.88874">
        <ele>1684.5999755859</ele>
        <time>2021-01-06T14:20:57.000Z</time>
      </trkpt>
      <trkpt lat="45.13199" lon="5.88878">
        <ele>1684.4000244141</ele>
        <time>2021-01-06T14:20:58.000Z</time>
      </trkpt>
      <trkpt lat="45.1321" lon="5.88896">
        <ele>1683.4000244141</ele>
        <time>2021-01-06T14:21:02.000Z</time>
      </trkpt>
      <trkpt lat="45.13212" lon="5.88899">
        <ele>1682.8000488281</ele>
        <time>2021-01-06T14:21:03.000Z</time>
      </trkpt>
      <trkpt lat="45.13214" lon="5.88902">
        <ele>1682.4000244141</ele>
        <time>2021-01-06T14:21:04.000Z</time>
      </trkpt>
      <trkpt lat="45.13224" lon="5.88915">
        <ele>1681.4000244141</ele>
        <time>2021-01-06T14:21:09.000Z</time>
      </trkpt>
      <trkpt lat="45.13232" lon="5.88927">
        <ele>1681.1999511719</ele>
        <time>2021-01-06T14:21:15.000Z</time>
      </trkpt>
      <trkpt lat="45.13239" lon="5.88937">
        <ele>1681</ele>
        <time>2021-01-06T14:21:19.000Z</time>
      </trkpt>
      <trkpt lat="45.13246" lon="5.88949">
        <ele>1680</ele>
        <time>2021-01-06T14:21:23.000Z</time>
      </trkpt>
      <trkpt lat="45.13247" lon="5.88951">
        <ele>1679.8000488281</ele>
        <time>2021-01-06T14:21:24.000Z</time>
      </trkpt>
      <trkpt lat="45.13251" lon="5.88954">
        <ele>1678.8000488281</ele>
        <time>2021-01-06T14:21:26.000Z</time>
      </trkpt>
      <trkpt lat="45.13255" lon="5.88958">
        <ele>1678</ele>
        <time>2021-01-06T14:21:28.000Z</time>
      </trkpt>
      <trkpt lat="45.13257" lon="5.88961">
        <ele>1677.5999755859</ele>
        <time>2021-01-06T14:21:29.000Z</time>
      </trkpt>
      <trkpt lat="45.1326" lon="5.8897">
        <ele>1676.5999755859</ele>
        <time>2021-01-06T14:21:31.000Z</time>
      </trkpt>
      <trkpt lat="45.13262" lon="5.88973">
        <ele>1676</ele>
        <time>2021-01-06T14:21:32.000Z</time>
      </trkpt>
      <trkpt lat="45.13269" lon="5.88976">
        <ele>1674.4000244141</ele>
        <time>2021-01-06T14:21:34.000Z</time>
      </trkpt>
      <trkpt lat="45.13276" lon="5.88981">
        <ele>1672.5999755859</ele>
        <time>2021-01-06T14:21:36.000Z</time>
      </trkpt>
      <trkpt lat="45.13279" lon="5.88984">
        <ele>1671.8000488281</ele>
        <time>2021-01-06T14:21:37.000Z</time>
      </trkpt>
      <trkpt lat="45.13282" lon="5.88987">
        <ele>1670.8000488281</ele>
        <time>2021-01-06T14:21:38.000Z</time>
      </trkpt>
      <trkpt lat="45.13289" lon="5.88992">
        <ele>1669</ele>
        <time>2021-01-06T14:21:40.000Z</time>
      </trkpt>
      <trkpt lat="45.13293" lon="5.88996">
        <ele>1668</ele>
        <time>2021-01-06T14:21:41.000Z</time>
      </trkpt>
      <trkpt lat="45.13296" lon="5.88999">
        <ele>1667</ele>
        <time>2021-01-06T14:21:42.000Z</time>
      </trkpt>
      <trkpt lat="45.13299" lon="5.89002">
        <ele>1666</ele>
        <time>2021-01-06T14:21:43.000Z</time>
      </trkpt>
      <trkpt lat="45.13302" lon="5.89003">
        <ele>1664.5999755859</ele>
        <time>2021-01-06T14:21:44.000Z</time>
      </trkpt>
      <trkpt lat="45.13304" lon="5.89005">
        <ele>1663.4000244141</ele>
        <time>2021-01-06T14:21:45.000Z</time>
      </trkpt>
      <trkpt lat="45.13306" lon="5.89006">
        <ele>1662</ele>
        <time>2021-01-06T14:21:46.000Z</time>
      </trkpt>
      <trkpt lat="45.13308" lon="5.89006">
        <ele>1660.5999755859</ele>
        <time>2021-01-06T14:21:47.000Z</time>
      </trkpt>
      <trkpt lat="45.13311" lon="5.89007">
        <ele>1659.4000244141</ele>
        <time>2021-01-06T14:21:48.000Z</time>
      </trkpt>
      <trkpt lat="45.13316" lon="5.89012">
        <ele>1656.4000244141</ele>
        <time>2021-01-06T14:21:50.000Z</time>
      </trkpt>
      <trkpt lat="45.13319" lon="5.89012">
        <ele>1655.1999511719</ele>
        <time>2021-01-06T14:21:51.000Z</time>
      </trkpt>
      <trkpt lat="45.13322" lon="5.89011">
        <ele>1653.8000488281</ele>
        <time>2021-01-06T14:21:52.000Z</time>
      </trkpt>
      <trkpt lat="45.13325" lon="5.89009">
        <ele>1652</ele>
        <time>2021-01-06T14:21:53.000Z</time>
      </trkpt>
      <trkpt lat="45.13329" lon="5.89007">
        <ele>1650.5999755859</ele>
        <time>2021-01-06T14:21:54.000Z</time>
      </trkpt>
      <trkpt lat="45.13332" lon="5.89003">
        <ele>1649</ele>
        <time>2021-01-06T14:21:55.000Z</time>
      </trkpt>
      <trkpt lat="45.13334" lon="5.88998">
        <ele>1647.4000244141</ele>
        <time>2021-01-06T14:21:56.000Z</time>
      </trkpt>
      <trkpt lat="45.13335" lon="5.88995">
        <ele>1645.8000488281</ele>
        <time>2021-01-06T14:21:57.000Z</time>
      </trkpt>
      <trkpt lat="45.13337" lon="5.88994">
        <ele>1644.1999511719</ele>
        <time>2021-01-06T14:21:58.000Z</time>
      </trkpt>
      <trkpt lat="45.13338" lon="5.88994">
        <ele>1642.8000488281</ele>
        <time>2021-01-06T14:21:59.000Z</time>
      </trkpt>
      <trkpt lat="45.13338" lon="5.88994">
        <ele>1641.8000488281</ele>
        <time>2021-01-06T14:22:00.000Z</time>
      </trkpt>
      <trkpt lat="45.13338" lon="5.88994">
        <ele>1640.5999755859</ele>
        <time>2021-01-06T14:22:02.000Z</time>
      </trkpt>
      <trkpt lat="45.13339" lon="5.8899">
        <ele>1640.1999511719</ele>
        <time>2021-01-06T14:22:06.000Z</time>
      </trkpt>
      <trkpt lat="45.13341" lon="5.88986">
        <ele>1640.1999511719</ele>
        <time>2021-01-06T14:22:07.000Z</time>
      </trkpt>
      <trkpt lat="45.13341" lon="5.8897">
        <ele>1639.4000244141</ele>
        <time>2021-01-06T14:22:10.000Z</time>
      </trkpt>
      <trkpt lat="45.13342" lon="5.88958">
        <ele>1637.1999511719</ele>
        <time>2021-01-06T14:22:12.000Z</time>
      </trkpt>
      <trkpt lat="45.13341" lon="5.88952">
        <ele>1635.5999755859</ele>
        <time>2021-01-06T14:22:13.000Z</time>
      </trkpt>
      <trkpt lat="45.1334" lon="5.88945">
        <ele>1632.1999511719</ele>
        <time>2021-01-06T14:22:14.000Z</time>
      </trkpt>
      <trkpt lat="45.13341" lon="5.88938">
        <ele>1630.4000244141</ele>
        <time>2021-01-06T14:22:15.000Z</time>
      </trkpt>
      <trkpt lat="45.13339" lon="5.8893">
        <ele>1628.4000244141</ele>
        <time>2021-01-06T14:22:16.000Z</time>
      </trkpt>
      <trkpt lat="45.13339" lon="5.88923">
        <ele>1626.4000244141</ele>
        <time>2021-01-06T14:22:17.000Z</time>
      </trkpt>
      <trkpt lat="45.13338" lon="5.88916">
        <ele>1624.4000244141</ele>
        <time>2021-01-06T14:22:18.000Z</time>
      </trkpt>
      <trkpt lat="45.13335" lon="5.88908">
        <ele>1622.4000244141</ele>
        <time>2021-01-06T14:22:19.000Z</time>
      </trkpt>
      <trkpt lat="45.13334" lon="5.88902">
        <ele>1620.5999755859</ele>
        <time>2021-01-06T14:22:20.000Z</time>
      </trkpt>
      <trkpt lat="45.13333" lon="5.88895">
        <ele>1618.8000488281</ele>
        <time>2021-01-06T14:22:21.000Z</time>
      </trkpt>
      <trkpt lat="45.13332" lon="5.88888">
        <ele>1617</ele>
        <time>2021-01-06T14:22:22.000Z</time>
      </trkpt>
      <trkpt lat="45.1333" lon="5.8888">
        <ele>1615.4000244141</ele>
        <time>2021-01-06T14:22:23.000Z</time>
      </trkpt>
      <trkpt lat="45.13329" lon="5.88872">
        <ele>1614</ele>
        <time>2021-01-06T14:22:24.000Z</time>
      </trkpt>
      <trkpt lat="45.13329" lon="5.88865">
        <ele>1612.5999755859</ele>
        <time>2021-01-06T14:22:25.000Z</time>
      </trkpt>
      <trkpt lat="45.13328" lon="5.88858">
        <ele>1611.1999511719</ele>
        <time>2021-01-06T14:22:26.000Z</time>
      </trkpt>
      <trkpt lat="45.13326" lon="5.88851">
        <ele>1609.8000488281</ele>
        <time>2021-01-06T14:22:27.000Z</time>
      </trkpt>
      <trkpt lat="45.13326" lon="5.88846">
        <ele>1608.5999755859</ele>
        <time>2021-01-06T14:22:28.000Z</time>
      </trkpt>
      <trkpt lat="45.13327" lon="5.88841">
        <ele>1607.4000244141</ele>
        <time>2021-01-06T14:22:29.000Z</time>
      </trkpt>
      <trkpt lat="45.13328" lon="5.88835">
        <ele>1606.4000244141</ele>
        <time>2021-01-06T14:22:30.000Z</time>
      </trkpt>
      <trkpt lat="45.1333" lon="5.88829">
        <ele>1605.5999755859</ele>
        <time>2021-01-06T14:22:31.000Z</time>
      </trkpt>
      <trkpt lat="45.1333" lon="5.88824">
        <ele>1605</ele>
        <time>2021-01-06T14:22:32.000Z</time>
      </trkpt>
      <trkpt lat="45.13331" lon="5.88818">
        <ele>1604.4000244141</ele>
        <time>2021-01-06T14:22:33.000Z</time>
      </trkpt>
      <trkpt lat="45.13333" lon="5.88808">
        <ele>1602.5999755859</ele>
        <time>2021-01-06T14:22:35.000Z</time>
      </trkpt>
      <trkpt lat="45.13335" lon="5.88803">
        <ele>1601.5999755859</ele>
        <time>2021-01-06T14:22:36.000Z</time>
      </trkpt>
      <trkpt lat="45.13337" lon="5.88797">
        <ele>1600.5999755859</ele>
        <time>2021-01-06T14:22:37.000Z</time>
      </trkpt>
      <trkpt lat="45.1334" lon="5.88792">
        <ele>1598.4000244141</ele>
        <time>2021-01-06T14:22:38.000Z</time>
      </trkpt>
      <trkpt lat="45.13342" lon="5.88787">
        <ele>1597</ele>
        <time>2021-01-06T14:22:39.000Z</time>
      </trkpt>
      <trkpt lat="45.13343" lon="5.88783">
        <ele>1595.5999755859</ele>
        <time>2021-01-06T14:22:40.000Z</time>
      </trkpt>
      <trkpt lat="45.13345" lon="5.88781">
        <ele>1594.1999511719</ele>
        <time>2021-01-06T14:22:41.000Z</time>
      </trkpt>
      <trkpt lat="45.13348" lon="5.88779">
        <ele>1593</ele>
        <time>2021-01-06T14:22:42.000Z</time>
      </trkpt>
      <trkpt lat="45.13351" lon="5.88778">
        <ele>1592</ele>
        <time>2021-01-06T14:22:43.000Z</time>
      </trkpt>
      <trkpt lat="45.13354" lon="5.88776">
        <ele>1590.8000488281</ele>
        <time>2021-01-06T14:22:44.000Z</time>
      </trkpt>
      <trkpt lat="45.13357" lon="5.88774">
        <ele>1589.5999755859</ele>
        <time>2021-01-06T14:22:45.000Z</time>
      </trkpt>
      <trkpt lat="45.1336" lon="5.88773">
        <ele>1588.4000244141</ele>
        <time>2021-01-06T14:22:46.000Z</time>
      </trkpt>
      <trkpt lat="45.13364" lon="5.88773">
        <ele>1587.1999511719</ele>
        <time>2021-01-06T14:22:47.000Z</time>
      </trkpt>
      <trkpt lat="45.13367" lon="5.88774">
        <ele>1586</ele>
        <time>2021-01-06T14:22:48.000Z</time>
      </trkpt>
      <trkpt lat="45.1337" lon="5.88773">
        <ele>1585</ele>
        <time>2021-01-06T14:22:49.000Z</time>
      </trkpt>
      <trkpt lat="45.13374" lon="5.88773">
        <ele>1583.8000488281</ele>
        <time>2021-01-06T14:22:50.000Z</time>
      </trkpt>
      <trkpt lat="45.13376" lon="5.88775">
        <ele>1582.5999755859</ele>
        <time>2021-01-06T14:22:51.000Z</time>
      </trkpt>
      <trkpt lat="45.13379" lon="5.88778">
        <ele>1581.4000244141</ele>
        <time>2021-01-06T14:22:52.000Z</time>
      </trkpt>
      <trkpt lat="45.1338" lon="5.8878">
        <ele>1580</ele>
        <time>2021-01-06T14:22:53.000Z</time>
      </trkpt>
      <trkpt lat="45.13382" lon="5.88781">
        <ele>1578.5999755859</ele>
        <time>2021-01-06T14:22:54.000Z</time>
      </trkpt>
      <trkpt lat="45.13383" lon="5.8878">
        <ele>1577.1999511719</ele>
        <time>2021-01-06T14:22:55.000Z</time>
      </trkpt>
      <trkpt lat="45.13386" lon="5.8878">
        <ele>1576</ele>
        <time>2021-01-06T14:22:56.000Z</time>
      </trkpt>
      <trkpt lat="45.13388" lon="5.88781">
        <ele>1574.8000488281</ele>
        <time>2021-01-06T14:22:57.000Z</time>
      </trkpt>
      <trkpt lat="45.13391" lon="5.88782">
        <ele>1573.5999755859</ele>
        <time>2021-01-06T14:22:58.000Z</time>
      </trkpt>
      <trkpt lat="45.13394" lon="5.88782">
        <ele>1572.4000244141</ele>
        <time>2021-01-06T14:22:59.000Z</time>
      </trkpt>
      <trkpt lat="45.13396" lon="5.8878">
        <ele>1571</ele>
        <time>2021-01-06T14:23:00.000Z</time>
      </trkpt>
      <trkpt lat="45.13398" lon="5.88778">
        <ele>1569.4000244141</ele>
        <time>2021-01-06T14:23:01.000Z</time>
      </trkpt>
      <trkpt lat="45.13403" lon="5.88776">
        <ele>1566.4000244141</ele>
        <time>2021-01-06T14:23:02.000Z</time>
      </trkpt>
      <trkpt lat="45.13407" lon="5.88776">
        <ele>1565</ele>
        <time>2021-01-06T14:23:03.000Z</time>
      </trkpt>
      <trkpt lat="45.1341" lon="5.88777">
        <ele>1563.8000488281</ele>
        <time>2021-01-06T14:23:04.000Z</time>
      </trkpt>
      <trkpt lat="45.13413" lon="5.88779">
        <ele>1562.8000488281</ele>
        <time>2021-01-06T14:23:05.000Z</time>
      </trkpt>
      <trkpt lat="45.13415" lon="5.8878">
        <ele>1561.8000488281</ele>
        <time>2021-01-06T14:23:06.000Z</time>
      </trkpt>
      <trkpt lat="45.13418" lon="5.88779">
        <ele>1560.8000488281</ele>
        <time>2021-01-06T14:23:07.000Z</time>
      </trkpt>
      <trkpt lat="45.13422" lon="5.8878">
        <ele>1559.1999511719</ele>
        <time>2021-01-06T14:23:08.000Z</time>
      </trkpt>
      <trkpt lat="45.13424" lon="5.88783">
        <ele>1557.5999755859</ele>
        <time>2021-01-06T14:23:09.000Z</time>
      </trkpt>
      <trkpt lat="45.13427" lon="5.88784">
        <ele>1556</ele>
        <time>2021-01-06T14:23:10.000Z</time>
      </trkpt>
      <trkpt lat="45.13429" lon="5.88784">
        <ele>1554.1999511719</ele>
        <time>2021-01-06T14:23:11.000Z</time>
      </trkpt>
      <trkpt lat="45.13431" lon="5.88783">
        <ele>1552.8000488281</ele>
        <time>2021-01-06T14:23:12.000Z</time>
      </trkpt>
      <trkpt lat="45.13433" lon="5.88783">
        <ele>1551</ele>
        <time>2021-01-06T14:23:13.000Z</time>
      </trkpt>
      <trkpt lat="45.13436" lon="5.88785">
        <ele>1549.5999755859</ele>
        <time>2021-01-06T14:23:14.000Z</time>
      </trkpt>
      <trkpt lat="45.13439" lon="5.88788">
        <ele>1548.4000244141</ele>
        <time>2021-01-06T14:23:15.000Z</time>
      </trkpt>
      <trkpt lat="45.13441" lon="5.88795">
        <ele>1546.5999755859</ele>
        <time>2021-01-06T14:23:17.000Z</time>
      </trkpt>
      <trkpt lat="45.13442" lon="5.88798">
        <ele>1545.5999755859</ele>
        <time>2021-01-06T14:23:18.000Z</time>
      </trkpt>
      <trkpt lat="45.13442" lon="5.88801">
        <ele>1544.5999755859</ele>
        <time>2021-01-06T14:23:19.000Z</time>
      </trkpt>
      <trkpt lat="45.13443" lon="5.88804">
        <ele>1543.4000244141</ele>
        <time>2021-01-06T14:23:20.000Z</time>
      </trkpt>
      <trkpt lat="45.13443" lon="5.88806">
        <ele>1542.4000244141</ele>
        <time>2021-01-06T14:23:21.000Z</time>
      </trkpt>
      <trkpt lat="45.13445" lon="5.88811">
        <ele>1540.5999755859</ele>
        <time>2021-01-06T14:23:23.000Z</time>
      </trkpt>
      <trkpt lat="45.13449" lon="5.88815">
        <ele>1538.5999755859</ele>
        <time>2021-01-06T14:23:25.000Z</time>
      </trkpt>
      <trkpt lat="45.13451" lon="5.88817">
        <ele>1536.1999511719</ele>
        <time>2021-01-06T14:23:26.000Z</time>
      </trkpt>
      <trkpt lat="45.13454" lon="5.88819">
        <ele>1535</ele>
        <time>2021-01-06T14:23:27.000Z</time>
      </trkpt>
      <trkpt lat="45.13458" lon="5.88821">
        <ele>1533.8000488281</ele>
        <time>2021-01-06T14:23:28.000Z</time>
      </trkpt>
      <trkpt lat="45.13462" lon="5.88823">
        <ele>1532.5999755859</ele>
        <time>2021-01-06T14:23:29.000Z</time>
      </trkpt>
      <trkpt lat="45.13466" lon="5.88825">
        <ele>1531.5999755859</ele>
        <time>2021-01-06T14:23:30.000Z</time>
      </trkpt>
      <trkpt lat="45.13471" lon="5.88827">
        <ele>1530.1999511719</ele>
        <time>2021-01-06T14:23:31.000Z</time>
      </trkpt>
      <trkpt lat="45.13476" lon="5.88828">
        <ele>1529</ele>
        <time>2021-01-06T14:23:32.000Z</time>
      </trkpt>
      <trkpt lat="45.13481" lon="5.8883">
        <ele>1528</ele>
        <time>2021-01-06T14:23:33.000Z</time>
      </trkpt>
      <trkpt lat="45.13486" lon="5.88828">
        <ele>1526.8000488281</ele>
        <time>2021-01-06T14:23:34.000Z</time>
      </trkpt>
      <trkpt lat="45.1349" lon="5.88826">
        <ele>1525.5999755859</ele>
        <time>2021-01-06T14:23:35.000Z</time>
      </trkpt>
      <trkpt lat="45.13493" lon="5.88825">
        <ele>1524.4000244141</ele>
        <time>2021-01-06T14:23:36.000Z</time>
      </trkpt>
      <trkpt lat="45.13496" lon="5.88824">
        <ele>1523.4000244141</ele>
        <time>2021-01-06T14:23:37.000Z</time>
      </trkpt>
      <trkpt lat="45.13501" lon="5.88824">
        <ele>1522.1999511719</ele>
        <time>2021-01-06T14:23:39.000Z</time>
      </trkpt>
      <trkpt lat="45.13504" lon="5.88824">
        <ele>1522</ele>
        <time>2021-01-06T14:23:41.000Z</time>
      </trkpt>
      <trkpt lat="45.13513" lon="5.88829">
        <ele>1522.1999511719</ele>
        <time>2021-01-06T14:23:49.000Z</time>
      </trkpt>
      <trkpt lat="45.13515" lon="5.88829">
        <ele>1522</ele>
        <time>2021-01-06T14:23:50.000Z</time>
      </trkpt>
      <trkpt lat="45.13524" lon="5.8883">
        <ele>1520.5999755859</ele>
        <time>2021-01-06T14:23:53.000Z</time>
      </trkpt>
      <trkpt lat="45.13532" lon="5.88832">
        <ele>1518.5999755859</ele>
        <time>2021-01-06T14:23:55.000Z</time>
      </trkpt>
      <trkpt lat="45.13535" lon="5.88834">
        <ele>1517.5999755859</ele>
        <time>2021-01-06T14:23:56.000Z</time>
      </trkpt>
      <trkpt lat="45.13538" lon="5.88835">
        <ele>1516.5999755859</ele>
        <time>2021-01-06T14:23:57.000Z</time>
      </trkpt>
      <trkpt lat="45.13542" lon="5.88836">
        <ele>1515.5999755859</ele>
        <time>2021-01-06T14:23:58.000Z</time>
      </trkpt>
      <trkpt lat="45.13545" lon="5.88836">
        <ele>1514.4000244141</ele>
        <time>2021-01-06T14:23:59.000Z</time>
      </trkpt>
      <trkpt lat="45.13551" lon="5.88836">
        <ele>1513.1999511719</ele>
        <time>2021-01-06T14:24:00.000Z</time>
      </trkpt>
      <trkpt lat="45.13555" lon="5.88837">
        <ele>1512</ele>
        <time>2021-01-06T14:24:01.000Z</time>
      </trkpt>
      <trkpt lat="45.13562" lon="5.88832">
        <ele>1510.5999755859</ele>
        <time>2021-01-06T14:24:02.000Z</time>
      </trkpt>
      <trkpt lat="45.13567" lon="5.8883">
        <ele>1509.1999511719</ele>
        <time>2021-01-06T14:24:03.000Z</time>
      </trkpt>
      <trkpt lat="45.1357" lon="5.88831">
        <ele>1507.8000488281</ele>
        <time>2021-01-06T14:24:04.000Z</time>
      </trkpt>
      <trkpt lat="45.13575" lon="5.8883">
        <ele>1506.5999755859</ele>
        <time>2021-01-06T14:24:05.000Z</time>
      </trkpt>
      <trkpt lat="45.1358" lon="5.88828">
        <ele>1505.4000244141</ele>
        <time>2021-01-06T14:24:06.000Z</time>
      </trkpt>
      <trkpt lat="45.13583" lon="5.88827">
        <ele>1504.4000244141</ele>
        <time>2021-01-06T14:24:07.000Z</time>
      </trkpt>
      <trkpt lat="45.13588" lon="5.88826">
        <ele>1503.1999511719</ele>
        <time>2021-01-06T14:24:08.000Z</time>
      </trkpt>
      <trkpt lat="45.13591" lon="5.88826">
        <ele>1502.1999511719</ele>
        <time>2021-01-06T14:24:09.000Z</time>
      </trkpt>
      <trkpt lat="45.13594" lon="5.88824">
        <ele>1501.1999511719</ele>
        <time>2021-01-06T14:24:10.000Z</time>
      </trkpt>
      <trkpt lat="45.13598" lon="5.88823">
        <ele>1500</ele>
        <time>2021-01-06T14:24:11.000Z</time>
      </trkpt>
      <trkpt lat="45.13601" lon="5.88824">
        <ele>1499</ele>
        <time>2021-01-06T14:24:12.000Z</time>
      </trkpt>
      <trkpt lat="45.13605" lon="5.88825">
        <ele>1497.5999755859</ele>
        <time>2021-01-06T14:24:13.000Z</time>
      </trkpt>
      <trkpt lat="45.1361" lon="5.88825">
        <ele>1494.8000488281</ele>
        <time>2021-01-06T14:24:14.000Z</time>
      </trkpt>
      <trkpt lat="45.13615" lon="5.88824">
        <ele>1493.4000244141</ele>
        <time>2021-01-06T14:24:15.000Z</time>
      </trkpt>
      <trkpt lat="45.13619" lon="5.88823">
        <ele>1492.1999511719</ele>
        <time>2021-01-06T14:24:16.000Z</time>
      </trkpt>
      <trkpt lat="45.13624" lon="5.88823">
        <ele>1490.8000488281</ele>
        <time>2021-01-06T14:24:17.000Z</time>
      </trkpt>
      <trkpt lat="45.13628" lon="5.88824">
        <ele>1489.5999755859</ele>
        <time>2021-01-06T14:24:18.000Z</time>
      </trkpt>
      <trkpt lat="45.13634" lon="5.88822">
        <ele>1488.4000244141</ele>
        <time>2021-01-06T14:24:19.000Z</time>
      </trkpt>
      <trkpt lat="45.13639" lon="5.88821">
        <ele>1487</ele>
        <time>2021-01-06T14:24:20.000Z</time>
      </trkpt>
      <trkpt lat="45.13645" lon="5.8882">
        <ele>1485.8000488281</ele>
        <time>2021-01-06T14:24:21.000Z</time>
      </trkpt>
      <trkpt lat="45.1365" lon="5.88818">
        <ele>1484.5999755859</ele>
        <time>2021-01-06T14:24:22.000Z</time>
      </trkpt>
      <trkpt lat="45.13654" lon="5.88816">
        <ele>1483.8000488281</ele>
        <time>2021-01-06T14:24:23.000Z</time>
      </trkpt>
      <trkpt lat="45.13657" lon="5.88814">
        <ele>1482.8000488281</ele>
        <time>2021-01-06T14:24:24.000Z</time>
      </trkpt>
      <trkpt lat="45.13663" lon="5.8881">
        <ele>1481.1999511719</ele>
        <time>2021-01-06T14:24:26.000Z</time>
      </trkpt>
      <trkpt lat="45.13666" lon="5.8881">
        <ele>1480.4000244141</ele>
        <time>2021-01-06T14:24:27.000Z</time>
      </trkpt>
      <trkpt lat="45.13669" lon="5.88811">
        <ele>1479.8000488281</ele>
        <time>2021-01-06T14:24:28.000Z</time>
      </trkpt>
      <trkpt lat="45.13675" lon="5.88812">
        <ele>1478</ele>
        <time>2021-01-06T14:24:30.000Z</time>
      </trkpt>
      <trkpt lat="45.13678" lon="5.88812">
        <ele>1477</ele>
        <time>2021-01-06T14:24:31.000Z</time>
      </trkpt>
      <trkpt lat="45.13681" lon="5.88813">
        <ele>1476</ele>
        <time>2021-01-06T14:24:32.000Z</time>
      </trkpt>
      <trkpt lat="45.13685" lon="5.88815">
        <ele>1474.8000488281</ele>
        <time>2021-01-06T14:24:33.000Z</time>
      </trkpt>
      <trkpt lat="45.13689" lon="5.88817">
        <ele>1473.4000244141</ele>
        <time>2021-01-06T14:24:34.000Z</time>
      </trkpt>
      <trkpt lat="45.13694" lon="5.88818">
        <ele>1472</ele>
        <time>2021-01-06T14:24:35.000Z</time>
      </trkpt>
      <trkpt lat="45.13698" lon="5.88818">
        <ele>1470.4000244141</ele>
        <time>2021-01-06T14:24:36.000Z</time>
      </trkpt>
      <trkpt lat="45.13702" lon="5.88821">
        <ele>1469</ele>
        <time>2021-01-06T14:24:37.000Z</time>
      </trkpt>
      <trkpt lat="45.13706" lon="5.88823">
        <ele>1466.8000488281</ele>
        <time>2021-01-06T14:24:38.000Z</time>
      </trkpt>
      <trkpt lat="45.13713" lon="5.88825">
        <ele>1465</ele>
        <time>2021-01-06T14:24:40.000Z</time>
      </trkpt>
      <trkpt lat="45.1372" lon="5.88823">
        <ele>1463.8000488281</ele>
        <time>2021-01-06T14:24:42.000Z</time>
      </trkpt>
      <trkpt lat="45.13729" lon="5.88821">
        <ele>1462.1999511719</ele>
        <time>2021-01-06T14:24:44.000Z</time>
      </trkpt>
      <trkpt lat="45.13733" lon="5.88821">
        <ele>1461.1999511719</ele>
        <time>2021-01-06T14:24:45.000Z</time>
      </trkpt>
      <trkpt lat="45.13736" lon="5.88822">
        <ele>1460.1999511719</ele>
        <time>2021-01-06T14:24:46.000Z</time>
      </trkpt>
      <trkpt lat="45.13738" lon="5.88824">
        <ele>1459</ele>
        <time>2021-01-06T14:24:47.000Z</time>
      </trkpt>
      <trkpt lat="45.13741" lon="5.88825">
        <ele>1457.5999755859</ele>
        <time>2021-01-06T14:24:48.000Z</time>
      </trkpt>
      <trkpt lat="45.13744" lon="5.88825">
        <ele>1456.4000244141</ele>
        <time>2021-01-06T14:24:49.000Z</time>
      </trkpt>
      <trkpt lat="45.13746" lon="5.88824">
        <ele>1455</ele>
        <time>2021-01-06T14:24:50.000Z</time>
      </trkpt>
      <trkpt lat="45.13748" lon="5.88822">
        <ele>1453.8000488281</ele>
        <time>2021-01-06T14:24:51.000Z</time>
      </trkpt>
      <trkpt lat="45.1375" lon="5.88818">
        <ele>1452.5999755859</ele>
        <time>2021-01-06T14:24:52.000Z</time>
      </trkpt>
      <trkpt lat="45.13752" lon="5.88816">
        <ele>1451.5999755859</ele>
        <time>2021-01-06T14:24:53.000Z</time>
      </trkpt>
      <trkpt lat="45.13757" lon="5.88818">
        <ele>1449.5999755859</ele>
        <time>2021-01-06T14:24:55.000Z</time>
      </trkpt>
      <trkpt lat="45.1376" lon="5.88818">
        <ele>1448.5999755859</ele>
        <time>2021-01-06T14:24:56.000Z</time>
      </trkpt>
      <trkpt lat="45.13762" lon="5.88817">
        <ele>1447.4000244141</ele>
        <time>2021-01-06T14:24:57.000Z</time>
      </trkpt>
      <trkpt lat="45.13765" lon="5.88817">
        <ele>1446.1999511719</ele>
        <time>2021-01-06T14:24:58.000Z</time>
      </trkpt>
      <trkpt lat="45.13768" lon="5.88817">
        <ele>1445</ele>
        <time>2021-01-06T14:24:59.000Z</time>
      </trkpt>
      <trkpt lat="45.13771" lon="5.88816">
        <ele>1443.5999755859</ele>
        <time>2021-01-06T14:25:00.000Z</time>
      </trkpt>
      <trkpt lat="45.13776" lon="5.88815">
        <ele>1442.1999511719</ele>
        <time>2021-01-06T14:25:01.000Z</time>
      </trkpt>
      <trkpt lat="45.1378" lon="5.88814">
        <ele>1438.8000488281</ele>
        <time>2021-01-06T14:25:02.000Z</time>
      </trkpt>
      <trkpt lat="45.13784" lon="5.88813">
        <ele>1436.8000488281</ele>
        <time>2021-01-06T14:25:03.000Z</time>
      </trkpt>
      <trkpt lat="45.13789" lon="5.88813">
        <ele>1434.8000488281</ele>
        <time>2021-01-06T14:25:04.000Z</time>
      </trkpt>
      <trkpt lat="45.13795" lon="5.88812">
        <ele>1432.8000488281</ele>
        <time>2021-01-06T14:25:05.000Z</time>
      </trkpt>
      <trkpt lat="45.13802" lon="5.8881">
        <ele>1430.8000488281</ele>
        <time>2021-01-06T14:25:06.000Z</time>
      </trkpt>
      <trkpt lat="45.13806" lon="5.88806">
        <ele>1428.8000488281</ele>
        <time>2021-01-06T14:25:07.000Z</time>
      </trkpt>
      <trkpt lat="45.1381" lon="5.88801">
        <ele>1426.8000488281</ele>
        <time>2021-01-06T14:25:08.000Z</time>
      </trkpt>
      <trkpt lat="45.13814" lon="5.88797">
        <ele>1425</ele>
        <time>2021-01-06T14:25:09.000Z</time>
      </trkpt>
      <trkpt lat="45.13816" lon="5.88793">
        <ele>1423.5999755859</ele>
        <time>2021-01-06T14:25:10.000Z</time>
      </trkpt>
      <trkpt lat="45.1382" lon="5.88792">
        <ele>1422.4000244141</ele>
        <time>2021-01-06T14:25:11.000Z</time>
      </trkpt>
      <trkpt lat="45.13829" lon="5.88788">
        <ele>1420.4000244141</ele>
        <time>2021-01-06T14:25:13.000Z</time>
      </trkpt>
      <trkpt lat="45.13832" lon="5.88786">
        <ele>1419.4000244141</ele>
        <time>2021-01-06T14:25:14.000Z</time>
      </trkpt>
      <trkpt lat="45.13835" lon="5.88785">
        <ele>1418.4000244141</ele>
        <time>2021-01-06T14:25:15.000Z</time>
      </trkpt>
      <trkpt lat="45.13842" lon="5.88786">
        <ele>1416.8000488281</ele>
        <time>2021-01-06T14:25:17.000Z</time>
      </trkpt>
      <trkpt lat="45.13848" lon="5.88783">
        <ele>1415</ele>
        <time>2021-01-06T14:25:19.000Z</time>
      </trkpt>
      <trkpt lat="45.13854" lon="5.8878">
        <ele>1413.4000244141</ele>
        <time>2021-01-06T14:25:21.000Z</time>
      </trkpt>
      <trkpt lat="45.13859" lon="5.88782">
        <ele>1412.1999511719</ele>
        <time>2021-01-06T14:25:23.000Z</time>
      </trkpt>
      <trkpt lat="45.13864" lon="5.88788">
        <ele>1411.4000244141</ele>
        <time>2021-01-06T14:25:25.000Z</time>
      </trkpt>
      <trkpt lat="45.13866" lon="5.88791">
        <ele>1410.1999511719</ele>
        <time>2021-01-06T14:25:26.000Z</time>
      </trkpt>
      <trkpt lat="45.13872" lon="5.88794">
        <ele>1408.5999755859</ele>
        <time>2021-01-06T14:25:28.000Z</time>
      </trkpt>
      <trkpt lat="45.13874" lon="5.88794">
        <ele>1407.4000244141</ele>
        <time>2021-01-06T14:25:29.000Z</time>
      </trkpt>
      <trkpt lat="45.13876" lon="5.88794">
        <ele>1406.1999511719</ele>
        <time>2021-01-06T14:25:30.000Z</time>
      </trkpt>
      <trkpt lat="45.13878" lon="5.88793">
        <ele>1405.1999511719</ele>
        <time>2021-01-06T14:25:31.000Z</time>
      </trkpt>
      <trkpt lat="45.1388" lon="5.88792">
        <ele>1404</ele>
        <time>2021-01-06T14:25:32.000Z</time>
      </trkpt>
      <trkpt lat="45.13881" lon="5.88791">
        <ele>1403</ele>
        <time>2021-01-06T14:25:33.000Z</time>
      </trkpt>
      <trkpt lat="45.13885" lon="5.8879">
        <ele>1401</ele>
        <time>2021-01-06T14:25:35.000Z</time>
      </trkpt>
      <trkpt lat="45.13887" lon="5.88791">
        <ele>1400.1999511719</ele>
        <time>2021-01-06T14:25:36.000Z</time>
      </trkpt>
      <trkpt lat="45.13889" lon="5.88791">
        <ele>1399.5999755859</ele>
        <time>2021-01-06T14:25:37.000Z</time>
      </trkpt>
      <trkpt lat="45.13895" lon="5.88788">
        <ele>1397.5999755859</ele>
        <time>2021-01-06T14:25:39.000Z</time>
      </trkpt>
      <trkpt lat="45.13897" lon="5.88785">
        <ele>1395.8000488281</ele>
        <time>2021-01-06T14:25:41.000Z</time>
      </trkpt>
      <trkpt lat="45.13899" lon="5.88782">
        <ele>1394.8000488281</ele>
        <time>2021-01-06T14:25:43.000Z</time>
      </trkpt>
      <trkpt lat="45.13903" lon="5.8878">
        <ele>1394.4000244141</ele>
        <time>2021-01-06T14:25:49.000Z</time>
      </trkpt>
      <trkpt lat="45.13905" lon="5.88779">
        <ele>1394.4000244141</ele>
        <time>2021-01-06T14:25:51.000Z</time>
      </trkpt>
      <trkpt lat="45.1391" lon="5.88777">
        <ele>1394</ele>
        <time>2021-01-06T14:25:53.000Z</time>
      </trkpt>
      <trkpt lat="45.13914" lon="5.88777">
        <ele>1393.5999755859</ele>
        <time>2021-01-06T14:25:54.000Z</time>
      </trkpt>
      <trkpt lat="45.13921" lon="5.88779">
        <ele>1392.5999755859</ele>
        <time>2021-01-06T14:25:56.000Z</time>
      </trkpt>
      <trkpt lat="45.13925" lon="5.88779">
        <ele>1391.8000488281</ele>
        <time>2021-01-06T14:25:57.000Z</time>
      </trkpt>
      <trkpt lat="45.13929" lon="5.88779">
        <ele>1390.8000488281</ele>
        <time>2021-01-06T14:25:58.000Z</time>
      </trkpt>
      <trkpt lat="45.13937" lon="5.88782">
        <ele>1389</ele>
        <time>2021-01-06T14:26:00.000Z</time>
      </trkpt>
      <trkpt lat="45.13946" lon="5.88782">
        <ele>1386.8000488281</ele>
        <time>2021-01-06T14:26:02.000Z</time>
      </trkpt>
      <trkpt lat="45.13951" lon="5.88781">
        <ele>1385.5999755859</ele>
        <time>2021-01-06T14:26:03.000Z</time>
      </trkpt>
      <trkpt lat="45.13955" lon="5.88779">
        <ele>1384.4000244141</ele>
        <time>2021-01-06T14:26:04.000Z</time>
      </trkpt>
      <trkpt lat="45.1396" lon="5.88778">
        <ele>1383</ele>
        <time>2021-01-06T14:26:05.000Z</time>
      </trkpt>
      <trkpt lat="45.13965" lon="5.88778">
        <ele>1382</ele>
        <time>2021-01-06T14:26:06.000Z</time>
      </trkpt>
      <trkpt lat="45.13971" lon="5.88778">
        <ele>1380.8000488281</ele>
        <time>2021-01-06T14:26:07.000Z</time>
      </trkpt>
      <trkpt lat="45.13977" lon="5.88778">
        <ele>1379.5999755859</ele>
        <time>2021-01-06T14:26:08.000Z</time>
      </trkpt>
      <trkpt lat="45.13983" lon="5.88778">
        <ele>1378.1999511719</ele>
        <time>2021-01-06T14:26:09.000Z</time>
      </trkpt>
      <trkpt lat="45.13989" lon="5.88777">
        <ele>1377</ele>
        <time>2021-01-06T14:26:10.000Z</time>
      </trkpt>
      <trkpt lat="45.13994" lon="5.88776">
        <ele>1375.8000488281</ele>
        <time>2021-01-06T14:26:11.000Z</time>
      </trkpt>
      <trkpt lat="45.13999" lon="5.88774">
        <ele>1374.5999755859</ele>
        <time>2021-01-06T14:26:12.000Z</time>
      </trkpt>
      <trkpt lat="45.14004" lon="5.88772">
        <ele>1373.5999755859</ele>
        <time>2021-01-06T14:26:13.000Z</time>
      </trkpt>
      <trkpt lat="45.14008" lon="5.88772">
        <ele>1372.1999511719</ele>
        <time>2021-01-06T14:26:14.000Z</time>
      </trkpt>
      <trkpt lat="45.14015" lon="5.88774">
        <ele>1371.5999755859</ele>
        <time>2021-01-06T14:26:16.000Z</time>
      </trkpt>
      <trkpt lat="45.14022" lon="5.88776">
        <ele>1371.1999511719</ele>
        <time>2021-01-06T14:26:19.000Z</time>
      </trkpt>
      <trkpt lat="45.14025" lon="5.88776">
        <ele>1371.1999511719</ele>
        <time>2021-01-06T14:26:20.000Z</time>
      </trkpt>
      <trkpt lat="45.14027" lon="5.88776">
        <ele>1371.1999511719</ele>
        <time>2021-01-06T14:26:21.000Z</time>
      </trkpt>
      <trkpt lat="45.14033" lon="5.88778">
        <ele>1370.5999755859</ele>
        <time>2021-01-06T14:26:26.000Z</time>
      </trkpt>
      <trkpt lat="45.14034" lon="5.88778">
        <ele>1370.8000488281</ele>
        <time>2021-01-06T14:26:31.000Z</time>
      </trkpt>
      <trkpt lat="45.14037" lon="5.88778">
        <ele>1370.8000488281</ele>
        <time>2021-01-06T14:26:32.000Z</time>
      </trkpt>
      <trkpt lat="45.14051" lon="5.88785">
        <ele>1370</ele>
        <time>2021-01-06T14:26:37.000Z</time>
      </trkpt>
      <trkpt lat="45.14055" lon="5.88788">
        <ele>1368.1999511719</ele>
        <time>2021-01-06T14:26:38.000Z</time>
      </trkpt>
      <trkpt lat="45.14057" lon="5.88792">
        <ele>1367.1999511719</ele>
        <time>2021-01-06T14:26:39.000Z</time>
      </trkpt>
      <trkpt lat="45.14057" lon="5.88796">
        <ele>1366</ele>
        <time>2021-01-06T14:26:40.000Z</time>
      </trkpt>
      <trkpt lat="45.14055" lon="5.888">
        <ele>1364.8000488281</ele>
        <time>2021-01-06T14:26:41.000Z</time>
      </trkpt>
      <trkpt lat="45.14052" lon="5.88803">
        <ele>1363.4000244141</ele>
        <time>2021-01-06T14:26:42.000Z</time>
      </trkpt>
      <trkpt lat="45.14051" lon="5.88805">
        <ele>1362</ele>
        <time>2021-01-06T14:26:43.000Z</time>
      </trkpt>
      <trkpt lat="45.1405" lon="5.88809">
        <ele>1360.5999755859</ele>
        <time>2021-01-06T14:26:44.000Z</time>
      </trkpt>
      <trkpt lat="45.14048" lon="5.88812">
        <ele>1359.1999511719</ele>
        <time>2021-01-06T14:26:45.000Z</time>
      </trkpt>
      <trkpt lat="45.14047" lon="5.88814">
        <ele>1358</ele>
        <time>2021-01-06T14:26:46.000Z</time>
      </trkpt>
      <trkpt lat="45.14046" lon="5.88815">
        <ele>1357.1999511719</ele>
        <time>2021-01-06T14:26:47.000Z</time>
      </trkpt>
      <trkpt lat="45.14046" lon="5.88816">
        <ele>1356.8000488281</ele>
        <time>2021-01-06T14:26:48.000Z</time>
      </trkpt>
      <trkpt lat="45.14049" lon="5.88816">
        <ele>1355.8000488281</ele>
        <time>2021-01-06T14:26:52.000Z</time>
      </trkpt>
      <trkpt lat="45.1405" lon="5.88817">
        <ele>1355.4000244141</ele>
        <time>2021-01-06T14:26:53.000Z</time>
      </trkpt>
      <trkpt lat="45.14054" lon="5.88816">
        <ele>1354.4000244141</ele>
        <time>2021-01-06T14:26:56.000Z</time>
      </trkpt>
      <trkpt lat="45.14055" lon="5.88814">
        <ele>1354</ele>
        <time>2021-01-06T14:26:58.000Z</time>
      </trkpt>
      <trkpt lat="45.14056" lon="5.88814">
        <ele>1353.8000488281</ele>
        <time>2021-01-06T14:27:05.000Z</time>
      </trkpt>
      <trkpt lat="45.14056" lon="5.88814">
        <ele>1353.4000244141</ele>
        <time>2021-01-06T14:27:09.000Z</time>
      </trkpt>
      <trkpt lat="45.1406" lon="5.88814">
        <ele>1353.1999511719</ele>
        <time>2021-01-06T14:27:12.000Z</time>
      </trkpt>
      <trkpt lat="45.14062" lon="5.88815">
        <ele>1353</ele>
        <time>2021-01-06T14:27:20.000Z</time>
      </trkpt>
      <trkpt lat="45.14064" lon="5.88817">
        <ele>1353</ele>
        <time>2021-01-06T14:27:29.000Z</time>
      </trkpt>
      <trkpt lat="45.14065" lon="5.88818">
        <ele>1352.8000488281</ele>
        <time>2021-01-06T14:27:40.000Z</time>
      </trkpt>
      <trkpt lat="45.14065" lon="5.88818">
        <ele>1352.8000488281</ele>
        <time>2021-01-06T14:27:55.000Z</time>
      </trkpt>
      <trkpt lat="45.14067" lon="5.8882">
        <ele>1352.8000488281</ele>
        <time>2021-01-06T14:28:06.000Z</time>
      </trkpt>
      <trkpt lat="45.14067" lon="5.88821">
        <ele>1352.5999755859</ele>
        <time>2021-01-06T14:28:12.000Z</time>
      </trkpt>
      <trkpt lat="45.14067" lon="5.88821">
        <ele>1352.8000488281</ele>
        <time>2021-01-06T14:28:23.000Z</time>
      </trkpt>
      <trkpt lat="45.14068" lon="5.88822">
        <ele>1352.5999755859</ele>
        <time>2021-01-06T14:28:30.000Z</time>
      </trkpt>
      <trkpt lat="45.14068" lon="5.88822">
        <ele>1352.4000244141</ele>
        <time>2021-01-06T14:28:37.000Z</time>
      </trkpt>
      <trkpt lat="45.14068" lon="5.88822">
        <ele>1352.4000244141</ele>
        <time>2021-01-06T14:28:40.000Z</time>
      </trkpt>
      <trkpt lat="45.14069" lon="5.88822">
        <ele>1352.4000244141</ele>
        <time>2021-01-06T14:28:47.000Z</time>
      </trkpt>
      <trkpt lat="45.14069" lon="5.88822">
        <ele>1352.4000244141</ele>
        <time>2021-01-06T14:28:51.000Z</time>
      </trkpt>
      <trkpt lat="45.14069" lon="5.88822">
        <ele>1352.4000244141</ele>
        <time>2021-01-06T14:29:02.000Z</time>
      </trkpt>
      <trkpt lat="45.14069" lon="5.88821">
        <ele>1352.4000244141</ele>
        <time>2021-01-06T14:29:15.000Z</time>
      </trkpt>
      <trkpt lat="45.1407" lon="5.88821">
        <ele>1352.4000244141</ele>
        <time>2021-01-06T14:29:22.000Z</time>
      </trkpt>
      <trkpt lat="45.1407" lon="5.88821">
        <ele>1352.4000244141</ele>
        <time>2021-01-06T14:29:31.000Z</time>
      </trkpt>
      <trkpt lat="45.1407" lon="5.88821">
        <ele>1352.5999755859</ele>
        <time>2021-01-06T14:29:38.000Z</time>
      </trkpt>
      <trkpt lat="45.1407" lon="5.8882">
        <ele>1352.5999755859</ele>
        <time>2021-01-06T14:29:43.000Z</time>
      </trkpt>
      <trkpt lat="45.1407" lon="5.8882">
        <ele>1352.4000244141</ele>
        <time>2021-01-06T14:29:50.000Z</time>
      </trkpt>
      <trkpt lat="45.14073" lon="5.88819">
        <ele>1352.5999755859</ele>
        <time>2021-01-06T14:29:55.000Z</time>
      </trkpt>
      <trkpt lat="45.14074" lon="5.88821">
        <ele>1352.4000244141</ele>
        <time>2021-01-06T14:30:02.000Z</time>
      </trkpt>
      <trkpt lat="45.14074" lon="5.88821">
        <ele>1351.8000488281</ele>
        <time>2021-01-06T14:30:12.000Z</time>
      </trkpt>
      <trkpt lat="45.14074" lon="5.88821">
        <ele>1352</ele>
        <time>2021-01-06T14:30:18.000Z</time>
      </trkpt>
      <trkpt lat="45.14074" lon="5.88821">
        <ele>1352.4000244141</ele>
        <time>2021-01-06T14:30:31.000Z</time>
      </trkpt>
      <trkpt lat="45.14074" lon="5.88821">
        <ele>1352.4000244141</ele>
        <time>2021-01-06T14:30:38.000Z</time>
      </trkpt>
      <trkpt lat="45.14074" lon="5.8882">
        <ele>1352</ele>
        <time>2021-01-06T14:30:46.000Z</time>
      </trkpt>
      <trkpt lat="45.14074" lon="5.8882">
        <ele>1352.4000244141</ele>
        <time>2021-01-06T14:30:54.000Z</time>
      </trkpt>
      <trkpt lat="45.14074" lon="5.8882">
        <ele>1352.1999511719</ele>
        <time>2021-01-06T14:31:03.000Z</time>
      </trkpt>
      <trkpt lat="45.14074" lon="5.8882">
        <ele>1352.1999511719</ele>
        <time>2021-01-06T14:31:14.000Z</time>
      </trkpt>
      <trkpt lat="45.14074" lon="5.8882">
        <ele>1352.1999511719</ele>
        <time>2021-01-06T14:31:28.000Z</time>
      </trkpt>
      <trkpt lat="45.14074" lon="5.8882">
        <ele>1352.4000244141</ele>
        <time>2021-01-06T14:31:35.000Z</time>
      </trkpt>
      <trkpt lat="45.14074" lon="5.8882">
        <ele>1352.1999511719</ele>
        <time>2021-01-06T14:31:43.000Z</time>
      </trkpt>
      <trkpt lat="45.14074" lon="5.8882">
        <ele>1352.4000244141</ele>
        <time>2021-01-06T14:31:53.000Z</time>
      </trkpt>
      <trkpt lat="45.14075" lon="5.88821">
        <ele>1352.5999755859</ele>
        <time>2021-01-06T14:32:02.000Z</time>
      </trkpt>
      <trkpt lat="45.14075" lon="5.88821">
        <ele>1352.1999511719</ele>
        <time>2021-01-06T14:32:11.000Z</time>
      </trkpt>
      <trkpt lat="45.14075" lon="5.88822">
        <ele>1352.1999511719</ele>
        <time>2021-01-06T14:32:16.000Z</time>
      </trkpt>
      <trkpt lat="45.14075" lon="5.88822">
        <ele>1352.5999755859</ele>
        <time>2021-01-06T14:32:27.000Z</time>
      </trkpt>
      <trkpt lat="45.14075" lon="5.88821">
        <ele>1352.4000244141</ele>
        <time>2021-01-06T14:32:34.000Z</time>
      </trkpt>
      <trkpt lat="45.14075" lon="5.88821">
        <ele>1352.5999755859</ele>
        <time>2021-01-06T14:32:42.000Z</time>
      </trkpt>
      <trkpt lat="45.14075" lon="5.88821">
        <ele>1352.1999511719</ele>
        <time>2021-01-06T14:32:54.000Z</time>
      </trkpt>
      <trkpt lat="45.14075" lon="5.88821">
        <ele>1352.4000244141</ele>
        <time>2021-01-06T14:33:05.000Z</time>
      </trkpt>
      <trkpt lat="45.14075" lon="5.88821">
        <ele>1352.4000244141</ele>
        <time>2021-01-06T14:33:17.000Z</time>
      </trkpt>
      <trkpt lat="45.14075" lon="5.88821">
        <ele>1352.8000488281</ele>
        <time>2021-01-06T14:33:27.000Z</time>
      </trkpt>
      <trkpt lat="45.14076" lon="5.88821">
        <ele>1352.5999755859</ele>
        <time>2021-01-06T14:33:32.000Z</time>
      </trkpt>
      <trkpt lat="45.14075" lon="5.88821">
        <ele>1352.4000244141</ele>
        <time>2021-01-06T14:33:33.000Z</time>
      </trkpt>
      <trkpt lat="45.14075" lon="5.88821">
        <ele>1352</ele>
        <time>2021-01-06T14:33:40.000Z</time>
      </trkpt>
    </trkseg>
  </trk>
</gpx>